<?xml version="1.0" encoding="UTF-8" standalone="no" ?>
<gpx xmlns="http://www.topografix.com/GPX/1/1" xmlns:xsi="http://www.w3.org/2001/XMLSchema-instance" xsi:schemaLocation="http://www.topografix.com/GPX/1/1 http://www.topografix.com/GPX/1/1/gpx.xsd" version="1.1" creator="VisuGPX - https://www.visugpx.com">
  <metadata>
    <name>2017-03-19 Bike ride-Saule d'Oingt</name>
    <desc><![CDATA[2017-03-19 Bike ride-Saule d'Oingt]]></desc>
  </metadata>
  <wpt lat="45.92436" lon="4.73709">
    <ele>174</ele>
    <name><![CDATA[2017-03-19 10:15 (Start)]]></name>
  </wpt>
  <wpt lat="45.92463" lon="4.73708">
    <ele>174</ele>
    <name><![CDATA[2017-03-19 10:15 (End)]]></name>
    <desc><![CDATA[Created by Google My Tracks on Android  Name: 2017-03-19 10:15 Activity type: biking Description: - Total distance: 39.62 km (24.6 mi) Total time: 2:29:29 Moving time: 2:20:16 Average speed: 15.90 km/h (9.9 mi/h) Average moving speed: 16.95 km/h (10.5 mi/h) Max speed: 46.27 km/h (28.8 mi/h) Average pace: 3:46 min/km (6:04 min/mi) Average moving pace: 3:32 min/km (5:42 min/mi) Fastest pace: 1:18 min/km (2:05 min/mi) Max elevation: 561 m (1839 ft) Min elevation: 132 m (432 ft) Elevation gain: 908 m (2978 ft) Max grade: 56 % Min grade: -14 % Recorded: 19/03/2017 10:15]]></desc>
  </wpt>
  <trk>
    <name><![CDATA[2017-03-19 10:15]]></name>
    <trkseg>
      <trkpt lat="45.92436" lon="4.73709">
        <ele>174</ele>
        <time>2017-03-19T09:15:56.3Z</time>
      </trkpt>
      <trkpt lat="45.92446" lon="4.73703">
        <ele>174</ele>
        <time>2017-03-19T09:16:09Z</time>
      </trkpt>
      <trkpt lat="45.92467" lon="4.737">
        <ele>174</ele>
        <time>2017-03-19T09:16:10Z</time>
      </trkpt>
      <trkpt lat="45.9247" lon="4.73704">
        <ele>174</ele>
        <time>2017-03-19T09:16:14Z</time>
      </trkpt>
      <trkpt lat="45.92476" lon="4.73704">
        <ele>174</ele>
        <time>2017-03-19T09:16:15Z</time>
      </trkpt>
      <trkpt lat="45.92479" lon="4.73704">
        <ele>174</ele>
        <time>2017-03-19T09:16:25Z</time>
      </trkpt>
      <trkpt lat="45.92469" lon="4.73704">
        <ele>174</ele>
        <time>2017-03-19T09:16:26Z</time>
      </trkpt>
      <trkpt lat="45.92474" lon="4.73705">
        <ele>174</ele>
        <time>2017-03-19T09:16:31Z</time>
      </trkpt>
      <trkpt lat="45.92477" lon="4.73707">
        <ele>174</ele>
        <time>2017-03-19T09:16:32Z</time>
      </trkpt>
      <trkpt lat="45.92481" lon="4.73697">
        <ele>174</ele>
        <time>2017-03-19T09:16:37Z</time>
      </trkpt>
      <trkpt lat="45.92481" lon="4.73694">
        <ele>174</ele>
        <time>2017-03-19T09:16:38Z</time>
      </trkpt>
      <trkpt lat="45.9248" lon="4.73683">
        <ele>174</ele>
        <time>2017-03-19T09:16:42Z</time>
      </trkpt>
      <trkpt lat="45.9248" lon="4.73679">
        <ele>175</ele>
        <time>2017-03-19T09:16:43Z</time>
      </trkpt>
      <trkpt lat="45.92479" lon="4.73669">
        <ele>175</ele>
        <time>2017-03-19T09:16:46Z</time>
      </trkpt>
      <trkpt lat="45.92478" lon="4.73666">
        <ele>174</ele>
        <time>2017-03-19T09:16:47Z</time>
      </trkpt>
      <trkpt lat="45.92476" lon="4.73657">
        <ele>174</ele>
        <time>2017-03-19T09:16:50Z</time>
      </trkpt>
      <trkpt lat="45.92475" lon="4.73654">
        <ele>174</ele>
        <time>2017-03-19T09:16:51Z</time>
      </trkpt>
      <trkpt lat="45.92477" lon="4.73643">
        <ele>174</ele>
        <time>2017-03-19T09:16:55Z</time>
      </trkpt>
      <trkpt lat="45.92481" lon="4.73641">
        <ele>174</ele>
        <time>2017-03-19T09:16:56Z</time>
      </trkpt>
      <trkpt lat="45.9249" lon="4.73637">
        <ele>174</ele>
        <time>2017-03-19T09:16:58Z</time>
      </trkpt>
      <trkpt lat="45.92492" lon="4.73636">
        <ele>174</ele>
        <time>2017-03-19T09:16:59Z</time>
      </trkpt>
      <trkpt lat="45.92499" lon="4.73635">
        <ele>174</ele>
        <time>2017-03-19T09:17:02Z</time>
      </trkpt>
      <trkpt lat="45.92501" lon="4.73634">
        <ele>174</ele>
        <time>2017-03-19T09:17:03Z</time>
      </trkpt>
      <trkpt lat="45.92508" lon="4.73632">
        <ele>173</ele>
        <time>2017-03-19T09:17:05Z</time>
      </trkpt>
      <trkpt lat="45.92511" lon="4.73632">
        <ele>173</ele>
        <time>2017-03-19T09:17:06Z</time>
      </trkpt>
      <trkpt lat="45.92519" lon="4.7363">
        <ele>173</ele>
        <time>2017-03-19T09:17:08Z</time>
      </trkpt>
      <trkpt lat="45.92524" lon="4.7363">
        <ele>173</ele>
        <time>2017-03-19T09:17:09Z</time>
      </trkpt>
      <trkpt lat="45.92532" lon="4.7363">
        <ele>173</ele>
        <time>2017-03-19T09:17:11Z</time>
      </trkpt>
      <trkpt lat="45.92534" lon="4.7363">
        <ele>173</ele>
        <time>2017-03-19T09:17:12Z</time>
      </trkpt>
      <trkpt lat="45.92542" lon="4.73627">
        <ele>173</ele>
        <time>2017-03-19T09:17:14Z</time>
      </trkpt>
      <trkpt lat="45.92545" lon="4.73626">
        <ele>173</ele>
        <time>2017-03-19T09:17:15Z</time>
      </trkpt>
      <trkpt lat="45.92552" lon="4.73628">
        <ele>173</ele>
        <time>2017-03-19T09:17:17Z</time>
      </trkpt>
      <trkpt lat="45.92556" lon="4.73627">
        <ele>173</ele>
        <time>2017-03-19T09:17:18Z</time>
      </trkpt>
      <trkpt lat="45.92564" lon="4.73627">
        <ele>173</ele>
        <time>2017-03-19T09:17:20Z</time>
      </trkpt>
      <trkpt lat="45.92568" lon="4.73625">
        <ele>173</ele>
        <time>2017-03-19T09:17:21Z</time>
      </trkpt>
      <trkpt lat="45.92573" lon="4.73623">
        <ele>173</ele>
        <time>2017-03-19T09:17:22Z</time>
      </trkpt>
      <trkpt lat="45.92578" lon="4.73622">
        <ele>173</ele>
        <time>2017-03-19T09:17:23Z</time>
      </trkpt>
      <trkpt lat="45.92583" lon="4.73622">
        <ele>173</ele>
        <time>2017-03-19T09:17:24Z</time>
      </trkpt>
      <trkpt lat="45.92588" lon="4.73621">
        <ele>173</ele>
        <time>2017-03-19T09:17:25Z</time>
      </trkpt>
      <trkpt lat="45.92593" lon="4.73619">
        <ele>173</ele>
        <time>2017-03-19T09:17:26Z</time>
      </trkpt>
      <trkpt lat="45.92598" lon="4.73617">
        <ele>173</ele>
        <time>2017-03-19T09:17:27Z</time>
      </trkpt>
      <trkpt lat="45.92603" lon="4.73616">
        <ele>173</ele>
        <time>2017-03-19T09:17:28Z</time>
      </trkpt>
      <trkpt lat="45.92608" lon="4.73615">
        <ele>173</ele>
        <time>2017-03-19T09:17:29Z</time>
      </trkpt>
      <trkpt lat="45.92613" lon="4.73614">
        <ele>173</ele>
        <time>2017-03-19T09:17:30Z</time>
      </trkpt>
      <trkpt lat="45.92618" lon="4.73613">
        <ele>173</ele>
        <time>2017-03-19T09:17:31Z</time>
      </trkpt>
      <trkpt lat="45.92623" lon="4.73613">
        <ele>173</ele>
        <time>2017-03-19T09:17:32Z</time>
      </trkpt>
      <trkpt lat="45.92628" lon="4.73614">
        <ele>173</ele>
        <time>2017-03-19T09:17:33Z</time>
      </trkpt>
      <trkpt lat="45.92635" lon="4.73621">
        <ele>173</ele>
        <time>2017-03-19T09:17:35Z</time>
      </trkpt>
      <trkpt lat="45.92637" lon="4.73627">
        <ele>173</ele>
        <time>2017-03-19T09:17:36Z</time>
      </trkpt>
      <trkpt lat="45.9264" lon="4.73633">
        <ele>173</ele>
        <time>2017-03-19T09:17:37Z</time>
      </trkpt>
      <trkpt lat="45.92643" lon="4.73639">
        <ele>173</ele>
        <time>2017-03-19T09:17:38Z</time>
      </trkpt>
      <trkpt lat="45.92645" lon="4.73646">
        <ele>173</ele>
        <time>2017-03-19T09:17:39Z</time>
      </trkpt>
      <trkpt lat="45.92648" lon="4.73652">
        <ele>173</ele>
        <time>2017-03-19T09:17:40Z</time>
      </trkpt>
      <trkpt lat="45.92653" lon="4.73656">
        <ele>173</ele>
        <time>2017-03-19T09:17:41Z</time>
      </trkpt>
      <trkpt lat="45.92656" lon="4.73664">
        <ele>173</ele>
        <time>2017-03-19T09:17:42Z</time>
      </trkpt>
      <trkpt lat="45.92661" lon="4.73668">
        <ele>174</ele>
        <time>2017-03-19T09:17:43Z</time>
      </trkpt>
      <trkpt lat="45.92667" lon="4.73672">
        <ele>174</ele>
        <time>2017-03-19T09:17:44Z</time>
      </trkpt>
      <trkpt lat="45.92672" lon="4.73677">
        <ele>174</ele>
        <time>2017-03-19T09:17:45Z</time>
      </trkpt>
      <trkpt lat="45.92677" lon="4.73682">
        <ele>174</ele>
        <time>2017-03-19T09:17:46Z</time>
      </trkpt>
      <trkpt lat="45.92684" lon="4.73685">
        <ele>174</ele>
        <time>2017-03-19T09:17:47Z</time>
      </trkpt>
      <trkpt lat="45.92691" lon="4.73687">
        <ele>173</ele>
        <time>2017-03-19T09:17:48Z</time>
      </trkpt>
      <trkpt lat="45.92697" lon="4.73691">
        <ele>173</ele>
        <time>2017-03-19T09:17:49Z</time>
      </trkpt>
      <trkpt lat="45.92704" lon="4.73693">
        <ele>173</ele>
        <time>2017-03-19T09:17:50Z</time>
      </trkpt>
      <trkpt lat="45.9271" lon="4.73695">
        <ele>173</ele>
        <time>2017-03-19T09:17:51Z</time>
      </trkpt>
      <trkpt lat="45.92716" lon="4.73697">
        <ele>173</ele>
        <time>2017-03-19T09:17:52Z</time>
      </trkpt>
      <trkpt lat="45.92723" lon="4.73698">
        <ele>173</ele>
        <time>2017-03-19T09:17:53Z</time>
      </trkpt>
      <trkpt lat="45.9273" lon="4.737">
        <ele>173</ele>
        <time>2017-03-19T09:17:54Z</time>
      </trkpt>
      <trkpt lat="45.92735" lon="4.73702">
        <ele>173</ele>
        <time>2017-03-19T09:17:55Z</time>
      </trkpt>
      <trkpt lat="45.92742" lon="4.73703">
        <ele>173</ele>
        <time>2017-03-19T09:17:56Z</time>
      </trkpt>
      <trkpt lat="45.92747" lon="4.73704">
        <ele>173</ele>
        <time>2017-03-19T09:17:57Z</time>
      </trkpt>
      <trkpt lat="45.92752" lon="4.73706">
        <ele>172</ele>
        <time>2017-03-19T09:17:58Z</time>
      </trkpt>
      <trkpt lat="45.9276" lon="4.73708">
        <ele>172</ele>
        <time>2017-03-19T09:18:00Z</time>
      </trkpt>
      <trkpt lat="45.92765" lon="4.7371">
        <ele>172</ele>
        <time>2017-03-19T09:18:01Z</time>
      </trkpt>
      <trkpt lat="45.92773" lon="4.7371">
        <ele>172</ele>
        <time>2017-03-19T09:18:04Z</time>
      </trkpt>
      <trkpt lat="45.92776" lon="4.73711">
        <ele>172</ele>
        <time>2017-03-19T09:18:05Z</time>
      </trkpt>
      <trkpt lat="45.92782" lon="4.73714">
        <ele>172</ele>
        <time>2017-03-19T09:18:07Z</time>
      </trkpt>
      <trkpt lat="45.92785" lon="4.73716">
        <ele>172</ele>
        <time>2017-03-19T09:18:08Z</time>
      </trkpt>
      <trkpt lat="45.92792" lon="4.73723">
        <ele>172</ele>
        <time>2017-03-19T09:18:12Z</time>
      </trkpt>
      <trkpt lat="45.928" lon="4.73716">
        <ele>172</ele>
        <time>2017-03-19T09:18:13Z</time>
      </trkpt>
      <trkpt lat="45.92802" lon="4.73711">
        <ele>172</ele>
        <time>2017-03-19T09:18:14Z</time>
      </trkpt>
      <trkpt lat="45.92805" lon="4.73705">
        <ele>172</ele>
        <time>2017-03-19T09:18:15Z</time>
      </trkpt>
      <trkpt lat="45.92811" lon="4.73697">
        <ele>172</ele>
        <time>2017-03-19T09:18:17Z</time>
      </trkpt>
      <trkpt lat="45.92812" lon="4.73694">
        <ele>172</ele>
        <time>2017-03-19T09:18:18Z</time>
      </trkpt>
      <trkpt lat="45.92812" lon="4.73691">
        <ele>172</ele>
        <time>2017-03-19T09:18:19Z</time>
      </trkpt>
      <trkpt lat="45.92812" lon="4.73689">
        <ele>172</ele>
        <time>2017-03-19T09:18:20Z</time>
      </trkpt>
      <trkpt lat="45.92814" lon="4.73688">
        <ele>172</ele>
        <time>2017-03-19T09:18:31Z</time>
      </trkpt>
      <trkpt lat="45.92793" lon="4.7369">
        <ele>172</ele>
        <time>2017-03-19T09:18:32Z</time>
      </trkpt>
      <trkpt lat="45.92794" lon="4.73679">
        <ele>172</ele>
        <time>2017-03-19T09:18:45Z</time>
      </trkpt>
      <trkpt lat="45.92795" lon="4.73676">
        <ele>172</ele>
        <time>2017-03-19T09:18:46Z</time>
      </trkpt>
      <trkpt lat="45.92797" lon="4.73668">
        <ele>172</ele>
        <time>2017-03-19T09:18:48Z</time>
      </trkpt>
      <trkpt lat="45.92799" lon="4.73663">
        <ele>172</ele>
        <time>2017-03-19T09:18:49Z</time>
      </trkpt>
      <trkpt lat="45.92802" lon="4.73652">
        <ele>172</ele>
        <time>2017-03-19T09:18:51Z</time>
      </trkpt>
      <trkpt lat="45.92804" lon="4.73646">
        <ele>172</ele>
        <time>2017-03-19T09:18:52Z</time>
      </trkpt>
      <trkpt lat="45.92807" lon="4.73635">
        <ele>172</ele>
        <time>2017-03-19T09:18:54Z</time>
      </trkpt>
      <trkpt lat="45.92809" lon="4.73631">
        <ele>172</ele>
        <time>2017-03-19T09:18:55Z</time>
      </trkpt>
      <trkpt lat="45.92815" lon="4.73626">
        <ele>172</ele>
        <time>2017-03-19T09:18:58Z</time>
      </trkpt>
      <trkpt lat="45.92815" lon="4.73625">
        <ele>172</ele>
        <time>2017-03-19T09:18:59Z</time>
      </trkpt>
      <trkpt lat="45.92818" lon="4.73623">
        <ele>172</ele>
        <time>2017-03-19T09:19:05Z</time>
      </trkpt>
      <trkpt lat="45.9282" lon="4.73621">
        <ele>172</ele>
        <time>2017-03-19T09:19:06Z</time>
      </trkpt>
      <trkpt lat="45.92822" lon="4.73608">
        <ele>171</ele>
        <time>2017-03-19T09:19:09Z</time>
      </trkpt>
      <trkpt lat="45.92822" lon="4.73604">
        <ele>171</ele>
        <time>2017-03-19T09:19:10Z</time>
      </trkpt>
      <trkpt lat="45.92822" lon="4.73593">
        <ele>171</ele>
        <time>2017-03-19T09:19:12Z</time>
      </trkpt>
      <trkpt lat="45.92822" lon="4.73587">
        <ele>171</ele>
        <time>2017-03-19T09:19:13Z</time>
      </trkpt>
      <trkpt lat="45.92822" lon="4.73581">
        <ele>171</ele>
        <time>2017-03-19T09:19:14Z</time>
      </trkpt>
      <trkpt lat="45.92823" lon="4.73574">
        <ele>171</ele>
        <time>2017-03-19T09:19:15Z</time>
      </trkpt>
      <trkpt lat="45.92823" lon="4.73567">
        <ele>171</ele>
        <time>2017-03-19T09:19:16Z</time>
      </trkpt>
      <trkpt lat="45.92824" lon="4.73559">
        <ele>171</ele>
        <time>2017-03-19T09:19:17Z</time>
      </trkpt>
      <trkpt lat="45.92824" lon="4.73552">
        <ele>171</ele>
        <time>2017-03-19T09:19:18Z</time>
      </trkpt>
      <trkpt lat="45.92825" lon="4.73544">
        <ele>171</ele>
        <time>2017-03-19T09:19:19Z</time>
      </trkpt>
      <trkpt lat="45.92826" lon="4.73536">
        <ele>172</ele>
        <time>2017-03-19T09:19:20Z</time>
      </trkpt>
      <trkpt lat="45.92827" lon="4.73528">
        <ele>172</ele>
        <time>2017-03-19T09:19:21Z</time>
      </trkpt>
      <trkpt lat="45.92827" lon="4.73521">
        <ele>172</ele>
        <time>2017-03-19T09:19:22Z</time>
      </trkpt>
      <trkpt lat="45.92828" lon="4.73513">
        <ele>172</ele>
        <time>2017-03-19T09:19:23Z</time>
      </trkpt>
      <trkpt lat="45.92829" lon="4.73505">
        <ele>172</ele>
        <time>2017-03-19T09:19:24Z</time>
      </trkpt>
      <trkpt lat="45.9283" lon="4.73497">
        <ele>172</ele>
        <time>2017-03-19T09:19:25Z</time>
      </trkpt>
      <trkpt lat="45.9283" lon="4.73489">
        <ele>172</ele>
        <time>2017-03-19T09:19:26Z</time>
      </trkpt>
      <trkpt lat="45.92831" lon="4.73481">
        <ele>172</ele>
        <time>2017-03-19T09:19:27Z</time>
      </trkpt>
      <trkpt lat="45.92832" lon="4.73474">
        <ele>172</ele>
        <time>2017-03-19T09:19:28Z</time>
      </trkpt>
      <trkpt lat="45.92833" lon="4.73466">
        <ele>172</ele>
        <time>2017-03-19T09:19:29Z</time>
      </trkpt>
      <trkpt lat="45.92834" lon="4.73459">
        <ele>172</ele>
        <time>2017-03-19T09:19:30Z</time>
      </trkpt>
      <trkpt lat="45.92835" lon="4.73452">
        <ele>172</ele>
        <time>2017-03-19T09:19:31Z</time>
      </trkpt>
      <trkpt lat="45.92837" lon="4.73445">
        <ele>172</ele>
        <time>2017-03-19T09:19:32Z</time>
      </trkpt>
      <trkpt lat="45.92838" lon="4.73438">
        <ele>172</ele>
        <time>2017-03-19T09:19:33Z</time>
      </trkpt>
      <trkpt lat="45.92839" lon="4.73431">
        <ele>172</ele>
        <time>2017-03-19T09:19:34Z</time>
      </trkpt>
      <trkpt lat="45.9284" lon="4.73424">
        <ele>172</ele>
        <time>2017-03-19T09:19:35Z</time>
      </trkpt>
      <trkpt lat="45.92841" lon="4.73416">
        <ele>172</ele>
        <time>2017-03-19T09:19:36Z</time>
      </trkpt>
      <trkpt lat="45.92842" lon="4.73409">
        <ele>172</ele>
        <time>2017-03-19T09:19:37Z</time>
      </trkpt>
      <trkpt lat="45.92842" lon="4.73401">
        <ele>172</ele>
        <time>2017-03-19T09:19:38Z</time>
      </trkpt>
      <trkpt lat="45.92843" lon="4.73394">
        <ele>172</ele>
        <time>2017-03-19T09:19:39Z</time>
      </trkpt>
      <trkpt lat="45.92844" lon="4.73386">
        <ele>172</ele>
        <time>2017-03-19T09:19:40Z</time>
      </trkpt>
      <trkpt lat="45.92846" lon="4.73379">
        <ele>172</ele>
        <time>2017-03-19T09:19:41Z</time>
      </trkpt>
      <trkpt lat="45.92847" lon="4.73371">
        <ele>171</ele>
        <time>2017-03-19T09:19:42Z</time>
      </trkpt>
      <trkpt lat="45.92848" lon="4.73363">
        <ele>171</ele>
        <time>2017-03-19T09:19:43Z</time>
      </trkpt>
      <trkpt lat="45.92849" lon="4.73355">
        <ele>171</ele>
        <time>2017-03-19T09:19:44Z</time>
      </trkpt>
      <trkpt lat="45.9285" lon="4.73347">
        <ele>171</ele>
        <time>2017-03-19T09:19:45Z</time>
      </trkpt>
      <trkpt lat="45.9285" lon="4.73339">
        <ele>171</ele>
        <time>2017-03-19T09:19:46Z</time>
      </trkpt>
      <trkpt lat="45.92851" lon="4.73331">
        <ele>171</ele>
        <time>2017-03-19T09:19:47Z</time>
      </trkpt>
      <trkpt lat="45.92851" lon="4.73322">
        <ele>171</ele>
        <time>2017-03-19T09:19:48Z</time>
      </trkpt>
      <trkpt lat="45.92852" lon="4.73314">
        <ele>171</ele>
        <time>2017-03-19T09:19:49Z</time>
      </trkpt>
      <trkpt lat="45.92853" lon="4.73306">
        <ele>171</ele>
        <time>2017-03-19T09:19:50Z</time>
      </trkpt>
      <trkpt lat="45.92854" lon="4.73298">
        <ele>171</ele>
        <time>2017-03-19T09:19:51Z</time>
      </trkpt>
      <trkpt lat="45.92855" lon="4.73289">
        <ele>171</ele>
        <time>2017-03-19T09:19:52Z</time>
      </trkpt>
      <trkpt lat="45.92856" lon="4.73281">
        <ele>171</ele>
        <time>2017-03-19T09:19:53Z</time>
      </trkpt>
      <trkpt lat="45.92857" lon="4.73272">
        <ele>171</ele>
        <time>2017-03-19T09:19:54Z</time>
      </trkpt>
      <trkpt lat="45.92858" lon="4.73264">
        <ele>171</ele>
        <time>2017-03-19T09:19:55Z</time>
      </trkpt>
      <trkpt lat="45.92859" lon="4.73256">
        <ele>171</ele>
        <time>2017-03-19T09:19:56Z</time>
      </trkpt>
      <trkpt lat="45.9286" lon="4.73248">
        <ele>171</ele>
        <time>2017-03-19T09:19:57Z</time>
      </trkpt>
      <trkpt lat="45.92861" lon="4.73239">
        <ele>171</ele>
        <time>2017-03-19T09:19:58Z</time>
      </trkpt>
      <trkpt lat="45.92863" lon="4.73231">
        <ele>171</ele>
        <time>2017-03-19T09:19:59Z</time>
      </trkpt>
      <trkpt lat="45.92864" lon="4.73223">
        <ele>171</ele>
        <time>2017-03-19T09:20:00Z</time>
      </trkpt>
      <trkpt lat="45.92865" lon="4.73215">
        <ele>171</ele>
        <time>2017-03-19T09:20:01Z</time>
      </trkpt>
      <trkpt lat="45.92866" lon="4.73207">
        <ele>171</ele>
        <time>2017-03-19T09:20:02Z</time>
      </trkpt>
      <trkpt lat="45.92867" lon="4.73199">
        <ele>171</ele>
        <time>2017-03-19T09:20:03Z</time>
      </trkpt>
      <trkpt lat="45.92868" lon="4.73191">
        <ele>171</ele>
        <time>2017-03-19T09:20:04Z</time>
      </trkpt>
      <trkpt lat="45.92869" lon="4.73183">
        <ele>171</ele>
        <time>2017-03-19T09:20:05Z</time>
      </trkpt>
      <trkpt lat="45.92871" lon="4.73175">
        <ele>171</ele>
        <time>2017-03-19T09:20:06Z</time>
      </trkpt>
      <trkpt lat="45.92872" lon="4.73166">
        <ele>171</ele>
        <time>2017-03-19T09:20:07Z</time>
      </trkpt>
      <trkpt lat="45.92873" lon="4.73158">
        <ele>171</ele>
        <time>2017-03-19T09:20:08Z</time>
      </trkpt>
      <trkpt lat="45.92874" lon="4.73149">
        <ele>171</ele>
        <time>2017-03-19T09:20:09Z</time>
      </trkpt>
      <trkpt lat="45.92875" lon="4.73141">
        <ele>171</ele>
        <time>2017-03-19T09:20:10Z</time>
      </trkpt>
      <trkpt lat="45.92876" lon="4.73132">
        <ele>171</ele>
        <time>2017-03-19T09:20:11Z</time>
      </trkpt>
      <trkpt lat="45.92877" lon="4.73124">
        <ele>172</ele>
        <time>2017-03-19T09:20:12Z</time>
      </trkpt>
      <trkpt lat="45.92879" lon="4.73115">
        <ele>172</ele>
        <time>2017-03-19T09:20:13Z</time>
      </trkpt>
      <trkpt lat="45.92881" lon="4.73108">
        <ele>172</ele>
        <time>2017-03-19T09:20:14Z</time>
      </trkpt>
      <trkpt lat="45.92883" lon="4.73101">
        <ele>172</ele>
        <time>2017-03-19T09:20:15Z</time>
      </trkpt>
      <trkpt lat="45.92884" lon="4.73094">
        <ele>172</ele>
        <time>2017-03-19T09:20:16Z</time>
      </trkpt>
      <trkpt lat="45.92887" lon="4.73087">
        <ele>172</ele>
        <time>2017-03-19T09:20:17Z</time>
      </trkpt>
      <trkpt lat="45.92889" lon="4.7308">
        <ele>172</ele>
        <time>2017-03-19T09:20:18Z</time>
      </trkpt>
      <trkpt lat="45.92892" lon="4.73074">
        <ele>172</ele>
        <time>2017-03-19T09:20:19Z</time>
      </trkpt>
      <trkpt lat="45.92895" lon="4.73068">
        <ele>172</ele>
        <time>2017-03-19T09:20:20Z</time>
      </trkpt>
      <trkpt lat="45.92898" lon="4.73061">
        <ele>172</ele>
        <time>2017-03-19T09:20:21Z</time>
      </trkpt>
      <trkpt lat="45.92902" lon="4.73055">
        <ele>172</ele>
        <time>2017-03-19T09:20:22Z</time>
      </trkpt>
      <trkpt lat="45.92905" lon="4.73049">
        <ele>172</ele>
        <time>2017-03-19T09:20:23Z</time>
      </trkpt>
      <trkpt lat="45.92909" lon="4.73043">
        <ele>172</ele>
        <time>2017-03-19T09:20:24Z</time>
      </trkpt>
      <trkpt lat="45.92912" lon="4.73037">
        <ele>172</ele>
        <time>2017-03-19T09:20:25Z</time>
      </trkpt>
      <trkpt lat="45.92916" lon="4.73031">
        <ele>172</ele>
        <time>2017-03-19T09:20:26Z</time>
      </trkpt>
      <trkpt lat="45.9292" lon="4.73024">
        <ele>172</ele>
        <time>2017-03-19T09:20:27Z</time>
      </trkpt>
      <trkpt lat="45.92924" lon="4.73018">
        <ele>172</ele>
        <time>2017-03-19T09:20:28Z</time>
      </trkpt>
      <trkpt lat="45.92928" lon="4.73013">
        <ele>172</ele>
        <time>2017-03-19T09:20:29Z</time>
      </trkpt>
      <trkpt lat="45.92933" lon="4.73007">
        <ele>171</ele>
        <time>2017-03-19T09:20:30Z</time>
      </trkpt>
      <trkpt lat="45.92937" lon="4.73002">
        <ele>171</ele>
        <time>2017-03-19T09:20:31Z</time>
      </trkpt>
      <trkpt lat="45.92941" lon="4.72997">
        <ele>171</ele>
        <time>2017-03-19T09:20:32Z</time>
      </trkpt>
      <trkpt lat="45.92945" lon="4.72992">
        <ele>171</ele>
        <time>2017-03-19T09:20:33Z</time>
      </trkpt>
      <trkpt lat="45.92949" lon="4.72987">
        <ele>171</ele>
        <time>2017-03-19T09:20:34Z</time>
      </trkpt>
      <trkpt lat="45.92954" lon="4.72982">
        <ele>171</ele>
        <time>2017-03-19T09:20:35Z</time>
      </trkpt>
      <trkpt lat="45.92958" lon="4.72977">
        <ele>171</ele>
        <time>2017-03-19T09:20:36Z</time>
      </trkpt>
      <trkpt lat="45.92963" lon="4.72972">
        <ele>171</ele>
        <time>2017-03-19T09:20:37Z</time>
      </trkpt>
      <trkpt lat="45.92967" lon="4.72967">
        <ele>171</ele>
        <time>2017-03-19T09:20:38Z</time>
      </trkpt>
      <trkpt lat="45.92971" lon="4.72961">
        <ele>171</ele>
        <time>2017-03-19T09:20:39Z</time>
      </trkpt>
      <trkpt lat="45.92975" lon="4.72956">
        <ele>171</ele>
        <time>2017-03-19T09:20:40Z</time>
      </trkpt>
      <trkpt lat="45.9298" lon="4.72951">
        <ele>171</ele>
        <time>2017-03-19T09:20:41Z</time>
      </trkpt>
      <trkpt lat="45.92985" lon="4.72945">
        <ele>171</ele>
        <time>2017-03-19T09:20:42Z</time>
      </trkpt>
      <trkpt lat="45.92989" lon="4.7294">
        <ele>171</ele>
        <time>2017-03-19T09:20:43Z</time>
      </trkpt>
      <trkpt lat="45.92993" lon="4.72934">
        <ele>171</ele>
        <time>2017-03-19T09:20:44Z</time>
      </trkpt>
      <trkpt lat="45.92997" lon="4.72929">
        <ele>171</ele>
        <time>2017-03-19T09:20:45Z</time>
      </trkpt>
      <trkpt lat="45.93002" lon="4.72923">
        <ele>171</ele>
        <time>2017-03-19T09:20:46Z</time>
      </trkpt>
      <trkpt lat="45.93007" lon="4.72917">
        <ele>171</ele>
        <time>2017-03-19T09:20:47Z</time>
      </trkpt>
      <trkpt lat="45.93011" lon="4.72912">
        <ele>171</ele>
        <time>2017-03-19T09:20:48Z</time>
      </trkpt>
      <trkpt lat="45.93016" lon="4.72906">
        <ele>172</ele>
        <time>2017-03-19T09:20:49Z</time>
      </trkpt>
      <trkpt lat="45.93021" lon="4.729">
        <ele>172</ele>
        <time>2017-03-19T09:20:50Z</time>
      </trkpt>
      <trkpt lat="45.93026" lon="4.72894">
        <ele>172</ele>
        <time>2017-03-19T09:20:51Z</time>
      </trkpt>
      <trkpt lat="45.93031" lon="4.72888">
        <ele>172</ele>
        <time>2017-03-19T09:20:52Z</time>
      </trkpt>
      <trkpt lat="45.93035" lon="4.72882">
        <ele>172</ele>
        <time>2017-03-19T09:20:53Z</time>
      </trkpt>
      <trkpt lat="45.9304" lon="4.72877">
        <ele>172</ele>
        <time>2017-03-19T09:20:54Z</time>
      </trkpt>
      <trkpt lat="45.93045" lon="4.72871">
        <ele>172</ele>
        <time>2017-03-19T09:20:55Z</time>
      </trkpt>
      <trkpt lat="45.93049" lon="4.72866">
        <ele>172</ele>
        <time>2017-03-19T09:20:56Z</time>
      </trkpt>
      <trkpt lat="45.93054" lon="4.72861">
        <ele>172</ele>
        <time>2017-03-19T09:20:57Z</time>
      </trkpt>
      <trkpt lat="45.93059" lon="4.72856">
        <ele>172</ele>
        <time>2017-03-19T09:20:58Z</time>
      </trkpt>
      <trkpt lat="45.93063" lon="4.72851">
        <ele>172</ele>
        <time>2017-03-19T09:20:59Z</time>
      </trkpt>
      <trkpt lat="45.93068" lon="4.72845">
        <ele>172</ele>
        <time>2017-03-19T09:21:00Z</time>
      </trkpt>
      <trkpt lat="45.93072" lon="4.72839">
        <ele>173</ele>
        <time>2017-03-19T09:21:01Z</time>
      </trkpt>
      <trkpt lat="45.93076" lon="4.72833">
        <ele>173</ele>
        <time>2017-03-19T09:21:02Z</time>
      </trkpt>
      <trkpt lat="45.9308" lon="4.72828">
        <ele>173</ele>
        <time>2017-03-19T09:21:03Z</time>
      </trkpt>
      <trkpt lat="45.93085" lon="4.72824">
        <ele>172</ele>
        <time>2017-03-19T09:21:04Z</time>
      </trkpt>
      <trkpt lat="45.9309" lon="4.72818">
        <ele>172</ele>
        <time>2017-03-19T09:21:05Z</time>
      </trkpt>
      <trkpt lat="45.93094" lon="4.72814">
        <ele>172</ele>
        <time>2017-03-19T09:21:06Z</time>
      </trkpt>
      <trkpt lat="45.93098" lon="4.72808">
        <ele>172</ele>
        <time>2017-03-19T09:21:07Z</time>
      </trkpt>
      <trkpt lat="45.93106" lon="4.72806">
        <ele>171</ele>
        <time>2017-03-19T09:21:08Z</time>
      </trkpt>
      <trkpt lat="45.93112" lon="4.72801">
        <ele>171</ele>
        <time>2017-03-19T09:21:09Z</time>
      </trkpt>
      <trkpt lat="45.93118" lon="4.72795">
        <ele>171</ele>
        <time>2017-03-19T09:21:10Z</time>
      </trkpt>
      <trkpt lat="45.93121" lon="4.72789">
        <ele>171</ele>
        <time>2017-03-19T09:21:11Z</time>
      </trkpt>
      <trkpt lat="45.93125" lon="4.72785">
        <ele>171</ele>
        <time>2017-03-19T09:21:12Z</time>
      </trkpt>
      <trkpt lat="45.9313" lon="4.7278">
        <ele>171</ele>
        <time>2017-03-19T09:21:13Z</time>
      </trkpt>
      <trkpt lat="45.93134" lon="4.72774">
        <ele>171</ele>
        <time>2017-03-19T09:21:14Z</time>
      </trkpt>
      <trkpt lat="45.93139" lon="4.72769">
        <ele>171</ele>
        <time>2017-03-19T09:21:15Z</time>
      </trkpt>
      <trkpt lat="45.93143" lon="4.72763">
        <ele>171</ele>
        <time>2017-03-19T09:21:16Z</time>
      </trkpt>
      <trkpt lat="45.93147" lon="4.72757">
        <ele>170</ele>
        <time>2017-03-19T09:21:17Z</time>
      </trkpt>
      <trkpt lat="45.93152" lon="4.72751">
        <ele>170</ele>
        <time>2017-03-19T09:21:18Z</time>
      </trkpt>
      <trkpt lat="45.93156" lon="4.72746">
        <ele>170</ele>
        <time>2017-03-19T09:21:19Z</time>
      </trkpt>
      <trkpt lat="45.93161" lon="4.7274">
        <ele>170</ele>
        <time>2017-03-19T09:21:20Z</time>
      </trkpt>
      <trkpt lat="45.93166" lon="4.72734">
        <ele>170</ele>
        <time>2017-03-19T09:21:21Z</time>
      </trkpt>
      <trkpt lat="45.93171" lon="4.72728">
        <ele>170</ele>
        <time>2017-03-19T09:21:22Z</time>
      </trkpt>
      <trkpt lat="45.93175" lon="4.72722">
        <ele>170</ele>
        <time>2017-03-19T09:21:23Z</time>
      </trkpt>
      <trkpt lat="45.9318" lon="4.72716">
        <ele>169</ele>
        <time>2017-03-19T09:21:24Z</time>
      </trkpt>
      <trkpt lat="45.93184" lon="4.7271">
        <ele>169</ele>
        <time>2017-03-19T09:21:25Z</time>
      </trkpt>
      <trkpt lat="45.93189" lon="4.72705">
        <ele>169</ele>
        <time>2017-03-19T09:21:26Z</time>
      </trkpt>
      <trkpt lat="45.93194" lon="4.72699">
        <ele>169</ele>
        <time>2017-03-19T09:21:27Z</time>
      </trkpt>
      <trkpt lat="45.93198" lon="4.72693">
        <ele>169</ele>
        <time>2017-03-19T09:21:28Z</time>
      </trkpt>
      <trkpt lat="45.93203" lon="4.72688">
        <ele>169</ele>
        <time>2017-03-19T09:21:29Z</time>
      </trkpt>
      <trkpt lat="45.93207" lon="4.72683">
        <ele>169</ele>
        <time>2017-03-19T09:21:30Z</time>
      </trkpt>
      <trkpt lat="45.93212" lon="4.72677">
        <ele>169</ele>
        <time>2017-03-19T09:21:31Z</time>
      </trkpt>
      <trkpt lat="45.93216" lon="4.72672">
        <ele>169</ele>
        <time>2017-03-19T09:21:32Z</time>
      </trkpt>
      <trkpt lat="45.93221" lon="4.72666">
        <ele>170</ele>
        <time>2017-03-19T09:21:33Z</time>
      </trkpt>
      <trkpt lat="45.93226" lon="4.72661">
        <ele>170</ele>
        <time>2017-03-19T09:21:34Z</time>
      </trkpt>
      <trkpt lat="45.93231" lon="4.72656">
        <ele>170</ele>
        <time>2017-03-19T09:21:35Z</time>
      </trkpt>
      <trkpt lat="45.93235" lon="4.7265">
        <ele>170</ele>
        <time>2017-03-19T09:21:36Z</time>
      </trkpt>
      <trkpt lat="45.9324" lon="4.72645">
        <ele>170</ele>
        <time>2017-03-19T09:21:37Z</time>
      </trkpt>
      <trkpt lat="45.93244" lon="4.7264">
        <ele>170</ele>
        <time>2017-03-19T09:21:38Z</time>
      </trkpt>
      <trkpt lat="45.93249" lon="4.72634">
        <ele>170</ele>
        <time>2017-03-19T09:21:39Z</time>
      </trkpt>
      <trkpt lat="45.93254" lon="4.72629">
        <ele>170</ele>
        <time>2017-03-19T09:21:40Z</time>
      </trkpt>
      <trkpt lat="45.93259" lon="4.72623">
        <ele>170</ele>
        <time>2017-03-19T09:21:41Z</time>
      </trkpt>
      <trkpt lat="45.93264" lon="4.72618">
        <ele>170</ele>
        <time>2017-03-19T09:21:42Z</time>
      </trkpt>
      <trkpt lat="45.93269" lon="4.72612">
        <ele>170</ele>
        <time>2017-03-19T09:21:43Z</time>
      </trkpt>
      <trkpt lat="45.93274" lon="4.72607">
        <ele>170</ele>
        <time>2017-03-19T09:21:44Z</time>
      </trkpt>
      <trkpt lat="45.93278" lon="4.72602">
        <ele>170</ele>
        <time>2017-03-19T09:21:45Z</time>
      </trkpt>
      <trkpt lat="45.93283" lon="4.72597">
        <ele>170</ele>
        <time>2017-03-19T09:21:46Z</time>
      </trkpt>
      <trkpt lat="45.93287" lon="4.72592">
        <ele>170</ele>
        <time>2017-03-19T09:21:47Z</time>
      </trkpt>
      <trkpt lat="45.93292" lon="4.72586">
        <ele>170</ele>
        <time>2017-03-19T09:21:48Z</time>
      </trkpt>
      <trkpt lat="45.93296" lon="4.72581">
        <ele>171</ele>
        <time>2017-03-19T09:21:49Z</time>
      </trkpt>
      <trkpt lat="45.93299" lon="4.72576">
        <ele>171</ele>
        <time>2017-03-19T09:21:50Z</time>
      </trkpt>
      <trkpt lat="45.93304" lon="4.72572">
        <ele>171</ele>
        <time>2017-03-19T09:21:51Z</time>
      </trkpt>
      <trkpt lat="45.93308" lon="4.72568">
        <ele>171</ele>
        <time>2017-03-19T09:21:52Z</time>
      </trkpt>
      <trkpt lat="45.93312" lon="4.72563">
        <ele>171</ele>
        <time>2017-03-19T09:21:53Z</time>
      </trkpt>
      <trkpt lat="45.93317" lon="4.72558">
        <ele>171</ele>
        <time>2017-03-19T09:21:54Z</time>
      </trkpt>
      <trkpt lat="45.93322" lon="4.72552">
        <ele>172</ele>
        <time>2017-03-19T09:21:55Z</time>
      </trkpt>
      <trkpt lat="45.93326" lon="4.72546">
        <ele>172</ele>
        <time>2017-03-19T09:21:56Z</time>
      </trkpt>
      <trkpt lat="45.93331" lon="4.72541">
        <ele>172</ele>
        <time>2017-03-19T09:21:57Z</time>
      </trkpt>
      <trkpt lat="45.93336" lon="4.72535">
        <ele>172</ele>
        <time>2017-03-19T09:21:58Z</time>
      </trkpt>
      <trkpt lat="45.93341" lon="4.7253">
        <ele>172</ele>
        <time>2017-03-19T09:21:59Z</time>
      </trkpt>
      <trkpt lat="45.93345" lon="4.72525">
        <ele>172</ele>
        <time>2017-03-19T09:22:00Z</time>
      </trkpt>
      <trkpt lat="45.93349" lon="4.7252">
        <ele>172</ele>
        <time>2017-03-19T09:22:01Z</time>
      </trkpt>
      <trkpt lat="45.93354" lon="4.72515">
        <ele>172</ele>
        <time>2017-03-19T09:22:02Z</time>
      </trkpt>
      <trkpt lat="45.93358" lon="4.7251">
        <ele>172</ele>
        <time>2017-03-19T09:22:03Z</time>
      </trkpt>
      <trkpt lat="45.93363" lon="4.72505">
        <ele>172</ele>
        <time>2017-03-19T09:22:04Z</time>
      </trkpt>
      <trkpt lat="45.93367" lon="4.725">
        <ele>173</ele>
        <time>2017-03-19T09:22:05Z</time>
      </trkpt>
      <trkpt lat="45.93371" lon="4.72495">
        <ele>173</ele>
        <time>2017-03-19T09:22:06Z</time>
      </trkpt>
      <trkpt lat="45.93375" lon="4.7249">
        <ele>173</ele>
        <time>2017-03-19T09:22:07Z</time>
      </trkpt>
      <trkpt lat="45.9338" lon="4.72485">
        <ele>173</ele>
        <time>2017-03-19T09:22:08Z</time>
      </trkpt>
      <trkpt lat="45.93384" lon="4.7248">
        <ele>173</ele>
        <time>2017-03-19T09:22:09Z</time>
      </trkpt>
      <trkpt lat="45.93388" lon="4.72475">
        <ele>173</ele>
        <time>2017-03-19T09:22:10Z</time>
      </trkpt>
      <trkpt lat="45.93392" lon="4.7247">
        <ele>173</ele>
        <time>2017-03-19T09:22:11Z</time>
      </trkpt>
      <trkpt lat="45.93395" lon="4.72463">
        <ele>173</ele>
        <time>2017-03-19T09:22:12Z</time>
      </trkpt>
      <trkpt lat="45.93398" lon="4.72457">
        <ele>173</ele>
        <time>2017-03-19T09:22:13Z</time>
      </trkpt>
      <trkpt lat="45.934" lon="4.7245">
        <ele>173</ele>
        <time>2017-03-19T09:22:14Z</time>
      </trkpt>
      <trkpt lat="45.93402" lon="4.72443">
        <ele>173</ele>
        <time>2017-03-19T09:22:15Z</time>
      </trkpt>
      <trkpt lat="45.93405" lon="4.72435">
        <ele>173</ele>
        <time>2017-03-19T09:22:16Z</time>
      </trkpt>
      <trkpt lat="45.93408" lon="4.72429">
        <ele>174</ele>
        <time>2017-03-19T09:22:17Z</time>
      </trkpt>
      <trkpt lat="45.93411" lon="4.72423">
        <ele>174</ele>
        <time>2017-03-19T09:22:18Z</time>
      </trkpt>
      <trkpt lat="45.93416" lon="4.72419">
        <ele>174</ele>
        <time>2017-03-19T09:22:19Z</time>
      </trkpt>
      <trkpt lat="45.9342" lon="4.72415">
        <ele>174</ele>
        <time>2017-03-19T09:22:20Z</time>
      </trkpt>
      <trkpt lat="45.93425" lon="4.72412">
        <ele>174</ele>
        <time>2017-03-19T09:22:21Z</time>
      </trkpt>
      <trkpt lat="45.9343" lon="4.7241">
        <ele>174</ele>
        <time>2017-03-19T09:22:22Z</time>
      </trkpt>
      <trkpt lat="45.93435" lon="4.72407">
        <ele>174</ele>
        <time>2017-03-19T09:22:23Z</time>
      </trkpt>
      <trkpt lat="45.9344" lon="4.72404">
        <ele>173</ele>
        <time>2017-03-19T09:22:24Z</time>
      </trkpt>
      <trkpt lat="45.93445" lon="4.724">
        <ele>173</ele>
        <time>2017-03-19T09:22:25Z</time>
      </trkpt>
      <trkpt lat="45.9345" lon="4.72396">
        <ele>173</ele>
        <time>2017-03-19T09:22:26Z</time>
      </trkpt>
      <trkpt lat="45.93455" lon="4.72392">
        <ele>173</ele>
        <time>2017-03-19T09:22:27Z</time>
      </trkpt>
      <trkpt lat="45.9346" lon="4.72388">
        <ele>173</ele>
        <time>2017-03-19T09:22:28Z</time>
      </trkpt>
      <trkpt lat="45.93465" lon="4.72382">
        <ele>173</ele>
        <time>2017-03-19T09:22:29Z</time>
      </trkpt>
      <trkpt lat="45.93469" lon="4.72377">
        <ele>173</ele>
        <time>2017-03-19T09:22:30Z</time>
      </trkpt>
      <trkpt lat="45.93474" lon="4.72371">
        <ele>173</ele>
        <time>2017-03-19T09:22:31Z</time>
      </trkpt>
      <trkpt lat="45.93478" lon="4.72365">
        <ele>173</ele>
        <time>2017-03-19T09:22:32Z</time>
      </trkpt>
      <trkpt lat="45.93482" lon="4.72359">
        <ele>173</ele>
        <time>2017-03-19T09:22:33Z</time>
      </trkpt>
      <trkpt lat="45.93486" lon="4.72354">
        <ele>173</ele>
        <time>2017-03-19T09:22:34Z</time>
      </trkpt>
      <trkpt lat="45.9349" lon="4.72348">
        <ele>173</ele>
        <time>2017-03-19T09:22:35Z</time>
      </trkpt>
      <trkpt lat="45.93494" lon="4.72342">
        <ele>173</ele>
        <time>2017-03-19T09:22:36Z</time>
      </trkpt>
      <trkpt lat="45.93498" lon="4.72337">
        <ele>173</ele>
        <time>2017-03-19T09:22:37Z</time>
      </trkpt>
      <trkpt lat="45.93502" lon="4.72331">
        <ele>173</ele>
        <time>2017-03-19T09:22:38Z</time>
      </trkpt>
      <trkpt lat="45.93506" lon="4.72326">
        <ele>173</ele>
        <time>2017-03-19T09:22:39Z</time>
      </trkpt>
      <trkpt lat="45.9351" lon="4.7232">
        <ele>173</ele>
        <time>2017-03-19T09:22:40Z</time>
      </trkpt>
      <trkpt lat="45.93514" lon="4.72315">
        <ele>173</ele>
        <time>2017-03-19T09:22:41Z</time>
      </trkpt>
      <trkpt lat="45.93517" lon="4.7231">
        <ele>173</ele>
        <time>2017-03-19T09:22:42Z</time>
      </trkpt>
      <trkpt lat="45.93521" lon="4.72304">
        <ele>173</ele>
        <time>2017-03-19T09:22:43Z</time>
      </trkpt>
      <trkpt lat="45.93524" lon="4.72298">
        <ele>172</ele>
        <time>2017-03-19T09:22:44Z</time>
      </trkpt>
      <trkpt lat="45.93526" lon="4.72292">
        <ele>172</ele>
        <time>2017-03-19T09:22:45Z</time>
      </trkpt>
      <trkpt lat="45.93529" lon="4.72285">
        <ele>172</ele>
        <time>2017-03-19T09:22:46Z</time>
      </trkpt>
      <trkpt lat="45.93531" lon="4.72279">
        <ele>172</ele>
        <time>2017-03-19T09:22:47Z</time>
      </trkpt>
      <trkpt lat="45.93534" lon="4.72272">
        <ele>172</ele>
        <time>2017-03-19T09:22:48Z</time>
      </trkpt>
      <trkpt lat="45.93537" lon="4.72265">
        <ele>172</ele>
        <time>2017-03-19T09:22:49Z</time>
      </trkpt>
      <trkpt lat="45.9354" lon="4.72259">
        <ele>172</ele>
        <time>2017-03-19T09:22:50Z</time>
      </trkpt>
      <trkpt lat="45.93543" lon="4.72252">
        <ele>172</ele>
        <time>2017-03-19T09:22:51Z</time>
      </trkpt>
      <trkpt lat="45.93545" lon="4.72245">
        <ele>172</ele>
        <time>2017-03-19T09:22:52Z</time>
      </trkpt>
      <trkpt lat="45.93548" lon="4.72238">
        <ele>172</ele>
        <time>2017-03-19T09:22:53Z</time>
      </trkpt>
      <trkpt lat="45.93551" lon="4.72231">
        <ele>172</ele>
        <time>2017-03-19T09:22:54Z</time>
      </trkpt>
      <trkpt lat="45.93555" lon="4.72225">
        <ele>173</ele>
        <time>2017-03-19T09:22:55Z</time>
      </trkpt>
      <trkpt lat="45.93559" lon="4.72219">
        <ele>173</ele>
        <time>2017-03-19T09:22:56Z</time>
      </trkpt>
      <trkpt lat="45.93563" lon="4.72213">
        <ele>173</ele>
        <time>2017-03-19T09:22:57Z</time>
      </trkpt>
      <trkpt lat="45.93567" lon="4.72208">
        <ele>173</ele>
        <time>2017-03-19T09:22:58Z</time>
      </trkpt>
      <trkpt lat="45.93572" lon="4.72202">
        <ele>173</ele>
        <time>2017-03-19T09:22:59Z</time>
      </trkpt>
      <trkpt lat="45.93576" lon="4.72197">
        <ele>173</ele>
        <time>2017-03-19T09:23:00Z</time>
      </trkpt>
      <trkpt lat="45.9358" lon="4.72191">
        <ele>173</ele>
        <time>2017-03-19T09:23:01Z</time>
      </trkpt>
      <trkpt lat="45.93585" lon="4.72186">
        <ele>173</ele>
        <time>2017-03-19T09:23:02Z</time>
      </trkpt>
      <trkpt lat="45.9359" lon="4.7218">
        <ele>173</ele>
        <time>2017-03-19T09:23:03Z</time>
      </trkpt>
      <trkpt lat="45.93595" lon="4.72176">
        <ele>173</ele>
        <time>2017-03-19T09:23:04Z</time>
      </trkpt>
      <trkpt lat="45.93599" lon="4.72171">
        <ele>173</ele>
        <time>2017-03-19T09:23:05Z</time>
      </trkpt>
      <trkpt lat="45.93605" lon="4.72166">
        <ele>173</ele>
        <time>2017-03-19T09:23:06Z</time>
      </trkpt>
      <trkpt lat="45.9361" lon="4.72161">
        <ele>173</ele>
        <time>2017-03-19T09:23:07Z</time>
      </trkpt>
      <trkpt lat="45.93615" lon="4.72157">
        <ele>173</ele>
        <time>2017-03-19T09:23:08Z</time>
      </trkpt>
      <trkpt lat="45.9362" lon="4.72153">
        <ele>173</ele>
        <time>2017-03-19T09:23:09Z</time>
      </trkpt>
      <trkpt lat="45.93625" lon="4.72148">
        <ele>173</ele>
        <time>2017-03-19T09:23:10Z</time>
      </trkpt>
      <trkpt lat="45.93629" lon="4.72142">
        <ele>173</ele>
        <time>2017-03-19T09:23:11Z</time>
      </trkpt>
      <trkpt lat="45.93633" lon="4.72137">
        <ele>173</ele>
        <time>2017-03-19T09:23:12Z</time>
      </trkpt>
      <trkpt lat="45.93637" lon="4.72131">
        <ele>173</ele>
        <time>2017-03-19T09:23:13Z</time>
      </trkpt>
      <trkpt lat="45.9364" lon="4.72126">
        <ele>173</ele>
        <time>2017-03-19T09:23:14Z</time>
      </trkpt>
      <trkpt lat="45.93643" lon="4.72121">
        <ele>173</ele>
        <time>2017-03-19T09:23:15Z</time>
      </trkpt>
      <trkpt lat="45.93646" lon="4.72117">
        <ele>173</ele>
        <time>2017-03-19T09:23:16Z</time>
      </trkpt>
      <trkpt lat="45.93649" lon="4.72111">
        <ele>173</ele>
        <time>2017-03-19T09:23:17Z</time>
      </trkpt>
      <trkpt lat="45.93653" lon="4.72104">
        <ele>173</ele>
        <time>2017-03-19T09:23:18Z</time>
      </trkpt>
      <trkpt lat="45.93656" lon="4.72098">
        <ele>173</ele>
        <time>2017-03-19T09:23:19Z</time>
      </trkpt>
      <trkpt lat="45.9366" lon="4.72091">
        <ele>172</ele>
        <time>2017-03-19T09:23:20Z</time>
      </trkpt>
      <trkpt lat="45.93664" lon="4.72085">
        <ele>172</ele>
        <time>2017-03-19T09:23:21Z</time>
      </trkpt>
      <trkpt lat="45.93668" lon="4.72079">
        <ele>172</ele>
        <time>2017-03-19T09:23:22Z</time>
      </trkpt>
      <trkpt lat="45.93673" lon="4.72072">
        <ele>172</ele>
        <time>2017-03-19T09:23:23Z</time>
      </trkpt>
      <trkpt lat="45.93676" lon="4.72065">
        <ele>172</ele>
        <time>2017-03-19T09:23:24Z</time>
      </trkpt>
      <trkpt lat="45.9368" lon="4.72059">
        <ele>172</ele>
        <time>2017-03-19T09:23:25Z</time>
      </trkpt>
      <trkpt lat="45.93683" lon="4.72053">
        <ele>172</ele>
        <time>2017-03-19T09:23:26Z</time>
      </trkpt>
      <trkpt lat="45.93686" lon="4.72047">
        <ele>172</ele>
        <time>2017-03-19T09:23:27Z</time>
      </trkpt>
      <trkpt lat="45.93689" lon="4.72041">
        <ele>173</ele>
        <time>2017-03-19T09:23:28Z</time>
      </trkpt>
      <trkpt lat="45.93691" lon="4.72034">
        <ele>173</ele>
        <time>2017-03-19T09:23:29Z</time>
      </trkpt>
      <trkpt lat="45.9369" lon="4.72022">
        <ele>173</ele>
        <time>2017-03-19T09:23:31Z</time>
      </trkpt>
      <trkpt lat="45.93688" lon="4.72019">
        <ele>173</ele>
        <time>2017-03-19T09:23:32Z</time>
      </trkpt>
      <trkpt lat="45.93686" lon="4.7201">
        <ele>173</ele>
        <time>2017-03-19T09:23:34Z</time>
      </trkpt>
      <trkpt lat="45.93685" lon="4.72005">
        <ele>173</ele>
        <time>2017-03-19T09:23:35Z</time>
      </trkpt>
      <trkpt lat="45.93684" lon="4.71996">
        <ele>173</ele>
        <time>2017-03-19T09:23:37Z</time>
      </trkpt>
      <trkpt lat="45.93682" lon="4.71992">
        <ele>173</ele>
        <time>2017-03-19T09:23:38Z</time>
      </trkpt>
      <trkpt lat="45.93678" lon="4.7198">
        <ele>173</ele>
        <time>2017-03-19T09:23:41Z</time>
      </trkpt>
      <trkpt lat="45.93677" lon="4.71976">
        <ele>173</ele>
        <time>2017-03-19T09:23:42Z</time>
      </trkpt>
      <trkpt lat="45.93674" lon="4.71968">
        <ele>173</ele>
        <time>2017-03-19T09:23:44Z</time>
      </trkpt>
      <trkpt lat="45.93672" lon="4.71963">
        <ele>173</ele>
        <time>2017-03-19T09:23:45Z</time>
      </trkpt>
      <trkpt lat="45.93667" lon="4.71955">
        <ele>173</ele>
        <time>2017-03-19T09:23:47Z</time>
      </trkpt>
      <trkpt lat="45.93665" lon="4.7195">
        <ele>175</ele>
        <time>2017-03-19T09:23:48Z</time>
      </trkpt>
      <trkpt lat="45.93663" lon="4.71944">
        <ele>175</ele>
        <time>2017-03-19T09:23:49Z</time>
      </trkpt>
      <trkpt lat="45.93661" lon="4.71938">
        <ele>175</ele>
        <time>2017-03-19T09:23:50Z</time>
      </trkpt>
      <trkpt lat="45.93658" lon="4.71932">
        <ele>175</ele>
        <time>2017-03-19T09:23:51Z</time>
      </trkpt>
      <trkpt lat="45.93655" lon="4.71926">
        <ele>175</ele>
        <time>2017-03-19T09:23:52Z</time>
      </trkpt>
      <trkpt lat="45.93652" lon="4.71919">
        <ele>175</ele>
        <time>2017-03-19T09:23:53Z</time>
      </trkpt>
      <trkpt lat="45.93649" lon="4.71912">
        <ele>176</ele>
        <time>2017-03-19T09:23:54Z</time>
      </trkpt>
      <trkpt lat="45.93646" lon="4.71905">
        <ele>177</ele>
        <time>2017-03-19T09:23:55Z</time>
      </trkpt>
      <trkpt lat="45.93644" lon="4.71899">
        <ele>177</ele>
        <time>2017-03-19T09:23:56Z</time>
      </trkpt>
      <trkpt lat="45.93641" lon="4.71893">
        <ele>177</ele>
        <time>2017-03-19T09:23:57Z</time>
      </trkpt>
      <trkpt lat="45.93638" lon="4.71887">
        <ele>177</ele>
        <time>2017-03-19T09:23:58Z</time>
      </trkpt>
      <trkpt lat="45.93635" lon="4.71881">
        <ele>177</ele>
        <time>2017-03-19T09:23:59Z</time>
      </trkpt>
      <trkpt lat="45.93632" lon="4.71875">
        <ele>177</ele>
        <time>2017-03-19T09:24:00Z</time>
      </trkpt>
      <trkpt lat="45.9363" lon="4.71868">
        <ele>177</ele>
        <time>2017-03-19T09:24:01Z</time>
      </trkpt>
      <trkpt lat="45.93627" lon="4.71863">
        <ele>178</ele>
        <time>2017-03-19T09:24:02Z</time>
      </trkpt>
      <trkpt lat="45.93624" lon="4.71857">
        <ele>178</ele>
        <time>2017-03-19T09:24:03Z</time>
      </trkpt>
      <trkpt lat="45.93622" lon="4.71851">
        <ele>178</ele>
        <time>2017-03-19T09:24:04Z</time>
      </trkpt>
      <trkpt lat="45.9362" lon="4.71839">
        <ele>178</ele>
        <time>2017-03-19T09:24:06Z</time>
      </trkpt>
      <trkpt lat="45.93619" lon="4.71833">
        <ele>179</ele>
        <time>2017-03-19T09:24:07Z</time>
      </trkpt>
      <trkpt lat="45.93617" lon="4.71823">
        <ele>179</ele>
        <time>2017-03-19T09:24:09Z</time>
      </trkpt>
      <trkpt lat="45.93616" lon="4.7182">
        <ele>179</ele>
        <time>2017-03-19T09:24:10Z</time>
      </trkpt>
      <trkpt lat="45.9361" lon="4.71816">
        <ele>179</ele>
        <time>2017-03-19T09:24:12Z</time>
      </trkpt>
      <trkpt lat="45.93606" lon="4.71817">
        <ele>179</ele>
        <time>2017-03-19T09:24:13Z</time>
      </trkpt>
      <trkpt lat="45.93598" lon="4.71821">
        <ele>179</ele>
        <time>2017-03-19T09:24:15Z</time>
      </trkpt>
      <trkpt lat="45.93593" lon="4.71824">
        <ele>180</ele>
        <time>2017-03-19T09:24:16Z</time>
      </trkpt>
      <trkpt lat="45.93586" lon="4.71825">
        <ele>180</ele>
        <time>2017-03-19T09:24:18Z</time>
      </trkpt>
      <trkpt lat="45.93582" lon="4.71826">
        <ele>180</ele>
        <time>2017-03-19T09:24:19Z</time>
      </trkpt>
      <trkpt lat="45.93574" lon="4.71826">
        <ele>180</ele>
        <time>2017-03-19T09:24:21Z</time>
      </trkpt>
      <trkpt lat="45.9357" lon="4.71826">
        <ele>180</ele>
        <time>2017-03-19T09:24:22Z</time>
      </trkpt>
      <trkpt lat="45.93566" lon="4.71826">
        <ele>180</ele>
        <time>2017-03-19T09:24:23Z</time>
      </trkpt>
      <trkpt lat="45.9356" lon="4.71827">
        <ele>180</ele>
        <time>2017-03-19T09:24:24Z</time>
      </trkpt>
      <trkpt lat="45.93555" lon="4.71828">
        <ele>180</ele>
        <time>2017-03-19T09:24:25Z</time>
      </trkpt>
      <trkpt lat="45.93549" lon="4.71829">
        <ele>180</ele>
        <time>2017-03-19T09:24:26Z</time>
      </trkpt>
      <trkpt lat="45.93544" lon="4.7183">
        <ele>180</ele>
        <time>2017-03-19T09:24:27Z</time>
      </trkpt>
      <trkpt lat="45.93539" lon="4.71831">
        <ele>179</ele>
        <time>2017-03-19T09:24:28Z</time>
      </trkpt>
      <trkpt lat="45.93534" lon="4.71833">
        <ele>179</ele>
        <time>2017-03-19T09:24:29Z</time>
      </trkpt>
      <trkpt lat="45.9353" lon="4.71835">
        <ele>179</ele>
        <time>2017-03-19T09:24:30Z</time>
      </trkpt>
      <trkpt lat="45.93522" lon="4.71837">
        <ele>179</ele>
        <time>2017-03-19T09:24:32Z</time>
      </trkpt>
      <trkpt lat="45.93518" lon="4.71838">
        <ele>179</ele>
        <time>2017-03-19T09:24:33Z</time>
      </trkpt>
      <trkpt lat="45.93511" lon="4.71838">
        <ele>179</ele>
        <time>2017-03-19T09:24:35Z</time>
      </trkpt>
      <trkpt lat="45.93508" lon="4.71838">
        <ele>179</ele>
        <time>2017-03-19T09:24:36Z</time>
      </trkpt>
      <trkpt lat="45.935" lon="4.7184">
        <ele>179</ele>
        <time>2017-03-19T09:24:38Z</time>
      </trkpt>
      <trkpt lat="45.93496" lon="4.71841">
        <ele>179</ele>
        <time>2017-03-19T09:24:39Z</time>
      </trkpt>
      <trkpt lat="45.93487" lon="4.71843">
        <ele>180</ele>
        <time>2017-03-19T09:24:41Z</time>
      </trkpt>
      <trkpt lat="45.93483" lon="4.71843">
        <ele>180</ele>
        <time>2017-03-19T09:24:42Z</time>
      </trkpt>
      <trkpt lat="45.93475" lon="4.71843">
        <ele>180</ele>
        <time>2017-03-19T09:24:44Z</time>
      </trkpt>
      <trkpt lat="45.93471" lon="4.71843">
        <ele>180</ele>
        <time>2017-03-19T09:24:45Z</time>
      </trkpt>
      <trkpt lat="45.93463" lon="4.71839">
        <ele>181</ele>
        <time>2017-03-19T09:24:47Z</time>
      </trkpt>
      <trkpt lat="45.9346" lon="4.71835">
        <ele>181</ele>
        <time>2017-03-19T09:24:48Z</time>
      </trkpt>
      <trkpt lat="45.93456" lon="4.71825">
        <ele>181</ele>
        <time>2017-03-19T09:24:50Z</time>
      </trkpt>
      <trkpt lat="45.93454" lon="4.7182">
        <ele>181</ele>
        <time>2017-03-19T09:24:51Z</time>
      </trkpt>
      <trkpt lat="45.93449" lon="4.71812">
        <ele>182</ele>
        <time>2017-03-19T09:24:53Z</time>
      </trkpt>
      <trkpt lat="45.93447" lon="4.71808">
        <ele>182</ele>
        <time>2017-03-19T09:24:54Z</time>
      </trkpt>
      <trkpt lat="45.93442" lon="4.718">
        <ele>182</ele>
        <time>2017-03-19T09:24:56Z</time>
      </trkpt>
      <trkpt lat="45.93439" lon="4.71795">
        <ele>182</ele>
        <time>2017-03-19T09:24:57Z</time>
      </trkpt>
      <trkpt lat="45.93434" lon="4.71786">
        <ele>182</ele>
        <time>2017-03-19T09:24:59Z</time>
      </trkpt>
      <trkpt lat="45.93432" lon="4.71781">
        <ele>182</ele>
        <time>2017-03-19T09:25:00Z</time>
      </trkpt>
      <trkpt lat="45.93428" lon="4.71772">
        <ele>182</ele>
        <time>2017-03-19T09:25:02Z</time>
      </trkpt>
      <trkpt lat="45.93425" lon="4.71767">
        <ele>182</ele>
        <time>2017-03-19T09:25:03Z</time>
      </trkpt>
      <trkpt lat="45.93422" lon="4.71757">
        <ele>183</ele>
        <time>2017-03-19T09:25:05Z</time>
      </trkpt>
      <trkpt lat="45.9342" lon="4.71752">
        <ele>183</ele>
        <time>2017-03-19T09:25:06Z</time>
      </trkpt>
      <trkpt lat="45.93416" lon="4.71742">
        <ele>183</ele>
        <time>2017-03-19T09:25:08Z</time>
      </trkpt>
      <trkpt lat="45.93413" lon="4.71737">
        <ele>184</ele>
        <time>2017-03-19T09:25:09Z</time>
      </trkpt>
      <trkpt lat="45.93409" lon="4.71728">
        <ele>184</ele>
        <time>2017-03-19T09:25:11Z</time>
      </trkpt>
      <trkpt lat="45.93407" lon="4.71724">
        <ele>184</ele>
        <time>2017-03-19T09:25:12Z</time>
      </trkpt>
      <trkpt lat="45.93402" lon="4.71715">
        <ele>184</ele>
        <time>2017-03-19T09:25:14Z</time>
      </trkpt>
      <trkpt lat="45.934" lon="4.7171">
        <ele>184</ele>
        <time>2017-03-19T09:25:15Z</time>
      </trkpt>
      <trkpt lat="45.93396" lon="4.71701">
        <ele>184</ele>
        <time>2017-03-19T09:25:17Z</time>
      </trkpt>
      <trkpt lat="45.93394" lon="4.71696">
        <ele>184</ele>
        <time>2017-03-19T09:25:18Z</time>
      </trkpt>
      <trkpt lat="45.9339" lon="4.71685">
        <ele>184</ele>
        <time>2017-03-19T09:25:20Z</time>
      </trkpt>
      <trkpt lat="45.93389" lon="4.71679">
        <ele>184</ele>
        <time>2017-03-19T09:25:21Z</time>
      </trkpt>
      <trkpt lat="45.93385" lon="4.71669">
        <ele>185</ele>
        <time>2017-03-19T09:25:23Z</time>
      </trkpt>
      <trkpt lat="45.93383" lon="4.71665">
        <ele>185</ele>
        <time>2017-03-19T09:25:24Z</time>
      </trkpt>
      <trkpt lat="45.93377" lon="4.71655">
        <ele>185</ele>
        <time>2017-03-19T09:25:26Z</time>
      </trkpt>
      <trkpt lat="45.93375" lon="4.71651">
        <ele>185</ele>
        <time>2017-03-19T09:25:27Z</time>
      </trkpt>
      <trkpt lat="45.9337" lon="4.71642">
        <ele>185</ele>
        <time>2017-03-19T09:25:29Z</time>
      </trkpt>
      <trkpt lat="45.93368" lon="4.71637">
        <ele>185</ele>
        <time>2017-03-19T09:25:30Z</time>
      </trkpt>
      <trkpt lat="45.93364" lon="4.71627">
        <ele>185</ele>
        <time>2017-03-19T09:25:32Z</time>
      </trkpt>
      <trkpt lat="45.93362" lon="4.71623">
        <ele>185</ele>
        <time>2017-03-19T09:25:33Z</time>
      </trkpt>
      <trkpt lat="45.93357" lon="4.71613">
        <ele>185</ele>
        <time>2017-03-19T09:25:35Z</time>
      </trkpt>
      <trkpt lat="45.93356" lon="4.71608">
        <ele>185</ele>
        <time>2017-03-19T09:25:36Z</time>
      </trkpt>
      <trkpt lat="45.93352" lon="4.71598">
        <ele>185</ele>
        <time>2017-03-19T09:25:38Z</time>
      </trkpt>
      <trkpt lat="45.93349" lon="4.71593">
        <ele>185</ele>
        <time>2017-03-19T09:25:39Z</time>
      </trkpt>
      <trkpt lat="45.93345" lon="4.71583">
        <ele>184</ele>
        <time>2017-03-19T09:25:41Z</time>
      </trkpt>
      <trkpt lat="45.93342" lon="4.71578">
        <ele>184</ele>
        <time>2017-03-19T09:25:42Z</time>
      </trkpt>
      <trkpt lat="45.93338" lon="4.71567">
        <ele>184</ele>
        <time>2017-03-19T09:25:44Z</time>
      </trkpt>
      <trkpt lat="45.93336" lon="4.71562">
        <ele>184</ele>
        <time>2017-03-19T09:25:45Z</time>
      </trkpt>
      <trkpt lat="45.93331" lon="4.71551">
        <ele>184</ele>
        <time>2017-03-19T09:25:47Z</time>
      </trkpt>
      <trkpt lat="45.93329" lon="4.71546">
        <ele>184</ele>
        <time>2017-03-19T09:25:48Z</time>
      </trkpt>
      <trkpt lat="45.93324" lon="4.71537">
        <ele>184</ele>
        <time>2017-03-19T09:25:50Z</time>
      </trkpt>
      <trkpt lat="45.93322" lon="4.71532">
        <ele>184</ele>
        <time>2017-03-19T09:25:51Z</time>
      </trkpt>
      <trkpt lat="45.93318" lon="4.71523">
        <ele>184</ele>
        <time>2017-03-19T09:25:53Z</time>
      </trkpt>
      <trkpt lat="45.93316" lon="4.71518">
        <ele>184</ele>
        <time>2017-03-19T09:25:54Z</time>
      </trkpt>
      <trkpt lat="45.93312" lon="4.71507">
        <ele>184</ele>
        <time>2017-03-19T09:25:56Z</time>
      </trkpt>
      <trkpt lat="45.9331" lon="4.71502">
        <ele>184</ele>
        <time>2017-03-19T09:25:57Z</time>
      </trkpt>
      <trkpt lat="45.93306" lon="4.7149">
        <ele>185</ele>
        <time>2017-03-19T09:25:59Z</time>
      </trkpt>
      <trkpt lat="45.93304" lon="4.71485">
        <ele>185</ele>
        <time>2017-03-19T09:26:00Z</time>
      </trkpt>
      <trkpt lat="45.93302" lon="4.71479">
        <ele>185</ele>
        <time>2017-03-19T09:26:01Z</time>
      </trkpt>
      <trkpt lat="45.93299" lon="4.71474">
        <ele>185</ele>
        <time>2017-03-19T09:26:02Z</time>
      </trkpt>
      <trkpt lat="45.93295" lon="4.71462">
        <ele>185</ele>
        <time>2017-03-19T09:26:04Z</time>
      </trkpt>
      <trkpt lat="45.93293" lon="4.71457">
        <ele>185</ele>
        <time>2017-03-19T09:26:05Z</time>
      </trkpt>
      <trkpt lat="45.93289" lon="4.71447">
        <ele>185</ele>
        <time>2017-03-19T09:26:07Z</time>
      </trkpt>
      <trkpt lat="45.93288" lon="4.71443">
        <ele>185</ele>
        <time>2017-03-19T09:26:08Z</time>
      </trkpt>
      <trkpt lat="45.93283" lon="4.71433">
        <ele>185</ele>
        <time>2017-03-19T09:26:13Z</time>
      </trkpt>
      <trkpt lat="45.93283" lon="4.71432">
        <ele>185</ele>
        <time>2017-03-19T09:26:14Z</time>
      </trkpt>
      <trkpt lat="45.93282" lon="4.71432">
        <ele>185</ele>
        <time>2017-03-19T09:26:22Z</time>
      </trkpt>
      <trkpt lat="45.93281" lon="4.7143">
        <ele>185</ele>
        <time>2017-03-19T09:26:23Z</time>
      </trkpt>
      <trkpt lat="45.9328" lon="4.71428">
        <ele>185</ele>
        <time>2017-03-19T09:26:24Z</time>
      </trkpt>
      <trkpt lat="45.93276" lon="4.71419">
        <ele>185</ele>
        <time>2017-03-19T09:26:27Z</time>
      </trkpt>
      <trkpt lat="45.93275" lon="4.71415">
        <ele>186</ele>
        <time>2017-03-19T09:26:28Z</time>
      </trkpt>
      <trkpt lat="45.9327" lon="4.71407">
        <ele>186</ele>
        <time>2017-03-19T09:26:30Z</time>
      </trkpt>
      <trkpt lat="45.93268" lon="4.71402">
        <ele>186</ele>
        <time>2017-03-19T09:26:31Z</time>
      </trkpt>
      <trkpt lat="45.93264" lon="4.71393">
        <ele>186</ele>
        <time>2017-03-19T09:26:33Z</time>
      </trkpt>
      <trkpt lat="45.93261" lon="4.71388">
        <ele>186</ele>
        <time>2017-03-19T09:26:34Z</time>
      </trkpt>
      <trkpt lat="45.93256" lon="4.71378">
        <ele>186</ele>
        <time>2017-03-19T09:26:36Z</time>
      </trkpt>
      <trkpt lat="45.93254" lon="4.71372">
        <ele>186</ele>
        <time>2017-03-19T09:26:37Z</time>
      </trkpt>
      <trkpt lat="45.93249" lon="4.71361">
        <ele>186</ele>
        <time>2017-03-19T09:26:39Z</time>
      </trkpt>
      <trkpt lat="45.93246" lon="4.71356">
        <ele>186</ele>
        <time>2017-03-19T09:26:40Z</time>
      </trkpt>
      <trkpt lat="45.93243" lon="4.7135">
        <ele>186</ele>
        <time>2017-03-19T09:26:41Z</time>
      </trkpt>
      <trkpt lat="45.9324" lon="4.71344">
        <ele>186</ele>
        <time>2017-03-19T09:26:42Z</time>
      </trkpt>
      <trkpt lat="45.93238" lon="4.71338">
        <ele>186</ele>
        <time>2017-03-19T09:26:43Z</time>
      </trkpt>
      <trkpt lat="45.93235" lon="4.71333">
        <ele>187</ele>
        <time>2017-03-19T09:26:44Z</time>
      </trkpt>
      <trkpt lat="45.93231" lon="4.71322">
        <ele>187</ele>
        <time>2017-03-19T09:26:46Z</time>
      </trkpt>
      <trkpt lat="45.93228" lon="4.71317">
        <ele>187</ele>
        <time>2017-03-19T09:26:47Z</time>
      </trkpt>
      <trkpt lat="45.93223" lon="4.71307">
        <ele>188</ele>
        <time>2017-03-19T09:26:49Z</time>
      </trkpt>
      <trkpt lat="45.93221" lon="4.71302">
        <ele>188</ele>
        <time>2017-03-19T09:26:50Z</time>
      </trkpt>
      <trkpt lat="45.93215" lon="4.71292">
        <ele>188</ele>
        <time>2017-03-19T09:26:52Z</time>
      </trkpt>
      <trkpt lat="45.93212" lon="4.71287">
        <ele>188</ele>
        <time>2017-03-19T09:26:53Z</time>
      </trkpt>
      <trkpt lat="45.93208" lon="4.71278">
        <ele>188</ele>
        <time>2017-03-19T09:26:55Z</time>
      </trkpt>
      <trkpt lat="45.93206" lon="4.71272">
        <ele>188</ele>
        <time>2017-03-19T09:26:56Z</time>
      </trkpt>
      <trkpt lat="45.93202" lon="4.71263">
        <ele>189</ele>
        <time>2017-03-19T09:26:58Z</time>
      </trkpt>
      <trkpt lat="45.932" lon="4.71258">
        <ele>189</ele>
        <time>2017-03-19T09:26:59Z</time>
      </trkpt>
      <trkpt lat="45.93197" lon="4.71247">
        <ele>190</ele>
        <time>2017-03-19T09:27:01Z</time>
      </trkpt>
      <trkpt lat="45.93195" lon="4.71242">
        <ele>190</ele>
        <time>2017-03-19T09:27:02Z</time>
      </trkpt>
      <trkpt lat="45.93191" lon="4.71231">
        <ele>190</ele>
        <time>2017-03-19T09:27:04Z</time>
      </trkpt>
      <trkpt lat="45.93189" lon="4.71226">
        <ele>190</ele>
        <time>2017-03-19T09:27:05Z</time>
      </trkpt>
      <trkpt lat="45.93186" lon="4.71216">
        <ele>190</ele>
        <time>2017-03-19T09:27:07Z</time>
      </trkpt>
      <trkpt lat="45.93184" lon="4.71211">
        <ele>190</ele>
        <time>2017-03-19T09:27:08Z</time>
      </trkpt>
      <trkpt lat="45.93179" lon="4.712">
        <ele>190</ele>
        <time>2017-03-19T09:27:10Z</time>
      </trkpt>
      <trkpt lat="45.93177" lon="4.71195">
        <ele>190</ele>
        <time>2017-03-19T09:27:11Z</time>
      </trkpt>
      <trkpt lat="45.93173" lon="4.71186">
        <ele>190</ele>
        <time>2017-03-19T09:27:13Z</time>
      </trkpt>
      <trkpt lat="45.93171" lon="4.71181">
        <ele>190</ele>
        <time>2017-03-19T09:27:14Z</time>
      </trkpt>
      <trkpt lat="45.93166" lon="4.71171">
        <ele>190</ele>
        <time>2017-03-19T09:27:16Z</time>
      </trkpt>
      <trkpt lat="45.93164" lon="4.71166">
        <ele>190</ele>
        <time>2017-03-19T09:27:17Z</time>
      </trkpt>
      <trkpt lat="45.93159" lon="4.71157">
        <ele>191</ele>
        <time>2017-03-19T09:27:19Z</time>
      </trkpt>
      <trkpt lat="45.93156" lon="4.71152">
        <ele>191</ele>
        <time>2017-03-19T09:27:20Z</time>
      </trkpt>
      <trkpt lat="45.93152" lon="4.71143">
        <ele>191</ele>
        <time>2017-03-19T09:27:22Z</time>
      </trkpt>
      <trkpt lat="45.9315" lon="4.71139">
        <ele>191</ele>
        <time>2017-03-19T09:27:23Z</time>
      </trkpt>
      <trkpt lat="45.93145" lon="4.7113">
        <ele>192</ele>
        <time>2017-03-19T09:27:25Z</time>
      </trkpt>
      <trkpt lat="45.93142" lon="4.71125">
        <ele>192</ele>
        <time>2017-03-19T09:27:26Z</time>
      </trkpt>
      <trkpt lat="45.93136" lon="4.71116">
        <ele>192</ele>
        <time>2017-03-19T09:27:28Z</time>
      </trkpt>
      <trkpt lat="45.93134" lon="4.71111">
        <ele>192</ele>
        <time>2017-03-19T09:27:29Z</time>
      </trkpt>
      <trkpt lat="45.9313" lon="4.71101">
        <ele>192</ele>
        <time>2017-03-19T09:27:31Z</time>
      </trkpt>
      <trkpt lat="45.93127" lon="4.71097">
        <ele>192</ele>
        <time>2017-03-19T09:27:32Z</time>
      </trkpt>
      <trkpt lat="45.93122" lon="4.71087">
        <ele>192</ele>
        <time>2017-03-19T09:27:34Z</time>
      </trkpt>
      <trkpt lat="45.9312" lon="4.71083">
        <ele>195</ele>
        <time>2017-03-19T09:27:35Z</time>
      </trkpt>
      <trkpt lat="45.93116" lon="4.71074">
        <ele>195</ele>
        <time>2017-03-19T09:27:37Z</time>
      </trkpt>
      <trkpt lat="45.93114" lon="4.7107">
        <ele>195</ele>
        <time>2017-03-19T09:27:38Z</time>
      </trkpt>
      <trkpt lat="45.93109" lon="4.71061">
        <ele>195</ele>
        <time>2017-03-19T09:27:40Z</time>
      </trkpt>
      <trkpt lat="45.93106" lon="4.71057">
        <ele>195</ele>
        <time>2017-03-19T09:27:41Z</time>
      </trkpt>
      <trkpt lat="45.93102" lon="4.7105">
        <ele>196</ele>
        <time>2017-03-19T09:27:43Z</time>
      </trkpt>
      <trkpt lat="45.93099" lon="4.71046">
        <ele>196</ele>
        <time>2017-03-19T09:27:44Z</time>
      </trkpt>
      <trkpt lat="45.93094" lon="4.71039">
        <ele>196</ele>
        <time>2017-03-19T09:27:46Z</time>
      </trkpt>
      <trkpt lat="45.93091" lon="4.71036">
        <ele>196</ele>
        <time>2017-03-19T09:27:47Z</time>
      </trkpt>
      <trkpt lat="45.93086" lon="4.71028">
        <ele>196</ele>
        <time>2017-03-19T09:27:49Z</time>
      </trkpt>
      <trkpt lat="45.93083" lon="4.71024">
        <ele>197</ele>
        <time>2017-03-19T09:27:50Z</time>
      </trkpt>
      <trkpt lat="45.93079" lon="4.71016">
        <ele>197</ele>
        <time>2017-03-19T09:27:52Z</time>
      </trkpt>
      <trkpt lat="45.93076" lon="4.71012">
        <ele>197</ele>
        <time>2017-03-19T09:27:53Z</time>
      </trkpt>
      <trkpt lat="45.93072" lon="4.71004">
        <ele>197</ele>
        <time>2017-03-19T09:27:55Z</time>
      </trkpt>
      <trkpt lat="45.9307" lon="4.70999">
        <ele>198</ele>
        <time>2017-03-19T09:27:56Z</time>
      </trkpt>
      <trkpt lat="45.93067" lon="4.7099">
        <ele>198</ele>
        <time>2017-03-19T09:27:58Z</time>
      </trkpt>
      <trkpt lat="45.93066" lon="4.70985">
        <ele>198</ele>
        <time>2017-03-19T09:27:59Z</time>
      </trkpt>
      <trkpt lat="45.93066" lon="4.70975">
        <ele>199</ele>
        <time>2017-03-19T09:28:01Z</time>
      </trkpt>
      <trkpt lat="45.93065" lon="4.7097">
        <ele>199</ele>
        <time>2017-03-19T09:28:02Z</time>
      </trkpt>
      <trkpt lat="45.93062" lon="4.70961">
        <ele>199</ele>
        <time>2017-03-19T09:28:04Z</time>
      </trkpt>
      <trkpt lat="45.93061" lon="4.70956">
        <ele>199</ele>
        <time>2017-03-19T09:28:05Z</time>
      </trkpt>
      <trkpt lat="45.93058" lon="4.70948">
        <ele>199</ele>
        <time>2017-03-19T09:28:07Z</time>
      </trkpt>
      <trkpt lat="45.93056" lon="4.70944">
        <ele>199</ele>
        <time>2017-03-19T09:28:08Z</time>
      </trkpt>
      <trkpt lat="45.93053" lon="4.70936">
        <ele>199</ele>
        <time>2017-03-19T09:28:10Z</time>
      </trkpt>
      <trkpt lat="45.93052" lon="4.70931">
        <ele>199</ele>
        <time>2017-03-19T09:28:11Z</time>
      </trkpt>
      <trkpt lat="45.93048" lon="4.70923">
        <ele>199</ele>
        <time>2017-03-19T09:28:13Z</time>
      </trkpt>
      <trkpt lat="45.93046" lon="4.70919">
        <ele>199</ele>
        <time>2017-03-19T09:28:14Z</time>
      </trkpt>
      <trkpt lat="45.93042" lon="4.70911">
        <ele>201</ele>
        <time>2017-03-19T09:28:16Z</time>
      </trkpt>
      <trkpt lat="45.9304" lon="4.70907">
        <ele>201</ele>
        <time>2017-03-19T09:28:17Z</time>
      </trkpt>
      <trkpt lat="45.93037" lon="4.70899">
        <ele>201</ele>
        <time>2017-03-19T09:28:19Z</time>
      </trkpt>
      <trkpt lat="45.93035" lon="4.70895">
        <ele>201</ele>
        <time>2017-03-19T09:28:20Z</time>
      </trkpt>
      <trkpt lat="45.93032" lon="4.70888">
        <ele>201</ele>
        <time>2017-03-19T09:28:22Z</time>
      </trkpt>
      <trkpt lat="45.9303" lon="4.70884">
        <ele>201</ele>
        <time>2017-03-19T09:28:23Z</time>
      </trkpt>
      <trkpt lat="45.93026" lon="4.70874">
        <ele>202</ele>
        <time>2017-03-19T09:28:26Z</time>
      </trkpt>
      <trkpt lat="45.93024" lon="4.7087">
        <ele>202</ele>
        <time>2017-03-19T09:28:27Z</time>
      </trkpt>
      <trkpt lat="45.93021" lon="4.70861">
        <ele>202</ele>
        <time>2017-03-19T09:28:30Z</time>
      </trkpt>
      <trkpt lat="45.9302" lon="4.70858">
        <ele>202</ele>
        <time>2017-03-19T09:28:31Z</time>
      </trkpt>
      <trkpt lat="45.93016" lon="4.70849">
        <ele>202</ele>
        <time>2017-03-19T09:28:34Z</time>
      </trkpt>
      <trkpt lat="45.93014" lon="4.70846">
        <ele>202</ele>
        <time>2017-03-19T09:28:35Z</time>
      </trkpt>
      <trkpt lat="45.9301" lon="4.70837">
        <ele>202</ele>
        <time>2017-03-19T09:28:38Z</time>
      </trkpt>
      <trkpt lat="45.93009" lon="4.70834">
        <ele>203</ele>
        <time>2017-03-19T09:28:39Z</time>
      </trkpt>
      <trkpt lat="45.93005" lon="4.70823">
        <ele>204</ele>
        <time>2017-03-19T09:28:42Z</time>
      </trkpt>
      <trkpt lat="45.93004" lon="4.7082">
        <ele>204</ele>
        <time>2017-03-19T09:28:43Z</time>
      </trkpt>
      <trkpt lat="45.92999" lon="4.70811">
        <ele>203</ele>
        <time>2017-03-19T09:28:46Z</time>
      </trkpt>
      <trkpt lat="45.92997" lon="4.70808">
        <ele>204</ele>
        <time>2017-03-19T09:28:47Z</time>
      </trkpt>
      <trkpt lat="45.92993" lon="4.708">
        <ele>204</ele>
        <time>2017-03-19T09:28:50Z</time>
      </trkpt>
      <trkpt lat="45.92991" lon="4.70797">
        <ele>204</ele>
        <time>2017-03-19T09:28:51Z</time>
      </trkpt>
      <trkpt lat="45.92987" lon="4.70788">
        <ele>204</ele>
        <time>2017-03-19T09:28:54Z</time>
      </trkpt>
      <trkpt lat="45.92986" lon="4.70785">
        <ele>204</ele>
        <time>2017-03-19T09:28:55Z</time>
      </trkpt>
      <trkpt lat="45.92981" lon="4.70776">
        <ele>204</ele>
        <time>2017-03-19T09:28:58Z</time>
      </trkpt>
      <trkpt lat="45.9298" lon="4.70774">
        <ele>204</ele>
        <time>2017-03-19T09:28:59Z</time>
      </trkpt>
      <trkpt lat="45.92974" lon="4.70767">
        <ele>204</ele>
        <time>2017-03-19T09:29:02Z</time>
      </trkpt>
      <trkpt lat="45.92974" lon="4.70764">
        <ele>204</ele>
        <time>2017-03-19T09:29:03Z</time>
      </trkpt>
      <trkpt lat="45.9297" lon="4.70756">
        <ele>204</ele>
        <time>2017-03-19T09:29:06Z</time>
      </trkpt>
      <trkpt lat="45.92969" lon="4.70753">
        <ele>204</ele>
        <time>2017-03-19T09:29:07Z</time>
      </trkpt>
      <trkpt lat="45.92965" lon="4.70743">
        <ele>207</ele>
        <time>2017-03-19T09:29:10Z</time>
      </trkpt>
      <trkpt lat="45.92965" lon="4.7074">
        <ele>207</ele>
        <time>2017-03-19T09:29:11Z</time>
      </trkpt>
      <trkpt lat="45.92961" lon="4.70732">
        <ele>208</ele>
        <time>2017-03-19T09:29:14Z</time>
      </trkpt>
      <trkpt lat="45.9296" lon="4.70729">
        <ele>208</ele>
        <time>2017-03-19T09:29:15Z</time>
      </trkpt>
      <trkpt lat="45.92956" lon="4.7072">
        <ele>208</ele>
        <time>2017-03-19T09:29:18Z</time>
      </trkpt>
      <trkpt lat="45.92955" lon="4.70717">
        <ele>208</ele>
        <time>2017-03-19T09:29:19Z</time>
      </trkpt>
      <trkpt lat="45.9295" lon="4.70706">
        <ele>209</ele>
        <time>2017-03-19T09:29:23Z</time>
      </trkpt>
      <trkpt lat="45.92949" lon="4.70704">
        <ele>209</ele>
        <time>2017-03-19T09:29:24Z</time>
      </trkpt>
      <trkpt lat="45.92945" lon="4.70693">
        <ele>209</ele>
        <time>2017-03-19T09:29:28Z</time>
      </trkpt>
      <trkpt lat="45.92944" lon="4.7069">
        <ele>209</ele>
        <time>2017-03-19T09:29:29Z</time>
      </trkpt>
      <trkpt lat="45.92942" lon="4.70681">
        <ele>210</ele>
        <time>2017-03-19T09:29:32Z</time>
      </trkpt>
      <trkpt lat="45.92941" lon="4.70678">
        <ele>210</ele>
        <time>2017-03-19T09:29:33Z</time>
      </trkpt>
      <trkpt lat="45.92937" lon="4.70669">
        <ele>210</ele>
        <time>2017-03-19T09:29:36Z</time>
      </trkpt>
      <trkpt lat="45.92936" lon="4.70666">
        <ele>215</ele>
        <time>2017-03-19T09:29:37Z</time>
      </trkpt>
      <trkpt lat="45.92932" lon="4.70658">
        <ele>215</ele>
        <time>2017-03-19T09:29:40Z</time>
      </trkpt>
      <trkpt lat="45.92931" lon="4.70655">
        <ele>215</ele>
        <time>2017-03-19T09:29:41Z</time>
      </trkpt>
      <trkpt lat="45.92927" lon="4.70647">
        <ele>215</ele>
        <time>2017-03-19T09:29:44Z</time>
      </trkpt>
      <trkpt lat="45.92926" lon="4.70644">
        <ele>216</ele>
        <time>2017-03-19T09:29:45Z</time>
      </trkpt>
      <trkpt lat="45.92922" lon="4.70636">
        <ele>216</ele>
        <time>2017-03-19T09:29:48Z</time>
      </trkpt>
      <trkpt lat="45.92921" lon="4.70633">
        <ele>217</ele>
        <time>2017-03-19T09:29:49Z</time>
      </trkpt>
      <trkpt lat="45.92917" lon="4.70623">
        <ele>217</ele>
        <time>2017-03-19T09:29:52Z</time>
      </trkpt>
      <trkpt lat="45.92916" lon="4.7062">
        <ele>216</ele>
        <time>2017-03-19T09:29:53Z</time>
      </trkpt>
      <trkpt lat="45.92912" lon="4.70611">
        <ele>217</ele>
        <time>2017-03-19T09:29:56Z</time>
      </trkpt>
      <trkpt lat="45.92911" lon="4.70608">
        <ele>217</ele>
        <time>2017-03-19T09:29:57Z</time>
      </trkpt>
      <trkpt lat="45.92906" lon="4.70598">
        <ele>218</ele>
        <time>2017-03-19T09:30:01Z</time>
      </trkpt>
      <trkpt lat="45.92905" lon="4.70595">
        <ele>218</ele>
        <time>2017-03-19T09:30:02Z</time>
      </trkpt>
      <trkpt lat="45.929" lon="4.70587">
        <ele>218</ele>
        <time>2017-03-19T09:30:05Z</time>
      </trkpt>
      <trkpt lat="45.92899" lon="4.70584">
        <ele>218</ele>
        <time>2017-03-19T09:30:06Z</time>
      </trkpt>
      <trkpt lat="45.92894" lon="4.70577">
        <ele>220</ele>
        <time>2017-03-19T09:30:09Z</time>
      </trkpt>
      <trkpt lat="45.92892" lon="4.70574">
        <ele>220</ele>
        <time>2017-03-19T09:30:10Z</time>
      </trkpt>
      <trkpt lat="45.92888" lon="4.70566">
        <ele>220</ele>
        <time>2017-03-19T09:30:13Z</time>
      </trkpt>
      <trkpt lat="45.92886" lon="4.70563">
        <ele>220</ele>
        <time>2017-03-19T09:30:14Z</time>
      </trkpt>
      <trkpt lat="45.92883" lon="4.70555">
        <ele>220</ele>
        <time>2017-03-19T09:30:17Z</time>
      </trkpt>
      <trkpt lat="45.92882" lon="4.70552">
        <ele>220</ele>
        <time>2017-03-19T09:30:18Z</time>
      </trkpt>
      <trkpt lat="45.92878" lon="4.70544">
        <ele>220</ele>
        <time>2017-03-19T09:30:21Z</time>
      </trkpt>
      <trkpt lat="45.92877" lon="4.70541">
        <ele>220</ele>
        <time>2017-03-19T09:30:22Z</time>
      </trkpt>
      <trkpt lat="45.92872" lon="4.7053">
        <ele>220</ele>
        <time>2017-03-19T09:30:26Z</time>
      </trkpt>
      <trkpt lat="45.92871" lon="4.70527">
        <ele>220</ele>
        <time>2017-03-19T09:30:27Z</time>
      </trkpt>
      <trkpt lat="45.92867" lon="4.70518">
        <ele>220</ele>
        <time>2017-03-19T09:30:30Z</time>
      </trkpt>
      <trkpt lat="45.92865" lon="4.70516">
        <ele>220</ele>
        <time>2017-03-19T09:30:31Z</time>
      </trkpt>
      <trkpt lat="45.92862" lon="4.70507">
        <ele>220</ele>
        <time>2017-03-19T09:30:34Z</time>
      </trkpt>
      <trkpt lat="45.92861" lon="4.70504">
        <ele>220</ele>
        <time>2017-03-19T09:30:35Z</time>
      </trkpt>
      <trkpt lat="45.92856" lon="4.70495">
        <ele>222</ele>
        <time>2017-03-19T09:30:38Z</time>
      </trkpt>
      <trkpt lat="45.92855" lon="4.70492">
        <ele>222</ele>
        <time>2017-03-19T09:30:39Z</time>
      </trkpt>
      <trkpt lat="45.9285" lon="4.70485">
        <ele>222</ele>
        <time>2017-03-19T09:30:42Z</time>
      </trkpt>
      <trkpt lat="45.92849" lon="4.70482">
        <ele>222</ele>
        <time>2017-03-19T09:30:43Z</time>
      </trkpt>
      <trkpt lat="45.92847" lon="4.70473">
        <ele>223</ele>
        <time>2017-03-19T09:30:46Z</time>
      </trkpt>
      <trkpt lat="45.92846" lon="4.7047">
        <ele>223</ele>
        <time>2017-03-19T09:30:47Z</time>
      </trkpt>
      <trkpt lat="45.92845" lon="4.70458">
        <ele>224</ele>
        <time>2017-03-19T09:30:51Z</time>
      </trkpt>
      <trkpt lat="45.92845" lon="4.70455">
        <ele>224</ele>
        <time>2017-03-19T09:30:52Z</time>
      </trkpt>
      <trkpt lat="45.92845" lon="4.70444">
        <ele>225</ele>
        <time>2017-03-19T09:30:56Z</time>
      </trkpt>
      <trkpt lat="45.92845" lon="4.70441">
        <ele>225</ele>
        <time>2017-03-19T09:30:57Z</time>
      </trkpt>
      <trkpt lat="45.92848" lon="4.70431">
        <ele>225</ele>
        <time>2017-03-19T09:31:01Z</time>
      </trkpt>
      <trkpt lat="45.92848" lon="4.70428">
        <ele>225</ele>
        <time>2017-03-19T09:31:02Z</time>
      </trkpt>
      <trkpt lat="45.92848" lon="4.70416">
        <ele>227</ele>
        <time>2017-03-19T09:31:06Z</time>
      </trkpt>
      <trkpt lat="45.92849" lon="4.70414">
        <ele>227</ele>
        <time>2017-03-19T09:31:07Z</time>
      </trkpt>
      <trkpt lat="45.92851" lon="4.70402">
        <ele>227</ele>
        <time>2017-03-19T09:31:11Z</time>
      </trkpt>
      <trkpt lat="45.92852" lon="4.70399">
        <ele>227</ele>
        <time>2017-03-19T09:31:12Z</time>
      </trkpt>
      <trkpt lat="45.92856" lon="4.70389">
        <ele>227</ele>
        <time>2017-03-19T09:31:16Z</time>
      </trkpt>
      <trkpt lat="45.92857" lon="4.70386">
        <ele>227</ele>
        <time>2017-03-19T09:31:17Z</time>
      </trkpt>
      <trkpt lat="45.92859" lon="4.70374">
        <ele>227</ele>
        <time>2017-03-19T09:31:21Z</time>
      </trkpt>
      <trkpt lat="45.9286" lon="4.70372">
        <ele>228</ele>
        <time>2017-03-19T09:31:22Z</time>
      </trkpt>
      <trkpt lat="45.92862" lon="4.7036">
        <ele>228</ele>
        <time>2017-03-19T09:31:26Z</time>
      </trkpt>
      <trkpt lat="45.92862" lon="4.70357">
        <ele>228</ele>
        <time>2017-03-19T09:31:27Z</time>
      </trkpt>
      <trkpt lat="45.92864" lon="4.70347">
        <ele>228</ele>
        <time>2017-03-19T09:31:30Z</time>
      </trkpt>
      <trkpt lat="45.92865" lon="4.70344">
        <ele>228</ele>
        <time>2017-03-19T09:31:31Z</time>
      </trkpt>
      <trkpt lat="45.92867" lon="4.70332">
        <ele>231</ele>
        <time>2017-03-19T09:31:35Z</time>
      </trkpt>
      <trkpt lat="45.92868" lon="4.70329">
        <ele>231</ele>
        <time>2017-03-19T09:31:36Z</time>
      </trkpt>
      <trkpt lat="45.92871" lon="4.70317">
        <ele>231</ele>
        <time>2017-03-19T09:31:40Z</time>
      </trkpt>
      <trkpt lat="45.92872" lon="4.70314">
        <ele>231</ele>
        <time>2017-03-19T09:31:41Z</time>
      </trkpt>
      <trkpt lat="45.92875" lon="4.70303">
        <ele>231</ele>
        <time>2017-03-19T09:31:45Z</time>
      </trkpt>
      <trkpt lat="45.92875" lon="4.703">
        <ele>231</ele>
        <time>2017-03-19T09:31:46Z</time>
      </trkpt>
      <trkpt lat="45.92877" lon="4.70288">
        <ele>231</ele>
        <time>2017-03-19T09:31:50Z</time>
      </trkpt>
      <trkpt lat="45.92878" lon="4.70285">
        <ele>231</ele>
        <time>2017-03-19T09:31:51Z</time>
      </trkpt>
      <trkpt lat="45.92879" lon="4.70273">
        <ele>232</ele>
        <time>2017-03-19T09:31:55Z</time>
      </trkpt>
      <trkpt lat="45.9288" lon="4.7027">
        <ele>232</ele>
        <time>2017-03-19T09:31:56Z</time>
      </trkpt>
      <trkpt lat="45.92882" lon="4.70258">
        <ele>232</ele>
        <time>2017-03-19T09:32:00Z</time>
      </trkpt>
      <trkpt lat="45.92882" lon="4.70255">
        <ele>232</ele>
        <time>2017-03-19T09:32:01Z</time>
      </trkpt>
      <trkpt lat="45.92884" lon="4.70243">
        <ele>235</ele>
        <time>2017-03-19T09:32:05Z</time>
      </trkpt>
      <trkpt lat="45.92884" lon="4.70241">
        <ele>235</ele>
        <time>2017-03-19T09:32:06Z</time>
      </trkpt>
      <trkpt lat="45.92885" lon="4.70229">
        <ele>235</ele>
        <time>2017-03-19T09:32:10Z</time>
      </trkpt>
      <trkpt lat="45.92886" lon="4.70227">
        <ele>235</ele>
        <time>2017-03-19T09:32:11Z</time>
      </trkpt>
      <trkpt lat="45.92887" lon="4.70215">
        <ele>236</ele>
        <time>2017-03-19T09:32:15Z</time>
      </trkpt>
      <trkpt lat="45.92888" lon="4.70212">
        <ele>236</ele>
        <time>2017-03-19T09:32:16Z</time>
      </trkpt>
      <trkpt lat="45.92888" lon="4.70201">
        <ele>236</ele>
        <time>2017-03-19T09:32:20Z</time>
      </trkpt>
      <trkpt lat="45.92888" lon="4.70197">
        <ele>236</ele>
        <time>2017-03-19T09:32:21Z</time>
      </trkpt>
      <trkpt lat="45.92888" lon="4.70185">
        <ele>236</ele>
        <time>2017-03-19T09:32:25Z</time>
      </trkpt>
      <trkpt lat="45.92888" lon="4.70182">
        <ele>236</ele>
        <time>2017-03-19T09:32:26Z</time>
      </trkpt>
      <trkpt lat="45.92889" lon="4.7017">
        <ele>236</ele>
        <time>2017-03-19T09:32:30Z</time>
      </trkpt>
      <trkpt lat="45.9289" lon="4.70167">
        <ele>239</ele>
        <time>2017-03-19T09:32:31Z</time>
      </trkpt>
      <trkpt lat="45.9289" lon="4.70154">
        <ele>239</ele>
        <time>2017-03-19T09:32:35Z</time>
      </trkpt>
      <trkpt lat="45.9289" lon="4.70151">
        <ele>239</ele>
        <time>2017-03-19T09:32:36Z</time>
      </trkpt>
      <trkpt lat="45.9289" lon="4.70139">
        <ele>240</ele>
        <time>2017-03-19T09:32:40Z</time>
      </trkpt>
      <trkpt lat="45.9289" lon="4.70135">
        <ele>240</ele>
        <time>2017-03-19T09:32:41Z</time>
      </trkpt>
      <trkpt lat="45.9289" lon="4.70123">
        <ele>240</ele>
        <time>2017-03-19T09:32:45Z</time>
      </trkpt>
      <trkpt lat="45.9289" lon="4.7012">
        <ele>240</ele>
        <time>2017-03-19T09:32:46Z</time>
      </trkpt>
      <trkpt lat="45.92891" lon="4.7011">
        <ele>241</ele>
        <time>2017-03-19T09:32:49Z</time>
      </trkpt>
      <trkpt lat="45.92891" lon="4.70107">
        <ele>241</ele>
        <time>2017-03-19T09:32:50Z</time>
      </trkpt>
      <trkpt lat="45.92891" lon="4.70095">
        <ele>241</ele>
        <time>2017-03-19T09:32:54Z</time>
      </trkpt>
      <trkpt lat="45.92891" lon="4.70092">
        <ele>241</ele>
        <time>2017-03-19T09:32:55Z</time>
      </trkpt>
      <trkpt lat="45.92891" lon="4.70081">
        <ele>244</ele>
        <time>2017-03-19T09:32:59Z</time>
      </trkpt>
      <trkpt lat="45.92891" lon="4.70077">
        <ele>244</ele>
        <time>2017-03-19T09:33:00Z</time>
      </trkpt>
      <trkpt lat="45.92892" lon="4.70066">
        <ele>244</ele>
        <time>2017-03-19T09:33:04Z</time>
      </trkpt>
      <trkpt lat="45.92891" lon="4.70063">
        <ele>245</ele>
        <time>2017-03-19T09:33:05Z</time>
      </trkpt>
      <trkpt lat="45.9289" lon="4.70052">
        <ele>245</ele>
        <time>2017-03-19T09:33:09Z</time>
      </trkpt>
      <trkpt lat="45.9289" lon="4.70049">
        <ele>245</ele>
        <time>2017-03-19T09:33:10Z</time>
      </trkpt>
      <trkpt lat="45.92892" lon="4.70038">
        <ele>246</ele>
        <time>2017-03-19T09:33:14Z</time>
      </trkpt>
      <trkpt lat="45.92893" lon="4.70034">
        <ele>246</ele>
        <time>2017-03-19T09:33:15Z</time>
      </trkpt>
      <trkpt lat="45.92895" lon="4.70023">
        <ele>246</ele>
        <time>2017-03-19T09:33:19Z</time>
      </trkpt>
      <trkpt lat="45.92896" lon="4.7002">
        <ele>246</ele>
        <time>2017-03-19T09:33:20Z</time>
      </trkpt>
      <trkpt lat="45.92901" lon="4.7001">
        <ele>246</ele>
        <time>2017-03-19T09:33:24Z</time>
      </trkpt>
      <trkpt lat="45.92903" lon="4.70008">
        <ele>246</ele>
        <time>2017-03-19T09:33:25Z</time>
      </trkpt>
      <trkpt lat="45.9291" lon="4.70004">
        <ele>246</ele>
        <time>2017-03-19T09:33:29Z</time>
      </trkpt>
      <trkpt lat="45.92912" lon="4.70004">
        <ele>246</ele>
        <time>2017-03-19T09:33:30Z</time>
      </trkpt>
      <trkpt lat="45.92921" lon="4.70007">
        <ele>245</ele>
        <time>2017-03-19T09:33:34Z</time>
      </trkpt>
      <trkpt lat="45.92923" lon="4.70008">
        <ele>245</ele>
        <time>2017-03-19T09:33:35Z</time>
      </trkpt>
      <trkpt lat="45.92927" lon="4.70016">
        <ele>244</ele>
        <time>2017-03-19T09:33:38Z</time>
      </trkpt>
      <trkpt lat="45.92928" lon="4.70019">
        <ele>244</ele>
        <time>2017-03-19T09:33:39Z</time>
      </trkpt>
      <trkpt lat="45.92929" lon="4.70029">
        <ele>244</ele>
        <time>2017-03-19T09:33:42Z</time>
      </trkpt>
      <trkpt lat="45.9293" lon="4.70032">
        <ele>244</ele>
        <time>2017-03-19T09:33:43Z</time>
      </trkpt>
      <trkpt lat="45.92933" lon="4.70043">
        <ele>243</ele>
        <time>2017-03-19T09:33:47Z</time>
      </trkpt>
      <trkpt lat="45.92933" lon="4.70046">
        <ele>243</ele>
        <time>2017-03-19T09:33:48Z</time>
      </trkpt>
      <trkpt lat="45.92938" lon="4.70054">
        <ele>243</ele>
        <time>2017-03-19T09:33:52Z</time>
      </trkpt>
      <trkpt lat="45.92939" lon="4.70056">
        <ele>243</ele>
        <time>2017-03-19T09:33:53Z</time>
      </trkpt>
      <trkpt lat="45.92947" lon="4.70062">
        <ele>243</ele>
        <time>2017-03-19T09:33:57Z</time>
      </trkpt>
      <trkpt lat="45.92949" lon="4.70063">
        <ele>243</ele>
        <time>2017-03-19T09:33:58Z</time>
      </trkpt>
      <trkpt lat="45.92957" lon="4.70062">
        <ele>243</ele>
        <time>2017-03-19T09:34:02Z</time>
      </trkpt>
      <trkpt lat="45.9296" lon="4.70061">
        <ele>243</ele>
        <time>2017-03-19T09:34:03Z</time>
      </trkpt>
      <trkpt lat="45.92967" lon="4.70056">
        <ele>243</ele>
        <time>2017-03-19T09:34:07Z</time>
      </trkpt>
      <trkpt lat="45.92969" lon="4.70054">
        <ele>243</ele>
        <time>2017-03-19T09:34:08Z</time>
      </trkpt>
      <trkpt lat="45.92974" lon="4.70045">
        <ele>243</ele>
        <time>2017-03-19T09:34:12Z</time>
      </trkpt>
      <trkpt lat="45.92975" lon="4.70042">
        <ele>243</ele>
        <time>2017-03-19T09:34:13Z</time>
      </trkpt>
      <trkpt lat="45.9298" lon="4.70032">
        <ele>244</ele>
        <time>2017-03-19T09:34:17Z</time>
      </trkpt>
      <trkpt lat="45.92981" lon="4.70029">
        <ele>244</ele>
        <time>2017-03-19T09:34:18Z</time>
      </trkpt>
      <trkpt lat="45.92985" lon="4.70018">
        <ele>244</ele>
        <time>2017-03-19T09:34:22Z</time>
      </trkpt>
      <trkpt lat="45.92986" lon="4.70016">
        <ele>244</ele>
        <time>2017-03-19T09:34:23Z</time>
      </trkpt>
      <trkpt lat="45.92989" lon="4.70005">
        <ele>245</ele>
        <time>2017-03-19T09:34:27Z</time>
      </trkpt>
      <trkpt lat="45.92989" lon="4.70003">
        <ele>245</ele>
        <time>2017-03-19T09:34:28Z</time>
      </trkpt>
      <trkpt lat="45.92992" lon="4.69992">
        <ele>248</ele>
        <time>2017-03-19T09:34:32Z</time>
      </trkpt>
      <trkpt lat="45.92993" lon="4.6999">
        <ele>248</ele>
        <time>2017-03-19T09:34:33Z</time>
      </trkpt>
      <trkpt lat="45.92997" lon="4.6998">
        <ele>249</ele>
        <time>2017-03-19T09:34:37Z</time>
      </trkpt>
      <trkpt lat="45.92997" lon="4.69977">
        <ele>250</ele>
        <time>2017-03-19T09:34:38Z</time>
      </trkpt>
      <trkpt lat="45.93001" lon="4.69966">
        <ele>250</ele>
        <time>2017-03-19T09:34:42Z</time>
      </trkpt>
      <trkpt lat="45.93002" lon="4.69963">
        <ele>250</ele>
        <time>2017-03-19T09:34:43Z</time>
      </trkpt>
      <trkpt lat="45.93006" lon="4.69954">
        <ele>251</ele>
        <time>2017-03-19T09:34:47Z</time>
      </trkpt>
      <trkpt lat="45.93008" lon="4.69952">
        <ele>251</ele>
        <time>2017-03-19T09:34:48Z</time>
      </trkpt>
      <trkpt lat="45.93013" lon="4.69944">
        <ele>252</ele>
        <time>2017-03-19T09:34:51Z</time>
      </trkpt>
      <trkpt lat="45.93014" lon="4.69941">
        <ele>252</ele>
        <time>2017-03-19T09:34:52Z</time>
      </trkpt>
      <trkpt lat="45.93021" lon="4.69933">
        <ele>252</ele>
        <time>2017-03-19T09:34:56Z</time>
      </trkpt>
      <trkpt lat="45.93022" lon="4.69932">
        <ele>252</ele>
        <time>2017-03-19T09:34:57Z</time>
      </trkpt>
      <trkpt lat="45.93028" lon="4.69925">
        <ele>252</ele>
        <time>2017-03-19T09:35:01Z</time>
      </trkpt>
      <trkpt lat="45.93029" lon="4.69923">
        <ele>252</ele>
        <time>2017-03-19T09:35:02Z</time>
      </trkpt>
      <trkpt lat="45.93035" lon="4.69916">
        <ele>257</ele>
        <time>2017-03-19T09:35:06Z</time>
      </trkpt>
      <trkpt lat="45.93037" lon="4.69915">
        <ele>257</ele>
        <time>2017-03-19T09:35:07Z</time>
      </trkpt>
      <trkpt lat="45.93043" lon="4.69908">
        <ele>257</ele>
        <time>2017-03-19T09:35:11Z</time>
      </trkpt>
      <trkpt lat="45.93045" lon="4.69906">
        <ele>257</ele>
        <time>2017-03-19T09:35:12Z</time>
      </trkpt>
      <trkpt lat="45.9305" lon="4.69899">
        <ele>257</ele>
        <time>2017-03-19T09:35:15Z</time>
      </trkpt>
      <trkpt lat="45.93052" lon="4.69897">
        <ele>256</ele>
        <time>2017-03-19T09:35:16Z</time>
      </trkpt>
      <trkpt lat="45.93058" lon="4.69891">
        <ele>257</ele>
        <time>2017-03-19T09:35:20Z</time>
      </trkpt>
      <trkpt lat="45.93059" lon="4.6989">
        <ele>257</ele>
        <time>2017-03-19T09:35:21Z</time>
      </trkpt>
      <trkpt lat="45.93065" lon="4.69882">
        <ele>257</ele>
        <time>2017-03-19T09:35:25Z</time>
      </trkpt>
      <trkpt lat="45.93066" lon="4.6988">
        <ele>257</ele>
        <time>2017-03-19T09:35:26Z</time>
      </trkpt>
      <trkpt lat="45.93073" lon="4.69872">
        <ele>257</ele>
        <time>2017-03-19T09:35:30Z</time>
      </trkpt>
      <trkpt lat="45.93074" lon="4.6987">
        <ele>258</ele>
        <time>2017-03-19T09:35:31Z</time>
      </trkpt>
      <trkpt lat="45.93081" lon="4.69864">
        <ele>258</ele>
        <time>2017-03-19T09:35:35Z</time>
      </trkpt>
      <trkpt lat="45.93083" lon="4.69862">
        <ele>258</ele>
        <time>2017-03-19T09:35:36Z</time>
      </trkpt>
      <trkpt lat="45.9309" lon="4.69854">
        <ele>256</ele>
        <time>2017-03-19T09:35:40Z</time>
      </trkpt>
      <trkpt lat="45.93092" lon="4.69852">
        <ele>256</ele>
        <time>2017-03-19T09:35:41Z</time>
      </trkpt>
      <trkpt lat="45.93098" lon="4.69844">
        <ele>257</ele>
        <time>2017-03-19T09:35:45Z</time>
      </trkpt>
      <trkpt lat="45.931" lon="4.69842">
        <ele>257</ele>
        <time>2017-03-19T09:35:46Z</time>
      </trkpt>
      <trkpt lat="45.93107" lon="4.69834">
        <ele>257</ele>
        <time>2017-03-19T09:35:50Z</time>
      </trkpt>
      <trkpt lat="45.93108" lon="4.69833">
        <ele>263</ele>
        <time>2017-03-19T09:35:51Z</time>
      </trkpt>
      <trkpt lat="45.93115" lon="4.69825">
        <ele>263</ele>
        <time>2017-03-19T09:35:55Z</time>
      </trkpt>
      <trkpt lat="45.93117" lon="4.69824">
        <ele>264</ele>
        <time>2017-03-19T09:35:56Z</time>
      </trkpt>
      <trkpt lat="45.93124" lon="4.69817">
        <ele>264</ele>
        <time>2017-03-19T09:36:00Z</time>
      </trkpt>
      <trkpt lat="45.93126" lon="4.69816">
        <ele>264</ele>
        <time>2017-03-19T09:36:01Z</time>
      </trkpt>
      <trkpt lat="45.93134" lon="4.69809">
        <ele>264</ele>
        <time>2017-03-19T09:36:05Z</time>
      </trkpt>
      <trkpt lat="45.93136" lon="4.69808">
        <ele>264</ele>
        <time>2017-03-19T09:36:06Z</time>
      </trkpt>
      <trkpt lat="45.93143" lon="4.69801">
        <ele>265</ele>
        <time>2017-03-19T09:36:10Z</time>
      </trkpt>
      <trkpt lat="45.93145" lon="4.698">
        <ele>265</ele>
        <time>2017-03-19T09:36:11Z</time>
      </trkpt>
      <trkpt lat="45.93152" lon="4.69795">
        <ele>265</ele>
        <time>2017-03-19T09:36:15Z</time>
      </trkpt>
      <trkpt lat="45.93154" lon="4.69794">
        <ele>265</ele>
        <time>2017-03-19T09:36:16Z</time>
      </trkpt>
      <trkpt lat="45.93161" lon="4.6979">
        <ele>266</ele>
        <time>2017-03-19T09:36:20Z</time>
      </trkpt>
      <trkpt lat="45.93163" lon="4.69789">
        <ele>266</ele>
        <time>2017-03-19T09:36:21Z</time>
      </trkpt>
      <trkpt lat="45.93171" lon="4.69785">
        <ele>265</ele>
        <time>2017-03-19T09:36:25Z</time>
      </trkpt>
      <trkpt lat="45.93173" lon="4.69783">
        <ele>266</ele>
        <time>2017-03-19T09:36:26Z</time>
      </trkpt>
      <trkpt lat="45.93181" lon="4.6978">
        <ele>266</ele>
        <time>2017-03-19T09:36:30Z</time>
      </trkpt>
      <trkpt lat="45.93183" lon="4.69779">
        <ele>266</ele>
        <time>2017-03-19T09:36:31Z</time>
      </trkpt>
      <trkpt lat="45.93192" lon="4.69775">
        <ele>266</ele>
        <time>2017-03-19T09:36:35Z</time>
      </trkpt>
      <trkpt lat="45.93194" lon="4.69774">
        <ele>266</ele>
        <time>2017-03-19T09:36:36Z</time>
      </trkpt>
      <trkpt lat="45.93202" lon="4.69771">
        <ele>266</ele>
        <time>2017-03-19T09:36:40Z</time>
      </trkpt>
      <trkpt lat="45.93204" lon="4.6977">
        <ele>266</ele>
        <time>2017-03-19T09:36:41Z</time>
      </trkpt>
      <trkpt lat="45.93212" lon="4.69766">
        <ele>266</ele>
        <time>2017-03-19T09:36:45Z</time>
      </trkpt>
      <trkpt lat="45.93215" lon="4.69766">
        <ele>266</ele>
        <time>2017-03-19T09:36:46Z</time>
      </trkpt>
      <trkpt lat="45.93223" lon="4.69762">
        <ele>267</ele>
        <time>2017-03-19T09:36:50Z</time>
      </trkpt>
      <trkpt lat="45.93225" lon="4.69761">
        <ele>267</ele>
        <time>2017-03-19T09:36:51Z</time>
      </trkpt>
      <trkpt lat="45.93234" lon="4.69759">
        <ele>268</ele>
        <time>2017-03-19T09:36:55Z</time>
      </trkpt>
      <trkpt lat="45.93236" lon="4.69758">
        <ele>268</ele>
        <time>2017-03-19T09:36:56Z</time>
      </trkpt>
      <trkpt lat="45.93244" lon="4.69757">
        <ele>269</ele>
        <time>2017-03-19T09:37:00Z</time>
      </trkpt>
      <trkpt lat="45.93246" lon="4.69756">
        <ele>269</ele>
        <time>2017-03-19T09:37:01Z</time>
      </trkpt>
      <trkpt lat="45.93255" lon="4.69755">
        <ele>270</ele>
        <time>2017-03-19T09:37:05Z</time>
      </trkpt>
      <trkpt lat="45.93257" lon="4.69755">
        <ele>269</ele>
        <time>2017-03-19T09:37:06Z</time>
      </trkpt>
      <trkpt lat="45.93266" lon="4.69753">
        <ele>268</ele>
        <time>2017-03-19T09:37:10Z</time>
      </trkpt>
      <trkpt lat="45.93268" lon="4.69753">
        <ele>268</ele>
        <time>2017-03-19T09:37:11Z</time>
      </trkpt>
      <trkpt lat="45.93275" lon="4.69752">
        <ele>268</ele>
        <time>2017-03-19T09:37:15Z</time>
      </trkpt>
      <trkpt lat="45.93277" lon="4.69751">
        <ele>267</ele>
        <time>2017-03-19T09:37:16Z</time>
      </trkpt>
      <trkpt lat="45.93285" lon="4.69746">
        <ele>273</ele>
        <time>2017-03-19T09:37:20Z</time>
      </trkpt>
      <trkpt lat="45.93287" lon="4.69744">
        <ele>273</ele>
        <time>2017-03-19T09:37:21Z</time>
      </trkpt>
      <trkpt lat="45.93292" lon="4.69735">
        <ele>273</ele>
        <time>2017-03-19T09:37:25Z</time>
      </trkpt>
      <trkpt lat="45.93293" lon="4.69732">
        <ele>274</ele>
        <time>2017-03-19T09:37:26Z</time>
      </trkpt>
      <trkpt lat="45.93293" lon="4.69719">
        <ele>274</ele>
        <time>2017-03-19T09:37:30Z</time>
      </trkpt>
      <trkpt lat="45.93292" lon="4.69716">
        <ele>275</ele>
        <time>2017-03-19T09:37:31Z</time>
      </trkpt>
      <trkpt lat="45.93288" lon="4.69706">
        <ele>276</ele>
        <time>2017-03-19T09:37:35Z</time>
      </trkpt>
      <trkpt lat="45.93287" lon="4.69704">
        <ele>276</ele>
        <time>2017-03-19T09:37:36Z</time>
      </trkpt>
      <trkpt lat="45.9328" lon="4.69696">
        <ele>277</ele>
        <time>2017-03-19T09:37:40Z</time>
      </trkpt>
      <trkpt lat="45.93278" lon="4.69694">
        <ele>277</ele>
        <time>2017-03-19T09:37:41Z</time>
      </trkpt>
      <trkpt lat="45.93269" lon="4.69694">
        <ele>278</ele>
        <time>2017-03-19T09:37:45Z</time>
      </trkpt>
      <trkpt lat="45.93267" lon="4.69694">
        <ele>278</ele>
        <time>2017-03-19T09:37:46Z</time>
      </trkpt>
      <trkpt lat="45.9326" lon="4.69692">
        <ele>278</ele>
        <time>2017-03-19T09:37:50Z</time>
      </trkpt>
      <trkpt lat="45.93258" lon="4.69692">
        <ele>278</ele>
        <time>2017-03-19T09:37:51Z</time>
      </trkpt>
      <trkpt lat="45.9325" lon="4.69693">
        <ele>281</ele>
        <time>2017-03-19T09:37:54Z</time>
      </trkpt>
      <trkpt lat="45.93248" lon="4.69693">
        <ele>281</ele>
        <time>2017-03-19T09:37:55Z</time>
      </trkpt>
      <trkpt lat="45.93239" lon="4.69693">
        <ele>281</ele>
        <time>2017-03-19T09:37:59Z</time>
      </trkpt>
      <trkpt lat="45.93237" lon="4.69693">
        <ele>281</ele>
        <time>2017-03-19T09:38:00Z</time>
      </trkpt>
      <trkpt lat="45.93228" lon="4.69692">
        <ele>281</ele>
        <time>2017-03-19T09:38:04Z</time>
      </trkpt>
      <trkpt lat="45.93227" lon="4.69692">
        <ele>281</ele>
        <time>2017-03-19T09:38:05Z</time>
      </trkpt>
      <trkpt lat="45.9322" lon="4.69692">
        <ele>281</ele>
        <time>2017-03-19T09:38:08Z</time>
      </trkpt>
      <trkpt lat="45.93218" lon="4.69692">
        <ele>282</ele>
        <time>2017-03-19T09:38:09Z</time>
      </trkpt>
      <trkpt lat="45.93209" lon="4.69691">
        <ele>282</ele>
        <time>2017-03-19T09:38:13Z</time>
      </trkpt>
      <trkpt lat="45.93207" lon="4.69691">
        <ele>282</ele>
        <time>2017-03-19T09:38:14Z</time>
      </trkpt>
      <trkpt lat="45.932" lon="4.69692">
        <ele>282</ele>
        <time>2017-03-19T09:38:17Z</time>
      </trkpt>
      <trkpt lat="45.93197" lon="4.69693">
        <ele>282</ele>
        <time>2017-03-19T09:38:18Z</time>
      </trkpt>
      <trkpt lat="45.93189" lon="4.69692">
        <ele>283</ele>
        <time>2017-03-19T09:38:22Z</time>
      </trkpt>
      <trkpt lat="45.93187" lon="4.69691">
        <ele>283</ele>
        <time>2017-03-19T09:38:23Z</time>
      </trkpt>
      <trkpt lat="45.93179" lon="4.69689">
        <ele>284</ele>
        <time>2017-03-19T09:38:28Z</time>
      </trkpt>
      <trkpt lat="45.93177" lon="4.69689">
        <ele>284</ele>
        <time>2017-03-19T09:38:29Z</time>
      </trkpt>
      <trkpt lat="45.93169" lon="4.69688">
        <ele>285</ele>
        <time>2017-03-19T09:38:33Z</time>
      </trkpt>
      <trkpt lat="45.93167" lon="4.69688">
        <ele>285</ele>
        <time>2017-03-19T09:38:34Z</time>
      </trkpt>
      <trkpt lat="45.9316" lon="4.69688">
        <ele>286</ele>
        <time>2017-03-19T09:38:37Z</time>
      </trkpt>
      <trkpt lat="45.93158" lon="4.69687">
        <ele>286</ele>
        <time>2017-03-19T09:38:38Z</time>
      </trkpt>
      <trkpt lat="45.9315" lon="4.69687">
        <ele>286</ele>
        <time>2017-03-19T09:38:41Z</time>
      </trkpt>
      <trkpt lat="45.93148" lon="4.69686">
        <ele>286</ele>
        <time>2017-03-19T09:38:42Z</time>
      </trkpt>
      <trkpt lat="45.93141" lon="4.69685">
        <ele>285</ele>
        <time>2017-03-19T09:38:45Z</time>
      </trkpt>
      <trkpt lat="45.93138" lon="4.69685">
        <ele>285</ele>
        <time>2017-03-19T09:38:46Z</time>
      </trkpt>
      <trkpt lat="45.93131" lon="4.69683">
        <ele>285</ele>
        <time>2017-03-19T09:38:49Z</time>
      </trkpt>
      <trkpt lat="45.93128" lon="4.69683">
        <ele>285</ele>
        <time>2017-03-19T09:38:50Z</time>
      </trkpt>
      <trkpt lat="45.93122" lon="4.69679">
        <ele>285</ele>
        <time>2017-03-19T09:38:53Z</time>
      </trkpt>
      <trkpt lat="45.9312" lon="4.69678">
        <ele>285</ele>
        <time>2017-03-19T09:38:54Z</time>
      </trkpt>
      <trkpt lat="45.93111" lon="4.69675">
        <ele>286</ele>
        <time>2017-03-19T09:38:58Z</time>
      </trkpt>
      <trkpt lat="45.93109" lon="4.69675">
        <ele>286</ele>
        <time>2017-03-19T09:38:59Z</time>
      </trkpt>
      <trkpt lat="45.93101" lon="4.69673">
        <ele>286</ele>
        <time>2017-03-19T09:39:03Z</time>
      </trkpt>
      <trkpt lat="45.931" lon="4.69672">
        <ele>287</ele>
        <time>2017-03-19T09:39:04Z</time>
      </trkpt>
      <trkpt lat="45.93092" lon="4.69668">
        <ele>288</ele>
        <time>2017-03-19T09:39:08Z</time>
      </trkpt>
      <trkpt lat="45.9309" lon="4.69667">
        <ele>288</ele>
        <time>2017-03-19T09:39:09Z</time>
      </trkpt>
      <trkpt lat="45.93083" lon="4.69664">
        <ele>290</ele>
        <time>2017-03-19T09:39:13Z</time>
      </trkpt>
      <trkpt lat="45.93081" lon="4.69662">
        <ele>291</ele>
        <time>2017-03-19T09:39:14Z</time>
      </trkpt>
      <trkpt lat="45.93074" lon="4.6966">
        <ele>291</ele>
        <time>2017-03-19T09:39:18Z</time>
      </trkpt>
      <trkpt lat="45.93072" lon="4.69659">
        <ele>292</ele>
        <time>2017-03-19T09:39:19Z</time>
      </trkpt>
      <trkpt lat="45.93065" lon="4.69656">
        <ele>292</ele>
        <time>2017-03-19T09:39:22Z</time>
      </trkpt>
      <trkpt lat="45.93062" lon="4.69656">
        <ele>292</ele>
        <time>2017-03-19T09:39:23Z</time>
      </trkpt>
      <trkpt lat="45.93055" lon="4.69653">
        <ele>292</ele>
        <time>2017-03-19T09:39:27Z</time>
      </trkpt>
      <trkpt lat="45.93053" lon="4.69652">
        <ele>292</ele>
        <time>2017-03-19T09:39:28Z</time>
      </trkpt>
      <trkpt lat="45.93047" lon="4.69647">
        <ele>293</ele>
        <time>2017-03-19T09:39:32Z</time>
      </trkpt>
      <trkpt lat="45.93044" lon="4.69646">
        <ele>293</ele>
        <time>2017-03-19T09:39:33Z</time>
      </trkpt>
      <trkpt lat="45.93036" lon="4.69641">
        <ele>293</ele>
        <time>2017-03-19T09:39:37Z</time>
      </trkpt>
      <trkpt lat="45.93034" lon="4.6964">
        <ele>293</ele>
        <time>2017-03-19T09:39:38Z</time>
      </trkpt>
      <trkpt lat="45.93028" lon="4.69636">
        <ele>293</ele>
        <time>2017-03-19T09:39:41Z</time>
      </trkpt>
      <trkpt lat="45.93025" lon="4.69635">
        <ele>293</ele>
        <time>2017-03-19T09:39:42Z</time>
      </trkpt>
      <trkpt lat="45.93018" lon="4.69628">
        <ele>293</ele>
        <time>2017-03-19T09:39:46Z</time>
      </trkpt>
      <trkpt lat="45.93016" lon="4.69627">
        <ele>293</ele>
        <time>2017-03-19T09:39:47Z</time>
      </trkpt>
      <trkpt lat="45.93008" lon="4.69621">
        <ele>294</ele>
        <time>2017-03-19T09:39:51Z</time>
      </trkpt>
      <trkpt lat="45.93005" lon="4.6962">
        <ele>294</ele>
        <time>2017-03-19T09:39:52Z</time>
      </trkpt>
      <trkpt lat="45.92998" lon="4.69613">
        <ele>291</ele>
        <time>2017-03-19T09:39:56Z</time>
      </trkpt>
      <trkpt lat="45.92996" lon="4.69611">
        <ele>291</ele>
        <time>2017-03-19T09:39:57Z</time>
      </trkpt>
      <trkpt lat="45.9299" lon="4.69605">
        <ele>291</ele>
        <time>2017-03-19T09:40:00Z</time>
      </trkpt>
      <trkpt lat="45.92988" lon="4.69603">
        <ele>292</ele>
        <time>2017-03-19T09:40:01Z</time>
      </trkpt>
      <trkpt lat="45.92982" lon="4.69595">
        <ele>292</ele>
        <time>2017-03-19T09:40:05Z</time>
      </trkpt>
      <trkpt lat="45.92981" lon="4.69593">
        <ele>292</ele>
        <time>2017-03-19T09:40:06Z</time>
      </trkpt>
      <trkpt lat="45.92975" lon="4.69585">
        <ele>291</ele>
        <time>2017-03-19T09:40:10Z</time>
      </trkpt>
      <trkpt lat="45.92973" lon="4.69583">
        <ele>297</ele>
        <time>2017-03-19T09:40:11Z</time>
      </trkpt>
      <trkpt lat="45.92967" lon="4.69576">
        <ele>297</ele>
        <time>2017-03-19T09:40:15Z</time>
      </trkpt>
      <trkpt lat="45.92966" lon="4.69574">
        <ele>297</ele>
        <time>2017-03-19T09:40:16Z</time>
      </trkpt>
      <trkpt lat="45.92961" lon="4.69565">
        <ele>297</ele>
        <time>2017-03-19T09:40:20Z</time>
      </trkpt>
      <trkpt lat="45.9296" lon="4.69562">
        <ele>297</ele>
        <time>2017-03-19T09:40:21Z</time>
      </trkpt>
      <trkpt lat="45.92956" lon="4.69552">
        <ele>297</ele>
        <time>2017-03-19T09:40:26Z</time>
      </trkpt>
      <trkpt lat="45.92954" lon="4.6955">
        <ele>297</ele>
        <time>2017-03-19T09:40:27Z</time>
      </trkpt>
      <trkpt lat="45.92949" lon="4.6954">
        <ele>297</ele>
        <time>2017-03-19T09:40:31Z</time>
      </trkpt>
      <trkpt lat="45.92947" lon="4.69537">
        <ele>297</ele>
        <time>2017-03-19T09:40:32Z</time>
      </trkpt>
      <trkpt lat="45.9294" lon="4.69529">
        <ele>297</ele>
        <time>2017-03-19T09:40:36Z</time>
      </trkpt>
      <trkpt lat="45.92939" lon="4.69526">
        <ele>297</ele>
        <time>2017-03-19T09:40:37Z</time>
      </trkpt>
      <trkpt lat="45.92934" lon="4.69518">
        <ele>297</ele>
        <time>2017-03-19T09:40:41Z</time>
      </trkpt>
      <trkpt lat="45.92932" lon="4.69516">
        <ele>297</ele>
        <time>2017-03-19T09:40:42Z</time>
      </trkpt>
      <trkpt lat="45.92926" lon="4.69507">
        <ele>297</ele>
        <time>2017-03-19T09:40:46Z</time>
      </trkpt>
      <trkpt lat="45.92924" lon="4.69504">
        <ele>297</ele>
        <time>2017-03-19T09:40:47Z</time>
      </trkpt>
      <trkpt lat="45.92919" lon="4.69495">
        <ele>299</ele>
        <time>2017-03-19T09:40:51Z</time>
      </trkpt>
      <trkpt lat="45.92918" lon="4.69493">
        <ele>299</ele>
        <time>2017-03-19T09:40:52Z</time>
      </trkpt>
      <trkpt lat="45.92913" lon="4.69484">
        <ele>297</ele>
        <time>2017-03-19T09:40:55Z</time>
      </trkpt>
      <trkpt lat="45.92912" lon="4.69482">
        <ele>297</ele>
        <time>2017-03-19T09:40:56Z</time>
      </trkpt>
      <trkpt lat="45.92908" lon="4.69471">
        <ele>297</ele>
        <time>2017-03-19T09:41:00Z</time>
      </trkpt>
      <trkpt lat="45.92908" lon="4.69468">
        <ele>297</ele>
        <time>2017-03-19T09:41:01Z</time>
      </trkpt>
      <trkpt lat="45.92905" lon="4.69457">
        <ele>298</ele>
        <time>2017-03-19T09:41:05Z</time>
      </trkpt>
      <trkpt lat="45.92905" lon="4.69455">
        <ele>298</ele>
        <time>2017-03-19T09:41:06Z</time>
      </trkpt>
      <trkpt lat="45.92902" lon="4.69443">
        <ele>299</ele>
        <time>2017-03-19T09:41:10Z</time>
      </trkpt>
      <trkpt lat="45.92901" lon="4.69441">
        <ele>300</ele>
        <time>2017-03-19T09:41:11Z</time>
      </trkpt>
      <trkpt lat="45.929" lon="4.69429">
        <ele>301</ele>
        <time>2017-03-19T09:41:15Z</time>
      </trkpt>
      <trkpt lat="45.92899" lon="4.69426">
        <ele>301</ele>
        <time>2017-03-19T09:41:16Z</time>
      </trkpt>
      <trkpt lat="45.92896" lon="4.69415">
        <ele>306</ele>
        <time>2017-03-19T09:41:20Z</time>
      </trkpt>
      <trkpt lat="45.92896" lon="4.69412">
        <ele>306</ele>
        <time>2017-03-19T09:41:21Z</time>
      </trkpt>
      <trkpt lat="45.92892" lon="4.69401">
        <ele>306</ele>
        <time>2017-03-19T09:41:25Z</time>
      </trkpt>
      <trkpt lat="45.92891" lon="4.69398">
        <ele>306</ele>
        <time>2017-03-19T09:41:26Z</time>
      </trkpt>
      <trkpt lat="45.92887" lon="4.69387">
        <ele>307</ele>
        <time>2017-03-19T09:41:30Z</time>
      </trkpt>
      <trkpt lat="45.92886" lon="4.69385">
        <ele>307</ele>
        <time>2017-03-19T09:41:31Z</time>
      </trkpt>
      <trkpt lat="45.92883" lon="4.69373">
        <ele>307</ele>
        <time>2017-03-19T09:41:35Z</time>
      </trkpt>
      <trkpt lat="45.92882" lon="4.6937">
        <ele>307</ele>
        <time>2017-03-19T09:41:36Z</time>
      </trkpt>
      <trkpt lat="45.92877" lon="4.69359">
        <ele>308</ele>
        <time>2017-03-19T09:41:40Z</time>
      </trkpt>
      <trkpt lat="45.92875" lon="4.69357">
        <ele>308</ele>
        <time>2017-03-19T09:41:41Z</time>
      </trkpt>
      <trkpt lat="45.92871" lon="4.69348">
        <ele>307</ele>
        <time>2017-03-19T09:41:45Z</time>
      </trkpt>
      <trkpt lat="45.9287" lon="4.69346">
        <ele>307</ele>
        <time>2017-03-19T09:41:46Z</time>
      </trkpt>
      <trkpt lat="45.92865" lon="4.69336">
        <ele>307</ele>
        <time>2017-03-19T09:41:50Z</time>
      </trkpt>
      <trkpt lat="45.92864" lon="4.69333">
        <ele>313</ele>
        <time>2017-03-19T09:41:51Z</time>
      </trkpt>
      <trkpt lat="45.9286" lon="4.69326">
        <ele>312</ele>
        <time>2017-03-19T09:41:54Z</time>
      </trkpt>
      <trkpt lat="45.92858" lon="4.69324">
        <ele>312</ele>
        <time>2017-03-19T09:41:55Z</time>
      </trkpt>
      <trkpt lat="45.92852" lon="4.69317">
        <ele>312</ele>
        <time>2017-03-19T09:41:58Z</time>
      </trkpt>
      <trkpt lat="45.9285" lon="4.69314">
        <ele>312</ele>
        <time>2017-03-19T09:41:59Z</time>
      </trkpt>
      <trkpt lat="45.92845" lon="4.69308">
        <ele>312</ele>
        <time>2017-03-19T09:42:02Z</time>
      </trkpt>
      <trkpt lat="45.92843" lon="4.69306">
        <ele>313</ele>
        <time>2017-03-19T09:42:03Z</time>
      </trkpt>
      <trkpt lat="45.92836" lon="4.69298">
        <ele>313</ele>
        <time>2017-03-19T09:42:07Z</time>
      </trkpt>
      <trkpt lat="45.92835" lon="4.69295">
        <ele>314</ele>
        <time>2017-03-19T09:42:08Z</time>
      </trkpt>
      <trkpt lat="45.92829" lon="4.69286">
        <ele>312</ele>
        <time>2017-03-19T09:42:12Z</time>
      </trkpt>
      <trkpt lat="45.92828" lon="4.69284">
        <ele>312</ele>
        <time>2017-03-19T09:42:13Z</time>
      </trkpt>
      <trkpt lat="45.92822" lon="4.69275">
        <ele>313</ele>
        <time>2017-03-19T09:42:18Z</time>
      </trkpt>
      <trkpt lat="45.92821" lon="4.69272">
        <ele>313</ele>
        <time>2017-03-19T09:42:19Z</time>
      </trkpt>
      <trkpt lat="45.92816" lon="4.69263">
        <ele>314</ele>
        <time>2017-03-19T09:42:23Z</time>
      </trkpt>
      <trkpt lat="45.92815" lon="4.6926">
        <ele>314</ele>
        <time>2017-03-19T09:42:24Z</time>
      </trkpt>
      <trkpt lat="45.92813" lon="4.69248">
        <ele>318</ele>
        <time>2017-03-19T09:42:29Z</time>
      </trkpt>
      <trkpt lat="45.92813" lon="4.69245">
        <ele>318</ele>
        <time>2017-03-19T09:42:30Z</time>
      </trkpt>
      <trkpt lat="45.92812" lon="4.69235">
        <ele>318</ele>
        <time>2017-03-19T09:42:33Z</time>
      </trkpt>
      <trkpt lat="45.92812" lon="4.69232">
        <ele>318</ele>
        <time>2017-03-19T09:42:34Z</time>
      </trkpt>
      <trkpt lat="45.92814" lon="4.69222">
        <ele>319</ele>
        <time>2017-03-19T09:42:37Z</time>
      </trkpt>
      <trkpt lat="45.92815" lon="4.69219">
        <ele>319</ele>
        <time>2017-03-19T09:42:38Z</time>
      </trkpt>
      <trkpt lat="45.92815" lon="4.69206">
        <ele>319</ele>
        <time>2017-03-19T09:42:42Z</time>
      </trkpt>
      <trkpt lat="45.92815" lon="4.69203">
        <ele>319</ele>
        <time>2017-03-19T09:42:43Z</time>
      </trkpt>
      <trkpt lat="45.92813" lon="4.69191">
        <ele>319</ele>
        <time>2017-03-19T09:42:47Z</time>
      </trkpt>
      <trkpt lat="45.92813" lon="4.69188">
        <ele>319</ele>
        <time>2017-03-19T09:42:48Z</time>
      </trkpt>
      <trkpt lat="45.92815" lon="4.69176">
        <ele>320</ele>
        <time>2017-03-19T09:42:52Z</time>
      </trkpt>
      <trkpt lat="45.92815" lon="4.69173">
        <ele>320</ele>
        <time>2017-03-19T09:42:53Z</time>
      </trkpt>
      <trkpt lat="45.92818" lon="4.69161">
        <ele>321</ele>
        <time>2017-03-19T09:42:57Z</time>
      </trkpt>
      <trkpt lat="45.92818" lon="4.69158">
        <ele>321</ele>
        <time>2017-03-19T09:42:58Z</time>
      </trkpt>
      <trkpt lat="45.92818" lon="4.69146">
        <ele>321</ele>
        <time>2017-03-19T09:43:02Z</time>
      </trkpt>
      <trkpt lat="45.92817" lon="4.69143">
        <ele>321</ele>
        <time>2017-03-19T09:43:03Z</time>
      </trkpt>
      <trkpt lat="45.92817" lon="4.69133">
        <ele>322</ele>
        <time>2017-03-19T09:43:06Z</time>
      </trkpt>
      <trkpt lat="45.92817" lon="4.6913">
        <ele>322</ele>
        <time>2017-03-19T09:43:07Z</time>
      </trkpt>
      <trkpt lat="45.9282" lon="4.69118">
        <ele>322</ele>
        <time>2017-03-19T09:43:11Z</time>
      </trkpt>
      <trkpt lat="45.9282" lon="4.69115">
        <ele>322</ele>
        <time>2017-03-19T09:43:12Z</time>
      </trkpt>
      <trkpt lat="45.92822" lon="4.69106">
        <ele>322</ele>
        <time>2017-03-19T09:43:15Z</time>
      </trkpt>
      <trkpt lat="45.92823" lon="4.69103">
        <ele>322</ele>
        <time>2017-03-19T09:43:16Z</time>
      </trkpt>
      <trkpt lat="45.92825" lon="4.69091">
        <ele>322</ele>
        <time>2017-03-19T09:43:20Z</time>
      </trkpt>
      <trkpt lat="45.92826" lon="4.69088">
        <ele>323</ele>
        <time>2017-03-19T09:43:21Z</time>
      </trkpt>
      <trkpt lat="45.92825" lon="4.69078">
        <ele>324</ele>
        <time>2017-03-19T09:43:25Z</time>
      </trkpt>
      <trkpt lat="45.92824" lon="4.69075">
        <ele>324</ele>
        <time>2017-03-19T09:43:26Z</time>
      </trkpt>
      <trkpt lat="45.92821" lon="4.69063">
        <ele>324</ele>
        <time>2017-03-19T09:43:30Z</time>
      </trkpt>
      <trkpt lat="45.9282" lon="4.6906">
        <ele>324</ele>
        <time>2017-03-19T09:43:31Z</time>
      </trkpt>
      <trkpt lat="45.92815" lon="4.69049">
        <ele>325</ele>
        <time>2017-03-19T09:43:35Z</time>
      </trkpt>
      <trkpt lat="45.92813" lon="4.69047">
        <ele>325</ele>
        <time>2017-03-19T09:43:36Z</time>
      </trkpt>
      <trkpt lat="45.92807" lon="4.6904">
        <ele>325</ele>
        <time>2017-03-19T09:43:39Z</time>
      </trkpt>
      <trkpt lat="45.92805" lon="4.69038">
        <ele>325</ele>
        <time>2017-03-19T09:43:40Z</time>
      </trkpt>
      <trkpt lat="45.92797" lon="4.69032">
        <ele>326</ele>
        <time>2017-03-19T09:43:43Z</time>
      </trkpt>
      <trkpt lat="45.92795" lon="4.69031">
        <ele>326</ele>
        <time>2017-03-19T09:43:44Z</time>
      </trkpt>
      <trkpt lat="45.9279" lon="4.69026">
        <ele>326</ele>
        <time>2017-03-19T09:43:47Z</time>
      </trkpt>
      <trkpt lat="45.92788" lon="4.69024">
        <ele>326</ele>
        <time>2017-03-19T09:43:48Z</time>
      </trkpt>
      <trkpt lat="45.92781" lon="4.6902">
        <ele>326</ele>
        <time>2017-03-19T09:43:51Z</time>
      </trkpt>
      <trkpt lat="45.92779" lon="4.6902">
        <ele>326</ele>
        <time>2017-03-19T09:43:52Z</time>
      </trkpt>
      <trkpt lat="45.92771" lon="4.69019">
        <ele>326</ele>
        <time>2017-03-19T09:43:56Z</time>
      </trkpt>
      <trkpt lat="45.92769" lon="4.6902">
        <ele>326</ele>
        <time>2017-03-19T09:43:57Z</time>
      </trkpt>
      <trkpt lat="45.92761" lon="4.69017">
        <ele>327</ele>
        <time>2017-03-19T09:44:00Z</time>
      </trkpt>
      <trkpt lat="45.92758" lon="4.69015">
        <ele>327</ele>
        <time>2017-03-19T09:44:01Z</time>
      </trkpt>
      <trkpt lat="45.9275" lon="4.69012">
        <ele>328</ele>
        <time>2017-03-19T09:44:04Z</time>
      </trkpt>
      <trkpt lat="45.92748" lon="4.69011">
        <ele>329</ele>
        <time>2017-03-19T09:44:05Z</time>
      </trkpt>
      <trkpt lat="45.9274" lon="4.69007">
        <ele>329</ele>
        <time>2017-03-19T09:44:10Z</time>
      </trkpt>
      <trkpt lat="45.92738" lon="4.69007">
        <ele>329</ele>
        <time>2017-03-19T09:44:11Z</time>
      </trkpt>
      <trkpt lat="45.92732" lon="4.69005">
        <ele>329</ele>
        <time>2017-03-19T09:44:14Z</time>
      </trkpt>
      <trkpt lat="45.92729" lon="4.69004">
        <ele>329</ele>
        <time>2017-03-19T09:44:15Z</time>
      </trkpt>
      <trkpt lat="45.92721" lon="4.69001">
        <ele>329</ele>
        <time>2017-03-19T09:44:18Z</time>
      </trkpt>
      <trkpt lat="45.92719" lon="4.69">
        <ele>332</ele>
        <time>2017-03-19T09:44:19Z</time>
      </trkpt>
      <trkpt lat="45.92712" lon="4.68999">
        <ele>333</ele>
        <time>2017-03-19T09:44:22Z</time>
      </trkpt>
      <trkpt lat="45.9271" lon="4.68999">
        <ele>333</ele>
        <time>2017-03-19T09:44:23Z</time>
      </trkpt>
      <trkpt lat="45.92703" lon="4.69001">
        <ele>330</ele>
        <time>2017-03-19T09:44:26Z</time>
      </trkpt>
      <trkpt lat="45.92701" lon="4.69001">
        <ele>330</ele>
        <time>2017-03-19T09:44:27Z</time>
      </trkpt>
      <trkpt lat="45.92695" lon="4.69003">
        <ele>330</ele>
        <time>2017-03-19T09:44:29Z</time>
      </trkpt>
      <trkpt lat="45.92692" lon="4.69005">
        <ele>331</ele>
        <time>2017-03-19T09:44:30Z</time>
      </trkpt>
      <trkpt lat="45.92686" lon="4.69011">
        <ele>331</ele>
        <time>2017-03-19T09:44:33Z</time>
      </trkpt>
      <trkpt lat="45.92685" lon="4.69014">
        <ele>331</ele>
        <time>2017-03-19T09:44:34Z</time>
      </trkpt>
      <trkpt lat="45.9268" lon="4.69021">
        <ele>331</ele>
        <time>2017-03-19T09:44:37Z</time>
      </trkpt>
      <trkpt lat="45.92678" lon="4.69024">
        <ele>331</ele>
        <time>2017-03-19T09:44:38Z</time>
      </trkpt>
      <trkpt lat="45.92674" lon="4.69033">
        <ele>330</ele>
        <time>2017-03-19T09:44:41Z</time>
      </trkpt>
      <trkpt lat="45.92673" lon="4.69036">
        <ele>330</ele>
        <time>2017-03-19T09:44:42Z</time>
      </trkpt>
      <trkpt lat="45.92671" lon="4.69046">
        <ele>330</ele>
        <time>2017-03-19T09:44:45Z</time>
      </trkpt>
      <trkpt lat="45.9267" lon="4.69049">
        <ele>330</ele>
        <time>2017-03-19T09:44:46Z</time>
      </trkpt>
      <trkpt lat="45.92668" lon="4.69059">
        <ele>330</ele>
        <time>2017-03-19T09:44:49Z</time>
      </trkpt>
      <trkpt lat="45.92668" lon="4.69062">
        <ele>330</ele>
        <time>2017-03-19T09:44:50Z</time>
      </trkpt>
      <trkpt lat="45.92667" lon="4.69073">
        <ele>334</ele>
        <time>2017-03-19T09:44:53Z</time>
      </trkpt>
      <trkpt lat="45.92666" lon="4.69076">
        <ele>333</ele>
        <time>2017-03-19T09:44:54Z</time>
      </trkpt>
      <trkpt lat="45.92667" lon="4.69087">
        <ele>331</ele>
        <time>2017-03-19T09:44:57Z</time>
      </trkpt>
      <trkpt lat="45.92668" lon="4.69091">
        <ele>331</ele>
        <time>2017-03-19T09:44:58Z</time>
      </trkpt>
      <trkpt lat="45.92668" lon="4.69102">
        <ele>330</ele>
        <time>2017-03-19T09:45:01Z</time>
      </trkpt>
      <trkpt lat="45.92668" lon="4.69106">
        <ele>330</ele>
        <time>2017-03-19T09:45:02Z</time>
      </trkpt>
      <trkpt lat="45.9267" lon="4.69118">
        <ele>329</ele>
        <time>2017-03-19T09:45:05Z</time>
      </trkpt>
      <trkpt lat="45.92671" lon="4.69121">
        <ele>329</ele>
        <time>2017-03-19T09:45:06Z</time>
      </trkpt>
      <trkpt lat="45.9267" lon="4.69134">
        <ele>329</ele>
        <time>2017-03-19T09:45:10Z</time>
      </trkpt>
      <trkpt lat="45.9267" lon="4.69137">
        <ele>330</ele>
        <time>2017-03-19T09:45:11Z</time>
      </trkpt>
      <trkpt lat="45.92671" lon="4.69147">
        <ele>330</ele>
        <time>2017-03-19T09:45:14Z</time>
      </trkpt>
      <trkpt lat="45.92671" lon="4.6915">
        <ele>331</ele>
        <time>2017-03-19T09:45:15Z</time>
      </trkpt>
      <trkpt lat="45.92671" lon="4.6916">
        <ele>332</ele>
        <time>2017-03-19T09:45:18Z</time>
      </trkpt>
      <trkpt lat="45.9267" lon="4.69163">
        <ele>333</ele>
        <time>2017-03-19T09:45:19Z</time>
      </trkpt>
      <trkpt lat="45.92667" lon="4.69174">
        <ele>332</ele>
        <time>2017-03-19T09:45:23Z</time>
      </trkpt>
      <trkpt lat="45.92666" lon="4.69177">
        <ele>334</ele>
        <time>2017-03-19T09:45:24Z</time>
      </trkpt>
      <trkpt lat="45.9266" lon="4.69187">
        <ele>335</ele>
        <time>2017-03-19T09:45:28Z</time>
      </trkpt>
      <trkpt lat="45.92658" lon="4.69188">
        <ele>335</ele>
        <time>2017-03-19T09:45:29Z</time>
      </trkpt>
      <trkpt lat="45.9265" lon="4.6919">
        <ele>335</ele>
        <time>2017-03-19T09:45:34Z</time>
      </trkpt>
      <trkpt lat="45.92648" lon="4.69189">
        <ele>335</ele>
        <time>2017-03-19T09:45:35Z</time>
      </trkpt>
      <trkpt lat="45.92642" lon="4.69181">
        <ele>335</ele>
        <time>2017-03-19T09:45:40Z</time>
      </trkpt>
      <trkpt lat="45.9264" lon="4.69179">
        <ele>335</ele>
        <time>2017-03-19T09:45:41Z</time>
      </trkpt>
      <trkpt lat="45.92634" lon="4.69171">
        <ele>336</ele>
        <time>2017-03-19T09:45:46Z</time>
      </trkpt>
      <trkpt lat="45.92633" lon="4.6917">
        <ele>336</ele>
        <time>2017-03-19T09:45:47Z</time>
      </trkpt>
      <trkpt lat="45.92627" lon="4.69163">
        <ele>337</ele>
        <time>2017-03-19T09:45:51Z</time>
      </trkpt>
      <trkpt lat="45.92624" lon="4.69162">
        <ele>338</ele>
        <time>2017-03-19T09:45:52Z</time>
      </trkpt>
      <trkpt lat="45.92618" lon="4.69153">
        <ele>338</ele>
        <time>2017-03-19T09:45:57Z</time>
      </trkpt>
      <trkpt lat="45.92617" lon="4.69151">
        <ele>338</ele>
        <time>2017-03-19T09:45:58Z</time>
      </trkpt>
      <trkpt lat="45.92613" lon="4.69141">
        <ele>338</ele>
        <time>2017-03-19T09:46:03Z</time>
      </trkpt>
      <trkpt lat="45.92613" lon="4.69139">
        <ele>338</ele>
        <time>2017-03-19T09:46:04Z</time>
      </trkpt>
      <trkpt lat="45.92609" lon="4.69127">
        <ele>338</ele>
        <time>2017-03-19T09:46:09Z</time>
      </trkpt>
      <trkpt lat="45.92607" lon="4.69125">
        <ele>338</ele>
        <time>2017-03-19T09:46:10Z</time>
      </trkpt>
      <trkpt lat="45.92602" lon="4.69114">
        <ele>339</ele>
        <time>2017-03-19T09:46:14Z</time>
      </trkpt>
      <trkpt lat="45.92602" lon="4.69112">
        <ele>339</ele>
        <time>2017-03-19T09:46:15Z</time>
      </trkpt>
      <trkpt lat="45.92598" lon="4.69102">
        <ele>340</ele>
        <time>2017-03-19T09:46:19Z</time>
      </trkpt>
      <trkpt lat="45.92597" lon="4.69099">
        <ele>340</ele>
        <time>2017-03-19T09:46:20Z</time>
      </trkpt>
      <trkpt lat="45.92594" lon="4.69088">
        <ele>341</ele>
        <time>2017-03-19T09:46:24Z</time>
      </trkpt>
      <trkpt lat="45.92593" lon="4.69086">
        <ele>341</ele>
        <time>2017-03-19T09:46:25Z</time>
      </trkpt>
      <trkpt lat="45.92588" lon="4.69077">
        <ele>342</ele>
        <time>2017-03-19T09:46:29Z</time>
      </trkpt>
      <trkpt lat="45.92587" lon="4.69075">
        <ele>341</ele>
        <time>2017-03-19T09:46:30Z</time>
      </trkpt>
      <trkpt lat="45.92582" lon="4.69064">
        <ele>345</ele>
        <time>2017-03-19T09:46:35Z</time>
      </trkpt>
      <trkpt lat="45.92581" lon="4.69062">
        <ele>345</ele>
        <time>2017-03-19T09:46:36Z</time>
      </trkpt>
      <trkpt lat="45.92577" lon="4.69053">
        <ele>345</ele>
        <time>2017-03-19T09:46:40Z</time>
      </trkpt>
      <trkpt lat="45.92575" lon="4.69051">
        <ele>345</ele>
        <time>2017-03-19T09:46:41Z</time>
      </trkpt>
      <trkpt lat="45.92571" lon="4.69043">
        <ele>345</ele>
        <time>2017-03-19T09:46:45Z</time>
      </trkpt>
      <trkpt lat="45.92569" lon="4.69041">
        <ele>345</ele>
        <time>2017-03-19T09:46:46Z</time>
      </trkpt>
      <trkpt lat="45.92565" lon="4.69032">
        <ele>346</ele>
        <time>2017-03-19T09:46:50Z</time>
      </trkpt>
      <trkpt lat="45.92564" lon="4.6903">
        <ele>346</ele>
        <time>2017-03-19T09:46:51Z</time>
      </trkpt>
      <trkpt lat="45.92558" lon="4.69023">
        <ele>346</ele>
        <time>2017-03-19T09:46:55Z</time>
      </trkpt>
      <trkpt lat="45.92557" lon="4.69021">
        <ele>346</ele>
        <time>2017-03-19T09:46:56Z</time>
      </trkpt>
      <trkpt lat="45.92552" lon="4.69013">
        <ele>346</ele>
        <time>2017-03-19T09:47:00Z</time>
      </trkpt>
      <trkpt lat="45.92551" lon="4.6901">
        <ele>346</ele>
        <time>2017-03-19T09:47:01Z</time>
      </trkpt>
      <trkpt lat="45.92547" lon="4.69001">
        <ele>347</ele>
        <time>2017-03-19T09:47:05Z</time>
      </trkpt>
      <trkpt lat="45.92545" lon="4.68999">
        <ele>349</ele>
        <time>2017-03-19T09:47:06Z</time>
      </trkpt>
      <trkpt lat="45.92542" lon="4.68989">
        <ele>349</ele>
        <time>2017-03-19T09:47:11Z</time>
      </trkpt>
      <trkpt lat="45.92541" lon="4.68987">
        <ele>349</ele>
        <time>2017-03-19T09:47:12Z</time>
      </trkpt>
      <trkpt lat="45.92535" lon="4.68979">
        <ele>350</ele>
        <time>2017-03-19T09:47:17Z</time>
      </trkpt>
      <trkpt lat="45.92535" lon="4.68977">
        <ele>350</ele>
        <time>2017-03-19T09:47:18Z</time>
      </trkpt>
      <trkpt lat="45.92536" lon="4.68965">
        <ele>350</ele>
        <time>2017-03-19T09:47:23Z</time>
      </trkpt>
      <trkpt lat="45.92537" lon="4.68962">
        <ele>350</ele>
        <time>2017-03-19T09:47:24Z</time>
      </trkpt>
      <trkpt lat="45.92539" lon="4.68951">
        <ele>350</ele>
        <time>2017-03-19T09:47:29Z</time>
      </trkpt>
      <trkpt lat="45.9254" lon="4.68949">
        <ele>350</ele>
        <time>2017-03-19T09:47:30Z</time>
      </trkpt>
      <trkpt lat="45.92543" lon="4.68939">
        <ele>350</ele>
        <time>2017-03-19T09:47:35Z</time>
      </trkpt>
      <trkpt lat="45.92545" lon="4.68936">
        <ele>350</ele>
        <time>2017-03-19T09:47:36Z</time>
      </trkpt>
      <trkpt lat="45.92547" lon="4.68926">
        <ele>350</ele>
        <time>2017-03-19T09:47:41Z</time>
      </trkpt>
      <trkpt lat="45.92547" lon="4.68924">
        <ele>350</ele>
        <time>2017-03-19T09:47:42Z</time>
      </trkpt>
      <trkpt lat="45.9255" lon="4.68912">
        <ele>353</ele>
        <time>2017-03-19T09:47:47Z</time>
      </trkpt>
      <trkpt lat="45.92551" lon="4.6891">
        <ele>353</ele>
        <time>2017-03-19T09:47:48Z</time>
      </trkpt>
      <trkpt lat="45.92554" lon="4.68899">
        <ele>353</ele>
        <time>2017-03-19T09:47:53Z</time>
      </trkpt>
      <trkpt lat="45.92555" lon="4.68897">
        <ele>354</ele>
        <time>2017-03-19T09:47:54Z</time>
      </trkpt>
      <trkpt lat="45.92557" lon="4.68886">
        <ele>354</ele>
        <time>2017-03-19T09:47:59Z</time>
      </trkpt>
      <trkpt lat="45.92557" lon="4.68883">
        <ele>354</ele>
        <time>2017-03-19T09:48:00Z</time>
      </trkpt>
      <trkpt lat="45.9256" lon="4.68872">
        <ele>355</ele>
        <time>2017-03-19T09:48:05Z</time>
      </trkpt>
      <trkpt lat="45.92561" lon="4.6887">
        <ele>355</ele>
        <time>2017-03-19T09:48:06Z</time>
      </trkpt>
      <trkpt lat="45.92563" lon="4.68859">
        <ele>355</ele>
        <time>2017-03-19T09:48:10Z</time>
      </trkpt>
      <trkpt lat="45.92564" lon="4.68857">
        <ele>355</ele>
        <time>2017-03-19T09:48:11Z</time>
      </trkpt>
      <trkpt lat="45.92568" lon="4.68845">
        <ele>355</ele>
        <time>2017-03-19T09:48:16Z</time>
      </trkpt>
      <trkpt lat="45.92568" lon="4.68843">
        <ele>355</ele>
        <time>2017-03-19T09:48:17Z</time>
      </trkpt>
      <trkpt lat="45.92571" lon="4.68832">
        <ele>359</ele>
        <time>2017-03-19T09:48:22Z</time>
      </trkpt>
      <trkpt lat="45.92571" lon="4.6883">
        <ele>359</ele>
        <time>2017-03-19T09:48:23Z</time>
      </trkpt>
      <trkpt lat="45.92574" lon="4.68818">
        <ele>360</ele>
        <time>2017-03-19T09:48:28Z</time>
      </trkpt>
      <trkpt lat="45.92574" lon="4.68816">
        <ele>360</ele>
        <time>2017-03-19T09:48:29Z</time>
      </trkpt>
      <trkpt lat="45.92576" lon="4.68806">
        <ele>361</ele>
        <time>2017-03-19T09:48:34Z</time>
      </trkpt>
      <trkpt lat="45.92576" lon="4.68804">
        <ele>361</ele>
        <time>2017-03-19T09:48:35Z</time>
      </trkpt>
      <trkpt lat="45.92578" lon="4.68791">
        <ele>362</ele>
        <time>2017-03-19T09:48:40Z</time>
      </trkpt>
      <trkpt lat="45.92578" lon="4.68789">
        <ele>363</ele>
        <time>2017-03-19T09:48:41Z</time>
      </trkpt>
      <trkpt lat="45.92581" lon="4.68779">
        <ele>363</ele>
        <time>2017-03-19T09:48:46Z</time>
      </trkpt>
      <trkpt lat="45.92581" lon="4.68777">
        <ele>363</ele>
        <time>2017-03-19T09:48:47Z</time>
      </trkpt>
      <trkpt lat="45.92582" lon="4.68765">
        <ele>364</ele>
        <time>2017-03-19T09:48:52Z</time>
      </trkpt>
      <trkpt lat="45.92582" lon="4.68763">
        <ele>364</ele>
        <time>2017-03-19T09:48:53Z</time>
      </trkpt>
      <trkpt lat="45.92583" lon="4.68752">
        <ele>364</ele>
        <time>2017-03-19T09:48:58Z</time>
      </trkpt>
      <trkpt lat="45.92585" lon="4.6875">
        <ele>363</ele>
        <time>2017-03-19T09:48:59Z</time>
      </trkpt>
      <trkpt lat="45.92589" lon="4.6874">
        <ele>364</ele>
        <time>2017-03-19T09:49:04Z</time>
      </trkpt>
      <trkpt lat="45.9259" lon="4.68738">
        <ele>364</ele>
        <time>2017-03-19T09:49:05Z</time>
      </trkpt>
      <trkpt lat="45.92593" lon="4.68728">
        <ele>365</ele>
        <time>2017-03-19T09:49:09Z</time>
      </trkpt>
      <trkpt lat="45.92593" lon="4.68725">
        <ele>365</ele>
        <time>2017-03-19T09:49:10Z</time>
      </trkpt>
      <trkpt lat="45.92596" lon="4.68713">
        <ele>365</ele>
        <time>2017-03-19T09:49:15Z</time>
      </trkpt>
      <trkpt lat="45.92596" lon="4.68711">
        <ele>366</ele>
        <time>2017-03-19T09:49:16Z</time>
      </trkpt>
      <trkpt lat="45.92598" lon="4.68699">
        <ele>366</ele>
        <time>2017-03-19T09:49:21Z</time>
      </trkpt>
      <trkpt lat="45.92599" lon="4.68698">
        <ele>366</ele>
        <time>2017-03-19T09:49:22Z</time>
      </trkpt>
      <trkpt lat="45.92603" lon="4.68694">
        <ele>367</ele>
        <time>2017-03-19T09:50:43Z</time>
      </trkpt>
      <trkpt lat="45.92606" lon="4.68682">
        <ele>367</ele>
        <time>2017-03-19T09:50:44Z</time>
      </trkpt>
      <trkpt lat="45.92605" lon="4.68669">
        <ele>368</ele>
        <time>2017-03-19T09:52:18Z</time>
      </trkpt>
      <trkpt lat="45.92606" lon="4.68665">
        <ele>370</ele>
        <time>2017-03-19T09:52:19Z</time>
      </trkpt>
      <trkpt lat="45.92608" lon="4.68655">
        <ele>370</ele>
        <time>2017-03-19T09:52:22Z</time>
      </trkpt>
      <trkpt lat="45.92609" lon="4.68652">
        <ele>369</ele>
        <time>2017-03-19T09:52:23Z</time>
      </trkpt>
      <trkpt lat="45.92611" lon="4.68642">
        <ele>369</ele>
        <time>2017-03-19T09:52:27Z</time>
      </trkpt>
      <trkpt lat="45.92611" lon="4.68639">
        <ele>369</ele>
        <time>2017-03-19T09:52:28Z</time>
      </trkpt>
      <trkpt lat="45.92611" lon="4.68628">
        <ele>369</ele>
        <time>2017-03-19T09:52:32Z</time>
      </trkpt>
      <trkpt lat="45.92611" lon="4.68625">
        <ele>369</ele>
        <time>2017-03-19T09:52:33Z</time>
      </trkpt>
      <trkpt lat="45.92608" lon="4.68613">
        <ele>369</ele>
        <time>2017-03-19T09:52:37Z</time>
      </trkpt>
      <trkpt lat="45.92608" lon="4.68609">
        <ele>369</ele>
        <time>2017-03-19T09:52:38Z</time>
      </trkpt>
      <trkpt lat="45.92607" lon="4.68596">
        <ele>369</ele>
        <time>2017-03-19T09:52:41Z</time>
      </trkpt>
      <trkpt lat="45.92607" lon="4.68594">
        <ele>369</ele>
        <time>2017-03-19T09:52:42Z</time>
      </trkpt>
      <trkpt lat="45.92606" lon="4.68583">
        <ele>368</ele>
        <time>2017-03-19T09:53:03Z</time>
      </trkpt>
      <trkpt lat="45.92605" lon="4.68581">
        <ele>368</ele>
        <time>2017-03-19T09:53:04Z</time>
      </trkpt>
      <trkpt lat="45.92603" lon="4.6857">
        <ele>368</ele>
        <time>2017-03-19T09:53:07Z</time>
      </trkpt>
      <trkpt lat="45.92603" lon="4.68566">
        <ele>368</ele>
        <time>2017-03-19T09:53:08Z</time>
      </trkpt>
      <trkpt lat="45.92601" lon="4.68557">
        <ele>367</ele>
        <time>2017-03-19T09:53:10Z</time>
      </trkpt>
      <trkpt lat="45.92601" lon="4.68551">
        <ele>367</ele>
        <time>2017-03-19T09:53:11Z</time>
      </trkpt>
      <trkpt lat="45.92599" lon="4.68539">
        <ele>367</ele>
        <time>2017-03-19T09:53:13Z</time>
      </trkpt>
      <trkpt lat="45.92597" lon="4.68533">
        <ele>366</ele>
        <time>2017-03-19T09:53:14Z</time>
      </trkpt>
      <trkpt lat="45.92596" lon="4.68525">
        <ele>366</ele>
        <time>2017-03-19T09:53:15Z</time>
      </trkpt>
      <trkpt lat="45.92596" lon="4.68517">
        <ele>366</ele>
        <time>2017-03-19T09:53:16Z</time>
      </trkpt>
      <trkpt lat="45.92594" lon="4.68508">
        <ele>366</ele>
        <time>2017-03-19T09:53:17Z</time>
      </trkpt>
      <trkpt lat="45.92592" lon="4.68499">
        <ele>364</ele>
        <time>2017-03-19T09:53:18Z</time>
      </trkpt>
      <trkpt lat="45.92591" lon="4.6849">
        <ele>364</ele>
        <time>2017-03-19T09:53:19Z</time>
      </trkpt>
      <trkpt lat="45.9259" lon="4.68479">
        <ele>363</ele>
        <time>2017-03-19T09:53:20Z</time>
      </trkpt>
      <trkpt lat="45.9259" lon="4.68468">
        <ele>363</ele>
        <time>2017-03-19T09:53:21Z</time>
      </trkpt>
      <trkpt lat="45.92591" lon="4.68457">
        <ele>362</ele>
        <time>2017-03-19T09:53:22Z</time>
      </trkpt>
      <trkpt lat="45.92591" lon="4.68445">
        <ele>362</ele>
        <time>2017-03-19T09:53:23Z</time>
      </trkpt>
      <trkpt lat="45.92591" lon="4.68433">
        <ele>361</ele>
        <time>2017-03-19T09:53:24Z</time>
      </trkpt>
      <trkpt lat="45.92591" lon="4.68421">
        <ele>360</ele>
        <time>2017-03-19T09:53:25Z</time>
      </trkpt>
      <trkpt lat="45.92591" lon="4.68409">
        <ele>358</ele>
        <time>2017-03-19T09:53:26Z</time>
      </trkpt>
      <trkpt lat="45.92591" lon="4.68397">
        <ele>358</ele>
        <time>2017-03-19T09:53:27Z</time>
      </trkpt>
      <trkpt lat="45.92591" lon="4.68385">
        <ele>357</ele>
        <time>2017-03-19T09:53:28Z</time>
      </trkpt>
      <trkpt lat="45.9259" lon="4.68372">
        <ele>357</ele>
        <time>2017-03-19T09:53:29Z</time>
      </trkpt>
      <trkpt lat="45.9259" lon="4.68359">
        <ele>356</ele>
        <time>2017-03-19T09:53:30Z</time>
      </trkpt>
      <trkpt lat="45.9259" lon="4.68345">
        <ele>355</ele>
        <time>2017-03-19T09:53:31Z</time>
      </trkpt>
      <trkpt lat="45.92591" lon="4.68331">
        <ele>352</ele>
        <time>2017-03-19T09:53:32Z</time>
      </trkpt>
      <trkpt lat="45.92591" lon="4.68317">
        <ele>351</ele>
        <time>2017-03-19T09:53:33Z</time>
      </trkpt>
      <trkpt lat="45.92591" lon="4.68303">
        <ele>350</ele>
        <time>2017-03-19T09:53:34Z</time>
      </trkpt>
      <trkpt lat="45.92591" lon="4.68289">
        <ele>349</ele>
        <time>2017-03-19T09:53:35Z</time>
      </trkpt>
      <trkpt lat="45.92591" lon="4.68275">
        <ele>348</ele>
        <time>2017-03-19T09:53:36Z</time>
      </trkpt>
      <trkpt lat="45.92591" lon="4.68261">
        <ele>347</ele>
        <time>2017-03-19T09:53:37Z</time>
      </trkpt>
      <trkpt lat="45.92591" lon="4.68246">
        <ele>344</ele>
        <time>2017-03-19T09:53:38Z</time>
      </trkpt>
      <trkpt lat="45.92591" lon="4.68231">
        <ele>342</ele>
        <time>2017-03-19T09:53:39Z</time>
      </trkpt>
      <trkpt lat="45.92591" lon="4.68216">
        <ele>341</ele>
        <time>2017-03-19T09:53:40Z</time>
      </trkpt>
      <trkpt lat="45.92591" lon="4.68201">
        <ele>340</ele>
        <time>2017-03-19T09:53:41Z</time>
      </trkpt>
      <trkpt lat="45.92591" lon="4.68185">
        <ele>339</ele>
        <time>2017-03-19T09:53:42Z</time>
      </trkpt>
      <trkpt lat="45.92592" lon="4.68169">
        <ele>339</ele>
        <time>2017-03-19T09:53:43Z</time>
      </trkpt>
      <trkpt lat="45.92592" lon="4.68153">
        <ele>335</ele>
        <time>2017-03-19T09:53:44Z</time>
      </trkpt>
      <trkpt lat="45.92592" lon="4.68137">
        <ele>334</ele>
        <time>2017-03-19T09:53:45Z</time>
      </trkpt>
      <trkpt lat="45.92593" lon="4.68122">
        <ele>333</ele>
        <time>2017-03-19T09:53:46Z</time>
      </trkpt>
      <trkpt lat="45.92593" lon="4.68105">
        <ele>332</ele>
        <time>2017-03-19T09:53:47Z</time>
      </trkpt>
      <trkpt lat="45.92594" lon="4.6809">
        <ele>333</ele>
        <time>2017-03-19T09:53:48Z</time>
      </trkpt>
      <trkpt lat="45.92593" lon="4.68074">
        <ele>330</ele>
        <time>2017-03-19T09:53:49Z</time>
      </trkpt>
      <trkpt lat="45.92592" lon="4.68058">
        <ele>329</ele>
        <time>2017-03-19T09:53:50Z</time>
      </trkpt>
      <trkpt lat="45.9259" lon="4.68042">
        <ele>328</ele>
        <time>2017-03-19T09:53:51Z</time>
      </trkpt>
      <trkpt lat="45.92588" lon="4.68027">
        <ele>328</ele>
        <time>2017-03-19T09:53:52Z</time>
      </trkpt>
      <trkpt lat="45.92586" lon="4.68011">
        <ele>329</ele>
        <time>2017-03-19T09:53:53Z</time>
      </trkpt>
      <trkpt lat="45.92583" lon="4.67996">
        <ele>331</ele>
        <time>2017-03-19T09:53:54Z</time>
      </trkpt>
      <trkpt lat="45.92581" lon="4.67982">
        <ele>331</ele>
        <time>2017-03-19T09:53:55Z</time>
      </trkpt>
      <trkpt lat="45.92578" lon="4.67968">
        <ele>330</ele>
        <time>2017-03-19T09:53:56Z</time>
      </trkpt>
      <trkpt lat="45.92575" lon="4.67955">
        <ele>330</ele>
        <time>2017-03-19T09:53:57Z</time>
      </trkpt>
      <trkpt lat="45.92573" lon="4.67943">
        <ele>329</ele>
        <time>2017-03-19T09:53:58Z</time>
      </trkpt>
      <trkpt lat="45.92572" lon="4.67931">
        <ele>329</ele>
        <time>2017-03-19T09:53:59Z</time>
      </trkpt>
      <trkpt lat="45.92571" lon="4.67919">
        <ele>328</ele>
        <time>2017-03-19T09:54:00Z</time>
      </trkpt>
      <trkpt lat="45.9257" lon="4.67908">
        <ele>326</ele>
        <time>2017-03-19T09:54:01Z</time>
      </trkpt>
      <trkpt lat="45.92569" lon="4.67896">
        <ele>325</ele>
        <time>2017-03-19T09:54:02Z</time>
      </trkpt>
      <trkpt lat="45.92569" lon="4.67884">
        <ele>325</ele>
        <time>2017-03-19T09:54:03Z</time>
      </trkpt>
      <trkpt lat="45.9257" lon="4.67872">
        <ele>324</ele>
        <time>2017-03-19T09:54:04Z</time>
      </trkpt>
      <trkpt lat="45.92571" lon="4.67859">
        <ele>323</ele>
        <time>2017-03-19T09:54:05Z</time>
      </trkpt>
      <trkpt lat="45.92572" lon="4.67846">
        <ele>323</ele>
        <time>2017-03-19T09:54:06Z</time>
      </trkpt>
      <trkpt lat="45.92573" lon="4.67833">
        <ele>319</ele>
        <time>2017-03-19T09:54:07Z</time>
      </trkpt>
      <trkpt lat="45.92573" lon="4.6782">
        <ele>318</ele>
        <time>2017-03-19T09:54:08Z</time>
      </trkpt>
      <trkpt lat="45.92574" lon="4.67807">
        <ele>317</ele>
        <time>2017-03-19T09:54:09Z</time>
      </trkpt>
      <trkpt lat="45.92577" lon="4.67794">
        <ele>316</ele>
        <time>2017-03-19T09:54:10Z</time>
      </trkpt>
      <trkpt lat="45.92581" lon="4.67782">
        <ele>315</ele>
        <time>2017-03-19T09:54:11Z</time>
      </trkpt>
      <trkpt lat="45.92586" lon="4.6777">
        <ele>313</ele>
        <time>2017-03-19T09:54:12Z</time>
      </trkpt>
      <trkpt lat="45.92592" lon="4.67757">
        <ele>312</ele>
        <time>2017-03-19T09:54:13Z</time>
      </trkpt>
      <trkpt lat="45.92598" lon="4.67745">
        <ele>308</ele>
        <time>2017-03-19T09:54:14Z</time>
      </trkpt>
      <trkpt lat="45.92604" lon="4.67732">
        <ele>307</ele>
        <time>2017-03-19T09:54:15Z</time>
      </trkpt>
      <trkpt lat="45.9261" lon="4.67719">
        <ele>306</ele>
        <time>2017-03-19T09:54:16Z</time>
      </trkpt>
      <trkpt lat="45.92615" lon="4.67705">
        <ele>305</ele>
        <time>2017-03-19T09:54:17Z</time>
      </trkpt>
      <trkpt lat="45.92619" lon="4.6769">
        <ele>304</ele>
        <time>2017-03-19T09:54:18Z</time>
      </trkpt>
      <trkpt lat="45.92621" lon="4.67674">
        <ele>304</ele>
        <time>2017-03-19T09:54:19Z</time>
      </trkpt>
      <trkpt lat="45.92621" lon="4.67658">
        <ele>300</ele>
        <time>2017-03-19T09:54:20Z</time>
      </trkpt>
      <trkpt lat="45.92621" lon="4.67641">
        <ele>299</ele>
        <time>2017-03-19T09:54:21Z</time>
      </trkpt>
      <trkpt lat="45.92619" lon="4.67624">
        <ele>299</ele>
        <time>2017-03-19T09:54:22Z</time>
      </trkpt>
      <trkpt lat="45.92617" lon="4.67607">
        <ele>298</ele>
        <time>2017-03-19T09:54:23Z</time>
      </trkpt>
      <trkpt lat="45.92615" lon="4.6759">
        <ele>298</ele>
        <time>2017-03-19T09:54:24Z</time>
      </trkpt>
      <trkpt lat="45.92612" lon="4.67573">
        <ele>296</ele>
        <time>2017-03-19T09:54:25Z</time>
      </trkpt>
      <trkpt lat="45.9261" lon="4.67557">
        <ele>296</ele>
        <time>2017-03-19T09:54:26Z</time>
      </trkpt>
      <trkpt lat="45.92607" lon="4.6754">
        <ele>296</ele>
        <time>2017-03-19T09:54:27Z</time>
      </trkpt>
      <trkpt lat="45.92604" lon="4.67525">
        <ele>296</ele>
        <time>2017-03-19T09:54:28Z</time>
      </trkpt>
      <trkpt lat="45.92602" lon="4.6751">
        <ele>296</ele>
        <time>2017-03-19T09:54:29Z</time>
      </trkpt>
      <trkpt lat="45.92599" lon="4.67495">
        <ele>297</ele>
        <time>2017-03-19T09:54:30Z</time>
      </trkpt>
      <trkpt lat="45.92596" lon="4.67481">
        <ele>297</ele>
        <time>2017-03-19T09:54:31Z</time>
      </trkpt>
      <trkpt lat="45.92593" lon="4.67468">
        <ele>297</ele>
        <time>2017-03-19T09:54:32Z</time>
      </trkpt>
      <trkpt lat="45.9259" lon="4.67455">
        <ele>298</ele>
        <time>2017-03-19T09:54:33Z</time>
      </trkpt>
      <trkpt lat="45.92587" lon="4.67443">
        <ele>298</ele>
        <time>2017-03-19T09:54:34Z</time>
      </trkpt>
      <trkpt lat="45.92584" lon="4.67432">
        <ele>299</ele>
        <time>2017-03-19T09:54:35Z</time>
      </trkpt>
      <trkpt lat="45.92581" lon="4.67422">
        <ele>300</ele>
        <time>2017-03-19T09:54:36Z</time>
      </trkpt>
      <trkpt lat="45.92578" lon="4.67414">
        <ele>301</ele>
        <time>2017-03-19T09:54:37Z</time>
      </trkpt>
      <trkpt lat="45.92575" lon="4.67407">
        <ele>301</ele>
        <time>2017-03-19T09:54:38Z</time>
      </trkpt>
      <trkpt lat="45.92573" lon="4.67401">
        <ele>301</ele>
        <time>2017-03-19T09:54:39Z</time>
      </trkpt>
      <trkpt lat="45.9257" lon="4.67391">
        <ele>302</ele>
        <time>2017-03-19T09:54:41Z</time>
      </trkpt>
      <trkpt lat="45.92569" lon="4.67387">
        <ele>302</ele>
        <time>2017-03-19T09:54:42Z</time>
      </trkpt>
      <trkpt lat="45.92565" lon="4.67376">
        <ele>302</ele>
        <time>2017-03-19T09:54:46Z</time>
      </trkpt>
      <trkpt lat="45.92564" lon="4.67373">
        <ele>303</ele>
        <time>2017-03-19T09:54:47Z</time>
      </trkpt>
      <trkpt lat="45.9256" lon="4.67364">
        <ele>303</ele>
        <time>2017-03-19T09:54:51Z</time>
      </trkpt>
      <trkpt lat="45.92559" lon="4.67361">
        <ele>303</ele>
        <time>2017-03-19T09:54:52Z</time>
      </trkpt>
      <trkpt lat="45.92555" lon="4.6735">
        <ele>303</ele>
        <time>2017-03-19T09:54:56Z</time>
      </trkpt>
      <trkpt lat="45.92555" lon="4.67347">
        <ele>303</ele>
        <time>2017-03-19T09:54:57Z</time>
      </trkpt>
      <trkpt lat="45.92552" lon="4.67336">
        <ele>304</ele>
        <time>2017-03-19T09:55:01Z</time>
      </trkpt>
      <trkpt lat="45.92551" lon="4.67333">
        <ele>306</ele>
        <time>2017-03-19T09:55:02Z</time>
      </trkpt>
      <trkpt lat="45.92549" lon="4.67322">
        <ele>307</ele>
        <time>2017-03-19T09:55:06Z</time>
      </trkpt>
      <trkpt lat="45.92548" lon="4.67319">
        <ele>307</ele>
        <time>2017-03-19T09:55:07Z</time>
      </trkpt>
      <trkpt lat="45.92546" lon="4.67308">
        <ele>307</ele>
        <time>2017-03-19T09:55:11Z</time>
      </trkpt>
      <trkpt lat="45.92545" lon="4.67305">
        <ele>307</ele>
        <time>2017-03-19T09:55:12Z</time>
      </trkpt>
      <trkpt lat="45.92545" lon="4.67293">
        <ele>307</ele>
        <time>2017-03-19T09:55:17Z</time>
      </trkpt>
      <trkpt lat="45.92545" lon="4.6729">
        <ele>307</ele>
        <time>2017-03-19T09:55:18Z</time>
      </trkpt>
      <trkpt lat="45.92545" lon="4.67279">
        <ele>308</ele>
        <time>2017-03-19T09:55:22Z</time>
      </trkpt>
      <trkpt lat="45.92545" lon="4.67276">
        <ele>308</ele>
        <time>2017-03-19T09:55:23Z</time>
      </trkpt>
      <trkpt lat="45.92545" lon="4.67264">
        <ele>308</ele>
        <time>2017-03-19T09:55:27Z</time>
      </trkpt>
      <trkpt lat="45.92546" lon="4.67261">
        <ele>308</ele>
        <time>2017-03-19T09:55:28Z</time>
      </trkpt>
      <trkpt lat="45.92548" lon="4.6725">
        <ele>312</ele>
        <time>2017-03-19T09:55:32Z</time>
      </trkpt>
      <trkpt lat="45.92549" lon="4.67247">
        <ele>312</ele>
        <time>2017-03-19T09:55:33Z</time>
      </trkpt>
      <trkpt lat="45.92551" lon="4.67237">
        <ele>312</ele>
        <time>2017-03-19T09:55:37Z</time>
      </trkpt>
      <trkpt lat="45.92551" lon="4.67234">
        <ele>312</ele>
        <time>2017-03-19T09:55:38Z</time>
      </trkpt>
      <trkpt lat="45.92554" lon="4.67222">
        <ele>313</ele>
        <time>2017-03-19T09:55:42Z</time>
      </trkpt>
      <trkpt lat="45.92554" lon="4.67219">
        <ele>313</ele>
        <time>2017-03-19T09:55:43Z</time>
      </trkpt>
      <trkpt lat="45.92557" lon="4.67207">
        <ele>313</ele>
        <time>2017-03-19T09:55:47Z</time>
      </trkpt>
      <trkpt lat="45.92558" lon="4.67204">
        <ele>313</ele>
        <time>2017-03-19T09:55:48Z</time>
      </trkpt>
      <trkpt lat="45.9256" lon="4.67193">
        <ele>314</ele>
        <time>2017-03-19T09:55:52Z</time>
      </trkpt>
      <trkpt lat="45.92561" lon="4.67191">
        <ele>314</ele>
        <time>2017-03-19T09:55:53Z</time>
      </trkpt>
      <trkpt lat="45.92565" lon="4.67182">
        <ele>315</ele>
        <time>2017-03-19T09:55:57Z</time>
      </trkpt>
      <trkpt lat="45.92566" lon="4.67179">
        <ele>315</ele>
        <time>2017-03-19T09:55:58Z</time>
      </trkpt>
      <trkpt lat="45.92569" lon="4.67169">
        <ele>315</ele>
        <time>2017-03-19T09:56:02Z</time>
      </trkpt>
      <trkpt lat="45.9257" lon="4.67167">
        <ele>319</ele>
        <time>2017-03-19T09:56:03Z</time>
      </trkpt>
      <trkpt lat="45.92574" lon="4.67155">
        <ele>320</ele>
        <time>2017-03-19T09:56:08Z</time>
      </trkpt>
      <trkpt lat="45.92575" lon="4.67153">
        <ele>320</ele>
        <time>2017-03-19T09:56:09Z</time>
      </trkpt>
      <trkpt lat="45.92578" lon="4.67143">
        <ele>321</ele>
        <time>2017-03-19T09:56:13Z</time>
      </trkpt>
      <trkpt lat="45.92579" lon="4.67141">
        <ele>322</ele>
        <time>2017-03-19T09:56:14Z</time>
      </trkpt>
      <trkpt lat="45.92583" lon="4.67129">
        <ele>323</ele>
        <time>2017-03-19T09:56:19Z</time>
      </trkpt>
      <trkpt lat="45.92584" lon="4.67127">
        <ele>323</ele>
        <time>2017-03-19T09:56:20Z</time>
      </trkpt>
      <trkpt lat="45.92588" lon="4.67117">
        <ele>324</ele>
        <time>2017-03-19T09:56:25Z</time>
      </trkpt>
      <trkpt lat="45.92588" lon="4.67115">
        <ele>324</ele>
        <time>2017-03-19T09:56:26Z</time>
      </trkpt>
      <trkpt lat="45.92591" lon="4.67104">
        <ele>325</ele>
        <time>2017-03-19T09:56:31Z</time>
      </trkpt>
      <trkpt lat="45.92591" lon="4.67102">
        <ele>326</ele>
        <time>2017-03-19T09:56:32Z</time>
      </trkpt>
      <trkpt lat="45.92593" lon="4.67092">
        <ele>327</ele>
        <time>2017-03-19T09:56:37Z</time>
      </trkpt>
      <trkpt lat="45.92594" lon="4.67089">
        <ele>327</ele>
        <time>2017-03-19T09:56:38Z</time>
      </trkpt>
      <trkpt lat="45.92597" lon="4.6708">
        <ele>331</ele>
        <time>2017-03-19T09:56:42Z</time>
      </trkpt>
      <trkpt lat="45.92597" lon="4.67077">
        <ele>331</ele>
        <time>2017-03-19T09:56:43Z</time>
      </trkpt>
      <trkpt lat="45.926" lon="4.67065">
        <ele>331</ele>
        <time>2017-03-19T09:56:48Z</time>
      </trkpt>
      <trkpt lat="45.926" lon="4.67063">
        <ele>331</ele>
        <time>2017-03-19T09:56:49Z</time>
      </trkpt>
      <trkpt lat="45.926" lon="4.67053">
        <ele>331</ele>
        <time>2017-03-19T09:56:54Z</time>
      </trkpt>
      <trkpt lat="45.92601" lon="4.6705">
        <ele>332</ele>
        <time>2017-03-19T09:56:55Z</time>
      </trkpt>
      <trkpt lat="45.92603" lon="4.67039">
        <ele>332</ele>
        <time>2017-03-19T09:56:59Z</time>
      </trkpt>
      <trkpt lat="45.92603" lon="4.67037">
        <ele>332</ele>
        <time>2017-03-19T09:57:00Z</time>
      </trkpt>
      <trkpt lat="45.92603" lon="4.67025">
        <ele>333</ele>
        <time>2017-03-19T09:57:05Z</time>
      </trkpt>
      <trkpt lat="45.92603" lon="4.67022">
        <ele>333</ele>
        <time>2017-03-19T09:57:06Z</time>
      </trkpt>
      <trkpt lat="45.92605" lon="4.67011">
        <ele>334</ele>
        <time>2017-03-19T09:57:11Z</time>
      </trkpt>
      <trkpt lat="45.92605" lon="4.67008">
        <ele>334</ele>
        <time>2017-03-19T09:57:12Z</time>
      </trkpt>
      <trkpt lat="45.92608" lon="4.66997">
        <ele>337</ele>
        <time>2017-03-19T09:57:16Z</time>
      </trkpt>
      <trkpt lat="45.92608" lon="4.66994">
        <ele>337</ele>
        <time>2017-03-19T09:57:17Z</time>
      </trkpt>
      <trkpt lat="45.92611" lon="4.66982">
        <ele>337</ele>
        <time>2017-03-19T09:57:21Z</time>
      </trkpt>
      <trkpt lat="45.92611" lon="4.6698">
        <ele>337</ele>
        <time>2017-03-19T09:57:22Z</time>
      </trkpt>
      <trkpt lat="45.92613" lon="4.66969">
        <ele>337</ele>
        <time>2017-03-19T09:57:26Z</time>
      </trkpt>
      <trkpt lat="45.92613" lon="4.66966">
        <ele>337</ele>
        <time>2017-03-19T09:57:27Z</time>
      </trkpt>
      <trkpt lat="45.92616" lon="4.66955">
        <ele>337</ele>
        <time>2017-03-19T09:57:31Z</time>
      </trkpt>
      <trkpt lat="45.92616" lon="4.66952">
        <ele>337</ele>
        <time>2017-03-19T09:57:32Z</time>
      </trkpt>
      <trkpt lat="45.92619" lon="4.66941">
        <ele>337</ele>
        <time>2017-03-19T09:57:36Z</time>
      </trkpt>
      <trkpt lat="45.9262" lon="4.66938">
        <ele>337</ele>
        <time>2017-03-19T09:57:37Z</time>
      </trkpt>
      <trkpt lat="45.92623" lon="4.66927">
        <ele>337</ele>
        <time>2017-03-19T09:57:41Z</time>
      </trkpt>
      <trkpt lat="45.92624" lon="4.66924">
        <ele>337</ele>
        <time>2017-03-19T09:57:42Z</time>
      </trkpt>
      <trkpt lat="45.92627" lon="4.66912">
        <ele>339</ele>
        <time>2017-03-19T09:57:46Z</time>
      </trkpt>
      <trkpt lat="45.92627" lon="4.66909">
        <ele>339</ele>
        <time>2017-03-19T09:57:47Z</time>
      </trkpt>
      <trkpt lat="45.9263" lon="4.66898">
        <ele>338</ele>
        <time>2017-03-19T09:57:51Z</time>
      </trkpt>
      <trkpt lat="45.92631" lon="4.66895">
        <ele>338</ele>
        <time>2017-03-19T09:57:52Z</time>
      </trkpt>
      <trkpt lat="45.92634" lon="4.66883">
        <ele>338</ele>
        <time>2017-03-19T09:57:56Z</time>
      </trkpt>
      <trkpt lat="45.92634" lon="4.66879">
        <ele>338</ele>
        <time>2017-03-19T09:57:57Z</time>
      </trkpt>
      <trkpt lat="45.92636" lon="4.66869">
        <ele>338</ele>
        <time>2017-03-19T09:58:00Z</time>
      </trkpt>
      <trkpt lat="45.92637" lon="4.66866">
        <ele>338</ele>
        <time>2017-03-19T09:58:01Z</time>
      </trkpt>
      <trkpt lat="45.92638" lon="4.66855">
        <ele>338</ele>
        <time>2017-03-19T09:58:04Z</time>
      </trkpt>
      <trkpt lat="45.92639" lon="4.66851">
        <ele>338</ele>
        <time>2017-03-19T09:58:05Z</time>
      </trkpt>
      <trkpt lat="45.9264" lon="4.6684">
        <ele>338</ele>
        <time>2017-03-19T09:58:08Z</time>
      </trkpt>
      <trkpt lat="45.92641" lon="4.66837">
        <ele>338</ele>
        <time>2017-03-19T09:58:09Z</time>
      </trkpt>
      <trkpt lat="45.92642" lon="4.66826">
        <ele>338</ele>
        <time>2017-03-19T09:58:12Z</time>
      </trkpt>
      <trkpt lat="45.92643" lon="4.66823">
        <ele>338</ele>
        <time>2017-03-19T09:58:13Z</time>
      </trkpt>
      <trkpt lat="45.92643" lon="4.6681">
        <ele>338</ele>
        <time>2017-03-19T09:58:16Z</time>
      </trkpt>
      <trkpt lat="45.92643" lon="4.66806">
        <ele>338</ele>
        <time>2017-03-19T09:58:17Z</time>
      </trkpt>
      <trkpt lat="45.92644" lon="4.66794">
        <ele>338</ele>
        <time>2017-03-19T09:58:20Z</time>
      </trkpt>
      <trkpt lat="45.92645" lon="4.6679">
        <ele>338</ele>
        <time>2017-03-19T09:58:21Z</time>
      </trkpt>
      <trkpt lat="45.92645" lon="4.66779">
        <ele>338</ele>
        <time>2017-03-19T09:58:24Z</time>
      </trkpt>
      <trkpt lat="45.92645" lon="4.66776">
        <ele>338</ele>
        <time>2017-03-19T09:58:25Z</time>
      </trkpt>
      <trkpt lat="45.92646" lon="4.66764">
        <ele>338</ele>
        <time>2017-03-19T09:58:28Z</time>
      </trkpt>
      <trkpt lat="45.92646" lon="4.6676">
        <ele>338</ele>
        <time>2017-03-19T09:58:29Z</time>
      </trkpt>
      <trkpt lat="45.92647" lon="4.66749">
        <ele>339</ele>
        <time>2017-03-19T09:58:32Z</time>
      </trkpt>
      <trkpt lat="45.92647" lon="4.66745">
        <ele>339</ele>
        <time>2017-03-19T09:58:33Z</time>
      </trkpt>
      <trkpt lat="45.92647" lon="4.66733">
        <ele>340</ele>
        <time>2017-03-19T09:58:36Z</time>
      </trkpt>
      <trkpt lat="45.92647" lon="4.6673">
        <ele>340</ele>
        <time>2017-03-19T09:58:37Z</time>
      </trkpt>
      <trkpt lat="45.92647" lon="4.66719">
        <ele>340</ele>
        <time>2017-03-19T09:58:40Z</time>
      </trkpt>
      <trkpt lat="45.92647" lon="4.66716">
        <ele>340</ele>
        <time>2017-03-19T09:58:41Z</time>
      </trkpt>
      <trkpt lat="45.92647" lon="4.66705">
        <ele>341</ele>
        <time>2017-03-19T09:58:44Z</time>
      </trkpt>
      <trkpt lat="45.92646" lon="4.66701">
        <ele>341</ele>
        <time>2017-03-19T09:58:45Z</time>
      </trkpt>
      <trkpt lat="45.92646" lon="4.66692">
        <ele>341</ele>
        <time>2017-03-19T09:58:47Z</time>
      </trkpt>
      <trkpt lat="45.92646" lon="4.66687">
        <ele>341</ele>
        <time>2017-03-19T09:58:48Z</time>
      </trkpt>
      <trkpt lat="45.92645" lon="4.66675">
        <ele>341</ele>
        <time>2017-03-19T09:58:51Z</time>
      </trkpt>
      <trkpt lat="45.92644" lon="4.66671">
        <ele>342</ele>
        <time>2017-03-19T09:58:52Z</time>
      </trkpt>
      <trkpt lat="45.92643" lon="4.66662">
        <ele>343</ele>
        <time>2017-03-19T09:58:54Z</time>
      </trkpt>
      <trkpt lat="45.92642" lon="4.66657">
        <ele>344</ele>
        <time>2017-03-19T09:58:55Z</time>
      </trkpt>
      <trkpt lat="45.92641" lon="4.66646">
        <ele>344</ele>
        <time>2017-03-19T09:58:57Z</time>
      </trkpt>
      <trkpt lat="45.92641" lon="4.6664">
        <ele>344</ele>
        <time>2017-03-19T09:58:58Z</time>
      </trkpt>
      <trkpt lat="45.9264" lon="4.66629">
        <ele>344</ele>
        <time>2017-03-19T09:59:00Z</time>
      </trkpt>
      <trkpt lat="45.92639" lon="4.66624">
        <ele>344</ele>
        <time>2017-03-19T09:59:01Z</time>
      </trkpt>
      <trkpt lat="45.92638" lon="4.66612">
        <ele>344</ele>
        <time>2017-03-19T09:59:03Z</time>
      </trkpt>
      <trkpt lat="45.92637" lon="4.66606">
        <ele>345</ele>
        <time>2017-03-19T09:59:04Z</time>
      </trkpt>
      <trkpt lat="45.92637" lon="4.666">
        <ele>345</ele>
        <time>2017-03-19T09:59:05Z</time>
      </trkpt>
      <trkpt lat="45.92637" lon="4.66592">
        <ele>345</ele>
        <time>2017-03-19T09:59:06Z</time>
      </trkpt>
      <trkpt lat="45.92637" lon="4.66585">
        <ele>345</ele>
        <time>2017-03-19T09:59:07Z</time>
      </trkpt>
      <trkpt lat="45.92637" lon="4.66577">
        <ele>344</ele>
        <time>2017-03-19T09:59:08Z</time>
      </trkpt>
      <trkpt lat="45.92638" lon="4.66569">
        <ele>344</ele>
        <time>2017-03-19T09:59:09Z</time>
      </trkpt>
      <trkpt lat="45.92639" lon="4.66561">
        <ele>343</ele>
        <time>2017-03-19T09:59:10Z</time>
      </trkpt>
      <trkpt lat="45.9264" lon="4.66553">
        <ele>343</ele>
        <time>2017-03-19T09:59:11Z</time>
      </trkpt>
      <trkpt lat="45.92641" lon="4.66545">
        <ele>343</ele>
        <time>2017-03-19T09:59:12Z</time>
      </trkpt>
      <trkpt lat="45.92642" lon="4.66537">
        <ele>342</ele>
        <time>2017-03-19T09:59:13Z</time>
      </trkpt>
      <trkpt lat="45.92644" lon="4.66528">
        <ele>342</ele>
        <time>2017-03-19T09:59:14Z</time>
      </trkpt>
      <trkpt lat="45.92645" lon="4.66519">
        <ele>341</ele>
        <time>2017-03-19T09:59:15Z</time>
      </trkpt>
      <trkpt lat="45.92647" lon="4.66508">
        <ele>340</ele>
        <time>2017-03-19T09:59:16Z</time>
      </trkpt>
      <trkpt lat="45.92649" lon="4.66498">
        <ele>337</ele>
        <time>2017-03-19T09:59:17Z</time>
      </trkpt>
      <trkpt lat="45.9265" lon="4.66487">
        <ele>336</ele>
        <time>2017-03-19T09:59:18Z</time>
      </trkpt>
      <trkpt lat="45.92651" lon="4.66476">
        <ele>336</ele>
        <time>2017-03-19T09:59:19Z</time>
      </trkpt>
      <trkpt lat="45.92653" lon="4.66464">
        <ele>336</ele>
        <time>2017-03-19T09:59:20Z</time>
      </trkpt>
      <trkpt lat="45.92655" lon="4.66451">
        <ele>335</ele>
        <time>2017-03-19T09:59:21Z</time>
      </trkpt>
      <trkpt lat="45.92656" lon="4.66438">
        <ele>335</ele>
        <time>2017-03-19T09:59:22Z</time>
      </trkpt>
      <trkpt lat="45.92658" lon="4.66425">
        <ele>334</ele>
        <time>2017-03-19T09:59:23Z</time>
      </trkpt>
      <trkpt lat="45.92659" lon="4.66411">
        <ele>332</ele>
        <time>2017-03-19T09:59:24Z</time>
      </trkpt>
      <trkpt lat="45.92661" lon="4.66397">
        <ele>332</ele>
        <time>2017-03-19T09:59:25Z</time>
      </trkpt>
      <trkpt lat="45.92663" lon="4.66383">
        <ele>331</ele>
        <time>2017-03-19T09:59:26Z</time>
      </trkpt>
      <trkpt lat="45.92665" lon="4.66368">
        <ele>331</ele>
        <time>2017-03-19T09:59:27Z</time>
      </trkpt>
      <trkpt lat="45.92667" lon="4.66352">
        <ele>332</ele>
        <time>2017-03-19T09:59:28Z</time>
      </trkpt>
      <trkpt lat="45.92669" lon="4.66337">
        <ele>331</ele>
        <time>2017-03-19T09:59:29Z</time>
      </trkpt>
      <trkpt lat="45.92671" lon="4.66322">
        <ele>331</ele>
        <time>2017-03-19T09:59:30Z</time>
      </trkpt>
      <trkpt lat="45.92673" lon="4.66306">
        <ele>330</ele>
        <time>2017-03-19T09:59:31Z</time>
      </trkpt>
      <trkpt lat="45.92675" lon="4.66291">
        <ele>329</ele>
        <time>2017-03-19T09:59:32Z</time>
      </trkpt>
      <trkpt lat="45.92677" lon="4.66275">
        <ele>328</ele>
        <time>2017-03-19T09:59:33Z</time>
      </trkpt>
      <trkpt lat="45.92679" lon="4.6626">
        <ele>327</ele>
        <time>2017-03-19T09:59:34Z</time>
      </trkpt>
      <trkpt lat="45.92682" lon="4.66244">
        <ele>324</ele>
        <time>2017-03-19T09:59:35Z</time>
      </trkpt>
      <trkpt lat="45.92685" lon="4.66228">
        <ele>324</ele>
        <time>2017-03-19T09:59:36Z</time>
      </trkpt>
      <trkpt lat="45.92688" lon="4.66213">
        <ele>324</ele>
        <time>2017-03-19T09:59:37Z</time>
      </trkpt>
      <trkpt lat="45.92691" lon="4.66198">
        <ele>323</ele>
        <time>2017-03-19T09:59:38Z</time>
      </trkpt>
      <trkpt lat="45.92695" lon="4.66184">
        <ele>323</ele>
        <time>2017-03-19T09:59:39Z</time>
      </trkpt>
      <trkpt lat="45.92699" lon="4.66169">
        <ele>322</ele>
        <time>2017-03-19T09:59:40Z</time>
      </trkpt>
      <trkpt lat="45.92703" lon="4.66156">
        <ele>321</ele>
        <time>2017-03-19T09:59:41Z</time>
      </trkpt>
      <trkpt lat="45.92707" lon="4.66143">
        <ele>321</ele>
        <time>2017-03-19T09:59:42Z</time>
      </trkpt>
      <trkpt lat="45.92712" lon="4.6613">
        <ele>322</ele>
        <time>2017-03-19T09:59:43Z</time>
      </trkpt>
      <trkpt lat="45.92716" lon="4.66118">
        <ele>322</ele>
        <time>2017-03-19T09:59:44Z</time>
      </trkpt>
      <trkpt lat="45.92719" lon="4.66105">
        <ele>322</ele>
        <time>2017-03-19T09:59:45Z</time>
      </trkpt>
      <trkpt lat="45.92722" lon="4.66092">
        <ele>322</ele>
        <time>2017-03-19T09:59:46Z</time>
      </trkpt>
      <trkpt lat="45.92724" lon="4.66079">
        <ele>323</ele>
        <time>2017-03-19T09:59:47Z</time>
      </trkpt>
      <trkpt lat="45.92726" lon="4.66066">
        <ele>323</ele>
        <time>2017-03-19T09:59:48Z</time>
      </trkpt>
      <trkpt lat="45.92728" lon="4.66052">
        <ele>323</ele>
        <time>2017-03-19T09:59:49Z</time>
      </trkpt>
      <trkpt lat="45.92729" lon="4.66039">
        <ele>323</ele>
        <time>2017-03-19T09:59:50Z</time>
      </trkpt>
      <trkpt lat="45.92729" lon="4.66025">
        <ele>323</ele>
        <time>2017-03-19T09:59:51Z</time>
      </trkpt>
      <trkpt lat="45.92729" lon="4.66011">
        <ele>323</ele>
        <time>2017-03-19T09:59:52Z</time>
      </trkpt>
      <trkpt lat="45.92729" lon="4.65997">
        <ele>323</ele>
        <time>2017-03-19T09:59:53Z</time>
      </trkpt>
      <trkpt lat="45.92729" lon="4.65983">
        <ele>322</ele>
        <time>2017-03-19T09:59:54Z</time>
      </trkpt>
      <trkpt lat="45.92728" lon="4.65969">
        <ele>322</ele>
        <time>2017-03-19T09:59:55Z</time>
      </trkpt>
      <trkpt lat="45.92728" lon="4.65955">
        <ele>322</ele>
        <time>2017-03-19T09:59:56Z</time>
      </trkpt>
      <trkpt lat="45.92727" lon="4.65941">
        <ele>321</ele>
        <time>2017-03-19T09:59:57Z</time>
      </trkpt>
      <trkpt lat="45.92727" lon="4.65927">
        <ele>321</ele>
        <time>2017-03-19T09:59:58Z</time>
      </trkpt>
      <trkpt lat="45.92726" lon="4.65912">
        <ele>319</ele>
        <time>2017-03-19T09:59:59Z</time>
      </trkpt>
      <trkpt lat="45.92725" lon="4.65898">
        <ele>319</ele>
        <time>2017-03-19T10:00:00Z</time>
      </trkpt>
      <trkpt lat="45.92724" lon="4.65884">
        <ele>318</ele>
        <time>2017-03-19T10:00:01Z</time>
      </trkpt>
      <trkpt lat="45.92723" lon="4.65869">
        <ele>318</ele>
        <time>2017-03-19T10:00:02Z</time>
      </trkpt>
      <trkpt lat="45.92723" lon="4.65855">
        <ele>317</ele>
        <time>2017-03-19T10:00:03Z</time>
      </trkpt>
      <trkpt lat="45.92722" lon="4.65841">
        <ele>317</ele>
        <time>2017-03-19T10:00:04Z</time>
      </trkpt>
      <trkpt lat="45.92721" lon="4.65827">
        <ele>315</ele>
        <time>2017-03-19T10:00:05Z</time>
      </trkpt>
      <trkpt lat="45.9272" lon="4.65813">
        <ele>315</ele>
        <time>2017-03-19T10:00:06Z</time>
      </trkpt>
      <trkpt lat="45.92719" lon="4.658">
        <ele>315</ele>
        <time>2017-03-19T10:00:07Z</time>
      </trkpt>
      <trkpt lat="45.92718" lon="4.65786">
        <ele>314</ele>
        <time>2017-03-19T10:00:08Z</time>
      </trkpt>
      <trkpt lat="45.92716" lon="4.65774">
        <ele>314</ele>
        <time>2017-03-19T10:00:09Z</time>
      </trkpt>
      <trkpt lat="45.92714" lon="4.65762">
        <ele>314</ele>
        <time>2017-03-19T10:00:10Z</time>
      </trkpt>
      <trkpt lat="45.92713" lon="4.6575">
        <ele>311</ele>
        <time>2017-03-19T10:00:11Z</time>
      </trkpt>
      <trkpt lat="45.92711" lon="4.65739">
        <ele>311</ele>
        <time>2017-03-19T10:00:12Z</time>
      </trkpt>
      <trkpt lat="45.92709" lon="4.65728">
        <ele>310</ele>
        <time>2017-03-19T10:00:13Z</time>
      </trkpt>
      <trkpt lat="45.92707" lon="4.65718">
        <ele>310</ele>
        <time>2017-03-19T10:00:14Z</time>
      </trkpt>
      <trkpt lat="45.92705" lon="4.65708">
        <ele>310</ele>
        <time>2017-03-19T10:00:15Z</time>
      </trkpt>
      <trkpt lat="45.92703" lon="4.657">
        <ele>309</ele>
        <time>2017-03-19T10:00:16Z</time>
      </trkpt>
      <trkpt lat="45.92703" lon="4.65692">
        <ele>309</ele>
        <time>2017-03-19T10:00:17Z</time>
      </trkpt>
      <trkpt lat="45.92702" lon="4.65685">
        <ele>309</ele>
        <time>2017-03-19T10:00:18Z</time>
      </trkpt>
      <trkpt lat="45.92701" lon="4.65678">
        <ele>309</ele>
        <time>2017-03-19T10:00:19Z</time>
      </trkpt>
      <trkpt lat="45.92701" lon="4.65667">
        <ele>309</ele>
        <time>2017-03-19T10:00:21Z</time>
      </trkpt>
      <trkpt lat="45.927" lon="4.65663">
        <ele>305</ele>
        <time>2017-03-19T10:00:22Z</time>
      </trkpt>
      <trkpt lat="45.927" lon="4.65657">
        <ele>305</ele>
        <time>2017-03-19T10:00:25Z</time>
      </trkpt>
      <trkpt lat="45.927" lon="4.65657">
        <ele>305</ele>
        <time>2017-03-19T10:00:26Z</time>
      </trkpt>
      <trkpt lat="45.92701" lon="4.65655">
        <ele>305</ele>
        <time>2017-03-19T10:00:28Z</time>
      </trkpt>
      <trkpt lat="45.92701" lon="4.65652">
        <ele>304</ele>
        <time>2017-03-19T10:00:29Z</time>
      </trkpt>
      <trkpt lat="45.92698" lon="4.65643">
        <ele>304</ele>
        <time>2017-03-19T10:00:32Z</time>
      </trkpt>
      <trkpt lat="45.92698" lon="4.65639">
        <ele>304</ele>
        <time>2017-03-19T10:00:33Z</time>
      </trkpt>
      <trkpt lat="45.92695" lon="4.65627">
        <ele>304</ele>
        <time>2017-03-19T10:00:35Z</time>
      </trkpt>
      <trkpt lat="45.92693" lon="4.6562">
        <ele>303</ele>
        <time>2017-03-19T10:00:36Z</time>
      </trkpt>
      <trkpt lat="45.92692" lon="4.65613">
        <ele>303</ele>
        <time>2017-03-19T10:00:37Z</time>
      </trkpt>
      <trkpt lat="45.9269" lon="4.65606">
        <ele>303</ele>
        <time>2017-03-19T10:00:38Z</time>
      </trkpt>
      <trkpt lat="45.92689" lon="4.65599">
        <ele>303</ele>
        <time>2017-03-19T10:00:39Z</time>
      </trkpt>
      <trkpt lat="45.92687" lon="4.65593">
        <ele>302</ele>
        <time>2017-03-19T10:00:40Z</time>
      </trkpt>
      <trkpt lat="45.92686" lon="4.65586">
        <ele>302</ele>
        <time>2017-03-19T10:00:41Z</time>
      </trkpt>
      <trkpt lat="45.92685" lon="4.65579">
        <ele>301</ele>
        <time>2017-03-19T10:00:42Z</time>
      </trkpt>
      <trkpt lat="45.92684" lon="4.65573">
        <ele>301</ele>
        <time>2017-03-19T10:00:43Z</time>
      </trkpt>
      <trkpt lat="45.92683" lon="4.65566">
        <ele>301</ele>
        <time>2017-03-19T10:00:44Z</time>
      </trkpt>
      <trkpt lat="45.92682" lon="4.6556">
        <ele>301</ele>
        <time>2017-03-19T10:00:45Z</time>
      </trkpt>
      <trkpt lat="45.92682" lon="4.65553">
        <ele>301</ele>
        <time>2017-03-19T10:00:46Z</time>
      </trkpt>
      <trkpt lat="45.92682" lon="4.65546">
        <ele>301</ele>
        <time>2017-03-19T10:00:47Z</time>
      </trkpt>
      <trkpt lat="45.92682" lon="4.6554">
        <ele>301</ele>
        <time>2017-03-19T10:00:48Z</time>
      </trkpt>
      <trkpt lat="45.92682" lon="4.65533">
        <ele>301</ele>
        <time>2017-03-19T10:00:49Z</time>
      </trkpt>
      <trkpt lat="45.92683" lon="4.65526">
        <ele>301</ele>
        <time>2017-03-19T10:00:50Z</time>
      </trkpt>
      <trkpt lat="45.92684" lon="4.65519">
        <ele>302</ele>
        <time>2017-03-19T10:00:51Z</time>
      </trkpt>
      <trkpt lat="45.92685" lon="4.65513">
        <ele>302</ele>
        <time>2017-03-19T10:00:52Z</time>
      </trkpt>
      <trkpt lat="45.92687" lon="4.65506">
        <ele>302</ele>
        <time>2017-03-19T10:00:53Z</time>
      </trkpt>
      <trkpt lat="45.92688" lon="4.65499">
        <ele>303</ele>
        <time>2017-03-19T10:00:54Z</time>
      </trkpt>
      <trkpt lat="45.9269" lon="4.65492">
        <ele>303</ele>
        <time>2017-03-19T10:00:55Z</time>
      </trkpt>
      <trkpt lat="45.92691" lon="4.65486">
        <ele>303</ele>
        <time>2017-03-19T10:00:56Z</time>
      </trkpt>
      <trkpt lat="45.92693" lon="4.65479">
        <ele>303</ele>
        <time>2017-03-19T10:00:57Z</time>
      </trkpt>
      <trkpt lat="45.92695" lon="4.65473">
        <ele>303</ele>
        <time>2017-03-19T10:00:58Z</time>
      </trkpt>
      <trkpt lat="45.92699" lon="4.65461">
        <ele>303</ele>
        <time>2017-03-19T10:01:00Z</time>
      </trkpt>
      <trkpt lat="45.92701" lon="4.65456">
        <ele>303</ele>
        <time>2017-03-19T10:01:01Z</time>
      </trkpt>
      <trkpt lat="45.92703" lon="4.6545">
        <ele>303</ele>
        <time>2017-03-19T10:01:02Z</time>
      </trkpt>
      <trkpt lat="45.92705" lon="4.65443">
        <ele>303</ele>
        <time>2017-03-19T10:01:03Z</time>
      </trkpt>
      <trkpt lat="45.92706" lon="4.65437">
        <ele>303</ele>
        <time>2017-03-19T10:01:04Z</time>
      </trkpt>
      <trkpt lat="45.92708" lon="4.6543">
        <ele>303</ele>
        <time>2017-03-19T10:01:05Z</time>
      </trkpt>
      <trkpt lat="45.9271" lon="4.65423">
        <ele>303</ele>
        <time>2017-03-19T10:01:06Z</time>
      </trkpt>
      <trkpt lat="45.92712" lon="4.65416">
        <ele>304</ele>
        <time>2017-03-19T10:01:07Z</time>
      </trkpt>
      <trkpt lat="45.92713" lon="4.65409">
        <ele>304</ele>
        <time>2017-03-19T10:01:08Z</time>
      </trkpt>
      <trkpt lat="45.92715" lon="4.65403">
        <ele>304</ele>
        <time>2017-03-19T10:01:09Z</time>
      </trkpt>
      <trkpt lat="45.92717" lon="4.65396">
        <ele>304</ele>
        <time>2017-03-19T10:01:10Z</time>
      </trkpt>
      <trkpt lat="45.92718" lon="4.6539">
        <ele>304</ele>
        <time>2017-03-19T10:01:11Z</time>
      </trkpt>
      <trkpt lat="45.92721" lon="4.65378">
        <ele>304</ele>
        <time>2017-03-19T10:01:13Z</time>
      </trkpt>
      <trkpt lat="45.92723" lon="4.65372">
        <ele>305</ele>
        <time>2017-03-19T10:01:14Z</time>
      </trkpt>
      <trkpt lat="45.92726" lon="4.65361">
        <ele>305</ele>
        <time>2017-03-19T10:01:16Z</time>
      </trkpt>
      <trkpt lat="45.92728" lon="4.65355">
        <ele>305</ele>
        <time>2017-03-19T10:01:17Z</time>
      </trkpt>
      <trkpt lat="45.92731" lon="4.65344">
        <ele>305</ele>
        <time>2017-03-19T10:01:19Z</time>
      </trkpt>
      <trkpt lat="45.92732" lon="4.65339">
        <ele>305</ele>
        <time>2017-03-19T10:01:20Z</time>
      </trkpt>
      <trkpt lat="45.92734" lon="4.65329">
        <ele>305</ele>
        <time>2017-03-19T10:01:22Z</time>
      </trkpt>
      <trkpt lat="45.92736" lon="4.65323">
        <ele>305</ele>
        <time>2017-03-19T10:01:23Z</time>
      </trkpt>
      <trkpt lat="45.92738" lon="4.65313">
        <ele>306</ele>
        <time>2017-03-19T10:01:25Z</time>
      </trkpt>
      <trkpt lat="45.92739" lon="4.65308">
        <ele>306</ele>
        <time>2017-03-19T10:01:26Z</time>
      </trkpt>
      <trkpt lat="45.92741" lon="4.65298">
        <ele>306</ele>
        <time>2017-03-19T10:01:28Z</time>
      </trkpt>
      <trkpt lat="45.92742" lon="4.65293">
        <ele>306</ele>
        <time>2017-03-19T10:01:29Z</time>
      </trkpt>
      <trkpt lat="45.92744" lon="4.65284">
        <ele>306</ele>
        <time>2017-03-19T10:01:31Z</time>
      </trkpt>
      <trkpt lat="45.92745" lon="4.65279">
        <ele>306</ele>
        <time>2017-03-19T10:01:32Z</time>
      </trkpt>
      <trkpt lat="45.92748" lon="4.6527">
        <ele>306</ele>
        <time>2017-03-19T10:01:34Z</time>
      </trkpt>
      <trkpt lat="45.92749" lon="4.65265">
        <ele>307</ele>
        <time>2017-03-19T10:01:35Z</time>
      </trkpt>
      <trkpt lat="45.92752" lon="4.65257">
        <ele>307</ele>
        <time>2017-03-19T10:01:37Z</time>
      </trkpt>
      <trkpt lat="45.92754" lon="4.65252">
        <ele>307</ele>
        <time>2017-03-19T10:01:38Z</time>
      </trkpt>
      <trkpt lat="45.92757" lon="4.65243">
        <ele>307</ele>
        <time>2017-03-19T10:01:40Z</time>
      </trkpt>
      <trkpt lat="45.92758" lon="4.65239">
        <ele>308</ele>
        <time>2017-03-19T10:01:41Z</time>
      </trkpt>
      <trkpt lat="45.9276" lon="4.65229">
        <ele>308</ele>
        <time>2017-03-19T10:01:43Z</time>
      </trkpt>
      <trkpt lat="45.92761" lon="4.65225">
        <ele>308</ele>
        <time>2017-03-19T10:01:44Z</time>
      </trkpt>
      <trkpt lat="45.92763" lon="4.65215">
        <ele>308</ele>
        <time>2017-03-19T10:01:46Z</time>
      </trkpt>
      <trkpt lat="45.92764" lon="4.65211">
        <ele>308</ele>
        <time>2017-03-19T10:01:47Z</time>
      </trkpt>
      <trkpt lat="45.92766" lon="4.65201">
        <ele>308</ele>
        <time>2017-03-19T10:01:49Z</time>
      </trkpt>
      <trkpt lat="45.92767" lon="4.65197">
        <ele>308</ele>
        <time>2017-03-19T10:01:50Z</time>
      </trkpt>
      <trkpt lat="45.92769" lon="4.65189">
        <ele>308</ele>
        <time>2017-03-19T10:01:52Z</time>
      </trkpt>
      <trkpt lat="45.92771" lon="4.65184">
        <ele>309</ele>
        <time>2017-03-19T10:01:53Z</time>
      </trkpt>
      <trkpt lat="45.92774" lon="4.65176">
        <ele>309</ele>
        <time>2017-03-19T10:01:55Z</time>
      </trkpt>
      <trkpt lat="45.92775" lon="4.65172">
        <ele>309</ele>
        <time>2017-03-19T10:01:56Z</time>
      </trkpt>
      <trkpt lat="45.92779" lon="4.65163">
        <ele>310</ele>
        <time>2017-03-19T10:01:58Z</time>
      </trkpt>
      <trkpt lat="45.92781" lon="4.65159">
        <ele>310</ele>
        <time>2017-03-19T10:01:59Z</time>
      </trkpt>
      <trkpt lat="45.92785" lon="4.6515">
        <ele>310</ele>
        <time>2017-03-19T10:02:01Z</time>
      </trkpt>
      <trkpt lat="45.92787" lon="4.65145">
        <ele>310</ele>
        <time>2017-03-19T10:02:02Z</time>
      </trkpt>
      <trkpt lat="45.9279" lon="4.65135">
        <ele>310</ele>
        <time>2017-03-19T10:02:04Z</time>
      </trkpt>
      <trkpt lat="45.92791" lon="4.65131">
        <ele>310</ele>
        <time>2017-03-19T10:02:05Z</time>
      </trkpt>
      <trkpt lat="45.92795" lon="4.65121">
        <ele>311</ele>
        <time>2017-03-19T10:02:07Z</time>
      </trkpt>
      <trkpt lat="45.92796" lon="4.65116">
        <ele>311</ele>
        <time>2017-03-19T10:02:08Z</time>
      </trkpt>
      <trkpt lat="45.92799" lon="4.65106">
        <ele>311</ele>
        <time>2017-03-19T10:02:10Z</time>
      </trkpt>
      <trkpt lat="45.928" lon="4.65101">
        <ele>311</ele>
        <time>2017-03-19T10:02:11Z</time>
      </trkpt>
      <trkpt lat="45.92803" lon="4.65092">
        <ele>311</ele>
        <time>2017-03-19T10:02:13Z</time>
      </trkpt>
      <trkpt lat="45.92803" lon="4.65087">
        <ele>311</ele>
        <time>2017-03-19T10:02:14Z</time>
      </trkpt>
      <trkpt lat="45.92803" lon="4.65079">
        <ele>313</ele>
        <time>2017-03-19T10:02:16Z</time>
      </trkpt>
      <trkpt lat="45.92804" lon="4.65074">
        <ele>313</ele>
        <time>2017-03-19T10:02:17Z</time>
      </trkpt>
      <trkpt lat="45.92806" lon="4.65062">
        <ele>314</ele>
        <time>2017-03-19T10:02:19Z</time>
      </trkpt>
      <trkpt lat="45.92806" lon="4.65057">
        <ele>314</ele>
        <time>2017-03-19T10:02:20Z</time>
      </trkpt>
      <trkpt lat="45.92807" lon="4.65046">
        <ele>314</ele>
        <time>2017-03-19T10:02:22Z</time>
      </trkpt>
      <trkpt lat="45.92808" lon="4.65041">
        <ele>314</ele>
        <time>2017-03-19T10:02:23Z</time>
      </trkpt>
      <trkpt lat="45.92808" lon="4.65031">
        <ele>315</ele>
        <time>2017-03-19T10:02:25Z</time>
      </trkpt>
      <trkpt lat="45.92809" lon="4.65026">
        <ele>315</ele>
        <time>2017-03-19T10:02:26Z</time>
      </trkpt>
      <trkpt lat="45.92809" lon="4.65015">
        <ele>315</ele>
        <time>2017-03-19T10:02:28Z</time>
      </trkpt>
      <trkpt lat="45.9281" lon="4.6501">
        <ele>315</ele>
        <time>2017-03-19T10:02:29Z</time>
      </trkpt>
      <trkpt lat="45.92811" lon="4.64999">
        <ele>317</ele>
        <time>2017-03-19T10:02:31Z</time>
      </trkpt>
      <trkpt lat="45.92812" lon="4.64995">
        <ele>317</ele>
        <time>2017-03-19T10:02:32Z</time>
      </trkpt>
      <trkpt lat="45.92812" lon="4.64985">
        <ele>317</ele>
        <time>2017-03-19T10:02:34Z</time>
      </trkpt>
      <trkpt lat="45.92813" lon="4.6498">
        <ele>317</ele>
        <time>2017-03-19T10:02:35Z</time>
      </trkpt>
      <trkpt lat="45.92814" lon="4.64969">
        <ele>317</ele>
        <time>2017-03-19T10:02:37Z</time>
      </trkpt>
      <trkpt lat="45.92814" lon="4.64964">
        <ele>317</ele>
        <time>2017-03-19T10:02:38Z</time>
      </trkpt>
      <trkpt lat="45.92815" lon="4.64953">
        <ele>316</ele>
        <time>2017-03-19T10:02:40Z</time>
      </trkpt>
      <trkpt lat="45.92815" lon="4.64947">
        <ele>316</ele>
        <time>2017-03-19T10:02:41Z</time>
      </trkpt>
      <trkpt lat="45.92816" lon="4.64937">
        <ele>316</ele>
        <time>2017-03-19T10:02:43Z</time>
      </trkpt>
      <trkpt lat="45.92816" lon="4.64931">
        <ele>316</ele>
        <time>2017-03-19T10:02:44Z</time>
      </trkpt>
      <trkpt lat="45.92817" lon="4.64921">
        <ele>316</ele>
        <time>2017-03-19T10:02:46Z</time>
      </trkpt>
      <trkpt lat="45.92817" lon="4.64916">
        <ele>316</ele>
        <time>2017-03-19T10:02:47Z</time>
      </trkpt>
      <trkpt lat="45.92818" lon="4.64904">
        <ele>316</ele>
        <time>2017-03-19T10:02:49Z</time>
      </trkpt>
      <trkpt lat="45.92818" lon="4.64898">
        <ele>316</ele>
        <time>2017-03-19T10:02:50Z</time>
      </trkpt>
      <trkpt lat="45.92818" lon="4.64887">
        <ele>316</ele>
        <time>2017-03-19T10:02:52Z</time>
      </trkpt>
      <trkpt lat="45.92818" lon="4.64882">
        <ele>316</ele>
        <time>2017-03-19T10:02:53Z</time>
      </trkpt>
      <trkpt lat="45.92818" lon="4.64871">
        <ele>316</ele>
        <time>2017-03-19T10:02:55Z</time>
      </trkpt>
      <trkpt lat="45.92818" lon="4.64865">
        <ele>316</ele>
        <time>2017-03-19T10:02:56Z</time>
      </trkpt>
      <trkpt lat="45.92818" lon="4.64855">
        <ele>316</ele>
        <time>2017-03-19T10:02:58Z</time>
      </trkpt>
      <trkpt lat="45.92818" lon="4.64849">
        <ele>317</ele>
        <time>2017-03-19T10:02:59Z</time>
      </trkpt>
      <trkpt lat="45.92818" lon="4.64839">
        <ele>317</ele>
        <time>2017-03-19T10:03:01Z</time>
      </trkpt>
      <trkpt lat="45.92818" lon="4.64833">
        <ele>317</ele>
        <time>2017-03-19T10:03:02Z</time>
      </trkpt>
      <trkpt lat="45.92818" lon="4.64822">
        <ele>318</ele>
        <time>2017-03-19T10:03:04Z</time>
      </trkpt>
      <trkpt lat="45.92818" lon="4.64816">
        <ele>318</ele>
        <time>2017-03-19T10:03:05Z</time>
      </trkpt>
      <trkpt lat="45.92818" lon="4.64805">
        <ele>318</ele>
        <time>2017-03-19T10:03:07Z</time>
      </trkpt>
      <trkpt lat="45.92818" lon="4.64799">
        <ele>318</ele>
        <time>2017-03-19T10:03:08Z</time>
      </trkpt>
      <trkpt lat="45.92818" lon="4.64788">
        <ele>318</ele>
        <time>2017-03-19T10:03:10Z</time>
      </trkpt>
      <trkpt lat="45.92818" lon="4.64782">
        <ele>318</ele>
        <time>2017-03-19T10:03:11Z</time>
      </trkpt>
      <trkpt lat="45.92818" lon="4.64771">
        <ele>319</ele>
        <time>2017-03-19T10:03:13Z</time>
      </trkpt>
      <trkpt lat="45.92817" lon="4.64765">
        <ele>319</ele>
        <time>2017-03-19T10:03:14Z</time>
      </trkpt>
      <trkpt lat="45.92817" lon="4.64754">
        <ele>319</ele>
        <time>2017-03-19T10:03:16Z</time>
      </trkpt>
      <trkpt lat="45.92817" lon="4.64748">
        <ele>319</ele>
        <time>2017-03-19T10:03:17Z</time>
      </trkpt>
      <trkpt lat="45.92817" lon="4.64737">
        <ele>319</ele>
        <time>2017-03-19T10:03:19Z</time>
      </trkpt>
      <trkpt lat="45.92817" lon="4.64731">
        <ele>319</ele>
        <time>2017-03-19T10:03:20Z</time>
      </trkpt>
      <trkpt lat="45.92817" lon="4.64719">
        <ele>320</ele>
        <time>2017-03-19T10:03:22Z</time>
      </trkpt>
      <trkpt lat="45.92817" lon="4.64713">
        <ele>320</ele>
        <time>2017-03-19T10:03:23Z</time>
      </trkpt>
      <trkpt lat="45.92817" lon="4.64701">
        <ele>320</ele>
        <time>2017-03-19T10:03:25Z</time>
      </trkpt>
      <trkpt lat="45.92817" lon="4.64696">
        <ele>320</ele>
        <time>2017-03-19T10:03:26Z</time>
      </trkpt>
      <trkpt lat="45.92817" lon="4.64686">
        <ele>319</ele>
        <time>2017-03-19T10:03:28Z</time>
      </trkpt>
      <trkpt lat="45.92817" lon="4.64681">
        <ele>319</ele>
        <time>2017-03-19T10:03:29Z</time>
      </trkpt>
      <trkpt lat="45.92818" lon="4.6467">
        <ele>319</ele>
        <time>2017-03-19T10:03:31Z</time>
      </trkpt>
      <trkpt lat="45.92818" lon="4.64663">
        <ele>320</ele>
        <time>2017-03-19T10:03:32Z</time>
      </trkpt>
      <trkpt lat="45.92817" lon="4.6465">
        <ele>320</ele>
        <time>2017-03-19T10:03:34Z</time>
      </trkpt>
      <trkpt lat="45.92817" lon="4.64644">
        <ele>320</ele>
        <time>2017-03-19T10:03:35Z</time>
      </trkpt>
      <trkpt lat="45.92817" lon="4.64632">
        <ele>320</ele>
        <time>2017-03-19T10:03:37Z</time>
      </trkpt>
      <trkpt lat="45.92816" lon="4.64626">
        <ele>320</ele>
        <time>2017-03-19T10:03:38Z</time>
      </trkpt>
      <trkpt lat="45.92816" lon="4.64614">
        <ele>320</ele>
        <time>2017-03-19T10:03:40Z</time>
      </trkpt>
      <trkpt lat="45.92816" lon="4.64609">
        <ele>320</ele>
        <time>2017-03-19T10:03:41Z</time>
      </trkpt>
      <trkpt lat="45.92816" lon="4.64598">
        <ele>321</ele>
        <time>2017-03-19T10:03:43Z</time>
      </trkpt>
      <trkpt lat="45.92816" lon="4.64592">
        <ele>321</ele>
        <time>2017-03-19T10:03:44Z</time>
      </trkpt>
      <trkpt lat="45.92816" lon="4.64581">
        <ele>321</ele>
        <time>2017-03-19T10:03:46Z</time>
      </trkpt>
      <trkpt lat="45.92816" lon="4.64575">
        <ele>321</ele>
        <time>2017-03-19T10:03:47Z</time>
      </trkpt>
      <trkpt lat="45.92815" lon="4.64562">
        <ele>321</ele>
        <time>2017-03-19T10:03:49Z</time>
      </trkpt>
      <trkpt lat="45.92815" lon="4.64556">
        <ele>322</ele>
        <time>2017-03-19T10:03:50Z</time>
      </trkpt>
      <trkpt lat="45.92815" lon="4.64543">
        <ele>322</ele>
        <time>2017-03-19T10:03:52Z</time>
      </trkpt>
      <trkpt lat="45.92815" lon="4.64537">
        <ele>322</ele>
        <time>2017-03-19T10:03:53Z</time>
      </trkpt>
      <trkpt lat="45.92815" lon="4.64527">
        <ele>322</ele>
        <time>2017-03-19T10:03:55Z</time>
      </trkpt>
      <trkpt lat="45.92815" lon="4.64522">
        <ele>322</ele>
        <time>2017-03-19T10:03:56Z</time>
      </trkpt>
      <trkpt lat="45.92817" lon="4.64511">
        <ele>322</ele>
        <time>2017-03-19T10:03:59Z</time>
      </trkpt>
      <trkpt lat="45.92819" lon="4.64508">
        <ele>322</ele>
        <time>2017-03-19T10:04:00Z</time>
      </trkpt>
      <trkpt lat="45.92824" lon="4.64503">
        <ele>322</ele>
        <time>2017-03-19T10:04:02Z</time>
      </trkpt>
      <trkpt lat="45.92827" lon="4.64499">
        <ele>322</ele>
        <time>2017-03-19T10:04:03Z</time>
      </trkpt>
      <trkpt lat="45.92833" lon="4.64489">
        <ele>323</ele>
        <time>2017-03-19T10:04:05Z</time>
      </trkpt>
      <trkpt lat="45.92835" lon="4.64483">
        <ele>323</ele>
        <time>2017-03-19T10:04:06Z</time>
      </trkpt>
      <trkpt lat="45.92835" lon="4.64472">
        <ele>324</ele>
        <time>2017-03-19T10:04:08Z</time>
      </trkpt>
      <trkpt lat="45.92833" lon="4.64467">
        <ele>324</ele>
        <time>2017-03-19T10:04:09Z</time>
      </trkpt>
      <trkpt lat="45.92827" lon="4.64461">
        <ele>324</ele>
        <time>2017-03-19T10:04:11Z</time>
      </trkpt>
      <trkpt lat="45.92824" lon="4.64458">
        <ele>324</ele>
        <time>2017-03-19T10:04:12Z</time>
      </trkpt>
      <trkpt lat="45.92819" lon="4.6445">
        <ele>324</ele>
        <time>2017-03-19T10:04:14Z</time>
      </trkpt>
      <trkpt lat="45.92817" lon="4.64446">
        <ele>325</ele>
        <time>2017-03-19T10:04:15Z</time>
      </trkpt>
      <trkpt lat="45.92815" lon="4.64434">
        <ele>325</ele>
        <time>2017-03-19T10:04:17Z</time>
      </trkpt>
      <trkpt lat="45.92815" lon="4.64428">
        <ele>325</ele>
        <time>2017-03-19T10:04:18Z</time>
      </trkpt>
      <trkpt lat="45.92815" lon="4.64416">
        <ele>326</ele>
        <time>2017-03-19T10:04:20Z</time>
      </trkpt>
      <trkpt lat="45.92815" lon="4.64411">
        <ele>326</ele>
        <time>2017-03-19T10:04:21Z</time>
      </trkpt>
      <trkpt lat="45.92815" lon="4.644">
        <ele>326</ele>
        <time>2017-03-19T10:04:23Z</time>
      </trkpt>
      <trkpt lat="45.92815" lon="4.64395">
        <ele>326</ele>
        <time>2017-03-19T10:04:24Z</time>
      </trkpt>
      <trkpt lat="45.92815" lon="4.64385">
        <ele>326</ele>
        <time>2017-03-19T10:04:26Z</time>
      </trkpt>
      <trkpt lat="45.92816" lon="4.6438">
        <ele>326</ele>
        <time>2017-03-19T10:04:27Z</time>
      </trkpt>
      <trkpt lat="45.92816" lon="4.64369">
        <ele>326</ele>
        <time>2017-03-19T10:04:29Z</time>
      </trkpt>
      <trkpt lat="45.92817" lon="4.64364">
        <ele>327</ele>
        <time>2017-03-19T10:04:30Z</time>
      </trkpt>
      <trkpt lat="45.9282" lon="4.64354">
        <ele>327</ele>
        <time>2017-03-19T10:04:32Z</time>
      </trkpt>
      <trkpt lat="45.92821" lon="4.64349">
        <ele>327</ele>
        <time>2017-03-19T10:04:33Z</time>
      </trkpt>
      <trkpt lat="45.92823" lon="4.64339">
        <ele>327</ele>
        <time>2017-03-19T10:04:35Z</time>
      </trkpt>
      <trkpt lat="45.92824" lon="4.64334">
        <ele>327</ele>
        <time>2017-03-19T10:04:36Z</time>
      </trkpt>
      <trkpt lat="45.92827" lon="4.64325">
        <ele>327</ele>
        <time>2017-03-19T10:04:38Z</time>
      </trkpt>
      <trkpt lat="45.92828" lon="4.6432">
        <ele>327</ele>
        <time>2017-03-19T10:04:39Z</time>
      </trkpt>
      <trkpt lat="45.92829" lon="4.6431">
        <ele>327</ele>
        <time>2017-03-19T10:04:41Z</time>
      </trkpt>
      <trkpt lat="45.9283" lon="4.64306">
        <ele>327</ele>
        <time>2017-03-19T10:04:42Z</time>
      </trkpt>
      <trkpt lat="45.92832" lon="4.64297">
        <ele>327</ele>
        <time>2017-03-19T10:04:44Z</time>
      </trkpt>
      <trkpt lat="45.92833" lon="4.64293">
        <ele>327</ele>
        <time>2017-03-19T10:04:45Z</time>
      </trkpt>
      <trkpt lat="45.92835" lon="4.64283">
        <ele>326</ele>
        <time>2017-03-19T10:04:47Z</time>
      </trkpt>
      <trkpt lat="45.92836" lon="4.64279">
        <ele>326</ele>
        <time>2017-03-19T10:04:48Z</time>
      </trkpt>
      <trkpt lat="45.92837" lon="4.64268">
        <ele>326</ele>
        <time>2017-03-19T10:04:50Z</time>
      </trkpt>
      <trkpt lat="45.92838" lon="4.64263">
        <ele>326</ele>
        <time>2017-03-19T10:04:51Z</time>
      </trkpt>
      <trkpt lat="45.92841" lon="4.64253">
        <ele>326</ele>
        <time>2017-03-19T10:04:53Z</time>
      </trkpt>
      <trkpt lat="45.92842" lon="4.64247">
        <ele>325</ele>
        <time>2017-03-19T10:04:54Z</time>
      </trkpt>
      <trkpt lat="45.92844" lon="4.64237">
        <ele>324</ele>
        <time>2017-03-19T10:04:56Z</time>
      </trkpt>
      <trkpt lat="45.92845" lon="4.64231">
        <ele>324</ele>
        <time>2017-03-19T10:04:57Z</time>
      </trkpt>
      <trkpt lat="45.92847" lon="4.64219">
        <ele>323</ele>
        <time>2017-03-19T10:04:59Z</time>
      </trkpt>
      <trkpt lat="45.92847" lon="4.64213">
        <ele>323</ele>
        <time>2017-03-19T10:05:00Z</time>
      </trkpt>
      <trkpt lat="45.92848" lon="4.64206">
        <ele>323</ele>
        <time>2017-03-19T10:05:01Z</time>
      </trkpt>
      <trkpt lat="45.92849" lon="4.64199">
        <ele>323</ele>
        <time>2017-03-19T10:05:02Z</time>
      </trkpt>
      <trkpt lat="45.92849" lon="4.64193">
        <ele>323</ele>
        <time>2017-03-19T10:05:03Z</time>
      </trkpt>
      <trkpt lat="45.92849" lon="4.64185">
        <ele>323</ele>
        <time>2017-03-19T10:05:04Z</time>
      </trkpt>
      <trkpt lat="45.9285" lon="4.64178">
        <ele>323</ele>
        <time>2017-03-19T10:05:05Z</time>
      </trkpt>
      <trkpt lat="45.9285" lon="4.6417">
        <ele>323</ele>
        <time>2017-03-19T10:05:06Z</time>
      </trkpt>
      <trkpt lat="45.92851" lon="4.64163">
        <ele>322</ele>
        <time>2017-03-19T10:05:07Z</time>
      </trkpt>
      <trkpt lat="45.92851" lon="4.64155">
        <ele>322</ele>
        <time>2017-03-19T10:05:08Z</time>
      </trkpt>
      <trkpt lat="45.92851" lon="4.64147">
        <ele>322</ele>
        <time>2017-03-19T10:05:09Z</time>
      </trkpt>
      <trkpt lat="45.92851" lon="4.64139">
        <ele>321</ele>
        <time>2017-03-19T10:05:10Z</time>
      </trkpt>
      <trkpt lat="45.9285" lon="4.64131">
        <ele>321</ele>
        <time>2017-03-19T10:05:11Z</time>
      </trkpt>
      <trkpt lat="45.9285" lon="4.64123">
        <ele>321</ele>
        <time>2017-03-19T10:05:12Z</time>
      </trkpt>
      <trkpt lat="45.92849" lon="4.64115">
        <ele>321</ele>
        <time>2017-03-19T10:05:13Z</time>
      </trkpt>
      <trkpt lat="45.92849" lon="4.64107">
        <ele>322</ele>
        <time>2017-03-19T10:05:14Z</time>
      </trkpt>
      <trkpt lat="45.92849" lon="4.64099">
        <ele>322</ele>
        <time>2017-03-19T10:05:15Z</time>
      </trkpt>
      <trkpt lat="45.92849" lon="4.64091">
        <ele>322</ele>
        <time>2017-03-19T10:05:16Z</time>
      </trkpt>
      <trkpt lat="45.92849" lon="4.64083">
        <ele>323</ele>
        <time>2017-03-19T10:05:17Z</time>
      </trkpt>
      <trkpt lat="45.92849" lon="4.64076">
        <ele>323</ele>
        <time>2017-03-19T10:05:18Z</time>
      </trkpt>
      <trkpt lat="45.92849" lon="4.64068">
        <ele>323</ele>
        <time>2017-03-19T10:05:19Z</time>
      </trkpt>
      <trkpt lat="45.92849" lon="4.64061">
        <ele>323</ele>
        <time>2017-03-19T10:05:20Z</time>
      </trkpt>
      <trkpt lat="45.92849" lon="4.64053">
        <ele>324</ele>
        <time>2017-03-19T10:05:21Z</time>
      </trkpt>
      <trkpt lat="45.92849" lon="4.64046">
        <ele>324</ele>
        <time>2017-03-19T10:05:22Z</time>
      </trkpt>
      <trkpt lat="45.92848" lon="4.64038">
        <ele>324</ele>
        <time>2017-03-19T10:05:23Z</time>
      </trkpt>
      <trkpt lat="45.92847" lon="4.64032">
        <ele>324</ele>
        <time>2017-03-19T10:05:24Z</time>
      </trkpt>
      <trkpt lat="45.92846" lon="4.64025">
        <ele>325</ele>
        <time>2017-03-19T10:05:25Z</time>
      </trkpt>
      <trkpt lat="45.92846" lon="4.64019">
        <ele>325</ele>
        <time>2017-03-19T10:05:26Z</time>
      </trkpt>
      <trkpt lat="45.92845" lon="4.64006">
        <ele>326</ele>
        <time>2017-03-19T10:05:28Z</time>
      </trkpt>
      <trkpt lat="45.92844" lon="4.64001">
        <ele>326</ele>
        <time>2017-03-19T10:05:29Z</time>
      </trkpt>
      <trkpt lat="45.92841" lon="4.6399">
        <ele>327</ele>
        <time>2017-03-19T10:05:31Z</time>
      </trkpt>
      <trkpt lat="45.9284" lon="4.63984">
        <ele>327</ele>
        <time>2017-03-19T10:05:32Z</time>
      </trkpt>
      <trkpt lat="45.92839" lon="4.63973">
        <ele>327</ele>
        <time>2017-03-19T10:05:34Z</time>
      </trkpt>
      <trkpt lat="45.92838" lon="4.63968">
        <ele>327</ele>
        <time>2017-03-19T10:05:35Z</time>
      </trkpt>
      <trkpt lat="45.92838" lon="4.63956">
        <ele>327</ele>
        <time>2017-03-19T10:05:37Z</time>
      </trkpt>
      <trkpt lat="45.92839" lon="4.6395">
        <ele>327</ele>
        <time>2017-03-19T10:05:38Z</time>
      </trkpt>
      <trkpt lat="45.9284" lon="4.6394">
        <ele>327</ele>
        <time>2017-03-19T10:05:40Z</time>
      </trkpt>
      <trkpt lat="45.92841" lon="4.63935">
        <ele>327</ele>
        <time>2017-03-19T10:05:41Z</time>
      </trkpt>
      <trkpt lat="45.92843" lon="4.63926">
        <ele>327</ele>
        <time>2017-03-19T10:05:43Z</time>
      </trkpt>
      <trkpt lat="45.92844" lon="4.63921">
        <ele>327</ele>
        <time>2017-03-19T10:05:44Z</time>
      </trkpt>
      <trkpt lat="45.92847" lon="4.63912">
        <ele>328</ele>
        <time>2017-03-19T10:05:46Z</time>
      </trkpt>
      <trkpt lat="45.92849" lon="4.63907">
        <ele>327</ele>
        <time>2017-03-19T10:05:47Z</time>
      </trkpt>
      <trkpt lat="45.92853" lon="4.63897">
        <ele>327</ele>
        <time>2017-03-19T10:05:49Z</time>
      </trkpt>
      <trkpt lat="45.92855" lon="4.63892">
        <ele>327</ele>
        <time>2017-03-19T10:05:50Z</time>
      </trkpt>
      <trkpt lat="45.92859" lon="4.63881">
        <ele>327</ele>
        <time>2017-03-19T10:05:52Z</time>
      </trkpt>
      <trkpt lat="45.92861" lon="4.63876">
        <ele>327</ele>
        <time>2017-03-19T10:05:53Z</time>
      </trkpt>
      <trkpt lat="45.92864" lon="4.6387">
        <ele>327</ele>
        <time>2017-03-19T10:05:54Z</time>
      </trkpt>
      <trkpt lat="45.92866" lon="4.63864">
        <ele>327</ele>
        <time>2017-03-19T10:05:55Z</time>
      </trkpt>
      <trkpt lat="45.92868" lon="4.63858">
        <ele>327</ele>
        <time>2017-03-19T10:05:56Z</time>
      </trkpt>
      <trkpt lat="45.92869" lon="4.63852">
        <ele>327</ele>
        <time>2017-03-19T10:05:57Z</time>
      </trkpt>
      <trkpt lat="45.92871" lon="4.63846">
        <ele>327</ele>
        <time>2017-03-19T10:05:58Z</time>
      </trkpt>
      <trkpt lat="45.92873" lon="4.6384">
        <ele>327</ele>
        <time>2017-03-19T10:05:59Z</time>
      </trkpt>
      <trkpt lat="45.92875" lon="4.63833">
        <ele>326</ele>
        <time>2017-03-19T10:06:00Z</time>
      </trkpt>
      <trkpt lat="45.92876" lon="4.63826">
        <ele>326</ele>
        <time>2017-03-19T10:06:01Z</time>
      </trkpt>
      <trkpt lat="45.92877" lon="4.63818">
        <ele>326</ele>
        <time>2017-03-19T10:06:02Z</time>
      </trkpt>
      <trkpt lat="45.92878" lon="4.6381">
        <ele>326</ele>
        <time>2017-03-19T10:06:03Z</time>
      </trkpt>
      <trkpt lat="45.92879" lon="4.63801">
        <ele>326</ele>
        <time>2017-03-19T10:06:04Z</time>
      </trkpt>
      <trkpt lat="45.92879" lon="4.63792">
        <ele>326</ele>
        <time>2017-03-19T10:06:05Z</time>
      </trkpt>
      <trkpt lat="45.92878" lon="4.63783">
        <ele>326</ele>
        <time>2017-03-19T10:06:06Z</time>
      </trkpt>
      <trkpt lat="45.92877" lon="4.63773">
        <ele>326</ele>
        <time>2017-03-19T10:06:07Z</time>
      </trkpt>
      <trkpt lat="45.92876" lon="4.63763">
        <ele>326</ele>
        <time>2017-03-19T10:06:08Z</time>
      </trkpt>
      <trkpt lat="45.92874" lon="4.63754">
        <ele>326</ele>
        <time>2017-03-19T10:06:09Z</time>
      </trkpt>
      <trkpt lat="45.92871" lon="4.63745">
        <ele>326</ele>
        <time>2017-03-19T10:06:10Z</time>
      </trkpt>
      <trkpt lat="45.92867" lon="4.63737">
        <ele>326</ele>
        <time>2017-03-19T10:06:11Z</time>
      </trkpt>
      <trkpt lat="45.92862" lon="4.63731">
        <ele>327</ele>
        <time>2017-03-19T10:06:12Z</time>
      </trkpt>
      <trkpt lat="45.92858" lon="4.63726">
        <ele>327</ele>
        <time>2017-03-19T10:06:13Z</time>
      </trkpt>
      <trkpt lat="45.92855" lon="4.63721">
        <ele>327</ele>
        <time>2017-03-19T10:06:14Z</time>
      </trkpt>
      <trkpt lat="45.92851" lon="4.63717">
        <ele>327</ele>
        <time>2017-03-19T10:06:15Z</time>
      </trkpt>
      <trkpt lat="45.92846" lon="4.63709">
        <ele>327</ele>
        <time>2017-03-19T10:06:17Z</time>
      </trkpt>
      <trkpt lat="45.92844" lon="4.63705">
        <ele>327</ele>
        <time>2017-03-19T10:06:18Z</time>
      </trkpt>
      <trkpt lat="45.92838" lon="4.63698">
        <ele>328</ele>
        <time>2017-03-19T10:06:20Z</time>
      </trkpt>
      <trkpt lat="45.92836" lon="4.63695">
        <ele>328</ele>
        <time>2017-03-19T10:06:21Z</time>
      </trkpt>
      <trkpt lat="45.92831" lon="4.63688">
        <ele>330</ele>
        <time>2017-03-19T10:06:23Z</time>
      </trkpt>
      <trkpt lat="45.92828" lon="4.63683">
        <ele>330</ele>
        <time>2017-03-19T10:06:24Z</time>
      </trkpt>
      <trkpt lat="45.92823" lon="4.63676">
        <ele>330</ele>
        <time>2017-03-19T10:06:26Z</time>
      </trkpt>
      <trkpt lat="45.92819" lon="4.63672">
        <ele>330</ele>
        <time>2017-03-19T10:06:27Z</time>
      </trkpt>
      <trkpt lat="45.92814" lon="4.63666">
        <ele>330</ele>
        <time>2017-03-19T10:06:29Z</time>
      </trkpt>
      <trkpt lat="45.92812" lon="4.63662">
        <ele>331</ele>
        <time>2017-03-19T10:06:30Z</time>
      </trkpt>
      <trkpt lat="45.92808" lon="4.63654">
        <ele>331</ele>
        <time>2017-03-19T10:06:32Z</time>
      </trkpt>
      <trkpt lat="45.92806" lon="4.63651">
        <ele>331</ele>
        <time>2017-03-19T10:06:33Z</time>
      </trkpt>
      <trkpt lat="45.928" lon="4.63645">
        <ele>331</ele>
        <time>2017-03-19T10:06:35Z</time>
      </trkpt>
      <trkpt lat="45.92798" lon="4.63642">
        <ele>331</ele>
        <time>2017-03-19T10:06:36Z</time>
      </trkpt>
      <trkpt lat="45.92794" lon="4.63634">
        <ele>331</ele>
        <time>2017-03-19T10:06:38Z</time>
      </trkpt>
      <trkpt lat="45.92792" lon="4.63631">
        <ele>331</ele>
        <time>2017-03-19T10:06:39Z</time>
      </trkpt>
      <trkpt lat="45.92787" lon="4.63625">
        <ele>331</ele>
        <time>2017-03-19T10:06:41Z</time>
      </trkpt>
      <trkpt lat="45.92784" lon="4.63622">
        <ele>331</ele>
        <time>2017-03-19T10:06:42Z</time>
      </trkpt>
      <trkpt lat="45.92779" lon="4.63617">
        <ele>331</ele>
        <time>2017-03-19T10:06:44Z</time>
      </trkpt>
      <trkpt lat="45.92776" lon="4.63614">
        <ele>331</ele>
        <time>2017-03-19T10:06:45Z</time>
      </trkpt>
      <trkpt lat="45.92771" lon="4.63609">
        <ele>331</ele>
        <time>2017-03-19T10:06:47Z</time>
      </trkpt>
      <trkpt lat="45.92769" lon="4.63606">
        <ele>332</ele>
        <time>2017-03-19T10:06:48Z</time>
      </trkpt>
      <trkpt lat="45.92765" lon="4.63594">
        <ele>332</ele>
        <time>2017-03-19T10:06:51Z</time>
      </trkpt>
      <trkpt lat="45.92765" lon="4.6359">
        <ele>332</ele>
        <time>2017-03-19T10:06:52Z</time>
      </trkpt>
      <trkpt lat="45.92764" lon="4.63581">
        <ele>333</ele>
        <time>2017-03-19T10:06:54Z</time>
      </trkpt>
      <trkpt lat="45.92763" lon="4.63576">
        <ele>333</ele>
        <time>2017-03-19T10:06:55Z</time>
      </trkpt>
      <trkpt lat="45.92764" lon="4.63566">
        <ele>333</ele>
        <time>2017-03-19T10:06:57Z</time>
      </trkpt>
      <trkpt lat="45.92764" lon="4.63561">
        <ele>333</ele>
        <time>2017-03-19T10:06:58Z</time>
      </trkpt>
      <trkpt lat="45.92763" lon="4.63552">
        <ele>333</ele>
        <time>2017-03-19T10:07:00Z</time>
      </trkpt>
      <trkpt lat="45.92763" lon="4.63547">
        <ele>333</ele>
        <time>2017-03-19T10:07:01Z</time>
      </trkpt>
      <trkpt lat="45.92763" lon="4.63538">
        <ele>333</ele>
        <time>2017-03-19T10:07:03Z</time>
      </trkpt>
      <trkpt lat="45.92763" lon="4.63534">
        <ele>333</ele>
        <time>2017-03-19T10:07:04Z</time>
      </trkpt>
      <trkpt lat="45.92763" lon="4.63525">
        <ele>333</ele>
        <time>2017-03-19T10:07:06Z</time>
      </trkpt>
      <trkpt lat="45.92763" lon="4.6352">
        <ele>333</ele>
        <time>2017-03-19T10:07:07Z</time>
      </trkpt>
      <trkpt lat="45.92764" lon="4.63508">
        <ele>333</ele>
        <time>2017-03-19T10:07:10Z</time>
      </trkpt>
      <trkpt lat="45.92764" lon="4.63503">
        <ele>333</ele>
        <time>2017-03-19T10:07:11Z</time>
      </trkpt>
      <trkpt lat="45.92765" lon="4.63494">
        <ele>334</ele>
        <time>2017-03-19T10:07:13Z</time>
      </trkpt>
      <trkpt lat="45.92765" lon="4.6349">
        <ele>334</ele>
        <time>2017-03-19T10:07:14Z</time>
      </trkpt>
      <trkpt lat="45.92765" lon="4.63481">
        <ele>334</ele>
        <time>2017-03-19T10:07:16Z</time>
      </trkpt>
      <trkpt lat="45.92765" lon="4.63477">
        <ele>334</ele>
        <time>2017-03-19T10:07:17Z</time>
      </trkpt>
      <trkpt lat="45.92765" lon="4.63468">
        <ele>334</ele>
        <time>2017-03-19T10:07:19Z</time>
      </trkpt>
      <trkpt lat="45.92765" lon="4.63463">
        <ele>334</ele>
        <time>2017-03-19T10:07:20Z</time>
      </trkpt>
      <trkpt lat="45.92765" lon="4.63455">
        <ele>334</ele>
        <time>2017-03-19T10:07:22Z</time>
      </trkpt>
      <trkpt lat="45.92765" lon="4.6345">
        <ele>334</ele>
        <time>2017-03-19T10:07:23Z</time>
      </trkpt>
      <trkpt lat="45.92764" lon="4.63441">
        <ele>334</ele>
        <time>2017-03-19T10:07:25Z</time>
      </trkpt>
      <trkpt lat="45.92764" lon="4.63437">
        <ele>334</ele>
        <time>2017-03-19T10:07:26Z</time>
      </trkpt>
      <trkpt lat="45.92762" lon="4.63428">
        <ele>334</ele>
        <time>2017-03-19T10:07:28Z</time>
      </trkpt>
      <trkpt lat="45.92762" lon="4.63424">
        <ele>334</ele>
        <time>2017-03-19T10:07:29Z</time>
      </trkpt>
      <trkpt lat="45.92761" lon="4.63415">
        <ele>334</ele>
        <time>2017-03-19T10:07:31Z</time>
      </trkpt>
      <trkpt lat="45.9276" lon="4.63411">
        <ele>334</ele>
        <time>2017-03-19T10:07:32Z</time>
      </trkpt>
      <trkpt lat="45.92759" lon="4.63402">
        <ele>334</ele>
        <time>2017-03-19T10:07:34Z</time>
      </trkpt>
      <trkpt lat="45.92759" lon="4.63398">
        <ele>334</ele>
        <time>2017-03-19T10:07:35Z</time>
      </trkpt>
      <trkpt lat="45.92758" lon="4.63389">
        <ele>334</ele>
        <time>2017-03-19T10:07:37Z</time>
      </trkpt>
      <trkpt lat="45.92758" lon="4.63384">
        <ele>334</ele>
        <time>2017-03-19T10:07:38Z</time>
      </trkpt>
      <trkpt lat="45.92758" lon="4.63375">
        <ele>334</ele>
        <time>2017-03-19T10:07:40Z</time>
      </trkpt>
      <trkpt lat="45.92757" lon="4.63371">
        <ele>335</ele>
        <time>2017-03-19T10:07:41Z</time>
      </trkpt>
      <trkpt lat="45.92757" lon="4.63362">
        <ele>335</ele>
        <time>2017-03-19T10:07:43Z</time>
      </trkpt>
      <trkpt lat="45.92756" lon="4.63357">
        <ele>335</ele>
        <time>2017-03-19T10:07:44Z</time>
      </trkpt>
      <trkpt lat="45.92755" lon="4.63348">
        <ele>335</ele>
        <time>2017-03-19T10:07:46Z</time>
      </trkpt>
      <trkpt lat="45.92755" lon="4.63343">
        <ele>335</ele>
        <time>2017-03-19T10:07:47Z</time>
      </trkpt>
      <trkpt lat="45.92754" lon="4.63334">
        <ele>335</ele>
        <time>2017-03-19T10:07:49Z</time>
      </trkpt>
      <trkpt lat="45.92754" lon="4.63329">
        <ele>335</ele>
        <time>2017-03-19T10:07:50Z</time>
      </trkpt>
      <trkpt lat="45.92753" lon="4.6332">
        <ele>335</ele>
        <time>2017-03-19T10:07:52Z</time>
      </trkpt>
      <trkpt lat="45.92753" lon="4.63315">
        <ele>335</ele>
        <time>2017-03-19T10:07:53Z</time>
      </trkpt>
      <trkpt lat="45.92752" lon="4.63306">
        <ele>336</ele>
        <time>2017-03-19T10:07:55Z</time>
      </trkpt>
      <trkpt lat="45.92752" lon="4.63301">
        <ele>336</ele>
        <time>2017-03-19T10:07:56Z</time>
      </trkpt>
      <trkpt lat="45.92752" lon="4.63293">
        <ele>336</ele>
        <time>2017-03-19T10:07:58Z</time>
      </trkpt>
      <trkpt lat="45.92752" lon="4.63288">
        <ele>336</ele>
        <time>2017-03-19T10:07:59Z</time>
      </trkpt>
      <trkpt lat="45.92752" lon="4.63278">
        <ele>336</ele>
        <time>2017-03-19T10:08:01Z</time>
      </trkpt>
      <trkpt lat="45.92751" lon="4.63274">
        <ele>336</ele>
        <time>2017-03-19T10:08:02Z</time>
      </trkpt>
      <trkpt lat="45.92751" lon="4.63265">
        <ele>336</ele>
        <time>2017-03-19T10:08:04Z</time>
      </trkpt>
      <trkpt lat="45.92751" lon="4.6326">
        <ele>336</ele>
        <time>2017-03-19T10:08:05Z</time>
      </trkpt>
      <trkpt lat="45.92752" lon="4.63252">
        <ele>336</ele>
        <time>2017-03-19T10:08:07Z</time>
      </trkpt>
      <trkpt lat="45.92751" lon="4.63247">
        <ele>336</ele>
        <time>2017-03-19T10:08:08Z</time>
      </trkpt>
      <trkpt lat="45.92752" lon="4.63238">
        <ele>337</ele>
        <time>2017-03-19T10:08:10Z</time>
      </trkpt>
      <trkpt lat="45.92752" lon="4.63234">
        <ele>337</ele>
        <time>2017-03-19T10:08:11Z</time>
      </trkpt>
      <trkpt lat="45.92752" lon="4.63225">
        <ele>337</ele>
        <time>2017-03-19T10:08:13Z</time>
      </trkpt>
      <trkpt lat="45.92753" lon="4.6322">
        <ele>337</ele>
        <time>2017-03-19T10:08:14Z</time>
      </trkpt>
      <trkpt lat="45.92754" lon="4.63211">
        <ele>337</ele>
        <time>2017-03-19T10:08:16Z</time>
      </trkpt>
      <trkpt lat="45.92754" lon="4.63207">
        <ele>338</ele>
        <time>2017-03-19T10:08:17Z</time>
      </trkpt>
      <trkpt lat="45.92755" lon="4.63198">
        <ele>338</ele>
        <time>2017-03-19T10:08:19Z</time>
      </trkpt>
      <trkpt lat="45.92756" lon="4.63193">
        <ele>338</ele>
        <time>2017-03-19T10:08:20Z</time>
      </trkpt>
      <trkpt lat="45.92756" lon="4.63184">
        <ele>338</ele>
        <time>2017-03-19T10:08:22Z</time>
      </trkpt>
      <trkpt lat="45.92757" lon="4.6318">
        <ele>338</ele>
        <time>2017-03-19T10:08:23Z</time>
      </trkpt>
      <trkpt lat="45.92757" lon="4.63172">
        <ele>338</ele>
        <time>2017-03-19T10:08:25Z</time>
      </trkpt>
      <trkpt lat="45.92758" lon="4.63167">
        <ele>338</ele>
        <time>2017-03-19T10:08:26Z</time>
      </trkpt>
      <trkpt lat="45.92759" lon="4.63159">
        <ele>339</ele>
        <time>2017-03-19T10:08:28Z</time>
      </trkpt>
      <trkpt lat="45.92758" lon="4.63154">
        <ele>339</ele>
        <time>2017-03-19T10:08:29Z</time>
      </trkpt>
      <trkpt lat="45.9276" lon="4.63145">
        <ele>340</ele>
        <time>2017-03-19T10:08:31Z</time>
      </trkpt>
      <trkpt lat="45.9276" lon="4.63141">
        <ele>340</ele>
        <time>2017-03-19T10:08:32Z</time>
      </trkpt>
      <trkpt lat="45.92762" lon="4.63132">
        <ele>340</ele>
        <time>2017-03-19T10:08:34Z</time>
      </trkpt>
      <trkpt lat="45.92762" lon="4.63128">
        <ele>340</ele>
        <time>2017-03-19T10:08:35Z</time>
      </trkpt>
      <trkpt lat="45.92763" lon="4.63119">
        <ele>340</ele>
        <time>2017-03-19T10:08:37Z</time>
      </trkpt>
      <trkpt lat="45.92764" lon="4.63115">
        <ele>340</ele>
        <time>2017-03-19T10:08:38Z</time>
      </trkpt>
      <trkpt lat="45.92765" lon="4.63106">
        <ele>341</ele>
        <time>2017-03-19T10:08:40Z</time>
      </trkpt>
      <trkpt lat="45.92766" lon="4.63101">
        <ele>341</ele>
        <time>2017-03-19T10:08:41Z</time>
      </trkpt>
      <trkpt lat="45.92767" lon="4.63093">
        <ele>341</ele>
        <time>2017-03-19T10:08:43Z</time>
      </trkpt>
      <trkpt lat="45.92768" lon="4.63088">
        <ele>341</ele>
        <time>2017-03-19T10:08:44Z</time>
      </trkpt>
      <trkpt lat="45.92769" lon="4.63077">
        <ele>342</ele>
        <time>2017-03-19T10:08:47Z</time>
      </trkpt>
      <trkpt lat="45.92769" lon="4.63073">
        <ele>342</ele>
        <time>2017-03-19T10:08:48Z</time>
      </trkpt>
      <trkpt lat="45.92769" lon="4.63061">
        <ele>342</ele>
        <time>2017-03-19T10:08:51Z</time>
      </trkpt>
      <trkpt lat="45.92769" lon="4.63057">
        <ele>342</ele>
        <time>2017-03-19T10:08:52Z</time>
      </trkpt>
      <trkpt lat="45.9277" lon="4.63044">
        <ele>343</ele>
        <time>2017-03-19T10:08:55Z</time>
      </trkpt>
      <trkpt lat="45.9277" lon="4.6304">
        <ele>343</ele>
        <time>2017-03-19T10:08:56Z</time>
      </trkpt>
      <trkpt lat="45.9277" lon="4.63028">
        <ele>343</ele>
        <time>2017-03-19T10:08:59Z</time>
      </trkpt>
      <trkpt lat="45.92769" lon="4.63024">
        <ele>343</ele>
        <time>2017-03-19T10:09:00Z</time>
      </trkpt>
      <trkpt lat="45.92768" lon="4.63011">
        <ele>343</ele>
        <time>2017-03-19T10:09:03Z</time>
      </trkpt>
      <trkpt lat="45.92768" lon="4.63007">
        <ele>343</ele>
        <time>2017-03-19T10:09:04Z</time>
      </trkpt>
      <trkpt lat="45.92768" lon="4.62996">
        <ele>344</ele>
        <time>2017-03-19T10:09:07Z</time>
      </trkpt>
      <trkpt lat="45.92768" lon="4.62992">
        <ele>344</ele>
        <time>2017-03-19T10:09:08Z</time>
      </trkpt>
      <trkpt lat="45.92768" lon="4.62981">
        <ele>344</ele>
        <time>2017-03-19T10:09:11Z</time>
      </trkpt>
      <trkpt lat="45.92768" lon="4.62977">
        <ele>345</ele>
        <time>2017-03-19T10:09:12Z</time>
      </trkpt>
      <trkpt lat="45.92767" lon="4.62966">
        <ele>345</ele>
        <time>2017-03-19T10:09:15Z</time>
      </trkpt>
      <trkpt lat="45.92767" lon="4.62962">
        <ele>345</ele>
        <time>2017-03-19T10:09:16Z</time>
      </trkpt>
      <trkpt lat="45.92767" lon="4.62951">
        <ele>345</ele>
        <time>2017-03-19T10:09:19Z</time>
      </trkpt>
      <trkpt lat="45.92767" lon="4.62947">
        <ele>345</ele>
        <time>2017-03-19T10:09:20Z</time>
      </trkpt>
      <trkpt lat="45.92767" lon="4.62936">
        <ele>345</ele>
        <time>2017-03-19T10:09:23Z</time>
      </trkpt>
      <trkpt lat="45.92767" lon="4.62933">
        <ele>346</ele>
        <time>2017-03-19T10:09:24Z</time>
      </trkpt>
      <trkpt lat="45.92767" lon="4.62922">
        <ele>346</ele>
        <time>2017-03-19T10:09:27Z</time>
      </trkpt>
      <trkpt lat="45.92766" lon="4.62918">
        <ele>346</ele>
        <time>2017-03-19T10:09:28Z</time>
      </trkpt>
      <trkpt lat="45.92767" lon="4.62908">
        <ele>347</ele>
        <time>2017-03-19T10:09:31Z</time>
      </trkpt>
      <trkpt lat="45.92767" lon="4.62905">
        <ele>347</ele>
        <time>2017-03-19T10:09:32Z</time>
      </trkpt>
      <trkpt lat="45.92767" lon="4.62895">
        <ele>348</ele>
        <time>2017-03-19T10:09:35Z</time>
      </trkpt>
      <trkpt lat="45.92767" lon="4.62892">
        <ele>348</ele>
        <time>2017-03-19T10:09:36Z</time>
      </trkpt>
      <trkpt lat="45.92767" lon="4.62882">
        <ele>348</ele>
        <time>2017-03-19T10:09:39Z</time>
      </trkpt>
      <trkpt lat="45.92767" lon="4.62878">
        <ele>348</ele>
        <time>2017-03-19T10:09:40Z</time>
      </trkpt>
      <trkpt lat="45.92767" lon="4.62867">
        <ele>349</ele>
        <time>2017-03-19T10:09:43Z</time>
      </trkpt>
      <trkpt lat="45.92767" lon="4.62863">
        <ele>349</ele>
        <time>2017-03-19T10:09:44Z</time>
      </trkpt>
      <trkpt lat="45.92768" lon="4.62853">
        <ele>349</ele>
        <time>2017-03-19T10:09:47Z</time>
      </trkpt>
      <trkpt lat="45.92768" lon="4.6285">
        <ele>349</ele>
        <time>2017-03-19T10:09:48Z</time>
      </trkpt>
      <trkpt lat="45.92767" lon="4.6284">
        <ele>350</ele>
        <time>2017-03-19T10:09:51Z</time>
      </trkpt>
      <trkpt lat="45.92767" lon="4.62836">
        <ele>350</ele>
        <time>2017-03-19T10:09:52Z</time>
      </trkpt>
      <trkpt lat="45.92766" lon="4.62826">
        <ele>352</ele>
        <time>2017-03-19T10:09:55Z</time>
      </trkpt>
      <trkpt lat="45.92765" lon="4.62822">
        <ele>352</ele>
        <time>2017-03-19T10:09:56Z</time>
      </trkpt>
      <trkpt lat="45.92764" lon="4.62812">
        <ele>352</ele>
        <time>2017-03-19T10:09:59Z</time>
      </trkpt>
      <trkpt lat="45.92764" lon="4.62809">
        <ele>352</ele>
        <time>2017-03-19T10:10:00Z</time>
      </trkpt>
      <trkpt lat="45.92762" lon="4.62798">
        <ele>353</ele>
        <time>2017-03-19T10:10:04Z</time>
      </trkpt>
      <trkpt lat="45.92761" lon="4.62795">
        <ele>353</ele>
        <time>2017-03-19T10:10:05Z</time>
      </trkpt>
      <trkpt lat="45.92757" lon="4.62783">
        <ele>353</ele>
        <time>2017-03-19T10:10:09Z</time>
      </trkpt>
      <trkpt lat="45.92757" lon="4.6278">
        <ele>353</ele>
        <time>2017-03-19T10:10:10Z</time>
      </trkpt>
      <trkpt lat="45.92753" lon="4.62771">
        <ele>354</ele>
        <time>2017-03-19T10:10:13Z</time>
      </trkpt>
      <trkpt lat="45.92752" lon="4.62769">
        <ele>354</ele>
        <time>2017-03-19T10:10:14Z</time>
      </trkpt>
      <trkpt lat="45.92749" lon="4.62757">
        <ele>354</ele>
        <time>2017-03-19T10:10:18Z</time>
      </trkpt>
      <trkpt lat="45.92748" lon="4.62754">
        <ele>354</ele>
        <time>2017-03-19T10:10:19Z</time>
      </trkpt>
      <trkpt lat="45.92744" lon="4.62742">
        <ele>355</ele>
        <time>2017-03-19T10:10:23Z</time>
      </trkpt>
      <trkpt lat="45.92744" lon="4.62739">
        <ele>355</ele>
        <time>2017-03-19T10:10:24Z</time>
      </trkpt>
      <trkpt lat="45.92743" lon="4.62728">
        <ele>355</ele>
        <time>2017-03-19T10:10:28Z</time>
      </trkpt>
      <trkpt lat="45.92742" lon="4.62725">
        <ele>356</ele>
        <time>2017-03-19T10:10:29Z</time>
      </trkpt>
      <trkpt lat="45.92742" lon="4.62712">
        <ele>356</ele>
        <time>2017-03-19T10:10:33Z</time>
      </trkpt>
      <trkpt lat="45.92742" lon="4.62709">
        <ele>356</ele>
        <time>2017-03-19T10:10:34Z</time>
      </trkpt>
      <trkpt lat="45.92742" lon="4.62696">
        <ele>357</ele>
        <time>2017-03-19T10:10:38Z</time>
      </trkpt>
      <trkpt lat="45.92742" lon="4.62693">
        <ele>357</ele>
        <time>2017-03-19T10:10:39Z</time>
      </trkpt>
      <trkpt lat="45.92741" lon="4.62684">
        <ele>357</ele>
        <time>2017-03-19T10:10:42Z</time>
      </trkpt>
      <trkpt lat="45.9274" lon="4.62681">
        <ele>357</ele>
        <time>2017-03-19T10:10:43Z</time>
      </trkpt>
      <trkpt lat="45.92739" lon="4.62671">
        <ele>358</ele>
        <time>2017-03-19T10:10:46Z</time>
      </trkpt>
      <trkpt lat="45.92739" lon="4.62667">
        <ele>358</ele>
        <time>2017-03-19T10:10:47Z</time>
      </trkpt>
      <trkpt lat="45.92737" lon="4.62655">
        <ele>360</ele>
        <time>2017-03-19T10:10:51Z</time>
      </trkpt>
      <trkpt lat="45.92737" lon="4.62652">
        <ele>360</ele>
        <time>2017-03-19T10:10:52Z</time>
      </trkpt>
      <trkpt lat="45.92735" lon="4.62641">
        <ele>361</ele>
        <time>2017-03-19T10:10:55Z</time>
      </trkpt>
      <trkpt lat="45.92734" lon="4.62637">
        <ele>361</ele>
        <time>2017-03-19T10:10:56Z</time>
      </trkpt>
      <trkpt lat="45.92732" lon="4.62625">
        <ele>361</ele>
        <time>2017-03-19T10:11:00Z</time>
      </trkpt>
      <trkpt lat="45.92732" lon="4.62622">
        <ele>362</ele>
        <time>2017-03-19T10:11:01Z</time>
      </trkpt>
      <trkpt lat="45.92731" lon="4.6261">
        <ele>362</ele>
        <time>2017-03-19T10:11:05Z</time>
      </trkpt>
      <trkpt lat="45.9273" lon="4.62606">
        <ele>362</ele>
        <time>2017-03-19T10:11:06Z</time>
      </trkpt>
      <trkpt lat="45.92729" lon="4.62597">
        <ele>363</ele>
        <time>2017-03-19T10:11:09Z</time>
      </trkpt>
      <trkpt lat="45.92729" lon="4.62593">
        <ele>363</ele>
        <time>2017-03-19T10:11:10Z</time>
      </trkpt>
      <trkpt lat="45.92729" lon="4.62583">
        <ele>365</ele>
        <time>2017-03-19T10:11:13Z</time>
      </trkpt>
      <trkpt lat="45.92729" lon="4.62579">
        <ele>366</ele>
        <time>2017-03-19T10:11:14Z</time>
      </trkpt>
      <trkpt lat="45.92728" lon="4.62569">
        <ele>366</ele>
        <time>2017-03-19T10:11:17Z</time>
      </trkpt>
      <trkpt lat="45.92727" lon="4.62565">
        <ele>366</ele>
        <time>2017-03-19T10:11:18Z</time>
      </trkpt>
      <trkpt lat="45.92727" lon="4.62552">
        <ele>366</ele>
        <time>2017-03-19T10:11:22Z</time>
      </trkpt>
      <trkpt lat="45.92727" lon="4.62549">
        <ele>366</ele>
        <time>2017-03-19T10:11:23Z</time>
      </trkpt>
      <trkpt lat="45.92727" lon="4.62538">
        <ele>366</ele>
        <time>2017-03-19T10:11:27Z</time>
      </trkpt>
      <trkpt lat="45.92727" lon="4.62535">
        <ele>366</ele>
        <time>2017-03-19T10:11:28Z</time>
      </trkpt>
      <trkpt lat="45.92726" lon="4.62525">
        <ele>367</ele>
        <time>2017-03-19T10:11:31Z</time>
      </trkpt>
      <trkpt lat="45.92725" lon="4.62522">
        <ele>367</ele>
        <time>2017-03-19T10:11:32Z</time>
      </trkpt>
      <trkpt lat="45.92725" lon="4.62511">
        <ele>367</ele>
        <time>2017-03-19T10:11:35Z</time>
      </trkpt>
      <trkpt lat="45.92725" lon="4.62507">
        <ele>367</ele>
        <time>2017-03-19T10:11:36Z</time>
      </trkpt>
      <trkpt lat="45.92725" lon="4.62495">
        <ele>369</ele>
        <time>2017-03-19T10:11:40Z</time>
      </trkpt>
      <trkpt lat="45.92725" lon="4.62492">
        <ele>369</ele>
        <time>2017-03-19T10:11:41Z</time>
      </trkpt>
      <trkpt lat="45.92726" lon="4.6248">
        <ele>369</ele>
        <time>2017-03-19T10:11:45Z</time>
      </trkpt>
      <trkpt lat="45.92726" lon="4.62477">
        <ele>370</ele>
        <time>2017-03-19T10:11:46Z</time>
      </trkpt>
      <trkpt lat="45.92726" lon="4.62466">
        <ele>370</ele>
        <time>2017-03-19T10:11:49Z</time>
      </trkpt>
      <trkpt lat="45.92727" lon="4.62463">
        <ele>370</ele>
        <time>2017-03-19T10:11:50Z</time>
      </trkpt>
      <trkpt lat="45.92727" lon="4.62451">
        <ele>370</ele>
        <time>2017-03-19T10:11:54Z</time>
      </trkpt>
      <trkpt lat="45.92727" lon="4.62448">
        <ele>370</ele>
        <time>2017-03-19T10:11:55Z</time>
      </trkpt>
      <trkpt lat="45.92727" lon="4.62436">
        <ele>371</ele>
        <time>2017-03-19T10:11:59Z</time>
      </trkpt>
      <trkpt lat="45.92727" lon="4.62433">
        <ele>371</ele>
        <time>2017-03-19T10:12:00Z</time>
      </trkpt>
      <trkpt lat="45.92727" lon="4.62421">
        <ele>371</ele>
        <time>2017-03-19T10:12:04Z</time>
      </trkpt>
      <trkpt lat="45.92727" lon="4.62418">
        <ele>371</ele>
        <time>2017-03-19T10:12:05Z</time>
      </trkpt>
      <trkpt lat="45.92728" lon="4.62407">
        <ele>373</ele>
        <time>2017-03-19T10:12:08Z</time>
      </trkpt>
      <trkpt lat="45.92728" lon="4.62404">
        <ele>373</ele>
        <time>2017-03-19T10:12:09Z</time>
      </trkpt>
      <trkpt lat="45.92728" lon="4.62392">
        <ele>373</ele>
        <time>2017-03-19T10:12:13Z</time>
      </trkpt>
      <trkpt lat="45.92728" lon="4.62388">
        <ele>373</ele>
        <time>2017-03-19T10:12:14Z</time>
      </trkpt>
      <trkpt lat="45.92728" lon="4.62376">
        <ele>373</ele>
        <time>2017-03-19T10:12:18Z</time>
      </trkpt>
      <trkpt lat="45.92727" lon="4.62373">
        <ele>373</ele>
        <time>2017-03-19T10:12:19Z</time>
      </trkpt>
      <trkpt lat="45.92725" lon="4.62361">
        <ele>373</ele>
        <time>2017-03-19T10:12:23Z</time>
      </trkpt>
      <trkpt lat="45.92724" lon="4.62357">
        <ele>374</ele>
        <time>2017-03-19T10:12:24Z</time>
      </trkpt>
      <trkpt lat="45.92722" lon="4.62345">
        <ele>374</ele>
        <time>2017-03-19T10:12:28Z</time>
      </trkpt>
      <trkpt lat="45.92721" lon="4.62342">
        <ele>374</ele>
        <time>2017-03-19T10:12:29Z</time>
      </trkpt>
      <trkpt lat="45.92718" lon="4.62332">
        <ele>375</ele>
        <time>2017-03-19T10:12:32Z</time>
      </trkpt>
      <trkpt lat="45.92717" lon="4.62329">
        <ele>375</ele>
        <time>2017-03-19T10:12:33Z</time>
      </trkpt>
      <trkpt lat="45.92713" lon="4.6232">
        <ele>375</ele>
        <time>2017-03-19T10:12:36Z</time>
      </trkpt>
      <trkpt lat="45.92712" lon="4.62316">
        <ele>375</ele>
        <time>2017-03-19T10:12:37Z</time>
      </trkpt>
      <trkpt lat="45.92709" lon="4.62305">
        <ele>375</ele>
        <time>2017-03-19T10:12:40Z</time>
      </trkpt>
      <trkpt lat="45.92708" lon="4.62302">
        <ele>375</ele>
        <time>2017-03-19T10:12:41Z</time>
      </trkpt>
      <trkpt lat="45.92706" lon="4.6229">
        <ele>375</ele>
        <time>2017-03-19T10:12:44Z</time>
      </trkpt>
      <trkpt lat="45.92705" lon="4.62286">
        <ele>375</ele>
        <time>2017-03-19T10:12:45Z</time>
      </trkpt>
      <trkpt lat="45.92703" lon="4.62275">
        <ele>375</ele>
        <time>2017-03-19T10:12:48Z</time>
      </trkpt>
      <trkpt lat="45.92703" lon="4.62271">
        <ele>375</ele>
        <time>2017-03-19T10:12:49Z</time>
      </trkpt>
      <trkpt lat="45.92702" lon="4.62259">
        <ele>375</ele>
        <time>2017-03-19T10:12:52Z</time>
      </trkpt>
      <trkpt lat="45.92702" lon="4.62255">
        <ele>375</ele>
        <time>2017-03-19T10:12:53Z</time>
      </trkpt>
      <trkpt lat="45.92701" lon="4.62246">
        <ele>375</ele>
        <time>2017-03-19T10:12:55Z</time>
      </trkpt>
      <trkpt lat="45.927" lon="4.62241">
        <ele>375</ele>
        <time>2017-03-19T10:12:56Z</time>
      </trkpt>
      <trkpt lat="45.927" lon="4.62232">
        <ele>375</ele>
        <time>2017-03-19T10:12:58Z</time>
      </trkpt>
      <trkpt lat="45.92699" lon="4.62227">
        <ele>375</ele>
        <time>2017-03-19T10:12:59Z</time>
      </trkpt>
      <trkpt lat="45.92698" lon="4.62218">
        <ele>375</ele>
        <time>2017-03-19T10:13:01Z</time>
      </trkpt>
      <trkpt lat="45.92697" lon="4.62214">
        <ele>375</ele>
        <time>2017-03-19T10:13:02Z</time>
      </trkpt>
      <trkpt lat="45.92696" lon="4.62204">
        <ele>375</ele>
        <time>2017-03-19T10:13:04Z</time>
      </trkpt>
      <trkpt lat="45.92695" lon="4.622">
        <ele>375</ele>
        <time>2017-03-19T10:13:05Z</time>
      </trkpt>
      <trkpt lat="45.92694" lon="4.6219">
        <ele>375</ele>
        <time>2017-03-19T10:13:07Z</time>
      </trkpt>
      <trkpt lat="45.92693" lon="4.62184">
        <ele>375</ele>
        <time>2017-03-19T10:13:08Z</time>
      </trkpt>
      <trkpt lat="45.92692" lon="4.62175">
        <ele>375</ele>
        <time>2017-03-19T10:13:10Z</time>
      </trkpt>
      <trkpt lat="45.92691" lon="4.6217">
        <ele>375</ele>
        <time>2017-03-19T10:13:11Z</time>
      </trkpt>
      <trkpt lat="45.92689" lon="4.6216">
        <ele>375</ele>
        <time>2017-03-19T10:13:13Z</time>
      </trkpt>
      <trkpt lat="45.92689" lon="4.62156">
        <ele>375</ele>
        <time>2017-03-19T10:13:14Z</time>
      </trkpt>
      <trkpt lat="45.92689" lon="4.62145">
        <ele>375</ele>
        <time>2017-03-19T10:13:16Z</time>
      </trkpt>
      <trkpt lat="45.92689" lon="4.6214">
        <ele>375</ele>
        <time>2017-03-19T10:13:17Z</time>
      </trkpt>
      <trkpt lat="45.92689" lon="4.62128">
        <ele>375</ele>
        <time>2017-03-19T10:13:19Z</time>
      </trkpt>
      <trkpt lat="45.9269" lon="4.62122">
        <ele>375</ele>
        <time>2017-03-19T10:13:20Z</time>
      </trkpt>
      <trkpt lat="45.9269" lon="4.6211">
        <ele>375</ele>
        <time>2017-03-19T10:13:22Z</time>
      </trkpt>
      <trkpt lat="45.92691" lon="4.62105">
        <ele>375</ele>
        <time>2017-03-19T10:13:23Z</time>
      </trkpt>
      <trkpt lat="45.92693" lon="4.62093">
        <ele>375</ele>
        <time>2017-03-19T10:13:25Z</time>
      </trkpt>
      <trkpt lat="45.92694" lon="4.62088">
        <ele>375</ele>
        <time>2017-03-19T10:13:26Z</time>
      </trkpt>
      <trkpt lat="45.92696" lon="4.62082">
        <ele>374</ele>
        <time>2017-03-19T10:13:27Z</time>
      </trkpt>
      <trkpt lat="45.92698" lon="4.62076">
        <ele>374</ele>
        <time>2017-03-19T10:13:28Z</time>
      </trkpt>
      <trkpt lat="45.927" lon="4.6207">
        <ele>374</ele>
        <time>2017-03-19T10:13:29Z</time>
      </trkpt>
      <trkpt lat="45.92702" lon="4.62064">
        <ele>374</ele>
        <time>2017-03-19T10:13:30Z</time>
      </trkpt>
      <trkpt lat="45.92707" lon="4.62053">
        <ele>374</ele>
        <time>2017-03-19T10:13:32Z</time>
      </trkpt>
      <trkpt lat="45.92709" lon="4.62048">
        <ele>374</ele>
        <time>2017-03-19T10:13:33Z</time>
      </trkpt>
      <trkpt lat="45.92712" lon="4.62037">
        <ele>374</ele>
        <time>2017-03-19T10:13:35Z</time>
      </trkpt>
      <trkpt lat="45.92715" lon="4.62032">
        <ele>374</ele>
        <time>2017-03-19T10:13:36Z</time>
      </trkpt>
      <trkpt lat="45.92719" lon="4.62021">
        <ele>374</ele>
        <time>2017-03-19T10:13:38Z</time>
      </trkpt>
      <trkpt lat="45.92721" lon="4.62015">
        <ele>374</ele>
        <time>2017-03-19T10:13:39Z</time>
      </trkpt>
      <trkpt lat="45.92726" lon="4.62005">
        <ele>374</ele>
        <time>2017-03-19T10:13:41Z</time>
      </trkpt>
      <trkpt lat="45.92728" lon="4.62">
        <ele>374</ele>
        <time>2017-03-19T10:13:42Z</time>
      </trkpt>
      <trkpt lat="45.9273" lon="4.61994">
        <ele>374</ele>
        <time>2017-03-19T10:13:43Z</time>
      </trkpt>
      <trkpt lat="45.92733" lon="4.61989">
        <ele>374</ele>
        <time>2017-03-19T10:13:44Z</time>
      </trkpt>
      <trkpt lat="45.92738" lon="4.61979">
        <ele>374</ele>
        <time>2017-03-19T10:13:46Z</time>
      </trkpt>
      <trkpt lat="45.9274" lon="4.61975">
        <ele>374</ele>
        <time>2017-03-19T10:13:47Z</time>
      </trkpt>
      <trkpt lat="45.92744" lon="4.61965">
        <ele>374</ele>
        <time>2017-03-19T10:13:49Z</time>
      </trkpt>
      <trkpt lat="45.92747" lon="4.6196">
        <ele>374</ele>
        <time>2017-03-19T10:13:50Z</time>
      </trkpt>
      <trkpt lat="45.92751" lon="4.61949">
        <ele>375</ele>
        <time>2017-03-19T10:13:52Z</time>
      </trkpt>
      <trkpt lat="45.92753" lon="4.61943">
        <ele>375</ele>
        <time>2017-03-19T10:13:53Z</time>
      </trkpt>
      <trkpt lat="45.92757" lon="4.61933">
        <ele>375</ele>
        <time>2017-03-19T10:13:55Z</time>
      </trkpt>
      <trkpt lat="45.92759" lon="4.61928">
        <ele>375</ele>
        <time>2017-03-19T10:13:56Z</time>
      </trkpt>
      <trkpt lat="45.9276" lon="4.61916">
        <ele>376</ele>
        <time>2017-03-19T10:13:58Z</time>
      </trkpt>
      <trkpt lat="45.9276" lon="4.6191">
        <ele>376</ele>
        <time>2017-03-19T10:13:59Z</time>
      </trkpt>
      <trkpt lat="45.9276" lon="4.61899">
        <ele>377</ele>
        <time>2017-03-19T10:14:01Z</time>
      </trkpt>
      <trkpt lat="45.9276" lon="4.61894">
        <ele>377</ele>
        <time>2017-03-19T10:14:02Z</time>
      </trkpt>
      <trkpt lat="45.92761" lon="4.61883">
        <ele>377</ele>
        <time>2017-03-19T10:14:04Z</time>
      </trkpt>
      <trkpt lat="45.92761" lon="4.61878">
        <ele>377</ele>
        <time>2017-03-19T10:14:05Z</time>
      </trkpt>
      <trkpt lat="45.92761" lon="4.61866">
        <ele>377</ele>
        <time>2017-03-19T10:14:08Z</time>
      </trkpt>
      <trkpt lat="45.9276" lon="4.61863">
        <ele>377</ele>
        <time>2017-03-19T10:14:09Z</time>
      </trkpt>
      <trkpt lat="45.92758" lon="4.61853">
        <ele>378</ele>
        <time>2017-03-19T10:14:11Z</time>
      </trkpt>
      <trkpt lat="45.92757" lon="4.61848">
        <ele>378</ele>
        <time>2017-03-19T10:14:12Z</time>
      </trkpt>
      <trkpt lat="45.92758" lon="4.6184">
        <ele>378</ele>
        <time>2017-03-19T10:14:14Z</time>
      </trkpt>
      <trkpt lat="45.92758" lon="4.61835">
        <ele>378</ele>
        <time>2017-03-19T10:14:15Z</time>
      </trkpt>
      <trkpt lat="45.92759" lon="4.61825">
        <ele>380</ele>
        <time>2017-03-19T10:14:17Z</time>
      </trkpt>
      <trkpt lat="45.9276" lon="4.61821">
        <ele>380</ele>
        <time>2017-03-19T10:14:18Z</time>
      </trkpt>
      <trkpt lat="45.92761" lon="4.6181">
        <ele>381</ele>
        <time>2017-03-19T10:14:21Z</time>
      </trkpt>
      <trkpt lat="45.92761" lon="4.61807">
        <ele>381</ele>
        <time>2017-03-19T10:14:22Z</time>
      </trkpt>
      <trkpt lat="45.92764" lon="4.61796">
        <ele>381</ele>
        <time>2017-03-19T10:14:26Z</time>
      </trkpt>
      <trkpt lat="45.92765" lon="4.61793">
        <ele>381</ele>
        <time>2017-03-19T10:14:27Z</time>
      </trkpt>
      <trkpt lat="45.92768" lon="4.61781">
        <ele>382</ele>
        <time>2017-03-19T10:14:31Z</time>
      </trkpt>
      <trkpt lat="45.92769" lon="4.61779">
        <ele>382</ele>
        <time>2017-03-19T10:14:32Z</time>
      </trkpt>
      <trkpt lat="45.92772" lon="4.6177">
        <ele>382</ele>
        <time>2017-03-19T10:14:35Z</time>
      </trkpt>
      <trkpt lat="45.92773" lon="4.61767">
        <ele>382</ele>
        <time>2017-03-19T10:14:36Z</time>
      </trkpt>
      <trkpt lat="45.92778" lon="4.61759">
        <ele>382</ele>
        <time>2017-03-19T10:14:39Z</time>
      </trkpt>
      <trkpt lat="45.9278" lon="4.61757">
        <ele>382</ele>
        <time>2017-03-19T10:14:40Z</time>
      </trkpt>
      <trkpt lat="45.92784" lon="4.61748">
        <ele>385</ele>
        <time>2017-03-19T10:14:43Z</time>
      </trkpt>
      <trkpt lat="45.92785" lon="4.61746">
        <ele>385</ele>
        <time>2017-03-19T10:14:44Z</time>
      </trkpt>
      <trkpt lat="45.9279" lon="4.61736">
        <ele>385</ele>
        <time>2017-03-19T10:14:48Z</time>
      </trkpt>
      <trkpt lat="45.92792" lon="4.61733">
        <ele>385</ele>
        <time>2017-03-19T10:14:49Z</time>
      </trkpt>
      <trkpt lat="45.92795" lon="4.61724">
        <ele>385</ele>
        <time>2017-03-19T10:14:52Z</time>
      </trkpt>
      <trkpt lat="45.92796" lon="4.6172">
        <ele>385</ele>
        <time>2017-03-19T10:14:53Z</time>
      </trkpt>
      <trkpt lat="45.92798" lon="4.6171">
        <ele>386</ele>
        <time>2017-03-19T10:14:56Z</time>
      </trkpt>
      <trkpt lat="45.92798" lon="4.61707">
        <ele>386</ele>
        <time>2017-03-19T10:14:57Z</time>
      </trkpt>
      <trkpt lat="45.92797" lon="4.61697">
        <ele>386</ele>
        <time>2017-03-19T10:15:00Z</time>
      </trkpt>
      <trkpt lat="45.92797" lon="4.61693">
        <ele>386</ele>
        <time>2017-03-19T10:15:01Z</time>
      </trkpt>
      <trkpt lat="45.92796" lon="4.61682">
        <ele>386</ele>
        <time>2017-03-19T10:15:04Z</time>
      </trkpt>
      <trkpt lat="45.92795" lon="4.61679">
        <ele>386</ele>
        <time>2017-03-19T10:15:05Z</time>
      </trkpt>
      <trkpt lat="45.92791" lon="4.61669">
        <ele>386</ele>
        <time>2017-03-19T10:15:08Z</time>
      </trkpt>
      <trkpt lat="45.92789" lon="4.61666">
        <ele>388</ele>
        <time>2017-03-19T10:15:09Z</time>
      </trkpt>
      <trkpt lat="45.92786" lon="4.61655">
        <ele>388</ele>
        <time>2017-03-19T10:15:12Z</time>
      </trkpt>
      <trkpt lat="45.92786" lon="4.61652">
        <ele>388</ele>
        <time>2017-03-19T10:15:13Z</time>
      </trkpt>
      <trkpt lat="45.92781" lon="4.61642">
        <ele>388</ele>
        <time>2017-03-19T10:15:16Z</time>
      </trkpt>
      <trkpt lat="45.92779" lon="4.6164">
        <ele>388</ele>
        <time>2017-03-19T10:15:17Z</time>
      </trkpt>
      <trkpt lat="45.92773" lon="4.61632">
        <ele>388</ele>
        <time>2017-03-19T10:15:20Z</time>
      </trkpt>
      <trkpt lat="45.92771" lon="4.61629">
        <ele>388</ele>
        <time>2017-03-19T10:15:21Z</time>
      </trkpt>
      <trkpt lat="45.92766" lon="4.61621">
        <ele>389</ele>
        <time>2017-03-19T10:15:24Z</time>
      </trkpt>
      <trkpt lat="45.92764" lon="4.61619">
        <ele>389</ele>
        <time>2017-03-19T10:15:25Z</time>
      </trkpt>
      <trkpt lat="45.92759" lon="4.61612">
        <ele>389</ele>
        <time>2017-03-19T10:15:28Z</time>
      </trkpt>
      <trkpt lat="45.92757" lon="4.6161">
        <ele>389</ele>
        <time>2017-03-19T10:15:29Z</time>
      </trkpt>
      <trkpt lat="45.92752" lon="4.61602">
        <ele>390</ele>
        <time>2017-03-19T10:15:32Z</time>
      </trkpt>
      <trkpt lat="45.9275" lon="4.61599">
        <ele>390</ele>
        <time>2017-03-19T10:15:33Z</time>
      </trkpt>
      <trkpt lat="45.92745" lon="4.61591">
        <ele>389</ele>
        <time>2017-03-19T10:15:36Z</time>
      </trkpt>
      <trkpt lat="45.92743" lon="4.61588">
        <ele>389</ele>
        <time>2017-03-19T10:15:37Z</time>
      </trkpt>
      <trkpt lat="45.92739" lon="4.6158">
        <ele>391</ele>
        <time>2017-03-19T10:15:40Z</time>
      </trkpt>
      <trkpt lat="45.92737" lon="4.61578">
        <ele>391</ele>
        <time>2017-03-19T10:15:41Z</time>
      </trkpt>
      <trkpt lat="45.92732" lon="4.61571">
        <ele>391</ele>
        <time>2017-03-19T10:15:44Z</time>
      </trkpt>
      <trkpt lat="45.92731" lon="4.61569">
        <ele>391</ele>
        <time>2017-03-19T10:15:45Z</time>
      </trkpt>
      <trkpt lat="45.92725" lon="4.61561">
        <ele>391</ele>
        <time>2017-03-19T10:15:48Z</time>
      </trkpt>
      <trkpt lat="45.92724" lon="4.61559">
        <ele>392</ele>
        <time>2017-03-19T10:15:49Z</time>
      </trkpt>
      <trkpt lat="45.92719" lon="4.6155">
        <ele>392</ele>
        <time>2017-03-19T10:15:53Z</time>
      </trkpt>
      <trkpt lat="45.92718" lon="4.61547">
        <ele>392</ele>
        <time>2017-03-19T10:15:54Z</time>
      </trkpt>
      <trkpt lat="45.92713" lon="4.61537">
        <ele>392</ele>
        <time>2017-03-19T10:15:58Z</time>
      </trkpt>
      <trkpt lat="45.92711" lon="4.61535">
        <ele>392</ele>
        <time>2017-03-19T10:15:59Z</time>
      </trkpt>
      <trkpt lat="45.92705" lon="4.61527">
        <ele>392</ele>
        <time>2017-03-19T10:16:03Z</time>
      </trkpt>
      <trkpt lat="45.92704" lon="4.61525">
        <ele>392</ele>
        <time>2017-03-19T10:16:04Z</time>
      </trkpt>
      <trkpt lat="45.92699" lon="4.61515">
        <ele>393</ele>
        <time>2017-03-19T10:16:08Z</time>
      </trkpt>
      <trkpt lat="45.92698" lon="4.61512">
        <ele>393</ele>
        <time>2017-03-19T10:16:09Z</time>
      </trkpt>
      <trkpt lat="45.92693" lon="4.61502">
        <ele>393</ele>
        <time>2017-03-19T10:16:13Z</time>
      </trkpt>
      <trkpt lat="45.92693" lon="4.61499">
        <ele>398</ele>
        <time>2017-03-19T10:16:14Z</time>
      </trkpt>
      <trkpt lat="45.92688" lon="4.61491">
        <ele>397</ele>
        <time>2017-03-19T10:16:18Z</time>
      </trkpt>
      <trkpt lat="45.92687" lon="4.61489">
        <ele>397</ele>
        <time>2017-03-19T10:16:19Z</time>
      </trkpt>
      <trkpt lat="45.92682" lon="4.6148">
        <ele>398</ele>
        <time>2017-03-19T10:16:23Z</time>
      </trkpt>
      <trkpt lat="45.9268" lon="4.61479">
        <ele>398</ele>
        <time>2017-03-19T10:16:24Z</time>
      </trkpt>
      <trkpt lat="45.92675" lon="4.61472">
        <ele>398</ele>
        <time>2017-03-19T10:16:27Z</time>
      </trkpt>
      <trkpt lat="45.92674" lon="4.61469">
        <ele>399</ele>
        <time>2017-03-19T10:16:28Z</time>
      </trkpt>
      <trkpt lat="45.92669" lon="4.61459">
        <ele>400</ele>
        <time>2017-03-19T10:16:32Z</time>
      </trkpt>
      <trkpt lat="45.92668" lon="4.61457">
        <ele>400</ele>
        <time>2017-03-19T10:16:33Z</time>
      </trkpt>
      <trkpt lat="45.92664" lon="4.61448">
        <ele>397</ele>
        <time>2017-03-19T10:16:37Z</time>
      </trkpt>
      <trkpt lat="45.92663" lon="4.61446">
        <ele>398</ele>
        <time>2017-03-19T10:16:38Z</time>
      </trkpt>
      <trkpt lat="45.92658" lon="4.61437">
        <ele>399</ele>
        <time>2017-03-19T10:16:42Z</time>
      </trkpt>
      <trkpt lat="45.92657" lon="4.61434">
        <ele>399</ele>
        <time>2017-03-19T10:16:43Z</time>
      </trkpt>
      <trkpt lat="45.92654" lon="4.61424">
        <ele>400</ele>
        <time>2017-03-19T10:16:47Z</time>
      </trkpt>
      <trkpt lat="45.92653" lon="4.61422">
        <ele>400</ele>
        <time>2017-03-19T10:16:48Z</time>
      </trkpt>
      <trkpt lat="45.92648" lon="4.61413">
        <ele>403</ele>
        <time>2017-03-19T10:16:52Z</time>
      </trkpt>
      <trkpt lat="45.92647" lon="4.61411">
        <ele>403</ele>
        <time>2017-03-19T10:16:53Z</time>
      </trkpt>
      <trkpt lat="45.92642" lon="4.614">
        <ele>403</ele>
        <time>2017-03-19T10:16:57Z</time>
      </trkpt>
      <trkpt lat="45.92641" lon="4.61398">
        <ele>403</ele>
        <time>2017-03-19T10:16:58Z</time>
      </trkpt>
      <trkpt lat="45.92636" lon="4.61387">
        <ele>403</ele>
        <time>2017-03-19T10:17:02Z</time>
      </trkpt>
      <trkpt lat="45.92635" lon="4.61384">
        <ele>403</ele>
        <time>2017-03-19T10:17:03Z</time>
      </trkpt>
      <trkpt lat="45.92631" lon="4.61374">
        <ele>403</ele>
        <time>2017-03-19T10:17:07Z</time>
      </trkpt>
      <trkpt lat="45.9263" lon="4.61371">
        <ele>403</ele>
        <time>2017-03-19T10:17:08Z</time>
      </trkpt>
      <trkpt lat="45.92625" lon="4.61361">
        <ele>404</ele>
        <time>2017-03-19T10:17:12Z</time>
      </trkpt>
      <trkpt lat="45.92624" lon="4.61359">
        <ele>404</ele>
        <time>2017-03-19T10:17:13Z</time>
      </trkpt>
      <trkpt lat="45.9262" lon="4.61349">
        <ele>404</ele>
        <time>2017-03-19T10:17:17Z</time>
      </trkpt>
      <trkpt lat="45.92619" lon="4.61347">
        <ele>404</ele>
        <time>2017-03-19T10:17:18Z</time>
      </trkpt>
      <trkpt lat="45.92615" lon="4.61336">
        <ele>404</ele>
        <time>2017-03-19T10:17:22Z</time>
      </trkpt>
      <trkpt lat="45.92614" lon="4.61334">
        <ele>404</ele>
        <time>2017-03-19T10:17:23Z</time>
      </trkpt>
      <trkpt lat="45.92611" lon="4.61323">
        <ele>408</ele>
        <time>2017-03-19T10:17:27Z</time>
      </trkpt>
      <trkpt lat="45.92611" lon="4.6132">
        <ele>408</ele>
        <time>2017-03-19T10:17:28Z</time>
      </trkpt>
      <trkpt lat="45.92607" lon="4.61309">
        <ele>408</ele>
        <time>2017-03-19T10:17:32Z</time>
      </trkpt>
      <trkpt lat="45.92606" lon="4.61307">
        <ele>408</ele>
        <time>2017-03-19T10:17:33Z</time>
      </trkpt>
      <trkpt lat="45.92604" lon="4.61296">
        <ele>408</ele>
        <time>2017-03-19T10:17:37Z</time>
      </trkpt>
      <trkpt lat="45.92603" lon="4.61293">
        <ele>408</ele>
        <time>2017-03-19T10:17:38Z</time>
      </trkpt>
      <trkpt lat="45.926" lon="4.61282">
        <ele>409</ele>
        <time>2017-03-19T10:17:42Z</time>
      </trkpt>
      <trkpt lat="45.92599" lon="4.61279">
        <ele>409</ele>
        <time>2017-03-19T10:17:43Z</time>
      </trkpt>
      <trkpt lat="45.92596" lon="4.61269">
        <ele>408</ele>
        <time>2017-03-19T10:17:47Z</time>
      </trkpt>
      <trkpt lat="45.92595" lon="4.61267">
        <ele>408</ele>
        <time>2017-03-19T10:17:48Z</time>
      </trkpt>
      <trkpt lat="45.92591" lon="4.61258">
        <ele>408</ele>
        <time>2017-03-19T10:17:51Z</time>
      </trkpt>
      <trkpt lat="45.9259" lon="4.61255">
        <ele>408</ele>
        <time>2017-03-19T10:17:52Z</time>
      </trkpt>
      <trkpt lat="45.92586" lon="4.61245">
        <ele>409</ele>
        <time>2017-03-19T10:17:56Z</time>
      </trkpt>
      <trkpt lat="45.92585" lon="4.61242">
        <ele>409</ele>
        <time>2017-03-19T10:17:57Z</time>
      </trkpt>
      <trkpt lat="45.92583" lon="4.61231">
        <ele>409</ele>
        <time>2017-03-19T10:18:01Z</time>
      </trkpt>
      <trkpt lat="45.92582" lon="4.61229">
        <ele>409</ele>
        <time>2017-03-19T10:18:02Z</time>
      </trkpt>
      <trkpt lat="45.92579" lon="4.61219">
        <ele>409</ele>
        <time>2017-03-19T10:18:06Z</time>
      </trkpt>
      <trkpt lat="45.92578" lon="4.61217">
        <ele>410</ele>
        <time>2017-03-19T10:18:07Z</time>
      </trkpt>
      <trkpt lat="45.92573" lon="4.61207">
        <ele>410</ele>
        <time>2017-03-19T10:18:11Z</time>
      </trkpt>
      <trkpt lat="45.92572" lon="4.61204">
        <ele>410</ele>
        <time>2017-03-19T10:18:12Z</time>
      </trkpt>
      <trkpt lat="45.92568" lon="4.61194">
        <ele>411</ele>
        <time>2017-03-19T10:18:16Z</time>
      </trkpt>
      <trkpt lat="45.92567" lon="4.61192">
        <ele>411</ele>
        <time>2017-03-19T10:18:17Z</time>
      </trkpt>
      <trkpt lat="45.92563" lon="4.61183">
        <ele>412</ele>
        <time>2017-03-19T10:18:20Z</time>
      </trkpt>
      <trkpt lat="45.92562" lon="4.61181">
        <ele>412</ele>
        <time>2017-03-19T10:18:21Z</time>
      </trkpt>
      <trkpt lat="45.92558" lon="4.61172">
        <ele>412</ele>
        <time>2017-03-19T10:18:25Z</time>
      </trkpt>
      <trkpt lat="45.92557" lon="4.6117">
        <ele>412</ele>
        <time>2017-03-19T10:18:26Z</time>
      </trkpt>
      <trkpt lat="45.92553" lon="4.6116">
        <ele>416</ele>
        <time>2017-03-19T10:18:30Z</time>
      </trkpt>
      <trkpt lat="45.92552" lon="4.61157">
        <ele>416</ele>
        <time>2017-03-19T10:18:31Z</time>
      </trkpt>
      <trkpt lat="45.9255" lon="4.61147">
        <ele>416</ele>
        <time>2017-03-19T10:18:35Z</time>
      </trkpt>
      <trkpt lat="45.9255" lon="4.61144">
        <ele>416</ele>
        <time>2017-03-19T10:18:36Z</time>
      </trkpt>
      <trkpt lat="45.9255" lon="4.61132">
        <ele>417</ele>
        <time>2017-03-19T10:18:41Z</time>
      </trkpt>
      <trkpt lat="45.92551" lon="4.6113">
        <ele>417</ele>
        <time>2017-03-19T10:18:42Z</time>
      </trkpt>
      <trkpt lat="45.92558" lon="4.61124">
        <ele>417</ele>
        <time>2017-03-19T10:18:47Z</time>
      </trkpt>
      <trkpt lat="45.92559" lon="4.61122">
        <ele>417</ele>
        <time>2017-03-19T10:18:48Z</time>
      </trkpt>
      <trkpt lat="45.92565" lon="4.61112">
        <ele>418</ele>
        <time>2017-03-19T10:18:52Z</time>
      </trkpt>
      <trkpt lat="45.92567" lon="4.6111">
        <ele>418</ele>
        <time>2017-03-19T10:18:53Z</time>
      </trkpt>
      <trkpt lat="45.92572" lon="4.61102">
        <ele>418</ele>
        <time>2017-03-19T10:18:57Z</time>
      </trkpt>
      <trkpt lat="45.92574" lon="4.611">
        <ele>418</ele>
        <time>2017-03-19T10:18:58Z</time>
      </trkpt>
      <trkpt lat="45.92579" lon="4.61093">
        <ele>419</ele>
        <time>2017-03-19T10:19:02Z</time>
      </trkpt>
      <trkpt lat="45.9258" lon="4.61091">
        <ele>419</ele>
        <time>2017-03-19T10:19:03Z</time>
      </trkpt>
      <trkpt lat="45.92586" lon="4.61081">
        <ele>420</ele>
        <time>2017-03-19T10:19:08Z</time>
      </trkpt>
      <trkpt lat="45.92586" lon="4.61079">
        <ele>421</ele>
        <time>2017-03-19T10:19:09Z</time>
      </trkpt>
      <trkpt lat="45.9259" lon="4.61068">
        <ele>421</ele>
        <time>2017-03-19T10:19:13Z</time>
      </trkpt>
      <trkpt lat="45.9259" lon="4.61066">
        <ele>422</ele>
        <time>2017-03-19T10:19:14Z</time>
      </trkpt>
      <trkpt lat="45.92593" lon="4.61056">
        <ele>422</ele>
        <time>2017-03-19T10:19:18Z</time>
      </trkpt>
      <trkpt lat="45.92594" lon="4.61053">
        <ele>422</ele>
        <time>2017-03-19T10:19:19Z</time>
      </trkpt>
      <trkpt lat="45.92598" lon="4.61043">
        <ele>422</ele>
        <time>2017-03-19T10:19:23Z</time>
      </trkpt>
      <trkpt lat="45.92599" lon="4.61041">
        <ele>422</ele>
        <time>2017-03-19T10:19:24Z</time>
      </trkpt>
      <trkpt lat="45.92602" lon="4.6103">
        <ele>422</ele>
        <time>2017-03-19T10:19:28Z</time>
      </trkpt>
      <trkpt lat="45.92603" lon="4.61028">
        <ele>422</ele>
        <time>2017-03-19T10:19:29Z</time>
      </trkpt>
      <trkpt lat="45.92606" lon="4.61018">
        <ele>422</ele>
        <time>2017-03-19T10:19:33Z</time>
      </trkpt>
      <trkpt lat="45.92607" lon="4.61015">
        <ele>422</ele>
        <time>2017-03-19T10:19:34Z</time>
      </trkpt>
      <trkpt lat="45.92611" lon="4.61005">
        <ele>422</ele>
        <time>2017-03-19T10:19:37Z</time>
      </trkpt>
      <trkpt lat="45.92611" lon="4.61002">
        <ele>422</ele>
        <time>2017-03-19T10:19:38Z</time>
      </trkpt>
      <trkpt lat="45.92613" lon="4.60993">
        <ele>422</ele>
        <time>2017-03-19T10:19:41Z</time>
      </trkpt>
      <trkpt lat="45.92614" lon="4.6099">
        <ele>422</ele>
        <time>2017-03-19T10:19:42Z</time>
      </trkpt>
      <trkpt lat="45.92616" lon="4.60979">
        <ele>422</ele>
        <time>2017-03-19T10:19:45Z</time>
      </trkpt>
      <trkpt lat="45.92618" lon="4.60976">
        <ele>422</ele>
        <time>2017-03-19T10:19:46Z</time>
      </trkpt>
      <trkpt lat="45.92622" lon="4.60966">
        <ele>423</ele>
        <time>2017-03-19T10:19:49Z</time>
      </trkpt>
      <trkpt lat="45.92623" lon="4.60962">
        <ele>423</ele>
        <time>2017-03-19T10:19:50Z</time>
      </trkpt>
      <trkpt lat="45.92627" lon="4.60951">
        <ele>423</ele>
        <time>2017-03-19T10:19:53Z</time>
      </trkpt>
      <trkpt lat="45.92628" lon="4.60947">
        <ele>423</ele>
        <time>2017-03-19T10:19:54Z</time>
      </trkpt>
      <trkpt lat="45.9263" lon="4.60937">
        <ele>423</ele>
        <time>2017-03-19T10:19:57Z</time>
      </trkpt>
      <trkpt lat="45.9263" lon="4.60933">
        <ele>423</ele>
        <time>2017-03-19T10:19:58Z</time>
      </trkpt>
      <trkpt lat="45.92631" lon="4.60922">
        <ele>423</ele>
        <time>2017-03-19T10:20:01Z</time>
      </trkpt>
      <trkpt lat="45.92631" lon="4.60918">
        <ele>423</ele>
        <time>2017-03-19T10:20:02Z</time>
      </trkpt>
      <trkpt lat="45.92634" lon="4.60908">
        <ele>424</ele>
        <time>2017-03-19T10:20:05Z</time>
      </trkpt>
      <trkpt lat="45.92635" lon="4.60905">
        <ele>424</ele>
        <time>2017-03-19T10:20:06Z</time>
      </trkpt>
      <trkpt lat="45.92637" lon="4.60895">
        <ele>424</ele>
        <time>2017-03-19T10:20:09Z</time>
      </trkpt>
      <trkpt lat="45.92637" lon="4.60892">
        <ele>424</ele>
        <time>2017-03-19T10:20:10Z</time>
      </trkpt>
      <trkpt lat="45.92639" lon="4.60881">
        <ele>424</ele>
        <time>2017-03-19T10:20:13Z</time>
      </trkpt>
      <trkpt lat="45.9264" lon="4.60878">
        <ele>424</ele>
        <time>2017-03-19T10:20:14Z</time>
      </trkpt>
      <trkpt lat="45.92642" lon="4.60868">
        <ele>424</ele>
        <time>2017-03-19T10:20:17Z</time>
      </trkpt>
      <trkpt lat="45.92643" lon="4.60865">
        <ele>424</ele>
        <time>2017-03-19T10:20:18Z</time>
      </trkpt>
      <trkpt lat="45.92643" lon="4.60855">
        <ele>424</ele>
        <time>2017-03-19T10:20:21Z</time>
      </trkpt>
      <trkpt lat="45.92643" lon="4.60851">
        <ele>424</ele>
        <time>2017-03-19T10:20:22Z</time>
      </trkpt>
      <trkpt lat="45.92643" lon="4.6084">
        <ele>424</ele>
        <time>2017-03-19T10:20:25Z</time>
      </trkpt>
      <trkpt lat="45.92644" lon="4.60837">
        <ele>424</ele>
        <time>2017-03-19T10:20:26Z</time>
      </trkpt>
      <trkpt lat="45.92645" lon="4.60826">
        <ele>425</ele>
        <time>2017-03-19T10:20:29Z</time>
      </trkpt>
      <trkpt lat="45.92646" lon="4.60822">
        <ele>425</ele>
        <time>2017-03-19T10:20:30Z</time>
      </trkpt>
      <trkpt lat="45.92648" lon="4.60811">
        <ele>425</ele>
        <time>2017-03-19T10:20:33Z</time>
      </trkpt>
      <trkpt lat="45.92649" lon="4.60807">
        <ele>425</ele>
        <time>2017-03-19T10:20:34Z</time>
      </trkpt>
      <trkpt lat="45.92649" lon="4.60796">
        <ele>425</ele>
        <time>2017-03-19T10:20:37Z</time>
      </trkpt>
      <trkpt lat="45.9265" lon="4.60792">
        <ele>425</ele>
        <time>2017-03-19T10:20:38Z</time>
      </trkpt>
      <trkpt lat="45.92651" lon="4.60781">
        <ele>425</ele>
        <time>2017-03-19T10:20:41Z</time>
      </trkpt>
      <trkpt lat="45.92651" lon="4.60778">
        <ele>425</ele>
        <time>2017-03-19T10:20:42Z</time>
      </trkpt>
      <trkpt lat="45.92651" lon="4.60767">
        <ele>425</ele>
        <time>2017-03-19T10:20:45Z</time>
      </trkpt>
      <trkpt lat="45.92651" lon="4.60763">
        <ele>425</ele>
        <time>2017-03-19T10:20:46Z</time>
      </trkpt>
      <trkpt lat="45.92654" lon="4.60753">
        <ele>425</ele>
        <time>2017-03-19T10:20:49Z</time>
      </trkpt>
      <trkpt lat="45.92655" lon="4.60749">
        <ele>426</ele>
        <time>2017-03-19T10:20:50Z</time>
      </trkpt>
      <trkpt lat="45.92655" lon="4.60739">
        <ele>426</ele>
        <time>2017-03-19T10:20:53Z</time>
      </trkpt>
      <trkpt lat="45.92655" lon="4.60735">
        <ele>426</ele>
        <time>2017-03-19T10:20:54Z</time>
      </trkpt>
      <trkpt lat="45.92656" lon="4.60724">
        <ele>426</ele>
        <time>2017-03-19T10:20:57Z</time>
      </trkpt>
      <trkpt lat="45.92657" lon="4.60721">
        <ele>426</ele>
        <time>2017-03-19T10:20:58Z</time>
      </trkpt>
      <trkpt lat="45.92655" lon="4.60711">
        <ele>426</ele>
        <time>2017-03-19T10:21:01Z</time>
      </trkpt>
      <trkpt lat="45.92654" lon="4.60707">
        <ele>426</ele>
        <time>2017-03-19T10:21:02Z</time>
      </trkpt>
      <trkpt lat="45.92654" lon="4.60697">
        <ele>427</ele>
        <time>2017-03-19T10:21:05Z</time>
      </trkpt>
      <trkpt lat="45.92654" lon="4.60694">
        <ele>427</ele>
        <time>2017-03-19T10:21:06Z</time>
      </trkpt>
      <trkpt lat="45.92651" lon="4.60683">
        <ele>427</ele>
        <time>2017-03-19T10:21:09Z</time>
      </trkpt>
      <trkpt lat="45.9265" lon="4.6068">
        <ele>427</ele>
        <time>2017-03-19T10:21:10Z</time>
      </trkpt>
      <trkpt lat="45.92648" lon="4.60671">
        <ele>427</ele>
        <time>2017-03-19T10:21:13Z</time>
      </trkpt>
      <trkpt lat="45.92647" lon="4.60667">
        <ele>427</ele>
        <time>2017-03-19T10:21:14Z</time>
      </trkpt>
      <trkpt lat="45.92644" lon="4.60657">
        <ele>430</ele>
        <time>2017-03-19T10:21:17Z</time>
      </trkpt>
      <trkpt lat="45.92643" lon="4.60654">
        <ele>430</ele>
        <time>2017-03-19T10:21:18Z</time>
      </trkpt>
      <trkpt lat="45.92641" lon="4.60644">
        <ele>430</ele>
        <time>2017-03-19T10:21:21Z</time>
      </trkpt>
      <trkpt lat="45.9264" lon="4.60641">
        <ele>430</ele>
        <time>2017-03-19T10:21:22Z</time>
      </trkpt>
      <trkpt lat="45.92637" lon="4.60632">
        <ele>430</ele>
        <time>2017-03-19T10:21:25Z</time>
      </trkpt>
      <trkpt lat="45.92636" lon="4.60629">
        <ele>430</ele>
        <time>2017-03-19T10:21:26Z</time>
      </trkpt>
      <trkpt lat="45.92633" lon="4.60618">
        <ele>431</ele>
        <time>2017-03-19T10:21:30Z</time>
      </trkpt>
      <trkpt lat="45.92633" lon="4.60615">
        <ele>431</ele>
        <time>2017-03-19T10:21:31Z</time>
      </trkpt>
      <trkpt lat="45.92629" lon="4.60604">
        <ele>431</ele>
        <time>2017-03-19T10:21:35Z</time>
      </trkpt>
      <trkpt lat="45.92629" lon="4.60602">
        <ele>431</ele>
        <time>2017-03-19T10:21:36Z</time>
      </trkpt>
      <trkpt lat="45.92625" lon="4.60591">
        <ele>431</ele>
        <time>2017-03-19T10:21:40Z</time>
      </trkpt>
      <trkpt lat="45.92623" lon="4.60589">
        <ele>431</ele>
        <time>2017-03-19T10:21:41Z</time>
      </trkpt>
      <trkpt lat="45.9262" lon="4.60579">
        <ele>435</ele>
        <time>2017-03-19T10:21:45Z</time>
      </trkpt>
      <trkpt lat="45.9262" lon="4.60577">
        <ele>435</ele>
        <time>2017-03-19T10:21:46Z</time>
      </trkpt>
      <trkpt lat="45.92618" lon="4.60564">
        <ele>435</ele>
        <time>2017-03-19T10:21:51Z</time>
      </trkpt>
      <trkpt lat="45.92617" lon="4.60562">
        <ele>436</ele>
        <time>2017-03-19T10:21:52Z</time>
      </trkpt>
      <trkpt lat="45.92616" lon="4.60552">
        <ele>436</ele>
        <time>2017-03-19T10:21:56Z</time>
      </trkpt>
      <trkpt lat="45.92615" lon="4.60549">
        <ele>436</ele>
        <time>2017-03-19T10:21:57Z</time>
      </trkpt>
      <trkpt lat="45.92613" lon="4.60538">
        <ele>436</ele>
        <time>2017-03-19T10:22:01Z</time>
      </trkpt>
      <trkpt lat="45.92613" lon="4.60536">
        <ele>436</ele>
        <time>2017-03-19T10:22:02Z</time>
      </trkpt>
      <trkpt lat="45.92615" lon="4.60524">
        <ele>437</ele>
        <time>2017-03-19T10:22:07Z</time>
      </trkpt>
      <trkpt lat="45.92616" lon="4.60521">
        <ele>437</ele>
        <time>2017-03-19T10:22:08Z</time>
      </trkpt>
      <trkpt lat="45.92621" lon="4.60511">
        <ele>437</ele>
        <time>2017-03-19T10:22:13Z</time>
      </trkpt>
      <trkpt lat="45.92622" lon="4.60509">
        <ele>437</ele>
        <time>2017-03-19T10:22:14Z</time>
      </trkpt>
      <trkpt lat="45.92628" lon="4.60501">
        <ele>438</ele>
        <time>2017-03-19T10:22:18Z</time>
      </trkpt>
      <trkpt lat="45.92629" lon="4.605">
        <ele>441</ele>
        <time>2017-03-19T10:22:19Z</time>
      </trkpt>
      <trkpt lat="45.92636" lon="4.60492">
        <ele>441</ele>
        <time>2017-03-19T10:22:24Z</time>
      </trkpt>
      <trkpt lat="45.92638" lon="4.60491">
        <ele>441</ele>
        <time>2017-03-19T10:22:25Z</time>
      </trkpt>
      <trkpt lat="45.92645" lon="4.60485">
        <ele>442</ele>
        <time>2017-03-19T10:22:31Z</time>
      </trkpt>
      <trkpt lat="45.92646" lon="4.60484">
        <ele>442</ele>
        <time>2017-03-19T10:22:32Z</time>
      </trkpt>
      <trkpt lat="45.92652" lon="4.60477">
        <ele>442</ele>
        <time>2017-03-19T10:22:37Z</time>
      </trkpt>
      <trkpt lat="45.92653" lon="4.60475">
        <ele>442</ele>
        <time>2017-03-19T10:22:38Z</time>
      </trkpt>
      <trkpt lat="45.9266" lon="4.60469">
        <ele>442</ele>
        <time>2017-03-19T10:22:43Z</time>
      </trkpt>
      <trkpt lat="45.92662" lon="4.60467">
        <ele>442</ele>
        <time>2017-03-19T10:22:44Z</time>
      </trkpt>
      <trkpt lat="45.92668" lon="4.6046">
        <ele>447</ele>
        <time>2017-03-19T10:22:49Z</time>
      </trkpt>
      <trkpt lat="45.9267" lon="4.60459">
        <ele>447</ele>
        <time>2017-03-19T10:22:50Z</time>
      </trkpt>
      <trkpt lat="45.92676" lon="4.60451">
        <ele>447</ele>
        <time>2017-03-19T10:22:56Z</time>
      </trkpt>
      <trkpt lat="45.92677" lon="4.60449">
        <ele>447</ele>
        <time>2017-03-19T10:22:57Z</time>
      </trkpt>
      <trkpt lat="45.92684" lon="4.60442">
        <ele>448</ele>
        <time>2017-03-19T10:23:02Z</time>
      </trkpt>
      <trkpt lat="45.92686" lon="4.6044">
        <ele>448</ele>
        <time>2017-03-19T10:23:03Z</time>
      </trkpt>
      <trkpt lat="45.92693" lon="4.60434">
        <ele>448</ele>
        <time>2017-03-19T10:23:08Z</time>
      </trkpt>
      <trkpt lat="45.92694" lon="4.60433">
        <ele>448</ele>
        <time>2017-03-19T10:23:09Z</time>
      </trkpt>
      <trkpt lat="45.92701" lon="4.60427">
        <ele>448</ele>
        <time>2017-03-19T10:23:14Z</time>
      </trkpt>
      <trkpt lat="45.92702" lon="4.60426">
        <ele>448</ele>
        <time>2017-03-19T10:23:15Z</time>
      </trkpt>
      <trkpt lat="45.9271" lon="4.60423">
        <ele>449</ele>
        <time>2017-03-19T10:23:21Z</time>
      </trkpt>
      <trkpt lat="45.92711" lon="4.60422">
        <ele>449</ele>
        <time>2017-03-19T10:23:22Z</time>
      </trkpt>
      <trkpt lat="45.92717" lon="4.60413">
        <ele>451</ele>
        <time>2017-03-19T10:23:27Z</time>
      </trkpt>
      <trkpt lat="45.92719" lon="4.6041">
        <ele>451</ele>
        <time>2017-03-19T10:23:28Z</time>
      </trkpt>
      <trkpt lat="45.92725" lon="4.60403">
        <ele>451</ele>
        <time>2017-03-19T10:23:31Z</time>
      </trkpt>
      <trkpt lat="45.92726" lon="4.604">
        <ele>451</ele>
        <time>2017-03-19T10:23:32Z</time>
      </trkpt>
      <trkpt lat="45.92735" lon="4.60398">
        <ele>451</ele>
        <time>2017-03-19T10:23:36Z</time>
      </trkpt>
      <trkpt lat="45.92735" lon="4.60395">
        <ele>451</ele>
        <time>2017-03-19T10:23:37Z</time>
      </trkpt>
      <trkpt lat="45.92739" lon="4.60384">
        <ele>451</ele>
        <time>2017-03-19T10:23:42Z</time>
      </trkpt>
      <trkpt lat="45.9274" lon="4.60382">
        <ele>451</ele>
        <time>2017-03-19T10:23:43Z</time>
      </trkpt>
      <trkpt lat="45.92746" lon="4.60373">
        <ele>451</ele>
        <time>2017-03-19T10:23:48Z</time>
      </trkpt>
      <trkpt lat="45.92748" lon="4.60371">
        <ele>451</ele>
        <time>2017-03-19T10:23:49Z</time>
      </trkpt>
      <trkpt lat="45.92755" lon="4.60367">
        <ele>455</ele>
        <time>2017-03-19T10:23:55Z</time>
      </trkpt>
      <trkpt lat="45.92757" lon="4.60365">
        <ele>455</ele>
        <time>2017-03-19T10:23:56Z</time>
      </trkpt>
      <trkpt lat="45.92762" lon="4.60355">
        <ele>455</ele>
        <time>2017-03-19T10:24:00Z</time>
      </trkpt>
      <trkpt lat="45.92764" lon="4.60354">
        <ele>455</ele>
        <time>2017-03-19T10:24:01Z</time>
      </trkpt>
      <trkpt lat="45.92766" lon="4.60351">
        <ele>455</ele>
        <time>2017-03-19T10:24:03Z</time>
      </trkpt>
      <trkpt lat="45.92766" lon="4.6035">
        <ele>456</ele>
        <time>2017-03-19T10:24:04Z</time>
      </trkpt>
      <trkpt lat="45.92774" lon="4.60346">
        <ele>456</ele>
        <time>2017-03-19T10:24:10Z</time>
      </trkpt>
      <trkpt lat="45.92775" lon="4.60345">
        <ele>456</ele>
        <time>2017-03-19T10:24:11Z</time>
      </trkpt>
      <trkpt lat="45.92776" lon="4.60344">
        <ele>456</ele>
        <time>2017-03-19T10:24:12Z</time>
      </trkpt>
      <trkpt lat="45.92778" lon="4.60343">
        <ele>456</ele>
        <time>2017-03-19T10:24:13Z</time>
      </trkpt>
      <trkpt lat="45.92779" lon="4.60343">
        <ele>456</ele>
        <time>2017-03-19T10:24:14Z</time>
      </trkpt>
      <trkpt lat="45.92787" lon="4.60339">
        <ele>456</ele>
        <time>2017-03-19T10:24:19Z</time>
      </trkpt>
      <trkpt lat="45.92789" lon="4.60338">
        <ele>457</ele>
        <time>2017-03-19T10:24:20Z</time>
      </trkpt>
      <trkpt lat="45.92797" lon="4.60335">
        <ele>457</ele>
        <time>2017-03-19T10:24:24Z</time>
      </trkpt>
      <trkpt lat="45.92798" lon="4.60335">
        <ele>457</ele>
        <time>2017-03-19T10:24:25Z</time>
      </trkpt>
      <trkpt lat="45.92805" lon="4.60331">
        <ele>457</ele>
        <time>2017-03-19T10:24:29Z</time>
      </trkpt>
      <trkpt lat="45.92807" lon="4.60331">
        <ele>458</ele>
        <time>2017-03-19T10:24:30Z</time>
      </trkpt>
      <trkpt lat="45.92814" lon="4.60326">
        <ele>458</ele>
        <time>2017-03-19T10:24:34Z</time>
      </trkpt>
      <trkpt lat="45.92816" lon="4.60326">
        <ele>458</ele>
        <time>2017-03-19T10:24:35Z</time>
      </trkpt>
      <trkpt lat="45.92823" lon="4.60326">
        <ele>459</ele>
        <time>2017-03-19T10:24:38Z</time>
      </trkpt>
      <trkpt lat="45.92825" lon="4.60326">
        <ele>459</ele>
        <time>2017-03-19T10:24:39Z</time>
      </trkpt>
      <trkpt lat="45.92834" lon="4.60329">
        <ele>461</ele>
        <time>2017-03-19T10:24:42Z</time>
      </trkpt>
      <trkpt lat="45.92836" lon="4.60328">
        <ele>461</ele>
        <time>2017-03-19T10:24:43Z</time>
      </trkpt>
      <trkpt lat="45.92844" lon="4.60325">
        <ele>462</ele>
        <time>2017-03-19T10:24:47Z</time>
      </trkpt>
      <trkpt lat="45.92846" lon="4.60324">
        <ele>462</ele>
        <time>2017-03-19T10:24:48Z</time>
      </trkpt>
      <trkpt lat="45.92853" lon="4.60317">
        <ele>463</ele>
        <time>2017-03-19T10:24:53Z</time>
      </trkpt>
      <trkpt lat="45.92854" lon="4.60315">
        <ele>463</ele>
        <time>2017-03-19T10:24:54Z</time>
      </trkpt>
      <trkpt lat="45.9286" lon="4.60309">
        <ele>463</ele>
        <time>2017-03-19T10:24:58Z</time>
      </trkpt>
      <trkpt lat="45.92861" lon="4.60307">
        <ele>463</ele>
        <time>2017-03-19T10:24:59Z</time>
      </trkpt>
      <trkpt lat="45.92866" lon="4.60299">
        <ele>464</ele>
        <time>2017-03-19T10:25:04Z</time>
      </trkpt>
      <trkpt lat="45.92868" lon="4.60297">
        <ele>464</ele>
        <time>2017-03-19T10:25:05Z</time>
      </trkpt>
      <trkpt lat="45.92874" lon="4.6029">
        <ele>464</ele>
        <time>2017-03-19T10:25:10Z</time>
      </trkpt>
      <trkpt lat="45.92876" lon="4.60288">
        <ele>464</ele>
        <time>2017-03-19T10:25:11Z</time>
      </trkpt>
      <trkpt lat="45.92882" lon="4.60281">
        <ele>465</ele>
        <time>2017-03-19T10:25:15Z</time>
      </trkpt>
      <trkpt lat="45.92883" lon="4.60279">
        <ele>465</ele>
        <time>2017-03-19T10:25:16Z</time>
      </trkpt>
      <trkpt lat="45.92889" lon="4.6027">
        <ele>465</ele>
        <time>2017-03-19T10:25:21Z</time>
      </trkpt>
      <trkpt lat="45.9289" lon="4.60267">
        <ele>465</ele>
        <time>2017-03-19T10:25:22Z</time>
      </trkpt>
      <trkpt lat="45.92895" lon="4.60258">
        <ele>466</ele>
        <time>2017-03-19T10:25:26Z</time>
      </trkpt>
      <trkpt lat="45.92896" lon="4.60256">
        <ele>466</ele>
        <time>2017-03-19T10:25:27Z</time>
      </trkpt>
      <trkpt lat="45.92902" lon="4.60249">
        <ele>466</ele>
        <time>2017-03-19T10:25:31Z</time>
      </trkpt>
      <trkpt lat="45.92904" lon="4.60248">
        <ele>466</ele>
        <time>2017-03-19T10:25:32Z</time>
      </trkpt>
      <trkpt lat="45.9291" lon="4.60242">
        <ele>466</ele>
        <time>2017-03-19T10:25:36Z</time>
      </trkpt>
      <trkpt lat="45.92912" lon="4.60241">
        <ele>466</ele>
        <time>2017-03-19T10:25:37Z</time>
      </trkpt>
      <trkpt lat="45.92918" lon="4.60234">
        <ele>470</ele>
        <time>2017-03-19T10:25:41Z</time>
      </trkpt>
      <trkpt lat="45.92919" lon="4.60232">
        <ele>470</ele>
        <time>2017-03-19T10:25:42Z</time>
      </trkpt>
      <trkpt lat="45.92925" lon="4.60226">
        <ele>471</ele>
        <time>2017-03-19T10:25:46Z</time>
      </trkpt>
      <trkpt lat="45.92927" lon="4.60225">
        <ele>471</ele>
        <time>2017-03-19T10:25:47Z</time>
      </trkpt>
      <trkpt lat="45.92934" lon="4.60223">
        <ele>471</ele>
        <time>2017-03-19T10:25:51Z</time>
      </trkpt>
      <trkpt lat="45.92936" lon="4.60222">
        <ele>471</ele>
        <time>2017-03-19T10:25:52Z</time>
      </trkpt>
      <trkpt lat="45.92943" lon="4.60218">
        <ele>472</ele>
        <time>2017-03-19T10:25:56Z</time>
      </trkpt>
      <trkpt lat="45.92945" lon="4.60217">
        <ele>472</ele>
        <time>2017-03-19T10:25:57Z</time>
      </trkpt>
      <trkpt lat="45.92952" lon="4.60213">
        <ele>472</ele>
        <time>2017-03-19T10:26:01Z</time>
      </trkpt>
      <trkpt lat="45.92954" lon="4.60212">
        <ele>472</ele>
        <time>2017-03-19T10:26:02Z</time>
      </trkpt>
      <trkpt lat="45.92962" lon="4.60207">
        <ele>473</ele>
        <time>2017-03-19T10:26:07Z</time>
      </trkpt>
      <trkpt lat="45.92963" lon="4.60206">
        <ele>473</ele>
        <time>2017-03-19T10:26:08Z</time>
      </trkpt>
      <trkpt lat="45.92971" lon="4.60203">
        <ele>473</ele>
        <time>2017-03-19T10:26:12Z</time>
      </trkpt>
      <trkpt lat="45.92973" lon="4.60202">
        <ele>473</ele>
        <time>2017-03-19T10:26:13Z</time>
      </trkpt>
      <trkpt lat="45.92981" lon="4.60197">
        <ele>474</ele>
        <time>2017-03-19T10:26:17Z</time>
      </trkpt>
      <trkpt lat="45.92983" lon="4.60195">
        <ele>474</ele>
        <time>2017-03-19T10:26:18Z</time>
      </trkpt>
      <trkpt lat="45.9299" lon="4.60188">
        <ele>474</ele>
        <time>2017-03-19T10:26:23Z</time>
      </trkpt>
      <trkpt lat="45.92991" lon="4.60187">
        <ele>474</ele>
        <time>2017-03-19T10:26:24Z</time>
      </trkpt>
      <trkpt lat="45.93" lon="4.60185">
        <ele>475</ele>
        <time>2017-03-19T10:26:29Z</time>
      </trkpt>
      <trkpt lat="45.93001" lon="4.60183">
        <ele>479</ele>
        <time>2017-03-19T10:26:30Z</time>
      </trkpt>
      <trkpt lat="45.93009" lon="4.60178">
        <ele>479</ele>
        <time>2017-03-19T10:26:35Z</time>
      </trkpt>
      <trkpt lat="45.93011" lon="4.60178">
        <ele>479</ele>
        <time>2017-03-19T10:26:36Z</time>
      </trkpt>
      <trkpt lat="45.93018" lon="4.60172">
        <ele>480</ele>
        <time>2017-03-19T10:26:41Z</time>
      </trkpt>
      <trkpt lat="45.9302" lon="4.60171">
        <ele>480</ele>
        <time>2017-03-19T10:26:42Z</time>
      </trkpt>
      <trkpt lat="45.93028" lon="4.60169">
        <ele>480</ele>
        <time>2017-03-19T10:26:47Z</time>
      </trkpt>
      <trkpt lat="45.93029" lon="4.60168">
        <ele>481</ele>
        <time>2017-03-19T10:26:48Z</time>
      </trkpt>
      <trkpt lat="45.93036" lon="4.60166">
        <ele>477</ele>
        <time>2017-03-19T10:26:52Z</time>
      </trkpt>
      <trkpt lat="45.93038" lon="4.60165">
        <ele>477</ele>
        <time>2017-03-19T10:26:53Z</time>
      </trkpt>
      <trkpt lat="45.93046" lon="4.60161">
        <ele>477</ele>
        <time>2017-03-19T10:26:57Z</time>
      </trkpt>
      <trkpt lat="45.93048" lon="4.6016">
        <ele>478</ele>
        <time>2017-03-19T10:26:58Z</time>
      </trkpt>
      <trkpt lat="45.93055" lon="4.60159">
        <ele>478</ele>
        <time>2017-03-19T10:27:02Z</time>
      </trkpt>
      <trkpt lat="45.93057" lon="4.60159">
        <ele>478</ele>
        <time>2017-03-19T10:27:03Z</time>
      </trkpt>
      <trkpt lat="45.93065" lon="4.6016">
        <ele>479</ele>
        <time>2017-03-19T10:27:07Z</time>
      </trkpt>
      <trkpt lat="45.93067" lon="4.6016">
        <ele>479</ele>
        <time>2017-03-19T10:27:08Z</time>
      </trkpt>
      <trkpt lat="45.93075" lon="4.60158">
        <ele>480</ele>
        <time>2017-03-19T10:27:12Z</time>
      </trkpt>
      <trkpt lat="45.93076" lon="4.60158">
        <ele>480</ele>
        <time>2017-03-19T10:27:13Z</time>
      </trkpt>
      <trkpt lat="45.93083" lon="4.60156">
        <ele>480</ele>
        <time>2017-03-19T10:27:17Z</time>
      </trkpt>
      <trkpt lat="45.93085" lon="4.60156">
        <ele>481</ele>
        <time>2017-03-19T10:27:18Z</time>
      </trkpt>
      <trkpt lat="45.93093" lon="4.60156">
        <ele>481</ele>
        <time>2017-03-19T10:27:22Z</time>
      </trkpt>
      <trkpt lat="45.93096" lon="4.60155">
        <ele>481</ele>
        <time>2017-03-19T10:27:23Z</time>
      </trkpt>
      <trkpt lat="45.93105" lon="4.60155">
        <ele>481</ele>
        <time>2017-03-19T10:27:27Z</time>
      </trkpt>
      <trkpt lat="45.93108" lon="4.60155">
        <ele>481</ele>
        <time>2017-03-19T10:27:28Z</time>
      </trkpt>
      <trkpt lat="45.93114" lon="4.60155">
        <ele>482</ele>
        <time>2017-03-19T10:27:30Z</time>
      </trkpt>
      <trkpt lat="45.93117" lon="4.60155">
        <ele>482</ele>
        <time>2017-03-19T10:27:31Z</time>
      </trkpt>
      <trkpt lat="45.93125" lon="4.60154">
        <ele>482</ele>
        <time>2017-03-19T10:27:34Z</time>
      </trkpt>
      <trkpt lat="45.93127" lon="4.60153">
        <ele>482</ele>
        <time>2017-03-19T10:27:35Z</time>
      </trkpt>
      <trkpt lat="45.93136" lon="4.60151">
        <ele>482</ele>
        <time>2017-03-19T10:27:39Z</time>
      </trkpt>
      <trkpt lat="45.93138" lon="4.6015">
        <ele>482</ele>
        <time>2017-03-19T10:27:40Z</time>
      </trkpt>
      <trkpt lat="45.93146" lon="4.60149">
        <ele>483</ele>
        <time>2017-03-19T10:27:44Z</time>
      </trkpt>
      <trkpt lat="45.93148" lon="4.60148">
        <ele>483</ele>
        <time>2017-03-19T10:27:45Z</time>
      </trkpt>
      <trkpt lat="45.93155" lon="4.60149">
        <ele>484</ele>
        <time>2017-03-19T10:27:48Z</time>
      </trkpt>
      <trkpt lat="45.93158" lon="4.60149">
        <ele>484</ele>
        <time>2017-03-19T10:27:49Z</time>
      </trkpt>
      <trkpt lat="45.93165" lon="4.60147">
        <ele>484</ele>
        <time>2017-03-19T10:27:52Z</time>
      </trkpt>
      <trkpt lat="45.93167" lon="4.60147">
        <ele>485</ele>
        <time>2017-03-19T10:27:53Z</time>
      </trkpt>
      <trkpt lat="45.93175" lon="4.60146">
        <ele>485</ele>
        <time>2017-03-19T10:27:57Z</time>
      </trkpt>
      <trkpt lat="45.93178" lon="4.60146">
        <ele>485</ele>
        <time>2017-03-19T10:27:58Z</time>
      </trkpt>
      <trkpt lat="45.93186" lon="4.60146">
        <ele>485</ele>
        <time>2017-03-19T10:28:01Z</time>
      </trkpt>
      <trkpt lat="45.93189" lon="4.60146">
        <ele>485</ele>
        <time>2017-03-19T10:28:02Z</time>
      </trkpt>
      <trkpt lat="45.93197" lon="4.60148">
        <ele>485</ele>
        <time>2017-03-19T10:28:05Z</time>
      </trkpt>
      <trkpt lat="45.93199" lon="4.60148">
        <ele>485</ele>
        <time>2017-03-19T10:28:06Z</time>
      </trkpt>
      <trkpt lat="45.93206" lon="4.60147">
        <ele>485</ele>
        <time>2017-03-19T10:28:08Z</time>
      </trkpt>
      <trkpt lat="45.93208" lon="4.60147">
        <ele>485</ele>
        <time>2017-03-19T10:28:09Z</time>
      </trkpt>
      <trkpt lat="45.93216" lon="4.60147">
        <ele>485</ele>
        <time>2017-03-19T10:28:12Z</time>
      </trkpt>
      <trkpt lat="45.93219" lon="4.60148">
        <ele>485</ele>
        <time>2017-03-19T10:28:13Z</time>
      </trkpt>
      <trkpt lat="45.93226" lon="4.60147">
        <ele>486</ele>
        <time>2017-03-19T10:28:16Z</time>
      </trkpt>
      <trkpt lat="45.93229" lon="4.60146">
        <ele>486</ele>
        <time>2017-03-19T10:28:17Z</time>
      </trkpt>
      <trkpt lat="45.93236" lon="4.60145">
        <ele>486</ele>
        <time>2017-03-19T10:28:20Z</time>
      </trkpt>
      <trkpt lat="45.93239" lon="4.60145">
        <ele>486</ele>
        <time>2017-03-19T10:28:21Z</time>
      </trkpt>
      <trkpt lat="45.93246" lon="4.60144">
        <ele>486</ele>
        <time>2017-03-19T10:28:24Z</time>
      </trkpt>
      <trkpt lat="45.93249" lon="4.60143">
        <ele>486</ele>
        <time>2017-03-19T10:28:25Z</time>
      </trkpt>
      <trkpt lat="45.93256" lon="4.60143">
        <ele>489</ele>
        <time>2017-03-19T10:28:28Z</time>
      </trkpt>
      <trkpt lat="45.93259" lon="4.60143">
        <ele>489</ele>
        <time>2017-03-19T10:28:29Z</time>
      </trkpt>
      <trkpt lat="45.93266" lon="4.60142">
        <ele>489</ele>
        <time>2017-03-19T10:28:32Z</time>
      </trkpt>
      <trkpt lat="45.93269" lon="4.60142">
        <ele>489</ele>
        <time>2017-03-19T10:28:33Z</time>
      </trkpt>
      <trkpt lat="45.93277" lon="4.60141">
        <ele>489</ele>
        <time>2017-03-19T10:28:36Z</time>
      </trkpt>
      <trkpt lat="45.9328" lon="4.60141">
        <ele>489</ele>
        <time>2017-03-19T10:28:37Z</time>
      </trkpt>
      <trkpt lat="45.93288" lon="4.60139">
        <ele>489</ele>
        <time>2017-03-19T10:28:40Z</time>
      </trkpt>
      <trkpt lat="45.93291" lon="4.60138">
        <ele>489</ele>
        <time>2017-03-19T10:28:41Z</time>
      </trkpt>
      <trkpt lat="45.933" lon="4.60138">
        <ele>489</ele>
        <time>2017-03-19T10:28:44Z</time>
      </trkpt>
      <trkpt lat="45.93302" lon="4.60138">
        <ele>490</ele>
        <time>2017-03-19T10:28:45Z</time>
      </trkpt>
      <trkpt lat="45.93311" lon="4.60135">
        <ele>490</ele>
        <time>2017-03-19T10:28:49Z</time>
      </trkpt>
      <trkpt lat="45.93313" lon="4.60135">
        <ele>490</ele>
        <time>2017-03-19T10:28:50Z</time>
      </trkpt>
      <trkpt lat="45.9332" lon="4.60134">
        <ele>490</ele>
        <time>2017-03-19T10:28:53Z</time>
      </trkpt>
      <trkpt lat="45.93323" lon="4.60134">
        <ele>490</ele>
        <time>2017-03-19T10:28:54Z</time>
      </trkpt>
      <trkpt lat="45.9333" lon="4.60132">
        <ele>490</ele>
        <time>2017-03-19T10:28:57Z</time>
      </trkpt>
      <trkpt lat="45.93332" lon="4.60132">
        <ele>490</ele>
        <time>2017-03-19T10:28:58Z</time>
      </trkpt>
      <trkpt lat="45.9334" lon="4.60132">
        <ele>496</ele>
        <time>2017-03-19T10:29:01Z</time>
      </trkpt>
      <trkpt lat="45.93343" lon="4.60132">
        <ele>496</ele>
        <time>2017-03-19T10:29:02Z</time>
      </trkpt>
      <trkpt lat="45.93349" lon="4.60131">
        <ele>496</ele>
        <time>2017-03-19T10:29:04Z</time>
      </trkpt>
      <trkpt lat="45.93352" lon="4.6013">
        <ele>496</ele>
        <time>2017-03-19T10:29:05Z</time>
      </trkpt>
      <trkpt lat="45.9336" lon="4.6013">
        <ele>496</ele>
        <time>2017-03-19T10:29:08Z</time>
      </trkpt>
      <trkpt lat="45.93362" lon="4.60129">
        <ele>496</ele>
        <time>2017-03-19T10:29:09Z</time>
      </trkpt>
      <trkpt lat="45.9337" lon="4.60126">
        <ele>497</ele>
        <time>2017-03-19T10:29:13Z</time>
      </trkpt>
      <trkpt lat="45.93372" lon="4.60125">
        <ele>497</ele>
        <time>2017-03-19T10:29:14Z</time>
      </trkpt>
      <trkpt lat="45.9338" lon="4.60122">
        <ele>497</ele>
        <time>2017-03-19T10:29:17Z</time>
      </trkpt>
      <trkpt lat="45.93383" lon="4.60121">
        <ele>497</ele>
        <time>2017-03-19T10:29:18Z</time>
      </trkpt>
      <trkpt lat="45.9339" lon="4.60119">
        <ele>497</ele>
        <time>2017-03-19T10:29:21Z</time>
      </trkpt>
      <trkpt lat="45.93393" lon="4.60118">
        <ele>497</ele>
        <time>2017-03-19T10:29:22Z</time>
      </trkpt>
      <trkpt lat="45.93402" lon="4.60115">
        <ele>498</ele>
        <time>2017-03-19T10:29:25Z</time>
      </trkpt>
      <trkpt lat="45.93405" lon="4.60114">
        <ele>498</ele>
        <time>2017-03-19T10:29:26Z</time>
      </trkpt>
      <trkpt lat="45.93412" lon="4.6011">
        <ele>498</ele>
        <time>2017-03-19T10:29:29Z</time>
      </trkpt>
      <trkpt lat="45.93415" lon="4.60108">
        <ele>498</ele>
        <time>2017-03-19T10:29:30Z</time>
      </trkpt>
      <trkpt lat="45.93423" lon="4.60104">
        <ele>501</ele>
        <time>2017-03-19T10:29:33Z</time>
      </trkpt>
      <trkpt lat="45.93426" lon="4.60103">
        <ele>501</ele>
        <time>2017-03-19T10:29:34Z</time>
      </trkpt>
      <trkpt lat="45.93433" lon="4.60099">
        <ele>501</ele>
        <time>2017-03-19T10:29:37Z</time>
      </trkpt>
      <trkpt lat="45.93435" lon="4.60098">
        <ele>501</ele>
        <time>2017-03-19T10:29:38Z</time>
      </trkpt>
      <trkpt lat="45.93444" lon="4.60095">
        <ele>501</ele>
        <time>2017-03-19T10:29:41Z</time>
      </trkpt>
      <trkpt lat="45.93447" lon="4.60094">
        <ele>501</ele>
        <time>2017-03-19T10:29:42Z</time>
      </trkpt>
      <trkpt lat="45.93452" lon="4.60091">
        <ele>501</ele>
        <time>2017-03-19T10:29:44Z</time>
      </trkpt>
      <trkpt lat="45.93456" lon="4.6009">
        <ele>501</ele>
        <time>2017-03-19T10:29:45Z</time>
      </trkpt>
      <trkpt lat="45.93463" lon="4.60087">
        <ele>501</ele>
        <time>2017-03-19T10:29:47Z</time>
      </trkpt>
      <trkpt lat="45.93467" lon="4.60085">
        <ele>501</ele>
        <time>2017-03-19T10:29:48Z</time>
      </trkpt>
      <trkpt lat="45.93473" lon="4.60082">
        <ele>496</ele>
        <time>2017-03-19T10:29:50Z</time>
      </trkpt>
      <trkpt lat="45.93477" lon="4.60081">
        <ele>496</ele>
        <time>2017-03-19T10:29:51Z</time>
      </trkpt>
      <trkpt lat="45.93485" lon="4.60079">
        <ele>497</ele>
        <time>2017-03-19T10:29:53Z</time>
      </trkpt>
      <trkpt lat="45.93489" lon="4.60078">
        <ele>497</ele>
        <time>2017-03-19T10:29:54Z</time>
      </trkpt>
      <trkpt lat="45.93496" lon="4.60074">
        <ele>498</ele>
        <time>2017-03-19T10:29:56Z</time>
      </trkpt>
      <trkpt lat="45.935" lon="4.60072">
        <ele>498</ele>
        <time>2017-03-19T10:29:57Z</time>
      </trkpt>
      <trkpt lat="45.93508" lon="4.60069">
        <ele>497</ele>
        <time>2017-03-19T10:29:59Z</time>
      </trkpt>
      <trkpt lat="45.93513" lon="4.60068">
        <ele>496</ele>
        <time>2017-03-19T10:30:00Z</time>
      </trkpt>
      <trkpt lat="45.93517" lon="4.60065">
        <ele>496</ele>
        <time>2017-03-19T10:30:01Z</time>
      </trkpt>
      <trkpt lat="45.93522" lon="4.60063">
        <ele>495</ele>
        <time>2017-03-19T10:30:02Z</time>
      </trkpt>
      <trkpt lat="45.93527" lon="4.60062">
        <ele>495</ele>
        <time>2017-03-19T10:30:03Z</time>
      </trkpt>
      <trkpt lat="45.93532" lon="4.6006">
        <ele>495</ele>
        <time>2017-03-19T10:30:04Z</time>
      </trkpt>
      <trkpt lat="45.93537" lon="4.60058">
        <ele>495</ele>
        <time>2017-03-19T10:30:05Z</time>
      </trkpt>
      <trkpt lat="45.93543" lon="4.60056">
        <ele>495</ele>
        <time>2017-03-19T10:30:06Z</time>
      </trkpt>
      <trkpt lat="45.93548" lon="4.60054">
        <ele>494</ele>
        <time>2017-03-19T10:30:07Z</time>
      </trkpt>
      <trkpt lat="45.93554" lon="4.60051">
        <ele>494</ele>
        <time>2017-03-19T10:30:08Z</time>
      </trkpt>
      <trkpt lat="45.9356" lon="4.60049">
        <ele>494</ele>
        <time>2017-03-19T10:30:09Z</time>
      </trkpt>
      <trkpt lat="45.93566" lon="4.60047">
        <ele>494</ele>
        <time>2017-03-19T10:30:10Z</time>
      </trkpt>
      <trkpt lat="45.93572" lon="4.60044">
        <ele>494</ele>
        <time>2017-03-19T10:30:11Z</time>
      </trkpt>
      <trkpt lat="45.93577" lon="4.60042">
        <ele>493</ele>
        <time>2017-03-19T10:30:12Z</time>
      </trkpt>
      <trkpt lat="45.93583" lon="4.60039">
        <ele>493</ele>
        <time>2017-03-19T10:30:13Z</time>
      </trkpt>
      <trkpt lat="45.9359" lon="4.60035">
        <ele>493</ele>
        <time>2017-03-19T10:30:14Z</time>
      </trkpt>
      <trkpt lat="45.93596" lon="4.60032">
        <ele>493</ele>
        <time>2017-03-19T10:30:15Z</time>
      </trkpt>
      <trkpt lat="45.93602" lon="4.60028">
        <ele>493</ele>
        <time>2017-03-19T10:30:16Z</time>
      </trkpt>
      <trkpt lat="45.93609" lon="4.60025">
        <ele>493</ele>
        <time>2017-03-19T10:30:17Z</time>
      </trkpt>
      <trkpt lat="45.93616" lon="4.60022">
        <ele>493</ele>
        <time>2017-03-19T10:30:18Z</time>
      </trkpt>
      <trkpt lat="45.93623" lon="4.60018">
        <ele>493</ele>
        <time>2017-03-19T10:30:19Z</time>
      </trkpt>
      <trkpt lat="45.9363" lon="4.60014">
        <ele>493</ele>
        <time>2017-03-19T10:30:20Z</time>
      </trkpt>
      <trkpt lat="45.93636" lon="4.6001">
        <ele>493</ele>
        <time>2017-03-19T10:30:21Z</time>
      </trkpt>
      <trkpt lat="45.93643" lon="4.60006">
        <ele>492</ele>
        <time>2017-03-19T10:30:22Z</time>
      </trkpt>
      <trkpt lat="45.9365" lon="4.60001">
        <ele>492</ele>
        <time>2017-03-19T10:30:23Z</time>
      </trkpt>
      <trkpt lat="45.93658" lon="4.59997">
        <ele>488</ele>
        <time>2017-03-19T10:30:24Z</time>
      </trkpt>
      <trkpt lat="45.93665" lon="4.59992">
        <ele>488</ele>
        <time>2017-03-19T10:30:25Z</time>
      </trkpt>
      <trkpt lat="45.93673" lon="4.59987">
        <ele>489</ele>
        <time>2017-03-19T10:30:26Z</time>
      </trkpt>
      <trkpt lat="45.9368" lon="4.59982">
        <ele>488</ele>
        <time>2017-03-19T10:30:27Z</time>
      </trkpt>
      <trkpt lat="45.93688" lon="4.59976">
        <ele>487</ele>
        <time>2017-03-19T10:30:28Z</time>
      </trkpt>
      <trkpt lat="45.93695" lon="4.59971">
        <ele>487</ele>
        <time>2017-03-19T10:30:29Z</time>
      </trkpt>
      <trkpt lat="45.93703" lon="4.59966">
        <ele>487</ele>
        <time>2017-03-19T10:30:30Z</time>
      </trkpt>
      <trkpt lat="45.9371" lon="4.5996">
        <ele>487</ele>
        <time>2017-03-19T10:30:31Z</time>
      </trkpt>
      <trkpt lat="45.93718" lon="4.59955">
        <ele>487</ele>
        <time>2017-03-19T10:30:32Z</time>
      </trkpt>
      <trkpt lat="45.93725" lon="4.59949">
        <ele>486</ele>
        <time>2017-03-19T10:30:33Z</time>
      </trkpt>
      <trkpt lat="45.93733" lon="4.59942">
        <ele>486</ele>
        <time>2017-03-19T10:30:34Z</time>
      </trkpt>
      <trkpt lat="45.93741" lon="4.59936">
        <ele>486</ele>
        <time>2017-03-19T10:30:35Z</time>
      </trkpt>
      <trkpt lat="45.93749" lon="4.5993">
        <ele>486</ele>
        <time>2017-03-19T10:30:36Z</time>
      </trkpt>
      <trkpt lat="45.93758" lon="4.59924">
        <ele>486</ele>
        <time>2017-03-19T10:30:37Z</time>
      </trkpt>
      <trkpt lat="45.93766" lon="4.59918">
        <ele>486</ele>
        <time>2017-03-19T10:30:38Z</time>
      </trkpt>
      <trkpt lat="45.93775" lon="4.59912">
        <ele>481</ele>
        <time>2017-03-19T10:30:39Z</time>
      </trkpt>
      <trkpt lat="45.93783" lon="4.59905">
        <ele>480</ele>
        <time>2017-03-19T10:30:40Z</time>
      </trkpt>
      <trkpt lat="45.93792" lon="4.59898">
        <ele>479</ele>
        <time>2017-03-19T10:30:41Z</time>
      </trkpt>
      <trkpt lat="45.938" lon="4.59891">
        <ele>479</ele>
        <time>2017-03-19T10:30:42Z</time>
      </trkpt>
      <trkpt lat="45.93809" lon="4.59884">
        <ele>478</ele>
        <time>2017-03-19T10:30:43Z</time>
      </trkpt>
      <trkpt lat="45.93817" lon="4.59877">
        <ele>478</ele>
        <time>2017-03-19T10:30:44Z</time>
      </trkpt>
      <trkpt lat="45.93826" lon="4.5987">
        <ele>477</ele>
        <time>2017-03-19T10:30:45Z</time>
      </trkpt>
      <trkpt lat="45.93835" lon="4.59863">
        <ele>478</ele>
        <time>2017-03-19T10:30:46Z</time>
      </trkpt>
      <trkpt lat="45.93844" lon="4.59856">
        <ele>478</ele>
        <time>2017-03-19T10:30:47Z</time>
      </trkpt>
      <trkpt lat="45.93853" lon="4.59851">
        <ele>478</ele>
        <time>2017-03-19T10:30:48Z</time>
      </trkpt>
      <trkpt lat="45.93862" lon="4.59845">
        <ele>478</ele>
        <time>2017-03-19T10:30:49Z</time>
      </trkpt>
      <trkpt lat="45.93871" lon="4.59841">
        <ele>479</ele>
        <time>2017-03-19T10:30:50Z</time>
      </trkpt>
      <trkpt lat="45.9388" lon="4.59837">
        <ele>479</ele>
        <time>2017-03-19T10:30:51Z</time>
      </trkpt>
      <trkpt lat="45.93888" lon="4.59832">
        <ele>477</ele>
        <time>2017-03-19T10:30:52Z</time>
      </trkpt>
      <trkpt lat="45.93896" lon="4.59827">
        <ele>478</ele>
        <time>2017-03-19T10:30:53Z</time>
      </trkpt>
      <trkpt lat="45.93903" lon="4.59822">
        <ele>478</ele>
        <time>2017-03-19T10:30:54Z</time>
      </trkpt>
      <trkpt lat="45.93909" lon="4.59816">
        <ele>478</ele>
        <time>2017-03-19T10:30:55Z</time>
      </trkpt>
      <trkpt lat="45.93915" lon="4.5981">
        <ele>478</ele>
        <time>2017-03-19T10:30:56Z</time>
      </trkpt>
      <trkpt lat="45.9392" lon="4.59805">
        <ele>482</ele>
        <time>2017-03-19T10:30:57Z</time>
      </trkpt>
      <trkpt lat="45.93924" lon="4.59799">
        <ele>483</ele>
        <time>2017-03-19T10:30:58Z</time>
      </trkpt>
      <trkpt lat="45.93928" lon="4.59794">
        <ele>483</ele>
        <time>2017-03-19T10:30:59Z</time>
      </trkpt>
      <trkpt lat="45.93933" lon="4.59787">
        <ele>483</ele>
        <time>2017-03-19T10:31:01Z</time>
      </trkpt>
      <trkpt lat="45.93935" lon="4.59784">
        <ele>483</ele>
        <time>2017-03-19T10:31:02Z</time>
      </trkpt>
      <trkpt lat="45.9394" lon="4.59776">
        <ele>483</ele>
        <time>2017-03-19T10:31:05Z</time>
      </trkpt>
      <trkpt lat="45.93941" lon="4.59774">
        <ele>483</ele>
        <time>2017-03-19T10:31:06Z</time>
      </trkpt>
      <trkpt lat="45.93947" lon="4.59765">
        <ele>484</ele>
        <time>2017-03-19T10:31:10Z</time>
      </trkpt>
      <trkpt lat="45.93948" lon="4.59763">
        <ele>484</ele>
        <time>2017-03-19T10:31:11Z</time>
      </trkpt>
      <trkpt lat="45.93954" lon="4.59754">
        <ele>484</ele>
        <time>2017-03-19T10:31:16Z</time>
      </trkpt>
      <trkpt lat="45.93955" lon="4.59751">
        <ele>484</ele>
        <time>2017-03-19T10:31:17Z</time>
      </trkpt>
      <trkpt lat="45.93959" lon="4.59742">
        <ele>487</ele>
        <time>2017-03-19T10:31:21Z</time>
      </trkpt>
      <trkpt lat="45.9396" lon="4.5974">
        <ele>487</ele>
        <time>2017-03-19T10:31:22Z</time>
      </trkpt>
      <trkpt lat="45.93964" lon="4.59731">
        <ele>488</ele>
        <time>2017-03-19T10:31:27Z</time>
      </trkpt>
      <trkpt lat="45.93965" lon="4.59729">
        <ele>488</ele>
        <time>2017-03-19T10:31:28Z</time>
      </trkpt>
      <trkpt lat="45.93969" lon="4.59718">
        <ele>488</ele>
        <time>2017-03-19T10:31:33Z</time>
      </trkpt>
      <trkpt lat="45.9397" lon="4.59716">
        <ele>488</ele>
        <time>2017-03-19T10:31:34Z</time>
      </trkpt>
      <trkpt lat="45.93975" lon="4.59706">
        <ele>489</ele>
        <time>2017-03-19T10:31:39Z</time>
      </trkpt>
      <trkpt lat="45.93976" lon="4.59704">
        <ele>489</ele>
        <time>2017-03-19T10:31:40Z</time>
      </trkpt>
      <trkpt lat="45.93979" lon="4.59694">
        <ele>490</ele>
        <time>2017-03-19T10:31:45Z</time>
      </trkpt>
      <trkpt lat="45.93979" lon="4.59691">
        <ele>490</ele>
        <time>2017-03-19T10:31:46Z</time>
      </trkpt>
      <trkpt lat="45.93982" lon="4.59681">
        <ele>491</ele>
        <time>2017-03-19T10:31:51Z</time>
      </trkpt>
      <trkpt lat="45.93983" lon="4.59679">
        <ele>491</ele>
        <time>2017-03-19T10:31:52Z</time>
      </trkpt>
      <trkpt lat="45.93986" lon="4.5967">
        <ele>492</ele>
        <time>2017-03-19T10:31:57Z</time>
      </trkpt>
      <trkpt lat="45.93989" lon="4.59668">
        <ele>493</ele>
        <time>2017-03-19T10:31:58Z</time>
      </trkpt>
      <trkpt lat="45.93993" lon="4.59658">
        <ele>495</ele>
        <time>2017-03-19T10:32:04Z</time>
      </trkpt>
      <trkpt lat="45.93994" lon="4.59656">
        <ele>495</ele>
        <time>2017-03-19T10:32:05Z</time>
      </trkpt>
      <trkpt lat="45.93999" lon="4.59648">
        <ele>495</ele>
        <time>2017-03-19T10:32:10Z</time>
      </trkpt>
      <trkpt lat="45.94" lon="4.59646">
        <ele>495</ele>
        <time>2017-03-19T10:32:11Z</time>
      </trkpt>
      <trkpt lat="45.94005" lon="4.59636">
        <ele>501</ele>
        <time>2017-03-19T10:32:16Z</time>
      </trkpt>
      <trkpt lat="45.94006" lon="4.59635">
        <ele>501</ele>
        <time>2017-03-19T10:32:17Z</time>
      </trkpt>
      <trkpt lat="45.9401" lon="4.59624">
        <ele>502</ele>
        <time>2017-03-19T10:32:22Z</time>
      </trkpt>
      <trkpt lat="45.94011" lon="4.59623">
        <ele>502</ele>
        <time>2017-03-19T10:32:23Z</time>
      </trkpt>
      <trkpt lat="45.94016" lon="4.59614">
        <ele>503</ele>
        <time>2017-03-19T10:32:28Z</time>
      </trkpt>
      <trkpt lat="45.94018" lon="4.59613">
        <ele>503</ele>
        <time>2017-03-19T10:32:29Z</time>
      </trkpt>
      <trkpt lat="45.94023" lon="4.59605">
        <ele>503</ele>
        <time>2017-03-19T10:32:34Z</time>
      </trkpt>
      <trkpt lat="45.94024" lon="4.59603">
        <ele>503</ele>
        <time>2017-03-19T10:32:35Z</time>
      </trkpt>
      <trkpt lat="45.9403" lon="4.59595">
        <ele>504</ele>
        <time>2017-03-19T10:32:40Z</time>
      </trkpt>
      <trkpt lat="45.94031" lon="4.59593">
        <ele>504</ele>
        <time>2017-03-19T10:32:41Z</time>
      </trkpt>
      <trkpt lat="45.94035" lon="4.59583">
        <ele>503</ele>
        <time>2017-03-19T10:32:46Z</time>
      </trkpt>
      <trkpt lat="45.94036" lon="4.59582">
        <ele>503</ele>
        <time>2017-03-19T10:32:47Z</time>
      </trkpt>
      <trkpt lat="45.9404" lon="4.59571">
        <ele>504</ele>
        <time>2017-03-19T10:32:52Z</time>
      </trkpt>
      <trkpt lat="45.94041" lon="4.5957">
        <ele>504</ele>
        <time>2017-03-19T10:32:53Z</time>
      </trkpt>
      <trkpt lat="45.94048" lon="4.59561">
        <ele>504</ele>
        <time>2017-03-19T10:32:58Z</time>
      </trkpt>
      <trkpt lat="45.94049" lon="4.59559">
        <ele>504</ele>
        <time>2017-03-19T10:32:59Z</time>
      </trkpt>
      <trkpt lat="45.94055" lon="4.59552">
        <ele>504</ele>
        <time>2017-03-19T10:33:03Z</time>
      </trkpt>
      <trkpt lat="45.94056" lon="4.5955">
        <ele>504</ele>
        <time>2017-03-19T10:33:04Z</time>
      </trkpt>
      <trkpt lat="45.94062" lon="4.59542">
        <ele>504</ele>
        <time>2017-03-19T10:33:08Z</time>
      </trkpt>
      <trkpt lat="45.94063" lon="4.59539">
        <ele>504</ele>
        <time>2017-03-19T10:33:09Z</time>
      </trkpt>
      <trkpt lat="45.94068" lon="4.59531">
        <ele>504</ele>
        <time>2017-03-19T10:33:12Z</time>
      </trkpt>
      <trkpt lat="45.9407" lon="4.59529">
        <ele>504</ele>
        <time>2017-03-19T10:33:13Z</time>
      </trkpt>
      <trkpt lat="45.94076" lon="4.59521">
        <ele>504</ele>
        <time>2017-03-19T10:33:16Z</time>
      </trkpt>
      <trkpt lat="45.94078" lon="4.59518">
        <ele>504</ele>
        <time>2017-03-19T10:33:17Z</time>
      </trkpt>
      <trkpt lat="45.94084" lon="4.5951">
        <ele>508</ele>
        <time>2017-03-19T10:33:20Z</time>
      </trkpt>
      <trkpt lat="45.94087" lon="4.59507">
        <ele>507</ele>
        <time>2017-03-19T10:33:21Z</time>
      </trkpt>
      <trkpt lat="45.94093" lon="4.59502">
        <ele>508</ele>
        <time>2017-03-19T10:33:24Z</time>
      </trkpt>
      <trkpt lat="45.94095" lon="4.59499">
        <ele>504</ele>
        <time>2017-03-19T10:33:25Z</time>
      </trkpt>
      <trkpt lat="45.94102" lon="4.59491">
        <ele>504</ele>
        <time>2017-03-19T10:33:28Z</time>
      </trkpt>
      <trkpt lat="45.94104" lon="4.59488">
        <ele>504</ele>
        <time>2017-03-19T10:33:29Z</time>
      </trkpt>
      <trkpt lat="45.94108" lon="4.59482">
        <ele>504</ele>
        <time>2017-03-19T10:33:31Z</time>
      </trkpt>
      <trkpt lat="45.94111" lon="4.59479">
        <ele>504</ele>
        <time>2017-03-19T10:33:32Z</time>
      </trkpt>
      <trkpt lat="45.94117" lon="4.59471">
        <ele>504</ele>
        <time>2017-03-19T10:33:35Z</time>
      </trkpt>
      <trkpt lat="45.94119" lon="4.59469">
        <ele>504</ele>
        <time>2017-03-19T10:33:36Z</time>
      </trkpt>
      <trkpt lat="45.94126" lon="4.59462">
        <ele>504</ele>
        <time>2017-03-19T10:33:39Z</time>
      </trkpt>
      <trkpt lat="45.94129" lon="4.5946">
        <ele>504</ele>
        <time>2017-03-19T10:33:40Z</time>
      </trkpt>
      <trkpt lat="45.94134" lon="4.59454">
        <ele>504</ele>
        <time>2017-03-19T10:33:42Z</time>
      </trkpt>
      <trkpt lat="45.94137" lon="4.59451">
        <ele>503</ele>
        <time>2017-03-19T10:33:43Z</time>
      </trkpt>
      <trkpt lat="45.94143" lon="4.59446">
        <ele>503</ele>
        <time>2017-03-19T10:33:45Z</time>
      </trkpt>
      <trkpt lat="45.94146" lon="4.59444">
        <ele>503</ele>
        <time>2017-03-19T10:33:46Z</time>
      </trkpt>
      <trkpt lat="45.94152" lon="4.5944">
        <ele>503</ele>
        <time>2017-03-19T10:33:48Z</time>
      </trkpt>
      <trkpt lat="45.94155" lon="4.59438">
        <ele>503</ele>
        <time>2017-03-19T10:33:49Z</time>
      </trkpt>
      <trkpt lat="45.94161" lon="4.59435">
        <ele>503</ele>
        <time>2017-03-19T10:33:51Z</time>
      </trkpt>
      <trkpt lat="45.94164" lon="4.59433">
        <ele>503</ele>
        <time>2017-03-19T10:33:52Z</time>
      </trkpt>
      <trkpt lat="45.9417" lon="4.5943">
        <ele>506</ele>
        <time>2017-03-19T10:33:54Z</time>
      </trkpt>
      <trkpt lat="45.94174" lon="4.59428">
        <ele>506</ele>
        <time>2017-03-19T10:33:55Z</time>
      </trkpt>
      <trkpt lat="45.94181" lon="4.59423">
        <ele>506</ele>
        <time>2017-03-19T10:33:57Z</time>
      </trkpt>
      <trkpt lat="45.94186" lon="4.59421">
        <ele>507</ele>
        <time>2017-03-19T10:33:58Z</time>
      </trkpt>
      <trkpt lat="45.9419" lon="4.5942">
        <ele>507</ele>
        <time>2017-03-19T10:33:59Z</time>
      </trkpt>
      <trkpt lat="45.94195" lon="4.59419">
        <ele>508</ele>
        <time>2017-03-19T10:34:00Z</time>
      </trkpt>
      <trkpt lat="45.94201" lon="4.59417">
        <ele>508</ele>
        <time>2017-03-19T10:34:01Z</time>
      </trkpt>
      <trkpt lat="45.94206" lon="4.59415">
        <ele>498</ele>
        <time>2017-03-19T10:34:02Z</time>
      </trkpt>
      <trkpt lat="45.94212" lon="4.59413">
        <ele>498</ele>
        <time>2017-03-19T10:34:03Z</time>
      </trkpt>
      <trkpt lat="45.94218" lon="4.59412">
        <ele>499</ele>
        <time>2017-03-19T10:34:04Z</time>
      </trkpt>
      <trkpt lat="45.94224" lon="4.5941">
        <ele>499</ele>
        <time>2017-03-19T10:34:05Z</time>
      </trkpt>
      <trkpt lat="45.9423" lon="4.59408">
        <ele>499</ele>
        <time>2017-03-19T10:34:06Z</time>
      </trkpt>
      <trkpt lat="45.94237" lon="4.59406">
        <ele>500</ele>
        <time>2017-03-19T10:34:07Z</time>
      </trkpt>
      <trkpt lat="45.94243" lon="4.59404">
        <ele>501</ele>
        <time>2017-03-19T10:34:08Z</time>
      </trkpt>
      <trkpt lat="45.9425" lon="4.59402">
        <ele>501</ele>
        <time>2017-03-19T10:34:09Z</time>
      </trkpt>
      <trkpt lat="45.94257" lon="4.594">
        <ele>500</ele>
        <time>2017-03-19T10:34:10Z</time>
      </trkpt>
      <trkpt lat="45.94264" lon="4.59398">
        <ele>499</ele>
        <time>2017-03-19T10:34:11Z</time>
      </trkpt>
      <trkpt lat="45.94271" lon="4.59396">
        <ele>498</ele>
        <time>2017-03-19T10:34:12Z</time>
      </trkpt>
      <trkpt lat="45.94278" lon="4.59393">
        <ele>498</ele>
        <time>2017-03-19T10:34:13Z</time>
      </trkpt>
      <trkpt lat="45.94284" lon="4.59391">
        <ele>497</ele>
        <time>2017-03-19T10:34:14Z</time>
      </trkpt>
      <trkpt lat="45.94291" lon="4.59389">
        <ele>497</ele>
        <time>2017-03-19T10:34:15Z</time>
      </trkpt>
      <trkpt lat="45.94298" lon="4.59387">
        <ele>497</ele>
        <time>2017-03-19T10:34:16Z</time>
      </trkpt>
      <trkpt lat="45.94305" lon="4.59386">
        <ele>497</ele>
        <time>2017-03-19T10:34:17Z</time>
      </trkpt>
      <trkpt lat="45.94312" lon="4.59384">
        <ele>497</ele>
        <time>2017-03-19T10:34:18Z</time>
      </trkpt>
      <trkpt lat="45.94319" lon="4.59382">
        <ele>497</ele>
        <time>2017-03-19T10:34:19Z</time>
      </trkpt>
      <trkpt lat="45.94325" lon="4.5938">
        <ele>497</ele>
        <time>2017-03-19T10:34:20Z</time>
      </trkpt>
      <trkpt lat="45.94332" lon="4.59379">
        <ele>496</ele>
        <time>2017-03-19T10:34:21Z</time>
      </trkpt>
      <trkpt lat="45.94339" lon="4.59377">
        <ele>498</ele>
        <time>2017-03-19T10:34:22Z</time>
      </trkpt>
      <trkpt lat="45.94346" lon="4.59376">
        <ele>498</ele>
        <time>2017-03-19T10:34:23Z</time>
      </trkpt>
      <trkpt lat="45.94353" lon="4.59374">
        <ele>498</ele>
        <time>2017-03-19T10:34:24Z</time>
      </trkpt>
      <trkpt lat="45.94359" lon="4.59372">
        <ele>498</ele>
        <time>2017-03-19T10:34:25Z</time>
      </trkpt>
      <trkpt lat="45.94366" lon="4.59371">
        <ele>498</ele>
        <time>2017-03-19T10:34:26Z</time>
      </trkpt>
      <trkpt lat="45.94373" lon="4.5937">
        <ele>498</ele>
        <time>2017-03-19T10:34:27Z</time>
      </trkpt>
      <trkpt lat="45.9438" lon="4.59368">
        <ele>499</ele>
        <time>2017-03-19T10:34:28Z</time>
      </trkpt>
      <trkpt lat="45.94386" lon="4.59367">
        <ele>499</ele>
        <time>2017-03-19T10:34:29Z</time>
      </trkpt>
      <trkpt lat="45.94392" lon="4.59366">
        <ele>499</ele>
        <time>2017-03-19T10:34:30Z</time>
      </trkpt>
      <trkpt lat="45.94398" lon="4.59365">
        <ele>499</ele>
        <time>2017-03-19T10:34:31Z</time>
      </trkpt>
      <trkpt lat="45.94403" lon="4.59363">
        <ele>499</ele>
        <time>2017-03-19T10:34:32Z</time>
      </trkpt>
      <trkpt lat="45.94409" lon="4.59362">
        <ele>499</ele>
        <time>2017-03-19T10:34:33Z</time>
      </trkpt>
      <trkpt lat="45.94414" lon="4.59362">
        <ele>499</ele>
        <time>2017-03-19T10:34:34Z</time>
      </trkpt>
      <trkpt lat="45.94423" lon="4.5936">
        <ele>504</ele>
        <time>2017-03-19T10:34:36Z</time>
      </trkpt>
      <trkpt lat="45.94427" lon="4.59358">
        <ele>504</ele>
        <time>2017-03-19T10:34:37Z</time>
      </trkpt>
      <trkpt lat="45.94433" lon="4.59356">
        <ele>504</ele>
        <time>2017-03-19T10:34:39Z</time>
      </trkpt>
      <trkpt lat="45.94437" lon="4.59354">
        <ele>504</ele>
        <time>2017-03-19T10:34:40Z</time>
      </trkpt>
      <trkpt lat="45.94443" lon="4.59351">
        <ele>505</ele>
        <time>2017-03-19T10:34:42Z</time>
      </trkpt>
      <trkpt lat="45.94445" lon="4.59348">
        <ele>505</ele>
        <time>2017-03-19T10:34:43Z</time>
      </trkpt>
      <trkpt lat="45.94451" lon="4.59343">
        <ele>505</ele>
        <time>2017-03-19T10:34:45Z</time>
      </trkpt>
      <trkpt lat="45.94453" lon="4.5934">
        <ele>505</ele>
        <time>2017-03-19T10:34:46Z</time>
      </trkpt>
      <trkpt lat="45.94458" lon="4.59334">
        <ele>506</ele>
        <time>2017-03-19T10:34:48Z</time>
      </trkpt>
      <trkpt lat="45.9446" lon="4.5933">
        <ele>501</ele>
        <time>2017-03-19T10:34:49Z</time>
      </trkpt>
      <trkpt lat="45.94465" lon="4.59323">
        <ele>502</ele>
        <time>2017-03-19T10:34:51Z</time>
      </trkpt>
      <trkpt lat="45.94467" lon="4.59319">
        <ele>502</ele>
        <time>2017-03-19T10:34:52Z</time>
      </trkpt>
      <trkpt lat="45.9447" lon="4.59311">
        <ele>502</ele>
        <time>2017-03-19T10:34:54Z</time>
      </trkpt>
      <trkpt lat="45.94472" lon="4.59306">
        <ele>502</ele>
        <time>2017-03-19T10:34:55Z</time>
      </trkpt>
      <trkpt lat="45.94476" lon="4.59297">
        <ele>502</ele>
        <time>2017-03-19T10:34:57Z</time>
      </trkpt>
      <trkpt lat="45.94477" lon="4.59294">
        <ele>502</ele>
        <time>2017-03-19T10:34:58Z</time>
      </trkpt>
      <trkpt lat="45.94481" lon="4.59286">
        <ele>502</ele>
        <time>2017-03-19T10:35:00Z</time>
      </trkpt>
      <trkpt lat="45.94482" lon="4.59283">
        <ele>502</ele>
        <time>2017-03-19T10:35:01Z</time>
      </trkpt>
      <trkpt lat="45.94488" lon="4.59273">
        <ele>503</ele>
        <time>2017-03-19T10:35:04Z</time>
      </trkpt>
      <trkpt lat="45.9449" lon="4.5927">
        <ele>503</ele>
        <time>2017-03-19T10:35:05Z</time>
      </trkpt>
      <trkpt lat="45.94494" lon="4.5926">
        <ele>504</ele>
        <time>2017-03-19T10:35:08Z</time>
      </trkpt>
      <trkpt lat="45.94495" lon="4.59257">
        <ele>504</ele>
        <time>2017-03-19T10:35:09Z</time>
      </trkpt>
      <trkpt lat="45.94498" lon="4.59247">
        <ele>505</ele>
        <time>2017-03-19T10:35:12Z</time>
      </trkpt>
      <trkpt lat="45.94499" lon="4.59244">
        <ele>505</ele>
        <time>2017-03-19T10:35:13Z</time>
      </trkpt>
      <trkpt lat="45.94501" lon="4.59234">
        <ele>508</ele>
        <time>2017-03-19T10:35:16Z</time>
      </trkpt>
      <trkpt lat="45.94502" lon="4.59231">
        <ele>508</ele>
        <time>2017-03-19T10:35:17Z</time>
      </trkpt>
      <trkpt lat="45.94505" lon="4.59222">
        <ele>509</ele>
        <time>2017-03-19T10:35:20Z</time>
      </trkpt>
      <trkpt lat="45.94507" lon="4.59218">
        <ele>509</ele>
        <time>2017-03-19T10:35:21Z</time>
      </trkpt>
      <trkpt lat="45.9451" lon="4.59208">
        <ele>509</ele>
        <time>2017-03-19T10:35:24Z</time>
      </trkpt>
      <trkpt lat="45.94511" lon="4.59205">
        <ele>509</ele>
        <time>2017-03-19T10:35:25Z</time>
      </trkpt>
      <trkpt lat="45.94515" lon="4.59197">
        <ele>509</ele>
        <time>2017-03-19T10:35:28Z</time>
      </trkpt>
      <trkpt lat="45.94517" lon="4.59194">
        <ele>509</ele>
        <time>2017-03-19T10:35:29Z</time>
      </trkpt>
      <trkpt lat="45.9452" lon="4.59184">
        <ele>509</ele>
        <time>2017-03-19T10:35:32Z</time>
      </trkpt>
      <trkpt lat="45.94521" lon="4.59182">
        <ele>509</ele>
        <time>2017-03-19T10:35:33Z</time>
      </trkpt>
      <trkpt lat="45.94526" lon="4.59171">
        <ele>509</ele>
        <time>2017-03-19T10:35:36Z</time>
      </trkpt>
      <trkpt lat="45.94527" lon="4.59168">
        <ele>510</ele>
        <time>2017-03-19T10:35:37Z</time>
      </trkpt>
      <trkpt lat="45.9453" lon="4.59159">
        <ele>510</ele>
        <time>2017-03-19T10:35:40Z</time>
      </trkpt>
      <trkpt lat="45.94531" lon="4.59156">
        <ele>510</ele>
        <time>2017-03-19T10:35:41Z</time>
      </trkpt>
      <trkpt lat="45.94534" lon="4.59145">
        <ele>510</ele>
        <time>2017-03-19T10:35:45Z</time>
      </trkpt>
      <trkpt lat="45.94536" lon="4.59143">
        <ele>510</ele>
        <time>2017-03-19T10:35:46Z</time>
      </trkpt>
      <trkpt lat="45.94541" lon="4.59135">
        <ele>510</ele>
        <time>2017-03-19T10:35:49Z</time>
      </trkpt>
      <trkpt lat="45.94544" lon="4.59132">
        <ele>510</ele>
        <time>2017-03-19T10:35:50Z</time>
      </trkpt>
      <trkpt lat="45.9455" lon="4.59126">
        <ele>510</ele>
        <time>2017-03-19T10:35:53Z</time>
      </trkpt>
      <trkpt lat="45.94552" lon="4.59124">
        <ele>510</ele>
        <time>2017-03-19T10:35:54Z</time>
      </trkpt>
      <trkpt lat="45.94558" lon="4.5912">
        <ele>511</ele>
        <time>2017-03-19T10:35:57Z</time>
      </trkpt>
      <trkpt lat="45.9456" lon="4.59118">
        <ele>511</ele>
        <time>2017-03-19T10:35:58Z</time>
      </trkpt>
      <trkpt lat="45.94568" lon="4.59111">
        <ele>511</ele>
        <time>2017-03-19T10:36:01Z</time>
      </trkpt>
      <trkpt lat="45.9457" lon="4.59109">
        <ele>512</ele>
        <time>2017-03-19T10:36:02Z</time>
      </trkpt>
      <trkpt lat="45.94576" lon="4.59103">
        <ele>512</ele>
        <time>2017-03-19T10:36:05Z</time>
      </trkpt>
      <trkpt lat="45.94578" lon="4.591">
        <ele>512</ele>
        <time>2017-03-19T10:36:06Z</time>
      </trkpt>
      <trkpt lat="45.94584" lon="4.59096">
        <ele>516</ele>
        <time>2017-03-19T10:36:09Z</time>
      </trkpt>
      <trkpt lat="45.94586" lon="4.59094">
        <ele>516</ele>
        <time>2017-03-19T10:36:10Z</time>
      </trkpt>
      <trkpt lat="45.94593" lon="4.59087">
        <ele>516</ele>
        <time>2017-03-19T10:36:13Z</time>
      </trkpt>
      <trkpt lat="45.94595" lon="4.59084">
        <ele>516</ele>
        <time>2017-03-19T10:36:14Z</time>
      </trkpt>
      <trkpt lat="45.94601" lon="4.59077">
        <ele>515</ele>
        <time>2017-03-19T10:36:17Z</time>
      </trkpt>
      <trkpt lat="45.94603" lon="4.59075">
        <ele>516</ele>
        <time>2017-03-19T10:36:18Z</time>
      </trkpt>
      <trkpt lat="45.94609" lon="4.59067">
        <ele>516</ele>
        <time>2017-03-19T10:36:21Z</time>
      </trkpt>
      <trkpt lat="45.94611" lon="4.59065">
        <ele>516</ele>
        <time>2017-03-19T10:36:22Z</time>
      </trkpt>
      <trkpt lat="45.94618" lon="4.59059">
        <ele>516</ele>
        <time>2017-03-19T10:36:25Z</time>
      </trkpt>
      <trkpt lat="45.9462" lon="4.59057">
        <ele>516</ele>
        <time>2017-03-19T10:36:26Z</time>
      </trkpt>
      <trkpt lat="45.94626" lon="4.5905">
        <ele>516</ele>
        <time>2017-03-19T10:36:29Z</time>
      </trkpt>
      <trkpt lat="45.94629" lon="4.59047">
        <ele>516</ele>
        <time>2017-03-19T10:36:30Z</time>
      </trkpt>
      <trkpt lat="45.94635" lon="4.59041">
        <ele>516</ele>
        <time>2017-03-19T10:36:33Z</time>
      </trkpt>
      <trkpt lat="45.94637" lon="4.59039">
        <ele>516</ele>
        <time>2017-03-19T10:36:34Z</time>
      </trkpt>
      <trkpt lat="45.94644" lon="4.59032">
        <ele>517</ele>
        <time>2017-03-19T10:36:37Z</time>
      </trkpt>
      <trkpt lat="45.94646" lon="4.5903">
        <ele>517</ele>
        <time>2017-03-19T10:36:38Z</time>
      </trkpt>
      <trkpt lat="45.94653" lon="4.59024">
        <ele>517</ele>
        <time>2017-03-19T10:36:41Z</time>
      </trkpt>
      <trkpt lat="45.94655" lon="4.59022">
        <ele>517</ele>
        <time>2017-03-19T10:36:42Z</time>
      </trkpt>
      <trkpt lat="45.94662" lon="4.59016">
        <ele>518</ele>
        <time>2017-03-19T10:36:45Z</time>
      </trkpt>
      <trkpt lat="45.94665" lon="4.59014">
        <ele>518</ele>
        <time>2017-03-19T10:36:46Z</time>
      </trkpt>
      <trkpt lat="45.94672" lon="4.59008">
        <ele>521</ele>
        <time>2017-03-19T10:36:49Z</time>
      </trkpt>
      <trkpt lat="45.94675" lon="4.59006">
        <ele>521</ele>
        <time>2017-03-19T10:36:50Z</time>
      </trkpt>
      <trkpt lat="45.94681" lon="4.59">
        <ele>522</ele>
        <time>2017-03-19T10:36:53Z</time>
      </trkpt>
      <trkpt lat="45.94683" lon="4.58998">
        <ele>519</ele>
        <time>2017-03-19T10:36:54Z</time>
      </trkpt>
      <trkpt lat="45.94691" lon="4.58993">
        <ele>519</ele>
        <time>2017-03-19T10:36:57Z</time>
      </trkpt>
      <trkpt lat="45.94693" lon="4.58993">
        <ele>520</ele>
        <time>2017-03-19T10:36:58Z</time>
      </trkpt>
      <trkpt lat="45.94701" lon="4.58989">
        <ele>520</ele>
        <time>2017-03-19T10:37:01Z</time>
      </trkpt>
      <trkpt lat="45.94703" lon="4.58987">
        <ele>520</ele>
        <time>2017-03-19T10:37:02Z</time>
      </trkpt>
      <trkpt lat="45.94711" lon="4.58982">
        <ele>520</ele>
        <time>2017-03-19T10:37:05Z</time>
      </trkpt>
      <trkpt lat="45.94713" lon="4.58981">
        <ele>520</ele>
        <time>2017-03-19T10:37:06Z</time>
      </trkpt>
      <trkpt lat="45.94721" lon="4.58977">
        <ele>520</ele>
        <time>2017-03-19T10:37:09Z</time>
      </trkpt>
      <trkpt lat="45.94724" lon="4.58976">
        <ele>520</ele>
        <time>2017-03-19T10:37:10Z</time>
      </trkpt>
      <trkpt lat="45.94732" lon="4.58975">
        <ele>521</ele>
        <time>2017-03-19T10:37:13Z</time>
      </trkpt>
      <trkpt lat="45.94735" lon="4.58973">
        <ele>521</ele>
        <time>2017-03-19T10:37:14Z</time>
      </trkpt>
      <trkpt lat="45.94743" lon="4.5897">
        <ele>521</ele>
        <time>2017-03-19T10:37:17Z</time>
      </trkpt>
      <trkpt lat="45.94746" lon="4.58969">
        <ele>521</ele>
        <time>2017-03-19T10:37:18Z</time>
      </trkpt>
      <trkpt lat="45.94753" lon="4.58967">
        <ele>526</ele>
        <time>2017-03-19T10:37:21Z</time>
      </trkpt>
      <trkpt lat="45.94755" lon="4.58967">
        <ele>527</ele>
        <time>2017-03-19T10:37:22Z</time>
      </trkpt>
      <trkpt lat="45.94763" lon="4.58964">
        <ele>527</ele>
        <time>2017-03-19T10:37:25Z</time>
      </trkpt>
      <trkpt lat="45.94766" lon="4.58964">
        <ele>527</ele>
        <time>2017-03-19T10:37:26Z</time>
      </trkpt>
      <trkpt lat="45.94775" lon="4.58961">
        <ele>527</ele>
        <time>2017-03-19T10:37:29Z</time>
      </trkpt>
      <trkpt lat="45.94777" lon="4.5896">
        <ele>527</ele>
        <time>2017-03-19T10:37:30Z</time>
      </trkpt>
      <trkpt lat="45.94785" lon="4.58958">
        <ele>527</ele>
        <time>2017-03-19T10:37:33Z</time>
      </trkpt>
      <trkpt lat="45.94788" lon="4.58957">
        <ele>527</ele>
        <time>2017-03-19T10:37:34Z</time>
      </trkpt>
      <trkpt lat="45.94794" lon="4.58955">
        <ele>528</ele>
        <time>2017-03-19T10:37:36Z</time>
      </trkpt>
      <trkpt lat="45.94797" lon="4.58954">
        <ele>528</ele>
        <time>2017-03-19T10:37:37Z</time>
      </trkpt>
      <trkpt lat="45.94805" lon="4.58953">
        <ele>528</ele>
        <time>2017-03-19T10:37:40Z</time>
      </trkpt>
      <trkpt lat="45.94808" lon="4.58954">
        <ele>529</ele>
        <time>2017-03-19T10:37:41Z</time>
      </trkpt>
      <trkpt lat="45.94816" lon="4.58955">
        <ele>529</ele>
        <time>2017-03-19T10:37:44Z</time>
      </trkpt>
      <trkpt lat="45.94819" lon="4.58955">
        <ele>529</ele>
        <time>2017-03-19T10:37:45Z</time>
      </trkpt>
      <trkpt lat="45.94824" lon="4.5895">
        <ele>529</ele>
        <time>2017-03-19T10:37:47Z</time>
      </trkpt>
      <trkpt lat="45.94826" lon="4.58946">
        <ele>529</ele>
        <time>2017-03-19T10:37:48Z</time>
      </trkpt>
      <trkpt lat="45.9483" lon="4.58937">
        <ele>529</ele>
        <time>2017-03-19T10:37:50Z</time>
      </trkpt>
      <trkpt lat="45.94831" lon="4.58932">
        <ele>530</ele>
        <time>2017-03-19T10:37:51Z</time>
      </trkpt>
      <trkpt lat="45.94833" lon="4.58922">
        <ele>530</ele>
        <time>2017-03-19T10:37:53Z</time>
      </trkpt>
      <trkpt lat="45.94835" lon="4.58918">
        <ele>531</ele>
        <time>2017-03-19T10:37:54Z</time>
      </trkpt>
      <trkpt lat="45.94838" lon="4.58907">
        <ele>530</ele>
        <time>2017-03-19T10:37:56Z</time>
      </trkpt>
      <trkpt lat="45.9484" lon="4.58901">
        <ele>530</ele>
        <time>2017-03-19T10:37:57Z</time>
      </trkpt>
      <trkpt lat="45.94843" lon="4.5889">
        <ele>529</ele>
        <time>2017-03-19T10:37:59Z</time>
      </trkpt>
      <trkpt lat="45.94845" lon="4.58885">
        <ele>529</ele>
        <time>2017-03-19T10:38:00Z</time>
      </trkpt>
      <trkpt lat="45.94846" lon="4.58879">
        <ele>528</ele>
        <time>2017-03-19T10:38:01Z</time>
      </trkpt>
      <trkpt lat="45.94848" lon="4.58872">
        <ele>528</ele>
        <time>2017-03-19T10:38:02Z</time>
      </trkpt>
      <trkpt lat="45.9485" lon="4.58866">
        <ele>528</ele>
        <time>2017-03-19T10:38:03Z</time>
      </trkpt>
      <trkpt lat="45.94853" lon="4.58859">
        <ele>527</ele>
        <time>2017-03-19T10:38:04Z</time>
      </trkpt>
      <trkpt lat="45.94855" lon="4.58853">
        <ele>527</ele>
        <time>2017-03-19T10:38:05Z</time>
      </trkpt>
      <trkpt lat="45.94859" lon="4.58847">
        <ele>527</ele>
        <time>2017-03-19T10:38:06Z</time>
      </trkpt>
      <trkpt lat="45.94862" lon="4.58841">
        <ele>527</ele>
        <time>2017-03-19T10:38:07Z</time>
      </trkpt>
      <trkpt lat="45.94865" lon="4.58834">
        <ele>527</ele>
        <time>2017-03-19T10:38:08Z</time>
      </trkpt>
      <trkpt lat="45.94869" lon="4.58827">
        <ele>521</ele>
        <time>2017-03-19T10:38:09Z</time>
      </trkpt>
      <trkpt lat="45.94872" lon="4.58821">
        <ele>521</ele>
        <time>2017-03-19T10:38:10Z</time>
      </trkpt>
      <trkpt lat="45.94876" lon="4.58814">
        <ele>521</ele>
        <time>2017-03-19T10:38:11Z</time>
      </trkpt>
      <trkpt lat="45.94881" lon="4.58807">
        <ele>521</ele>
        <time>2017-03-19T10:38:12Z</time>
      </trkpt>
      <trkpt lat="45.94885" lon="4.58799">
        <ele>521</ele>
        <time>2017-03-19T10:38:13Z</time>
      </trkpt>
      <trkpt lat="45.9489" lon="4.58793">
        <ele>521</ele>
        <time>2017-03-19T10:38:14Z</time>
      </trkpt>
      <trkpt lat="45.94895" lon="4.58786">
        <ele>521</ele>
        <time>2017-03-19T10:38:15Z</time>
      </trkpt>
      <trkpt lat="45.949" lon="4.58778">
        <ele>521</ele>
        <time>2017-03-19T10:38:16Z</time>
      </trkpt>
      <trkpt lat="45.94905" lon="4.58771">
        <ele>521</ele>
        <time>2017-03-19T10:38:17Z</time>
      </trkpt>
      <trkpt lat="45.9491" lon="4.58764">
        <ele>521</ele>
        <time>2017-03-19T10:38:18Z</time>
      </trkpt>
      <trkpt lat="45.94914" lon="4.58757">
        <ele>521</ele>
        <time>2017-03-19T10:38:19Z</time>
      </trkpt>
      <trkpt lat="45.94919" lon="4.5875">
        <ele>522</ele>
        <time>2017-03-19T10:38:20Z</time>
      </trkpt>
      <trkpt lat="45.94923" lon="4.58743">
        <ele>523</ele>
        <time>2017-03-19T10:38:21Z</time>
      </trkpt>
      <trkpt lat="45.94927" lon="4.58736">
        <ele>523</ele>
        <time>2017-03-19T10:38:22Z</time>
      </trkpt>
      <trkpt lat="45.94931" lon="4.5873">
        <ele>523</ele>
        <time>2017-03-19T10:38:23Z</time>
      </trkpt>
      <trkpt lat="45.94934" lon="4.58724">
        <ele>523</ele>
        <time>2017-03-19T10:38:24Z</time>
      </trkpt>
      <trkpt lat="45.94937" lon="4.58718">
        <ele>523</ele>
        <time>2017-03-19T10:38:25Z</time>
      </trkpt>
      <trkpt lat="45.9494" lon="4.58712">
        <ele>523</ele>
        <time>2017-03-19T10:38:26Z</time>
      </trkpt>
      <trkpt lat="45.94943" lon="4.58706">
        <ele>523</ele>
        <time>2017-03-19T10:38:27Z</time>
      </trkpt>
      <trkpt lat="45.94945" lon="4.587">
        <ele>523</ele>
        <time>2017-03-19T10:38:28Z</time>
      </trkpt>
      <trkpt lat="45.94948" lon="4.58689">
        <ele>523</ele>
        <time>2017-03-19T10:38:30Z</time>
      </trkpt>
      <trkpt lat="45.94949" lon="4.58683">
        <ele>522</ele>
        <time>2017-03-19T10:38:31Z</time>
      </trkpt>
      <trkpt lat="45.94949" lon="4.58673">
        <ele>522</ele>
        <time>2017-03-19T10:38:33Z</time>
      </trkpt>
      <trkpt lat="45.9495" lon="4.58667">
        <ele>522</ele>
        <time>2017-03-19T10:38:34Z</time>
      </trkpt>
      <trkpt lat="45.94951" lon="4.58654">
        <ele>522</ele>
        <time>2017-03-19T10:38:36Z</time>
      </trkpt>
      <trkpt lat="45.94951" lon="4.58647">
        <ele>522</ele>
        <time>2017-03-19T10:38:37Z</time>
      </trkpt>
      <trkpt lat="45.94951" lon="4.5864">
        <ele>522</ele>
        <time>2017-03-19T10:38:38Z</time>
      </trkpt>
      <trkpt lat="45.9495" lon="4.58634">
        <ele>522</ele>
        <time>2017-03-19T10:38:39Z</time>
      </trkpt>
      <trkpt lat="45.94951" lon="4.58621">
        <ele>523</ele>
        <time>2017-03-19T10:38:41Z</time>
      </trkpt>
      <trkpt lat="45.94951" lon="4.58615">
        <ele>523</ele>
        <time>2017-03-19T10:38:42Z</time>
      </trkpt>
      <trkpt lat="45.94949" lon="4.58602">
        <ele>523</ele>
        <time>2017-03-19T10:38:44Z</time>
      </trkpt>
      <trkpt lat="45.94949" lon="4.58596">
        <ele>523</ele>
        <time>2017-03-19T10:38:45Z</time>
      </trkpt>
      <trkpt lat="45.94947" lon="4.58589">
        <ele>522</ele>
        <time>2017-03-19T10:38:46Z</time>
      </trkpt>
      <trkpt lat="45.94946" lon="4.58583">
        <ele>525</ele>
        <time>2017-03-19T10:38:47Z</time>
      </trkpt>
      <trkpt lat="45.94944" lon="4.58577">
        <ele>525</ele>
        <time>2017-03-19T10:38:48Z</time>
      </trkpt>
      <trkpt lat="45.94942" lon="4.58571">
        <ele>525</ele>
        <time>2017-03-19T10:38:49Z</time>
      </trkpt>
      <trkpt lat="45.94938" lon="4.58559">
        <ele>525</ele>
        <time>2017-03-19T10:38:51Z</time>
      </trkpt>
      <trkpt lat="45.94936" lon="4.58553">
        <ele>525</ele>
        <time>2017-03-19T10:38:52Z</time>
      </trkpt>
      <trkpt lat="45.94935" lon="4.58547">
        <ele>526</ele>
        <time>2017-03-19T10:38:53Z</time>
      </trkpt>
      <trkpt lat="45.94933" lon="4.58541">
        <ele>526</ele>
        <time>2017-03-19T10:38:54Z</time>
      </trkpt>
      <trkpt lat="45.94928" lon="4.5853">
        <ele>526</ele>
        <time>2017-03-19T10:38:56Z</time>
      </trkpt>
      <trkpt lat="45.94926" lon="4.58525">
        <ele>526</ele>
        <time>2017-03-19T10:38:57Z</time>
      </trkpt>
      <trkpt lat="45.94923" lon="4.58515">
        <ele>526</ele>
        <time>2017-03-19T10:38:59Z</time>
      </trkpt>
      <trkpt lat="45.94921" lon="4.5851">
        <ele>526</ele>
        <time>2017-03-19T10:39:00Z</time>
      </trkpt>
      <trkpt lat="45.94918" lon="4.585">
        <ele>526</ele>
        <time>2017-03-19T10:39:02Z</time>
      </trkpt>
      <trkpt lat="45.94916" lon="4.58495">
        <ele>525</ele>
        <time>2017-03-19T10:39:03Z</time>
      </trkpt>
      <trkpt lat="45.94912" lon="4.58484">
        <ele>524</ele>
        <time>2017-03-19T10:39:05Z</time>
      </trkpt>
      <trkpt lat="45.94909" lon="4.58479">
        <ele>523</ele>
        <time>2017-03-19T10:39:06Z</time>
      </trkpt>
      <trkpt lat="45.94906" lon="4.58467">
        <ele>523</ele>
        <time>2017-03-19T10:39:08Z</time>
      </trkpt>
      <trkpt lat="45.94904" lon="4.58462">
        <ele>523</ele>
        <time>2017-03-19T10:39:09Z</time>
      </trkpt>
      <trkpt lat="45.94903" lon="4.58451">
        <ele>523</ele>
        <time>2017-03-19T10:39:11Z</time>
      </trkpt>
      <trkpt lat="45.94903" lon="4.58445">
        <ele>523</ele>
        <time>2017-03-19T10:39:12Z</time>
      </trkpt>
      <trkpt lat="45.94901" lon="4.58435">
        <ele>524</ele>
        <time>2017-03-19T10:39:14Z</time>
      </trkpt>
      <trkpt lat="45.94901" lon="4.58429">
        <ele>524</ele>
        <time>2017-03-19T10:39:15Z</time>
      </trkpt>
      <trkpt lat="45.949" lon="4.58419">
        <ele>525</ele>
        <time>2017-03-19T10:39:17Z</time>
      </trkpt>
      <trkpt lat="45.949" lon="4.58415">
        <ele>527</ele>
        <time>2017-03-19T10:39:18Z</time>
      </trkpt>
      <trkpt lat="45.94899" lon="4.58403">
        <ele>526</ele>
        <time>2017-03-19T10:39:20Z</time>
      </trkpt>
      <trkpt lat="45.94899" lon="4.58397">
        <ele>526</ele>
        <time>2017-03-19T10:39:21Z</time>
      </trkpt>
      <trkpt lat="45.949" lon="4.58386">
        <ele>527</ele>
        <time>2017-03-19T10:39:23Z</time>
      </trkpt>
      <trkpt lat="45.949" lon="4.58381">
        <ele>527</ele>
        <time>2017-03-19T10:39:24Z</time>
      </trkpt>
      <trkpt lat="45.949" lon="4.58371">
        <ele>527</ele>
        <time>2017-03-19T10:39:26Z</time>
      </trkpt>
      <trkpt lat="45.949" lon="4.58365">
        <ele>527</ele>
        <time>2017-03-19T10:39:27Z</time>
      </trkpt>
      <trkpt lat="45.949" lon="4.58354">
        <ele>527</ele>
        <time>2017-03-19T10:39:29Z</time>
      </trkpt>
      <trkpt lat="45.949" lon="4.58349">
        <ele>527</ele>
        <time>2017-03-19T10:39:30Z</time>
      </trkpt>
      <trkpt lat="45.94901" lon="4.5834">
        <ele>527</ele>
        <time>2017-03-19T10:39:32Z</time>
      </trkpt>
      <trkpt lat="45.94903" lon="4.58336">
        <ele>527</ele>
        <time>2017-03-19T10:39:33Z</time>
      </trkpt>
      <trkpt lat="45.94908" lon="4.5833">
        <ele>527</ele>
        <time>2017-03-19T10:39:35Z</time>
      </trkpt>
      <trkpt lat="45.94912" lon="4.58328">
        <ele>527</ele>
        <time>2017-03-19T10:39:36Z</time>
      </trkpt>
      <trkpt lat="45.94919" lon="4.58323">
        <ele>526</ele>
        <time>2017-03-19T10:39:38Z</time>
      </trkpt>
      <trkpt lat="45.94923" lon="4.58321">
        <ele>525</ele>
        <time>2017-03-19T10:39:39Z</time>
      </trkpt>
      <trkpt lat="45.94929" lon="4.58315">
        <ele>525</ele>
        <time>2017-03-19T10:39:41Z</time>
      </trkpt>
      <trkpt lat="45.94932" lon="4.58312">
        <ele>525</ele>
        <time>2017-03-19T10:39:42Z</time>
      </trkpt>
      <trkpt lat="45.9494" lon="4.58306">
        <ele>524</ele>
        <time>2017-03-19T10:39:45Z</time>
      </trkpt>
      <trkpt lat="45.94944" lon="4.58305">
        <ele>524</ele>
        <time>2017-03-19T10:39:46Z</time>
      </trkpt>
      <trkpt lat="45.94948" lon="4.58304">
        <ele>524</ele>
        <time>2017-03-19T10:39:47Z</time>
      </trkpt>
      <trkpt lat="45.94953" lon="4.58304">
        <ele>524</ele>
        <time>2017-03-19T10:39:48Z</time>
      </trkpt>
      <trkpt lat="45.94958" lon="4.58303">
        <ele>524</ele>
        <time>2017-03-19T10:39:49Z</time>
      </trkpt>
      <trkpt lat="45.94962" lon="4.58302">
        <ele>524</ele>
        <time>2017-03-19T10:39:50Z</time>
      </trkpt>
      <trkpt lat="45.94967" lon="4.583">
        <ele>524</ele>
        <time>2017-03-19T10:39:51Z</time>
      </trkpt>
      <trkpt lat="45.94971" lon="4.58299">
        <ele>524</ele>
        <time>2017-03-19T10:39:52Z</time>
      </trkpt>
      <trkpt lat="45.9498" lon="4.58299">
        <ele>523</ele>
        <time>2017-03-19T10:39:54Z</time>
      </trkpt>
      <trkpt lat="45.94984" lon="4.58299">
        <ele>524</ele>
        <time>2017-03-19T10:39:55Z</time>
      </trkpt>
      <trkpt lat="45.94991" lon="4.583">
        <ele>524</ele>
        <time>2017-03-19T10:39:57Z</time>
      </trkpt>
      <trkpt lat="45.94995" lon="4.583">
        <ele>524</ele>
        <time>2017-03-19T10:39:58Z</time>
      </trkpt>
      <trkpt lat="45.95002" lon="4.583">
        <ele>523</ele>
        <time>2017-03-19T10:40:00Z</time>
      </trkpt>
      <trkpt lat="45.95006" lon="4.58302">
        <ele>523</ele>
        <time>2017-03-19T10:40:01Z</time>
      </trkpt>
      <trkpt lat="45.95013" lon="4.58303">
        <ele>523</ele>
        <time>2017-03-19T10:40:03Z</time>
      </trkpt>
      <trkpt lat="45.95018" lon="4.58304">
        <ele>523</ele>
        <time>2017-03-19T10:40:04Z</time>
      </trkpt>
      <trkpt lat="45.95023" lon="4.58304">
        <ele>523</ele>
        <time>2017-03-19T10:40:05Z</time>
      </trkpt>
      <trkpt lat="45.95027" lon="4.58304">
        <ele>523</ele>
        <time>2017-03-19T10:40:06Z</time>
      </trkpt>
      <trkpt lat="45.95036" lon="4.58305">
        <ele>523</ele>
        <time>2017-03-19T10:40:08Z</time>
      </trkpt>
      <trkpt lat="45.9504" lon="4.58306">
        <ele>523</ele>
        <time>2017-03-19T10:40:09Z</time>
      </trkpt>
      <trkpt lat="45.95045" lon="4.58306">
        <ele>523</ele>
        <time>2017-03-19T10:40:10Z</time>
      </trkpt>
      <trkpt lat="45.9505" lon="4.58307">
        <ele>523</ele>
        <time>2017-03-19T10:40:11Z</time>
      </trkpt>
      <trkpt lat="45.95055" lon="4.58307">
        <ele>523</ele>
        <time>2017-03-19T10:40:12Z</time>
      </trkpt>
      <trkpt lat="45.9506" lon="4.58308">
        <ele>523</ele>
        <time>2017-03-19T10:40:13Z</time>
      </trkpt>
      <trkpt lat="45.95066" lon="4.58309">
        <ele>523</ele>
        <time>2017-03-19T10:40:14Z</time>
      </trkpt>
      <trkpt lat="45.95072" lon="4.5831">
        <ele>523</ele>
        <time>2017-03-19T10:40:15Z</time>
      </trkpt>
      <trkpt lat="45.95077" lon="4.58311">
        <ele>523</ele>
        <time>2017-03-19T10:40:16Z</time>
      </trkpt>
      <trkpt lat="45.95082" lon="4.58311">
        <ele>523</ele>
        <time>2017-03-19T10:40:17Z</time>
      </trkpt>
      <trkpt lat="45.95087" lon="4.58312">
        <ele>522</ele>
        <time>2017-03-19T10:40:18Z</time>
      </trkpt>
      <trkpt lat="45.95092" lon="4.58312">
        <ele>522</ele>
        <time>2017-03-19T10:40:19Z</time>
      </trkpt>
      <trkpt lat="45.95096" lon="4.58313">
        <ele>522</ele>
        <time>2017-03-19T10:40:20Z</time>
      </trkpt>
      <trkpt lat="45.95101" lon="4.58313">
        <ele>522</ele>
        <time>2017-03-19T10:40:21Z</time>
      </trkpt>
      <trkpt lat="45.9511" lon="4.58314">
        <ele>522</ele>
        <time>2017-03-19T10:40:23Z</time>
      </trkpt>
      <trkpt lat="45.95115" lon="4.58315">
        <ele>522</ele>
        <time>2017-03-19T10:40:24Z</time>
      </trkpt>
      <trkpt lat="45.95119" lon="4.58316">
        <ele>522</ele>
        <time>2017-03-19T10:40:25Z</time>
      </trkpt>
      <trkpt lat="45.95124" lon="4.58316">
        <ele>522</ele>
        <time>2017-03-19T10:40:26Z</time>
      </trkpt>
      <trkpt lat="45.95129" lon="4.58317">
        <ele>522</ele>
        <time>2017-03-19T10:40:27Z</time>
      </trkpt>
      <trkpt lat="45.95133" lon="4.58317">
        <ele>522</ele>
        <time>2017-03-19T10:40:28Z</time>
      </trkpt>
      <trkpt lat="45.95138" lon="4.58318">
        <ele>522</ele>
        <time>2017-03-19T10:40:29Z</time>
      </trkpt>
      <trkpt lat="45.95143" lon="4.58319">
        <ele>522</ele>
        <time>2017-03-19T10:40:30Z</time>
      </trkpt>
      <trkpt lat="45.95152" lon="4.58319">
        <ele>523</ele>
        <time>2017-03-19T10:40:32Z</time>
      </trkpt>
      <trkpt lat="45.95156" lon="4.58319">
        <ele>523</ele>
        <time>2017-03-19T10:40:33Z</time>
      </trkpt>
      <trkpt lat="45.95164" lon="4.5832">
        <ele>524</ele>
        <time>2017-03-19T10:40:35Z</time>
      </trkpt>
      <trkpt lat="45.95168" lon="4.5832">
        <ele>522</ele>
        <time>2017-03-19T10:40:36Z</time>
      </trkpt>
      <trkpt lat="45.95175" lon="4.58321">
        <ele>522</ele>
        <time>2017-03-19T10:40:38Z</time>
      </trkpt>
      <trkpt lat="45.95179" lon="4.58322">
        <ele>522</ele>
        <time>2017-03-19T10:40:39Z</time>
      </trkpt>
      <trkpt lat="45.95187" lon="4.58323">
        <ele>521</ele>
        <time>2017-03-19T10:40:41Z</time>
      </trkpt>
      <trkpt lat="45.95191" lon="4.58324">
        <ele>520</ele>
        <time>2017-03-19T10:40:42Z</time>
      </trkpt>
      <trkpt lat="45.95199" lon="4.58325">
        <ele>520</ele>
        <time>2017-03-19T10:40:44Z</time>
      </trkpt>
      <trkpt lat="45.95202" lon="4.58325">
        <ele>519</ele>
        <time>2017-03-19T10:40:45Z</time>
      </trkpt>
      <trkpt lat="45.95209" lon="4.58328">
        <ele>519</ele>
        <time>2017-03-19T10:40:47Z</time>
      </trkpt>
      <trkpt lat="45.95212" lon="4.5833">
        <ele>519</ele>
        <time>2017-03-19T10:40:48Z</time>
      </trkpt>
      <trkpt lat="45.95218" lon="4.58332">
        <ele>519</ele>
        <time>2017-03-19T10:40:50Z</time>
      </trkpt>
      <trkpt lat="45.95221" lon="4.58333">
        <ele>519</ele>
        <time>2017-03-19T10:40:51Z</time>
      </trkpt>
      <trkpt lat="45.95227" lon="4.58335">
        <ele>526</ele>
        <time>2017-03-19T10:40:53Z</time>
      </trkpt>
      <trkpt lat="45.9523" lon="4.58336">
        <ele>526</ele>
        <time>2017-03-19T10:40:54Z</time>
      </trkpt>
      <trkpt lat="45.95238" lon="4.58338">
        <ele>525</ele>
        <time>2017-03-19T10:40:56Z</time>
      </trkpt>
      <trkpt lat="45.95242" lon="4.5834">
        <ele>524</ele>
        <time>2017-03-19T10:40:57Z</time>
      </trkpt>
      <trkpt lat="45.95251" lon="4.58342">
        <ele>522</ele>
        <time>2017-03-19T10:40:59Z</time>
      </trkpt>
      <trkpt lat="45.95255" lon="4.58344">
        <ele>522</ele>
        <time>2017-03-19T10:41:00Z</time>
      </trkpt>
      <trkpt lat="45.95263" lon="4.58347">
        <ele>522</ele>
        <time>2017-03-19T10:41:02Z</time>
      </trkpt>
      <trkpt lat="45.95267" lon="4.58349">
        <ele>522</ele>
        <time>2017-03-19T10:41:03Z</time>
      </trkpt>
      <trkpt lat="45.95275" lon="4.58352">
        <ele>522</ele>
        <time>2017-03-19T10:41:05Z</time>
      </trkpt>
      <trkpt lat="45.95279" lon="4.58354">
        <ele>522</ele>
        <time>2017-03-19T10:41:06Z</time>
      </trkpt>
      <trkpt lat="45.95287" lon="4.58356">
        <ele>522</ele>
        <time>2017-03-19T10:41:08Z</time>
      </trkpt>
      <trkpt lat="45.9529" lon="4.58358">
        <ele>522</ele>
        <time>2017-03-19T10:41:09Z</time>
      </trkpt>
      <trkpt lat="45.95297" lon="4.58363">
        <ele>522</ele>
        <time>2017-03-19T10:41:11Z</time>
      </trkpt>
      <trkpt lat="45.95301" lon="4.58366">
        <ele>522</ele>
        <time>2017-03-19T10:41:12Z</time>
      </trkpt>
      <trkpt lat="45.95308" lon="4.58372">
        <ele>522</ele>
        <time>2017-03-19T10:41:14Z</time>
      </trkpt>
      <trkpt lat="45.95313" lon="4.58376">
        <ele>522</ele>
        <time>2017-03-19T10:41:15Z</time>
      </trkpt>
      <trkpt lat="45.95319" lon="4.58384">
        <ele>523</ele>
        <time>2017-03-19T10:41:17Z</time>
      </trkpt>
      <trkpt lat="45.95323" lon="4.58387">
        <ele>523</ele>
        <time>2017-03-19T10:41:18Z</time>
      </trkpt>
      <trkpt lat="45.9533" lon="4.58394">
        <ele>523</ele>
        <time>2017-03-19T10:41:20Z</time>
      </trkpt>
      <trkpt lat="45.95334" lon="4.58398">
        <ele>518</ele>
        <time>2017-03-19T10:41:21Z</time>
      </trkpt>
      <trkpt lat="45.95342" lon="4.58404">
        <ele>519</ele>
        <time>2017-03-19T10:41:23Z</time>
      </trkpt>
      <trkpt lat="45.95345" lon="4.58407">
        <ele>519</ele>
        <time>2017-03-19T10:41:24Z</time>
      </trkpt>
      <trkpt lat="45.95353" lon="4.58414">
        <ele>518</ele>
        <time>2017-03-19T10:41:26Z</time>
      </trkpt>
      <trkpt lat="45.95357" lon="4.58418">
        <ele>524</ele>
        <time>2017-03-19T10:41:27Z</time>
      </trkpt>
      <trkpt lat="45.9536" lon="4.58421">
        <ele>524</ele>
        <time>2017-03-19T10:41:28Z</time>
      </trkpt>
      <trkpt lat="45.95364" lon="4.58425">
        <ele>524</ele>
        <time>2017-03-19T10:41:29Z</time>
      </trkpt>
      <trkpt lat="45.95368" lon="4.5843">
        <ele>524</ele>
        <time>2017-03-19T10:41:30Z</time>
      </trkpt>
      <trkpt lat="45.95373" lon="4.58434">
        <ele>523</ele>
        <time>2017-03-19T10:41:31Z</time>
      </trkpt>
      <trkpt lat="45.95377" lon="4.58438">
        <ele>523</ele>
        <time>2017-03-19T10:41:32Z</time>
      </trkpt>
      <trkpt lat="45.95382" lon="4.58442">
        <ele>523</ele>
        <time>2017-03-19T10:41:33Z</time>
      </trkpt>
      <trkpt lat="45.95387" lon="4.58447">
        <ele>523</ele>
        <time>2017-03-19T10:41:34Z</time>
      </trkpt>
      <trkpt lat="45.95391" lon="4.58451">
        <ele>523</ele>
        <time>2017-03-19T10:41:35Z</time>
      </trkpt>
      <trkpt lat="45.95395" lon="4.58455">
        <ele>523</ele>
        <time>2017-03-19T10:41:36Z</time>
      </trkpt>
      <trkpt lat="45.95399" lon="4.5846">
        <ele>524</ele>
        <time>2017-03-19T10:41:37Z</time>
      </trkpt>
      <trkpt lat="45.95403" lon="4.58464">
        <ele>524</ele>
        <time>2017-03-19T10:41:38Z</time>
      </trkpt>
      <trkpt lat="45.95407" lon="4.58469">
        <ele>524</ele>
        <time>2017-03-19T10:41:39Z</time>
      </trkpt>
      <trkpt lat="45.95411" lon="4.58474">
        <ele>525</ele>
        <time>2017-03-19T10:41:40Z</time>
      </trkpt>
      <trkpt lat="45.95415" lon="4.58478">
        <ele>525</ele>
        <time>2017-03-19T10:41:41Z</time>
      </trkpt>
      <trkpt lat="45.95418" lon="4.58483">
        <ele>518</ele>
        <time>2017-03-19T10:41:42Z</time>
      </trkpt>
      <trkpt lat="45.95422" lon="4.58487">
        <ele>519</ele>
        <time>2017-03-19T10:41:43Z</time>
      </trkpt>
      <trkpt lat="45.95429" lon="4.58495">
        <ele>519</ele>
        <time>2017-03-19T10:41:45Z</time>
      </trkpt>
      <trkpt lat="45.95432" lon="4.58499">
        <ele>518</ele>
        <time>2017-03-19T10:41:46Z</time>
      </trkpt>
      <trkpt lat="45.95438" lon="4.58508">
        <ele>522</ele>
        <time>2017-03-19T10:41:48Z</time>
      </trkpt>
      <trkpt lat="45.95441" lon="4.58513">
        <ele>521</ele>
        <time>2017-03-19T10:41:49Z</time>
      </trkpt>
      <trkpt lat="45.95444" lon="4.58518">
        <ele>521</ele>
        <time>2017-03-19T10:41:50Z</time>
      </trkpt>
      <trkpt lat="45.95447" lon="4.58524">
        <ele>520</ele>
        <time>2017-03-19T10:41:51Z</time>
      </trkpt>
      <trkpt lat="45.9545" lon="4.58531">
        <ele>520</ele>
        <time>2017-03-19T10:41:52Z</time>
      </trkpt>
      <trkpt lat="45.95453" lon="4.58538">
        <ele>520</ele>
        <time>2017-03-19T10:41:53Z</time>
      </trkpt>
      <trkpt lat="45.95456" lon="4.58544">
        <ele>519</ele>
        <time>2017-03-19T10:41:54Z</time>
      </trkpt>
      <trkpt lat="45.95459" lon="4.58551">
        <ele>519</ele>
        <time>2017-03-19T10:41:55Z</time>
      </trkpt>
      <trkpt lat="45.95461" lon="4.58557">
        <ele>519</ele>
        <time>2017-03-19T10:41:56Z</time>
      </trkpt>
      <trkpt lat="45.95464" lon="4.58564">
        <ele>519</ele>
        <time>2017-03-19T10:41:57Z</time>
      </trkpt>
      <trkpt lat="45.95466" lon="4.58571">
        <ele>519</ele>
        <time>2017-03-19T10:41:58Z</time>
      </trkpt>
      <trkpt lat="45.95469" lon="4.58577">
        <ele>518</ele>
        <time>2017-03-19T10:41:59Z</time>
      </trkpt>
      <trkpt lat="45.95471" lon="4.58583">
        <ele>518</ele>
        <time>2017-03-19T10:42:00Z</time>
      </trkpt>
      <trkpt lat="45.95472" lon="4.58589">
        <ele>520</ele>
        <time>2017-03-19T10:42:01Z</time>
      </trkpt>
      <trkpt lat="45.95474" lon="4.58595">
        <ele>520</ele>
        <time>2017-03-19T10:42:02Z</time>
      </trkpt>
      <trkpt lat="45.95476" lon="4.58601">
        <ele>520</ele>
        <time>2017-03-19T10:42:03Z</time>
      </trkpt>
      <trkpt lat="45.95477" lon="4.58608">
        <ele>521</ele>
        <time>2017-03-19T10:42:04Z</time>
      </trkpt>
      <trkpt lat="45.95479" lon="4.58615">
        <ele>521</ele>
        <time>2017-03-19T10:42:05Z</time>
      </trkpt>
      <trkpt lat="45.9548" lon="4.58622">
        <ele>521</ele>
        <time>2017-03-19T10:42:06Z</time>
      </trkpt>
      <trkpt lat="45.95481" lon="4.58629">
        <ele>521</ele>
        <time>2017-03-19T10:42:07Z</time>
      </trkpt>
      <trkpt lat="45.95482" lon="4.58637">
        <ele>521</ele>
        <time>2017-03-19T10:42:08Z</time>
      </trkpt>
      <trkpt lat="45.95483" lon="4.58645">
        <ele>521</ele>
        <time>2017-03-19T10:42:09Z</time>
      </trkpt>
      <trkpt lat="45.95484" lon="4.58653">
        <ele>520</ele>
        <time>2017-03-19T10:42:10Z</time>
      </trkpt>
      <trkpt lat="45.95485" lon="4.58661">
        <ele>519</ele>
        <time>2017-03-19T10:42:11Z</time>
      </trkpt>
      <trkpt lat="45.95486" lon="4.58669">
        <ele>520</ele>
        <time>2017-03-19T10:42:12Z</time>
      </trkpt>
      <trkpt lat="45.95488" lon="4.58677">
        <ele>520</ele>
        <time>2017-03-19T10:42:13Z</time>
      </trkpt>
      <trkpt lat="45.95489" lon="4.58684">
        <ele>521</ele>
        <time>2017-03-19T10:42:14Z</time>
      </trkpt>
      <trkpt lat="45.95489" lon="4.58692">
        <ele>522</ele>
        <time>2017-03-19T10:42:15Z</time>
      </trkpt>
      <trkpt lat="45.9549" lon="4.587">
        <ele>523</ele>
        <time>2017-03-19T10:42:16Z</time>
      </trkpt>
      <trkpt lat="45.9549" lon="4.58708">
        <ele>523</ele>
        <time>2017-03-19T10:42:17Z</time>
      </trkpt>
      <trkpt lat="45.95491" lon="4.58716">
        <ele>524</ele>
        <time>2017-03-19T10:42:18Z</time>
      </trkpt>
      <trkpt lat="45.95491" lon="4.58724">
        <ele>523</ele>
        <time>2017-03-19T10:42:19Z</time>
      </trkpt>
      <trkpt lat="45.95491" lon="4.58732">
        <ele>523</ele>
        <time>2017-03-19T10:42:20Z</time>
      </trkpt>
      <trkpt lat="45.9549" lon="4.58739">
        <ele>523</ele>
        <time>2017-03-19T10:42:21Z</time>
      </trkpt>
      <trkpt lat="45.95489" lon="4.58746">
        <ele>522</ele>
        <time>2017-03-19T10:42:22Z</time>
      </trkpt>
      <trkpt lat="45.95489" lon="4.58753">
        <ele>524</ele>
        <time>2017-03-19T10:42:23Z</time>
      </trkpt>
      <trkpt lat="45.95488" lon="4.5876">
        <ele>525</ele>
        <time>2017-03-19T10:42:24Z</time>
      </trkpt>
      <trkpt lat="45.95489" lon="4.58767">
        <ele>526</ele>
        <time>2017-03-19T10:42:25Z</time>
      </trkpt>
      <trkpt lat="45.9549" lon="4.58774">
        <ele>527</ele>
        <time>2017-03-19T10:42:26Z</time>
      </trkpt>
      <trkpt lat="45.95492" lon="4.58781">
        <ele>527</ele>
        <time>2017-03-19T10:42:27Z</time>
      </trkpt>
      <trkpt lat="45.95494" lon="4.58789">
        <ele>528</ele>
        <time>2017-03-19T10:42:28Z</time>
      </trkpt>
      <trkpt lat="45.95496" lon="4.58796">
        <ele>528</ele>
        <time>2017-03-19T10:42:29Z</time>
      </trkpt>
      <trkpt lat="45.955" lon="4.58803">
        <ele>528</ele>
        <time>2017-03-19T10:42:30Z</time>
      </trkpt>
      <trkpt lat="45.95503" lon="4.5881">
        <ele>521</ele>
        <time>2017-03-19T10:42:31Z</time>
      </trkpt>
      <trkpt lat="45.95507" lon="4.58817">
        <ele>522</ele>
        <time>2017-03-19T10:42:32Z</time>
      </trkpt>
      <trkpt lat="45.9551" lon="4.58823">
        <ele>522</ele>
        <time>2017-03-19T10:42:33Z</time>
      </trkpt>
      <trkpt lat="45.95514" lon="4.5883">
        <ele>522</ele>
        <time>2017-03-19T10:42:34Z</time>
      </trkpt>
      <trkpt lat="45.95517" lon="4.58837">
        <ele>527</ele>
        <time>2017-03-19T10:42:35Z</time>
      </trkpt>
      <trkpt lat="45.95521" lon="4.58842">
        <ele>527</ele>
        <time>2017-03-19T10:42:36Z</time>
      </trkpt>
      <trkpt lat="45.95525" lon="4.58848">
        <ele>527</ele>
        <time>2017-03-19T10:42:37Z</time>
      </trkpt>
      <trkpt lat="45.95529" lon="4.58852">
        <ele>527</ele>
        <time>2017-03-19T10:42:38Z</time>
      </trkpt>
      <trkpt lat="45.95534" lon="4.58855">
        <ele>527</ele>
        <time>2017-03-19T10:42:39Z</time>
      </trkpt>
      <trkpt lat="45.95539" lon="4.58858">
        <ele>527</ele>
        <time>2017-03-19T10:42:40Z</time>
      </trkpt>
      <trkpt lat="45.95543" lon="4.5886">
        <ele>527</ele>
        <time>2017-03-19T10:42:41Z</time>
      </trkpt>
      <trkpt lat="45.95548" lon="4.58861">
        <ele>527</ele>
        <time>2017-03-19T10:42:42Z</time>
      </trkpt>
      <trkpt lat="45.95553" lon="4.58862">
        <ele>527</ele>
        <time>2017-03-19T10:42:43Z</time>
      </trkpt>
      <trkpt lat="45.95558" lon="4.58863">
        <ele>527</ele>
        <time>2017-03-19T10:42:44Z</time>
      </trkpt>
      <trkpt lat="45.95563" lon="4.58864">
        <ele>526</ele>
        <time>2017-03-19T10:42:45Z</time>
      </trkpt>
      <trkpt lat="45.95568" lon="4.58864">
        <ele>526</ele>
        <time>2017-03-19T10:42:46Z</time>
      </trkpt>
      <trkpt lat="45.95574" lon="4.58865">
        <ele>526</ele>
        <time>2017-03-19T10:42:47Z</time>
      </trkpt>
      <trkpt lat="45.95579" lon="4.58865">
        <ele>526</ele>
        <time>2017-03-19T10:42:48Z</time>
      </trkpt>
      <trkpt lat="45.95586" lon="4.58865">
        <ele>525</ele>
        <time>2017-03-19T10:42:49Z</time>
      </trkpt>
      <trkpt lat="45.95592" lon="4.58864">
        <ele>525</ele>
        <time>2017-03-19T10:42:50Z</time>
      </trkpt>
      <trkpt lat="45.95598" lon="4.58864">
        <ele>525</ele>
        <time>2017-03-19T10:42:51Z</time>
      </trkpt>
      <trkpt lat="45.95603" lon="4.58864">
        <ele>525</ele>
        <time>2017-03-19T10:42:52Z</time>
      </trkpt>
      <trkpt lat="45.95609" lon="4.58863">
        <ele>525</ele>
        <time>2017-03-19T10:42:53Z</time>
      </trkpt>
      <trkpt lat="45.95614" lon="4.58863">
        <ele>525</ele>
        <time>2017-03-19T10:42:54Z</time>
      </trkpt>
      <trkpt lat="45.95619" lon="4.58862">
        <ele>525</ele>
        <time>2017-03-19T10:42:55Z</time>
      </trkpt>
      <trkpt lat="45.95625" lon="4.58861">
        <ele>525</ele>
        <time>2017-03-19T10:42:56Z</time>
      </trkpt>
      <trkpt lat="45.9563" lon="4.5886">
        <ele>525</ele>
        <time>2017-03-19T10:42:57Z</time>
      </trkpt>
      <trkpt lat="45.95636" lon="4.58859">
        <ele>525</ele>
        <time>2017-03-19T10:42:58Z</time>
      </trkpt>
      <trkpt lat="45.95642" lon="4.58858">
        <ele>525</ele>
        <time>2017-03-19T10:42:59Z</time>
      </trkpt>
      <trkpt lat="45.95647" lon="4.58857">
        <ele>524</ele>
        <time>2017-03-19T10:43:00Z</time>
      </trkpt>
      <trkpt lat="45.95653" lon="4.58856">
        <ele>524</ele>
        <time>2017-03-19T10:43:01Z</time>
      </trkpt>
      <trkpt lat="45.95658" lon="4.58855">
        <ele>523</ele>
        <time>2017-03-19T10:43:02Z</time>
      </trkpt>
      <trkpt lat="45.95664" lon="4.58853">
        <ele>523</ele>
        <time>2017-03-19T10:43:03Z</time>
      </trkpt>
      <trkpt lat="45.95668" lon="4.58851">
        <ele>525</ele>
        <time>2017-03-19T10:43:04Z</time>
      </trkpt>
      <trkpt lat="45.95673" lon="4.5885">
        <ele>525</ele>
        <time>2017-03-19T10:43:05Z</time>
      </trkpt>
      <trkpt lat="45.95677" lon="4.58848">
        <ele>525</ele>
        <time>2017-03-19T10:43:06Z</time>
      </trkpt>
      <trkpt lat="45.95682" lon="4.58847">
        <ele>526</ele>
        <time>2017-03-19T10:43:07Z</time>
      </trkpt>
      <trkpt lat="45.9569" lon="4.58844">
        <ele>527</ele>
        <time>2017-03-19T10:43:09Z</time>
      </trkpt>
      <trkpt lat="45.95695" lon="4.58842">
        <ele>528</ele>
        <time>2017-03-19T10:43:10Z</time>
      </trkpt>
      <trkpt lat="45.95699" lon="4.58841">
        <ele>529</ele>
        <time>2017-03-19T10:43:11Z</time>
      </trkpt>
      <trkpt lat="45.95704" lon="4.58839">
        <ele>529</ele>
        <time>2017-03-19T10:43:12Z</time>
      </trkpt>
      <trkpt lat="45.95708" lon="4.58836">
        <ele>530</ele>
        <time>2017-03-19T10:43:13Z</time>
      </trkpt>
      <trkpt lat="45.95712" lon="4.58833">
        <ele>518</ele>
        <time>2017-03-19T10:43:14Z</time>
      </trkpt>
      <trkpt lat="45.95719" lon="4.58825">
        <ele>518</ele>
        <time>2017-03-19T10:43:16Z</time>
      </trkpt>
      <trkpt lat="45.95722" lon="4.58821">
        <ele>518</ele>
        <time>2017-03-19T10:43:17Z</time>
      </trkpt>
      <trkpt lat="45.95728" lon="4.58814">
        <ele>518</ele>
        <time>2017-03-19T10:43:19Z</time>
      </trkpt>
      <trkpt lat="45.95732" lon="4.58811">
        <ele>518</ele>
        <time>2017-03-19T10:43:20Z</time>
      </trkpt>
      <trkpt lat="45.95736" lon="4.58808">
        <ele>518</ele>
        <time>2017-03-19T10:43:21Z</time>
      </trkpt>
      <trkpt lat="45.95739" lon="4.58804">
        <ele>518</ele>
        <time>2017-03-19T10:43:22Z</time>
      </trkpt>
      <trkpt lat="45.95747" lon="4.58799">
        <ele>518</ele>
        <time>2017-03-19T10:43:24Z</time>
      </trkpt>
      <trkpt lat="45.95751" lon="4.58796">
        <ele>524</ele>
        <time>2017-03-19T10:43:25Z</time>
      </trkpt>
      <trkpt lat="45.95756" lon="4.58792">
        <ele>524</ele>
        <time>2017-03-19T10:43:26Z</time>
      </trkpt>
      <trkpt lat="45.9576" lon="4.58789">
        <ele>524</ele>
        <time>2017-03-19T10:43:27Z</time>
      </trkpt>
      <trkpt lat="45.95764" lon="4.58787">
        <ele>524</ele>
        <time>2017-03-19T10:43:28Z</time>
      </trkpt>
      <trkpt lat="45.95768" lon="4.58785">
        <ele>524</ele>
        <time>2017-03-19T10:43:29Z</time>
      </trkpt>
      <trkpt lat="45.95776" lon="4.58781">
        <ele>524</ele>
        <time>2017-03-19T10:43:31Z</time>
      </trkpt>
      <trkpt lat="45.9578" lon="4.58779">
        <ele>524</ele>
        <time>2017-03-19T10:43:32Z</time>
      </trkpt>
      <trkpt lat="45.95787" lon="4.58774">
        <ele>524</ele>
        <time>2017-03-19T10:43:34Z</time>
      </trkpt>
      <trkpt lat="45.95791" lon="4.58772">
        <ele>524</ele>
        <time>2017-03-19T10:43:35Z</time>
      </trkpt>
      <trkpt lat="45.95798" lon="4.58768">
        <ele>524</ele>
        <time>2017-03-19T10:43:37Z</time>
      </trkpt>
      <trkpt lat="45.95802" lon="4.58766">
        <ele>525</ele>
        <time>2017-03-19T10:43:38Z</time>
      </trkpt>
      <trkpt lat="45.95809" lon="4.58761">
        <ele>525</ele>
        <time>2017-03-19T10:43:40Z</time>
      </trkpt>
      <trkpt lat="45.95812" lon="4.58758">
        <ele>525</ele>
        <time>2017-03-19T10:43:41Z</time>
      </trkpt>
      <trkpt lat="45.9582" lon="4.58752">
        <ele>525</ele>
        <time>2017-03-19T10:43:43Z</time>
      </trkpt>
      <trkpt lat="45.95823" lon="4.5875">
        <ele>519</ele>
        <time>2017-03-19T10:43:44Z</time>
      </trkpt>
      <trkpt lat="45.9583" lon="4.58744">
        <ele>520</ele>
        <time>2017-03-19T10:43:46Z</time>
      </trkpt>
      <trkpt lat="45.95833" lon="4.58741">
        <ele>519</ele>
        <time>2017-03-19T10:43:47Z</time>
      </trkpt>
      <trkpt lat="45.9584" lon="4.58734">
        <ele>525</ele>
        <time>2017-03-19T10:43:49Z</time>
      </trkpt>
      <trkpt lat="45.95844" lon="4.5873">
        <ele>525</ele>
        <time>2017-03-19T10:43:50Z</time>
      </trkpt>
      <trkpt lat="45.9585" lon="4.58723">
        <ele>526</ele>
        <time>2017-03-19T10:43:52Z</time>
      </trkpt>
      <trkpt lat="45.95853" lon="4.5872">
        <ele>526</ele>
        <time>2017-03-19T10:43:53Z</time>
      </trkpt>
      <trkpt lat="45.95857" lon="4.58716">
        <ele>526</ele>
        <time>2017-03-19T10:43:54Z</time>
      </trkpt>
      <trkpt lat="45.95861" lon="4.58712">
        <ele>526</ele>
        <time>2017-03-19T10:43:55Z</time>
      </trkpt>
      <trkpt lat="45.95864" lon="4.58707">
        <ele>526</ele>
        <time>2017-03-19T10:43:56Z</time>
      </trkpt>
      <trkpt lat="45.95869" lon="4.58702">
        <ele>526</ele>
        <time>2017-03-19T10:43:57Z</time>
      </trkpt>
      <trkpt lat="45.95872" lon="4.58697">
        <ele>526</ele>
        <time>2017-03-19T10:43:58Z</time>
      </trkpt>
      <trkpt lat="45.95876" lon="4.58691">
        <ele>526</ele>
        <time>2017-03-19T10:43:59Z</time>
      </trkpt>
      <trkpt lat="45.95879" lon="4.58685">
        <ele>526</ele>
        <time>2017-03-19T10:44:00Z</time>
      </trkpt>
      <trkpt lat="45.95881" lon="4.5868">
        <ele>526</ele>
        <time>2017-03-19T10:44:01Z</time>
      </trkpt>
      <trkpt lat="45.95884" lon="4.58674">
        <ele>526</ele>
        <time>2017-03-19T10:44:02Z</time>
      </trkpt>
      <trkpt lat="45.95887" lon="4.58668">
        <ele>526</ele>
        <time>2017-03-19T10:44:03Z</time>
      </trkpt>
      <trkpt lat="45.9589" lon="4.58663">
        <ele>517</ele>
        <time>2017-03-19T10:44:04Z</time>
      </trkpt>
      <trkpt lat="45.95894" lon="4.58657">
        <ele>518</ele>
        <time>2017-03-19T10:44:05Z</time>
      </trkpt>
      <trkpt lat="45.95897" lon="4.58651">
        <ele>518</ele>
        <time>2017-03-19T10:44:06Z</time>
      </trkpt>
      <trkpt lat="45.95899" lon="4.58646">
        <ele>517</ele>
        <time>2017-03-19T10:44:07Z</time>
      </trkpt>
      <trkpt lat="45.95903" lon="4.5864">
        <ele>517</ele>
        <time>2017-03-19T10:44:08Z</time>
      </trkpt>
      <trkpt lat="45.95906" lon="4.58635">
        <ele>516</ele>
        <time>2017-03-19T10:44:09Z</time>
      </trkpt>
      <trkpt lat="45.95909" lon="4.58629">
        <ele>516</ele>
        <time>2017-03-19T10:44:10Z</time>
      </trkpt>
      <trkpt lat="45.95913" lon="4.58624">
        <ele>515</ele>
        <time>2017-03-19T10:44:11Z</time>
      </trkpt>
      <trkpt lat="45.95917" lon="4.58619">
        <ele>515</ele>
        <time>2017-03-19T10:44:12Z</time>
      </trkpt>
      <trkpt lat="45.9592" lon="4.58614">
        <ele>524</ele>
        <time>2017-03-19T10:44:13Z</time>
      </trkpt>
      <trkpt lat="45.95924" lon="4.58609">
        <ele>523</ele>
        <time>2017-03-19T10:44:14Z</time>
      </trkpt>
      <trkpt lat="45.95928" lon="4.58604">
        <ele>523</ele>
        <time>2017-03-19T10:44:15Z</time>
      </trkpt>
      <trkpt lat="45.95932" lon="4.58599">
        <ele>522</ele>
        <time>2017-03-19T10:44:16Z</time>
      </trkpt>
      <trkpt lat="45.95936" lon="4.58594">
        <ele>522</ele>
        <time>2017-03-19T10:44:17Z</time>
      </trkpt>
      <trkpt lat="45.9594" lon="4.5859">
        <ele>522</ele>
        <time>2017-03-19T10:44:18Z</time>
      </trkpt>
      <trkpt lat="45.95944" lon="4.58586">
        <ele>523</ele>
        <time>2017-03-19T10:44:19Z</time>
      </trkpt>
      <trkpt lat="45.95949" lon="4.58583">
        <ele>514</ele>
        <time>2017-03-19T10:44:20Z</time>
      </trkpt>
      <trkpt lat="45.95953" lon="4.5858">
        <ele>514</ele>
        <time>2017-03-19T10:44:21Z</time>
      </trkpt>
      <trkpt lat="45.95957" lon="4.58579">
        <ele>514</ele>
        <time>2017-03-19T10:44:22Z</time>
      </trkpt>
      <trkpt lat="45.95962" lon="4.58579">
        <ele>514</ele>
        <time>2017-03-19T10:44:23Z</time>
      </trkpt>
      <trkpt lat="45.95966" lon="4.58578">
        <ele>514</ele>
        <time>2017-03-19T10:44:24Z</time>
      </trkpt>
      <trkpt lat="45.95972" lon="4.58579">
        <ele>515</ele>
        <time>2017-03-19T10:44:25Z</time>
      </trkpt>
      <trkpt lat="45.95978" lon="4.5858">
        <ele>515</ele>
        <time>2017-03-19T10:44:26Z</time>
      </trkpt>
      <trkpt lat="45.95984" lon="4.58582">
        <ele>516</ele>
        <time>2017-03-19T10:44:27Z</time>
      </trkpt>
      <trkpt lat="45.95991" lon="4.58585">
        <ele>522</ele>
        <time>2017-03-19T10:44:28Z</time>
      </trkpt>
      <trkpt lat="45.95996" lon="4.58588">
        <ele>522</ele>
        <time>2017-03-19T10:44:29Z</time>
      </trkpt>
      <trkpt lat="45.96001" lon="4.58591">
        <ele>522</ele>
        <time>2017-03-19T10:44:30Z</time>
      </trkpt>
      <trkpt lat="45.96007" lon="4.58595">
        <ele>523</ele>
        <time>2017-03-19T10:44:31Z</time>
      </trkpt>
      <trkpt lat="45.96012" lon="4.58599">
        <ele>524</ele>
        <time>2017-03-19T10:44:32Z</time>
      </trkpt>
      <trkpt lat="45.96017" lon="4.58603">
        <ele>525</ele>
        <time>2017-03-19T10:44:33Z</time>
      </trkpt>
      <trkpt lat="45.96022" lon="4.58607">
        <ele>525</ele>
        <time>2017-03-19T10:44:34Z</time>
      </trkpt>
      <trkpt lat="45.96027" lon="4.5861">
        <ele>526</ele>
        <time>2017-03-19T10:44:35Z</time>
      </trkpt>
      <trkpt lat="45.96032" lon="4.58614">
        <ele>526</ele>
        <time>2017-03-19T10:44:36Z</time>
      </trkpt>
      <trkpt lat="45.96037" lon="4.58617">
        <ele>526</ele>
        <time>2017-03-19T10:44:37Z</time>
      </trkpt>
      <trkpt lat="45.96042" lon="4.5862">
        <ele>527</ele>
        <time>2017-03-19T10:44:38Z</time>
      </trkpt>
      <trkpt lat="45.96047" lon="4.58622">
        <ele>527</ele>
        <time>2017-03-19T10:44:39Z</time>
      </trkpt>
      <trkpt lat="45.96052" lon="4.58624">
        <ele>527</ele>
        <time>2017-03-19T10:44:40Z</time>
      </trkpt>
      <trkpt lat="45.96057" lon="4.58626">
        <ele>527</ele>
        <time>2017-03-19T10:44:41Z</time>
      </trkpt>
      <trkpt lat="45.96062" lon="4.58628">
        <ele>527</ele>
        <time>2017-03-19T10:44:42Z</time>
      </trkpt>
      <trkpt lat="45.96066" lon="4.58629">
        <ele>527</ele>
        <time>2017-03-19T10:44:43Z</time>
      </trkpt>
      <trkpt lat="45.96071" lon="4.58629">
        <ele>527</ele>
        <time>2017-03-19T10:44:44Z</time>
      </trkpt>
      <trkpt lat="45.96076" lon="4.5863">
        <ele>527</ele>
        <time>2017-03-19T10:44:45Z</time>
      </trkpt>
      <trkpt lat="45.96081" lon="4.5863">
        <ele>527</ele>
        <time>2017-03-19T10:44:46Z</time>
      </trkpt>
      <trkpt lat="45.96085" lon="4.5863">
        <ele>531</ele>
        <time>2017-03-19T10:44:47Z</time>
      </trkpt>
      <trkpt lat="45.96091" lon="4.5863">
        <ele>531</ele>
        <time>2017-03-19T10:44:48Z</time>
      </trkpt>
      <trkpt lat="45.96097" lon="4.58629">
        <ele>531</ele>
        <time>2017-03-19T10:44:49Z</time>
      </trkpt>
      <trkpt lat="45.96102" lon="4.58627">
        <ele>531</ele>
        <time>2017-03-19T10:44:50Z</time>
      </trkpt>
      <trkpt lat="45.96107" lon="4.58625">
        <ele>531</ele>
        <time>2017-03-19T10:44:51Z</time>
      </trkpt>
      <trkpt lat="45.96112" lon="4.58622">
        <ele>531</ele>
        <time>2017-03-19T10:44:52Z</time>
      </trkpt>
      <trkpt lat="45.96116" lon="4.58619">
        <ele>531</ele>
        <time>2017-03-19T10:44:53Z</time>
      </trkpt>
      <trkpt lat="45.9612" lon="4.58616">
        <ele>531</ele>
        <time>2017-03-19T10:44:54Z</time>
      </trkpt>
      <trkpt lat="45.96124" lon="4.58612">
        <ele>531</ele>
        <time>2017-03-19T10:44:55Z</time>
      </trkpt>
      <trkpt lat="45.96128" lon="4.58607">
        <ele>531</ele>
        <time>2017-03-19T10:44:56Z</time>
      </trkpt>
      <trkpt lat="45.96132" lon="4.58603">
        <ele>531</ele>
        <time>2017-03-19T10:44:57Z</time>
      </trkpt>
      <trkpt lat="45.96136" lon="4.58597">
        <ele>531</ele>
        <time>2017-03-19T10:44:58Z</time>
      </trkpt>
      <trkpt lat="45.96141" lon="4.58593">
        <ele>531</ele>
        <time>2017-03-19T10:44:59Z</time>
      </trkpt>
      <trkpt lat="45.96145" lon="4.58588">
        <ele>531</ele>
        <time>2017-03-19T10:45:00Z</time>
      </trkpt>
      <trkpt lat="45.96148" lon="4.58583">
        <ele>521</ele>
        <time>2017-03-19T10:45:01Z</time>
      </trkpt>
      <trkpt lat="45.96152" lon="4.58579">
        <ele>522</ele>
        <time>2017-03-19T10:45:02Z</time>
      </trkpt>
      <trkpt lat="45.96155" lon="4.58574">
        <ele>522</ele>
        <time>2017-03-19T10:45:03Z</time>
      </trkpt>
      <trkpt lat="45.96161" lon="4.58565">
        <ele>520</ele>
        <time>2017-03-19T10:45:05Z</time>
      </trkpt>
      <trkpt lat="45.96165" lon="4.5856">
        <ele>519</ele>
        <time>2017-03-19T10:45:06Z</time>
      </trkpt>
      <trkpt lat="45.96169" lon="4.58556">
        <ele>526</ele>
        <time>2017-03-19T10:45:07Z</time>
      </trkpt>
      <trkpt lat="45.96173" lon="4.58551">
        <ele>525</ele>
        <time>2017-03-19T10:45:08Z</time>
      </trkpt>
      <trkpt lat="45.96177" lon="4.58546">
        <ele>525</ele>
        <time>2017-03-19T10:45:09Z</time>
      </trkpt>
      <trkpt lat="45.96181" lon="4.58541">
        <ele>524</ele>
        <time>2017-03-19T10:45:10Z</time>
      </trkpt>
      <trkpt lat="45.96185" lon="4.58536">
        <ele>523</ele>
        <time>2017-03-19T10:45:11Z</time>
      </trkpt>
      <trkpt lat="45.96189" lon="4.58531">
        <ele>523</ele>
        <time>2017-03-19T10:45:12Z</time>
      </trkpt>
      <trkpt lat="45.96195" lon="4.58523">
        <ele>522</ele>
        <time>2017-03-19T10:45:14Z</time>
      </trkpt>
      <trkpt lat="45.96199" lon="4.5852">
        <ele>522</ele>
        <time>2017-03-19T10:45:15Z</time>
      </trkpt>
      <trkpt lat="45.96206" lon="4.58516">
        <ele>522</ele>
        <time>2017-03-19T10:45:17Z</time>
      </trkpt>
      <trkpt lat="45.96209" lon="4.58514">
        <ele>522</ele>
        <time>2017-03-19T10:45:18Z</time>
      </trkpt>
      <trkpt lat="45.96217" lon="4.5851">
        <ele>522</ele>
        <time>2017-03-19T10:45:20Z</time>
      </trkpt>
      <trkpt lat="45.96221" lon="4.58509">
        <ele>522</ele>
        <time>2017-03-19T10:45:21Z</time>
      </trkpt>
      <trkpt lat="45.9623" lon="4.58506">
        <ele>522</ele>
        <time>2017-03-19T10:45:23Z</time>
      </trkpt>
      <trkpt lat="45.96234" lon="4.58505">
        <ele>521</ele>
        <time>2017-03-19T10:45:24Z</time>
      </trkpt>
      <trkpt lat="45.96239" lon="4.58505">
        <ele>521</ele>
        <time>2017-03-19T10:45:25Z</time>
      </trkpt>
      <trkpt lat="45.96243" lon="4.58506">
        <ele>520</ele>
        <time>2017-03-19T10:45:26Z</time>
      </trkpt>
      <trkpt lat="45.96249" lon="4.58507">
        <ele>520</ele>
        <time>2017-03-19T10:45:27Z</time>
      </trkpt>
      <trkpt lat="45.96254" lon="4.58508">
        <ele>521</ele>
        <time>2017-03-19T10:45:28Z</time>
      </trkpt>
      <trkpt lat="45.96258" lon="4.5851">
        <ele>522</ele>
        <time>2017-03-19T10:45:29Z</time>
      </trkpt>
      <trkpt lat="45.96263" lon="4.58513">
        <ele>523</ele>
        <time>2017-03-19T10:45:30Z</time>
      </trkpt>
      <trkpt lat="45.96267" lon="4.58515">
        <ele>524</ele>
        <time>2017-03-19T10:45:31Z</time>
      </trkpt>
      <trkpt lat="45.96272" lon="4.58517">
        <ele>524</ele>
        <time>2017-03-19T10:45:32Z</time>
      </trkpt>
      <trkpt lat="45.9628" lon="4.58521">
        <ele>525</ele>
        <time>2017-03-19T10:45:34Z</time>
      </trkpt>
      <trkpt lat="45.96284" lon="4.58523">
        <ele>525</ele>
        <time>2017-03-19T10:45:35Z</time>
      </trkpt>
      <trkpt lat="45.96292" lon="4.58527">
        <ele>525</ele>
        <time>2017-03-19T10:45:37Z</time>
      </trkpt>
      <trkpt lat="45.96297" lon="4.58529">
        <ele>525</ele>
        <time>2017-03-19T10:45:38Z</time>
      </trkpt>
      <trkpt lat="45.96302" lon="4.58532">
        <ele>526</ele>
        <time>2017-03-19T10:45:39Z</time>
      </trkpt>
      <trkpt lat="45.96307" lon="4.58534">
        <ele>526</ele>
        <time>2017-03-19T10:45:40Z</time>
      </trkpt>
      <trkpt lat="45.96312" lon="4.58536">
        <ele>526</ele>
        <time>2017-03-19T10:45:41Z</time>
      </trkpt>
      <trkpt lat="45.96317" lon="4.58538">
        <ele>526</ele>
        <time>2017-03-19T10:45:42Z</time>
      </trkpt>
      <trkpt lat="45.96321" lon="4.58539">
        <ele>526</ele>
        <time>2017-03-19T10:45:43Z</time>
      </trkpt>
      <trkpt lat="45.96325" lon="4.5854">
        <ele>526</ele>
        <time>2017-03-19T10:45:44Z</time>
      </trkpt>
      <trkpt lat="45.96333" lon="4.58541">
        <ele>526</ele>
        <time>2017-03-19T10:45:46Z</time>
      </trkpt>
      <trkpt lat="45.96337" lon="4.5854">
        <ele>530</ele>
        <time>2017-03-19T10:45:47Z</time>
      </trkpt>
      <trkpt lat="45.96345" lon="4.58537">
        <ele>530</ele>
        <time>2017-03-19T10:45:49Z</time>
      </trkpt>
      <trkpt lat="45.96349" lon="4.58535">
        <ele>530</ele>
        <time>2017-03-19T10:45:50Z</time>
      </trkpt>
      <trkpt lat="45.96357" lon="4.58531">
        <ele>530</ele>
        <time>2017-03-19T10:45:52Z</time>
      </trkpt>
      <trkpt lat="45.96361" lon="4.58528">
        <ele>530</ele>
        <time>2017-03-19T10:45:53Z</time>
      </trkpt>
      <trkpt lat="45.96365" lon="4.58525">
        <ele>530</ele>
        <time>2017-03-19T10:45:54Z</time>
      </trkpt>
      <trkpt lat="45.9637" lon="4.58521">
        <ele>530</ele>
        <time>2017-03-19T10:45:55Z</time>
      </trkpt>
      <trkpt lat="45.96374" lon="4.58517">
        <ele>530</ele>
        <time>2017-03-19T10:45:56Z</time>
      </trkpt>
      <trkpt lat="45.96378" lon="4.58513">
        <ele>531</ele>
        <time>2017-03-19T10:45:57Z</time>
      </trkpt>
      <trkpt lat="45.96381" lon="4.58509">
        <ele>531</ele>
        <time>2017-03-19T10:45:58Z</time>
      </trkpt>
      <trkpt lat="45.96385" lon="4.58505">
        <ele>531</ele>
        <time>2017-03-19T10:45:59Z</time>
      </trkpt>
      <trkpt lat="45.96392" lon="4.58498">
        <ele>520</ele>
        <time>2017-03-19T10:46:01Z</time>
      </trkpt>
      <trkpt lat="45.96394" lon="4.58495">
        <ele>521</ele>
        <time>2017-03-19T10:46:02Z</time>
      </trkpt>
      <trkpt lat="45.964" lon="4.58489">
        <ele>522</ele>
        <time>2017-03-19T10:46:04Z</time>
      </trkpt>
      <trkpt lat="45.96403" lon="4.58486">
        <ele>522</ele>
        <time>2017-03-19T10:46:05Z</time>
      </trkpt>
      <trkpt lat="45.96408" lon="4.58479">
        <ele>521</ele>
        <time>2017-03-19T10:46:07Z</time>
      </trkpt>
      <trkpt lat="45.96411" lon="4.58476">
        <ele>520</ele>
        <time>2017-03-19T10:46:08Z</time>
      </trkpt>
      <trkpt lat="45.96417" lon="4.58469">
        <ele>530</ele>
        <time>2017-03-19T10:46:10Z</time>
      </trkpt>
      <trkpt lat="45.96421" lon="4.58466">
        <ele>529</ele>
        <time>2017-03-19T10:46:11Z</time>
      </trkpt>
      <trkpt lat="45.96427" lon="4.58459">
        <ele>528</ele>
        <time>2017-03-19T10:46:13Z</time>
      </trkpt>
      <trkpt lat="45.9643" lon="4.58456">
        <ele>528</ele>
        <time>2017-03-19T10:46:14Z</time>
      </trkpt>
      <trkpt lat="45.96435" lon="4.58449">
        <ele>527</ele>
        <time>2017-03-19T10:46:16Z</time>
      </trkpt>
      <trkpt lat="45.96438" lon="4.58446">
        <ele>527</ele>
        <time>2017-03-19T10:46:17Z</time>
      </trkpt>
      <trkpt lat="45.96444" lon="4.58438">
        <ele>526</ele>
        <time>2017-03-19T10:46:19Z</time>
      </trkpt>
      <trkpt lat="45.96447" lon="4.58434">
        <ele>526</ele>
        <time>2017-03-19T10:46:20Z</time>
      </trkpt>
      <trkpt lat="45.96455" lon="4.58427">
        <ele>527</ele>
        <time>2017-03-19T10:46:22Z</time>
      </trkpt>
      <trkpt lat="45.96459" lon="4.58424">
        <ele>527</ele>
        <time>2017-03-19T10:46:23Z</time>
      </trkpt>
      <trkpt lat="45.96465" lon="4.58418">
        <ele>527</ele>
        <time>2017-03-19T10:46:25Z</time>
      </trkpt>
      <trkpt lat="45.96468" lon="4.58416">
        <ele>515</ele>
        <time>2017-03-19T10:46:26Z</time>
      </trkpt>
      <trkpt lat="45.96475" lon="4.58411">
        <ele>516</ele>
        <time>2017-03-19T10:46:28Z</time>
      </trkpt>
      <trkpt lat="45.96478" lon="4.58409">
        <ele>517</ele>
        <time>2017-03-19T10:46:29Z</time>
      </trkpt>
      <trkpt lat="45.96486" lon="4.58406">
        <ele>518</ele>
        <time>2017-03-19T10:46:31Z</time>
      </trkpt>
      <trkpt lat="45.9649" lon="4.58405">
        <ele>519</ele>
        <time>2017-03-19T10:46:32Z</time>
      </trkpt>
      <trkpt lat="45.96497" lon="4.58404">
        <ele>520</ele>
        <time>2017-03-19T10:46:34Z</time>
      </trkpt>
      <trkpt lat="45.96501" lon="4.58404">
        <ele>520</ele>
        <time>2017-03-19T10:46:35Z</time>
      </trkpt>
      <trkpt lat="45.96509" lon="4.58405">
        <ele>520</ele>
        <time>2017-03-19T10:46:37Z</time>
      </trkpt>
      <trkpt lat="45.96513" lon="4.58407">
        <ele>519</ele>
        <time>2017-03-19T10:46:38Z</time>
      </trkpt>
      <trkpt lat="45.9652" lon="4.5841">
        <ele>518</ele>
        <time>2017-03-19T10:46:40Z</time>
      </trkpt>
      <trkpt lat="45.96524" lon="4.58412">
        <ele>517</ele>
        <time>2017-03-19T10:46:41Z</time>
      </trkpt>
      <trkpt lat="45.96531" lon="4.58416">
        <ele>516</ele>
        <time>2017-03-19T10:46:43Z</time>
      </trkpt>
      <trkpt lat="45.96534" lon="4.58418">
        <ele>528</ele>
        <time>2017-03-19T10:46:44Z</time>
      </trkpt>
      <trkpt lat="45.96542" lon="4.58422">
        <ele>528</ele>
        <time>2017-03-19T10:46:46Z</time>
      </trkpt>
      <trkpt lat="45.96546" lon="4.58425">
        <ele>527</ele>
        <time>2017-03-19T10:46:47Z</time>
      </trkpt>
      <trkpt lat="45.96553" lon="4.5843">
        <ele>527</ele>
        <time>2017-03-19T10:46:49Z</time>
      </trkpt>
      <trkpt lat="45.96557" lon="4.58434">
        <ele>526</ele>
        <time>2017-03-19T10:46:50Z</time>
      </trkpt>
      <trkpt lat="45.96562" lon="4.58437">
        <ele>526</ele>
        <time>2017-03-19T10:46:51Z</time>
      </trkpt>
      <trkpt lat="45.96566" lon="4.58441">
        <ele>526</ele>
        <time>2017-03-19T10:46:52Z</time>
      </trkpt>
      <trkpt lat="45.96571" lon="4.58443">
        <ele>526</ele>
        <time>2017-03-19T10:46:53Z</time>
      </trkpt>
      <trkpt lat="45.96576" lon="4.58446">
        <ele>527</ele>
        <time>2017-03-19T10:46:54Z</time>
      </trkpt>
      <trkpt lat="45.9658" lon="4.5845">
        <ele>527</ele>
        <time>2017-03-19T10:46:55Z</time>
      </trkpt>
      <trkpt lat="45.96585" lon="4.58453">
        <ele>519</ele>
        <time>2017-03-19T10:46:56Z</time>
      </trkpt>
      <trkpt lat="45.9659" lon="4.58457">
        <ele>520</ele>
        <time>2017-03-19T10:46:57Z</time>
      </trkpt>
      <trkpt lat="45.96595" lon="4.5846">
        <ele>520</ele>
        <time>2017-03-19T10:46:58Z</time>
      </trkpt>
      <trkpt lat="45.96599" lon="4.58464">
        <ele>520</ele>
        <time>2017-03-19T10:46:59Z</time>
      </trkpt>
      <trkpt lat="45.96603" lon="4.58467">
        <ele>521</ele>
        <time>2017-03-19T10:47:00Z</time>
      </trkpt>
      <trkpt lat="45.96607" lon="4.58471">
        <ele>521</ele>
        <time>2017-03-19T10:47:01Z</time>
      </trkpt>
      <trkpt lat="45.96611" lon="4.58474">
        <ele>521</ele>
        <time>2017-03-19T10:47:02Z</time>
      </trkpt>
      <trkpt lat="45.96615" lon="4.58477">
        <ele>521</ele>
        <time>2017-03-19T10:47:03Z</time>
      </trkpt>
      <trkpt lat="45.96619" lon="4.58481">
        <ele>521</ele>
        <time>2017-03-19T10:47:04Z</time>
      </trkpt>
      <trkpt lat="45.96623" lon="4.58486">
        <ele>521</ele>
        <time>2017-03-19T10:47:05Z</time>
      </trkpt>
      <trkpt lat="45.96627" lon="4.58491">
        <ele>520</ele>
        <time>2017-03-19T10:47:06Z</time>
      </trkpt>
      <trkpt lat="45.96631" lon="4.58496">
        <ele>520</ele>
        <time>2017-03-19T10:47:07Z</time>
      </trkpt>
      <trkpt lat="45.96635" lon="4.58502">
        <ele>532</ele>
        <time>2017-03-19T10:47:08Z</time>
      </trkpt>
      <trkpt lat="45.96639" lon="4.58508">
        <ele>532</ele>
        <time>2017-03-19T10:47:09Z</time>
      </trkpt>
      <trkpt lat="45.96643" lon="4.58513">
        <ele>531</ele>
        <time>2017-03-19T10:47:10Z</time>
      </trkpt>
      <trkpt lat="45.96647" lon="4.58518">
        <ele>531</ele>
        <time>2017-03-19T10:47:11Z</time>
      </trkpt>
      <trkpt lat="45.96651" lon="4.58524">
        <ele>532</ele>
        <time>2017-03-19T10:47:12Z</time>
      </trkpt>
      <trkpt lat="45.96655" lon="4.58528">
        <ele>532</ele>
        <time>2017-03-19T10:47:13Z</time>
      </trkpt>
      <trkpt lat="45.96659" lon="4.58532">
        <ele>533</ele>
        <time>2017-03-19T10:47:14Z</time>
      </trkpt>
      <trkpt lat="45.96664" lon="4.58536">
        <ele>534</ele>
        <time>2017-03-19T10:47:15Z</time>
      </trkpt>
      <trkpt lat="45.96668" lon="4.58538">
        <ele>532</ele>
        <time>2017-03-19T10:47:16Z</time>
      </trkpt>
      <trkpt lat="45.96673" lon="4.5854">
        <ele>532</ele>
        <time>2017-03-19T10:47:17Z</time>
      </trkpt>
      <trkpt lat="45.96679" lon="4.58541">
        <ele>533</ele>
        <time>2017-03-19T10:47:18Z</time>
      </trkpt>
      <trkpt lat="45.96684" lon="4.58541">
        <ele>533</ele>
        <time>2017-03-19T10:47:19Z</time>
      </trkpt>
      <trkpt lat="45.96689" lon="4.58542">
        <ele>534</ele>
        <time>2017-03-19T10:47:20Z</time>
      </trkpt>
      <trkpt lat="45.96695" lon="4.58542">
        <ele>534</ele>
        <time>2017-03-19T10:47:21Z</time>
      </trkpt>
      <trkpt lat="45.967" lon="4.58542">
        <ele>534</ele>
        <time>2017-03-19T10:47:22Z</time>
      </trkpt>
      <trkpt lat="45.96706" lon="4.58541">
        <ele>535</ele>
        <time>2017-03-19T10:47:23Z</time>
      </trkpt>
      <trkpt lat="45.96712" lon="4.5854">
        <ele>535</ele>
        <time>2017-03-19T10:47:24Z</time>
      </trkpt>
      <trkpt lat="45.96716" lon="4.58538">
        <ele>535</ele>
        <time>2017-03-19T10:47:25Z</time>
      </trkpt>
      <trkpt lat="45.96721" lon="4.58535">
        <ele>535</ele>
        <time>2017-03-19T10:47:26Z</time>
      </trkpt>
      <trkpt lat="45.96725" lon="4.5853">
        <ele>535</ele>
        <time>2017-03-19T10:47:27Z</time>
      </trkpt>
      <trkpt lat="45.96727" lon="4.58525">
        <ele>535</ele>
        <time>2017-03-19T10:47:28Z</time>
      </trkpt>
      <trkpt lat="45.9673" lon="4.5852">
        <ele>535</ele>
        <time>2017-03-19T10:47:29Z</time>
      </trkpt>
      <trkpt lat="45.96733" lon="4.58514">
        <ele>535</ele>
        <time>2017-03-19T10:47:30Z</time>
      </trkpt>
      <trkpt lat="45.96736" lon="4.58508">
        <ele>535</ele>
        <time>2017-03-19T10:47:31Z</time>
      </trkpt>
      <trkpt lat="45.96738" lon="4.58503">
        <ele>535</ele>
        <time>2017-03-19T10:47:32Z</time>
      </trkpt>
      <trkpt lat="45.9674" lon="4.58496">
        <ele>530</ele>
        <time>2017-03-19T10:47:33Z</time>
      </trkpt>
      <trkpt lat="45.96743" lon="4.58489">
        <ele>529</ele>
        <time>2017-03-19T10:47:34Z</time>
      </trkpt>
      <trkpt lat="45.96745" lon="4.58482">
        <ele>528</ele>
        <time>2017-03-19T10:47:35Z</time>
      </trkpt>
      <trkpt lat="45.96747" lon="4.58474">
        <ele>527</ele>
        <time>2017-03-19T10:47:36Z</time>
      </trkpt>
      <trkpt lat="45.96748" lon="4.58466">
        <ele>526</ele>
        <time>2017-03-19T10:47:37Z</time>
      </trkpt>
      <trkpt lat="45.96749" lon="4.58459">
        <ele>525</ele>
        <time>2017-03-19T10:47:38Z</time>
      </trkpt>
      <trkpt lat="45.96751" lon="4.58452">
        <ele>544</ele>
        <time>2017-03-19T10:47:39Z</time>
      </trkpt>
      <trkpt lat="45.96751" lon="4.58445">
        <ele>543</ele>
        <time>2017-03-19T10:47:40Z</time>
      </trkpt>
      <trkpt lat="45.96752" lon="4.58439">
        <ele>542</ele>
        <time>2017-03-19T10:47:41Z</time>
      </trkpt>
      <trkpt lat="45.96753" lon="4.58433">
        <ele>540</ele>
        <time>2017-03-19T10:47:42Z</time>
      </trkpt>
      <trkpt lat="45.96754" lon="4.5842">
        <ele>533</ele>
        <time>2017-03-19T10:47:44Z</time>
      </trkpt>
      <trkpt lat="45.96754" lon="4.58414">
        <ele>534</ele>
        <time>2017-03-19T10:47:45Z</time>
      </trkpt>
      <trkpt lat="45.96754" lon="4.58402">
        <ele>540</ele>
        <time>2017-03-19T10:47:47Z</time>
      </trkpt>
      <trkpt lat="45.96753" lon="4.58396">
        <ele>542</ele>
        <time>2017-03-19T10:47:48Z</time>
      </trkpt>
      <trkpt lat="45.96752" lon="4.58384">
        <ele>544</ele>
        <time>2017-03-19T10:47:50Z</time>
      </trkpt>
      <trkpt lat="45.96752" lon="4.58379">
        <ele>545</ele>
        <time>2017-03-19T10:47:51Z</time>
      </trkpt>
      <trkpt lat="45.96751" lon="4.58367">
        <ele>545</ele>
        <time>2017-03-19T10:47:53Z</time>
      </trkpt>
      <trkpt lat="45.9675" lon="4.58362">
        <ele>523</ele>
        <time>2017-03-19T10:47:54Z</time>
      </trkpt>
      <trkpt lat="45.96749" lon="4.58356">
        <ele>524</ele>
        <time>2017-03-19T10:47:55Z</time>
      </trkpt>
      <trkpt lat="45.96747" lon="4.58349">
        <ele>526</ele>
        <time>2017-03-19T10:47:56Z</time>
      </trkpt>
      <trkpt lat="45.96745" lon="4.58343">
        <ele>528</ele>
        <time>2017-03-19T10:47:57Z</time>
      </trkpt>
      <trkpt lat="45.96744" lon="4.58336">
        <ele>530</ele>
        <time>2017-03-19T10:47:58Z</time>
      </trkpt>
      <trkpt lat="45.9674" lon="4.58329">
        <ele>529</ele>
        <time>2017-03-19T10:47:59Z</time>
      </trkpt>
      <trkpt lat="45.96737" lon="4.58323">
        <ele>526</ele>
        <time>2017-03-19T10:48:00Z</time>
      </trkpt>
      <trkpt lat="45.96734" lon="4.58316">
        <ele>525</ele>
        <time>2017-03-19T10:48:01Z</time>
      </trkpt>
      <trkpt lat="45.96732" lon="4.5831">
        <ele>523</ele>
        <time>2017-03-19T10:48:02Z</time>
      </trkpt>
      <trkpt lat="45.96729" lon="4.58304">
        <ele>522</ele>
        <time>2017-03-19T10:48:03Z</time>
      </trkpt>
      <trkpt lat="45.96728" lon="4.58298">
        <ele>522</ele>
        <time>2017-03-19T10:48:04Z</time>
      </trkpt>
      <trkpt lat="45.96725" lon="4.58288">
        <ele>522</ele>
        <time>2017-03-19T10:48:06Z</time>
      </trkpt>
      <trkpt lat="45.96724" lon="4.58282">
        <ele>522</ele>
        <time>2017-03-19T10:48:07Z</time>
      </trkpt>
      <trkpt lat="45.96722" lon="4.58274">
        <ele>522</ele>
        <time>2017-03-19T10:48:08Z</time>
      </trkpt>
      <trkpt lat="45.96722" lon="4.58267">
        <ele>523</ele>
        <time>2017-03-19T10:48:09Z</time>
      </trkpt>
      <trkpt lat="45.96721" lon="4.5826">
        <ele>523</ele>
        <time>2017-03-19T10:48:10Z</time>
      </trkpt>
      <trkpt lat="45.9672" lon="4.58252">
        <ele>523</ele>
        <time>2017-03-19T10:48:11Z</time>
      </trkpt>
      <trkpt lat="45.96719" lon="4.58245">
        <ele>522</ele>
        <time>2017-03-19T10:48:12Z</time>
      </trkpt>
      <trkpt lat="45.96719" lon="4.58238">
        <ele>521</ele>
        <time>2017-03-19T10:48:13Z</time>
      </trkpt>
      <trkpt lat="45.96719" lon="4.58231">
        <ele>521</ele>
        <time>2017-03-19T10:48:14Z</time>
      </trkpt>
      <trkpt lat="45.96719" lon="4.58224">
        <ele>520</ele>
        <time>2017-03-19T10:48:15Z</time>
      </trkpt>
      <trkpt lat="45.9672" lon="4.58212">
        <ele>520</ele>
        <time>2017-03-19T10:48:17Z</time>
      </trkpt>
      <trkpt lat="45.96721" lon="4.58206">
        <ele>520</ele>
        <time>2017-03-19T10:48:18Z</time>
      </trkpt>
      <trkpt lat="45.96724" lon="4.58195">
        <ele>520</ele>
        <time>2017-03-19T10:48:20Z</time>
      </trkpt>
      <trkpt lat="45.96726" lon="4.58189">
        <ele>520</ele>
        <time>2017-03-19T10:48:21Z</time>
      </trkpt>
      <trkpt lat="45.96728" lon="4.58183">
        <ele>521</ele>
        <time>2017-03-19T10:48:22Z</time>
      </trkpt>
      <trkpt lat="45.9673" lon="4.58178">
        <ele>522</ele>
        <time>2017-03-19T10:48:23Z</time>
      </trkpt>
      <trkpt lat="45.96733" lon="4.58172">
        <ele>523</ele>
        <time>2017-03-19T10:48:24Z</time>
      </trkpt>
      <trkpt lat="45.96736" lon="4.58166">
        <ele>520</ele>
        <time>2017-03-19T10:48:25Z</time>
      </trkpt>
      <trkpt lat="45.96738" lon="4.5816">
        <ele>521</ele>
        <time>2017-03-19T10:48:26Z</time>
      </trkpt>
      <trkpt lat="45.96741" lon="4.58155">
        <ele>520</ele>
        <time>2017-03-19T10:48:27Z</time>
      </trkpt>
      <trkpt lat="45.96746" lon="4.58146">
        <ele>518</ele>
        <time>2017-03-19T10:48:29Z</time>
      </trkpt>
      <trkpt lat="45.96748" lon="4.58142">
        <ele>517</ele>
        <time>2017-03-19T10:48:30Z</time>
      </trkpt>
      <trkpt lat="45.96752" lon="4.58133">
        <ele>531</ele>
        <time>2017-03-19T10:48:32Z</time>
      </trkpt>
      <trkpt lat="45.96755" lon="4.58129">
        <ele>531</ele>
        <time>2017-03-19T10:48:33Z</time>
      </trkpt>
      <trkpt lat="45.9676" lon="4.5812">
        <ele>530</ele>
        <time>2017-03-19T10:48:35Z</time>
      </trkpt>
      <trkpt lat="45.96762" lon="4.58115">
        <ele>530</ele>
        <time>2017-03-19T10:48:36Z</time>
      </trkpt>
      <trkpt lat="45.96766" lon="4.58106">
        <ele>529</ele>
        <time>2017-03-19T10:48:38Z</time>
      </trkpt>
      <trkpt lat="45.96768" lon="4.58101">
        <ele>528</ele>
        <time>2017-03-19T10:48:39Z</time>
      </trkpt>
      <trkpt lat="45.96773" lon="4.58092">
        <ele>528</ele>
        <time>2017-03-19T10:48:41Z</time>
      </trkpt>
      <trkpt lat="45.96776" lon="4.58087">
        <ele>529</ele>
        <time>2017-03-19T10:48:42Z</time>
      </trkpt>
      <trkpt lat="45.9678" lon="4.58077">
        <ele>522</ele>
        <time>2017-03-19T10:48:44Z</time>
      </trkpt>
      <trkpt lat="45.96783" lon="4.58073">
        <ele>522</ele>
        <time>2017-03-19T10:48:45Z</time>
      </trkpt>
      <trkpt lat="45.96788" lon="4.58063">
        <ele>522</ele>
        <time>2017-03-19T10:48:47Z</time>
      </trkpt>
      <trkpt lat="45.9679" lon="4.58058">
        <ele>522</ele>
        <time>2017-03-19T10:48:48Z</time>
      </trkpt>
      <trkpt lat="45.96794" lon="4.58049">
        <ele>522</ele>
        <time>2017-03-19T10:48:50Z</time>
      </trkpt>
      <trkpt lat="45.96797" lon="4.58045">
        <ele>522</ele>
        <time>2017-03-19T10:48:51Z</time>
      </trkpt>
      <trkpt lat="45.96802" lon="4.58038">
        <ele>522</ele>
        <time>2017-03-19T10:48:53Z</time>
      </trkpt>
      <trkpt lat="45.96805" lon="4.58034">
        <ele>522</ele>
        <time>2017-03-19T10:48:54Z</time>
      </trkpt>
      <trkpt lat="45.96811" lon="4.58028">
        <ele>522</ele>
        <time>2017-03-19T10:48:56Z</time>
      </trkpt>
      <trkpt lat="45.96814" lon="4.58025">
        <ele>522</ele>
        <time>2017-03-19T10:48:57Z</time>
      </trkpt>
      <trkpt lat="45.96821" lon="4.58019">
        <ele>522</ele>
        <time>2017-03-19T10:48:59Z</time>
      </trkpt>
      <trkpt lat="45.96824" lon="4.58017">
        <ele>522</ele>
        <time>2017-03-19T10:49:00Z</time>
      </trkpt>
      <trkpt lat="45.9683" lon="4.58015">
        <ele>523</ele>
        <time>2017-03-19T10:49:02Z</time>
      </trkpt>
      <trkpt lat="45.96834" lon="4.58013">
        <ele>526</ele>
        <time>2017-03-19T10:49:03Z</time>
      </trkpt>
      <trkpt lat="45.96841" lon="4.58011">
        <ele>526</ele>
        <time>2017-03-19T10:49:05Z</time>
      </trkpt>
      <trkpt lat="45.96845" lon="4.58011">
        <ele>527</ele>
        <time>2017-03-19T10:49:06Z</time>
      </trkpt>
      <trkpt lat="45.96853" lon="4.58012">
        <ele>527</ele>
        <time>2017-03-19T10:49:08Z</time>
      </trkpt>
      <trkpt lat="45.96857" lon="4.58013">
        <ele>528</ele>
        <time>2017-03-19T10:49:09Z</time>
      </trkpt>
      <trkpt lat="45.96865" lon="4.58016">
        <ele>528</ele>
        <time>2017-03-19T10:49:11Z</time>
      </trkpt>
      <trkpt lat="45.96869" lon="4.58017">
        <ele>528</ele>
        <time>2017-03-19T10:49:12Z</time>
      </trkpt>
      <trkpt lat="45.96876" lon="4.58021">
        <ele>529</ele>
        <time>2017-03-19T10:49:14Z</time>
      </trkpt>
      <trkpt lat="45.9688" lon="4.58023">
        <ele>529</ele>
        <time>2017-03-19T10:49:15Z</time>
      </trkpt>
      <trkpt lat="45.96887" lon="4.58028">
        <ele>529</ele>
        <time>2017-03-19T10:49:17Z</time>
      </trkpt>
      <trkpt lat="45.96891" lon="4.58031">
        <ele>529</ele>
        <time>2017-03-19T10:49:18Z</time>
      </trkpt>
      <trkpt lat="45.96899" lon="4.58037">
        <ele>530</ele>
        <time>2017-03-19T10:49:20Z</time>
      </trkpt>
      <trkpt lat="45.96902" lon="4.5804">
        <ele>530</ele>
        <time>2017-03-19T10:49:21Z</time>
      </trkpt>
      <trkpt lat="45.96909" lon="4.58046">
        <ele>531</ele>
        <time>2017-03-19T10:49:23Z</time>
      </trkpt>
      <trkpt lat="45.96912" lon="4.58049">
        <ele>531</ele>
        <time>2017-03-19T10:49:24Z</time>
      </trkpt>
      <trkpt lat="45.96918" lon="4.58055">
        <ele>530</ele>
        <time>2017-03-19T10:49:26Z</time>
      </trkpt>
      <trkpt lat="45.9692" lon="4.58058">
        <ele>531</ele>
        <time>2017-03-19T10:49:27Z</time>
      </trkpt>
      <trkpt lat="45.96926" lon="4.58065">
        <ele>532</ele>
        <time>2017-03-19T10:49:29Z</time>
      </trkpt>
      <trkpt lat="45.96929" lon="4.58068">
        <ele>532</ele>
        <time>2017-03-19T10:49:30Z</time>
      </trkpt>
      <trkpt lat="45.96934" lon="4.58075">
        <ele>532</ele>
        <time>2017-03-19T10:49:32Z</time>
      </trkpt>
      <trkpt lat="45.96937" lon="4.58078">
        <ele>532</ele>
        <time>2017-03-19T10:49:33Z</time>
      </trkpt>
      <trkpt lat="45.96942" lon="4.58085">
        <ele>542</ele>
        <time>2017-03-19T10:49:35Z</time>
      </trkpt>
      <trkpt lat="45.96945" lon="4.58089">
        <ele>542</ele>
        <time>2017-03-19T10:49:36Z</time>
      </trkpt>
      <trkpt lat="45.96951" lon="4.58095">
        <ele>543</ele>
        <time>2017-03-19T10:49:38Z</time>
      </trkpt>
      <trkpt lat="45.96954" lon="4.58098">
        <ele>543</ele>
        <time>2017-03-19T10:49:39Z</time>
      </trkpt>
      <trkpt lat="45.9696" lon="4.58104">
        <ele>543</ele>
        <time>2017-03-19T10:49:41Z</time>
      </trkpt>
      <trkpt lat="45.96963" lon="4.58107">
        <ele>544</ele>
        <time>2017-03-19T10:49:42Z</time>
      </trkpt>
      <trkpt lat="45.9697" lon="4.58112">
        <ele>544</ele>
        <time>2017-03-19T10:49:44Z</time>
      </trkpt>
      <trkpt lat="45.96973" lon="4.58115">
        <ele>544</ele>
        <time>2017-03-19T10:49:45Z</time>
      </trkpt>
      <trkpt lat="45.9698" lon="4.58119">
        <ele>544</ele>
        <time>2017-03-19T10:49:47Z</time>
      </trkpt>
      <trkpt lat="45.96984" lon="4.5812">
        <ele>544</ele>
        <time>2017-03-19T10:49:48Z</time>
      </trkpt>
      <trkpt lat="45.96991" lon="4.58121">
        <ele>544</ele>
        <time>2017-03-19T10:49:50Z</time>
      </trkpt>
      <trkpt lat="45.96994" lon="4.58121">
        <ele>544</ele>
        <time>2017-03-19T10:49:51Z</time>
      </trkpt>
      <trkpt lat="45.97001" lon="4.58121">
        <ele>546</ele>
        <time>2017-03-19T10:49:53Z</time>
      </trkpt>
      <trkpt lat="45.97004" lon="4.5812">
        <ele>546</ele>
        <time>2017-03-19T10:49:54Z</time>
      </trkpt>
      <trkpt lat="45.9701" lon="4.58116">
        <ele>545</ele>
        <time>2017-03-19T10:49:56Z</time>
      </trkpt>
      <trkpt lat="45.97013" lon="4.58114">
        <ele>545</ele>
        <time>2017-03-19T10:49:57Z</time>
      </trkpt>
      <trkpt lat="45.97019" lon="4.58107">
        <ele>545</ele>
        <time>2017-03-19T10:49:59Z</time>
      </trkpt>
      <trkpt lat="45.97022" lon="4.58103">
        <ele>544</ele>
        <time>2017-03-19T10:50:00Z</time>
      </trkpt>
      <trkpt lat="45.97028" lon="4.58094">
        <ele>544</ele>
        <time>2017-03-19T10:50:02Z</time>
      </trkpt>
      <trkpt lat="45.97032" lon="4.58088">
        <ele>544</ele>
        <time>2017-03-19T10:50:03Z</time>
      </trkpt>
      <trkpt lat="45.97037" lon="4.58079">
        <ele>533</ele>
        <time>2017-03-19T10:50:05Z</time>
      </trkpt>
      <trkpt lat="45.9704" lon="4.58075">
        <ele>533</ele>
        <time>2017-03-19T10:50:06Z</time>
      </trkpt>
      <trkpt lat="45.97046" lon="4.58067">
        <ele>534</ele>
        <time>2017-03-19T10:50:08Z</time>
      </trkpt>
      <trkpt lat="45.97049" lon="4.58063">
        <ele>534</ele>
        <time>2017-03-19T10:50:09Z</time>
      </trkpt>
      <trkpt lat="45.97055" lon="4.58056">
        <ele>533</ele>
        <time>2017-03-19T10:50:11Z</time>
      </trkpt>
      <trkpt lat="45.97057" lon="4.58052">
        <ele>533</ele>
        <time>2017-03-19T10:50:12Z</time>
      </trkpt>
      <trkpt lat="45.97063" lon="4.58044">
        <ele>533</ele>
        <time>2017-03-19T10:50:14Z</time>
      </trkpt>
      <trkpt lat="45.97066" lon="4.5804">
        <ele>532</ele>
        <time>2017-03-19T10:50:15Z</time>
      </trkpt>
      <trkpt lat="45.97071" lon="4.58034">
        <ele>532</ele>
        <time>2017-03-19T10:50:17Z</time>
      </trkpt>
      <trkpt lat="45.97074" lon="4.5803">
        <ele>532</ele>
        <time>2017-03-19T10:50:18Z</time>
      </trkpt>
      <trkpt lat="45.9708" lon="4.58023">
        <ele>531</ele>
        <time>2017-03-19T10:50:20Z</time>
      </trkpt>
      <trkpt lat="45.97083" lon="4.58019">
        <ele>531</ele>
        <time>2017-03-19T10:50:21Z</time>
      </trkpt>
      <trkpt lat="45.97089" lon="4.58012">
        <ele>534</ele>
        <time>2017-03-19T10:50:23Z</time>
      </trkpt>
      <trkpt lat="45.97092" lon="4.58009">
        <ele>534</ele>
        <time>2017-03-19T10:50:24Z</time>
      </trkpt>
      <trkpt lat="45.97098" lon="4.58005">
        <ele>534</ele>
        <time>2017-03-19T10:50:26Z</time>
      </trkpt>
      <trkpt lat="45.97102" lon="4.58003">
        <ele>534</ele>
        <time>2017-03-19T10:50:27Z</time>
      </trkpt>
      <trkpt lat="45.97109" lon="4.58">
        <ele>535</ele>
        <time>2017-03-19T10:50:29Z</time>
      </trkpt>
      <trkpt lat="45.97113" lon="4.58">
        <ele>531</ele>
        <time>2017-03-19T10:50:30Z</time>
      </trkpt>
      <trkpt lat="45.97119" lon="4.58">
        <ele>526</ele>
        <time>2017-03-19T10:50:32Z</time>
      </trkpt>
      <trkpt lat="45.97123" lon="4.58">
        <ele>526</ele>
        <time>2017-03-19T10:50:33Z</time>
      </trkpt>
      <trkpt lat="45.9713" lon="4.58002">
        <ele>536</ele>
        <time>2017-03-19T10:50:35Z</time>
      </trkpt>
      <trkpt lat="45.97134" lon="4.58003">
        <ele>536</ele>
        <time>2017-03-19T10:50:36Z</time>
      </trkpt>
      <trkpt lat="45.97141" lon="4.58005">
        <ele>536</ele>
        <time>2017-03-19T10:50:38Z</time>
      </trkpt>
      <trkpt lat="45.97145" lon="4.58006">
        <ele>536</ele>
        <time>2017-03-19T10:50:39Z</time>
      </trkpt>
      <trkpt lat="45.97152" lon="4.5801">
        <ele>536</ele>
        <time>2017-03-19T10:50:41Z</time>
      </trkpt>
      <trkpt lat="45.97156" lon="4.58012">
        <ele>536</ele>
        <time>2017-03-19T10:50:42Z</time>
      </trkpt>
      <trkpt lat="45.97163" lon="4.58016">
        <ele>536</ele>
        <time>2017-03-19T10:50:44Z</time>
      </trkpt>
      <trkpt lat="45.97167" lon="4.58019">
        <ele>536</ele>
        <time>2017-03-19T10:50:45Z</time>
      </trkpt>
      <trkpt lat="45.97174" lon="4.58024">
        <ele>536</ele>
        <time>2017-03-19T10:50:47Z</time>
      </trkpt>
      <trkpt lat="45.97178" lon="4.58027">
        <ele>536</ele>
        <time>2017-03-19T10:50:48Z</time>
      </trkpt>
      <trkpt lat="45.97184" lon="4.58033">
        <ele>537</ele>
        <time>2017-03-19T10:50:50Z</time>
      </trkpt>
      <trkpt lat="45.97188" lon="4.58036">
        <ele>537</ele>
        <time>2017-03-19T10:50:51Z</time>
      </trkpt>
      <trkpt lat="45.97193" lon="4.58043">
        <ele>538</ele>
        <time>2017-03-19T10:50:53Z</time>
      </trkpt>
      <trkpt lat="45.97196" lon="4.58046">
        <ele>538</ele>
        <time>2017-03-19T10:50:54Z</time>
      </trkpt>
      <trkpt lat="45.97202" lon="4.58053">
        <ele>539</ele>
        <time>2017-03-19T10:50:56Z</time>
      </trkpt>
      <trkpt lat="45.97205" lon="4.58056">
        <ele>539</ele>
        <time>2017-03-19T10:50:57Z</time>
      </trkpt>
      <trkpt lat="45.97211" lon="4.58063">
        <ele>539</ele>
        <time>2017-03-19T10:50:59Z</time>
      </trkpt>
      <trkpt lat="45.97213" lon="4.58066">
        <ele>539</ele>
        <time>2017-03-19T10:51:00Z</time>
      </trkpt>
      <trkpt lat="45.97219" lon="4.58073">
        <ele>540</ele>
        <time>2017-03-19T10:51:02Z</time>
      </trkpt>
      <trkpt lat="45.97222" lon="4.58077">
        <ele>540</ele>
        <time>2017-03-19T10:51:03Z</time>
      </trkpt>
      <trkpt lat="45.97228" lon="4.58084">
        <ele>550</ele>
        <time>2017-03-19T10:51:05Z</time>
      </trkpt>
      <trkpt lat="45.97231" lon="4.58087">
        <ele>550</ele>
        <time>2017-03-19T10:51:06Z</time>
      </trkpt>
      <trkpt lat="45.97237" lon="4.58093">
        <ele>549</ele>
        <time>2017-03-19T10:51:08Z</time>
      </trkpt>
      <trkpt lat="45.9724" lon="4.58095">
        <ele>549</ele>
        <time>2017-03-19T10:51:09Z</time>
      </trkpt>
      <trkpt lat="45.97245" lon="4.58099">
        <ele>549</ele>
        <time>2017-03-19T10:51:11Z</time>
      </trkpt>
      <trkpt lat="45.97249" lon="4.58101">
        <ele>550</ele>
        <time>2017-03-19T10:51:12Z</time>
      </trkpt>
      <trkpt lat="45.97256" lon="4.58104">
        <ele>550</ele>
        <time>2017-03-19T10:51:14Z</time>
      </trkpt>
      <trkpt lat="45.97261" lon="4.58105">
        <ele>550</ele>
        <time>2017-03-19T10:51:15Z</time>
      </trkpt>
      <trkpt lat="45.97269" lon="4.58106">
        <ele>551</ele>
        <time>2017-03-19T10:51:17Z</time>
      </trkpt>
      <trkpt lat="45.97272" lon="4.58107">
        <ele>551</ele>
        <time>2017-03-19T10:51:18Z</time>
      </trkpt>
      <trkpt lat="45.9728" lon="4.58106">
        <ele>551</ele>
        <time>2017-03-19T10:51:20Z</time>
      </trkpt>
      <trkpt lat="45.97284" lon="4.58104">
        <ele>551</ele>
        <time>2017-03-19T10:51:21Z</time>
      </trkpt>
      <trkpt lat="45.97291" lon="4.581">
        <ele>551</ele>
        <time>2017-03-19T10:51:23Z</time>
      </trkpt>
      <trkpt lat="45.97294" lon="4.58098">
        <ele>551</ele>
        <time>2017-03-19T10:51:24Z</time>
      </trkpt>
      <trkpt lat="45.97301" lon="4.58092">
        <ele>550</ele>
        <time>2017-03-19T10:51:26Z</time>
      </trkpt>
      <trkpt lat="45.97304" lon="4.58089">
        <ele>550</ele>
        <time>2017-03-19T10:51:27Z</time>
      </trkpt>
      <trkpt lat="45.97311" lon="4.58084">
        <ele>549</ele>
        <time>2017-03-19T10:51:29Z</time>
      </trkpt>
      <trkpt lat="45.97314" lon="4.58081">
        <ele>539</ele>
        <time>2017-03-19T10:51:30Z</time>
      </trkpt>
      <trkpt lat="45.97319" lon="4.58073">
        <ele>539</ele>
        <time>2017-03-19T10:51:32Z</time>
      </trkpt>
      <trkpt lat="45.97322" lon="4.58069">
        <ele>538</ele>
        <time>2017-03-19T10:51:33Z</time>
      </trkpt>
      <trkpt lat="45.97328" lon="4.58063">
        <ele>538</ele>
        <time>2017-03-19T10:51:35Z</time>
      </trkpt>
      <trkpt lat="45.97331" lon="4.5806">
        <ele>537</ele>
        <time>2017-03-19T10:51:36Z</time>
      </trkpt>
      <trkpt lat="45.97337" lon="4.58056">
        <ele>537</ele>
        <time>2017-03-19T10:51:38Z</time>
      </trkpt>
      <trkpt lat="45.97341" lon="4.58054">
        <ele>537</ele>
        <time>2017-03-19T10:51:39Z</time>
      </trkpt>
      <trkpt lat="45.97349" lon="4.58051">
        <ele>536</ele>
        <time>2017-03-19T10:51:41Z</time>
      </trkpt>
      <trkpt lat="45.97353" lon="4.5805">
        <ele>536</ele>
        <time>2017-03-19T10:51:42Z</time>
      </trkpt>
      <trkpt lat="45.97361" lon="4.58048">
        <ele>536</ele>
        <time>2017-03-19T10:51:44Z</time>
      </trkpt>
      <trkpt lat="45.97365" lon="4.58048">
        <ele>536</ele>
        <time>2017-03-19T10:51:45Z</time>
      </trkpt>
      <trkpt lat="45.97373" lon="4.58048">
        <ele>536</ele>
        <time>2017-03-19T10:51:47Z</time>
      </trkpt>
      <trkpt lat="45.97377" lon="4.58049">
        <ele>536</ele>
        <time>2017-03-19T10:51:48Z</time>
      </trkpt>
      <trkpt lat="45.97385" lon="4.58051">
        <ele>537</ele>
        <time>2017-03-19T10:51:50Z</time>
      </trkpt>
      <trkpt lat="45.97388" lon="4.58053">
        <ele>537</ele>
        <time>2017-03-19T10:51:51Z</time>
      </trkpt>
      <trkpt lat="45.97395" lon="4.58057">
        <ele>538</ele>
        <time>2017-03-19T10:51:53Z</time>
      </trkpt>
      <trkpt lat="45.97399" lon="4.5806">
        <ele>538</ele>
        <time>2017-03-19T10:51:54Z</time>
      </trkpt>
      <trkpt lat="45.97405" lon="4.58065">
        <ele>539</ele>
        <time>2017-03-19T10:51:56Z</time>
      </trkpt>
      <trkpt lat="45.97408" lon="4.58068">
        <ele>540</ele>
        <time>2017-03-19T10:51:57Z</time>
      </trkpt>
      <trkpt lat="45.97414" lon="4.58075">
        <ele>542</ele>
        <time>2017-03-19T10:51:59Z</time>
      </trkpt>
      <trkpt lat="45.97417" lon="4.58079">
        <ele>542</ele>
        <time>2017-03-19T10:52:00Z</time>
      </trkpt>
      <trkpt lat="45.97423" lon="4.58085">
        <ele>544</ele>
        <time>2017-03-19T10:52:02Z</time>
      </trkpt>
      <trkpt lat="45.97426" lon="4.58089">
        <ele>545</ele>
        <time>2017-03-19T10:52:03Z</time>
      </trkpt>
      <trkpt lat="45.97432" lon="4.58095">
        <ele>545</ele>
        <time>2017-03-19T10:52:05Z</time>
      </trkpt>
      <trkpt lat="45.97435" lon="4.58099">
        <ele>545</ele>
        <time>2017-03-19T10:52:06Z</time>
      </trkpt>
      <trkpt lat="45.97441" lon="4.58105">
        <ele>545</ele>
        <time>2017-03-19T10:52:08Z</time>
      </trkpt>
      <trkpt lat="45.97445" lon="4.58107">
        <ele>545</ele>
        <time>2017-03-19T10:52:09Z</time>
      </trkpt>
      <trkpt lat="45.97452" lon="4.58113">
        <ele>546</ele>
        <time>2017-03-19T10:52:11Z</time>
      </trkpt>
      <trkpt lat="45.97456" lon="4.58116">
        <ele>546</ele>
        <time>2017-03-19T10:52:12Z</time>
      </trkpt>
      <trkpt lat="45.97463" lon="4.58122">
        <ele>546</ele>
        <time>2017-03-19T10:52:14Z</time>
      </trkpt>
      <trkpt lat="45.97467" lon="4.58124">
        <ele>546</ele>
        <time>2017-03-19T10:52:15Z</time>
      </trkpt>
      <trkpt lat="45.97474" lon="4.58128">
        <ele>546</ele>
        <time>2017-03-19T10:52:17Z</time>
      </trkpt>
      <trkpt lat="45.97478" lon="4.5813">
        <ele>546</ele>
        <time>2017-03-19T10:52:18Z</time>
      </trkpt>
      <trkpt lat="45.97485" lon="4.58135">
        <ele>546</ele>
        <time>2017-03-19T10:52:20Z</time>
      </trkpt>
      <trkpt lat="45.97489" lon="4.58137">
        <ele>546</ele>
        <time>2017-03-19T10:52:21Z</time>
      </trkpt>
      <trkpt lat="45.97496" lon="4.58141">
        <ele>547</ele>
        <time>2017-03-19T10:52:23Z</time>
      </trkpt>
      <trkpt lat="45.975" lon="4.58143">
        <ele>547</ele>
        <time>2017-03-19T10:52:24Z</time>
      </trkpt>
      <trkpt lat="45.97507" lon="4.58147">
        <ele>543</ele>
        <time>2017-03-19T10:52:26Z</time>
      </trkpt>
      <trkpt lat="45.9751" lon="4.58148">
        <ele>543</ele>
        <time>2017-03-19T10:52:27Z</time>
      </trkpt>
      <trkpt lat="45.97518" lon="4.58152">
        <ele>542</ele>
        <time>2017-03-19T10:52:29Z</time>
      </trkpt>
      <trkpt lat="45.97521" lon="4.58153">
        <ele>542</ele>
        <time>2017-03-19T10:52:30Z</time>
      </trkpt>
      <trkpt lat="45.97528" lon="4.58155">
        <ele>541</ele>
        <time>2017-03-19T10:52:32Z</time>
      </trkpt>
      <trkpt lat="45.97532" lon="4.58156">
        <ele>541</ele>
        <time>2017-03-19T10:52:33Z</time>
      </trkpt>
      <trkpt lat="45.97538" lon="4.58158">
        <ele>540</ele>
        <time>2017-03-19T10:52:35Z</time>
      </trkpt>
      <trkpt lat="45.97542" lon="4.58159">
        <ele>540</ele>
        <time>2017-03-19T10:52:36Z</time>
      </trkpt>
      <trkpt lat="45.97549" lon="4.5816">
        <ele>540</ele>
        <time>2017-03-19T10:52:38Z</time>
      </trkpt>
      <trkpt lat="45.97553" lon="4.58161">
        <ele>540</ele>
        <time>2017-03-19T10:52:39Z</time>
      </trkpt>
      <trkpt lat="45.9756" lon="4.58163">
        <ele>539</ele>
        <time>2017-03-19T10:52:41Z</time>
      </trkpt>
      <trkpt lat="45.97563" lon="4.58164">
        <ele>540</ele>
        <time>2017-03-19T10:52:42Z</time>
      </trkpt>
      <trkpt lat="45.9757" lon="4.58165">
        <ele>540</ele>
        <time>2017-03-19T10:52:44Z</time>
      </trkpt>
      <trkpt lat="45.97574" lon="4.58165">
        <ele>540</ele>
        <time>2017-03-19T10:52:45Z</time>
      </trkpt>
      <trkpt lat="45.9758" lon="4.58166">
        <ele>541</ele>
        <time>2017-03-19T10:52:47Z</time>
      </trkpt>
      <trkpt lat="45.97584" lon="4.58166">
        <ele>541</ele>
        <time>2017-03-19T10:52:48Z</time>
      </trkpt>
      <trkpt lat="45.97592" lon="4.58166">
        <ele>539</ele>
        <time>2017-03-19T10:52:50Z</time>
      </trkpt>
      <trkpt lat="45.97596" lon="4.58167">
        <ele>538</ele>
        <time>2017-03-19T10:52:51Z</time>
      </trkpt>
      <trkpt lat="45.97604" lon="4.58168">
        <ele>545</ele>
        <time>2017-03-19T10:52:53Z</time>
      </trkpt>
      <trkpt lat="45.97608" lon="4.58168">
        <ele>545</ele>
        <time>2017-03-19T10:52:54Z</time>
      </trkpt>
      <trkpt lat="45.97617" lon="4.58168">
        <ele>545</ele>
        <time>2017-03-19T10:52:56Z</time>
      </trkpt>
      <trkpt lat="45.97621" lon="4.58168">
        <ele>546</ele>
        <time>2017-03-19T10:52:57Z</time>
      </trkpt>
      <trkpt lat="45.97629" lon="4.5817">
        <ele>546</ele>
        <time>2017-03-19T10:52:59Z</time>
      </trkpt>
      <trkpt lat="45.97634" lon="4.58171">
        <ele>546</ele>
        <time>2017-03-19T10:53:00Z</time>
      </trkpt>
      <trkpt lat="45.97641" lon="4.58173">
        <ele>545</ele>
        <time>2017-03-19T10:53:02Z</time>
      </trkpt>
      <trkpt lat="45.97644" lon="4.58174">
        <ele>545</ele>
        <time>2017-03-19T10:53:03Z</time>
      </trkpt>
      <trkpt lat="45.97651" lon="4.58175">
        <ele>545</ele>
        <time>2017-03-19T10:53:05Z</time>
      </trkpt>
      <trkpt lat="45.97655" lon="4.58176">
        <ele>545</ele>
        <time>2017-03-19T10:53:06Z</time>
      </trkpt>
      <trkpt lat="45.97663" lon="4.58178">
        <ele>544</ele>
        <time>2017-03-19T10:53:08Z</time>
      </trkpt>
      <trkpt lat="45.97668" lon="4.5818">
        <ele>544</ele>
        <time>2017-03-19T10:53:09Z</time>
      </trkpt>
      <trkpt lat="45.97674" lon="4.58182">
        <ele>545</ele>
        <time>2017-03-19T10:53:11Z</time>
      </trkpt>
      <trkpt lat="45.97678" lon="4.58183">
        <ele>545</ele>
        <time>2017-03-19T10:53:12Z</time>
      </trkpt>
      <trkpt lat="45.97686" lon="4.58187">
        <ele>546</ele>
        <time>2017-03-19T10:53:14Z</time>
      </trkpt>
      <trkpt lat="45.97689" lon="4.58189">
        <ele>546</ele>
        <time>2017-03-19T10:53:15Z</time>
      </trkpt>
      <trkpt lat="45.97696" lon="4.58193">
        <ele>546</ele>
        <time>2017-03-19T10:53:17Z</time>
      </trkpt>
      <trkpt lat="45.977" lon="4.58194">
        <ele>547</ele>
        <time>2017-03-19T10:53:18Z</time>
      </trkpt>
      <trkpt lat="45.97707" lon="4.58197">
        <ele>547</ele>
        <time>2017-03-19T10:53:20Z</time>
      </trkpt>
      <trkpt lat="45.9771" lon="4.58199">
        <ele>547</ele>
        <time>2017-03-19T10:53:21Z</time>
      </trkpt>
      <trkpt lat="45.97718" lon="4.58203">
        <ele>547</ele>
        <time>2017-03-19T10:53:23Z</time>
      </trkpt>
      <trkpt lat="45.97721" lon="4.58206">
        <ele>547</ele>
        <time>2017-03-19T10:53:24Z</time>
      </trkpt>
      <trkpt lat="45.97728" lon="4.5821">
        <ele>548</ele>
        <time>2017-03-19T10:53:26Z</time>
      </trkpt>
      <trkpt lat="45.97731" lon="4.58213">
        <ele>548</ele>
        <time>2017-03-19T10:53:27Z</time>
      </trkpt>
      <trkpt lat="45.97738" lon="4.58218">
        <ele>548</ele>
        <time>2017-03-19T10:53:29Z</time>
      </trkpt>
      <trkpt lat="45.97742" lon="4.58221">
        <ele>549</ele>
        <time>2017-03-19T10:53:30Z</time>
      </trkpt>
      <trkpt lat="45.97749" lon="4.58227">
        <ele>549</ele>
        <time>2017-03-19T10:53:32Z</time>
      </trkpt>
      <trkpt lat="45.97752" lon="4.58229">
        <ele>550</ele>
        <time>2017-03-19T10:53:33Z</time>
      </trkpt>
      <trkpt lat="45.9776" lon="4.58235">
        <ele>550</ele>
        <time>2017-03-19T10:53:35Z</time>
      </trkpt>
      <trkpt lat="45.97763" lon="4.58238">
        <ele>550</ele>
        <time>2017-03-19T10:53:36Z</time>
      </trkpt>
      <trkpt lat="45.97769" lon="4.58244">
        <ele>550</ele>
        <time>2017-03-19T10:53:38Z</time>
      </trkpt>
      <trkpt lat="45.97772" lon="4.58247">
        <ele>550</ele>
        <time>2017-03-19T10:53:39Z</time>
      </trkpt>
      <trkpt lat="45.97779" lon="4.58254">
        <ele>551</ele>
        <time>2017-03-19T10:53:41Z</time>
      </trkpt>
      <trkpt lat="45.97782" lon="4.58259">
        <ele>551</ele>
        <time>2017-03-19T10:53:42Z</time>
      </trkpt>
      <trkpt lat="45.97788" lon="4.58267">
        <ele>551</ele>
        <time>2017-03-19T10:53:44Z</time>
      </trkpt>
      <trkpt lat="45.97791" lon="4.58271">
        <ele>551</ele>
        <time>2017-03-19T10:53:45Z</time>
      </trkpt>
      <trkpt lat="45.97795" lon="4.5828">
        <ele>551</ele>
        <time>2017-03-19T10:53:47Z</time>
      </trkpt>
      <trkpt lat="45.97797" lon="4.58284">
        <ele>551</ele>
        <time>2017-03-19T10:53:48Z</time>
      </trkpt>
      <trkpt lat="45.978" lon="4.58292">
        <ele>551</ele>
        <time>2017-03-19T10:53:50Z</time>
      </trkpt>
      <trkpt lat="45.97802" lon="4.58296">
        <ele>551</ele>
        <time>2017-03-19T10:53:51Z</time>
      </trkpt>
      <trkpt lat="45.97805" lon="4.58305">
        <ele>551</ele>
        <time>2017-03-19T10:53:53Z</time>
      </trkpt>
      <trkpt lat="45.97806" lon="4.5831">
        <ele>551</ele>
        <time>2017-03-19T10:53:54Z</time>
      </trkpt>
      <trkpt lat="45.97809" lon="4.58318">
        <ele>551</ele>
        <time>2017-03-19T10:53:56Z</time>
      </trkpt>
      <trkpt lat="45.9781" lon="4.58322">
        <ele>551</ele>
        <time>2017-03-19T10:53:57Z</time>
      </trkpt>
      <trkpt lat="45.97814" lon="4.58329">
        <ele>551</ele>
        <time>2017-03-19T10:59:26Z</time>
      </trkpt>
      <trkpt lat="45.97813" lon="4.58337">
        <ele>551</ele>
        <time>2017-03-19T10:59:27Z</time>
      </trkpt>
      <trkpt lat="45.97819" lon="4.58346">
        <ele>551</ele>
        <time>2017-03-19T11:01:49Z</time>
      </trkpt>
      <trkpt lat="45.97819" lon="4.5835">
        <ele>551</ele>
        <time>2017-03-19T11:01:50Z</time>
      </trkpt>
      <trkpt lat="45.97819" lon="4.58358">
        <ele>551</ele>
        <time>2017-03-19T11:01:52Z</time>
      </trkpt>
      <trkpt lat="45.97819" lon="4.58363">
        <ele>551</ele>
        <time>2017-03-19T11:01:53Z</time>
      </trkpt>
      <trkpt lat="45.97818" lon="4.58373">
        <ele>551</ele>
        <time>2017-03-19T11:01:55Z</time>
      </trkpt>
      <trkpt lat="45.97819" lon="4.58378">
        <ele>551</ele>
        <time>2017-03-19T11:01:56Z</time>
      </trkpt>
      <trkpt lat="45.97819" lon="4.58389">
        <ele>551</ele>
        <time>2017-03-19T11:01:58Z</time>
      </trkpt>
      <trkpt lat="45.97819" lon="4.58395">
        <ele>551</ele>
        <time>2017-03-19T11:01:59Z</time>
      </trkpt>
      <trkpt lat="45.97819" lon="4.58401">
        <ele>551</ele>
        <time>2017-03-19T11:02:00Z</time>
      </trkpt>
      <trkpt lat="45.97818" lon="4.58408">
        <ele>551</ele>
        <time>2017-03-19T11:02:01Z</time>
      </trkpt>
      <trkpt lat="45.97817" lon="4.58415">
        <ele>551</ele>
        <time>2017-03-19T11:02:02Z</time>
      </trkpt>
      <trkpt lat="45.97817" lon="4.58422">
        <ele>550</ele>
        <time>2017-03-19T11:02:03Z</time>
      </trkpt>
      <trkpt lat="45.97818" lon="4.5843">
        <ele>550</ele>
        <time>2017-03-19T11:02:04Z</time>
      </trkpt>
      <trkpt lat="45.97818" lon="4.58439">
        <ele>549</ele>
        <time>2017-03-19T11:02:05Z</time>
      </trkpt>
      <trkpt lat="45.97818" lon="4.58448">
        <ele>549</ele>
        <time>2017-03-19T11:02:06Z</time>
      </trkpt>
      <trkpt lat="45.97819" lon="4.58457">
        <ele>549</ele>
        <time>2017-03-19T11:02:07Z</time>
      </trkpt>
      <trkpt lat="45.97819" lon="4.58467">
        <ele>548</ele>
        <time>2017-03-19T11:02:08Z</time>
      </trkpt>
      <trkpt lat="45.97819" lon="4.58477">
        <ele>548</ele>
        <time>2017-03-19T11:02:09Z</time>
      </trkpt>
      <trkpt lat="45.97819" lon="4.58486">
        <ele>547</ele>
        <time>2017-03-19T11:02:10Z</time>
      </trkpt>
      <trkpt lat="45.9782" lon="4.58495">
        <ele>547</ele>
        <time>2017-03-19T11:02:11Z</time>
      </trkpt>
      <trkpt lat="45.97821" lon="4.58504">
        <ele>545</ele>
        <time>2017-03-19T11:02:12Z</time>
      </trkpt>
      <trkpt lat="45.97822" lon="4.58514">
        <ele>545</ele>
        <time>2017-03-19T11:02:13Z</time>
      </trkpt>
      <trkpt lat="45.97824" lon="4.58522">
        <ele>544</ele>
        <time>2017-03-19T11:02:14Z</time>
      </trkpt>
      <trkpt lat="45.97828" lon="4.5853">
        <ele>544</ele>
        <time>2017-03-19T11:02:15Z</time>
      </trkpt>
      <trkpt lat="45.97833" lon="4.58538">
        <ele>544</ele>
        <time>2017-03-19T11:02:16Z</time>
      </trkpt>
      <trkpt lat="45.97838" lon="4.58545">
        <ele>541</ele>
        <time>2017-03-19T11:02:17Z</time>
      </trkpt>
      <trkpt lat="45.97845" lon="4.5855">
        <ele>540</ele>
        <time>2017-03-19T11:02:18Z</time>
      </trkpt>
      <trkpt lat="45.97852" lon="4.58552">
        <ele>540</ele>
        <time>2017-03-19T11:02:19Z</time>
      </trkpt>
      <trkpt lat="45.9786" lon="4.58552">
        <ele>540</ele>
        <time>2017-03-19T11:02:20Z</time>
      </trkpt>
      <trkpt lat="45.97868" lon="4.58551">
        <ele>540</ele>
        <time>2017-03-19T11:02:21Z</time>
      </trkpt>
      <trkpt lat="45.97876" lon="4.58551">
        <ele>540</ele>
        <time>2017-03-19T11:02:22Z</time>
      </trkpt>
      <trkpt lat="45.97885" lon="4.58551">
        <ele>540</ele>
        <time>2017-03-19T11:02:23Z</time>
      </trkpt>
      <trkpt lat="45.97894" lon="4.5855">
        <ele>540</ele>
        <time>2017-03-19T11:02:24Z</time>
      </trkpt>
      <trkpt lat="45.97903" lon="4.5855">
        <ele>539</ele>
        <time>2017-03-19T11:02:25Z</time>
      </trkpt>
      <trkpt lat="45.97912" lon="4.58549">
        <ele>539</ele>
        <time>2017-03-19T11:02:26Z</time>
      </trkpt>
      <trkpt lat="45.97921" lon="4.58549">
        <ele>536</ele>
        <time>2017-03-19T11:02:27Z</time>
      </trkpt>
      <trkpt lat="45.97931" lon="4.58549">
        <ele>536</ele>
        <time>2017-03-19T11:02:28Z</time>
      </trkpt>
      <trkpt lat="45.9794" lon="4.58548">
        <ele>536</ele>
        <time>2017-03-19T11:02:29Z</time>
      </trkpt>
      <trkpt lat="45.9795" lon="4.58548">
        <ele>536</ele>
        <time>2017-03-19T11:02:30Z</time>
      </trkpt>
      <trkpt lat="45.97959" lon="4.58548">
        <ele>535</ele>
        <time>2017-03-19T11:02:31Z</time>
      </trkpt>
      <trkpt lat="45.97969" lon="4.58547">
        <ele>535</ele>
        <time>2017-03-19T11:02:32Z</time>
      </trkpt>
      <trkpt lat="45.97979" lon="4.58547">
        <ele>534</ele>
        <time>2017-03-19T11:02:33Z</time>
      </trkpt>
      <trkpt lat="45.97989" lon="4.58546">
        <ele>534</ele>
        <time>2017-03-19T11:02:34Z</time>
      </trkpt>
      <trkpt lat="45.97999" lon="4.58546">
        <ele>534</ele>
        <time>2017-03-19T11:02:35Z</time>
      </trkpt>
      <trkpt lat="45.98009" lon="4.58546">
        <ele>530</ele>
        <time>2017-03-19T11:02:36Z</time>
      </trkpt>
      <trkpt lat="45.98019" lon="4.58546">
        <ele>530</ele>
        <time>2017-03-19T11:02:37Z</time>
      </trkpt>
      <trkpt lat="45.9803" lon="4.58547">
        <ele>530</ele>
        <time>2017-03-19T11:02:38Z</time>
      </trkpt>
      <trkpt lat="45.9804" lon="4.58547">
        <ele>529</ele>
        <time>2017-03-19T11:02:39Z</time>
      </trkpt>
      <trkpt lat="45.98051" lon="4.58549">
        <ele>529</ele>
        <time>2017-03-19T11:02:40Z</time>
      </trkpt>
      <trkpt lat="45.98061" lon="4.5855">
        <ele>529</ele>
        <time>2017-03-19T11:02:41Z</time>
      </trkpt>
      <trkpt lat="45.98072" lon="4.58552">
        <ele>528</ele>
        <time>2017-03-19T11:02:42Z</time>
      </trkpt>
      <trkpt lat="45.98082" lon="4.58554">
        <ele>527</ele>
        <time>2017-03-19T11:02:43Z</time>
      </trkpt>
      <trkpt lat="45.98093" lon="4.58556">
        <ele>525</ele>
        <time>2017-03-19T11:02:44Z</time>
      </trkpt>
      <trkpt lat="45.98103" lon="4.58558">
        <ele>525</ele>
        <time>2017-03-19T11:02:45Z</time>
      </trkpt>
      <trkpt lat="45.98114" lon="4.5856">
        <ele>525</ele>
        <time>2017-03-19T11:02:46Z</time>
      </trkpt>
      <trkpt lat="45.98125" lon="4.58562">
        <ele>524</ele>
        <time>2017-03-19T11:02:47Z</time>
      </trkpt>
      <trkpt lat="45.98136" lon="4.58564">
        <ele>524</ele>
        <time>2017-03-19T11:02:48Z</time>
      </trkpt>
      <trkpt lat="45.98148" lon="4.58566">
        <ele>523</ele>
        <time>2017-03-19T11:02:49Z</time>
      </trkpt>
      <trkpt lat="45.98159" lon="4.58568">
        <ele>522</ele>
        <time>2017-03-19T11:02:50Z</time>
      </trkpt>
      <trkpt lat="45.9817" lon="4.5857">
        <ele>521</ele>
        <time>2017-03-19T11:02:51Z</time>
      </trkpt>
      <trkpt lat="45.98181" lon="4.58572">
        <ele>521</ele>
        <time>2017-03-19T11:02:52Z</time>
      </trkpt>
      <trkpt lat="45.98192" lon="4.58574">
        <ele>522</ele>
        <time>2017-03-19T11:02:53Z</time>
      </trkpt>
      <trkpt lat="45.98203" lon="4.58576">
        <ele>522</ele>
        <time>2017-03-19T11:02:54Z</time>
      </trkpt>
      <trkpt lat="45.98213" lon="4.58578">
        <ele>522</ele>
        <time>2017-03-19T11:02:55Z</time>
      </trkpt>
      <trkpt lat="45.98224" lon="4.58579">
        <ele>521</ele>
        <time>2017-03-19T11:02:56Z</time>
      </trkpt>
      <trkpt lat="45.98234" lon="4.5858">
        <ele>521</ele>
        <time>2017-03-19T11:02:57Z</time>
      </trkpt>
      <trkpt lat="45.98243" lon="4.58582">
        <ele>519</ele>
        <time>2017-03-19T11:02:58Z</time>
      </trkpt>
      <trkpt lat="45.98253" lon="4.58583">
        <ele>518</ele>
        <time>2017-03-19T11:02:59Z</time>
      </trkpt>
      <trkpt lat="45.98262" lon="4.58585">
        <ele>515</ele>
        <time>2017-03-19T11:03:00Z</time>
      </trkpt>
      <trkpt lat="45.98271" lon="4.58585">
        <ele>513</ele>
        <time>2017-03-19T11:03:01Z</time>
      </trkpt>
      <trkpt lat="45.9828" lon="4.58585">
        <ele>512</ele>
        <time>2017-03-19T11:03:02Z</time>
      </trkpt>
      <trkpt lat="45.98289" lon="4.58584">
        <ele>511</ele>
        <time>2017-03-19T11:03:03Z</time>
      </trkpt>
      <trkpt lat="45.98298" lon="4.58583">
        <ele>517</ele>
        <time>2017-03-19T11:03:04Z</time>
      </trkpt>
      <trkpt lat="45.98307" lon="4.58581">
        <ele>516</ele>
        <time>2017-03-19T11:03:05Z</time>
      </trkpt>
      <trkpt lat="45.98317" lon="4.5858">
        <ele>514</ele>
        <time>2017-03-19T11:03:06Z</time>
      </trkpt>
      <trkpt lat="45.98325" lon="4.58579">
        <ele>513</ele>
        <time>2017-03-19T11:03:07Z</time>
      </trkpt>
      <trkpt lat="45.98334" lon="4.58578">
        <ele>510</ele>
        <time>2017-03-19T11:03:08Z</time>
      </trkpt>
      <trkpt lat="45.98342" lon="4.58577">
        <ele>510</ele>
        <time>2017-03-19T11:03:09Z</time>
      </trkpt>
      <trkpt lat="45.9835" lon="4.58576">
        <ele>510</ele>
        <time>2017-03-19T11:03:10Z</time>
      </trkpt>
      <trkpt lat="45.98357" lon="4.58575">
        <ele>510</ele>
        <time>2017-03-19T11:03:11Z</time>
      </trkpt>
      <trkpt lat="45.98364" lon="4.58574">
        <ele>510</ele>
        <time>2017-03-19T11:03:12Z</time>
      </trkpt>
      <trkpt lat="45.9837" lon="4.58576">
        <ele>510</ele>
        <time>2017-03-19T11:03:13Z</time>
      </trkpt>
      <trkpt lat="45.98376" lon="4.58581">
        <ele>509</ele>
        <time>2017-03-19T11:03:14Z</time>
      </trkpt>
      <trkpt lat="45.98378" lon="4.58591">
        <ele>504</ele>
        <time>2017-03-19T11:03:15Z</time>
      </trkpt>
      <trkpt lat="45.98378" lon="4.58602">
        <ele>504</ele>
        <time>2017-03-19T11:03:16Z</time>
      </trkpt>
      <trkpt lat="45.98377" lon="4.58612">
        <ele>503</ele>
        <time>2017-03-19T11:03:17Z</time>
      </trkpt>
      <trkpt lat="45.98372" lon="4.58621">
        <ele>503</ele>
        <time>2017-03-19T11:03:18Z</time>
      </trkpt>
      <trkpt lat="45.98366" lon="4.58628">
        <ele>503</ele>
        <time>2017-03-19T11:03:19Z</time>
      </trkpt>
      <trkpt lat="45.9836" lon="4.58634">
        <ele>503</ele>
        <time>2017-03-19T11:03:20Z</time>
      </trkpt>
      <trkpt lat="45.98353" lon="4.58639">
        <ele>503</ele>
        <time>2017-03-19T11:03:21Z</time>
      </trkpt>
      <trkpt lat="45.98346" lon="4.58644">
        <ele>503</ele>
        <time>2017-03-19T11:03:22Z</time>
      </trkpt>
      <trkpt lat="45.98339" lon="4.5865">
        <ele>503</ele>
        <time>2017-03-19T11:03:23Z</time>
      </trkpt>
      <trkpt lat="45.98332" lon="4.58656">
        <ele>504</ele>
        <time>2017-03-19T11:03:24Z</time>
      </trkpt>
      <trkpt lat="45.98325" lon="4.58663">
        <ele>504</ele>
        <time>2017-03-19T11:03:25Z</time>
      </trkpt>
      <trkpt lat="45.98318" lon="4.58669">
        <ele>501</ele>
        <time>2017-03-19T11:03:26Z</time>
      </trkpt>
      <trkpt lat="45.98311" lon="4.58676">
        <ele>500</ele>
        <time>2017-03-19T11:03:27Z</time>
      </trkpt>
      <trkpt lat="45.98303" lon="4.58682">
        <ele>500</ele>
        <time>2017-03-19T11:03:28Z</time>
      </trkpt>
      <trkpt lat="45.98296" lon="4.58689">
        <ele>500</ele>
        <time>2017-03-19T11:03:29Z</time>
      </trkpt>
      <trkpt lat="45.98288" lon="4.58696">
        <ele>499</ele>
        <time>2017-03-19T11:03:30Z</time>
      </trkpt>
      <trkpt lat="45.9828" lon="4.58702">
        <ele>499</ele>
        <time>2017-03-19T11:03:31Z</time>
      </trkpt>
      <trkpt lat="45.98272" lon="4.58709">
        <ele>499</ele>
        <time>2017-03-19T11:03:32Z</time>
      </trkpt>
      <trkpt lat="45.98264" lon="4.58716">
        <ele>498</ele>
        <time>2017-03-19T11:03:33Z</time>
      </trkpt>
      <trkpt lat="45.98256" lon="4.58723">
        <ele>498</ele>
        <time>2017-03-19T11:03:34Z</time>
      </trkpt>
      <trkpt lat="45.98248" lon="4.5873">
        <ele>499</ele>
        <time>2017-03-19T11:03:35Z</time>
      </trkpt>
      <trkpt lat="45.9824" lon="4.58737">
        <ele>498</ele>
        <time>2017-03-19T11:03:36Z</time>
      </trkpt>
      <trkpt lat="45.98232" lon="4.58744">
        <ele>498</ele>
        <time>2017-03-19T11:03:37Z</time>
      </trkpt>
      <trkpt lat="45.98224" lon="4.58751">
        <ele>493</ele>
        <time>2017-03-19T11:03:38Z</time>
      </trkpt>
      <trkpt lat="45.98215" lon="4.58758">
        <ele>493</ele>
        <time>2017-03-19T11:03:39Z</time>
      </trkpt>
      <trkpt lat="45.98207" lon="4.58765">
        <ele>493</ele>
        <time>2017-03-19T11:03:40Z</time>
      </trkpt>
      <trkpt lat="45.98199" lon="4.58772">
        <ele>493</ele>
        <time>2017-03-19T11:03:41Z</time>
      </trkpt>
      <trkpt lat="45.98191" lon="4.5878">
        <ele>493</ele>
        <time>2017-03-19T11:03:42Z</time>
      </trkpt>
      <trkpt lat="45.98182" lon="4.58788">
        <ele>493</ele>
        <time>2017-03-19T11:03:43Z</time>
      </trkpt>
      <trkpt lat="45.98174" lon="4.58796">
        <ele>492</ele>
        <time>2017-03-19T11:03:44Z</time>
      </trkpt>
      <trkpt lat="45.98165" lon="4.58803">
        <ele>494</ele>
        <time>2017-03-19T11:03:45Z</time>
      </trkpt>
      <trkpt lat="45.98157" lon="4.58811">
        <ele>493</ele>
        <time>2017-03-19T11:03:46Z</time>
      </trkpt>
      <trkpt lat="45.98148" lon="4.58818">
        <ele>493</ele>
        <time>2017-03-19T11:03:47Z</time>
      </trkpt>
      <trkpt lat="45.9814" lon="4.58825">
        <ele>493</ele>
        <time>2017-03-19T11:03:48Z</time>
      </trkpt>
      <trkpt lat="45.98131" lon="4.58832">
        <ele>493</ele>
        <time>2017-03-19T11:03:49Z</time>
      </trkpt>
      <trkpt lat="45.98122" lon="4.5884">
        <ele>486</ele>
        <time>2017-03-19T11:03:50Z</time>
      </trkpt>
      <trkpt lat="45.98114" lon="4.58848">
        <ele>486</ele>
        <time>2017-03-19T11:03:51Z</time>
      </trkpt>
      <trkpt lat="45.98106" lon="4.58858">
        <ele>486</ele>
        <time>2017-03-19T11:03:52Z</time>
      </trkpt>
      <trkpt lat="45.981" lon="4.58871">
        <ele>485</ele>
        <time>2017-03-19T11:03:53Z</time>
      </trkpt>
      <trkpt lat="45.98096" lon="4.58885">
        <ele>485</ele>
        <time>2017-03-19T11:03:54Z</time>
      </trkpt>
      <trkpt lat="45.98096" lon="4.58899">
        <ele>484</ele>
        <time>2017-03-19T11:03:55Z</time>
      </trkpt>
      <trkpt lat="45.98097" lon="4.58914">
        <ele>484</ele>
        <time>2017-03-19T11:03:56Z</time>
      </trkpt>
      <trkpt lat="45.98098" lon="4.58929">
        <ele>479</ele>
        <time>2017-03-19T11:03:57Z</time>
      </trkpt>
      <trkpt lat="45.98099" lon="4.58944">
        <ele>478</ele>
        <time>2017-03-19T11:03:58Z</time>
      </trkpt>
      <trkpt lat="45.981" lon="4.58959">
        <ele>477</ele>
        <time>2017-03-19T11:03:59Z</time>
      </trkpt>
      <trkpt lat="45.981" lon="4.58975">
        <ele>476</ele>
        <time>2017-03-19T11:04:00Z</time>
      </trkpt>
      <trkpt lat="45.98099" lon="4.5899">
        <ele>477</ele>
        <time>2017-03-19T11:04:01Z</time>
      </trkpt>
      <trkpt lat="45.98096" lon="4.59005">
        <ele>474</ele>
        <time>2017-03-19T11:04:02Z</time>
      </trkpt>
      <trkpt lat="45.98093" lon="4.59019">
        <ele>472</ele>
        <time>2017-03-19T11:04:03Z</time>
      </trkpt>
      <trkpt lat="45.98088" lon="4.59032">
        <ele>471</ele>
        <time>2017-03-19T11:04:04Z</time>
      </trkpt>
      <trkpt lat="45.98083" lon="4.59046">
        <ele>480</ele>
        <time>2017-03-19T11:04:05Z</time>
      </trkpt>
      <trkpt lat="45.98077" lon="4.59059">
        <ele>479</ele>
        <time>2017-03-19T11:04:06Z</time>
      </trkpt>
      <trkpt lat="45.98071" lon="4.59072">
        <ele>478</ele>
        <time>2017-03-19T11:04:07Z</time>
      </trkpt>
      <trkpt lat="45.98065" lon="4.59085">
        <ele>473</ele>
        <time>2017-03-19T11:04:08Z</time>
      </trkpt>
      <trkpt lat="45.98059" lon="4.59097">
        <ele>473</ele>
        <time>2017-03-19T11:04:09Z</time>
      </trkpt>
      <trkpt lat="45.98052" lon="4.5911">
        <ele>472</ele>
        <time>2017-03-19T11:04:10Z</time>
      </trkpt>
      <trkpt lat="45.98045" lon="4.59121">
        <ele>472</ele>
        <time>2017-03-19T11:04:11Z</time>
      </trkpt>
      <trkpt lat="45.98038" lon="4.59133">
        <ele>471</ele>
        <time>2017-03-19T11:04:12Z</time>
      </trkpt>
      <trkpt lat="45.98029" lon="4.59143">
        <ele>471</ele>
        <time>2017-03-19T11:04:13Z</time>
      </trkpt>
      <trkpt lat="45.98021" lon="4.59152">
        <ele>471</ele>
        <time>2017-03-19T11:04:14Z</time>
      </trkpt>
      <trkpt lat="45.98012" lon="4.59161">
        <ele>470</ele>
        <time>2017-03-19T11:04:15Z</time>
      </trkpt>
      <trkpt lat="45.98003" lon="4.59168">
        <ele>468</ele>
        <time>2017-03-19T11:04:16Z</time>
      </trkpt>
      <trkpt lat="45.97993" lon="4.59175">
        <ele>470</ele>
        <time>2017-03-19T11:04:17Z</time>
      </trkpt>
      <trkpt lat="45.97984" lon="4.59183">
        <ele>471</ele>
        <time>2017-03-19T11:04:18Z</time>
      </trkpt>
      <trkpt lat="45.97976" lon="4.59191">
        <ele>472</ele>
        <time>2017-03-19T11:04:19Z</time>
      </trkpt>
      <trkpt lat="45.97969" lon="4.59202">
        <ele>472</ele>
        <time>2017-03-19T11:04:20Z</time>
      </trkpt>
      <trkpt lat="45.97965" lon="4.59216">
        <ele>472</ele>
        <time>2017-03-19T11:04:21Z</time>
      </trkpt>
      <trkpt lat="45.97962" lon="4.5923">
        <ele>472</ele>
        <time>2017-03-19T11:04:22Z</time>
      </trkpt>
      <trkpt lat="45.97961" lon="4.59245">
        <ele>471</ele>
        <time>2017-03-19T11:04:23Z</time>
      </trkpt>
      <trkpt lat="45.97962" lon="4.5926">
        <ele>469</ele>
        <time>2017-03-19T11:04:24Z</time>
      </trkpt>
      <trkpt lat="45.97963" lon="4.59274">
        <ele>468</ele>
        <time>2017-03-19T11:04:25Z</time>
      </trkpt>
      <trkpt lat="45.97966" lon="4.59289">
        <ele>468</ele>
        <time>2017-03-19T11:04:26Z</time>
      </trkpt>
      <trkpt lat="45.9797" lon="4.59303">
        <ele>467</ele>
        <time>2017-03-19T11:04:27Z</time>
      </trkpt>
      <trkpt lat="45.97973" lon="4.59318">
        <ele>466</ele>
        <time>2017-03-19T11:04:28Z</time>
      </trkpt>
      <trkpt lat="45.97976" lon="4.59333">
        <ele>465</ele>
        <time>2017-03-19T11:04:29Z</time>
      </trkpt>
      <trkpt lat="45.97979" lon="4.59347">
        <ele>463</ele>
        <time>2017-03-19T11:04:30Z</time>
      </trkpt>
      <trkpt lat="45.97981" lon="4.59362">
        <ele>463</ele>
        <time>2017-03-19T11:04:31Z</time>
      </trkpt>
      <trkpt lat="45.97983" lon="4.59377">
        <ele>463</ele>
        <time>2017-03-19T11:04:32Z</time>
      </trkpt>
      <trkpt lat="45.97983" lon="4.59392">
        <ele>463</ele>
        <time>2017-03-19T11:04:33Z</time>
      </trkpt>
      <trkpt lat="45.97982" lon="4.59407">
        <ele>461</ele>
        <time>2017-03-19T11:04:34Z</time>
      </trkpt>
      <trkpt lat="45.97979" lon="4.59422">
        <ele>458</ele>
        <time>2017-03-19T11:04:35Z</time>
      </trkpt>
      <trkpt lat="45.97972" lon="4.59436">
        <ele>459</ele>
        <time>2017-03-19T11:04:36Z</time>
      </trkpt>
      <trkpt lat="45.97966" lon="4.59448">
        <ele>459</ele>
        <time>2017-03-19T11:04:37Z</time>
      </trkpt>
      <trkpt lat="45.97959" lon="4.59461">
        <ele>459</ele>
        <time>2017-03-19T11:04:38Z</time>
      </trkpt>
      <trkpt lat="45.97953" lon="4.59474">
        <ele>459</ele>
        <time>2017-03-19T11:04:39Z</time>
      </trkpt>
      <trkpt lat="45.97949" lon="4.59488">
        <ele>459</ele>
        <time>2017-03-19T11:04:40Z</time>
      </trkpt>
      <trkpt lat="45.97946" lon="4.59503">
        <ele>452</ele>
        <time>2017-03-19T11:04:41Z</time>
      </trkpt>
      <trkpt lat="45.97944" lon="4.59518">
        <ele>451</ele>
        <time>2017-03-19T11:04:42Z</time>
      </trkpt>
      <trkpt lat="45.97942" lon="4.59533">
        <ele>449</ele>
        <time>2017-03-19T11:04:43Z</time>
      </trkpt>
      <trkpt lat="45.9794" lon="4.59548">
        <ele>448</ele>
        <time>2017-03-19T11:04:44Z</time>
      </trkpt>
      <trkpt lat="45.97936" lon="4.59562">
        <ele>447</ele>
        <time>2017-03-19T11:04:45Z</time>
      </trkpt>
      <trkpt lat="45.97931" lon="4.59575">
        <ele>447</ele>
        <time>2017-03-19T11:04:46Z</time>
      </trkpt>
      <trkpt lat="45.97925" lon="4.59587">
        <ele>444</ele>
        <time>2017-03-19T11:04:47Z</time>
      </trkpt>
      <trkpt lat="45.97914" lon="4.59597">
        <ele>447</ele>
        <time>2017-03-19T11:04:48Z</time>
      </trkpt>
      <trkpt lat="45.97904" lon="4.59604">
        <ele>446</ele>
        <time>2017-03-19T11:04:49Z</time>
      </trkpt>
      <trkpt lat="45.97894" lon="4.5961">
        <ele>446</ele>
        <time>2017-03-19T11:04:50Z</time>
      </trkpt>
      <trkpt lat="45.97882" lon="4.59614">
        <ele>446</ele>
        <time>2017-03-19T11:04:51Z</time>
      </trkpt>
      <trkpt lat="45.97872" lon="4.59617">
        <ele>447</ele>
        <time>2017-03-19T11:04:52Z</time>
      </trkpt>
      <trkpt lat="45.97861" lon="4.59622">
        <ele>447</ele>
        <time>2017-03-19T11:04:53Z</time>
      </trkpt>
      <trkpt lat="45.9785" lon="4.59628">
        <ele>446</ele>
        <time>2017-03-19T11:04:54Z</time>
      </trkpt>
      <trkpt lat="45.9784" lon="4.59634">
        <ele>446</ele>
        <time>2017-03-19T11:04:55Z</time>
      </trkpt>
      <trkpt lat="45.97831" lon="4.59642">
        <ele>448</ele>
        <time>2017-03-19T11:04:56Z</time>
      </trkpt>
      <trkpt lat="45.97821" lon="4.59652">
        <ele>447</ele>
        <time>2017-03-19T11:04:57Z</time>
      </trkpt>
      <trkpt lat="45.97813" lon="4.59662">
        <ele>447</ele>
        <time>2017-03-19T11:04:58Z</time>
      </trkpt>
      <trkpt lat="45.97805" lon="4.59674">
        <ele>441</ele>
        <time>2017-03-19T11:04:59Z</time>
      </trkpt>
      <trkpt lat="45.97799" lon="4.59687">
        <ele>441</ele>
        <time>2017-03-19T11:05:00Z</time>
      </trkpt>
      <trkpt lat="45.97793" lon="4.59702">
        <ele>441</ele>
        <time>2017-03-19T11:05:01Z</time>
      </trkpt>
      <trkpt lat="45.97789" lon="4.59717">
        <ele>440</ele>
        <time>2017-03-19T11:05:02Z</time>
      </trkpt>
      <trkpt lat="45.97786" lon="4.59733">
        <ele>440</ele>
        <time>2017-03-19T11:05:03Z</time>
      </trkpt>
      <trkpt lat="45.97783" lon="4.59749">
        <ele>440</ele>
        <time>2017-03-19T11:05:04Z</time>
      </trkpt>
      <trkpt lat="45.97781" lon="4.59765">
        <ele>436</ele>
        <time>2017-03-19T11:05:05Z</time>
      </trkpt>
      <trkpt lat="45.97778" lon="4.59781">
        <ele>435</ele>
        <time>2017-03-19T11:05:06Z</time>
      </trkpt>
      <trkpt lat="45.97776" lon="4.59798">
        <ele>435</ele>
        <time>2017-03-19T11:05:07Z</time>
      </trkpt>
      <trkpt lat="45.97774" lon="4.59814">
        <ele>435</ele>
        <time>2017-03-19T11:05:08Z</time>
      </trkpt>
      <trkpt lat="45.97772" lon="4.59831">
        <ele>435</ele>
        <time>2017-03-19T11:05:09Z</time>
      </trkpt>
      <trkpt lat="45.9777" lon="4.59847">
        <ele>432</ele>
        <time>2017-03-19T11:05:10Z</time>
      </trkpt>
      <trkpt lat="45.97768" lon="4.59864">
        <ele>431</ele>
        <time>2017-03-19T11:05:11Z</time>
      </trkpt>
      <trkpt lat="45.97766" lon="4.5988">
        <ele>430</ele>
        <time>2017-03-19T11:05:12Z</time>
      </trkpt>
      <trkpt lat="45.97764" lon="4.59897">
        <ele>430</ele>
        <time>2017-03-19T11:05:13Z</time>
      </trkpt>
      <trkpt lat="45.97762" lon="4.59913">
        <ele>430</ele>
        <time>2017-03-19T11:05:14Z</time>
      </trkpt>
      <trkpt lat="45.9776" lon="4.59929">
        <ele>427</ele>
        <time>2017-03-19T11:05:15Z</time>
      </trkpt>
      <trkpt lat="45.97758" lon="4.59946">
        <ele>426</ele>
        <time>2017-03-19T11:05:16Z</time>
      </trkpt>
      <trkpt lat="45.97756" lon="4.59962">
        <ele>425</ele>
        <time>2017-03-19T11:05:17Z</time>
      </trkpt>
      <trkpt lat="45.97754" lon="4.59978">
        <ele>425</ele>
        <time>2017-03-19T11:05:18Z</time>
      </trkpt>
      <trkpt lat="45.97752" lon="4.59995">
        <ele>425</ele>
        <time>2017-03-19T11:05:19Z</time>
      </trkpt>
      <trkpt lat="45.9775" lon="4.60011">
        <ele>425</ele>
        <time>2017-03-19T11:05:20Z</time>
      </trkpt>
      <trkpt lat="45.97748" lon="4.60027">
        <ele>425</ele>
        <time>2017-03-19T11:05:21Z</time>
      </trkpt>
      <trkpt lat="45.97746" lon="4.60043">
        <ele>425</ele>
        <time>2017-03-19T11:05:22Z</time>
      </trkpt>
      <trkpt lat="45.97743" lon="4.60058">
        <ele>423</ele>
        <time>2017-03-19T11:05:23Z</time>
      </trkpt>
      <trkpt lat="45.9774" lon="4.60074">
        <ele>422</ele>
        <time>2017-03-19T11:05:24Z</time>
      </trkpt>
      <trkpt lat="45.97737" lon="4.60088">
        <ele>420</ele>
        <time>2017-03-19T11:05:25Z</time>
      </trkpt>
      <trkpt lat="45.97733" lon="4.60103">
        <ele>420</ele>
        <time>2017-03-19T11:05:26Z</time>
      </trkpt>
      <trkpt lat="45.97729" lon="4.60118">
        <ele>420</ele>
        <time>2017-03-19T11:05:27Z</time>
      </trkpt>
      <trkpt lat="45.97725" lon="4.60132">
        <ele>420</ele>
        <time>2017-03-19T11:05:28Z</time>
      </trkpt>
      <trkpt lat="45.97721" lon="4.60146">
        <ele>419</ele>
        <time>2017-03-19T11:05:29Z</time>
      </trkpt>
      <trkpt lat="45.97716" lon="4.6016">
        <ele>419</ele>
        <time>2017-03-19T11:05:30Z</time>
      </trkpt>
      <trkpt lat="45.97712" lon="4.60173">
        <ele>417</ele>
        <time>2017-03-19T11:05:31Z</time>
      </trkpt>
      <trkpt lat="45.97708" lon="4.60186">
        <ele>417</ele>
        <time>2017-03-19T11:05:32Z</time>
      </trkpt>
      <trkpt lat="45.97704" lon="4.60199">
        <ele>417</ele>
        <time>2017-03-19T11:05:33Z</time>
      </trkpt>
      <trkpt lat="45.977" lon="4.60212">
        <ele>417</ele>
        <time>2017-03-19T11:05:34Z</time>
      </trkpt>
      <trkpt lat="45.97696" lon="4.60225">
        <ele>417</ele>
        <time>2017-03-19T11:05:35Z</time>
      </trkpt>
      <trkpt lat="45.97692" lon="4.60238">
        <ele>418</ele>
        <time>2017-03-19T11:05:36Z</time>
      </trkpt>
      <trkpt lat="45.97688" lon="4.60251">
        <ele>416</ele>
        <time>2017-03-19T11:05:37Z</time>
      </trkpt>
      <trkpt lat="45.97684" lon="4.60263">
        <ele>416</ele>
        <time>2017-03-19T11:05:38Z</time>
      </trkpt>
      <trkpt lat="45.97681" lon="4.60275">
        <ele>415</ele>
        <time>2017-03-19T11:05:39Z</time>
      </trkpt>
      <trkpt lat="45.97677" lon="4.60287">
        <ele>414</ele>
        <time>2017-03-19T11:05:40Z</time>
      </trkpt>
      <trkpt lat="45.97673" lon="4.60299">
        <ele>414</ele>
        <time>2017-03-19T11:05:41Z</time>
      </trkpt>
      <trkpt lat="45.97669" lon="4.60311">
        <ele>413</ele>
        <time>2017-03-19T11:05:42Z</time>
      </trkpt>
      <trkpt lat="45.97666" lon="4.60323">
        <ele>416</ele>
        <time>2017-03-19T11:05:43Z</time>
      </trkpt>
      <trkpt lat="45.97662" lon="4.60334">
        <ele>413</ele>
        <time>2017-03-19T11:05:44Z</time>
      </trkpt>
      <trkpt lat="45.97659" lon="4.60346">
        <ele>414</ele>
        <time>2017-03-19T11:05:45Z</time>
      </trkpt>
      <trkpt lat="45.97655" lon="4.60357">
        <ele>414</ele>
        <time>2017-03-19T11:05:46Z</time>
      </trkpt>
      <trkpt lat="45.97652" lon="4.60367">
        <ele>414</ele>
        <time>2017-03-19T11:05:47Z</time>
      </trkpt>
      <trkpt lat="45.97648" lon="4.60378">
        <ele>414</ele>
        <time>2017-03-19T11:05:48Z</time>
      </trkpt>
      <trkpt lat="45.97645" lon="4.60389">
        <ele>413</ele>
        <time>2017-03-19T11:05:49Z</time>
      </trkpt>
      <trkpt lat="45.97642" lon="4.604">
        <ele>413</ele>
        <time>2017-03-19T11:05:50Z</time>
      </trkpt>
      <trkpt lat="45.97638" lon="4.60411">
        <ele>413</ele>
        <time>2017-03-19T11:05:51Z</time>
      </trkpt>
      <trkpt lat="45.97634" lon="4.60422">
        <ele>410</ele>
        <time>2017-03-19T11:05:52Z</time>
      </trkpt>
      <trkpt lat="45.97631" lon="4.60433">
        <ele>410</ele>
        <time>2017-03-19T11:05:53Z</time>
      </trkpt>
      <trkpt lat="45.97627" lon="4.60443">
        <ele>410</ele>
        <time>2017-03-19T11:05:54Z</time>
      </trkpt>
      <trkpt lat="45.97623" lon="4.60454">
        <ele>410</ele>
        <time>2017-03-19T11:05:55Z</time>
      </trkpt>
      <trkpt lat="45.97618" lon="4.60465">
        <ele>410</ele>
        <time>2017-03-19T11:05:56Z</time>
      </trkpt>
      <trkpt lat="45.97613" lon="4.60475">
        <ele>410</ele>
        <time>2017-03-19T11:05:57Z</time>
      </trkpt>
      <trkpt lat="45.97609" lon="4.60485">
        <ele>410</ele>
        <time>2017-03-19T11:05:58Z</time>
      </trkpt>
      <trkpt lat="45.97603" lon="4.60496">
        <ele>410</ele>
        <time>2017-03-19T11:05:59Z</time>
      </trkpt>
      <trkpt lat="45.97598" lon="4.60506">
        <ele>407</ele>
        <time>2017-03-19T11:06:00Z</time>
      </trkpt>
      <trkpt lat="45.97593" lon="4.60517">
        <ele>407</ele>
        <time>2017-03-19T11:06:01Z</time>
      </trkpt>
      <trkpt lat="45.97587" lon="4.60528">
        <ele>406</ele>
        <time>2017-03-19T11:06:02Z</time>
      </trkpt>
      <trkpt lat="45.97582" lon="4.60539">
        <ele>406</ele>
        <time>2017-03-19T11:06:03Z</time>
      </trkpt>
      <trkpt lat="45.97576" lon="4.6055">
        <ele>405</ele>
        <time>2017-03-19T11:06:04Z</time>
      </trkpt>
      <trkpt lat="45.97571" lon="4.60561">
        <ele>405</ele>
        <time>2017-03-19T11:06:05Z</time>
      </trkpt>
      <trkpt lat="45.97565" lon="4.60573">
        <ele>404</ele>
        <time>2017-03-19T11:06:06Z</time>
      </trkpt>
      <trkpt lat="45.97559" lon="4.60584">
        <ele>402</ele>
        <time>2017-03-19T11:06:07Z</time>
      </trkpt>
      <trkpt lat="45.97553" lon="4.60596">
        <ele>402</ele>
        <time>2017-03-19T11:06:08Z</time>
      </trkpt>
      <trkpt lat="45.97547" lon="4.60607">
        <ele>402</ele>
        <time>2017-03-19T11:06:09Z</time>
      </trkpt>
      <trkpt lat="45.97541" lon="4.60618">
        <ele>402</ele>
        <time>2017-03-19T11:06:10Z</time>
      </trkpt>
      <trkpt lat="45.97536" lon="4.6063">
        <ele>402</ele>
        <time>2017-03-19T11:06:11Z</time>
      </trkpt>
      <trkpt lat="45.9753" lon="4.60641">
        <ele>402</ele>
        <time>2017-03-19T11:06:12Z</time>
      </trkpt>
      <trkpt lat="45.97524" lon="4.60652">
        <ele>402</ele>
        <time>2017-03-19T11:06:13Z</time>
      </trkpt>
      <trkpt lat="45.97518" lon="4.60663">
        <ele>402</ele>
        <time>2017-03-19T11:06:14Z</time>
      </trkpt>
      <trkpt lat="45.97513" lon="4.60673">
        <ele>400</ele>
        <time>2017-03-19T11:06:15Z</time>
      </trkpt>
      <trkpt lat="45.97508" lon="4.60684">
        <ele>399</ele>
        <time>2017-03-19T11:06:16Z</time>
      </trkpt>
      <trkpt lat="45.97503" lon="4.60694">
        <ele>398</ele>
        <time>2017-03-19T11:06:17Z</time>
      </trkpt>
      <trkpt lat="45.97498" lon="4.60704">
        <ele>403</ele>
        <time>2017-03-19T11:06:18Z</time>
      </trkpt>
      <trkpt lat="45.97494" lon="4.60714">
        <ele>403</ele>
        <time>2017-03-19T11:06:19Z</time>
      </trkpt>
      <trkpt lat="45.9749" lon="4.60725">
        <ele>403</ele>
        <time>2017-03-19T11:06:20Z</time>
      </trkpt>
      <trkpt lat="45.97486" lon="4.60735">
        <ele>402</ele>
        <time>2017-03-19T11:06:21Z</time>
      </trkpt>
      <trkpt lat="45.97482" lon="4.60745">
        <ele>402</ele>
        <time>2017-03-19T11:06:22Z</time>
      </trkpt>
      <trkpt lat="45.97479" lon="4.60754">
        <ele>402</ele>
        <time>2017-03-19T11:06:23Z</time>
      </trkpt>
      <trkpt lat="45.97477" lon="4.60764">
        <ele>403</ele>
        <time>2017-03-19T11:06:24Z</time>
      </trkpt>
      <trkpt lat="45.97475" lon="4.60774">
        <ele>403</ele>
        <time>2017-03-19T11:06:25Z</time>
      </trkpt>
      <trkpt lat="45.97473" lon="4.60784">
        <ele>404</ele>
        <time>2017-03-19T11:06:26Z</time>
      </trkpt>
      <trkpt lat="45.97471" lon="4.60793">
        <ele>404</ele>
        <time>2017-03-19T11:06:27Z</time>
      </trkpt>
      <trkpt lat="45.9747" lon="4.60803">
        <ele>404</ele>
        <time>2017-03-19T11:06:28Z</time>
      </trkpt>
      <trkpt lat="45.97468" lon="4.60812">
        <ele>404</ele>
        <time>2017-03-19T11:06:29Z</time>
      </trkpt>
      <trkpt lat="45.97467" lon="4.60821">
        <ele>404</ele>
        <time>2017-03-19T11:06:30Z</time>
      </trkpt>
      <trkpt lat="45.97466" lon="4.6083">
        <ele>404</ele>
        <time>2017-03-19T11:06:31Z</time>
      </trkpt>
      <trkpt lat="45.97465" lon="4.60839">
        <ele>402</ele>
        <time>2017-03-19T11:06:32Z</time>
      </trkpt>
      <trkpt lat="45.97464" lon="4.60849">
        <ele>402</ele>
        <time>2017-03-19T11:06:33Z</time>
      </trkpt>
      <trkpt lat="45.97463" lon="4.60859">
        <ele>402</ele>
        <time>2017-03-19T11:06:34Z</time>
      </trkpt>
      <trkpt lat="45.97461" lon="4.60868">
        <ele>402</ele>
        <time>2017-03-19T11:06:35Z</time>
      </trkpt>
      <trkpt lat="45.9746" lon="4.60878">
        <ele>402</ele>
        <time>2017-03-19T11:06:36Z</time>
      </trkpt>
      <trkpt lat="45.97458" lon="4.60887">
        <ele>402</ele>
        <time>2017-03-19T11:06:37Z</time>
      </trkpt>
      <trkpt lat="45.97457" lon="4.60897">
        <ele>402</ele>
        <time>2017-03-19T11:06:38Z</time>
      </trkpt>
      <trkpt lat="45.97455" lon="4.60906">
        <ele>402</ele>
        <time>2017-03-19T11:06:39Z</time>
      </trkpt>
      <trkpt lat="45.97454" lon="4.60915">
        <ele>402</ele>
        <time>2017-03-19T11:06:40Z</time>
      </trkpt>
      <trkpt lat="45.97452" lon="4.60923">
        <ele>399</ele>
        <time>2017-03-19T11:06:41Z</time>
      </trkpt>
      <trkpt lat="45.9745" lon="4.60932">
        <ele>399</ele>
        <time>2017-03-19T11:06:42Z</time>
      </trkpt>
      <trkpt lat="45.97448" lon="4.6094">
        <ele>399</ele>
        <time>2017-03-19T11:06:43Z</time>
      </trkpt>
      <trkpt lat="45.97447" lon="4.60949">
        <ele>399</ele>
        <time>2017-03-19T11:06:44Z</time>
      </trkpt>
      <trkpt lat="45.97445" lon="4.60958">
        <ele>399</ele>
        <time>2017-03-19T11:06:45Z</time>
      </trkpt>
      <trkpt lat="45.97443" lon="4.60967">
        <ele>399</ele>
        <time>2017-03-19T11:06:46Z</time>
      </trkpt>
      <trkpt lat="45.97441" lon="4.60976">
        <ele>399</ele>
        <time>2017-03-19T11:06:47Z</time>
      </trkpt>
      <trkpt lat="45.97438" lon="4.60985">
        <ele>400</ele>
        <time>2017-03-19T11:06:48Z</time>
      </trkpt>
      <trkpt lat="45.97436" lon="4.60995">
        <ele>401</ele>
        <time>2017-03-19T11:06:49Z</time>
      </trkpt>
      <trkpt lat="45.97433" lon="4.61005">
        <ele>398</ele>
        <time>2017-03-19T11:06:50Z</time>
      </trkpt>
      <trkpt lat="45.97431" lon="4.61014">
        <ele>397</ele>
        <time>2017-03-19T11:06:51Z</time>
      </trkpt>
      <trkpt lat="45.97428" lon="4.61024">
        <ele>396</ele>
        <time>2017-03-19T11:06:52Z</time>
      </trkpt>
      <trkpt lat="45.97425" lon="4.61033">
        <ele>394</ele>
        <time>2017-03-19T11:06:53Z</time>
      </trkpt>
      <trkpt lat="45.97423" lon="4.61043">
        <ele>393</ele>
        <time>2017-03-19T11:06:54Z</time>
      </trkpt>
      <trkpt lat="45.9742" lon="4.61053">
        <ele>392</ele>
        <time>2017-03-19T11:06:55Z</time>
      </trkpt>
      <trkpt lat="45.97418" lon="4.61063">
        <ele>392</ele>
        <time>2017-03-19T11:06:56Z</time>
      </trkpt>
      <trkpt lat="45.97415" lon="4.61073">
        <ele>399</ele>
        <time>2017-03-19T11:06:57Z</time>
      </trkpt>
      <trkpt lat="45.97412" lon="4.61083">
        <ele>396</ele>
        <time>2017-03-19T11:06:58Z</time>
      </trkpt>
      <trkpt lat="45.9741" lon="4.61093">
        <ele>396</ele>
        <time>2017-03-19T11:06:59Z</time>
      </trkpt>
      <trkpt lat="45.97407" lon="4.61104">
        <ele>397</ele>
        <time>2017-03-19T11:07:00Z</time>
      </trkpt>
      <trkpt lat="45.97405" lon="4.61114">
        <ele>397</ele>
        <time>2017-03-19T11:07:01Z</time>
      </trkpt>
      <trkpt lat="45.97402" lon="4.61125">
        <ele>397</ele>
        <time>2017-03-19T11:07:02Z</time>
      </trkpt>
      <trkpt lat="45.974" lon="4.61136">
        <ele>397</ele>
        <time>2017-03-19T11:07:03Z</time>
      </trkpt>
      <trkpt lat="45.97398" lon="4.61146">
        <ele>396</ele>
        <time>2017-03-19T11:07:04Z</time>
      </trkpt>
      <trkpt lat="45.97396" lon="4.61157">
        <ele>395</ele>
        <time>2017-03-19T11:07:05Z</time>
      </trkpt>
      <trkpt lat="45.97395" lon="4.61169">
        <ele>393</ele>
        <time>2017-03-19T11:07:06Z</time>
      </trkpt>
      <trkpt lat="45.97394" lon="4.6118">
        <ele>394</ele>
        <time>2017-03-19T11:07:07Z</time>
      </trkpt>
      <trkpt lat="45.97394" lon="4.61191">
        <ele>394</ele>
        <time>2017-03-19T11:07:08Z</time>
      </trkpt>
      <trkpt lat="45.97394" lon="4.61202">
        <ele>395</ele>
        <time>2017-03-19T11:07:09Z</time>
      </trkpt>
      <trkpt lat="45.97394" lon="4.61212">
        <ele>395</ele>
        <time>2017-03-19T11:07:10Z</time>
      </trkpt>
      <trkpt lat="45.97394" lon="4.61222">
        <ele>395</ele>
        <time>2017-03-19T11:07:11Z</time>
      </trkpt>
      <trkpt lat="45.97395" lon="4.61233">
        <ele>395</ele>
        <time>2017-03-19T11:07:12Z</time>
      </trkpt>
      <trkpt lat="45.97396" lon="4.61243">
        <ele>394</ele>
        <time>2017-03-19T11:07:13Z</time>
      </trkpt>
      <trkpt lat="45.97398" lon="4.61253">
        <ele>396</ele>
        <time>2017-03-19T11:07:14Z</time>
      </trkpt>
      <trkpt lat="45.974" lon="4.61263">
        <ele>396</ele>
        <time>2017-03-19T11:07:15Z</time>
      </trkpt>
      <trkpt lat="45.97402" lon="4.61273">
        <ele>396</ele>
        <time>2017-03-19T11:07:16Z</time>
      </trkpt>
      <trkpt lat="45.97404" lon="4.61283">
        <ele>397</ele>
        <time>2017-03-19T11:07:17Z</time>
      </trkpt>
      <trkpt lat="45.97406" lon="4.61292">
        <ele>397</ele>
        <time>2017-03-19T11:07:18Z</time>
      </trkpt>
      <trkpt lat="45.97409" lon="4.61301">
        <ele>398</ele>
        <time>2017-03-19T11:07:19Z</time>
      </trkpt>
      <trkpt lat="45.97411" lon="4.6131">
        <ele>398</ele>
        <time>2017-03-19T11:07:20Z</time>
      </trkpt>
      <trkpt lat="45.97413" lon="4.6132">
        <ele>397</ele>
        <time>2017-03-19T11:07:21Z</time>
      </trkpt>
      <trkpt lat="45.97415" lon="4.61329">
        <ele>397</ele>
        <time>2017-03-19T11:07:22Z</time>
      </trkpt>
      <trkpt lat="45.97417" lon="4.61337">
        <ele>395</ele>
        <time>2017-03-19T11:07:23Z</time>
      </trkpt>
      <trkpt lat="45.97419" lon="4.61346">
        <ele>395</ele>
        <time>2017-03-19T11:07:24Z</time>
      </trkpt>
      <trkpt lat="45.97422" lon="4.61355">
        <ele>394</ele>
        <time>2017-03-19T11:07:25Z</time>
      </trkpt>
      <trkpt lat="45.97424" lon="4.61364">
        <ele>394</ele>
        <time>2017-03-19T11:07:26Z</time>
      </trkpt>
      <trkpt lat="45.97426" lon="4.61371">
        <ele>394</ele>
        <time>2017-03-19T11:07:27Z</time>
      </trkpt>
      <trkpt lat="45.97428" lon="4.61379">
        <ele>394</ele>
        <time>2017-03-19T11:07:28Z</time>
      </trkpt>
      <trkpt lat="45.9743" lon="4.61388">
        <ele>394</ele>
        <time>2017-03-19T11:07:29Z</time>
      </trkpt>
      <trkpt lat="45.97432" lon="4.61396">
        <ele>395</ele>
        <time>2017-03-19T11:07:30Z</time>
      </trkpt>
      <trkpt lat="45.97434" lon="4.61404">
        <ele>395</ele>
        <time>2017-03-19T11:07:31Z</time>
      </trkpt>
      <trkpt lat="45.97435" lon="4.61412">
        <ele>395</ele>
        <time>2017-03-19T11:07:32Z</time>
      </trkpt>
      <trkpt lat="45.97437" lon="4.6142">
        <ele>396</ele>
        <time>2017-03-19T11:07:33Z</time>
      </trkpt>
      <trkpt lat="45.97438" lon="4.61427">
        <ele>396</ele>
        <time>2017-03-19T11:07:34Z</time>
      </trkpt>
      <trkpt lat="45.97439" lon="4.61434">
        <ele>396</ele>
        <time>2017-03-19T11:07:35Z</time>
      </trkpt>
      <trkpt lat="45.97441" lon="4.61442">
        <ele>396</ele>
        <time>2017-03-19T11:07:36Z</time>
      </trkpt>
      <trkpt lat="45.97442" lon="4.61449">
        <ele>395</ele>
        <time>2017-03-19T11:07:37Z</time>
      </trkpt>
      <trkpt lat="45.97444" lon="4.61457">
        <ele>395</ele>
        <time>2017-03-19T11:07:38Z</time>
      </trkpt>
      <trkpt lat="45.97445" lon="4.61464">
        <ele>395</ele>
        <time>2017-03-19T11:07:39Z</time>
      </trkpt>
      <trkpt lat="45.97447" lon="4.61471">
        <ele>395</ele>
        <time>2017-03-19T11:07:40Z</time>
      </trkpt>
      <trkpt lat="45.97448" lon="4.61479">
        <ele>395</ele>
        <time>2017-03-19T11:07:41Z</time>
      </trkpt>
      <trkpt lat="45.9745" lon="4.61487">
        <ele>395</ele>
        <time>2017-03-19T11:07:42Z</time>
      </trkpt>
      <trkpt lat="45.97451" lon="4.61494">
        <ele>395</ele>
        <time>2017-03-19T11:07:43Z</time>
      </trkpt>
      <trkpt lat="45.97452" lon="4.61502">
        <ele>396</ele>
        <time>2017-03-19T11:07:44Z</time>
      </trkpt>
      <trkpt lat="45.97453" lon="4.6151">
        <ele>396</ele>
        <time>2017-03-19T11:07:45Z</time>
      </trkpt>
      <trkpt lat="45.97454" lon="4.61517">
        <ele>396</ele>
        <time>2017-03-19T11:07:46Z</time>
      </trkpt>
      <trkpt lat="45.97455" lon="4.61524">
        <ele>396</ele>
        <time>2017-03-19T11:07:47Z</time>
      </trkpt>
      <trkpt lat="45.97456" lon="4.61532">
        <ele>396</ele>
        <time>2017-03-19T11:07:48Z</time>
      </trkpt>
      <trkpt lat="45.97457" lon="4.6154">
        <ele>396</ele>
        <time>2017-03-19T11:07:49Z</time>
      </trkpt>
      <trkpt lat="45.97458" lon="4.61548">
        <ele>396</ele>
        <time>2017-03-19T11:07:50Z</time>
      </trkpt>
      <trkpt lat="45.97459" lon="4.61556">
        <ele>395</ele>
        <time>2017-03-19T11:07:51Z</time>
      </trkpt>
      <trkpt lat="45.9746" lon="4.61564">
        <ele>395</ele>
        <time>2017-03-19T11:07:52Z</time>
      </trkpt>
      <trkpt lat="45.97461" lon="4.61572">
        <ele>395</ele>
        <time>2017-03-19T11:07:53Z</time>
      </trkpt>
      <trkpt lat="45.97462" lon="4.6158">
        <ele>395</ele>
        <time>2017-03-19T11:07:54Z</time>
      </trkpt>
      <trkpt lat="45.97462" lon="4.61588">
        <ele>394</ele>
        <time>2017-03-19T11:07:55Z</time>
      </trkpt>
      <trkpt lat="45.97462" lon="4.61596">
        <ele>394</ele>
        <time>2017-03-19T11:07:56Z</time>
      </trkpt>
      <trkpt lat="45.97463" lon="4.61604">
        <ele>394</ele>
        <time>2017-03-19T11:07:57Z</time>
      </trkpt>
      <trkpt lat="45.97463" lon="4.61612">
        <ele>394</ele>
        <time>2017-03-19T11:07:58Z</time>
      </trkpt>
      <trkpt lat="45.97463" lon="4.6162">
        <ele>394</ele>
        <time>2017-03-19T11:07:59Z</time>
      </trkpt>
      <trkpt lat="45.97463" lon="4.61629">
        <ele>393</ele>
        <time>2017-03-19T11:08:00Z</time>
      </trkpt>
      <trkpt lat="45.97463" lon="4.61638">
        <ele>393</ele>
        <time>2017-03-19T11:08:01Z</time>
      </trkpt>
      <trkpt lat="45.97463" lon="4.61647">
        <ele>393</ele>
        <time>2017-03-19T11:08:02Z</time>
      </trkpt>
      <trkpt lat="45.97463" lon="4.61656">
        <ele>393</ele>
        <time>2017-03-19T11:08:03Z</time>
      </trkpt>
      <trkpt lat="45.97462" lon="4.61666">
        <ele>393</ele>
        <time>2017-03-19T11:08:04Z</time>
      </trkpt>
      <trkpt lat="45.97461" lon="4.61676">
        <ele>390</ele>
        <time>2017-03-19T11:08:05Z</time>
      </trkpt>
      <trkpt lat="45.9746" lon="4.61686">
        <ele>390</ele>
        <time>2017-03-19T11:08:06Z</time>
      </trkpt>
      <trkpt lat="45.97459" lon="4.61696">
        <ele>390</ele>
        <time>2017-03-19T11:08:07Z</time>
      </trkpt>
      <trkpt lat="45.97458" lon="4.61707">
        <ele>390</ele>
        <time>2017-03-19T11:08:08Z</time>
      </trkpt>
      <trkpt lat="45.97456" lon="4.61718">
        <ele>390</ele>
        <time>2017-03-19T11:08:09Z</time>
      </trkpt>
      <trkpt lat="45.97454" lon="4.61729">
        <ele>390</ele>
        <time>2017-03-19T11:08:10Z</time>
      </trkpt>
      <trkpt lat="45.97452" lon="4.61739">
        <ele>390</ele>
        <time>2017-03-19T11:08:11Z</time>
      </trkpt>
      <trkpt lat="45.97449" lon="4.61751">
        <ele>388</ele>
        <time>2017-03-19T11:08:12Z</time>
      </trkpt>
      <trkpt lat="45.97446" lon="4.61762">
        <ele>388</ele>
        <time>2017-03-19T11:08:13Z</time>
      </trkpt>
      <trkpt lat="45.97443" lon="4.61773">
        <ele>388</ele>
        <time>2017-03-19T11:08:14Z</time>
      </trkpt>
      <trkpt lat="45.9744" lon="4.61784">
        <ele>387</ele>
        <time>2017-03-19T11:08:15Z</time>
      </trkpt>
      <trkpt lat="45.97437" lon="4.61796">
        <ele>387</ele>
        <time>2017-03-19T11:08:16Z</time>
      </trkpt>
      <trkpt lat="45.97434" lon="4.61808">
        <ele>387</ele>
        <time>2017-03-19T11:08:17Z</time>
      </trkpt>
      <trkpt lat="45.97432" lon="4.6182">
        <ele>387</ele>
        <time>2017-03-19T11:08:18Z</time>
      </trkpt>
      <trkpt lat="45.97431" lon="4.61833">
        <ele>387</ele>
        <time>2017-03-19T11:08:19Z</time>
      </trkpt>
      <trkpt lat="45.97431" lon="4.61846">
        <ele>385</ele>
        <time>2017-03-19T11:08:20Z</time>
      </trkpt>
      <trkpt lat="45.97431" lon="4.61859">
        <ele>384</ele>
        <time>2017-03-19T11:08:21Z</time>
      </trkpt>
      <trkpt lat="45.97431" lon="4.61873">
        <ele>384</ele>
        <time>2017-03-19T11:08:22Z</time>
      </trkpt>
      <trkpt lat="45.97432" lon="4.61886">
        <ele>383</ele>
        <time>2017-03-19T11:08:23Z</time>
      </trkpt>
      <trkpt lat="45.97433" lon="4.619">
        <ele>383</ele>
        <time>2017-03-19T11:08:24Z</time>
      </trkpt>
      <trkpt lat="45.97433" lon="4.61914">
        <ele>383</ele>
        <time>2017-03-19T11:08:25Z</time>
      </trkpt>
      <trkpt lat="45.97434" lon="4.61928">
        <ele>382</ele>
        <time>2017-03-19T11:08:26Z</time>
      </trkpt>
      <trkpt lat="45.97435" lon="4.61942">
        <ele>381</ele>
        <time>2017-03-19T11:08:27Z</time>
      </trkpt>
      <trkpt lat="45.97435" lon="4.61957">
        <ele>381</ele>
        <time>2017-03-19T11:08:28Z</time>
      </trkpt>
      <trkpt lat="45.97436" lon="4.61971">
        <ele>380</ele>
        <time>2017-03-19T11:08:29Z</time>
      </trkpt>
      <trkpt lat="45.97436" lon="4.61986">
        <ele>380</ele>
        <time>2017-03-19T11:08:30Z</time>
      </trkpt>
      <trkpt lat="45.97437" lon="4.62001">
        <ele>379</ele>
        <time>2017-03-19T11:08:31Z</time>
      </trkpt>
      <trkpt lat="45.97438" lon="4.62015">
        <ele>379</ele>
        <time>2017-03-19T11:08:32Z</time>
      </trkpt>
      <trkpt lat="45.97439" lon="4.6203">
        <ele>379</ele>
        <time>2017-03-19T11:08:33Z</time>
      </trkpt>
      <trkpt lat="45.97439" lon="4.62045">
        <ele>379</ele>
        <time>2017-03-19T11:08:34Z</time>
      </trkpt>
      <trkpt lat="45.9744" lon="4.62059">
        <ele>379</ele>
        <time>2017-03-19T11:08:35Z</time>
      </trkpt>
      <trkpt lat="45.9744" lon="4.62074">
        <ele>379</ele>
        <time>2017-03-19T11:08:36Z</time>
      </trkpt>
      <trkpt lat="45.97439" lon="4.62088">
        <ele>377</ele>
        <time>2017-03-19T11:08:37Z</time>
      </trkpt>
      <trkpt lat="45.97438" lon="4.62103">
        <ele>377</ele>
        <time>2017-03-19T11:08:38Z</time>
      </trkpt>
      <trkpt lat="45.97438" lon="4.62118">
        <ele>376</ele>
        <time>2017-03-19T11:08:39Z</time>
      </trkpt>
      <trkpt lat="45.97437" lon="4.62132">
        <ele>376</ele>
        <time>2017-03-19T11:08:40Z</time>
      </trkpt>
      <trkpt lat="45.97436" lon="4.62147">
        <ele>375</ele>
        <time>2017-03-19T11:08:41Z</time>
      </trkpt>
      <trkpt lat="45.97435" lon="4.62161">
        <ele>375</ele>
        <time>2017-03-19T11:08:42Z</time>
      </trkpt>
      <trkpt lat="45.97434" lon="4.62176">
        <ele>372</ele>
        <time>2017-03-19T11:08:43Z</time>
      </trkpt>
      <trkpt lat="45.97433" lon="4.6219">
        <ele>371</ele>
        <time>2017-03-19T11:08:44Z</time>
      </trkpt>
      <trkpt lat="45.97432" lon="4.62204">
        <ele>371</ele>
        <time>2017-03-19T11:08:45Z</time>
      </trkpt>
      <trkpt lat="45.97431" lon="4.62219">
        <ele>370</ele>
        <time>2017-03-19T11:08:46Z</time>
      </trkpt>
      <trkpt lat="45.9743" lon="4.62233">
        <ele>370</ele>
        <time>2017-03-19T11:08:47Z</time>
      </trkpt>
      <trkpt lat="45.97428" lon="4.62248">
        <ele>370</ele>
        <time>2017-03-19T11:08:48Z</time>
      </trkpt>
      <trkpt lat="45.97427" lon="4.62262">
        <ele>368</ele>
        <time>2017-03-19T11:08:49Z</time>
      </trkpt>
      <trkpt lat="45.97426" lon="4.62277">
        <ele>367</ele>
        <time>2017-03-19T11:08:50Z</time>
      </trkpt>
      <trkpt lat="45.97425" lon="4.62291">
        <ele>367</ele>
        <time>2017-03-19T11:08:51Z</time>
      </trkpt>
      <trkpt lat="45.97424" lon="4.62305">
        <ele>367</ele>
        <time>2017-03-19T11:08:52Z</time>
      </trkpt>
      <trkpt lat="45.97423" lon="4.62319">
        <ele>367</ele>
        <time>2017-03-19T11:08:53Z</time>
      </trkpt>
      <trkpt lat="45.97422" lon="4.62334">
        <ele>367</ele>
        <time>2017-03-19T11:08:54Z</time>
      </trkpt>
      <trkpt lat="45.97421" lon="4.62349">
        <ele>365</ele>
        <time>2017-03-19T11:08:55Z</time>
      </trkpt>
      <trkpt lat="45.9742" lon="4.62364">
        <ele>363</ele>
        <time>2017-03-19T11:08:56Z</time>
      </trkpt>
      <trkpt lat="45.97418" lon="4.62378">
        <ele>363</ele>
        <time>2017-03-19T11:08:57Z</time>
      </trkpt>
      <trkpt lat="45.97416" lon="4.62393">
        <ele>367</ele>
        <time>2017-03-19T11:08:58Z</time>
      </trkpt>
      <trkpt lat="45.97414" lon="4.62408">
        <ele>365</ele>
        <time>2017-03-19T11:08:59Z</time>
      </trkpt>
      <trkpt lat="45.97412" lon="4.62423">
        <ele>364</ele>
        <time>2017-03-19T11:09:00Z</time>
      </trkpt>
      <trkpt lat="45.97409" lon="4.62437">
        <ele>364</ele>
        <time>2017-03-19T11:09:01Z</time>
      </trkpt>
      <trkpt lat="45.97406" lon="4.62451">
        <ele>364</ele>
        <time>2017-03-19T11:09:02Z</time>
      </trkpt>
      <trkpt lat="45.97403" lon="4.62466">
        <ele>364</ele>
        <time>2017-03-19T11:09:03Z</time>
      </trkpt>
      <trkpt lat="45.974" lon="4.6248">
        <ele>363</ele>
        <time>2017-03-19T11:09:04Z</time>
      </trkpt>
      <trkpt lat="45.97398" lon="4.62495">
        <ele>363</ele>
        <time>2017-03-19T11:09:05Z</time>
      </trkpt>
      <trkpt lat="45.97396" lon="4.6251">
        <ele>361</ele>
        <time>2017-03-19T11:09:06Z</time>
      </trkpt>
      <trkpt lat="45.97394" lon="4.62525">
        <ele>361</ele>
        <time>2017-03-19T11:09:07Z</time>
      </trkpt>
      <trkpt lat="45.97393" lon="4.6254">
        <ele>361</ele>
        <time>2017-03-19T11:09:08Z</time>
      </trkpt>
      <trkpt lat="45.97392" lon="4.62555">
        <ele>360</ele>
        <time>2017-03-19T11:09:09Z</time>
      </trkpt>
      <trkpt lat="45.97392" lon="4.6257">
        <ele>360</ele>
        <time>2017-03-19T11:09:10Z</time>
      </trkpt>
      <trkpt lat="45.97393" lon="4.62585">
        <ele>357</ele>
        <time>2017-03-19T11:09:11Z</time>
      </trkpt>
      <trkpt lat="45.97395" lon="4.626">
        <ele>357</ele>
        <time>2017-03-19T11:09:12Z</time>
      </trkpt>
      <trkpt lat="45.97397" lon="4.62614">
        <ele>357</ele>
        <time>2017-03-19T11:09:13Z</time>
      </trkpt>
      <trkpt lat="45.974" lon="4.62628">
        <ele>356</ele>
        <time>2017-03-19T11:09:14Z</time>
      </trkpt>
      <trkpt lat="45.97402" lon="4.62642">
        <ele>356</ele>
        <time>2017-03-19T11:09:15Z</time>
      </trkpt>
      <trkpt lat="45.97405" lon="4.62656">
        <ele>355</ele>
        <time>2017-03-19T11:09:16Z</time>
      </trkpt>
      <trkpt lat="45.97408" lon="4.62671">
        <ele>354</ele>
        <time>2017-03-19T11:09:17Z</time>
      </trkpt>
      <trkpt lat="45.97411" lon="4.62685">
        <ele>354</ele>
        <time>2017-03-19T11:09:18Z</time>
      </trkpt>
      <trkpt lat="45.97414" lon="4.62699">
        <ele>354</ele>
        <time>2017-03-19T11:09:19Z</time>
      </trkpt>
      <trkpt lat="45.97417" lon="4.62713">
        <ele>354</ele>
        <time>2017-03-19T11:09:20Z</time>
      </trkpt>
      <trkpt lat="45.9742" lon="4.62727">
        <ele>350</ele>
        <time>2017-03-19T11:09:21Z</time>
      </trkpt>
      <trkpt lat="45.97423" lon="4.62741">
        <ele>351</ele>
        <time>2017-03-19T11:09:22Z</time>
      </trkpt>
      <trkpt lat="45.97426" lon="4.62755">
        <ele>350</ele>
        <time>2017-03-19T11:09:23Z</time>
      </trkpt>
      <trkpt lat="45.97429" lon="4.62769">
        <ele>349</ele>
        <time>2017-03-19T11:09:24Z</time>
      </trkpt>
      <trkpt lat="45.97432" lon="4.62783">
        <ele>348</ele>
        <time>2017-03-19T11:09:25Z</time>
      </trkpt>
      <trkpt lat="45.97434" lon="4.62797">
        <ele>348</ele>
        <time>2017-03-19T11:09:26Z</time>
      </trkpt>
      <trkpt lat="45.97437" lon="4.6281">
        <ele>347</ele>
        <time>2017-03-19T11:09:27Z</time>
      </trkpt>
      <trkpt lat="45.9744" lon="4.62823">
        <ele>347</ele>
        <time>2017-03-19T11:09:28Z</time>
      </trkpt>
      <trkpt lat="45.97443" lon="4.62836">
        <ele>347</ele>
        <time>2017-03-19T11:09:29Z</time>
      </trkpt>
      <trkpt lat="45.97446" lon="4.62849">
        <ele>346</ele>
        <time>2017-03-19T11:09:30Z</time>
      </trkpt>
      <trkpt lat="45.97448" lon="4.62862">
        <ele>346</ele>
        <time>2017-03-19T11:09:31Z</time>
      </trkpt>
      <trkpt lat="45.97451" lon="4.62875">
        <ele>346</ele>
        <time>2017-03-19T11:09:32Z</time>
      </trkpt>
      <trkpt lat="45.97453" lon="4.62888">
        <ele>346</ele>
        <time>2017-03-19T11:09:33Z</time>
      </trkpt>
      <trkpt lat="45.97455" lon="4.62901">
        <ele>345</ele>
        <time>2017-03-19T11:09:34Z</time>
      </trkpt>
      <trkpt lat="45.97458" lon="4.62914">
        <ele>345</ele>
        <time>2017-03-19T11:09:35Z</time>
      </trkpt>
      <trkpt lat="45.9746" lon="4.62926">
        <ele>345</ele>
        <time>2017-03-19T11:09:36Z</time>
      </trkpt>
      <trkpt lat="45.97462" lon="4.62939">
        <ele>345</ele>
        <time>2017-03-19T11:09:37Z</time>
      </trkpt>
      <trkpt lat="45.97465" lon="4.62951">
        <ele>345</ele>
        <time>2017-03-19T11:09:38Z</time>
      </trkpt>
      <trkpt lat="45.97468" lon="4.62963">
        <ele>345</ele>
        <time>2017-03-19T11:09:39Z</time>
      </trkpt>
      <trkpt lat="45.9747" lon="4.62975">
        <ele>345</ele>
        <time>2017-03-19T11:09:40Z</time>
      </trkpt>
      <trkpt lat="45.97473" lon="4.62987">
        <ele>345</ele>
        <time>2017-03-19T11:09:41Z</time>
      </trkpt>
      <trkpt lat="45.97475" lon="4.62998">
        <ele>345</ele>
        <time>2017-03-19T11:09:42Z</time>
      </trkpt>
      <trkpt lat="45.97478" lon="4.6301">
        <ele>345</ele>
        <time>2017-03-19T11:09:43Z</time>
      </trkpt>
      <trkpt lat="45.97481" lon="4.63021">
        <ele>345</ele>
        <time>2017-03-19T11:09:44Z</time>
      </trkpt>
      <trkpt lat="45.97483" lon="4.63032">
        <ele>345</ele>
        <time>2017-03-19T11:09:45Z</time>
      </trkpt>
      <trkpt lat="45.97485" lon="4.63043">
        <ele>344</ele>
        <time>2017-03-19T11:09:46Z</time>
      </trkpt>
      <trkpt lat="45.97488" lon="4.63054">
        <ele>344</ele>
        <time>2017-03-19T11:09:47Z</time>
      </trkpt>
      <trkpt lat="45.97489" lon="4.63064">
        <ele>343</ele>
        <time>2017-03-19T11:09:48Z</time>
      </trkpt>
      <trkpt lat="45.97491" lon="4.63075">
        <ele>342</ele>
        <time>2017-03-19T11:09:49Z</time>
      </trkpt>
      <trkpt lat="45.97493" lon="4.63087">
        <ele>341</ele>
        <time>2017-03-19T11:09:50Z</time>
      </trkpt>
      <trkpt lat="45.97494" lon="4.63098">
        <ele>342</ele>
        <time>2017-03-19T11:09:51Z</time>
      </trkpt>
      <trkpt lat="45.97495" lon="4.63109">
        <ele>342</ele>
        <time>2017-03-19T11:09:52Z</time>
      </trkpt>
      <trkpt lat="45.97496" lon="4.6312">
        <ele>342</ele>
        <time>2017-03-19T11:09:53Z</time>
      </trkpt>
      <trkpt lat="45.97497" lon="4.63131">
        <ele>342</ele>
        <time>2017-03-19T11:09:54Z</time>
      </trkpt>
      <trkpt lat="45.97498" lon="4.63143">
        <ele>341</ele>
        <time>2017-03-19T11:09:55Z</time>
      </trkpt>
      <trkpt lat="45.97499" lon="4.63154">
        <ele>341</ele>
        <time>2017-03-19T11:09:56Z</time>
      </trkpt>
      <trkpt lat="45.975" lon="4.63165">
        <ele>339</ele>
        <time>2017-03-19T11:09:57Z</time>
      </trkpt>
      <trkpt lat="45.97502" lon="4.63176">
        <ele>338</ele>
        <time>2017-03-19T11:09:58Z</time>
      </trkpt>
      <trkpt lat="45.97503" lon="4.63187">
        <ele>337</ele>
        <time>2017-03-19T11:09:59Z</time>
      </trkpt>
      <trkpt lat="45.97504" lon="4.63198">
        <ele>336</ele>
        <time>2017-03-19T11:10:00Z</time>
      </trkpt>
      <trkpt lat="45.97506" lon="4.63209">
        <ele>336</ele>
        <time>2017-03-19T11:10:01Z</time>
      </trkpt>
      <trkpt lat="45.97507" lon="4.63219">
        <ele>336</ele>
        <time>2017-03-19T11:10:02Z</time>
      </trkpt>
      <trkpt lat="45.97508" lon="4.6323">
        <ele>337</ele>
        <time>2017-03-19T11:10:03Z</time>
      </trkpt>
      <trkpt lat="45.97509" lon="4.63242">
        <ele>337</ele>
        <time>2017-03-19T11:10:04Z</time>
      </trkpt>
      <trkpt lat="45.9751" lon="4.63253">
        <ele>337</ele>
        <time>2017-03-19T11:10:05Z</time>
      </trkpt>
      <trkpt lat="45.97511" lon="4.63264">
        <ele>336</ele>
        <time>2017-03-19T11:10:06Z</time>
      </trkpt>
      <trkpt lat="45.97512" lon="4.63275">
        <ele>336</ele>
        <time>2017-03-19T11:10:07Z</time>
      </trkpt>
      <trkpt lat="45.97514" lon="4.63286">
        <ele>335</ele>
        <time>2017-03-19T11:10:08Z</time>
      </trkpt>
      <trkpt lat="45.97515" lon="4.63297">
        <ele>335</ele>
        <time>2017-03-19T11:10:09Z</time>
      </trkpt>
      <trkpt lat="45.97516" lon="4.63308">
        <ele>335</ele>
        <time>2017-03-19T11:10:10Z</time>
      </trkpt>
      <trkpt lat="45.97518" lon="4.63319">
        <ele>335</ele>
        <time>2017-03-19T11:10:11Z</time>
      </trkpt>
      <trkpt lat="45.97519" lon="4.6333">
        <ele>336</ele>
        <time>2017-03-19T11:10:12Z</time>
      </trkpt>
      <trkpt lat="45.9752" lon="4.63341">
        <ele>335</ele>
        <time>2017-03-19T11:10:13Z</time>
      </trkpt>
      <trkpt lat="45.97521" lon="4.63352">
        <ele>334</ele>
        <time>2017-03-19T11:10:14Z</time>
      </trkpt>
      <trkpt lat="45.97522" lon="4.63363">
        <ele>334</ele>
        <time>2017-03-19T11:10:15Z</time>
      </trkpt>
      <trkpt lat="45.97524" lon="4.63375">
        <ele>333</ele>
        <time>2017-03-19T11:10:16Z</time>
      </trkpt>
      <trkpt lat="45.97525" lon="4.63387">
        <ele>333</ele>
        <time>2017-03-19T11:10:17Z</time>
      </trkpt>
      <trkpt lat="45.97526" lon="4.63398">
        <ele>333</ele>
        <time>2017-03-19T11:10:18Z</time>
      </trkpt>
      <trkpt lat="45.97528" lon="4.63411">
        <ele>333</ele>
        <time>2017-03-19T11:10:19Z</time>
      </trkpt>
      <trkpt lat="45.97529" lon="4.63423">
        <ele>332</ele>
        <time>2017-03-19T11:10:20Z</time>
      </trkpt>
      <trkpt lat="45.9753" lon="4.63436">
        <ele>332</ele>
        <time>2017-03-19T11:10:21Z</time>
      </trkpt>
      <trkpt lat="45.97532" lon="4.63449">
        <ele>331</ele>
        <time>2017-03-19T11:10:22Z</time>
      </trkpt>
      <trkpt lat="45.97534" lon="4.63462">
        <ele>331</ele>
        <time>2017-03-19T11:10:23Z</time>
      </trkpt>
      <trkpt lat="45.97535" lon="4.63475">
        <ele>331</ele>
        <time>2017-03-19T11:10:24Z</time>
      </trkpt>
      <trkpt lat="45.97536" lon="4.63489">
        <ele>331</ele>
        <time>2017-03-19T11:10:25Z</time>
      </trkpt>
      <trkpt lat="45.97538" lon="4.63502">
        <ele>330</ele>
        <time>2017-03-19T11:10:26Z</time>
      </trkpt>
      <trkpt lat="45.9754" lon="4.63515">
        <ele>329</ele>
        <time>2017-03-19T11:10:27Z</time>
      </trkpt>
      <trkpt lat="45.97541" lon="4.63529">
        <ele>329</ele>
        <time>2017-03-19T11:10:28Z</time>
      </trkpt>
      <trkpt lat="45.97543" lon="4.63542">
        <ele>329</ele>
        <time>2017-03-19T11:10:29Z</time>
      </trkpt>
      <trkpt lat="45.97544" lon="4.63556">
        <ele>329</ele>
        <time>2017-03-19T11:10:30Z</time>
      </trkpt>
      <trkpt lat="45.97546" lon="4.6357">
        <ele>329</ele>
        <time>2017-03-19T11:10:31Z</time>
      </trkpt>
      <trkpt lat="45.97547" lon="4.63583">
        <ele>328</ele>
        <time>2017-03-19T11:10:32Z</time>
      </trkpt>
      <trkpt lat="45.97549" lon="4.63597">
        <ele>327</ele>
        <time>2017-03-19T11:10:33Z</time>
      </trkpt>
      <trkpt lat="45.9755" lon="4.6361">
        <ele>327</ele>
        <time>2017-03-19T11:10:34Z</time>
      </trkpt>
      <trkpt lat="45.97552" lon="4.63624">
        <ele>327</ele>
        <time>2017-03-19T11:10:35Z</time>
      </trkpt>
      <trkpt lat="45.97553" lon="4.63637">
        <ele>327</ele>
        <time>2017-03-19T11:10:36Z</time>
      </trkpt>
      <trkpt lat="45.97555" lon="4.63651">
        <ele>327</ele>
        <time>2017-03-19T11:10:37Z</time>
      </trkpt>
      <trkpt lat="45.97556" lon="4.63664">
        <ele>326</ele>
        <time>2017-03-19T11:10:38Z</time>
      </trkpt>
      <trkpt lat="45.97558" lon="4.63678">
        <ele>325</ele>
        <time>2017-03-19T11:10:39Z</time>
      </trkpt>
      <trkpt lat="45.97559" lon="4.63691">
        <ele>325</ele>
        <time>2017-03-19T11:10:40Z</time>
      </trkpt>
      <trkpt lat="45.9756" lon="4.63704">
        <ele>325</ele>
        <time>2017-03-19T11:10:41Z</time>
      </trkpt>
      <trkpt lat="45.97562" lon="4.63718">
        <ele>325</ele>
        <time>2017-03-19T11:10:42Z</time>
      </trkpt>
      <trkpt lat="45.97564" lon="4.6373">
        <ele>324</ele>
        <time>2017-03-19T11:10:43Z</time>
      </trkpt>
      <trkpt lat="45.97565" lon="4.63743">
        <ele>323</ele>
        <time>2017-03-19T11:10:44Z</time>
      </trkpt>
      <trkpt lat="45.97567" lon="4.63757">
        <ele>322</ele>
        <time>2017-03-19T11:10:45Z</time>
      </trkpt>
      <trkpt lat="45.97568" lon="4.6377">
        <ele>322</ele>
        <time>2017-03-19T11:10:46Z</time>
      </trkpt>
      <trkpt lat="45.97569" lon="4.63783">
        <ele>322</ele>
        <time>2017-03-19T11:10:47Z</time>
      </trkpt>
      <trkpt lat="45.97571" lon="4.63797">
        <ele>321</ele>
        <time>2017-03-19T11:10:48Z</time>
      </trkpt>
      <trkpt lat="45.97572" lon="4.6381">
        <ele>321</ele>
        <time>2017-03-19T11:10:49Z</time>
      </trkpt>
      <trkpt lat="45.97574" lon="4.63823">
        <ele>320</ele>
        <time>2017-03-19T11:10:50Z</time>
      </trkpt>
      <trkpt lat="45.97575" lon="4.63836">
        <ele>318</ele>
        <time>2017-03-19T11:10:51Z</time>
      </trkpt>
      <trkpt lat="45.97577" lon="4.63849">
        <ele>318</ele>
        <time>2017-03-19T11:10:52Z</time>
      </trkpt>
      <trkpt lat="45.97579" lon="4.63862">
        <ele>318</ele>
        <time>2017-03-19T11:10:53Z</time>
      </trkpt>
      <trkpt lat="45.9758" lon="4.63875">
        <ele>318</ele>
        <time>2017-03-19T11:10:54Z</time>
      </trkpt>
      <trkpt lat="45.97581" lon="4.63887">
        <ele>318</ele>
        <time>2017-03-19T11:10:55Z</time>
      </trkpt>
      <trkpt lat="45.97582" lon="4.639">
        <ele>317</ele>
        <time>2017-03-19T11:10:56Z</time>
      </trkpt>
      <trkpt lat="45.97584" lon="4.63913">
        <ele>316</ele>
        <time>2017-03-19T11:10:57Z</time>
      </trkpt>
      <trkpt lat="45.97585" lon="4.63926">
        <ele>314</ele>
        <time>2017-03-19T11:10:58Z</time>
      </trkpt>
      <trkpt lat="45.97587" lon="4.63938">
        <ele>313</ele>
        <time>2017-03-19T11:10:59Z</time>
      </trkpt>
      <trkpt lat="45.97588" lon="4.63951">
        <ele>313</ele>
        <time>2017-03-19T11:11:00Z</time>
      </trkpt>
      <trkpt lat="45.97589" lon="4.63963">
        <ele>312</ele>
        <time>2017-03-19T11:11:01Z</time>
      </trkpt>
      <trkpt lat="45.97591" lon="4.63976">
        <ele>312</ele>
        <time>2017-03-19T11:11:02Z</time>
      </trkpt>
      <trkpt lat="45.97592" lon="4.63989">
        <ele>312</ele>
        <time>2017-03-19T11:11:03Z</time>
      </trkpt>
      <trkpt lat="45.97593" lon="4.64001">
        <ele>312</ele>
        <time>2017-03-19T11:11:04Z</time>
      </trkpt>
      <trkpt lat="45.97594" lon="4.64014">
        <ele>311</ele>
        <time>2017-03-19T11:11:05Z</time>
      </trkpt>
      <trkpt lat="45.97596" lon="4.64026">
        <ele>310</ele>
        <time>2017-03-19T11:11:06Z</time>
      </trkpt>
      <trkpt lat="45.97598" lon="4.64039">
        <ele>310</ele>
        <time>2017-03-19T11:11:07Z</time>
      </trkpt>
      <trkpt lat="45.97599" lon="4.64052">
        <ele>310</ele>
        <time>2017-03-19T11:11:08Z</time>
      </trkpt>
      <trkpt lat="45.97601" lon="4.64064">
        <ele>310</ele>
        <time>2017-03-19T11:11:09Z</time>
      </trkpt>
      <trkpt lat="45.97602" lon="4.64077">
        <ele>310</ele>
        <time>2017-03-19T11:11:10Z</time>
      </trkpt>
      <trkpt lat="45.97603" lon="4.6409">
        <ele>309</ele>
        <time>2017-03-19T11:11:11Z</time>
      </trkpt>
      <trkpt lat="45.97604" lon="4.64102">
        <ele>308</ele>
        <time>2017-03-19T11:11:12Z</time>
      </trkpt>
      <trkpt lat="45.97606" lon="4.64115">
        <ele>308</ele>
        <time>2017-03-19T11:11:13Z</time>
      </trkpt>
      <trkpt lat="45.97607" lon="4.64127">
        <ele>307</ele>
        <time>2017-03-19T11:11:14Z</time>
      </trkpt>
      <trkpt lat="45.97608" lon="4.64139">
        <ele>307</ele>
        <time>2017-03-19T11:11:15Z</time>
      </trkpt>
      <trkpt lat="45.97609" lon="4.64151">
        <ele>307</ele>
        <time>2017-03-19T11:11:16Z</time>
      </trkpt>
      <trkpt lat="45.97611" lon="4.64163">
        <ele>307</ele>
        <time>2017-03-19T11:11:17Z</time>
      </trkpt>
      <trkpt lat="45.97612" lon="4.64175">
        <ele>306</ele>
        <time>2017-03-19T11:11:18Z</time>
      </trkpt>
      <trkpt lat="45.97614" lon="4.64187">
        <ele>306</ele>
        <time>2017-03-19T11:11:19Z</time>
      </trkpt>
      <trkpt lat="45.97615" lon="4.64199">
        <ele>306</ele>
        <time>2017-03-19T11:11:20Z</time>
      </trkpt>
      <trkpt lat="45.97616" lon="4.6421">
        <ele>306</ele>
        <time>2017-03-19T11:11:21Z</time>
      </trkpt>
      <trkpt lat="45.97618" lon="4.64222">
        <ele>306</ele>
        <time>2017-03-19T11:11:22Z</time>
      </trkpt>
      <trkpt lat="45.97619" lon="4.64234">
        <ele>306</ele>
        <time>2017-03-19T11:11:23Z</time>
      </trkpt>
      <trkpt lat="45.9762" lon="4.64246">
        <ele>306</ele>
        <time>2017-03-19T11:11:24Z</time>
      </trkpt>
      <trkpt lat="45.97621" lon="4.64258">
        <ele>305</ele>
        <time>2017-03-19T11:11:25Z</time>
      </trkpt>
      <trkpt lat="45.97623" lon="4.6427">
        <ele>305</ele>
        <time>2017-03-19T11:11:26Z</time>
      </trkpt>
      <trkpt lat="45.97624" lon="4.64282">
        <ele>305</ele>
        <time>2017-03-19T11:11:27Z</time>
      </trkpt>
      <trkpt lat="45.97625" lon="4.64294">
        <ele>304</ele>
        <time>2017-03-19T11:11:28Z</time>
      </trkpt>
      <trkpt lat="45.97627" lon="4.64306">
        <ele>304</ele>
        <time>2017-03-19T11:11:29Z</time>
      </trkpt>
      <trkpt lat="45.97628" lon="4.64318">
        <ele>304</ele>
        <time>2017-03-19T11:11:30Z</time>
      </trkpt>
      <trkpt lat="45.9763" lon="4.6433">
        <ele>304</ele>
        <time>2017-03-19T11:11:31Z</time>
      </trkpt>
      <trkpt lat="45.97631" lon="4.64342">
        <ele>303</ele>
        <time>2017-03-19T11:11:32Z</time>
      </trkpt>
      <trkpt lat="45.97633" lon="4.64354">
        <ele>303</ele>
        <time>2017-03-19T11:11:33Z</time>
      </trkpt>
      <trkpt lat="45.97634" lon="4.64367">
        <ele>303</ele>
        <time>2017-03-19T11:11:34Z</time>
      </trkpt>
      <trkpt lat="45.97635" lon="4.64379">
        <ele>303</ele>
        <time>2017-03-19T11:11:35Z</time>
      </trkpt>
      <trkpt lat="45.97636" lon="4.64391">
        <ele>303</ele>
        <time>2017-03-19T11:11:36Z</time>
      </trkpt>
      <trkpt lat="45.97638" lon="4.64403">
        <ele>302</ele>
        <time>2017-03-19T11:11:37Z</time>
      </trkpt>
      <trkpt lat="45.97639" lon="4.64415">
        <ele>302</ele>
        <time>2017-03-19T11:11:38Z</time>
      </trkpt>
      <trkpt lat="45.9764" lon="4.64426">
        <ele>302</ele>
        <time>2017-03-19T11:11:39Z</time>
      </trkpt>
      <trkpt lat="45.97641" lon="4.64438">
        <ele>302</ele>
        <time>2017-03-19T11:11:40Z</time>
      </trkpt>
      <trkpt lat="45.97643" lon="4.6445">
        <ele>302</ele>
        <time>2017-03-19T11:11:41Z</time>
      </trkpt>
      <trkpt lat="45.97644" lon="4.64461">
        <ele>302</ele>
        <time>2017-03-19T11:11:42Z</time>
      </trkpt>
      <trkpt lat="45.97645" lon="4.64473">
        <ele>302</ele>
        <time>2017-03-19T11:11:43Z</time>
      </trkpt>
      <trkpt lat="45.97647" lon="4.64484">
        <ele>302</ele>
        <time>2017-03-19T11:11:44Z</time>
      </trkpt>
      <trkpt lat="45.97648" lon="4.64495">
        <ele>302</ele>
        <time>2017-03-19T11:11:45Z</time>
      </trkpt>
      <trkpt lat="45.97649" lon="4.64506">
        <ele>300</ele>
        <time>2017-03-19T11:11:46Z</time>
      </trkpt>
      <trkpt lat="45.97651" lon="4.64517">
        <ele>300</ele>
        <time>2017-03-19T11:11:47Z</time>
      </trkpt>
      <trkpt lat="45.97652" lon="4.64528">
        <ele>300</ele>
        <time>2017-03-19T11:11:48Z</time>
      </trkpt>
      <trkpt lat="45.97653" lon="4.64539">
        <ele>299</ele>
        <time>2017-03-19T11:11:49Z</time>
      </trkpt>
      <trkpt lat="45.97654" lon="4.6455">
        <ele>299</ele>
        <time>2017-03-19T11:11:50Z</time>
      </trkpt>
      <trkpt lat="45.97655" lon="4.64561">
        <ele>298</ele>
        <time>2017-03-19T11:11:51Z</time>
      </trkpt>
      <trkpt lat="45.97657" lon="4.64572">
        <ele>298</ele>
        <time>2017-03-19T11:11:52Z</time>
      </trkpt>
      <trkpt lat="45.97658" lon="4.64583">
        <ele>298</ele>
        <time>2017-03-19T11:11:53Z</time>
      </trkpt>
      <trkpt lat="45.97659" lon="4.64594">
        <ele>296</ele>
        <time>2017-03-19T11:11:54Z</time>
      </trkpt>
      <trkpt lat="45.9766" lon="4.64605">
        <ele>296</ele>
        <time>2017-03-19T11:11:55Z</time>
      </trkpt>
      <trkpt lat="45.97661" lon="4.64616">
        <ele>295</ele>
        <time>2017-03-19T11:11:56Z</time>
      </trkpt>
      <trkpt lat="45.97662" lon="4.64627">
        <ele>295</ele>
        <time>2017-03-19T11:11:57Z</time>
      </trkpt>
      <trkpt lat="45.97664" lon="4.64638">
        <ele>294</ele>
        <time>2017-03-19T11:11:58Z</time>
      </trkpt>
      <trkpt lat="45.97665" lon="4.6465">
        <ele>294</ele>
        <time>2017-03-19T11:11:59Z</time>
      </trkpt>
      <trkpt lat="45.97666" lon="4.64661">
        <ele>293</ele>
        <time>2017-03-19T11:12:00Z</time>
      </trkpt>
      <trkpt lat="45.97667" lon="4.64672">
        <ele>292</ele>
        <time>2017-03-19T11:12:01Z</time>
      </trkpt>
      <trkpt lat="45.97669" lon="4.64683">
        <ele>292</ele>
        <time>2017-03-19T11:12:02Z</time>
      </trkpt>
      <trkpt lat="45.9767" lon="4.64695">
        <ele>291</ele>
        <time>2017-03-19T11:12:03Z</time>
      </trkpt>
      <trkpt lat="45.97672" lon="4.64706">
        <ele>291</ele>
        <time>2017-03-19T11:12:04Z</time>
      </trkpt>
      <trkpt lat="45.97673" lon="4.64718">
        <ele>291</ele>
        <time>2017-03-19T11:12:05Z</time>
      </trkpt>
      <trkpt lat="45.97674" lon="4.64729">
        <ele>291</ele>
        <time>2017-03-19T11:12:06Z</time>
      </trkpt>
      <trkpt lat="45.97676" lon="4.64741">
        <ele>291</ele>
        <time>2017-03-19T11:12:07Z</time>
      </trkpt>
      <trkpt lat="45.97677" lon="4.64753">
        <ele>291</ele>
        <time>2017-03-19T11:12:08Z</time>
      </trkpt>
      <trkpt lat="45.97678" lon="4.64765">
        <ele>290</ele>
        <time>2017-03-19T11:12:09Z</time>
      </trkpt>
      <trkpt lat="45.97679" lon="4.64777">
        <ele>290</ele>
        <time>2017-03-19T11:12:10Z</time>
      </trkpt>
      <trkpt lat="45.97681" lon="4.6479">
        <ele>290</ele>
        <time>2017-03-19T11:12:11Z</time>
      </trkpt>
      <trkpt lat="45.97682" lon="4.64802">
        <ele>290</ele>
        <time>2017-03-19T11:12:12Z</time>
      </trkpt>
      <trkpt lat="45.97684" lon="4.64814">
        <ele>290</ele>
        <time>2017-03-19T11:12:13Z</time>
      </trkpt>
      <trkpt lat="45.97685" lon="4.64827">
        <ele>289</ele>
        <time>2017-03-19T11:12:14Z</time>
      </trkpt>
      <trkpt lat="45.97687" lon="4.64839">
        <ele>289</ele>
        <time>2017-03-19T11:12:15Z</time>
      </trkpt>
      <trkpt lat="45.97688" lon="4.64852">
        <ele>289</ele>
        <time>2017-03-19T11:12:16Z</time>
      </trkpt>
      <trkpt lat="45.9769" lon="4.64865">
        <ele>289</ele>
        <time>2017-03-19T11:12:17Z</time>
      </trkpt>
      <trkpt lat="45.97691" lon="4.64877">
        <ele>288</ele>
        <time>2017-03-19T11:12:18Z</time>
      </trkpt>
      <trkpt lat="45.97692" lon="4.6489">
        <ele>288</ele>
        <time>2017-03-19T11:12:19Z</time>
      </trkpt>
      <trkpt lat="45.97694" lon="4.64902">
        <ele>288</ele>
        <time>2017-03-19T11:12:20Z</time>
      </trkpt>
      <trkpt lat="45.97695" lon="4.64915">
        <ele>288</ele>
        <time>2017-03-19T11:12:21Z</time>
      </trkpt>
      <trkpt lat="45.97696" lon="4.64927">
        <ele>288</ele>
        <time>2017-03-19T11:12:22Z</time>
      </trkpt>
      <trkpt lat="45.97697" lon="4.6494">
        <ele>287</ele>
        <time>2017-03-19T11:12:23Z</time>
      </trkpt>
      <trkpt lat="45.97699" lon="4.64952">
        <ele>287</ele>
        <time>2017-03-19T11:12:24Z</time>
      </trkpt>
      <trkpt lat="45.977" lon="4.64964">
        <ele>287</ele>
        <time>2017-03-19T11:12:25Z</time>
      </trkpt>
      <trkpt lat="45.97701" lon="4.64976">
        <ele>287</ele>
        <time>2017-03-19T11:12:26Z</time>
      </trkpt>
      <trkpt lat="45.97703" lon="4.64988">
        <ele>287</ele>
        <time>2017-03-19T11:12:27Z</time>
      </trkpt>
      <trkpt lat="45.97704" lon="4.64999">
        <ele>287</ele>
        <time>2017-03-19T11:12:28Z</time>
      </trkpt>
      <trkpt lat="45.97706" lon="4.65009">
        <ele>286</ele>
        <time>2017-03-19T11:12:29Z</time>
      </trkpt>
      <trkpt lat="45.97707" lon="4.65018">
        <ele>286</ele>
        <time>2017-03-19T11:12:30Z</time>
      </trkpt>
      <trkpt lat="45.97707" lon="4.65026">
        <ele>286</ele>
        <time>2017-03-19T11:12:31Z</time>
      </trkpt>
      <trkpt lat="45.97707" lon="4.65034">
        <ele>286</ele>
        <time>2017-03-19T11:12:32Z</time>
      </trkpt>
      <trkpt lat="45.97706" lon="4.65043">
        <ele>285</ele>
        <time>2017-03-19T11:12:33Z</time>
      </trkpt>
      <trkpt lat="45.97707" lon="4.65051">
        <ele>285</ele>
        <time>2017-03-19T11:12:34Z</time>
      </trkpt>
      <trkpt lat="45.97709" lon="4.6506">
        <ele>285</ele>
        <time>2017-03-19T11:12:35Z</time>
      </trkpt>
      <trkpt lat="45.97712" lon="4.65069">
        <ele>285</ele>
        <time>2017-03-19T11:12:36Z</time>
      </trkpt>
      <trkpt lat="45.97714" lon="4.65077">
        <ele>285</ele>
        <time>2017-03-19T11:12:37Z</time>
      </trkpt>
      <trkpt lat="45.97715" lon="4.65086">
        <ele>285</ele>
        <time>2017-03-19T11:12:38Z</time>
      </trkpt>
      <trkpt lat="45.97717" lon="4.65095">
        <ele>285</ele>
        <time>2017-03-19T11:12:39Z</time>
      </trkpt>
      <trkpt lat="45.97718" lon="4.65104">
        <ele>285</ele>
        <time>2017-03-19T11:12:40Z</time>
      </trkpt>
      <trkpt lat="45.97718" lon="4.65113">
        <ele>284</ele>
        <time>2017-03-19T11:12:41Z</time>
      </trkpt>
      <trkpt lat="45.9772" lon="4.65122">
        <ele>284</ele>
        <time>2017-03-19T11:12:42Z</time>
      </trkpt>
      <trkpt lat="45.97721" lon="4.65132">
        <ele>284</ele>
        <time>2017-03-19T11:12:43Z</time>
      </trkpt>
      <trkpt lat="45.97721" lon="4.65142">
        <ele>285</ele>
        <time>2017-03-19T11:12:44Z</time>
      </trkpt>
      <trkpt lat="45.97722" lon="4.65151">
        <ele>285</ele>
        <time>2017-03-19T11:12:45Z</time>
      </trkpt>
      <trkpt lat="45.97722" lon="4.6516">
        <ele>285</ele>
        <time>2017-03-19T11:12:46Z</time>
      </trkpt>
      <trkpt lat="45.97723" lon="4.6517">
        <ele>284</ele>
        <time>2017-03-19T11:12:47Z</time>
      </trkpt>
      <trkpt lat="45.97724" lon="4.6518">
        <ele>284</ele>
        <time>2017-03-19T11:12:48Z</time>
      </trkpt>
      <trkpt lat="45.97724" lon="4.65189">
        <ele>284</ele>
        <time>2017-03-19T11:12:49Z</time>
      </trkpt>
      <trkpt lat="45.97725" lon="4.65199">
        <ele>284</ele>
        <time>2017-03-19T11:12:50Z</time>
      </trkpt>
      <trkpt lat="45.97726" lon="4.65209">
        <ele>284</ele>
        <time>2017-03-19T11:12:51Z</time>
      </trkpt>
      <trkpt lat="45.97727" lon="4.65218">
        <ele>284</ele>
        <time>2017-03-19T11:12:52Z</time>
      </trkpt>
      <trkpt lat="45.97727" lon="4.65227">
        <ele>283</ele>
        <time>2017-03-19T11:12:53Z</time>
      </trkpt>
      <trkpt lat="45.97728" lon="4.65236">
        <ele>283</ele>
        <time>2017-03-19T11:12:54Z</time>
      </trkpt>
      <trkpt lat="45.9773" lon="4.65245">
        <ele>283</ele>
        <time>2017-03-19T11:12:55Z</time>
      </trkpt>
      <trkpt lat="45.97731" lon="4.65253">
        <ele>283</ele>
        <time>2017-03-19T11:12:56Z</time>
      </trkpt>
      <trkpt lat="45.97732" lon="4.65261">
        <ele>283</ele>
        <time>2017-03-19T11:12:57Z</time>
      </trkpt>
      <trkpt lat="45.97733" lon="4.6527">
        <ele>283</ele>
        <time>2017-03-19T11:12:58Z</time>
      </trkpt>
      <trkpt lat="45.97734" lon="4.65278">
        <ele>283</ele>
        <time>2017-03-19T11:12:59Z</time>
      </trkpt>
      <trkpt lat="45.97736" lon="4.65287">
        <ele>283</ele>
        <time>2017-03-19T11:13:00Z</time>
      </trkpt>
      <trkpt lat="45.97737" lon="4.65295">
        <ele>282</ele>
        <time>2017-03-19T11:13:01Z</time>
      </trkpt>
      <trkpt lat="45.9774" lon="4.65304">
        <ele>282</ele>
        <time>2017-03-19T11:13:02Z</time>
      </trkpt>
      <trkpt lat="45.97742" lon="4.65312">
        <ele>282</ele>
        <time>2017-03-19T11:13:03Z</time>
      </trkpt>
      <trkpt lat="45.97745" lon="4.6532">
        <ele>282</ele>
        <time>2017-03-19T11:13:04Z</time>
      </trkpt>
      <trkpt lat="45.97748" lon="4.65328">
        <ele>282</ele>
        <time>2017-03-19T11:13:05Z</time>
      </trkpt>
      <trkpt lat="45.9775" lon="4.65336">
        <ele>282</ele>
        <time>2017-03-19T11:13:06Z</time>
      </trkpt>
      <trkpt lat="45.97753" lon="4.65344">
        <ele>282</ele>
        <time>2017-03-19T11:13:07Z</time>
      </trkpt>
      <trkpt lat="45.97756" lon="4.65352">
        <ele>282</ele>
        <time>2017-03-19T11:13:08Z</time>
      </trkpt>
      <trkpt lat="45.97758" lon="4.65359">
        <ele>282</ele>
        <time>2017-03-19T11:13:09Z</time>
      </trkpt>
      <trkpt lat="45.97761" lon="4.65367">
        <ele>282</ele>
        <time>2017-03-19T11:13:10Z</time>
      </trkpt>
      <trkpt lat="45.97764" lon="4.65375">
        <ele>282</ele>
        <time>2017-03-19T11:13:11Z</time>
      </trkpt>
      <trkpt lat="45.97766" lon="4.65382">
        <ele>282</ele>
        <time>2017-03-19T11:13:12Z</time>
      </trkpt>
      <trkpt lat="45.97769" lon="4.6539">
        <ele>282</ele>
        <time>2017-03-19T11:13:13Z</time>
      </trkpt>
      <trkpt lat="45.97772" lon="4.65398">
        <ele>282</ele>
        <time>2017-03-19T11:13:14Z</time>
      </trkpt>
      <trkpt lat="45.97774" lon="4.65406">
        <ele>282</ele>
        <time>2017-03-19T11:13:15Z</time>
      </trkpt>
      <trkpt lat="45.97778" lon="4.65414">
        <ele>282</ele>
        <time>2017-03-19T11:13:16Z</time>
      </trkpt>
      <trkpt lat="45.9778" lon="4.65422">
        <ele>281</ele>
        <time>2017-03-19T11:13:17Z</time>
      </trkpt>
      <trkpt lat="45.97783" lon="4.65431">
        <ele>281</ele>
        <time>2017-03-19T11:13:18Z</time>
      </trkpt>
      <trkpt lat="45.97786" lon="4.6544">
        <ele>281</ele>
        <time>2017-03-19T11:13:19Z</time>
      </trkpt>
      <trkpt lat="45.9779" lon="4.65448">
        <ele>281</ele>
        <time>2017-03-19T11:13:20Z</time>
      </trkpt>
      <trkpt lat="45.97793" lon="4.65457">
        <ele>281</ele>
        <time>2017-03-19T11:13:21Z</time>
      </trkpt>
      <trkpt lat="45.97796" lon="4.65466">
        <ele>281</ele>
        <time>2017-03-19T11:13:22Z</time>
      </trkpt>
      <trkpt lat="45.97799" lon="4.65476">
        <ele>281</ele>
        <time>2017-03-19T11:13:23Z</time>
      </trkpt>
      <trkpt lat="45.97802" lon="4.65485">
        <ele>281</ele>
        <time>2017-03-19T11:13:24Z</time>
      </trkpt>
      <trkpt lat="45.97805" lon="4.65493">
        <ele>280</ele>
        <time>2017-03-19T11:13:25Z</time>
      </trkpt>
      <trkpt lat="45.97808" lon="4.65502">
        <ele>280</ele>
        <time>2017-03-19T11:13:26Z</time>
      </trkpt>
      <trkpt lat="45.9781" lon="4.6551">
        <ele>280</ele>
        <time>2017-03-19T11:13:27Z</time>
      </trkpt>
      <trkpt lat="45.97812" lon="4.65519">
        <ele>280</ele>
        <time>2017-03-19T11:13:28Z</time>
      </trkpt>
      <trkpt lat="45.97814" lon="4.65527">
        <ele>280</ele>
        <time>2017-03-19T11:13:29Z</time>
      </trkpt>
      <trkpt lat="45.97816" lon="4.65535">
        <ele>280</ele>
        <time>2017-03-19T11:13:30Z</time>
      </trkpt>
      <trkpt lat="45.97818" lon="4.65543">
        <ele>280</ele>
        <time>2017-03-19T11:13:31Z</time>
      </trkpt>
      <trkpt lat="45.97819" lon="4.65551">
        <ele>280</ele>
        <time>2017-03-19T11:13:32Z</time>
      </trkpt>
      <trkpt lat="45.9782" lon="4.65559">
        <ele>280</ele>
        <time>2017-03-19T11:13:33Z</time>
      </trkpt>
      <trkpt lat="45.97822" lon="4.65568">
        <ele>280</ele>
        <time>2017-03-19T11:13:34Z</time>
      </trkpt>
      <trkpt lat="45.97824" lon="4.65576">
        <ele>280</ele>
        <time>2017-03-19T11:13:35Z</time>
      </trkpt>
      <trkpt lat="45.97826" lon="4.65585">
        <ele>280</ele>
        <time>2017-03-19T11:13:36Z</time>
      </trkpt>
      <trkpt lat="45.97828" lon="4.65593">
        <ele>280</ele>
        <time>2017-03-19T11:13:37Z</time>
      </trkpt>
      <trkpt lat="45.97831" lon="4.65601">
        <ele>280</ele>
        <time>2017-03-19T11:13:38Z</time>
      </trkpt>
      <trkpt lat="45.97833" lon="4.65609">
        <ele>280</ele>
        <time>2017-03-19T11:13:39Z</time>
      </trkpt>
      <trkpt lat="45.97835" lon="4.65617">
        <ele>279</ele>
        <time>2017-03-19T11:13:40Z</time>
      </trkpt>
      <trkpt lat="45.97838" lon="4.65625">
        <ele>279</ele>
        <time>2017-03-19T11:13:41Z</time>
      </trkpt>
      <trkpt lat="45.9784" lon="4.65632">
        <ele>279</ele>
        <time>2017-03-19T11:13:42Z</time>
      </trkpt>
      <trkpt lat="45.97842" lon="4.6564">
        <ele>279</ele>
        <time>2017-03-19T11:13:43Z</time>
      </trkpt>
      <trkpt lat="45.97845" lon="4.65648">
        <ele>279</ele>
        <time>2017-03-19T11:13:44Z</time>
      </trkpt>
      <trkpt lat="45.97847" lon="4.65655">
        <ele>279</ele>
        <time>2017-03-19T11:13:45Z</time>
      </trkpt>
      <trkpt lat="45.97849" lon="4.65662">
        <ele>279</ele>
        <time>2017-03-19T11:13:46Z</time>
      </trkpt>
      <trkpt lat="45.97852" lon="4.6567">
        <ele>278</ele>
        <time>2017-03-19T11:13:47Z</time>
      </trkpt>
      <trkpt lat="45.97854" lon="4.65678">
        <ele>278</ele>
        <time>2017-03-19T11:13:48Z</time>
      </trkpt>
      <trkpt lat="45.97857" lon="4.65686">
        <ele>278</ele>
        <time>2017-03-19T11:13:49Z</time>
      </trkpt>
      <trkpt lat="45.97859" lon="4.65694">
        <ele>278</ele>
        <time>2017-03-19T11:13:50Z</time>
      </trkpt>
      <trkpt lat="45.97862" lon="4.65702">
        <ele>278</ele>
        <time>2017-03-19T11:13:51Z</time>
      </trkpt>
      <trkpt lat="45.97865" lon="4.6571">
        <ele>278</ele>
        <time>2017-03-19T11:13:52Z</time>
      </trkpt>
      <trkpt lat="45.97867" lon="4.65719">
        <ele>278</ele>
        <time>2017-03-19T11:13:53Z</time>
      </trkpt>
      <trkpt lat="45.97869" lon="4.65728">
        <ele>278</ele>
        <time>2017-03-19T11:13:54Z</time>
      </trkpt>
      <trkpt lat="45.97872" lon="4.65736">
        <ele>278</ele>
        <time>2017-03-19T11:13:55Z</time>
      </trkpt>
      <trkpt lat="45.97875" lon="4.65745">
        <ele>278</ele>
        <time>2017-03-19T11:13:56Z</time>
      </trkpt>
      <trkpt lat="45.97877" lon="4.65753">
        <ele>277</ele>
        <time>2017-03-19T11:13:57Z</time>
      </trkpt>
      <trkpt lat="45.9788" lon="4.65762">
        <ele>277</ele>
        <time>2017-03-19T11:13:58Z</time>
      </trkpt>
      <trkpt lat="45.97882" lon="4.6577">
        <ele>277</ele>
        <time>2017-03-19T11:13:59Z</time>
      </trkpt>
      <trkpt lat="45.97885" lon="4.65778">
        <ele>277</ele>
        <time>2017-03-19T11:14:00Z</time>
      </trkpt>
      <trkpt lat="45.97887" lon="4.65786">
        <ele>277</ele>
        <time>2017-03-19T11:14:01Z</time>
      </trkpt>
      <trkpt lat="45.9789" lon="4.65793">
        <ele>277</ele>
        <time>2017-03-19T11:14:02Z</time>
      </trkpt>
      <trkpt lat="45.97892" lon="4.65801">
        <ele>277</ele>
        <time>2017-03-19T11:14:03Z</time>
      </trkpt>
      <trkpt lat="45.97895" lon="4.65809">
        <ele>277</ele>
        <time>2017-03-19T11:14:04Z</time>
      </trkpt>
      <trkpt lat="45.97897" lon="4.65817">
        <ele>277</ele>
        <time>2017-03-19T11:14:05Z</time>
      </trkpt>
      <trkpt lat="45.979" lon="4.65824">
        <ele>277</ele>
        <time>2017-03-19T11:14:06Z</time>
      </trkpt>
      <trkpt lat="45.97903" lon="4.65832">
        <ele>277</ele>
        <time>2017-03-19T11:14:07Z</time>
      </trkpt>
      <trkpt lat="45.97905" lon="4.6584">
        <ele>277</ele>
        <time>2017-03-19T11:14:08Z</time>
      </trkpt>
      <trkpt lat="45.97908" lon="4.65847">
        <ele>277</ele>
        <time>2017-03-19T11:14:09Z</time>
      </trkpt>
      <trkpt lat="45.97911" lon="4.65855">
        <ele>277</ele>
        <time>2017-03-19T11:14:10Z</time>
      </trkpt>
      <trkpt lat="45.97913" lon="4.65863">
        <ele>276</ele>
        <time>2017-03-19T11:14:11Z</time>
      </trkpt>
      <trkpt lat="45.97916" lon="4.65871">
        <ele>276</ele>
        <time>2017-03-19T11:14:12Z</time>
      </trkpt>
      <trkpt lat="45.97918" lon="4.65879">
        <ele>276</ele>
        <time>2017-03-19T11:14:13Z</time>
      </trkpt>
      <trkpt lat="45.9792" lon="4.65888">
        <ele>276</ele>
        <time>2017-03-19T11:14:14Z</time>
      </trkpt>
      <trkpt lat="45.97923" lon="4.65897">
        <ele>276</ele>
        <time>2017-03-19T11:14:15Z</time>
      </trkpt>
      <trkpt lat="45.97924" lon="4.65906">
        <ele>276</ele>
        <time>2017-03-19T11:14:16Z</time>
      </trkpt>
      <trkpt lat="45.97926" lon="4.65916">
        <ele>276</ele>
        <time>2017-03-19T11:14:17Z</time>
      </trkpt>
      <trkpt lat="45.97926" lon="4.65926">
        <ele>275</ele>
        <time>2017-03-19T11:14:18Z</time>
      </trkpt>
      <trkpt lat="45.97926" lon="4.65936">
        <ele>274</ele>
        <time>2017-03-19T11:14:19Z</time>
      </trkpt>
      <trkpt lat="45.97927" lon="4.65946">
        <ele>273</ele>
        <time>2017-03-19T11:14:20Z</time>
      </trkpt>
      <trkpt lat="45.97927" lon="4.65956">
        <ele>273</ele>
        <time>2017-03-19T11:14:21Z</time>
      </trkpt>
      <trkpt lat="45.97927" lon="4.65966">
        <ele>272</ele>
        <time>2017-03-19T11:14:22Z</time>
      </trkpt>
      <trkpt lat="45.97927" lon="4.65975">
        <ele>272</ele>
        <time>2017-03-19T11:14:23Z</time>
      </trkpt>
      <trkpt lat="45.97926" lon="4.65985">
        <ele>272</ele>
        <time>2017-03-19T11:14:24Z</time>
      </trkpt>
      <trkpt lat="45.97926" lon="4.65995">
        <ele>272</ele>
        <time>2017-03-19T11:14:25Z</time>
      </trkpt>
      <trkpt lat="45.97926" lon="4.66004">
        <ele>271</ele>
        <time>2017-03-19T11:14:26Z</time>
      </trkpt>
      <trkpt lat="45.97926" lon="4.66014">
        <ele>271</ele>
        <time>2017-03-19T11:14:27Z</time>
      </trkpt>
      <trkpt lat="45.97925" lon="4.66023">
        <ele>270</ele>
        <time>2017-03-19T11:14:28Z</time>
      </trkpt>
      <trkpt lat="45.97925" lon="4.66033">
        <ele>270</ele>
        <time>2017-03-19T11:14:29Z</time>
      </trkpt>
      <trkpt lat="45.97924" lon="4.66042">
        <ele>270</ele>
        <time>2017-03-19T11:14:30Z</time>
      </trkpt>
      <trkpt lat="45.97924" lon="4.66051">
        <ele>270</ele>
        <time>2017-03-19T11:14:31Z</time>
      </trkpt>
      <trkpt lat="45.97924" lon="4.6606">
        <ele>270</ele>
        <time>2017-03-19T11:14:32Z</time>
      </trkpt>
      <trkpt lat="45.97924" lon="4.66069">
        <ele>270</ele>
        <time>2017-03-19T11:14:33Z</time>
      </trkpt>
      <trkpt lat="45.97924" lon="4.66078">
        <ele>270</ele>
        <time>2017-03-19T11:14:34Z</time>
      </trkpt>
      <trkpt lat="45.97924" lon="4.66088">
        <ele>270</ele>
        <time>2017-03-19T11:14:35Z</time>
      </trkpt>
      <trkpt lat="45.97925" lon="4.66098">
        <ele>270</ele>
        <time>2017-03-19T11:14:36Z</time>
      </trkpt>
      <trkpt lat="45.97927" lon="4.66108">
        <ele>270</ele>
        <time>2017-03-19T11:14:37Z</time>
      </trkpt>
      <trkpt lat="45.97929" lon="4.66118">
        <ele>269</ele>
        <time>2017-03-19T11:14:38Z</time>
      </trkpt>
      <trkpt lat="45.97931" lon="4.66128">
        <ele>269</ele>
        <time>2017-03-19T11:14:39Z</time>
      </trkpt>
      <trkpt lat="45.97933" lon="4.66137">
        <ele>269</ele>
        <time>2017-03-19T11:14:40Z</time>
      </trkpt>
      <trkpt lat="45.97935" lon="4.66147">
        <ele>269</ele>
        <time>2017-03-19T11:14:41Z</time>
      </trkpt>
      <trkpt lat="45.97938" lon="4.66156">
        <ele>269</ele>
        <time>2017-03-19T11:14:42Z</time>
      </trkpt>
      <trkpt lat="45.97939" lon="4.66166">
        <ele>269</ele>
        <time>2017-03-19T11:14:43Z</time>
      </trkpt>
      <trkpt lat="45.97941" lon="4.66175">
        <ele>270</ele>
        <time>2017-03-19T11:14:44Z</time>
      </trkpt>
      <trkpt lat="45.97943" lon="4.66184">
        <ele>270</ele>
        <time>2017-03-19T11:14:45Z</time>
      </trkpt>
      <trkpt lat="45.97944" lon="4.66193">
        <ele>270</ele>
        <time>2017-03-19T11:14:46Z</time>
      </trkpt>
      <trkpt lat="45.97946" lon="4.66201">
        <ele>270</ele>
        <time>2017-03-19T11:14:47Z</time>
      </trkpt>
      <trkpt lat="45.97947" lon="4.6621">
        <ele>270</ele>
        <time>2017-03-19T11:14:48Z</time>
      </trkpt>
      <trkpt lat="45.97949" lon="4.66218">
        <ele>270</ele>
        <time>2017-03-19T11:14:49Z</time>
      </trkpt>
      <trkpt lat="45.97952" lon="4.66226">
        <ele>270</ele>
        <time>2017-03-19T11:14:50Z</time>
      </trkpt>
      <trkpt lat="45.97955" lon="4.66233">
        <ele>270</ele>
        <time>2017-03-19T11:14:51Z</time>
      </trkpt>
      <trkpt lat="45.97959" lon="4.66241">
        <ele>270</ele>
        <time>2017-03-19T11:14:52Z</time>
      </trkpt>
      <trkpt lat="45.97962" lon="4.66248">
        <ele>270</ele>
        <time>2017-03-19T11:14:53Z</time>
      </trkpt>
      <trkpt lat="45.97966" lon="4.66255">
        <ele>270</ele>
        <time>2017-03-19T11:14:54Z</time>
      </trkpt>
      <trkpt lat="45.9797" lon="4.66261">
        <ele>270</ele>
        <time>2017-03-19T11:14:55Z</time>
      </trkpt>
      <trkpt lat="45.97975" lon="4.66267">
        <ele>270</ele>
        <time>2017-03-19T11:14:56Z</time>
      </trkpt>
      <trkpt lat="45.97979" lon="4.66272">
        <ele>270</ele>
        <time>2017-03-19T11:14:57Z</time>
      </trkpt>
      <trkpt lat="45.97983" lon="4.66276">
        <ele>270</ele>
        <time>2017-03-19T11:14:58Z</time>
      </trkpt>
      <trkpt lat="45.97988" lon="4.66281">
        <ele>270</ele>
        <time>2017-03-19T11:14:59Z</time>
      </trkpt>
      <trkpt lat="45.97992" lon="4.66286">
        <ele>270</ele>
        <time>2017-03-19T11:15:00Z</time>
      </trkpt>
      <trkpt lat="45.97997" lon="4.6629">
        <ele>270</ele>
        <time>2017-03-19T11:15:01Z</time>
      </trkpt>
      <trkpt lat="45.98002" lon="4.66295">
        <ele>268</ele>
        <time>2017-03-19T11:15:02Z</time>
      </trkpt>
      <trkpt lat="45.98007" lon="4.66299">
        <ele>268</ele>
        <time>2017-03-19T11:15:03Z</time>
      </trkpt>
      <trkpt lat="45.98012" lon="4.66305">
        <ele>268</ele>
        <time>2017-03-19T11:15:04Z</time>
      </trkpt>
      <trkpt lat="45.98017" lon="4.6631">
        <ele>268</ele>
        <time>2017-03-19T11:15:05Z</time>
      </trkpt>
      <trkpt lat="45.98022" lon="4.66316">
        <ele>268</ele>
        <time>2017-03-19T11:15:06Z</time>
      </trkpt>
      <trkpt lat="45.98026" lon="4.66324">
        <ele>268</ele>
        <time>2017-03-19T11:15:07Z</time>
      </trkpt>
      <trkpt lat="45.9803" lon="4.66331">
        <ele>268</ele>
        <time>2017-03-19T11:15:08Z</time>
      </trkpt>
      <trkpt lat="45.98034" lon="4.66339">
        <ele>267</ele>
        <time>2017-03-19T11:15:09Z</time>
      </trkpt>
      <trkpt lat="45.98037" lon="4.66348">
        <ele>267</ele>
        <time>2017-03-19T11:15:10Z</time>
      </trkpt>
      <trkpt lat="45.98041" lon="4.66358">
        <ele>267</ele>
        <time>2017-03-19T11:15:11Z</time>
      </trkpt>
      <trkpt lat="45.98044" lon="4.66367">
        <ele>267</ele>
        <time>2017-03-19T11:15:12Z</time>
      </trkpt>
      <trkpt lat="45.98047" lon="4.66378">
        <ele>267</ele>
        <time>2017-03-19T11:15:13Z</time>
      </trkpt>
      <trkpt lat="45.98051" lon="4.66388">
        <ele>267</ele>
        <time>2017-03-19T11:15:14Z</time>
      </trkpt>
      <trkpt lat="45.98054" lon="4.66398">
        <ele>267</ele>
        <time>2017-03-19T11:15:15Z</time>
      </trkpt>
      <trkpt lat="45.98057" lon="4.66408">
        <ele>266</ele>
        <time>2017-03-19T11:15:16Z</time>
      </trkpt>
      <trkpt lat="45.98059" lon="4.66418">
        <ele>266</ele>
        <time>2017-03-19T11:15:17Z</time>
      </trkpt>
      <trkpt lat="45.98061" lon="4.66428">
        <ele>266</ele>
        <time>2017-03-19T11:15:18Z</time>
      </trkpt>
      <trkpt lat="45.98064" lon="4.66438">
        <ele>266</ele>
        <time>2017-03-19T11:15:19Z</time>
      </trkpt>
      <trkpt lat="45.98066" lon="4.66448">
        <ele>266</ele>
        <time>2017-03-19T11:15:20Z</time>
      </trkpt>
      <trkpt lat="45.98067" lon="4.66458">
        <ele>266</ele>
        <time>2017-03-19T11:15:21Z</time>
      </trkpt>
      <trkpt lat="45.98068" lon="4.66468">
        <ele>266</ele>
        <time>2017-03-19T11:15:22Z</time>
      </trkpt>
      <trkpt lat="45.98069" lon="4.66478">
        <ele>266</ele>
        <time>2017-03-19T11:15:23Z</time>
      </trkpt>
      <trkpt lat="45.9807" lon="4.66488">
        <ele>265</ele>
        <time>2017-03-19T11:15:24Z</time>
      </trkpt>
      <trkpt lat="45.9807" lon="4.66497">
        <ele>265</ele>
        <time>2017-03-19T11:15:25Z</time>
      </trkpt>
      <trkpt lat="45.98071" lon="4.66507">
        <ele>265</ele>
        <time>2017-03-19T11:15:26Z</time>
      </trkpt>
      <trkpt lat="45.98071" lon="4.66517">
        <ele>265</ele>
        <time>2017-03-19T11:15:27Z</time>
      </trkpt>
      <trkpt lat="45.98072" lon="4.66527">
        <ele>264</ele>
        <time>2017-03-19T11:15:28Z</time>
      </trkpt>
      <trkpt lat="45.98072" lon="4.66537">
        <ele>264</ele>
        <time>2017-03-19T11:15:29Z</time>
      </trkpt>
      <trkpt lat="45.98073" lon="4.66547">
        <ele>264</ele>
        <time>2017-03-19T11:15:30Z</time>
      </trkpt>
      <trkpt lat="45.98074" lon="4.66557">
        <ele>264</ele>
        <time>2017-03-19T11:15:31Z</time>
      </trkpt>
      <trkpt lat="45.98075" lon="4.66567">
        <ele>263</ele>
        <time>2017-03-19T11:15:32Z</time>
      </trkpt>
      <trkpt lat="45.98076" lon="4.66578">
        <ele>263</ele>
        <time>2017-03-19T11:15:33Z</time>
      </trkpt>
      <trkpt lat="45.98078" lon="4.66588">
        <ele>262</ele>
        <time>2017-03-19T11:15:34Z</time>
      </trkpt>
      <trkpt lat="45.9808" lon="4.66599">
        <ele>262</ele>
        <time>2017-03-19T11:15:35Z</time>
      </trkpt>
      <trkpt lat="45.98082" lon="4.66609">
        <ele>262</ele>
        <time>2017-03-19T11:15:36Z</time>
      </trkpt>
      <trkpt lat="45.98084" lon="4.6662">
        <ele>260</ele>
        <time>2017-03-19T11:15:37Z</time>
      </trkpt>
      <trkpt lat="45.98086" lon="4.66631">
        <ele>259</ele>
        <time>2017-03-19T11:15:38Z</time>
      </trkpt>
      <trkpt lat="45.98088" lon="4.66642">
        <ele>259</ele>
        <time>2017-03-19T11:15:39Z</time>
      </trkpt>
      <trkpt lat="45.9809" lon="4.66652">
        <ele>259</ele>
        <time>2017-03-19T11:15:40Z</time>
      </trkpt>
      <trkpt lat="45.98092" lon="4.66663">
        <ele>260</ele>
        <time>2017-03-19T11:15:41Z</time>
      </trkpt>
      <trkpt lat="45.98094" lon="4.66674">
        <ele>258</ele>
        <time>2017-03-19T11:15:42Z</time>
      </trkpt>
      <trkpt lat="45.98096" lon="4.66685">
        <ele>258</ele>
        <time>2017-03-19T11:15:43Z</time>
      </trkpt>
      <trkpt lat="45.98098" lon="4.66696">
        <ele>257</ele>
        <time>2017-03-19T11:15:44Z</time>
      </trkpt>
      <trkpt lat="45.981" lon="4.66707">
        <ele>257</ele>
        <time>2017-03-19T11:15:45Z</time>
      </trkpt>
      <trkpt lat="45.98102" lon="4.66719">
        <ele>257</ele>
        <time>2017-03-19T11:15:46Z</time>
      </trkpt>
      <trkpt lat="45.98104" lon="4.6673">
        <ele>257</ele>
        <time>2017-03-19T11:15:47Z</time>
      </trkpt>
      <trkpt lat="45.98107" lon="4.6674">
        <ele>257</ele>
        <time>2017-03-19T11:15:48Z</time>
      </trkpt>
      <trkpt lat="45.98109" lon="4.66751">
        <ele>256</ele>
        <time>2017-03-19T11:15:49Z</time>
      </trkpt>
      <trkpt lat="45.98111" lon="4.66762">
        <ele>255</ele>
        <time>2017-03-19T11:15:50Z</time>
      </trkpt>
      <trkpt lat="45.98113" lon="4.66773">
        <ele>255</ele>
        <time>2017-03-19T11:15:51Z</time>
      </trkpt>
      <trkpt lat="45.98115" lon="4.66784">
        <ele>255</ele>
        <time>2017-03-19T11:15:52Z</time>
      </trkpt>
      <trkpt lat="45.98117" lon="4.66795">
        <ele>255</ele>
        <time>2017-03-19T11:15:53Z</time>
      </trkpt>
      <trkpt lat="45.98119" lon="4.66805">
        <ele>255</ele>
        <time>2017-03-19T11:15:54Z</time>
      </trkpt>
      <trkpt lat="45.9812" lon="4.66816">
        <ele>255</ele>
        <time>2017-03-19T11:15:55Z</time>
      </trkpt>
      <trkpt lat="45.98122" lon="4.66826">
        <ele>254</ele>
        <time>2017-03-19T11:15:56Z</time>
      </trkpt>
      <trkpt lat="45.98124" lon="4.66836">
        <ele>254</ele>
        <time>2017-03-19T11:15:57Z</time>
      </trkpt>
      <trkpt lat="45.98126" lon="4.66846">
        <ele>254</ele>
        <time>2017-03-19T11:15:58Z</time>
      </trkpt>
      <trkpt lat="45.98128" lon="4.66856">
        <ele>254</ele>
        <time>2017-03-19T11:15:59Z</time>
      </trkpt>
      <trkpt lat="45.98129" lon="4.66865">
        <ele>254</ele>
        <time>2017-03-19T11:16:00Z</time>
      </trkpt>
      <trkpt lat="45.98131" lon="4.66875">
        <ele>254</ele>
        <time>2017-03-19T11:16:01Z</time>
      </trkpt>
      <trkpt lat="45.98132" lon="4.66886">
        <ele>254</ele>
        <time>2017-03-19T11:16:02Z</time>
      </trkpt>
      <trkpt lat="45.98133" lon="4.66896">
        <ele>254</ele>
        <time>2017-03-19T11:16:03Z</time>
      </trkpt>
      <trkpt lat="45.98133" lon="4.66907">
        <ele>254</ele>
        <time>2017-03-19T11:16:04Z</time>
      </trkpt>
      <trkpt lat="45.98134" lon="4.66918">
        <ele>253</ele>
        <time>2017-03-19T11:16:05Z</time>
      </trkpt>
      <trkpt lat="45.98135" lon="4.66929">
        <ele>253</ele>
        <time>2017-03-19T11:16:06Z</time>
      </trkpt>
      <trkpt lat="45.98135" lon="4.66941">
        <ele>253</ele>
        <time>2017-03-19T11:16:07Z</time>
      </trkpt>
      <trkpt lat="45.98136" lon="4.66953">
        <ele>253</ele>
        <time>2017-03-19T11:16:08Z</time>
      </trkpt>
      <trkpt lat="45.98136" lon="4.66965">
        <ele>253</ele>
        <time>2017-03-19T11:16:09Z</time>
      </trkpt>
      <trkpt lat="45.98136" lon="4.66977">
        <ele>253</ele>
        <time>2017-03-19T11:16:10Z</time>
      </trkpt>
      <trkpt lat="45.98137" lon="4.66989">
        <ele>253</ele>
        <time>2017-03-19T11:16:11Z</time>
      </trkpt>
      <trkpt lat="45.98137" lon="4.67001">
        <ele>251</ele>
        <time>2017-03-19T11:16:12Z</time>
      </trkpt>
      <trkpt lat="45.98137" lon="4.67012">
        <ele>251</ele>
        <time>2017-03-19T11:16:13Z</time>
      </trkpt>
      <trkpt lat="45.98138" lon="4.67024">
        <ele>251</ele>
        <time>2017-03-19T11:16:14Z</time>
      </trkpt>
      <trkpt lat="45.98139" lon="4.67035">
        <ele>251</ele>
        <time>2017-03-19T11:16:15Z</time>
      </trkpt>
      <trkpt lat="45.9814" lon="4.67046">
        <ele>251</ele>
        <time>2017-03-19T11:16:16Z</time>
      </trkpt>
      <trkpt lat="45.98141" lon="4.67056">
        <ele>251</ele>
        <time>2017-03-19T11:16:17Z</time>
      </trkpt>
      <trkpt lat="45.98144" lon="4.67065">
        <ele>251</ele>
        <time>2017-03-19T11:16:18Z</time>
      </trkpt>
      <trkpt lat="45.98146" lon="4.67074">
        <ele>251</ele>
        <time>2017-03-19T11:16:19Z</time>
      </trkpt>
      <trkpt lat="45.98148" lon="4.67082">
        <ele>251</ele>
        <time>2017-03-19T11:16:20Z</time>
      </trkpt>
      <trkpt lat="45.98151" lon="4.6709">
        <ele>251</ele>
        <time>2017-03-19T11:16:21Z</time>
      </trkpt>
      <trkpt lat="45.98153" lon="4.67098">
        <ele>251</ele>
        <time>2017-03-19T11:16:22Z</time>
      </trkpt>
      <trkpt lat="45.98156" lon="4.67106">
        <ele>251</ele>
        <time>2017-03-19T11:16:23Z</time>
      </trkpt>
      <trkpt lat="45.98158" lon="4.67113">
        <ele>251</ele>
        <time>2017-03-19T11:16:24Z</time>
      </trkpt>
      <trkpt lat="45.9816" lon="4.67121">
        <ele>251</ele>
        <time>2017-03-19T11:16:25Z</time>
      </trkpt>
      <trkpt lat="45.98163" lon="4.67129">
        <ele>251</ele>
        <time>2017-03-19T11:16:26Z</time>
      </trkpt>
      <trkpt lat="45.98165" lon="4.67138">
        <ele>251</ele>
        <time>2017-03-19T11:16:27Z</time>
      </trkpt>
      <trkpt lat="45.98167" lon="4.67146">
        <ele>250</ele>
        <time>2017-03-19T11:16:28Z</time>
      </trkpt>
      <trkpt lat="45.9817" lon="4.67155">
        <ele>250</ele>
        <time>2017-03-19T11:16:29Z</time>
      </trkpt>
      <trkpt lat="45.98172" lon="4.67163">
        <ele>251</ele>
        <time>2017-03-19T11:16:30Z</time>
      </trkpt>
      <trkpt lat="45.98174" lon="4.67172">
        <ele>251</ele>
        <time>2017-03-19T11:16:31Z</time>
      </trkpt>
      <trkpt lat="45.98177" lon="4.6718">
        <ele>250</ele>
        <time>2017-03-19T11:16:32Z</time>
      </trkpt>
      <trkpt lat="45.98179" lon="4.67189">
        <ele>250</ele>
        <time>2017-03-19T11:16:33Z</time>
      </trkpt>
      <trkpt lat="45.98181" lon="4.67197">
        <ele>250</ele>
        <time>2017-03-19T11:16:34Z</time>
      </trkpt>
      <trkpt lat="45.98183" lon="4.67205">
        <ele>250</ele>
        <time>2017-03-19T11:16:35Z</time>
      </trkpt>
      <trkpt lat="45.98185" lon="4.67213">
        <ele>250</ele>
        <time>2017-03-19T11:16:36Z</time>
      </trkpt>
      <trkpt lat="45.98187" lon="4.67221">
        <ele>250</ele>
        <time>2017-03-19T11:16:37Z</time>
      </trkpt>
      <trkpt lat="45.98188" lon="4.67229">
        <ele>250</ele>
        <time>2017-03-19T11:16:38Z</time>
      </trkpt>
      <trkpt lat="45.98189" lon="4.67238">
        <ele>250</ele>
        <time>2017-03-19T11:16:39Z</time>
      </trkpt>
      <trkpt lat="45.9819" lon="4.67247">
        <ele>250</ele>
        <time>2017-03-19T11:16:40Z</time>
      </trkpt>
      <trkpt lat="45.98191" lon="4.67255">
        <ele>250</ele>
        <time>2017-03-19T11:16:41Z</time>
      </trkpt>
      <trkpt lat="45.98192" lon="4.67264">
        <ele>250</ele>
        <time>2017-03-19T11:16:42Z</time>
      </trkpt>
      <trkpt lat="45.98193" lon="4.67273">
        <ele>250</ele>
        <time>2017-03-19T11:16:43Z</time>
      </trkpt>
      <trkpt lat="45.98194" lon="4.67282">
        <ele>249</ele>
        <time>2017-03-19T11:16:44Z</time>
      </trkpt>
      <trkpt lat="45.98195" lon="4.67291">
        <ele>249</ele>
        <time>2017-03-19T11:16:45Z</time>
      </trkpt>
      <trkpt lat="45.98195" lon="4.673">
        <ele>249</ele>
        <time>2017-03-19T11:16:46Z</time>
      </trkpt>
      <trkpt lat="45.98195" lon="4.67309">
        <ele>249</ele>
        <time>2017-03-19T11:16:47Z</time>
      </trkpt>
      <trkpt lat="45.98195" lon="4.67318">
        <ele>249</ele>
        <time>2017-03-19T11:16:48Z</time>
      </trkpt>
      <trkpt lat="45.98195" lon="4.67328">
        <ele>249</ele>
        <time>2017-03-19T11:16:49Z</time>
      </trkpt>
      <trkpt lat="45.98196" lon="4.67337">
        <ele>248</ele>
        <time>2017-03-19T11:16:50Z</time>
      </trkpt>
      <trkpt lat="45.98196" lon="4.67347">
        <ele>248</ele>
        <time>2017-03-19T11:16:51Z</time>
      </trkpt>
      <trkpt lat="45.98196" lon="4.67356">
        <ele>248</ele>
        <time>2017-03-19T11:16:52Z</time>
      </trkpt>
      <trkpt lat="45.98196" lon="4.67366">
        <ele>248</ele>
        <time>2017-03-19T11:16:53Z</time>
      </trkpt>
      <trkpt lat="45.98196" lon="4.67374">
        <ele>248</ele>
        <time>2017-03-19T11:16:54Z</time>
      </trkpt>
      <trkpt lat="45.98197" lon="4.67383">
        <ele>248</ele>
        <time>2017-03-19T11:16:55Z</time>
      </trkpt>
      <trkpt lat="45.98197" lon="4.67391">
        <ele>248</ele>
        <time>2017-03-19T11:16:56Z</time>
      </trkpt>
      <trkpt lat="45.98197" lon="4.674">
        <ele>248</ele>
        <time>2017-03-19T11:16:57Z</time>
      </trkpt>
      <trkpt lat="45.98197" lon="4.67408">
        <ele>248</ele>
        <time>2017-03-19T11:16:58Z</time>
      </trkpt>
      <trkpt lat="45.98198" lon="4.67416">
        <ele>248</ele>
        <time>2017-03-19T11:16:59Z</time>
      </trkpt>
      <trkpt lat="45.98198" lon="4.67424">
        <ele>247</ele>
        <time>2017-03-19T11:17:00Z</time>
      </trkpt>
      <trkpt lat="45.98198" lon="4.67432">
        <ele>247</ele>
        <time>2017-03-19T11:17:01Z</time>
      </trkpt>
      <trkpt lat="45.98199" lon="4.6744">
        <ele>247</ele>
        <time>2017-03-19T11:17:02Z</time>
      </trkpt>
      <trkpt lat="45.98199" lon="4.67448">
        <ele>247</ele>
        <time>2017-03-19T11:17:03Z</time>
      </trkpt>
      <trkpt lat="45.98199" lon="4.67456">
        <ele>247</ele>
        <time>2017-03-19T11:17:04Z</time>
      </trkpt>
      <trkpt lat="45.982" lon="4.67465">
        <ele>247</ele>
        <time>2017-03-19T11:17:05Z</time>
      </trkpt>
      <trkpt lat="45.982" lon="4.67473">
        <ele>247</ele>
        <time>2017-03-19T11:17:06Z</time>
      </trkpt>
      <trkpt lat="45.98201" lon="4.67482">
        <ele>247</ele>
        <time>2017-03-19T11:17:07Z</time>
      </trkpt>
      <trkpt lat="45.98201" lon="4.67491">
        <ele>247</ele>
        <time>2017-03-19T11:17:08Z</time>
      </trkpt>
      <trkpt lat="45.98201" lon="4.675">
        <ele>247</ele>
        <time>2017-03-19T11:17:09Z</time>
      </trkpt>
      <trkpt lat="45.98202" lon="4.67509">
        <ele>247</ele>
        <time>2017-03-19T11:17:10Z</time>
      </trkpt>
      <trkpt lat="45.98202" lon="4.67518">
        <ele>247</ele>
        <time>2017-03-19T11:17:11Z</time>
      </trkpt>
      <trkpt lat="45.98203" lon="4.67527">
        <ele>247</ele>
        <time>2017-03-19T11:17:12Z</time>
      </trkpt>
      <trkpt lat="45.98204" lon="4.67536">
        <ele>247</ele>
        <time>2017-03-19T11:17:13Z</time>
      </trkpt>
      <trkpt lat="45.98205" lon="4.67545">
        <ele>247</ele>
        <time>2017-03-19T11:17:14Z</time>
      </trkpt>
      <trkpt lat="45.98206" lon="4.67554">
        <ele>247</ele>
        <time>2017-03-19T11:17:15Z</time>
      </trkpt>
      <trkpt lat="45.98207" lon="4.67563">
        <ele>247</ele>
        <time>2017-03-19T11:17:16Z</time>
      </trkpt>
      <trkpt lat="45.98208" lon="4.67572">
        <ele>247</ele>
        <time>2017-03-19T11:17:17Z</time>
      </trkpt>
      <trkpt lat="45.98209" lon="4.67581">
        <ele>247</ele>
        <time>2017-03-19T11:17:18Z</time>
      </trkpt>
      <trkpt lat="45.9821" lon="4.67591">
        <ele>246</ele>
        <time>2017-03-19T11:17:19Z</time>
      </trkpt>
      <trkpt lat="45.98212" lon="4.676">
        <ele>246</ele>
        <time>2017-03-19T11:17:20Z</time>
      </trkpt>
      <trkpt lat="45.98213" lon="4.6761">
        <ele>246</ele>
        <time>2017-03-19T11:17:21Z</time>
      </trkpt>
      <trkpt lat="45.98214" lon="4.6762">
        <ele>246</ele>
        <time>2017-03-19T11:17:22Z</time>
      </trkpt>
      <trkpt lat="45.98216" lon="4.6763">
        <ele>246</ele>
        <time>2017-03-19T11:17:23Z</time>
      </trkpt>
      <trkpt lat="45.98218" lon="4.6764">
        <ele>246</ele>
        <time>2017-03-19T11:17:24Z</time>
      </trkpt>
      <trkpt lat="45.9822" lon="4.67649">
        <ele>246</ele>
        <time>2017-03-19T11:17:25Z</time>
      </trkpt>
      <trkpt lat="45.98221" lon="4.6766">
        <ele>246</ele>
        <time>2017-03-19T11:17:26Z</time>
      </trkpt>
      <trkpt lat="45.98223" lon="4.6767">
        <ele>244</ele>
        <time>2017-03-19T11:17:27Z</time>
      </trkpt>
      <trkpt lat="45.98225" lon="4.67681">
        <ele>244</ele>
        <time>2017-03-19T11:17:28Z</time>
      </trkpt>
      <trkpt lat="45.98226" lon="4.67692">
        <ele>244</ele>
        <time>2017-03-19T11:17:29Z</time>
      </trkpt>
      <trkpt lat="45.98227" lon="4.67703">
        <ele>243</ele>
        <time>2017-03-19T11:17:30Z</time>
      </trkpt>
      <trkpt lat="45.98228" lon="4.67715">
        <ele>243</ele>
        <time>2017-03-19T11:17:31Z</time>
      </trkpt>
      <trkpt lat="45.98228" lon="4.67727">
        <ele>243</ele>
        <time>2017-03-19T11:17:32Z</time>
      </trkpt>
      <trkpt lat="45.98228" lon="4.67739">
        <ele>242</ele>
        <time>2017-03-19T11:17:33Z</time>
      </trkpt>
      <trkpt lat="45.98227" lon="4.67751">
        <ele>240</ele>
        <time>2017-03-19T11:17:34Z</time>
      </trkpt>
      <trkpt lat="45.98225" lon="4.67764">
        <ele>239</ele>
        <time>2017-03-19T11:17:35Z</time>
      </trkpt>
      <trkpt lat="45.98223" lon="4.67777">
        <ele>239</ele>
        <time>2017-03-19T11:17:36Z</time>
      </trkpt>
      <trkpt lat="45.9822" lon="4.67789">
        <ele>238</ele>
        <time>2017-03-19T11:17:37Z</time>
      </trkpt>
      <trkpt lat="45.98218" lon="4.67801">
        <ele>238</ele>
        <time>2017-03-19T11:17:38Z</time>
      </trkpt>
      <trkpt lat="45.98215" lon="4.67814">
        <ele>237</ele>
        <time>2017-03-19T11:17:39Z</time>
      </trkpt>
      <trkpt lat="45.98212" lon="4.67827">
        <ele>237</ele>
        <time>2017-03-19T11:17:40Z</time>
      </trkpt>
      <trkpt lat="45.98211" lon="4.6784">
        <ele>233</ele>
        <time>2017-03-19T11:17:41Z</time>
      </trkpt>
      <trkpt lat="45.98209" lon="4.67853">
        <ele>233</ele>
        <time>2017-03-19T11:17:42Z</time>
      </trkpt>
      <trkpt lat="45.98208" lon="4.67866">
        <ele>233</ele>
        <time>2017-03-19T11:17:43Z</time>
      </trkpt>
      <trkpt lat="45.98208" lon="4.67879">
        <ele>232</ele>
        <time>2017-03-19T11:17:44Z</time>
      </trkpt>
      <trkpt lat="45.98209" lon="4.67891">
        <ele>232</ele>
        <time>2017-03-19T11:17:45Z</time>
      </trkpt>
      <trkpt lat="45.9821" lon="4.67901">
        <ele>232</ele>
        <time>2017-03-19T11:17:46Z</time>
      </trkpt>
      <trkpt lat="45.9821" lon="4.67909">
        <ele>232</ele>
        <time>2017-03-19T11:17:47Z</time>
      </trkpt>
      <trkpt lat="45.98212" lon="4.67922">
        <ele>229</ele>
        <time>2017-03-19T11:17:50Z</time>
      </trkpt>
      <trkpt lat="45.98212" lon="4.67924">
        <ele>229</ele>
        <time>2017-03-19T11:17:51Z</time>
      </trkpt>
      <trkpt lat="45.98215" lon="4.67936">
        <ele>229</ele>
        <time>2017-03-19T11:17:54Z</time>
      </trkpt>
      <trkpt lat="45.98215" lon="4.67942">
        <ele>229</ele>
        <time>2017-03-19T11:17:55Z</time>
      </trkpt>
      <trkpt lat="45.98216" lon="4.67949">
        <ele>229</ele>
        <time>2017-03-19T11:17:56Z</time>
      </trkpt>
      <trkpt lat="45.98216" lon="4.67957">
        <ele>229</ele>
        <time>2017-03-19T11:17:57Z</time>
      </trkpt>
      <trkpt lat="45.98216" lon="4.67966">
        <ele>229</ele>
        <time>2017-03-19T11:17:58Z</time>
      </trkpt>
      <trkpt lat="45.98216" lon="4.67976">
        <ele>229</ele>
        <time>2017-03-19T11:17:59Z</time>
      </trkpt>
      <trkpt lat="45.98216" lon="4.67986">
        <ele>229</ele>
        <time>2017-03-19T11:18:00Z</time>
      </trkpt>
      <trkpt lat="45.98216" lon="4.67996">
        <ele>229</ele>
        <time>2017-03-19T11:18:01Z</time>
      </trkpt>
      <trkpt lat="45.98216" lon="4.68006">
        <ele>228</ele>
        <time>2017-03-19T11:18:02Z</time>
      </trkpt>
      <trkpt lat="45.98217" lon="4.68016">
        <ele>228</ele>
        <time>2017-03-19T11:18:03Z</time>
      </trkpt>
      <trkpt lat="45.98217" lon="4.68026">
        <ele>228</ele>
        <time>2017-03-19T11:18:04Z</time>
      </trkpt>
      <trkpt lat="45.98217" lon="4.68036">
        <ele>228</ele>
        <time>2017-03-19T11:18:05Z</time>
      </trkpt>
      <trkpt lat="45.98217" lon="4.68046">
        <ele>228</ele>
        <time>2017-03-19T11:18:06Z</time>
      </trkpt>
      <trkpt lat="45.98217" lon="4.68056">
        <ele>228</ele>
        <time>2017-03-19T11:18:07Z</time>
      </trkpt>
      <trkpt lat="45.98218" lon="4.68066">
        <ele>228</ele>
        <time>2017-03-19T11:18:08Z</time>
      </trkpt>
      <trkpt lat="45.98218" lon="4.68076">
        <ele>228</ele>
        <time>2017-03-19T11:18:09Z</time>
      </trkpt>
      <trkpt lat="45.98218" lon="4.68086">
        <ele>228</ele>
        <time>2017-03-19T11:18:10Z</time>
      </trkpt>
      <trkpt lat="45.98219" lon="4.68095">
        <ele>228</ele>
        <time>2017-03-19T11:18:11Z</time>
      </trkpt>
      <trkpt lat="45.98219" lon="4.68105">
        <ele>228</ele>
        <time>2017-03-19T11:18:12Z</time>
      </trkpt>
      <trkpt lat="45.9822" lon="4.68114">
        <ele>228</ele>
        <time>2017-03-19T11:18:13Z</time>
      </trkpt>
      <trkpt lat="45.9822" lon="4.68123">
        <ele>228</ele>
        <time>2017-03-19T11:18:14Z</time>
      </trkpt>
      <trkpt lat="45.9822" lon="4.68132">
        <ele>228</ele>
        <time>2017-03-19T11:18:15Z</time>
      </trkpt>
      <trkpt lat="45.9822" lon="4.68141">
        <ele>228</ele>
        <time>2017-03-19T11:18:16Z</time>
      </trkpt>
      <trkpt lat="45.98221" lon="4.68151">
        <ele>228</ele>
        <time>2017-03-19T11:18:17Z</time>
      </trkpt>
      <trkpt lat="45.98222" lon="4.68159">
        <ele>228</ele>
        <time>2017-03-19T11:18:18Z</time>
      </trkpt>
      <trkpt lat="45.98222" lon="4.68168">
        <ele>227</ele>
        <time>2017-03-19T11:18:19Z</time>
      </trkpt>
      <trkpt lat="45.98222" lon="4.68177">
        <ele>227</ele>
        <time>2017-03-19T11:18:20Z</time>
      </trkpt>
      <trkpt lat="45.98222" lon="4.68186">
        <ele>227</ele>
        <time>2017-03-19T11:18:21Z</time>
      </trkpt>
      <trkpt lat="45.98221" lon="4.68195">
        <ele>226</ele>
        <time>2017-03-19T11:18:22Z</time>
      </trkpt>
      <trkpt lat="45.98222" lon="4.68204">
        <ele>226</ele>
        <time>2017-03-19T11:18:23Z</time>
      </trkpt>
      <trkpt lat="45.98222" lon="4.68213">
        <ele>226</ele>
        <time>2017-03-19T11:18:24Z</time>
      </trkpt>
      <trkpt lat="45.98223" lon="4.68223">
        <ele>226</ele>
        <time>2017-03-19T11:18:25Z</time>
      </trkpt>
      <trkpt lat="45.98224" lon="4.68232">
        <ele>226</ele>
        <time>2017-03-19T11:18:26Z</time>
      </trkpt>
      <trkpt lat="45.98225" lon="4.68242">
        <ele>225</ele>
        <time>2017-03-19T11:18:27Z</time>
      </trkpt>
      <trkpt lat="45.98226" lon="4.68252">
        <ele>223</ele>
        <time>2017-03-19T11:18:28Z</time>
      </trkpt>
      <trkpt lat="45.98228" lon="4.68262">
        <ele>223</ele>
        <time>2017-03-19T11:18:29Z</time>
      </trkpt>
      <trkpt lat="45.98229" lon="4.68273">
        <ele>222</ele>
        <time>2017-03-19T11:18:30Z</time>
      </trkpt>
      <trkpt lat="45.9823" lon="4.68284">
        <ele>222</ele>
        <time>2017-03-19T11:18:31Z</time>
      </trkpt>
      <trkpt lat="45.98232" lon="4.68295">
        <ele>222</ele>
        <time>2017-03-19T11:18:32Z</time>
      </trkpt>
      <trkpt lat="45.98233" lon="4.68307">
        <ele>221</ele>
        <time>2017-03-19T11:18:33Z</time>
      </trkpt>
      <trkpt lat="45.98234" lon="4.68318">
        <ele>221</ele>
        <time>2017-03-19T11:18:34Z</time>
      </trkpt>
      <trkpt lat="45.98234" lon="4.68331">
        <ele>221</ele>
        <time>2017-03-19T11:18:35Z</time>
      </trkpt>
      <trkpt lat="45.98235" lon="4.68343">
        <ele>219</ele>
        <time>2017-03-19T11:18:36Z</time>
      </trkpt>
      <trkpt lat="45.98234" lon="4.68356">
        <ele>218</ele>
        <time>2017-03-19T11:18:37Z</time>
      </trkpt>
      <trkpt lat="45.98234" lon="4.6837">
        <ele>218</ele>
        <time>2017-03-19T11:18:38Z</time>
      </trkpt>
      <trkpt lat="45.98233" lon="4.68383">
        <ele>217</ele>
        <time>2017-03-19T11:18:39Z</time>
      </trkpt>
      <trkpt lat="45.98232" lon="4.68397">
        <ele>217</ele>
        <time>2017-03-19T11:18:40Z</time>
      </trkpt>
      <trkpt lat="45.98232" lon="4.68411">
        <ele>217</ele>
        <time>2017-03-19T11:18:41Z</time>
      </trkpt>
      <trkpt lat="45.98231" lon="4.68426">
        <ele>215</ele>
        <time>2017-03-19T11:18:42Z</time>
      </trkpt>
      <trkpt lat="45.9823" lon="4.6844">
        <ele>214</ele>
        <time>2017-03-19T11:18:43Z</time>
      </trkpt>
      <trkpt lat="45.98229" lon="4.68455">
        <ele>213</ele>
        <time>2017-03-19T11:18:44Z</time>
      </trkpt>
      <trkpt lat="45.98228" lon="4.6847">
        <ele>213</ele>
        <time>2017-03-19T11:18:45Z</time>
      </trkpt>
      <trkpt lat="45.98227" lon="4.68486">
        <ele>213</ele>
        <time>2017-03-19T11:18:46Z</time>
      </trkpt>
      <trkpt lat="45.98227" lon="4.68501">
        <ele>211</ele>
        <time>2017-03-19T11:18:47Z</time>
      </trkpt>
      <trkpt lat="45.98226" lon="4.68517">
        <ele>210</ele>
        <time>2017-03-19T11:18:48Z</time>
      </trkpt>
      <trkpt lat="45.98226" lon="4.68534">
        <ele>210</ele>
        <time>2017-03-19T11:18:49Z</time>
      </trkpt>
      <trkpt lat="45.98226" lon="4.6855">
        <ele>210</ele>
        <time>2017-03-19T11:18:50Z</time>
      </trkpt>
      <trkpt lat="45.98227" lon="4.68566">
        <ele>210</ele>
        <time>2017-03-19T11:18:51Z</time>
      </trkpt>
      <trkpt lat="45.98229" lon="4.68582">
        <ele>210</ele>
        <time>2017-03-19T11:18:52Z</time>
      </trkpt>
      <trkpt lat="45.98231" lon="4.68598">
        <ele>209</ele>
        <time>2017-03-19T11:18:53Z</time>
      </trkpt>
      <trkpt lat="45.98231" lon="4.68615">
        <ele>208</ele>
        <time>2017-03-19T11:18:54Z</time>
      </trkpt>
      <trkpt lat="45.98231" lon="4.6863">
        <ele>208</ele>
        <time>2017-03-19T11:18:55Z</time>
      </trkpt>
      <trkpt lat="45.98229" lon="4.68645">
        <ele>208</ele>
        <time>2017-03-19T11:18:56Z</time>
      </trkpt>
      <trkpt lat="45.98227" lon="4.6866">
        <ele>208</ele>
        <time>2017-03-19T11:18:57Z</time>
      </trkpt>
      <trkpt lat="45.98223" lon="4.68675">
        <ele>207</ele>
        <time>2017-03-19T11:18:58Z</time>
      </trkpt>
      <trkpt lat="45.9822" lon="4.6869">
        <ele>207</ele>
        <time>2017-03-19T11:18:59Z</time>
      </trkpt>
      <trkpt lat="45.98217" lon="4.68705">
        <ele>206</ele>
        <time>2017-03-19T11:19:00Z</time>
      </trkpt>
      <trkpt lat="45.98215" lon="4.68721">
        <ele>206</ele>
        <time>2017-03-19T11:19:01Z</time>
      </trkpt>
      <trkpt lat="45.98212" lon="4.68736">
        <ele>206</ele>
        <time>2017-03-19T11:19:02Z</time>
      </trkpt>
      <trkpt lat="45.9821" lon="4.68751">
        <ele>205</ele>
        <time>2017-03-19T11:19:03Z</time>
      </trkpt>
      <trkpt lat="45.98208" lon="4.68766">
        <ele>204</ele>
        <time>2017-03-19T11:19:04Z</time>
      </trkpt>
      <trkpt lat="45.98206" lon="4.6878">
        <ele>204</ele>
        <time>2017-03-19T11:19:05Z</time>
      </trkpt>
      <trkpt lat="45.98205" lon="4.68794">
        <ele>204</ele>
        <time>2017-03-19T11:19:06Z</time>
      </trkpt>
      <trkpt lat="45.98204" lon="4.68807">
        <ele>204</ele>
        <time>2017-03-19T11:19:07Z</time>
      </trkpt>
      <trkpt lat="45.98202" lon="4.6882">
        <ele>203</ele>
        <time>2017-03-19T11:19:08Z</time>
      </trkpt>
      <trkpt lat="45.98201" lon="4.68833">
        <ele>203</ele>
        <time>2017-03-19T11:19:09Z</time>
      </trkpt>
      <trkpt lat="45.982" lon="4.68845">
        <ele>203</ele>
        <time>2017-03-19T11:19:10Z</time>
      </trkpt>
      <trkpt lat="45.98199" lon="4.68857">
        <ele>203</ele>
        <time>2017-03-19T11:19:11Z</time>
      </trkpt>
      <trkpt lat="45.98197" lon="4.68868">
        <ele>202</ele>
        <time>2017-03-19T11:19:12Z</time>
      </trkpt>
      <trkpt lat="45.98196" lon="4.68879">
        <ele>202</ele>
        <time>2017-03-19T11:19:13Z</time>
      </trkpt>
      <trkpt lat="45.98195" lon="4.6889">
        <ele>202</ele>
        <time>2017-03-19T11:19:14Z</time>
      </trkpt>
      <trkpt lat="45.98194" lon="4.68901">
        <ele>202</ele>
        <time>2017-03-19T11:19:15Z</time>
      </trkpt>
      <trkpt lat="45.98193" lon="4.68911">
        <ele>202</ele>
        <time>2017-03-19T11:19:16Z</time>
      </trkpt>
      <trkpt lat="45.98192" lon="4.68921">
        <ele>202</ele>
        <time>2017-03-19T11:19:17Z</time>
      </trkpt>
      <trkpt lat="45.98191" lon="4.68931">
        <ele>202</ele>
        <time>2017-03-19T11:19:18Z</time>
      </trkpt>
      <trkpt lat="45.9819" lon="4.68941">
        <ele>202</ele>
        <time>2017-03-19T11:19:19Z</time>
      </trkpt>
      <trkpt lat="45.98189" lon="4.6895">
        <ele>202</ele>
        <time>2017-03-19T11:19:20Z</time>
      </trkpt>
      <trkpt lat="45.98188" lon="4.68958">
        <ele>202</ele>
        <time>2017-03-19T11:19:21Z</time>
      </trkpt>
      <trkpt lat="45.98187" lon="4.68967">
        <ele>202</ele>
        <time>2017-03-19T11:19:22Z</time>
      </trkpt>
      <trkpt lat="45.98187" lon="4.68977">
        <ele>202</ele>
        <time>2017-03-19T11:19:23Z</time>
      </trkpt>
      <trkpt lat="45.98186" lon="4.68986">
        <ele>201</ele>
        <time>2017-03-19T11:19:24Z</time>
      </trkpt>
      <trkpt lat="45.98185" lon="4.68996">
        <ele>201</ele>
        <time>2017-03-19T11:19:25Z</time>
      </trkpt>
      <trkpt lat="45.98185" lon="4.69006">
        <ele>201</ele>
        <time>2017-03-19T11:19:26Z</time>
      </trkpt>
      <trkpt lat="45.98185" lon="4.69016">
        <ele>201</ele>
        <time>2017-03-19T11:19:27Z</time>
      </trkpt>
      <trkpt lat="45.98186" lon="4.69026">
        <ele>201</ele>
        <time>2017-03-19T11:19:28Z</time>
      </trkpt>
      <trkpt lat="45.98188" lon="4.69035">
        <ele>201</ele>
        <time>2017-03-19T11:19:29Z</time>
      </trkpt>
      <trkpt lat="45.98191" lon="4.69044">
        <ele>201</ele>
        <time>2017-03-19T11:19:30Z</time>
      </trkpt>
      <trkpt lat="45.98193" lon="4.69053">
        <ele>201</ele>
        <time>2017-03-19T11:19:31Z</time>
      </trkpt>
      <trkpt lat="45.98196" lon="4.69062">
        <ele>201</ele>
        <time>2017-03-19T11:19:32Z</time>
      </trkpt>
      <trkpt lat="45.982" lon="4.6907">
        <ele>201</ele>
        <time>2017-03-19T11:19:33Z</time>
      </trkpt>
      <trkpt lat="45.98203" lon="4.69078">
        <ele>201</ele>
        <time>2017-03-19T11:19:34Z</time>
      </trkpt>
      <trkpt lat="45.98206" lon="4.69086">
        <ele>200</ele>
        <time>2017-03-19T11:19:35Z</time>
      </trkpt>
      <trkpt lat="45.98209" lon="4.69094">
        <ele>200</ele>
        <time>2017-03-19T11:19:36Z</time>
      </trkpt>
      <trkpt lat="45.98212" lon="4.69102">
        <ele>200</ele>
        <time>2017-03-19T11:19:37Z</time>
      </trkpt>
      <trkpt lat="45.98215" lon="4.6911">
        <ele>200</ele>
        <time>2017-03-19T11:19:38Z</time>
      </trkpt>
      <trkpt lat="45.98218" lon="4.69119">
        <ele>199</ele>
        <time>2017-03-19T11:19:39Z</time>
      </trkpt>
      <trkpt lat="45.98222" lon="4.69128">
        <ele>199</ele>
        <time>2017-03-19T11:19:40Z</time>
      </trkpt>
      <trkpt lat="45.98225" lon="4.69136">
        <ele>199</ele>
        <time>2017-03-19T11:19:41Z</time>
      </trkpt>
      <trkpt lat="45.98228" lon="4.69145">
        <ele>199</ele>
        <time>2017-03-19T11:19:42Z</time>
      </trkpt>
      <trkpt lat="45.9823" lon="4.69154">
        <ele>199</ele>
        <time>2017-03-19T11:19:43Z</time>
      </trkpt>
      <trkpt lat="45.98231" lon="4.69163">
        <ele>199</ele>
        <time>2017-03-19T11:19:44Z</time>
      </trkpt>
      <trkpt lat="45.98233" lon="4.69173">
        <ele>197</ele>
        <time>2017-03-19T11:19:45Z</time>
      </trkpt>
      <trkpt lat="45.98234" lon="4.69183">
        <ele>197</ele>
        <time>2017-03-19T11:19:46Z</time>
      </trkpt>
      <trkpt lat="45.98233" lon="4.69194">
        <ele>197</ele>
        <time>2017-03-19T11:19:47Z</time>
      </trkpt>
      <trkpt lat="45.98233" lon="4.69204">
        <ele>196</ele>
        <time>2017-03-19T11:19:48Z</time>
      </trkpt>
      <trkpt lat="45.98231" lon="4.69216">
        <ele>196</ele>
        <time>2017-03-19T11:19:49Z</time>
      </trkpt>
      <trkpt lat="45.98228" lon="4.69227">
        <ele>196</ele>
        <time>2017-03-19T11:19:50Z</time>
      </trkpt>
      <trkpt lat="45.98226" lon="4.69238">
        <ele>196</ele>
        <time>2017-03-19T11:19:51Z</time>
      </trkpt>
      <trkpt lat="45.98223" lon="4.69249">
        <ele>195</ele>
        <time>2017-03-19T11:19:52Z</time>
      </trkpt>
      <trkpt lat="45.98221" lon="4.6926">
        <ele>194</ele>
        <time>2017-03-19T11:19:53Z</time>
      </trkpt>
      <trkpt lat="45.98218" lon="4.69272">
        <ele>194</ele>
        <time>2017-03-19T11:19:54Z</time>
      </trkpt>
      <trkpt lat="45.98216" lon="4.69283">
        <ele>194</ele>
        <time>2017-03-19T11:19:55Z</time>
      </trkpt>
      <trkpt lat="45.98213" lon="4.69294">
        <ele>194</ele>
        <time>2017-03-19T11:19:56Z</time>
      </trkpt>
      <trkpt lat="45.98211" lon="4.69303">
        <ele>194</ele>
        <time>2017-03-19T11:19:57Z</time>
      </trkpt>
      <trkpt lat="45.98209" lon="4.69312">
        <ele>194</ele>
        <time>2017-03-19T11:19:58Z</time>
      </trkpt>
      <trkpt lat="45.98206" lon="4.6932">
        <ele>194</ele>
        <time>2017-03-19T11:19:59Z</time>
      </trkpt>
      <trkpt lat="45.98202" lon="4.69328">
        <ele>194</ele>
        <time>2017-03-19T11:20:00Z</time>
      </trkpt>
      <trkpt lat="45.982" lon="4.69337">
        <ele>193</ele>
        <time>2017-03-19T11:20:01Z</time>
      </trkpt>
      <trkpt lat="45.98198" lon="4.69347">
        <ele>193</ele>
        <time>2017-03-19T11:20:02Z</time>
      </trkpt>
      <trkpt lat="45.98196" lon="4.69356">
        <ele>193</ele>
        <time>2017-03-19T11:20:03Z</time>
      </trkpt>
      <trkpt lat="45.98194" lon="4.69366">
        <ele>193</ele>
        <time>2017-03-19T11:20:04Z</time>
      </trkpt>
      <trkpt lat="45.98192" lon="4.69375">
        <ele>194</ele>
        <time>2017-03-19T11:20:05Z</time>
      </trkpt>
      <trkpt lat="45.98189" lon="4.69384">
        <ele>194</ele>
        <time>2017-03-19T11:20:06Z</time>
      </trkpt>
      <trkpt lat="45.98187" lon="4.69393">
        <ele>194</ele>
        <time>2017-03-19T11:20:07Z</time>
      </trkpt>
      <trkpt lat="45.98184" lon="4.69402">
        <ele>194</ele>
        <time>2017-03-19T11:20:08Z</time>
      </trkpt>
      <trkpt lat="45.98182" lon="4.69411">
        <ele>194</ele>
        <time>2017-03-19T11:20:09Z</time>
      </trkpt>
      <trkpt lat="45.9818" lon="4.69419">
        <ele>194</ele>
        <time>2017-03-19T11:20:10Z</time>
      </trkpt>
      <trkpt lat="45.98178" lon="4.69428">
        <ele>194</ele>
        <time>2017-03-19T11:20:11Z</time>
      </trkpt>
      <trkpt lat="45.98176" lon="4.69436">
        <ele>194</ele>
        <time>2017-03-19T11:20:12Z</time>
      </trkpt>
      <trkpt lat="45.98174" lon="4.69444">
        <ele>194</ele>
        <time>2017-03-19T11:20:13Z</time>
      </trkpt>
      <trkpt lat="45.98172" lon="4.69452">
        <ele>194</ele>
        <time>2017-03-19T11:20:14Z</time>
      </trkpt>
      <trkpt lat="45.9817" lon="4.69459">
        <ele>194</ele>
        <time>2017-03-19T11:20:15Z</time>
      </trkpt>
      <trkpt lat="45.98167" lon="4.69466">
        <ele>194</ele>
        <time>2017-03-19T11:20:16Z</time>
      </trkpt>
      <trkpt lat="45.98164" lon="4.69471">
        <ele>195</ele>
        <time>2017-03-19T11:20:17Z</time>
      </trkpt>
      <trkpt lat="45.9816" lon="4.69476">
        <ele>195</ele>
        <time>2017-03-19T11:20:18Z</time>
      </trkpt>
      <trkpt lat="45.98157" lon="4.69481">
        <ele>195</ele>
        <time>2017-03-19T11:20:19Z</time>
      </trkpt>
      <trkpt lat="45.98155" lon="4.69488">
        <ele>195</ele>
        <time>2017-03-19T11:20:20Z</time>
      </trkpt>
      <trkpt lat="45.98153" lon="4.69495">
        <ele>195</ele>
        <time>2017-03-19T11:20:21Z</time>
      </trkpt>
      <trkpt lat="45.98152" lon="4.69503">
        <ele>196</ele>
        <time>2017-03-19T11:20:22Z</time>
      </trkpt>
      <trkpt lat="45.98151" lon="4.6951">
        <ele>196</ele>
        <time>2017-03-19T11:20:23Z</time>
      </trkpt>
      <trkpt lat="45.98149" lon="4.69517">
        <ele>196</ele>
        <time>2017-03-19T11:20:24Z</time>
      </trkpt>
      <trkpt lat="45.98147" lon="4.69524">
        <ele>196</ele>
        <time>2017-03-19T11:20:25Z</time>
      </trkpt>
      <trkpt lat="45.98145" lon="4.69531">
        <ele>196</ele>
        <time>2017-03-19T11:20:26Z</time>
      </trkpt>
      <trkpt lat="45.98143" lon="4.69538">
        <ele>197</ele>
        <time>2017-03-19T11:20:27Z</time>
      </trkpt>
      <trkpt lat="45.98141" lon="4.69544">
        <ele>197</ele>
        <time>2017-03-19T11:20:28Z</time>
      </trkpt>
      <trkpt lat="45.98139" lon="4.69551">
        <ele>197</ele>
        <time>2017-03-19T11:20:29Z</time>
      </trkpt>
      <trkpt lat="45.98137" lon="4.69558">
        <ele>197</ele>
        <time>2017-03-19T11:20:30Z</time>
      </trkpt>
      <trkpt lat="45.98135" lon="4.69565">
        <ele>197</ele>
        <time>2017-03-19T11:20:31Z</time>
      </trkpt>
      <trkpt lat="45.98133" lon="4.69572">
        <ele>197</ele>
        <time>2017-03-19T11:20:32Z</time>
      </trkpt>
      <trkpt lat="45.98131" lon="4.69579">
        <ele>197</ele>
        <time>2017-03-19T11:20:33Z</time>
      </trkpt>
      <trkpt lat="45.98129" lon="4.69586">
        <ele>198</ele>
        <time>2017-03-19T11:20:34Z</time>
      </trkpt>
      <trkpt lat="45.98127" lon="4.69593">
        <ele>198</ele>
        <time>2017-03-19T11:20:35Z</time>
      </trkpt>
      <trkpt lat="45.98125" lon="4.696">
        <ele>198</ele>
        <time>2017-03-19T11:20:36Z</time>
      </trkpt>
      <trkpt lat="45.98124" lon="4.69607">
        <ele>198</ele>
        <time>2017-03-19T11:20:37Z</time>
      </trkpt>
      <trkpt lat="45.98122" lon="4.69613">
        <ele>198</ele>
        <time>2017-03-19T11:20:38Z</time>
      </trkpt>
      <trkpt lat="45.98118" lon="4.69624">
        <ele>199</ele>
        <time>2017-03-19T11:20:40Z</time>
      </trkpt>
      <trkpt lat="45.98117" lon="4.6963">
        <ele>199</ele>
        <time>2017-03-19T11:20:41Z</time>
      </trkpt>
      <trkpt lat="45.98113" lon="4.69639">
        <ele>199</ele>
        <time>2017-03-19T11:20:43Z</time>
      </trkpt>
      <trkpt lat="45.98112" lon="4.69644">
        <ele>199</ele>
        <time>2017-03-19T11:20:44Z</time>
      </trkpt>
      <trkpt lat="45.98109" lon="4.69652">
        <ele>199</ele>
        <time>2017-03-19T11:20:46Z</time>
      </trkpt>
      <trkpt lat="45.98108" lon="4.69656">
        <ele>199</ele>
        <time>2017-03-19T11:20:47Z</time>
      </trkpt>
      <trkpt lat="45.98105" lon="4.69664">
        <ele>199</ele>
        <time>2017-03-19T11:20:49Z</time>
      </trkpt>
      <trkpt lat="45.98103" lon="4.69668">
        <ele>200</ele>
        <time>2017-03-19T11:20:50Z</time>
      </trkpt>
      <trkpt lat="45.98099" lon="4.69675">
        <ele>200</ele>
        <time>2017-03-19T11:20:52Z</time>
      </trkpt>
      <trkpt lat="45.98097" lon="4.69679">
        <ele>200</ele>
        <time>2017-03-19T11:20:53Z</time>
      </trkpt>
      <trkpt lat="45.98093" lon="4.69686">
        <ele>200</ele>
        <time>2017-03-19T11:20:55Z</time>
      </trkpt>
      <trkpt lat="45.98091" lon="4.6969">
        <ele>200</ele>
        <time>2017-03-19T11:20:56Z</time>
      </trkpt>
      <trkpt lat="45.98087" lon="4.69696">
        <ele>200</ele>
        <time>2017-03-19T11:20:58Z</time>
      </trkpt>
      <trkpt lat="45.98085" lon="4.697">
        <ele>201</ele>
        <time>2017-03-19T11:20:59Z</time>
      </trkpt>
      <trkpt lat="45.9808" lon="4.69707">
        <ele>202</ele>
        <time>2017-03-19T11:21:01Z</time>
      </trkpt>
      <trkpt lat="45.98078" lon="4.6971">
        <ele>202</ele>
        <time>2017-03-19T11:21:02Z</time>
      </trkpt>
      <trkpt lat="45.98074" lon="4.69717">
        <ele>202</ele>
        <time>2017-03-19T11:21:04Z</time>
      </trkpt>
      <trkpt lat="45.98072" lon="4.6972">
        <ele>202</ele>
        <time>2017-03-19T11:21:05Z</time>
      </trkpt>
      <trkpt lat="45.98068" lon="4.69727">
        <ele>202</ele>
        <time>2017-03-19T11:21:07Z</time>
      </trkpt>
      <trkpt lat="45.98066" lon="4.69731">
        <ele>202</ele>
        <time>2017-03-19T11:21:08Z</time>
      </trkpt>
      <trkpt lat="45.98061" lon="4.69738">
        <ele>202</ele>
        <time>2017-03-19T11:21:10Z</time>
      </trkpt>
      <trkpt lat="45.98059" lon="4.69741">
        <ele>203</ele>
        <time>2017-03-19T11:21:11Z</time>
      </trkpt>
      <trkpt lat="45.98053" lon="4.6975">
        <ele>203</ele>
        <time>2017-03-19T11:21:14Z</time>
      </trkpt>
      <trkpt lat="45.98051" lon="4.69753">
        <ele>205</ele>
        <time>2017-03-19T11:21:15Z</time>
      </trkpt>
      <trkpt lat="45.98048" lon="4.69761">
        <ele>205</ele>
        <time>2017-03-19T11:21:17Z</time>
      </trkpt>
      <trkpt lat="45.98046" lon="4.69764">
        <ele>205</ele>
        <time>2017-03-19T11:21:18Z</time>
      </trkpt>
      <trkpt lat="45.98041" lon="4.6977">
        <ele>206</ele>
        <time>2017-03-19T11:21:20Z</time>
      </trkpt>
      <trkpt lat="45.98038" lon="4.69773">
        <ele>206</ele>
        <time>2017-03-19T11:21:21Z</time>
      </trkpt>
      <trkpt lat="45.98034" lon="4.6978">
        <ele>206</ele>
        <time>2017-03-19T11:21:23Z</time>
      </trkpt>
      <trkpt lat="45.98032" lon="4.69783">
        <ele>206</ele>
        <time>2017-03-19T11:21:24Z</time>
      </trkpt>
      <trkpt lat="45.98027" lon="4.69787">
        <ele>206</ele>
        <time>2017-03-19T11:21:26Z</time>
      </trkpt>
      <trkpt lat="45.98024" lon="4.69789">
        <ele>206</ele>
        <time>2017-03-19T11:21:27Z</time>
      </trkpt>
      <trkpt lat="45.98018" lon="4.69792">
        <ele>206</ele>
        <time>2017-03-19T11:21:29Z</time>
      </trkpt>
      <trkpt lat="45.98015" lon="4.69794">
        <ele>206</ele>
        <time>2017-03-19T11:21:30Z</time>
      </trkpt>
      <trkpt lat="45.9801" lon="4.69799">
        <ele>206</ele>
        <time>2017-03-19T11:21:32Z</time>
      </trkpt>
      <trkpt lat="45.98007" lon="4.69803">
        <ele>207</ele>
        <time>2017-03-19T11:21:33Z</time>
      </trkpt>
      <trkpt lat="45.98003" lon="4.69811">
        <ele>207</ele>
        <time>2017-03-19T11:21:35Z</time>
      </trkpt>
      <trkpt lat="45.98001" lon="4.69813">
        <ele>207</ele>
        <time>2017-03-19T11:21:36Z</time>
      </trkpt>
      <trkpt lat="45.97994" lon="4.69817">
        <ele>207</ele>
        <time>2017-03-19T11:21:38Z</time>
      </trkpt>
      <trkpt lat="45.9799" lon="4.69819">
        <ele>207</ele>
        <time>2017-03-19T11:21:39Z</time>
      </trkpt>
      <trkpt lat="45.97983" lon="4.69824">
        <ele>207</ele>
        <time>2017-03-19T11:21:41Z</time>
      </trkpt>
      <trkpt lat="45.9798" lon="4.69827">
        <ele>207</ele>
        <time>2017-03-19T11:21:42Z</time>
      </trkpt>
      <trkpt lat="45.97975" lon="4.69834">
        <ele>208</ele>
        <time>2017-03-19T11:21:44Z</time>
      </trkpt>
      <trkpt lat="45.97973" lon="4.69838">
        <ele>208</ele>
        <time>2017-03-19T11:21:45Z</time>
      </trkpt>
      <trkpt lat="45.97968" lon="4.69845">
        <ele>209</ele>
        <time>2017-03-19T11:21:47Z</time>
      </trkpt>
      <trkpt lat="45.97966" lon="4.69849">
        <ele>209</ele>
        <time>2017-03-19T11:21:48Z</time>
      </trkpt>
      <trkpt lat="45.9796" lon="4.69856">
        <ele>209</ele>
        <time>2017-03-19T11:21:50Z</time>
      </trkpt>
      <trkpt lat="45.97957" lon="4.69858">
        <ele>209</ele>
        <time>2017-03-19T11:21:51Z</time>
      </trkpt>
      <trkpt lat="45.97951" lon="4.69865">
        <ele>209</ele>
        <time>2017-03-19T11:21:53Z</time>
      </trkpt>
      <trkpt lat="45.97949" lon="4.69869">
        <ele>209</ele>
        <time>2017-03-19T11:21:54Z</time>
      </trkpt>
      <trkpt lat="45.97944" lon="4.69876">
        <ele>209</ele>
        <time>2017-03-19T11:21:56Z</time>
      </trkpt>
      <trkpt lat="45.97941" lon="4.69879">
        <ele>209</ele>
        <time>2017-03-19T11:21:57Z</time>
      </trkpt>
      <trkpt lat="45.97936" lon="4.69886">
        <ele>209</ele>
        <time>2017-03-19T11:21:59Z</time>
      </trkpt>
      <trkpt lat="45.97934" lon="4.6989">
        <ele>210</ele>
        <time>2017-03-19T11:22:00Z</time>
      </trkpt>
      <trkpt lat="45.97928" lon="4.699">
        <ele>210</ele>
        <time>2017-03-19T11:22:03Z</time>
      </trkpt>
      <trkpt lat="45.97927" lon="4.69903">
        <ele>210</ele>
        <time>2017-03-19T11:22:04Z</time>
      </trkpt>
      <trkpt lat="45.9792" lon="4.69911">
        <ele>211</ele>
        <time>2017-03-19T11:22:07Z</time>
      </trkpt>
      <trkpt lat="45.97918" lon="4.69914">
        <ele>211</ele>
        <time>2017-03-19T11:22:08Z</time>
      </trkpt>
      <trkpt lat="45.97912" lon="4.69921">
        <ele>212</ele>
        <time>2017-03-19T11:22:11Z</time>
      </trkpt>
      <trkpt lat="45.9791" lon="4.69924">
        <ele>212</ele>
        <time>2017-03-19T11:22:12Z</time>
      </trkpt>
      <trkpt lat="45.97905" lon="4.69929">
        <ele>213</ele>
        <time>2017-03-19T11:22:14Z</time>
      </trkpt>
      <trkpt lat="45.97902" lon="4.69932">
        <ele>213</ele>
        <time>2017-03-19T11:22:15Z</time>
      </trkpt>
      <trkpt lat="45.97896" lon="4.6994">
        <ele>213</ele>
        <time>2017-03-19T11:22:18Z</time>
      </trkpt>
      <trkpt lat="45.97894" lon="4.69942">
        <ele>214</ele>
        <time>2017-03-19T11:22:19Z</time>
      </trkpt>
      <trkpt lat="45.97889" lon="4.6995">
        <ele>214</ele>
        <time>2017-03-19T11:22:22Z</time>
      </trkpt>
      <trkpt lat="45.97887" lon="4.69953">
        <ele>214</ele>
        <time>2017-03-19T11:22:23Z</time>
      </trkpt>
      <trkpt lat="45.97881" lon="4.69959">
        <ele>214</ele>
        <time>2017-03-19T11:22:26Z</time>
      </trkpt>
      <trkpt lat="45.97879" lon="4.69961">
        <ele>214</ele>
        <time>2017-03-19T11:22:27Z</time>
      </trkpt>
      <trkpt lat="45.97873" lon="4.69967">
        <ele>215</ele>
        <time>2017-03-19T11:22:30Z</time>
      </trkpt>
      <trkpt lat="45.9787" lon="4.69969">
        <ele>215</ele>
        <time>2017-03-19T11:22:31Z</time>
      </trkpt>
      <trkpt lat="45.97864" lon="4.69976">
        <ele>215</ele>
        <time>2017-03-19T11:22:34Z</time>
      </trkpt>
      <trkpt lat="45.97861" lon="4.69979">
        <ele>215</ele>
        <time>2017-03-19T11:22:35Z</time>
      </trkpt>
      <trkpt lat="45.97855" lon="4.69985">
        <ele>215</ele>
        <time>2017-03-19T11:22:38Z</time>
      </trkpt>
      <trkpt lat="45.97853" lon="4.69988">
        <ele>215</ele>
        <time>2017-03-19T11:22:39Z</time>
      </trkpt>
      <trkpt lat="45.97847" lon="4.69995">
        <ele>216</ele>
        <time>2017-03-19T11:22:42Z</time>
      </trkpt>
      <trkpt lat="45.97845" lon="4.69997">
        <ele>216</ele>
        <time>2017-03-19T11:22:43Z</time>
      </trkpt>
      <trkpt lat="45.97838" lon="4.70005">
        <ele>217</ele>
        <time>2017-03-19T11:22:46Z</time>
      </trkpt>
      <trkpt lat="45.97836" lon="4.70007">
        <ele>217</ele>
        <time>2017-03-19T11:22:47Z</time>
      </trkpt>
      <trkpt lat="45.97831" lon="4.70017">
        <ele>218</ele>
        <time>2017-03-19T11:22:50Z</time>
      </trkpt>
      <trkpt lat="45.97829" lon="4.70021">
        <ele>218</ele>
        <time>2017-03-19T11:22:51Z</time>
      </trkpt>
      <trkpt lat="45.97825" lon="4.70028">
        <ele>218</ele>
        <time>2017-03-19T11:22:53Z</time>
      </trkpt>
      <trkpt lat="45.97823" lon="4.70031">
        <ele>218</ele>
        <time>2017-03-19T11:22:54Z</time>
      </trkpt>
      <trkpt lat="45.97819" lon="4.7004">
        <ele>219</ele>
        <time>2017-03-19T11:22:56Z</time>
      </trkpt>
      <trkpt lat="45.97817" lon="4.70043">
        <ele>219</ele>
        <time>2017-03-19T11:22:57Z</time>
      </trkpt>
      <trkpt lat="45.97815" lon="4.70055">
        <ele>219</ele>
        <time>2017-03-19T11:23:00Z</time>
      </trkpt>
      <trkpt lat="45.97815" lon="4.70058">
        <ele>219</ele>
        <time>2017-03-19T11:23:01Z</time>
      </trkpt>
      <trkpt lat="45.97815" lon="4.7007">
        <ele>219</ele>
        <time>2017-03-19T11:23:04Z</time>
      </trkpt>
      <trkpt lat="45.97815" lon="4.70074">
        <ele>219</ele>
        <time>2017-03-19T11:23:05Z</time>
      </trkpt>
      <trkpt lat="45.97815" lon="4.70087">
        <ele>220</ele>
        <time>2017-03-19T11:23:08Z</time>
      </trkpt>
      <trkpt lat="45.97815" lon="4.70091">
        <ele>220</ele>
        <time>2017-03-19T11:23:09Z</time>
      </trkpt>
      <trkpt lat="45.97815" lon="4.70104">
        <ele>221</ele>
        <time>2017-03-19T11:23:12Z</time>
      </trkpt>
      <trkpt lat="45.97815" lon="4.70108">
        <ele>221</ele>
        <time>2017-03-19T11:23:13Z</time>
      </trkpt>
      <trkpt lat="45.97814" lon="4.70117">
        <ele>221</ele>
        <time>2017-03-19T11:23:15Z</time>
      </trkpt>
      <trkpt lat="45.97814" lon="4.70121">
        <ele>221</ele>
        <time>2017-03-19T11:23:16Z</time>
      </trkpt>
      <trkpt lat="45.97814" lon="4.70131">
        <ele>221</ele>
        <time>2017-03-19T11:23:18Z</time>
      </trkpt>
      <trkpt lat="45.97814" lon="4.70136">
        <ele>221</ele>
        <time>2017-03-19T11:23:19Z</time>
      </trkpt>
      <trkpt lat="45.97814" lon="4.70145">
        <ele>221</ele>
        <time>2017-03-19T11:23:21Z</time>
      </trkpt>
      <trkpt lat="45.97813" lon="4.7015">
        <ele>221</ele>
        <time>2017-03-19T11:23:22Z</time>
      </trkpt>
      <trkpt lat="45.97813" lon="4.7016">
        <ele>221</ele>
        <time>2017-03-19T11:23:24Z</time>
      </trkpt>
      <trkpt lat="45.97813" lon="4.70165">
        <ele>221</ele>
        <time>2017-03-19T11:23:25Z</time>
      </trkpt>
      <trkpt lat="45.97813" lon="4.70174">
        <ele>222</ele>
        <time>2017-03-19T11:23:27Z</time>
      </trkpt>
      <trkpt lat="45.97813" lon="4.70179">
        <ele>222</ele>
        <time>2017-03-19T11:23:28Z</time>
      </trkpt>
      <trkpt lat="45.97812" lon="4.70189">
        <ele>223</ele>
        <time>2017-03-19T11:23:30Z</time>
      </trkpt>
      <trkpt lat="45.97812" lon="4.70194">
        <ele>223</ele>
        <time>2017-03-19T11:23:31Z</time>
      </trkpt>
      <trkpt lat="45.97812" lon="4.70205">
        <ele>223</ele>
        <time>2017-03-19T11:23:33Z</time>
      </trkpt>
      <trkpt lat="45.97812" lon="4.70211">
        <ele>223</ele>
        <time>2017-03-19T11:23:34Z</time>
      </trkpt>
      <trkpt lat="45.97813" lon="4.70222">
        <ele>223</ele>
        <time>2017-03-19T11:23:36Z</time>
      </trkpt>
      <trkpt lat="45.97813" lon="4.70229">
        <ele>223</ele>
        <time>2017-03-19T11:23:37Z</time>
      </trkpt>
      <trkpt lat="45.97812" lon="4.70235">
        <ele>223</ele>
        <time>2017-03-19T11:23:38Z</time>
      </trkpt>
      <trkpt lat="45.97812" lon="4.70242">
        <ele>223</ele>
        <time>2017-03-19T11:23:39Z</time>
      </trkpt>
      <trkpt lat="45.97812" lon="4.70249">
        <ele>223</ele>
        <time>2017-03-19T11:23:40Z</time>
      </trkpt>
      <trkpt lat="45.97811" lon="4.70256">
        <ele>223</ele>
        <time>2017-03-19T11:23:41Z</time>
      </trkpt>
      <trkpt lat="45.97811" lon="4.70263">
        <ele>223</ele>
        <time>2017-03-19T11:23:42Z</time>
      </trkpt>
      <trkpt lat="45.97811" lon="4.70269">
        <ele>223</ele>
        <time>2017-03-19T11:23:43Z</time>
      </trkpt>
      <trkpt lat="45.97811" lon="4.70277">
        <ele>223</ele>
        <time>2017-03-19T11:23:44Z</time>
      </trkpt>
      <trkpt lat="45.97811" lon="4.70284">
        <ele>223</ele>
        <time>2017-03-19T11:23:45Z</time>
      </trkpt>
      <trkpt lat="45.97811" lon="4.70292">
        <ele>223</ele>
        <time>2017-03-19T11:23:46Z</time>
      </trkpt>
      <trkpt lat="45.97811" lon="4.70299">
        <ele>223</ele>
        <time>2017-03-19T11:23:47Z</time>
      </trkpt>
      <trkpt lat="45.97811" lon="4.70307">
        <ele>223</ele>
        <time>2017-03-19T11:23:48Z</time>
      </trkpt>
      <trkpt lat="45.9781" lon="4.70315">
        <ele>223</ele>
        <time>2017-03-19T11:23:49Z</time>
      </trkpt>
      <trkpt lat="45.97809" lon="4.70323">
        <ele>223</ele>
        <time>2017-03-19T11:23:50Z</time>
      </trkpt>
      <trkpt lat="45.97809" lon="4.70331">
        <ele>223</ele>
        <time>2017-03-19T11:23:51Z</time>
      </trkpt>
      <trkpt lat="45.97807" lon="4.70339">
        <ele>222</ele>
        <time>2017-03-19T11:23:52Z</time>
      </trkpt>
      <trkpt lat="45.97806" lon="4.70347">
        <ele>222</ele>
        <time>2017-03-19T11:23:53Z</time>
      </trkpt>
      <trkpt lat="45.97805" lon="4.70355">
        <ele>222</ele>
        <time>2017-03-19T11:23:54Z</time>
      </trkpt>
      <trkpt lat="45.97804" lon="4.70363">
        <ele>222</ele>
        <time>2017-03-19T11:23:55Z</time>
      </trkpt>
      <trkpt lat="45.97803" lon="4.70372">
        <ele>222</ele>
        <time>2017-03-19T11:23:56Z</time>
      </trkpt>
      <trkpt lat="45.97802" lon="4.7038">
        <ele>222</ele>
        <time>2017-03-19T11:23:57Z</time>
      </trkpt>
      <trkpt lat="45.97801" lon="4.70389">
        <ele>222</ele>
        <time>2017-03-19T11:23:58Z</time>
      </trkpt>
      <trkpt lat="45.97799" lon="4.70397">
        <ele>222</ele>
        <time>2017-03-19T11:23:59Z</time>
      </trkpt>
      <trkpt lat="45.97798" lon="4.70405">
        <ele>222</ele>
        <time>2017-03-19T11:24:00Z</time>
      </trkpt>
      <trkpt lat="45.97797" lon="4.70413">
        <ele>222</ele>
        <time>2017-03-19T11:24:01Z</time>
      </trkpt>
      <trkpt lat="45.97796" lon="4.7042">
        <ele>221</ele>
        <time>2017-03-19T11:24:02Z</time>
      </trkpt>
      <trkpt lat="45.97795" lon="4.70428">
        <ele>221</ele>
        <time>2017-03-19T11:24:03Z</time>
      </trkpt>
      <trkpt lat="45.97794" lon="4.70435">
        <ele>221</ele>
        <time>2017-03-19T11:24:04Z</time>
      </trkpt>
      <trkpt lat="45.97793" lon="4.70442">
        <ele>221</ele>
        <time>2017-03-19T11:24:05Z</time>
      </trkpt>
      <trkpt lat="45.97792" lon="4.70448">
        <ele>221</ele>
        <time>2017-03-19T11:24:06Z</time>
      </trkpt>
      <trkpt lat="45.97791" lon="4.70455">
        <ele>222</ele>
        <time>2017-03-19T11:24:07Z</time>
      </trkpt>
      <trkpt lat="45.97791" lon="4.70462">
        <ele>222</ele>
        <time>2017-03-19T11:24:08Z</time>
      </trkpt>
      <trkpt lat="45.97791" lon="4.70469">
        <ele>222</ele>
        <time>2017-03-19T11:24:09Z</time>
      </trkpt>
      <trkpt lat="45.97791" lon="4.70476">
        <ele>222</ele>
        <time>2017-03-19T11:24:10Z</time>
      </trkpt>
      <trkpt lat="45.97791" lon="4.70483">
        <ele>222</ele>
        <time>2017-03-19T11:24:11Z</time>
      </trkpt>
      <trkpt lat="45.97791" lon="4.70491">
        <ele>222</ele>
        <time>2017-03-19T11:24:12Z</time>
      </trkpt>
      <trkpt lat="45.97791" lon="4.70498">
        <ele>222</ele>
        <time>2017-03-19T11:24:13Z</time>
      </trkpt>
      <trkpt lat="45.97791" lon="4.70505">
        <ele>222</ele>
        <time>2017-03-19T11:24:14Z</time>
      </trkpt>
      <trkpt lat="45.97791" lon="4.70513">
        <ele>222</ele>
        <time>2017-03-19T11:24:15Z</time>
      </trkpt>
      <trkpt lat="45.9779" lon="4.7052">
        <ele>222</ele>
        <time>2017-03-19T11:24:16Z</time>
      </trkpt>
      <trkpt lat="45.97789" lon="4.70526">
        <ele>222</ele>
        <time>2017-03-19T11:24:17Z</time>
      </trkpt>
      <trkpt lat="45.97789" lon="4.70533">
        <ele>222</ele>
        <time>2017-03-19T11:24:18Z</time>
      </trkpt>
      <trkpt lat="45.97789" lon="4.70539">
        <ele>222</ele>
        <time>2017-03-19T11:24:19Z</time>
      </trkpt>
      <trkpt lat="45.97788" lon="4.70546">
        <ele>222</ele>
        <time>2017-03-19T11:24:20Z</time>
      </trkpt>
      <trkpt lat="45.97788" lon="4.70553">
        <ele>222</ele>
        <time>2017-03-19T11:24:21Z</time>
      </trkpt>
      <trkpt lat="45.97788" lon="4.7056">
        <ele>222</ele>
        <time>2017-03-19T11:24:22Z</time>
      </trkpt>
      <trkpt lat="45.97788" lon="4.70567">
        <ele>223</ele>
        <time>2017-03-19T11:24:23Z</time>
      </trkpt>
      <trkpt lat="45.97788" lon="4.70575">
        <ele>223</ele>
        <time>2017-03-19T11:24:24Z</time>
      </trkpt>
      <trkpt lat="45.97787" lon="4.70583">
        <ele>223</ele>
        <time>2017-03-19T11:24:25Z</time>
      </trkpt>
      <trkpt lat="45.97787" lon="4.7059">
        <ele>223</ele>
        <time>2017-03-19T11:24:26Z</time>
      </trkpt>
      <trkpt lat="45.97787" lon="4.70597">
        <ele>223</ele>
        <time>2017-03-19T11:24:27Z</time>
      </trkpt>
      <trkpt lat="45.97787" lon="4.70605">
        <ele>223</ele>
        <time>2017-03-19T11:24:28Z</time>
      </trkpt>
      <trkpt lat="45.97787" lon="4.70612">
        <ele>223</ele>
        <time>2017-03-19T11:24:29Z</time>
      </trkpt>
      <trkpt lat="45.97787" lon="4.70619">
        <ele>223</ele>
        <time>2017-03-19T11:24:30Z</time>
      </trkpt>
      <trkpt lat="45.97787" lon="4.70627">
        <ele>223</ele>
        <time>2017-03-19T11:24:31Z</time>
      </trkpt>
      <trkpt lat="45.97787" lon="4.70635">
        <ele>223</ele>
        <time>2017-03-19T11:24:32Z</time>
      </trkpt>
      <trkpt lat="45.97787" lon="4.70643">
        <ele>222</ele>
        <time>2017-03-19T11:24:33Z</time>
      </trkpt>
      <trkpt lat="45.97787" lon="4.7065">
        <ele>222</ele>
        <time>2017-03-19T11:24:34Z</time>
      </trkpt>
      <trkpt lat="45.97787" lon="4.70658">
        <ele>222</ele>
        <time>2017-03-19T11:24:35Z</time>
      </trkpt>
      <trkpt lat="45.97786" lon="4.70665">
        <ele>222</ele>
        <time>2017-03-19T11:24:36Z</time>
      </trkpt>
      <trkpt lat="45.97787" lon="4.70673">
        <ele>222</ele>
        <time>2017-03-19T11:24:37Z</time>
      </trkpt>
      <trkpt lat="45.97787" lon="4.70681">
        <ele>222</ele>
        <time>2017-03-19T11:24:38Z</time>
      </trkpt>
      <trkpt lat="45.97787" lon="4.70688">
        <ele>222</ele>
        <time>2017-03-19T11:24:39Z</time>
      </trkpt>
      <trkpt lat="45.97786" lon="4.70695">
        <ele>222</ele>
        <time>2017-03-19T11:24:40Z</time>
      </trkpt>
      <trkpt lat="45.97786" lon="4.70703">
        <ele>222</ele>
        <time>2017-03-19T11:24:41Z</time>
      </trkpt>
      <trkpt lat="45.97785" lon="4.7071">
        <ele>222</ele>
        <time>2017-03-19T11:24:42Z</time>
      </trkpt>
      <trkpt lat="45.97785" lon="4.70718">
        <ele>222</ele>
        <time>2017-03-19T11:24:43Z</time>
      </trkpt>
      <trkpt lat="45.97785" lon="4.70725">
        <ele>222</ele>
        <time>2017-03-19T11:24:44Z</time>
      </trkpt>
      <trkpt lat="45.97785" lon="4.70732">
        <ele>222</ele>
        <time>2017-03-19T11:24:45Z</time>
      </trkpt>
      <trkpt lat="45.97784" lon="4.7074">
        <ele>222</ele>
        <time>2017-03-19T11:24:46Z</time>
      </trkpt>
      <trkpt lat="45.97784" lon="4.70747">
        <ele>222</ele>
        <time>2017-03-19T11:24:47Z</time>
      </trkpt>
      <trkpt lat="45.97784" lon="4.70754">
        <ele>221</ele>
        <time>2017-03-19T11:24:48Z</time>
      </trkpt>
      <trkpt lat="45.97783" lon="4.70761">
        <ele>221</ele>
        <time>2017-03-19T11:24:49Z</time>
      </trkpt>
      <trkpt lat="45.97783" lon="4.70767">
        <ele>221</ele>
        <time>2017-03-19T11:24:50Z</time>
      </trkpt>
      <trkpt lat="45.97782" lon="4.70774">
        <ele>221</ele>
        <time>2017-03-19T11:24:51Z</time>
      </trkpt>
      <trkpt lat="45.97781" lon="4.70782">
        <ele>221</ele>
        <time>2017-03-19T11:24:52Z</time>
      </trkpt>
      <trkpt lat="45.97781" lon="4.70789">
        <ele>221</ele>
        <time>2017-03-19T11:24:53Z</time>
      </trkpt>
      <trkpt lat="45.97783" lon="4.70797">
        <ele>221</ele>
        <time>2017-03-19T11:24:54Z</time>
      </trkpt>
      <trkpt lat="45.97788" lon="4.70802">
        <ele>221</ele>
        <time>2017-03-19T11:24:55Z</time>
      </trkpt>
      <trkpt lat="45.97793" lon="4.70806">
        <ele>221</ele>
        <time>2017-03-19T11:24:56Z</time>
      </trkpt>
      <trkpt lat="45.97798" lon="4.70812">
        <ele>221</ele>
        <time>2017-03-19T11:24:57Z</time>
      </trkpt>
      <trkpt lat="45.97801" lon="4.70818">
        <ele>221</ele>
        <time>2017-03-19T11:24:58Z</time>
      </trkpt>
      <trkpt lat="45.97805" lon="4.70824">
        <ele>221</ele>
        <time>2017-03-19T11:24:59Z</time>
      </trkpt>
      <trkpt lat="45.97808" lon="4.70832">
        <ele>221</ele>
        <time>2017-03-19T11:25:00Z</time>
      </trkpt>
      <trkpt lat="45.97811" lon="4.7084">
        <ele>220</ele>
        <time>2017-03-19T11:25:01Z</time>
      </trkpt>
      <trkpt lat="45.97813" lon="4.70848">
        <ele>220</ele>
        <time>2017-03-19T11:25:02Z</time>
      </trkpt>
      <trkpt lat="45.97814" lon="4.70857">
        <ele>220</ele>
        <time>2017-03-19T11:25:03Z</time>
      </trkpt>
      <trkpt lat="45.97815" lon="4.70866">
        <ele>220</ele>
        <time>2017-03-19T11:25:04Z</time>
      </trkpt>
      <trkpt lat="45.97816" lon="4.70876">
        <ele>220</ele>
        <time>2017-03-19T11:25:05Z</time>
      </trkpt>
      <trkpt lat="45.97817" lon="4.70885">
        <ele>220</ele>
        <time>2017-03-19T11:25:06Z</time>
      </trkpt>
      <trkpt lat="45.97818" lon="4.70895">
        <ele>220</ele>
        <time>2017-03-19T11:25:07Z</time>
      </trkpt>
      <trkpt lat="45.97817" lon="4.70905">
        <ele>220</ele>
        <time>2017-03-19T11:25:08Z</time>
      </trkpt>
      <trkpt lat="45.97817" lon="4.70915">
        <ele>219</ele>
        <time>2017-03-19T11:25:09Z</time>
      </trkpt>
      <trkpt lat="45.97817" lon="4.70925">
        <ele>219</ele>
        <time>2017-03-19T11:25:10Z</time>
      </trkpt>
      <trkpt lat="45.97818" lon="4.70936">
        <ele>218</ele>
        <time>2017-03-19T11:25:11Z</time>
      </trkpt>
      <trkpt lat="45.9782" lon="4.70946">
        <ele>218</ele>
        <time>2017-03-19T11:25:12Z</time>
      </trkpt>
      <trkpt lat="45.97824" lon="4.70956">
        <ele>218</ele>
        <time>2017-03-19T11:25:13Z</time>
      </trkpt>
      <trkpt lat="45.97826" lon="4.70967">
        <ele>218</ele>
        <time>2017-03-19T11:25:14Z</time>
      </trkpt>
      <trkpt lat="45.97828" lon="4.70979">
        <ele>217</ele>
        <time>2017-03-19T11:25:15Z</time>
      </trkpt>
      <trkpt lat="45.9783" lon="4.7099">
        <ele>217</ele>
        <time>2017-03-19T11:25:16Z</time>
      </trkpt>
      <trkpt lat="45.97832" lon="4.71002">
        <ele>216</ele>
        <time>2017-03-19T11:25:17Z</time>
      </trkpt>
      <trkpt lat="45.97833" lon="4.71014">
        <ele>216</ele>
        <time>2017-03-19T11:25:18Z</time>
      </trkpt>
      <trkpt lat="45.97835" lon="4.71027">
        <ele>216</ele>
        <time>2017-03-19T11:25:19Z</time>
      </trkpt>
      <trkpt lat="45.97836" lon="4.7104">
        <ele>216</ele>
        <time>2017-03-19T11:25:20Z</time>
      </trkpt>
      <trkpt lat="45.97837" lon="4.71052">
        <ele>215</ele>
        <time>2017-03-19T11:25:21Z</time>
      </trkpt>
      <trkpt lat="45.97839" lon="4.71066">
        <ele>215</ele>
        <time>2017-03-19T11:25:22Z</time>
      </trkpt>
      <trkpt lat="45.9784" lon="4.71079">
        <ele>215</ele>
        <time>2017-03-19T11:25:23Z</time>
      </trkpt>
      <trkpt lat="45.97842" lon="4.71092">
        <ele>213</ele>
        <time>2017-03-19T11:25:24Z</time>
      </trkpt>
      <trkpt lat="45.97844" lon="4.71106">
        <ele>213</ele>
        <time>2017-03-19T11:25:25Z</time>
      </trkpt>
      <trkpt lat="45.97846" lon="4.71119">
        <ele>213</ele>
        <time>2017-03-19T11:25:26Z</time>
      </trkpt>
      <trkpt lat="45.97847" lon="4.71132">
        <ele>212</ele>
        <time>2017-03-19T11:25:27Z</time>
      </trkpt>
      <trkpt lat="45.97849" lon="4.71144">
        <ele>212</ele>
        <time>2017-03-19T11:25:28Z</time>
      </trkpt>
      <trkpt lat="45.97849" lon="4.71157">
        <ele>212</ele>
        <time>2017-03-19T11:25:29Z</time>
      </trkpt>
      <trkpt lat="45.9785" lon="4.7117">
        <ele>210</ele>
        <time>2017-03-19T11:25:30Z</time>
      </trkpt>
      <trkpt lat="45.9785" lon="4.71183">
        <ele>209</ele>
        <time>2017-03-19T11:25:31Z</time>
      </trkpt>
      <trkpt lat="45.9785" lon="4.71196">
        <ele>209</ele>
        <time>2017-03-19T11:25:32Z</time>
      </trkpt>
      <trkpt lat="45.9785" lon="4.7121">
        <ele>209</ele>
        <time>2017-03-19T11:25:33Z</time>
      </trkpt>
      <trkpt lat="45.9785" lon="4.71223">
        <ele>208</ele>
        <time>2017-03-19T11:25:34Z</time>
      </trkpt>
      <trkpt lat="45.97849" lon="4.71237">
        <ele>208</ele>
        <time>2017-03-19T11:25:35Z</time>
      </trkpt>
      <trkpt lat="45.97849" lon="4.71251">
        <ele>207</ele>
        <time>2017-03-19T11:25:36Z</time>
      </trkpt>
      <trkpt lat="45.97849" lon="4.71265">
        <ele>207</ele>
        <time>2017-03-19T11:25:37Z</time>
      </trkpt>
      <trkpt lat="45.97848" lon="4.71279">
        <ele>206</ele>
        <time>2017-03-19T11:25:38Z</time>
      </trkpt>
      <trkpt lat="45.97848" lon="4.71293">
        <ele>206</ele>
        <time>2017-03-19T11:25:39Z</time>
      </trkpt>
      <trkpt lat="45.97848" lon="4.71307">
        <ele>206</ele>
        <time>2017-03-19T11:25:40Z</time>
      </trkpt>
      <trkpt lat="45.97848" lon="4.7132">
        <ele>205</ele>
        <time>2017-03-19T11:25:41Z</time>
      </trkpt>
      <trkpt lat="45.97848" lon="4.71334">
        <ele>204</ele>
        <time>2017-03-19T11:25:42Z</time>
      </trkpt>
      <trkpt lat="45.97848" lon="4.71348">
        <ele>204</ele>
        <time>2017-03-19T11:25:43Z</time>
      </trkpt>
      <trkpt lat="45.97848" lon="4.71362">
        <ele>204</ele>
        <time>2017-03-19T11:25:44Z</time>
      </trkpt>
      <trkpt lat="45.97848" lon="4.71375">
        <ele>203</ele>
        <time>2017-03-19T11:25:45Z</time>
      </trkpt>
      <trkpt lat="45.97848" lon="4.71388">
        <ele>203</ele>
        <time>2017-03-19T11:25:46Z</time>
      </trkpt>
      <trkpt lat="45.97849" lon="4.714">
        <ele>203</ele>
        <time>2017-03-19T11:25:47Z</time>
      </trkpt>
      <trkpt lat="45.97851" lon="4.71411">
        <ele>203</ele>
        <time>2017-03-19T11:25:48Z</time>
      </trkpt>
      <trkpt lat="45.97852" lon="4.71422">
        <ele>202</ele>
        <time>2017-03-19T11:25:49Z</time>
      </trkpt>
      <trkpt lat="45.97854" lon="4.71434">
        <ele>201</ele>
        <time>2017-03-19T11:25:50Z</time>
      </trkpt>
      <trkpt lat="45.97856" lon="4.71444">
        <ele>201</ele>
        <time>2017-03-19T11:25:51Z</time>
      </trkpt>
      <trkpt lat="45.97859" lon="4.71456">
        <ele>201</ele>
        <time>2017-03-19T11:25:52Z</time>
      </trkpt>
      <trkpt lat="45.97861" lon="4.71467">
        <ele>201</ele>
        <time>2017-03-19T11:25:53Z</time>
      </trkpt>
      <trkpt lat="45.97863" lon="4.71478">
        <ele>201</ele>
        <time>2017-03-19T11:25:54Z</time>
      </trkpt>
      <trkpt lat="45.97865" lon="4.71489">
        <ele>201</ele>
        <time>2017-03-19T11:25:55Z</time>
      </trkpt>
      <trkpt lat="45.97868" lon="4.715">
        <ele>200</ele>
        <time>2017-03-19T11:25:56Z</time>
      </trkpt>
      <trkpt lat="45.9787" lon="4.71512">
        <ele>199</ele>
        <time>2017-03-19T11:25:57Z</time>
      </trkpt>
      <trkpt lat="45.97871" lon="4.71523">
        <ele>199</ele>
        <time>2017-03-19T11:25:58Z</time>
      </trkpt>
      <trkpt lat="45.97873" lon="4.71534">
        <ele>199</ele>
        <time>2017-03-19T11:25:59Z</time>
      </trkpt>
      <trkpt lat="45.97875" lon="4.71546">
        <ele>199</ele>
        <time>2017-03-19T11:26:00Z</time>
      </trkpt>
      <trkpt lat="45.97877" lon="4.71557">
        <ele>198</ele>
        <time>2017-03-19T11:26:01Z</time>
      </trkpt>
      <trkpt lat="45.97878" lon="4.71569">
        <ele>198</ele>
        <time>2017-03-19T11:26:02Z</time>
      </trkpt>
      <trkpt lat="45.97878" lon="4.7158">
        <ele>198</ele>
        <time>2017-03-19T11:26:03Z</time>
      </trkpt>
      <trkpt lat="45.97879" lon="4.71591">
        <ele>197</ele>
        <time>2017-03-19T11:26:04Z</time>
      </trkpt>
      <trkpt lat="45.9788" lon="4.71602">
        <ele>197</ele>
        <time>2017-03-19T11:26:05Z</time>
      </trkpt>
      <trkpt lat="45.9788" lon="4.71613">
        <ele>197</ele>
        <time>2017-03-19T11:26:06Z</time>
      </trkpt>
      <trkpt lat="45.97881" lon="4.71624">
        <ele>197</ele>
        <time>2017-03-19T11:26:07Z</time>
      </trkpt>
      <trkpt lat="45.97881" lon="4.71634">
        <ele>197</ele>
        <time>2017-03-19T11:26:08Z</time>
      </trkpt>
      <trkpt lat="45.9788" lon="4.71644">
        <ele>197</ele>
        <time>2017-03-19T11:26:09Z</time>
      </trkpt>
      <trkpt lat="45.97878" lon="4.71655">
        <ele>197</ele>
        <time>2017-03-19T11:26:10Z</time>
      </trkpt>
      <trkpt lat="45.97876" lon="4.71665">
        <ele>197</ele>
        <time>2017-03-19T11:26:11Z</time>
      </trkpt>
      <trkpt lat="45.97874" lon="4.71674">
        <ele>196</ele>
        <time>2017-03-19T11:26:12Z</time>
      </trkpt>
      <trkpt lat="45.97872" lon="4.71682">
        <ele>196</ele>
        <time>2017-03-19T11:26:13Z</time>
      </trkpt>
      <trkpt lat="45.97871" lon="4.71689">
        <ele>196</ele>
        <time>2017-03-19T11:26:14Z</time>
      </trkpt>
      <trkpt lat="45.97869" lon="4.71695">
        <ele>196</ele>
        <time>2017-03-19T11:26:15Z</time>
      </trkpt>
      <trkpt lat="45.97866" lon="4.71707">
        <ele>196</ele>
        <time>2017-03-19T11:26:17Z</time>
      </trkpt>
      <trkpt lat="45.97864" lon="4.71713">
        <ele>196</ele>
        <time>2017-03-19T11:26:18Z</time>
      </trkpt>
      <trkpt lat="45.9786" lon="4.71719">
        <ele>196</ele>
        <time>2017-03-19T11:26:19Z</time>
      </trkpt>
      <trkpt lat="45.97856" lon="4.71726">
        <ele>196</ele>
        <time>2017-03-19T11:26:20Z</time>
      </trkpt>
      <trkpt lat="45.97851" lon="4.71733">
        <ele>196</ele>
        <time>2017-03-19T11:26:21Z</time>
      </trkpt>
      <trkpt lat="45.97847" lon="4.71739">
        <ele>195</ele>
        <time>2017-03-19T11:26:22Z</time>
      </trkpt>
      <trkpt lat="45.97841" lon="4.71743">
        <ele>195</ele>
        <time>2017-03-19T11:26:23Z</time>
      </trkpt>
      <trkpt lat="45.97836" lon="4.71744">
        <ele>195</ele>
        <time>2017-03-19T11:26:24Z</time>
      </trkpt>
      <trkpt lat="45.97829" lon="4.71744">
        <ele>195</ele>
        <time>2017-03-19T11:26:25Z</time>
      </trkpt>
      <trkpt lat="45.97824" lon="4.71743">
        <ele>196</ele>
        <time>2017-03-19T11:26:26Z</time>
      </trkpt>
      <trkpt lat="45.97819" lon="4.71742">
        <ele>196</ele>
        <time>2017-03-19T11:26:27Z</time>
      </trkpt>
      <trkpt lat="45.97813" lon="4.7174">
        <ele>196</ele>
        <time>2017-03-19T11:26:28Z</time>
      </trkpt>
      <trkpt lat="45.97807" lon="4.71739">
        <ele>196</ele>
        <time>2017-03-19T11:26:29Z</time>
      </trkpt>
      <trkpt lat="45.97802" lon="4.71739">
        <ele>196</ele>
        <time>2017-03-19T11:26:30Z</time>
      </trkpt>
      <trkpt lat="45.97796" lon="4.71738">
        <ele>196</ele>
        <time>2017-03-19T11:26:31Z</time>
      </trkpt>
      <trkpt lat="45.9779" lon="4.71737">
        <ele>196</ele>
        <time>2017-03-19T11:26:32Z</time>
      </trkpt>
      <trkpt lat="45.97784" lon="4.71737">
        <ele>196</ele>
        <time>2017-03-19T11:26:33Z</time>
      </trkpt>
      <trkpt lat="45.97779" lon="4.71736">
        <ele>196</ele>
        <time>2017-03-19T11:26:34Z</time>
      </trkpt>
      <trkpt lat="45.97773" lon="4.71735">
        <ele>196</ele>
        <time>2017-03-19T11:26:35Z</time>
      </trkpt>
      <trkpt lat="45.97768" lon="4.71734">
        <ele>196</ele>
        <time>2017-03-19T11:26:36Z</time>
      </trkpt>
      <trkpt lat="45.97762" lon="4.71733">
        <ele>196</ele>
        <time>2017-03-19T11:26:37Z</time>
      </trkpt>
      <trkpt lat="45.97757" lon="4.71733">
        <ele>196</ele>
        <time>2017-03-19T11:26:38Z</time>
      </trkpt>
      <trkpt lat="45.97752" lon="4.71732">
        <ele>196</ele>
        <time>2017-03-19T11:26:39Z</time>
      </trkpt>
      <trkpt lat="45.97746" lon="4.71733">
        <ele>196</ele>
        <time>2017-03-19T11:26:40Z</time>
      </trkpt>
      <trkpt lat="45.97741" lon="4.71732">
        <ele>196</ele>
        <time>2017-03-19T11:26:41Z</time>
      </trkpt>
      <trkpt lat="45.97736" lon="4.71731">
        <ele>196</ele>
        <time>2017-03-19T11:26:42Z</time>
      </trkpt>
      <trkpt lat="45.9773" lon="4.71731">
        <ele>196</ele>
        <time>2017-03-19T11:26:43Z</time>
      </trkpt>
      <trkpt lat="45.97723" lon="4.71731">
        <ele>196</ele>
        <time>2017-03-19T11:26:44Z</time>
      </trkpt>
      <trkpt lat="45.97716" lon="4.7173">
        <ele>196</ele>
        <time>2017-03-19T11:26:45Z</time>
      </trkpt>
      <trkpt lat="45.9771" lon="4.71729">
        <ele>196</ele>
        <time>2017-03-19T11:26:46Z</time>
      </trkpt>
      <trkpt lat="45.97704" lon="4.71728">
        <ele>196</ele>
        <time>2017-03-19T11:26:47Z</time>
      </trkpt>
      <trkpt lat="45.97698" lon="4.71727">
        <ele>196</ele>
        <time>2017-03-19T11:26:48Z</time>
      </trkpt>
      <trkpt lat="45.97692" lon="4.71726">
        <ele>196</ele>
        <time>2017-03-19T11:26:49Z</time>
      </trkpt>
      <trkpt lat="45.97687" lon="4.71725">
        <ele>196</ele>
        <time>2017-03-19T11:26:50Z</time>
      </trkpt>
      <trkpt lat="45.97681" lon="4.71725">
        <ele>196</ele>
        <time>2017-03-19T11:26:51Z</time>
      </trkpt>
      <trkpt lat="45.97675" lon="4.71725">
        <ele>196</ele>
        <time>2017-03-19T11:26:52Z</time>
      </trkpt>
      <trkpt lat="45.97669" lon="4.71725">
        <ele>196</ele>
        <time>2017-03-19T11:26:53Z</time>
      </trkpt>
      <trkpt lat="45.97664" lon="4.71725">
        <ele>196</ele>
        <time>2017-03-19T11:26:54Z</time>
      </trkpt>
      <trkpt lat="45.97659" lon="4.71724">
        <ele>196</ele>
        <time>2017-03-19T11:26:55Z</time>
      </trkpt>
      <trkpt lat="45.97654" lon="4.71724">
        <ele>196</ele>
        <time>2017-03-19T11:26:56Z</time>
      </trkpt>
      <trkpt lat="45.97649" lon="4.71724">
        <ele>196</ele>
        <time>2017-03-19T11:26:57Z</time>
      </trkpt>
      <trkpt lat="45.97644" lon="4.71724">
        <ele>196</ele>
        <time>2017-03-19T11:26:58Z</time>
      </trkpt>
      <trkpt lat="45.97638" lon="4.71723">
        <ele>196</ele>
        <time>2017-03-19T11:26:59Z</time>
      </trkpt>
      <trkpt lat="45.97633" lon="4.7172">
        <ele>197</ele>
        <time>2017-03-19T11:27:00Z</time>
      </trkpt>
      <trkpt lat="45.97629" lon="4.71716">
        <ele>197</ele>
        <time>2017-03-19T11:27:01Z</time>
      </trkpt>
      <trkpt lat="45.97624" lon="4.71712">
        <ele>197</ele>
        <time>2017-03-19T11:27:02Z</time>
      </trkpt>
      <trkpt lat="45.97619" lon="4.71708">
        <ele>197</ele>
        <time>2017-03-19T11:27:03Z</time>
      </trkpt>
      <trkpt lat="45.97613" lon="4.71707">
        <ele>197</ele>
        <time>2017-03-19T11:27:04Z</time>
      </trkpt>
      <trkpt lat="45.97608" lon="4.71707">
        <ele>197</ele>
        <time>2017-03-19T11:27:05Z</time>
      </trkpt>
      <trkpt lat="45.97603" lon="4.71709">
        <ele>197</ele>
        <time>2017-03-19T11:27:06Z</time>
      </trkpt>
      <trkpt lat="45.97598" lon="4.71711">
        <ele>197</ele>
        <time>2017-03-19T11:27:07Z</time>
      </trkpt>
      <trkpt lat="45.97593" lon="4.71713">
        <ele>197</ele>
        <time>2017-03-19T11:27:08Z</time>
      </trkpt>
      <trkpt lat="45.97587" lon="4.71715">
        <ele>197</ele>
        <time>2017-03-19T11:27:09Z</time>
      </trkpt>
      <trkpt lat="45.97582" lon="4.71716">
        <ele>198</ele>
        <time>2017-03-19T11:27:10Z</time>
      </trkpt>
      <trkpt lat="45.97576" lon="4.71715">
        <ele>198</ele>
        <time>2017-03-19T11:27:11Z</time>
      </trkpt>
      <trkpt lat="45.97571" lon="4.71715">
        <ele>198</ele>
        <time>2017-03-19T11:27:12Z</time>
      </trkpt>
      <trkpt lat="45.97565" lon="4.71715">
        <ele>198</ele>
        <time>2017-03-19T11:27:13Z</time>
      </trkpt>
      <trkpt lat="45.9756" lon="4.71715">
        <ele>198</ele>
        <time>2017-03-19T11:27:14Z</time>
      </trkpt>
      <trkpt lat="45.97555" lon="4.71715">
        <ele>198</ele>
        <time>2017-03-19T11:27:15Z</time>
      </trkpt>
      <trkpt lat="45.9755" lon="4.71714">
        <ele>198</ele>
        <time>2017-03-19T11:27:16Z</time>
      </trkpt>
      <trkpt lat="45.97544" lon="4.71714">
        <ele>198</ele>
        <time>2017-03-19T11:27:17Z</time>
      </trkpt>
      <trkpt lat="45.97539" lon="4.71713">
        <ele>198</ele>
        <time>2017-03-19T11:27:18Z</time>
      </trkpt>
      <trkpt lat="45.97534" lon="4.71713">
        <ele>198</ele>
        <time>2017-03-19T11:27:19Z</time>
      </trkpt>
      <trkpt lat="45.97529" lon="4.71712">
        <ele>198</ele>
        <time>2017-03-19T11:27:20Z</time>
      </trkpt>
      <trkpt lat="45.97523" lon="4.71712">
        <ele>199</ele>
        <time>2017-03-19T11:27:21Z</time>
      </trkpt>
      <trkpt lat="45.97518" lon="4.71712">
        <ele>199</ele>
        <time>2017-03-19T11:27:22Z</time>
      </trkpt>
      <trkpt lat="45.97512" lon="4.71714">
        <ele>198</ele>
        <time>2017-03-19T11:27:23Z</time>
      </trkpt>
      <trkpt lat="45.97506" lon="4.71715">
        <ele>198</ele>
        <time>2017-03-19T11:27:24Z</time>
      </trkpt>
      <trkpt lat="45.975" lon="4.71715">
        <ele>198</ele>
        <time>2017-03-19T11:27:25Z</time>
      </trkpt>
      <trkpt lat="45.97494" lon="4.71715">
        <ele>198</ele>
        <time>2017-03-19T11:27:26Z</time>
      </trkpt>
      <trkpt lat="45.97489" lon="4.71715">
        <ele>198</ele>
        <time>2017-03-19T11:27:27Z</time>
      </trkpt>
      <trkpt lat="45.97484" lon="4.71715">
        <ele>198</ele>
        <time>2017-03-19T11:27:28Z</time>
      </trkpt>
      <trkpt lat="45.97479" lon="4.71715">
        <ele>197</ele>
        <time>2017-03-19T11:27:29Z</time>
      </trkpt>
      <trkpt lat="45.97474" lon="4.71714">
        <ele>197</ele>
        <time>2017-03-19T11:27:30Z</time>
      </trkpt>
      <trkpt lat="45.9747" lon="4.71714">
        <ele>197</ele>
        <time>2017-03-19T11:27:31Z</time>
      </trkpt>
      <trkpt lat="45.97465" lon="4.71713">
        <ele>197</ele>
        <time>2017-03-19T11:27:32Z</time>
      </trkpt>
      <trkpt lat="45.9746" lon="4.71712">
        <ele>197</ele>
        <time>2017-03-19T11:27:33Z</time>
      </trkpt>
      <trkpt lat="45.97455" lon="4.71711">
        <ele>197</ele>
        <time>2017-03-19T11:27:34Z</time>
      </trkpt>
      <trkpt lat="45.9745" lon="4.7171">
        <ele>197</ele>
        <time>2017-03-19T11:27:35Z</time>
      </trkpt>
      <trkpt lat="45.97445" lon="4.71709">
        <ele>197</ele>
        <time>2017-03-19T11:27:36Z</time>
      </trkpt>
      <trkpt lat="45.9744" lon="4.71709">
        <ele>197</ele>
        <time>2017-03-19T11:27:37Z</time>
      </trkpt>
      <trkpt lat="45.97435" lon="4.71708">
        <ele>197</ele>
        <time>2017-03-19T11:27:38Z</time>
      </trkpt>
      <trkpt lat="45.9743" lon="4.71707">
        <ele>197</ele>
        <time>2017-03-19T11:27:39Z</time>
      </trkpt>
      <trkpt lat="45.97426" lon="4.71707">
        <ele>197</ele>
        <time>2017-03-19T11:27:40Z</time>
      </trkpt>
      <trkpt lat="45.97421" lon="4.71706">
        <ele>197</ele>
        <time>2017-03-19T11:27:41Z</time>
      </trkpt>
      <trkpt lat="45.97416" lon="4.71706">
        <ele>195</ele>
        <time>2017-03-19T11:27:42Z</time>
      </trkpt>
      <trkpt lat="45.97411" lon="4.71705">
        <ele>195</ele>
        <time>2017-03-19T11:27:43Z</time>
      </trkpt>
      <trkpt lat="45.97405" lon="4.71705">
        <ele>195</ele>
        <time>2017-03-19T11:27:44Z</time>
      </trkpt>
      <trkpt lat="45.974" lon="4.71704">
        <ele>195</ele>
        <time>2017-03-19T11:27:45Z</time>
      </trkpt>
      <trkpt lat="45.97394" lon="4.71704">
        <ele>195</ele>
        <time>2017-03-19T11:27:46Z</time>
      </trkpt>
      <trkpt lat="45.97388" lon="4.71704">
        <ele>195</ele>
        <time>2017-03-19T11:27:47Z</time>
      </trkpt>
      <trkpt lat="45.97382" lon="4.71704">
        <ele>195</ele>
        <time>2017-03-19T11:27:48Z</time>
      </trkpt>
      <trkpt lat="45.97377" lon="4.71703">
        <ele>195</ele>
        <time>2017-03-19T11:27:49Z</time>
      </trkpt>
      <trkpt lat="45.97371" lon="4.71703">
        <ele>195</ele>
        <time>2017-03-19T11:27:50Z</time>
      </trkpt>
      <trkpt lat="45.97366" lon="4.71703">
        <ele>195</ele>
        <time>2017-03-19T11:27:51Z</time>
      </trkpt>
      <trkpt lat="45.9736" lon="4.71703">
        <ele>195</ele>
        <time>2017-03-19T11:27:52Z</time>
      </trkpt>
      <trkpt lat="45.97354" lon="4.71703">
        <ele>195</ele>
        <time>2017-03-19T11:27:53Z</time>
      </trkpt>
      <trkpt lat="45.97347" lon="4.71703">
        <ele>195</ele>
        <time>2017-03-19T11:27:54Z</time>
      </trkpt>
      <trkpt lat="45.97341" lon="4.71703">
        <ele>195</ele>
        <time>2017-03-19T11:27:55Z</time>
      </trkpt>
      <trkpt lat="45.97335" lon="4.71703">
        <ele>195</ele>
        <time>2017-03-19T11:27:56Z</time>
      </trkpt>
      <trkpt lat="45.97329" lon="4.71703">
        <ele>196</ele>
        <time>2017-03-19T11:27:57Z</time>
      </trkpt>
      <trkpt lat="45.97325" lon="4.71702">
        <ele>196</ele>
        <time>2017-03-19T11:27:58Z</time>
      </trkpt>
      <trkpt lat="45.97319" lon="4.71697">
        <ele>196</ele>
        <time>2017-03-19T11:28:00Z</time>
      </trkpt>
      <trkpt lat="45.97316" lon="4.71693">
        <ele>196</ele>
        <time>2017-03-19T11:28:01Z</time>
      </trkpt>
      <trkpt lat="45.97313" lon="4.71689">
        <ele>196</ele>
        <time>2017-03-19T11:28:02Z</time>
      </trkpt>
      <trkpt lat="45.97308" lon="4.71686">
        <ele>197</ele>
        <time>2017-03-19T11:28:03Z</time>
      </trkpt>
      <trkpt lat="45.97303" lon="4.71684">
        <ele>197</ele>
        <time>2017-03-19T11:28:04Z</time>
      </trkpt>
      <trkpt lat="45.97299" lon="4.71685">
        <ele>197</ele>
        <time>2017-03-19T11:28:05Z</time>
      </trkpt>
      <trkpt lat="45.97294" lon="4.71688">
        <ele>197</ele>
        <time>2017-03-19T11:28:06Z</time>
      </trkpt>
      <trkpt lat="45.97289" lon="4.71691">
        <ele>197</ele>
        <time>2017-03-19T11:28:07Z</time>
      </trkpt>
      <trkpt lat="45.97283" lon="4.71695">
        <ele>197</ele>
        <time>2017-03-19T11:28:08Z</time>
      </trkpt>
      <trkpt lat="45.97278" lon="4.71697">
        <ele>197</ele>
        <time>2017-03-19T11:28:09Z</time>
      </trkpt>
      <trkpt lat="45.97272" lon="4.71696">
        <ele>197</ele>
        <time>2017-03-19T11:28:10Z</time>
      </trkpt>
      <trkpt lat="45.97267" lon="4.71695">
        <ele>197</ele>
        <time>2017-03-19T11:28:11Z</time>
      </trkpt>
      <trkpt lat="45.97261" lon="4.71694">
        <ele>197</ele>
        <time>2017-03-19T11:28:12Z</time>
      </trkpt>
      <trkpt lat="45.97256" lon="4.71693">
        <ele>197</ele>
        <time>2017-03-19T11:28:13Z</time>
      </trkpt>
      <trkpt lat="45.9725" lon="4.71691">
        <ele>197</ele>
        <time>2017-03-19T11:28:14Z</time>
      </trkpt>
      <trkpt lat="45.97244" lon="4.7169">
        <ele>197</ele>
        <time>2017-03-19T11:28:15Z</time>
      </trkpt>
      <trkpt lat="45.97238" lon="4.7169">
        <ele>197</ele>
        <time>2017-03-19T11:28:16Z</time>
      </trkpt>
      <trkpt lat="45.97232" lon="4.71689">
        <ele>197</ele>
        <time>2017-03-19T11:28:17Z</time>
      </trkpt>
      <trkpt lat="45.97227" lon="4.71689">
        <ele>197</ele>
        <time>2017-03-19T11:28:18Z</time>
      </trkpt>
      <trkpt lat="45.97221" lon="4.71688">
        <ele>197</ele>
        <time>2017-03-19T11:28:19Z</time>
      </trkpt>
      <trkpt lat="45.97216" lon="4.71687">
        <ele>197</ele>
        <time>2017-03-19T11:28:20Z</time>
      </trkpt>
      <trkpt lat="45.9721" lon="4.71687">
        <ele>197</ele>
        <time>2017-03-19T11:28:21Z</time>
      </trkpt>
      <trkpt lat="45.97204" lon="4.71687">
        <ele>197</ele>
        <time>2017-03-19T11:28:22Z</time>
      </trkpt>
      <trkpt lat="45.97198" lon="4.71686">
        <ele>197</ele>
        <time>2017-03-19T11:28:23Z</time>
      </trkpt>
      <trkpt lat="45.97192" lon="4.71686">
        <ele>197</ele>
        <time>2017-03-19T11:28:24Z</time>
      </trkpt>
      <trkpt lat="45.97185" lon="4.71686">
        <ele>197</ele>
        <time>2017-03-19T11:28:25Z</time>
      </trkpt>
      <trkpt lat="45.97178" lon="4.71686">
        <ele>197</ele>
        <time>2017-03-19T11:28:26Z</time>
      </trkpt>
      <trkpt lat="45.97171" lon="4.71686">
        <ele>197</ele>
        <time>2017-03-19T11:28:27Z</time>
      </trkpt>
      <trkpt lat="45.97164" lon="4.71685">
        <ele>196</ele>
        <time>2017-03-19T11:28:28Z</time>
      </trkpt>
      <trkpt lat="45.97157" lon="4.71684">
        <ele>196</ele>
        <time>2017-03-19T11:28:29Z</time>
      </trkpt>
      <trkpt lat="45.97151" lon="4.71683">
        <ele>196</ele>
        <time>2017-03-19T11:28:30Z</time>
      </trkpt>
      <trkpt lat="45.97144" lon="4.71682">
        <ele>195</ele>
        <time>2017-03-19T11:28:31Z</time>
      </trkpt>
      <trkpt lat="45.97137" lon="4.71682">
        <ele>195</ele>
        <time>2017-03-19T11:28:32Z</time>
      </trkpt>
      <trkpt lat="45.97131" lon="4.71681">
        <ele>195</ele>
        <time>2017-03-19T11:28:33Z</time>
      </trkpt>
      <trkpt lat="45.97125" lon="4.71681">
        <ele>195</ele>
        <time>2017-03-19T11:28:34Z</time>
      </trkpt>
      <trkpt lat="45.97119" lon="4.71681">
        <ele>195</ele>
        <time>2017-03-19T11:28:35Z</time>
      </trkpt>
      <trkpt lat="45.97114" lon="4.7168">
        <ele>195</ele>
        <time>2017-03-19T11:28:36Z</time>
      </trkpt>
      <trkpt lat="45.97108" lon="4.7168">
        <ele>194</ele>
        <time>2017-03-19T11:28:37Z</time>
      </trkpt>
      <trkpt lat="45.97103" lon="4.71679">
        <ele>194</ele>
        <time>2017-03-19T11:28:38Z</time>
      </trkpt>
      <trkpt lat="45.97097" lon="4.71679">
        <ele>195</ele>
        <time>2017-03-19T11:28:39Z</time>
      </trkpt>
      <trkpt lat="45.97091" lon="4.71678">
        <ele>195</ele>
        <time>2017-03-19T11:28:40Z</time>
      </trkpt>
      <trkpt lat="45.97084" lon="4.71677">
        <ele>195</ele>
        <time>2017-03-19T11:28:41Z</time>
      </trkpt>
      <trkpt lat="45.97078" lon="4.71676">
        <ele>194</ele>
        <time>2017-03-19T11:28:42Z</time>
      </trkpt>
      <trkpt lat="45.97072" lon="4.71674">
        <ele>194</ele>
        <time>2017-03-19T11:28:43Z</time>
      </trkpt>
      <trkpt lat="45.97065" lon="4.71673">
        <ele>193</ele>
        <time>2017-03-19T11:28:44Z</time>
      </trkpt>
      <trkpt lat="45.97059" lon="4.71672">
        <ele>193</ele>
        <time>2017-03-19T11:28:45Z</time>
      </trkpt>
      <trkpt lat="45.97053" lon="4.71671">
        <ele>193</ele>
        <time>2017-03-19T11:28:46Z</time>
      </trkpt>
      <trkpt lat="45.97046" lon="4.7167">
        <ele>193</ele>
        <time>2017-03-19T11:28:47Z</time>
      </trkpt>
      <trkpt lat="45.9704" lon="4.71669">
        <ele>193</ele>
        <time>2017-03-19T11:28:48Z</time>
      </trkpt>
      <trkpt lat="45.97033" lon="4.71668">
        <ele>193</ele>
        <time>2017-03-19T11:28:49Z</time>
      </trkpt>
      <trkpt lat="45.97027" lon="4.71667">
        <ele>193</ele>
        <time>2017-03-19T11:28:50Z</time>
      </trkpt>
      <trkpt lat="45.9702" lon="4.71667">
        <ele>193</ele>
        <time>2017-03-19T11:28:51Z</time>
      </trkpt>
      <trkpt lat="45.97014" lon="4.71667">
        <ele>193</ele>
        <time>2017-03-19T11:28:52Z</time>
      </trkpt>
      <trkpt lat="45.97008" lon="4.71667">
        <ele>193</ele>
        <time>2017-03-19T11:28:53Z</time>
      </trkpt>
      <trkpt lat="45.97002" lon="4.71667">
        <ele>194</ele>
        <time>2017-03-19T11:28:54Z</time>
      </trkpt>
      <trkpt lat="45.96996" lon="4.71667">
        <ele>194</ele>
        <time>2017-03-19T11:28:55Z</time>
      </trkpt>
      <trkpt lat="45.9699" lon="4.71667">
        <ele>193</ele>
        <time>2017-03-19T11:28:56Z</time>
      </trkpt>
      <trkpt lat="45.96983" lon="4.71667">
        <ele>193</ele>
        <time>2017-03-19T11:28:57Z</time>
      </trkpt>
      <trkpt lat="45.96977" lon="4.71668">
        <ele>192</ele>
        <time>2017-03-19T11:28:58Z</time>
      </trkpt>
      <trkpt lat="45.9697" lon="4.71668">
        <ele>192</ele>
        <time>2017-03-19T11:28:59Z</time>
      </trkpt>
      <trkpt lat="45.96965" lon="4.71668">
        <ele>192</ele>
        <time>2017-03-19T11:29:00Z</time>
      </trkpt>
      <trkpt lat="45.96959" lon="4.71668">
        <ele>192</ele>
        <time>2017-03-19T11:29:01Z</time>
      </trkpt>
      <trkpt lat="45.96952" lon="4.71667">
        <ele>192</ele>
        <time>2017-03-19T11:29:02Z</time>
      </trkpt>
      <trkpt lat="45.96946" lon="4.71667">
        <ele>192</ele>
        <time>2017-03-19T11:29:03Z</time>
      </trkpt>
      <trkpt lat="45.96939" lon="4.71667">
        <ele>195</ele>
        <time>2017-03-19T11:29:04Z</time>
      </trkpt>
      <trkpt lat="45.96933" lon="4.71666">
        <ele>195</ele>
        <time>2017-03-19T11:29:05Z</time>
      </trkpt>
      <trkpt lat="45.96926" lon="4.71665">
        <ele>195</ele>
        <time>2017-03-19T11:29:06Z</time>
      </trkpt>
      <trkpt lat="45.9692" lon="4.71665">
        <ele>195</ele>
        <time>2017-03-19T11:29:07Z</time>
      </trkpt>
      <trkpt lat="45.96914" lon="4.71664">
        <ele>195</ele>
        <time>2017-03-19T11:29:08Z</time>
      </trkpt>
      <trkpt lat="45.96908" lon="4.71663">
        <ele>195</ele>
        <time>2017-03-19T11:29:09Z</time>
      </trkpt>
      <trkpt lat="45.96901" lon="4.71663">
        <ele>195</ele>
        <time>2017-03-19T11:29:10Z</time>
      </trkpt>
      <trkpt lat="45.96895" lon="4.71662">
        <ele>195</ele>
        <time>2017-03-19T11:29:11Z</time>
      </trkpt>
      <trkpt lat="45.96888" lon="4.71662">
        <ele>195</ele>
        <time>2017-03-19T11:29:12Z</time>
      </trkpt>
      <trkpt lat="45.96881" lon="4.71661">
        <ele>195</ele>
        <time>2017-03-19T11:29:13Z</time>
      </trkpt>
      <trkpt lat="45.96874" lon="4.7166">
        <ele>195</ele>
        <time>2017-03-19T11:29:14Z</time>
      </trkpt>
      <trkpt lat="45.96867" lon="4.71659">
        <ele>195</ele>
        <time>2017-03-19T11:29:15Z</time>
      </trkpt>
      <trkpt lat="45.96859" lon="4.71658">
        <ele>194</ele>
        <time>2017-03-19T11:29:16Z</time>
      </trkpt>
      <trkpt lat="45.96852" lon="4.71656">
        <ele>194</ele>
        <time>2017-03-19T11:29:17Z</time>
      </trkpt>
      <trkpt lat="45.96845" lon="4.71655">
        <ele>194</ele>
        <time>2017-03-19T11:29:18Z</time>
      </trkpt>
      <trkpt lat="45.96838" lon="4.71654">
        <ele>194</ele>
        <time>2017-03-19T11:29:19Z</time>
      </trkpt>
      <trkpt lat="45.96831" lon="4.71653">
        <ele>193</ele>
        <time>2017-03-19T11:29:20Z</time>
      </trkpt>
      <trkpt lat="45.96824" lon="4.71652">
        <ele>193</ele>
        <time>2017-03-19T11:29:21Z</time>
      </trkpt>
      <trkpt lat="45.96817" lon="4.71652">
        <ele>193</ele>
        <time>2017-03-19T11:29:22Z</time>
      </trkpt>
      <trkpt lat="45.96811" lon="4.71651">
        <ele>193</ele>
        <time>2017-03-19T11:29:23Z</time>
      </trkpt>
      <trkpt lat="45.96804" lon="4.7165">
        <ele>193</ele>
        <time>2017-03-19T11:29:24Z</time>
      </trkpt>
      <trkpt lat="45.96798" lon="4.71649">
        <ele>193</ele>
        <time>2017-03-19T11:29:25Z</time>
      </trkpt>
      <trkpt lat="45.96791" lon="4.71648">
        <ele>193</ele>
        <time>2017-03-19T11:29:26Z</time>
      </trkpt>
      <trkpt lat="45.96785" lon="4.71647">
        <ele>192</ele>
        <time>2017-03-19T11:29:27Z</time>
      </trkpt>
      <trkpt lat="45.96778" lon="4.71646">
        <ele>192</ele>
        <time>2017-03-19T11:29:28Z</time>
      </trkpt>
      <trkpt lat="45.96771" lon="4.71644">
        <ele>192</ele>
        <time>2017-03-19T11:29:29Z</time>
      </trkpt>
      <trkpt lat="45.96764" lon="4.71643">
        <ele>192</ele>
        <time>2017-03-19T11:29:30Z</time>
      </trkpt>
      <trkpt lat="45.96757" lon="4.71642">
        <ele>192</ele>
        <time>2017-03-19T11:29:31Z</time>
      </trkpt>
      <trkpt lat="45.9675" lon="4.71641">
        <ele>192</ele>
        <time>2017-03-19T11:29:32Z</time>
      </trkpt>
      <trkpt lat="45.96743" lon="4.7164">
        <ele>190</ele>
        <time>2017-03-19T11:29:33Z</time>
      </trkpt>
      <trkpt lat="45.96736" lon="4.71639">
        <ele>190</ele>
        <time>2017-03-19T11:29:34Z</time>
      </trkpt>
      <trkpt lat="45.96729" lon="4.71638">
        <ele>190</ele>
        <time>2017-03-19T11:29:35Z</time>
      </trkpt>
      <trkpt lat="45.96722" lon="4.71637">
        <ele>190</ele>
        <time>2017-03-19T11:29:36Z</time>
      </trkpt>
      <trkpt lat="45.96715" lon="4.71636">
        <ele>190</ele>
        <time>2017-03-19T11:29:37Z</time>
      </trkpt>
      <trkpt lat="45.96709" lon="4.71635">
        <ele>190</ele>
        <time>2017-03-19T11:29:38Z</time>
      </trkpt>
      <trkpt lat="45.96702" lon="4.71634">
        <ele>190</ele>
        <time>2017-03-19T11:29:39Z</time>
      </trkpt>
      <trkpt lat="45.96695" lon="4.71632">
        <ele>190</ele>
        <time>2017-03-19T11:29:40Z</time>
      </trkpt>
      <trkpt lat="45.96688" lon="4.71631">
        <ele>190</ele>
        <time>2017-03-19T11:29:41Z</time>
      </trkpt>
      <trkpt lat="45.96682" lon="4.71629">
        <ele>190</ele>
        <time>2017-03-19T11:29:42Z</time>
      </trkpt>
      <trkpt lat="45.96675" lon="4.71628">
        <ele>190</ele>
        <time>2017-03-19T11:29:43Z</time>
      </trkpt>
      <trkpt lat="45.96668" lon="4.71627">
        <ele>190</ele>
        <time>2017-03-19T11:29:44Z</time>
      </trkpt>
      <trkpt lat="45.96661" lon="4.71627">
        <ele>188</ele>
        <time>2017-03-19T11:29:45Z</time>
      </trkpt>
      <trkpt lat="45.96654" lon="4.71626">
        <ele>188</ele>
        <time>2017-03-19T11:29:46Z</time>
      </trkpt>
      <trkpt lat="45.96648" lon="4.71625">
        <ele>188</ele>
        <time>2017-03-19T11:29:47Z</time>
      </trkpt>
      <trkpt lat="45.96641" lon="4.71624">
        <ele>188</ele>
        <time>2017-03-19T11:29:48Z</time>
      </trkpt>
      <trkpt lat="45.96634" lon="4.71623">
        <ele>188</ele>
        <time>2017-03-19T11:29:49Z</time>
      </trkpt>
      <trkpt lat="45.96627" lon="4.71622">
        <ele>188</ele>
        <time>2017-03-19T11:29:50Z</time>
      </trkpt>
      <trkpt lat="45.9662" lon="4.71621">
        <ele>188</ele>
        <time>2017-03-19T11:29:51Z</time>
      </trkpt>
      <trkpt lat="45.96614" lon="4.7162">
        <ele>188</ele>
        <time>2017-03-19T11:29:52Z</time>
      </trkpt>
      <trkpt lat="45.96607" lon="4.71619">
        <ele>188</ele>
        <time>2017-03-19T11:29:53Z</time>
      </trkpt>
      <trkpt lat="45.966" lon="4.71617">
        <ele>188</ele>
        <time>2017-03-19T11:29:54Z</time>
      </trkpt>
      <trkpt lat="45.96593" lon="4.71616">
        <ele>188</ele>
        <time>2017-03-19T11:29:55Z</time>
      </trkpt>
      <trkpt lat="45.96586" lon="4.71615">
        <ele>188</ele>
        <time>2017-03-19T11:29:56Z</time>
      </trkpt>
      <trkpt lat="45.96579" lon="4.71614">
        <ele>186</ele>
        <time>2017-03-19T11:29:57Z</time>
      </trkpt>
      <trkpt lat="45.96572" lon="4.71612">
        <ele>185</ele>
        <time>2017-03-19T11:29:58Z</time>
      </trkpt>
      <trkpt lat="45.96565" lon="4.71611">
        <ele>185</ele>
        <time>2017-03-19T11:29:59Z</time>
      </trkpt>
      <trkpt lat="45.96558" lon="4.7161">
        <ele>185</ele>
        <time>2017-03-19T11:30:00Z</time>
      </trkpt>
      <trkpt lat="45.96551" lon="4.71608">
        <ele>185</ele>
        <time>2017-03-19T11:30:01Z</time>
      </trkpt>
      <trkpt lat="45.96545" lon="4.71604">
        <ele>185</ele>
        <time>2017-03-19T11:30:02Z</time>
      </trkpt>
      <trkpt lat="45.96539" lon="4.716">
        <ele>185</ele>
        <time>2017-03-19T11:30:03Z</time>
      </trkpt>
      <trkpt lat="45.96533" lon="4.71597">
        <ele>185</ele>
        <time>2017-03-19T11:30:04Z</time>
      </trkpt>
      <trkpt lat="45.96526" lon="4.71597">
        <ele>185</ele>
        <time>2017-03-19T11:30:05Z</time>
      </trkpt>
      <trkpt lat="45.96519" lon="4.71598">
        <ele>185</ele>
        <time>2017-03-19T11:30:06Z</time>
      </trkpt>
      <trkpt lat="45.96512" lon="4.716">
        <ele>185</ele>
        <time>2017-03-19T11:30:07Z</time>
      </trkpt>
      <trkpt lat="45.96505" lon="4.71601">
        <ele>185</ele>
        <time>2017-03-19T11:30:08Z</time>
      </trkpt>
      <trkpt lat="45.96498" lon="4.71601">
        <ele>184</ele>
        <time>2017-03-19T11:30:09Z</time>
      </trkpt>
      <trkpt lat="45.96491" lon="4.716">
        <ele>184</ele>
        <time>2017-03-19T11:30:10Z</time>
      </trkpt>
      <trkpt lat="45.96484" lon="4.71599">
        <ele>184</ele>
        <time>2017-03-19T11:30:11Z</time>
      </trkpt>
      <trkpt lat="45.96478" lon="4.71598">
        <ele>183</ele>
        <time>2017-03-19T11:30:12Z</time>
      </trkpt>
      <trkpt lat="45.96471" lon="4.71598">
        <ele>183</ele>
        <time>2017-03-19T11:30:13Z</time>
      </trkpt>
      <trkpt lat="45.96464" lon="4.71597">
        <ele>183</ele>
        <time>2017-03-19T11:30:14Z</time>
      </trkpt>
      <trkpt lat="45.96458" lon="4.71595">
        <ele>183</ele>
        <time>2017-03-19T11:30:15Z</time>
      </trkpt>
      <trkpt lat="45.96451" lon="4.71594">
        <ele>183</ele>
        <time>2017-03-19T11:30:16Z</time>
      </trkpt>
      <trkpt lat="45.96444" lon="4.71593">
        <ele>183</ele>
        <time>2017-03-19T11:30:17Z</time>
      </trkpt>
      <trkpt lat="45.96437" lon="4.71592">
        <ele>184</ele>
        <time>2017-03-19T11:30:18Z</time>
      </trkpt>
      <trkpt lat="45.9643" lon="4.71591">
        <ele>184</ele>
        <time>2017-03-19T11:30:19Z</time>
      </trkpt>
      <trkpt lat="45.96422" lon="4.7159">
        <ele>184</ele>
        <time>2017-03-19T11:30:20Z</time>
      </trkpt>
      <trkpt lat="45.96415" lon="4.71589">
        <ele>184</ele>
        <time>2017-03-19T11:30:21Z</time>
      </trkpt>
      <trkpt lat="45.96407" lon="4.71588">
        <ele>184</ele>
        <time>2017-03-19T11:30:22Z</time>
      </trkpt>
      <trkpt lat="45.96399" lon="4.71587">
        <ele>183</ele>
        <time>2017-03-19T11:30:23Z</time>
      </trkpt>
      <trkpt lat="45.96392" lon="4.71586">
        <ele>183</ele>
        <time>2017-03-19T11:30:24Z</time>
      </trkpt>
      <trkpt lat="45.96384" lon="4.71585">
        <ele>183</ele>
        <time>2017-03-19T11:30:25Z</time>
      </trkpt>
      <trkpt lat="45.96376" lon="4.71584">
        <ele>182</ele>
        <time>2017-03-19T11:30:26Z</time>
      </trkpt>
      <trkpt lat="45.96369" lon="4.71583">
        <ele>186</ele>
        <time>2017-03-19T11:30:27Z</time>
      </trkpt>
      <trkpt lat="45.96361" lon="4.71581">
        <ele>185</ele>
        <time>2017-03-19T11:30:28Z</time>
      </trkpt>
      <trkpt lat="45.96354" lon="4.71581">
        <ele>185</ele>
        <time>2017-03-19T11:30:29Z</time>
      </trkpt>
      <trkpt lat="45.96347" lon="4.7158">
        <ele>185</ele>
        <time>2017-03-19T11:30:30Z</time>
      </trkpt>
      <trkpt lat="45.9634" lon="4.71579">
        <ele>184</ele>
        <time>2017-03-19T11:30:31Z</time>
      </trkpt>
      <trkpt lat="45.96333" lon="4.71578">
        <ele>183</ele>
        <time>2017-03-19T11:30:32Z</time>
      </trkpt>
      <trkpt lat="45.96325" lon="4.71577">
        <ele>184</ele>
        <time>2017-03-19T11:30:33Z</time>
      </trkpt>
      <trkpt lat="45.96318" lon="4.71576">
        <ele>184</ele>
        <time>2017-03-19T11:30:34Z</time>
      </trkpt>
      <trkpt lat="45.96311" lon="4.71576">
        <ele>184</ele>
        <time>2017-03-19T11:30:35Z</time>
      </trkpt>
      <trkpt lat="45.96304" lon="4.71575">
        <ele>184</ele>
        <time>2017-03-19T11:30:36Z</time>
      </trkpt>
      <trkpt lat="45.96298" lon="4.71574">
        <ele>184</ele>
        <time>2017-03-19T11:30:37Z</time>
      </trkpt>
      <trkpt lat="45.96291" lon="4.71574">
        <ele>184</ele>
        <time>2017-03-19T11:30:38Z</time>
      </trkpt>
      <trkpt lat="45.96284" lon="4.71572">
        <ele>184</ele>
        <time>2017-03-19T11:30:39Z</time>
      </trkpt>
      <trkpt lat="45.96277" lon="4.71571">
        <ele>184</ele>
        <time>2017-03-19T11:30:40Z</time>
      </trkpt>
      <trkpt lat="45.9627" lon="4.7157">
        <ele>184</ele>
        <time>2017-03-19T11:30:41Z</time>
      </trkpt>
      <trkpt lat="45.96263" lon="4.71569">
        <ele>183</ele>
        <time>2017-03-19T11:30:42Z</time>
      </trkpt>
      <trkpt lat="45.96257" lon="4.71568">
        <ele>183</ele>
        <time>2017-03-19T11:30:43Z</time>
      </trkpt>
      <trkpt lat="45.96251" lon="4.71567">
        <ele>183</ele>
        <time>2017-03-19T11:30:44Z</time>
      </trkpt>
      <trkpt lat="45.96244" lon="4.71566">
        <ele>183</ele>
        <time>2017-03-19T11:30:45Z</time>
      </trkpt>
      <trkpt lat="45.96238" lon="4.71565">
        <ele>183</ele>
        <time>2017-03-19T11:30:46Z</time>
      </trkpt>
      <trkpt lat="45.96232" lon="4.71564">
        <ele>183</ele>
        <time>2017-03-19T11:30:47Z</time>
      </trkpt>
      <trkpt lat="45.96226" lon="4.71561">
        <ele>183</ele>
        <time>2017-03-19T11:30:48Z</time>
      </trkpt>
      <trkpt lat="45.96219" lon="4.7156">
        <ele>183</ele>
        <time>2017-03-19T11:30:49Z</time>
      </trkpt>
      <trkpt lat="45.96213" lon="4.71558">
        <ele>184</ele>
        <time>2017-03-19T11:30:50Z</time>
      </trkpt>
      <trkpt lat="45.96206" lon="4.71557">
        <ele>184</ele>
        <time>2017-03-19T11:30:51Z</time>
      </trkpt>
      <trkpt lat="45.962" lon="4.71555">
        <ele>184</ele>
        <time>2017-03-19T11:30:52Z</time>
      </trkpt>
      <trkpt lat="45.96193" lon="4.71553">
        <ele>184</ele>
        <time>2017-03-19T11:30:53Z</time>
      </trkpt>
      <trkpt lat="45.96187" lon="4.71552">
        <ele>184</ele>
        <time>2017-03-19T11:30:54Z</time>
      </trkpt>
      <trkpt lat="45.9618" lon="4.7155">
        <ele>184</ele>
        <time>2017-03-19T11:30:55Z</time>
      </trkpt>
      <trkpt lat="45.96173" lon="4.71549">
        <ele>184</ele>
        <time>2017-03-19T11:30:56Z</time>
      </trkpt>
      <trkpt lat="45.96166" lon="4.71547">
        <ele>184</ele>
        <time>2017-03-19T11:30:57Z</time>
      </trkpt>
      <trkpt lat="45.96159" lon="4.71545">
        <ele>184</ele>
        <time>2017-03-19T11:30:58Z</time>
      </trkpt>
      <trkpt lat="45.96153" lon="4.71544">
        <ele>184</ele>
        <time>2017-03-19T11:30:59Z</time>
      </trkpt>
      <trkpt lat="45.96146" lon="4.71542">
        <ele>185</ele>
        <time>2017-03-19T11:31:00Z</time>
      </trkpt>
      <trkpt lat="45.9614" lon="4.71541">
        <ele>185</ele>
        <time>2017-03-19T11:31:01Z</time>
      </trkpt>
      <trkpt lat="45.96134" lon="4.7154">
        <ele>185</ele>
        <time>2017-03-19T11:31:02Z</time>
      </trkpt>
      <trkpt lat="45.96128" lon="4.71539">
        <ele>185</ele>
        <time>2017-03-19T11:31:03Z</time>
      </trkpt>
      <trkpt lat="45.96122" lon="4.71539">
        <ele>185</ele>
        <time>2017-03-19T11:31:04Z</time>
      </trkpt>
      <trkpt lat="45.96117" lon="4.71539">
        <ele>185</ele>
        <time>2017-03-19T11:31:05Z</time>
      </trkpt>
      <trkpt lat="45.96111" lon="4.71538">
        <ele>185</ele>
        <time>2017-03-19T11:31:06Z</time>
      </trkpt>
      <trkpt lat="45.96105" lon="4.71537">
        <ele>185</ele>
        <time>2017-03-19T11:31:07Z</time>
      </trkpt>
      <trkpt lat="45.96099" lon="4.71536">
        <ele>185</ele>
        <time>2017-03-19T11:31:08Z</time>
      </trkpt>
      <trkpt lat="45.96094" lon="4.71535">
        <ele>185</ele>
        <time>2017-03-19T11:31:09Z</time>
      </trkpt>
      <trkpt lat="45.96088" lon="4.71533">
        <ele>185</ele>
        <time>2017-03-19T11:31:10Z</time>
      </trkpt>
      <trkpt lat="45.96082" lon="4.71532">
        <ele>186</ele>
        <time>2017-03-19T11:31:11Z</time>
      </trkpt>
      <trkpt lat="45.96076" lon="4.71531">
        <ele>186</ele>
        <time>2017-03-19T11:31:12Z</time>
      </trkpt>
      <trkpt lat="45.9607" lon="4.7153">
        <ele>186</ele>
        <time>2017-03-19T11:31:13Z</time>
      </trkpt>
      <trkpt lat="45.96064" lon="4.71529">
        <ele>186</ele>
        <time>2017-03-19T11:31:14Z</time>
      </trkpt>
      <trkpt lat="45.96058" lon="4.71527">
        <ele>186</ele>
        <time>2017-03-19T11:31:15Z</time>
      </trkpt>
      <trkpt lat="45.96053" lon="4.71526">
        <ele>186</ele>
        <time>2017-03-19T11:31:16Z</time>
      </trkpt>
      <trkpt lat="45.96048" lon="4.71525">
        <ele>186</ele>
        <time>2017-03-19T11:31:17Z</time>
      </trkpt>
      <trkpt lat="45.96042" lon="4.71524">
        <ele>186</ele>
        <time>2017-03-19T11:31:18Z</time>
      </trkpt>
      <trkpt lat="45.96037" lon="4.71523">
        <ele>186</ele>
        <time>2017-03-19T11:31:19Z</time>
      </trkpt>
      <trkpt lat="45.96032" lon="4.71522">
        <ele>186</ele>
        <time>2017-03-19T11:31:20Z</time>
      </trkpt>
      <trkpt lat="45.96026" lon="4.71522">
        <ele>186</ele>
        <time>2017-03-19T11:31:21Z</time>
      </trkpt>
      <trkpt lat="45.9602" lon="4.71521">
        <ele>186</ele>
        <time>2017-03-19T11:31:22Z</time>
      </trkpt>
      <trkpt lat="45.96014" lon="4.71521">
        <ele>186</ele>
        <time>2017-03-19T11:31:23Z</time>
      </trkpt>
      <trkpt lat="45.96008" lon="4.71519">
        <ele>186</ele>
        <time>2017-03-19T11:31:24Z</time>
      </trkpt>
      <trkpt lat="45.96002" lon="4.71517">
        <ele>187</ele>
        <time>2017-03-19T11:31:25Z</time>
      </trkpt>
      <trkpt lat="45.95997" lon="4.71514">
        <ele>186</ele>
        <time>2017-03-19T11:31:26Z</time>
      </trkpt>
      <trkpt lat="45.95991" lon="4.71511">
        <ele>186</ele>
        <time>2017-03-19T11:31:27Z</time>
      </trkpt>
      <trkpt lat="45.95985" lon="4.71509">
        <ele>186</ele>
        <time>2017-03-19T11:31:28Z</time>
      </trkpt>
      <trkpt lat="45.95979" lon="4.71509">
        <ele>185</ele>
        <time>2017-03-19T11:31:29Z</time>
      </trkpt>
      <trkpt lat="45.95974" lon="4.71512">
        <ele>185</ele>
        <time>2017-03-19T11:31:30Z</time>
      </trkpt>
      <trkpt lat="45.95968" lon="4.71515">
        <ele>184</ele>
        <time>2017-03-19T11:31:31Z</time>
      </trkpt>
      <trkpt lat="45.95962" lon="4.71517">
        <ele>184</ele>
        <time>2017-03-19T11:31:32Z</time>
      </trkpt>
      <trkpt lat="45.95956" lon="4.71519">
        <ele>184</ele>
        <time>2017-03-19T11:31:33Z</time>
      </trkpt>
      <trkpt lat="45.95949" lon="4.71519">
        <ele>184</ele>
        <time>2017-03-19T11:31:34Z</time>
      </trkpt>
      <trkpt lat="45.95943" lon="4.7152">
        <ele>184</ele>
        <time>2017-03-19T11:31:35Z</time>
      </trkpt>
      <trkpt lat="45.95936" lon="4.71519">
        <ele>184</ele>
        <time>2017-03-19T11:31:36Z</time>
      </trkpt>
      <trkpt lat="45.9593" lon="4.71519">
        <ele>184</ele>
        <time>2017-03-19T11:31:37Z</time>
      </trkpt>
      <trkpt lat="45.95923" lon="4.71519">
        <ele>184</ele>
        <time>2017-03-19T11:31:38Z</time>
      </trkpt>
      <trkpt lat="45.95916" lon="4.7152">
        <ele>183</ele>
        <time>2017-03-19T11:31:39Z</time>
      </trkpt>
      <trkpt lat="45.95909" lon="4.7152">
        <ele>183</ele>
        <time>2017-03-19T11:31:40Z</time>
      </trkpt>
      <trkpt lat="45.95903" lon="4.71521">
        <ele>183</ele>
        <time>2017-03-19T11:31:41Z</time>
      </trkpt>
      <trkpt lat="45.95896" lon="4.71521">
        <ele>182</ele>
        <time>2017-03-19T11:31:42Z</time>
      </trkpt>
      <trkpt lat="45.9589" lon="4.71521">
        <ele>182</ele>
        <time>2017-03-19T11:31:43Z</time>
      </trkpt>
      <trkpt lat="45.95883" lon="4.71521">
        <ele>182</ele>
        <time>2017-03-19T11:31:44Z</time>
      </trkpt>
      <trkpt lat="45.95876" lon="4.71521">
        <ele>182</ele>
        <time>2017-03-19T11:31:45Z</time>
      </trkpt>
      <trkpt lat="45.95869" lon="4.71521">
        <ele>182</ele>
        <time>2017-03-19T11:31:46Z</time>
      </trkpt>
      <trkpt lat="45.95863" lon="4.7152">
        <ele>182</ele>
        <time>2017-03-19T11:31:47Z</time>
      </trkpt>
      <trkpt lat="45.95855" lon="4.7152">
        <ele>182</ele>
        <time>2017-03-19T11:31:48Z</time>
      </trkpt>
      <trkpt lat="45.95849" lon="4.7152">
        <ele>182</ele>
        <time>2017-03-19T11:31:49Z</time>
      </trkpt>
      <trkpt lat="45.95842" lon="4.7152">
        <ele>182</ele>
        <time>2017-03-19T11:31:50Z</time>
      </trkpt>
      <trkpt lat="45.95835" lon="4.71519">
        <ele>182</ele>
        <time>2017-03-19T11:31:51Z</time>
      </trkpt>
      <trkpt lat="45.95828" lon="4.71518">
        <ele>182</ele>
        <time>2017-03-19T11:31:52Z</time>
      </trkpt>
      <trkpt lat="45.95821" lon="4.71518">
        <ele>182</ele>
        <time>2017-03-19T11:31:53Z</time>
      </trkpt>
      <trkpt lat="45.95814" lon="4.71517">
        <ele>182</ele>
        <time>2017-03-19T11:31:54Z</time>
      </trkpt>
      <trkpt lat="45.95807" lon="4.71517">
        <ele>181</ele>
        <time>2017-03-19T11:31:55Z</time>
      </trkpt>
      <trkpt lat="45.95799" lon="4.71517">
        <ele>181</ele>
        <time>2017-03-19T11:31:56Z</time>
      </trkpt>
      <trkpt lat="45.95792" lon="4.71516">
        <ele>181</ele>
        <time>2017-03-19T11:31:57Z</time>
      </trkpt>
      <trkpt lat="45.95785" lon="4.71516">
        <ele>181</ele>
        <time>2017-03-19T11:31:58Z</time>
      </trkpt>
      <trkpt lat="45.95777" lon="4.71516">
        <ele>181</ele>
        <time>2017-03-19T11:31:59Z</time>
      </trkpt>
      <trkpt lat="45.9577" lon="4.71515">
        <ele>181</ele>
        <time>2017-03-19T11:32:00Z</time>
      </trkpt>
      <trkpt lat="45.95762" lon="4.71515">
        <ele>181</ele>
        <time>2017-03-19T11:32:01Z</time>
      </trkpt>
      <trkpt lat="45.95755" lon="4.71514">
        <ele>181</ele>
        <time>2017-03-19T11:32:02Z</time>
      </trkpt>
      <trkpt lat="45.95747" lon="4.71513">
        <ele>181</ele>
        <time>2017-03-19T11:32:03Z</time>
      </trkpt>
      <trkpt lat="45.95738" lon="4.71513">
        <ele>181</ele>
        <time>2017-03-19T11:32:04Z</time>
      </trkpt>
      <trkpt lat="45.9573" lon="4.71512">
        <ele>181</ele>
        <time>2017-03-19T11:32:05Z</time>
      </trkpt>
      <trkpt lat="45.95723" lon="4.71511">
        <ele>180</ele>
        <time>2017-03-19T11:32:06Z</time>
      </trkpt>
      <trkpt lat="45.95715" lon="4.71511">
        <ele>180</ele>
        <time>2017-03-19T11:32:07Z</time>
      </trkpt>
      <trkpt lat="45.95707" lon="4.7151">
        <ele>180</ele>
        <time>2017-03-19T11:32:08Z</time>
      </trkpt>
      <trkpt lat="45.957" lon="4.7151">
        <ele>180</ele>
        <time>2017-03-19T11:32:09Z</time>
      </trkpt>
      <trkpt lat="45.95693" lon="4.7151">
        <ele>180</ele>
        <time>2017-03-19T11:32:10Z</time>
      </trkpt>
      <trkpt lat="45.95685" lon="4.71509">
        <ele>181</ele>
        <time>2017-03-19T11:32:11Z</time>
      </trkpt>
      <trkpt lat="45.95678" lon="4.71509">
        <ele>181</ele>
        <time>2017-03-19T11:32:12Z</time>
      </trkpt>
      <trkpt lat="45.95671" lon="4.71508">
        <ele>181</ele>
        <time>2017-03-19T11:32:13Z</time>
      </trkpt>
      <trkpt lat="45.95664" lon="4.71507">
        <ele>181</ele>
        <time>2017-03-19T11:32:14Z</time>
      </trkpt>
      <trkpt lat="45.95656" lon="4.71506">
        <ele>181</ele>
        <time>2017-03-19T11:32:15Z</time>
      </trkpt>
      <trkpt lat="45.95649" lon="4.71506">
        <ele>180</ele>
        <time>2017-03-19T11:32:16Z</time>
      </trkpt>
      <trkpt lat="45.95642" lon="4.71505">
        <ele>180</ele>
        <time>2017-03-19T11:32:17Z</time>
      </trkpt>
      <trkpt lat="45.95634" lon="4.71504">
        <ele>180</ele>
        <time>2017-03-19T11:32:18Z</time>
      </trkpt>
      <trkpt lat="45.95627" lon="4.71503">
        <ele>180</ele>
        <time>2017-03-19T11:32:19Z</time>
      </trkpt>
      <trkpt lat="45.9562" lon="4.71503">
        <ele>180</ele>
        <time>2017-03-19T11:32:20Z</time>
      </trkpt>
      <trkpt lat="45.95613" lon="4.71502">
        <ele>179</ele>
        <time>2017-03-19T11:32:21Z</time>
      </trkpt>
      <trkpt lat="45.95605" lon="4.71502">
        <ele>179</ele>
        <time>2017-03-19T11:32:22Z</time>
      </trkpt>
      <trkpt lat="45.95598" lon="4.71501">
        <ele>180</ele>
        <time>2017-03-19T11:32:23Z</time>
      </trkpt>
      <trkpt lat="45.9559" lon="4.715">
        <ele>180</ele>
        <time>2017-03-19T11:32:24Z</time>
      </trkpt>
      <trkpt lat="45.95582" lon="4.715">
        <ele>180</ele>
        <time>2017-03-19T11:32:25Z</time>
      </trkpt>
      <trkpt lat="45.95575" lon="4.71499">
        <ele>180</ele>
        <time>2017-03-19T11:32:26Z</time>
      </trkpt>
      <trkpt lat="45.95567" lon="4.71498">
        <ele>179</ele>
        <time>2017-03-19T11:32:27Z</time>
      </trkpt>
      <trkpt lat="45.9556" lon="4.71497">
        <ele>179</ele>
        <time>2017-03-19T11:32:28Z</time>
      </trkpt>
      <trkpt lat="45.95552" lon="4.71497">
        <ele>179</ele>
        <time>2017-03-19T11:32:29Z</time>
      </trkpt>
      <trkpt lat="45.95545" lon="4.71496">
        <ele>179</ele>
        <time>2017-03-19T11:32:30Z</time>
      </trkpt>
      <trkpt lat="45.95537" lon="4.71495">
        <ele>179</ele>
        <time>2017-03-19T11:32:31Z</time>
      </trkpt>
      <trkpt lat="45.9553" lon="4.71494">
        <ele>178</ele>
        <time>2017-03-19T11:32:32Z</time>
      </trkpt>
      <trkpt lat="45.95523" lon="4.71494">
        <ele>178</ele>
        <time>2017-03-19T11:32:33Z</time>
      </trkpt>
      <trkpt lat="45.95516" lon="4.71492">
        <ele>178</ele>
        <time>2017-03-19T11:32:34Z</time>
      </trkpt>
      <trkpt lat="45.95508" lon="4.71492">
        <ele>178</ele>
        <time>2017-03-19T11:32:35Z</time>
      </trkpt>
      <trkpt lat="45.95501" lon="4.71491">
        <ele>178</ele>
        <time>2017-03-19T11:32:36Z</time>
      </trkpt>
      <trkpt lat="45.95494" lon="4.71491">
        <ele>177</ele>
        <time>2017-03-19T11:32:37Z</time>
      </trkpt>
      <trkpt lat="45.95487" lon="4.7149">
        <ele>177</ele>
        <time>2017-03-19T11:32:38Z</time>
      </trkpt>
      <trkpt lat="45.95481" lon="4.7149">
        <ele>176</ele>
        <time>2017-03-19T11:32:39Z</time>
      </trkpt>
      <trkpt lat="45.95474" lon="4.7149">
        <ele>176</ele>
        <time>2017-03-19T11:32:40Z</time>
      </trkpt>
      <trkpt lat="45.95467" lon="4.71489">
        <ele>176</ele>
        <time>2017-03-19T11:32:41Z</time>
      </trkpt>
      <trkpt lat="45.95461" lon="4.71489">
        <ele>176</ele>
        <time>2017-03-19T11:32:42Z</time>
      </trkpt>
      <trkpt lat="45.95454" lon="4.71488">
        <ele>176</ele>
        <time>2017-03-19T11:32:43Z</time>
      </trkpt>
      <trkpt lat="45.95448" lon="4.71487">
        <ele>176</ele>
        <time>2017-03-19T11:32:44Z</time>
      </trkpt>
      <trkpt lat="45.95442" lon="4.71486">
        <ele>176</ele>
        <time>2017-03-19T11:32:45Z</time>
      </trkpt>
      <trkpt lat="45.95435" lon="4.71485">
        <ele>175</ele>
        <time>2017-03-19T11:32:46Z</time>
      </trkpt>
      <trkpt lat="45.95429" lon="4.71485">
        <ele>175</ele>
        <time>2017-03-19T11:32:47Z</time>
      </trkpt>
      <trkpt lat="45.95423" lon="4.71485">
        <ele>175</ele>
        <time>2017-03-19T11:32:48Z</time>
      </trkpt>
      <trkpt lat="45.95416" lon="4.71485">
        <ele>175</ele>
        <time>2017-03-19T11:32:49Z</time>
      </trkpt>
      <trkpt lat="45.95409" lon="4.71485">
        <ele>175</ele>
        <time>2017-03-19T11:32:50Z</time>
      </trkpt>
      <trkpt lat="45.95403" lon="4.71484">
        <ele>175</ele>
        <time>2017-03-19T11:32:51Z</time>
      </trkpt>
      <trkpt lat="45.95396" lon="4.71483">
        <ele>175</ele>
        <time>2017-03-19T11:32:52Z</time>
      </trkpt>
      <trkpt lat="45.95389" lon="4.71483">
        <ele>175</ele>
        <time>2017-03-19T11:32:53Z</time>
      </trkpt>
      <trkpt lat="45.95382" lon="4.71482">
        <ele>175</ele>
        <time>2017-03-19T11:32:54Z</time>
      </trkpt>
      <trkpt lat="45.95374" lon="4.71482">
        <ele>175</ele>
        <time>2017-03-19T11:32:55Z</time>
      </trkpt>
      <trkpt lat="45.95367" lon="4.71482">
        <ele>175</ele>
        <time>2017-03-19T11:32:56Z</time>
      </trkpt>
      <trkpt lat="45.9536" lon="4.71482">
        <ele>175</ele>
        <time>2017-03-19T11:32:57Z</time>
      </trkpt>
      <trkpt lat="45.95353" lon="4.71481">
        <ele>175</ele>
        <time>2017-03-19T11:32:58Z</time>
      </trkpt>
      <trkpt lat="45.95347" lon="4.71481">
        <ele>175</ele>
        <time>2017-03-19T11:32:59Z</time>
      </trkpt>
      <trkpt lat="45.9534" lon="4.7148">
        <ele>175</ele>
        <time>2017-03-19T11:33:00Z</time>
      </trkpt>
      <trkpt lat="45.95333" lon="4.7148">
        <ele>175</ele>
        <time>2017-03-19T11:33:01Z</time>
      </trkpt>
      <trkpt lat="45.95327" lon="4.7148">
        <ele>175</ele>
        <time>2017-03-19T11:33:02Z</time>
      </trkpt>
      <trkpt lat="45.9532" lon="4.71479">
        <ele>175</ele>
        <time>2017-03-19T11:33:03Z</time>
      </trkpt>
      <trkpt lat="45.95314" lon="4.71478">
        <ele>175</ele>
        <time>2017-03-19T11:33:04Z</time>
      </trkpt>
      <trkpt lat="45.95307" lon="4.71477">
        <ele>175</ele>
        <time>2017-03-19T11:33:05Z</time>
      </trkpt>
      <trkpt lat="45.95301" lon="4.71477">
        <ele>176</ele>
        <time>2017-03-19T11:33:06Z</time>
      </trkpt>
      <trkpt lat="45.95295" lon="4.71477">
        <ele>176</ele>
        <time>2017-03-19T11:33:07Z</time>
      </trkpt>
      <trkpt lat="45.95289" lon="4.71477">
        <ele>176</ele>
        <time>2017-03-19T11:33:08Z</time>
      </trkpt>
      <trkpt lat="45.95284" lon="4.71476">
        <ele>176</ele>
        <time>2017-03-19T11:33:09Z</time>
      </trkpt>
      <trkpt lat="45.95278" lon="4.71476">
        <ele>176</ele>
        <time>2017-03-19T11:33:10Z</time>
      </trkpt>
      <trkpt lat="45.95272" lon="4.71476">
        <ele>176</ele>
        <time>2017-03-19T11:33:11Z</time>
      </trkpt>
      <trkpt lat="45.95266" lon="4.71475">
        <ele>176</ele>
        <time>2017-03-19T11:33:12Z</time>
      </trkpt>
      <trkpt lat="45.95259" lon="4.71475">
        <ele>176</ele>
        <time>2017-03-19T11:33:13Z</time>
      </trkpt>
      <trkpt lat="45.95253" lon="4.71475">
        <ele>176</ele>
        <time>2017-03-19T11:33:14Z</time>
      </trkpt>
      <trkpt lat="45.95247" lon="4.71475">
        <ele>177</ele>
        <time>2017-03-19T11:33:15Z</time>
      </trkpt>
      <trkpt lat="45.9524" lon="4.71475">
        <ele>177</ele>
        <time>2017-03-19T11:33:16Z</time>
      </trkpt>
      <trkpt lat="45.95234" lon="4.71475">
        <ele>177</ele>
        <time>2017-03-19T11:33:17Z</time>
      </trkpt>
      <trkpt lat="45.95228" lon="4.71474">
        <ele>177</ele>
        <time>2017-03-19T11:33:18Z</time>
      </trkpt>
      <trkpt lat="45.95222" lon="4.71474">
        <ele>177</ele>
        <time>2017-03-19T11:33:19Z</time>
      </trkpt>
      <trkpt lat="45.95216" lon="4.71473">
        <ele>177</ele>
        <time>2017-03-19T11:33:20Z</time>
      </trkpt>
      <trkpt lat="45.9521" lon="4.71474">
        <ele>177</ele>
        <time>2017-03-19T11:33:21Z</time>
      </trkpt>
      <trkpt lat="45.95205" lon="4.71474">
        <ele>177</ele>
        <time>2017-03-19T11:33:22Z</time>
      </trkpt>
      <trkpt lat="45.95199" lon="4.71473">
        <ele>177</ele>
        <time>2017-03-19T11:33:23Z</time>
      </trkpt>
      <trkpt lat="45.95193" lon="4.71473">
        <ele>177</ele>
        <time>2017-03-19T11:33:24Z</time>
      </trkpt>
      <trkpt lat="45.95188" lon="4.71473">
        <ele>177</ele>
        <time>2017-03-19T11:33:25Z</time>
      </trkpt>
      <trkpt lat="45.95182" lon="4.71472">
        <ele>177</ele>
        <time>2017-03-19T11:33:26Z</time>
      </trkpt>
      <trkpt lat="45.95177" lon="4.71472">
        <ele>177</ele>
        <time>2017-03-19T11:33:27Z</time>
      </trkpt>
      <trkpt lat="45.95171" lon="4.71471">
        <ele>177</ele>
        <time>2017-03-19T11:33:28Z</time>
      </trkpt>
      <trkpt lat="45.95166" lon="4.71471">
        <ele>178</ele>
        <time>2017-03-19T11:33:29Z</time>
      </trkpt>
      <trkpt lat="45.9516" lon="4.7147">
        <ele>178</ele>
        <time>2017-03-19T11:33:30Z</time>
      </trkpt>
      <trkpt lat="45.95155" lon="4.71469">
        <ele>178</ele>
        <time>2017-03-19T11:33:31Z</time>
      </trkpt>
      <trkpt lat="45.95149" lon="4.71469">
        <ele>178</ele>
        <time>2017-03-19T11:33:32Z</time>
      </trkpt>
      <trkpt lat="45.95144" lon="4.71469">
        <ele>178</ele>
        <time>2017-03-19T11:33:33Z</time>
      </trkpt>
      <trkpt lat="45.95138" lon="4.71469">
        <ele>178</ele>
        <time>2017-03-19T11:33:34Z</time>
      </trkpt>
      <trkpt lat="45.95134" lon="4.71468">
        <ele>178</ele>
        <time>2017-03-19T11:33:35Z</time>
      </trkpt>
      <trkpt lat="45.95129" lon="4.71468">
        <ele>178</ele>
        <time>2017-03-19T11:33:36Z</time>
      </trkpt>
      <trkpt lat="45.95125" lon="4.71467">
        <ele>178</ele>
        <time>2017-03-19T11:33:37Z</time>
      </trkpt>
      <trkpt lat="45.9512" lon="4.71467">
        <ele>179</ele>
        <time>2017-03-19T11:33:38Z</time>
      </trkpt>
      <trkpt lat="45.95116" lon="4.71466">
        <ele>179</ele>
        <time>2017-03-19T11:33:39Z</time>
      </trkpt>
      <trkpt lat="45.95107" lon="4.71464">
        <ele>179</ele>
        <time>2017-03-19T11:33:41Z</time>
      </trkpt>
      <trkpt lat="45.95103" lon="4.71464">
        <ele>179</ele>
        <time>2017-03-19T11:33:42Z</time>
      </trkpt>
      <trkpt lat="45.95095" lon="4.71463">
        <ele>179</ele>
        <time>2017-03-19T11:33:44Z</time>
      </trkpt>
      <trkpt lat="45.95091" lon="4.71463">
        <ele>179</ele>
        <time>2017-03-19T11:33:45Z</time>
      </trkpt>
      <trkpt lat="45.95083" lon="4.71462">
        <ele>181</ele>
        <time>2017-03-19T11:33:47Z</time>
      </trkpt>
      <trkpt lat="45.95078" lon="4.71462">
        <ele>181</ele>
        <time>2017-03-19T11:33:48Z</time>
      </trkpt>
      <trkpt lat="45.9507" lon="4.71462">
        <ele>181</ele>
        <time>2017-03-19T11:33:50Z</time>
      </trkpt>
      <trkpt lat="45.95066" lon="4.71461">
        <ele>181</ele>
        <time>2017-03-19T11:33:51Z</time>
      </trkpt>
      <trkpt lat="45.95059" lon="4.71461">
        <ele>181</ele>
        <time>2017-03-19T11:33:53Z</time>
      </trkpt>
      <trkpt lat="45.95055" lon="4.7146">
        <ele>181</ele>
        <time>2017-03-19T11:33:54Z</time>
      </trkpt>
      <trkpt lat="45.95048" lon="4.7146">
        <ele>182</ele>
        <time>2017-03-19T11:33:56Z</time>
      </trkpt>
      <trkpt lat="45.95045" lon="4.7146">
        <ele>182</ele>
        <time>2017-03-19T11:33:57Z</time>
      </trkpt>
      <trkpt lat="45.95038" lon="4.7146">
        <ele>182</ele>
        <time>2017-03-19T11:33:59Z</time>
      </trkpt>
      <trkpt lat="45.95034" lon="4.7146">
        <ele>182</ele>
        <time>2017-03-19T11:34:00Z</time>
      </trkpt>
      <trkpt lat="45.95028" lon="4.7146">
        <ele>182</ele>
        <time>2017-03-19T11:34:02Z</time>
      </trkpt>
      <trkpt lat="45.95024" lon="4.7146">
        <ele>182</ele>
        <time>2017-03-19T11:34:03Z</time>
      </trkpt>
      <trkpt lat="45.95016" lon="4.71459">
        <ele>182</ele>
        <time>2017-03-19T11:34:05Z</time>
      </trkpt>
      <trkpt lat="45.95012" lon="4.71459">
        <ele>182</ele>
        <time>2017-03-19T11:34:06Z</time>
      </trkpt>
      <trkpt lat="45.95004" lon="4.71458">
        <ele>182</ele>
        <time>2017-03-19T11:34:08Z</time>
      </trkpt>
      <trkpt lat="45.95001" lon="4.71456">
        <ele>183</ele>
        <time>2017-03-19T11:34:09Z</time>
      </trkpt>
      <trkpt lat="45.94994" lon="4.71451">
        <ele>184</ele>
        <time>2017-03-19T11:34:11Z</time>
      </trkpt>
      <trkpt lat="45.9499" lon="4.71447">
        <ele>184</ele>
        <time>2017-03-19T11:34:12Z</time>
      </trkpt>
      <trkpt lat="45.94985" lon="4.7144">
        <ele>185</ele>
        <time>2017-03-19T11:34:14Z</time>
      </trkpt>
      <trkpt lat="45.94982" lon="4.71436">
        <ele>185</ele>
        <time>2017-03-19T11:34:15Z</time>
      </trkpt>
      <trkpt lat="45.94975" lon="4.71431">
        <ele>185</ele>
        <time>2017-03-19T11:34:17Z</time>
      </trkpt>
      <trkpt lat="45.94971" lon="4.7143">
        <ele>185</ele>
        <time>2017-03-19T11:34:18Z</time>
      </trkpt>
      <trkpt lat="45.94964" lon="4.71431">
        <ele>185</ele>
        <time>2017-03-19T11:34:20Z</time>
      </trkpt>
      <trkpt lat="45.9496" lon="4.71432">
        <ele>184</ele>
        <time>2017-03-19T11:34:21Z</time>
      </trkpt>
      <trkpt lat="45.94954" lon="4.71438">
        <ele>184</ele>
        <time>2017-03-19T11:34:23Z</time>
      </trkpt>
      <trkpt lat="45.9495" lon="4.71441">
        <ele>184</ele>
        <time>2017-03-19T11:34:24Z</time>
      </trkpt>
      <trkpt lat="45.94943" lon="4.71446">
        <ele>184</ele>
        <time>2017-03-19T11:34:26Z</time>
      </trkpt>
      <trkpt lat="45.94939" lon="4.71449">
        <ele>184</ele>
        <time>2017-03-19T11:34:27Z</time>
      </trkpt>
      <trkpt lat="45.94934" lon="4.71451">
        <ele>184</ele>
        <time>2017-03-19T11:34:28Z</time>
      </trkpt>
      <trkpt lat="45.9493" lon="4.71452">
        <ele>184</ele>
        <time>2017-03-19T11:34:29Z</time>
      </trkpt>
      <trkpt lat="45.94921" lon="4.71452">
        <ele>184</ele>
        <time>2017-03-19T11:34:31Z</time>
      </trkpt>
      <trkpt lat="45.94917" lon="4.71452">
        <ele>184</ele>
        <time>2017-03-19T11:34:32Z</time>
      </trkpt>
      <trkpt lat="45.94909" lon="4.71452">
        <ele>184</ele>
        <time>2017-03-19T11:34:34Z</time>
      </trkpt>
      <trkpt lat="45.94905" lon="4.71452">
        <ele>184</ele>
        <time>2017-03-19T11:34:35Z</time>
      </trkpt>
      <trkpt lat="45.94897" lon="4.71451">
        <ele>184</ele>
        <time>2017-03-19T11:34:37Z</time>
      </trkpt>
      <trkpt lat="45.94893" lon="4.71451">
        <ele>184</ele>
        <time>2017-03-19T11:34:38Z</time>
      </trkpt>
      <trkpt lat="45.94889" lon="4.71451">
        <ele>184</ele>
        <time>2017-03-19T11:34:39Z</time>
      </trkpt>
      <trkpt lat="45.94884" lon="4.7145">
        <ele>184</ele>
        <time>2017-03-19T11:34:40Z</time>
      </trkpt>
      <trkpt lat="45.94879" lon="4.71449">
        <ele>184</ele>
        <time>2017-03-19T11:34:41Z</time>
      </trkpt>
      <trkpt lat="45.94874" lon="4.71448">
        <ele>184</ele>
        <time>2017-03-19T11:34:42Z</time>
      </trkpt>
      <trkpt lat="45.94869" lon="4.71448">
        <ele>184</ele>
        <time>2017-03-19T11:34:43Z</time>
      </trkpt>
      <trkpt lat="45.94864" lon="4.71447">
        <ele>184</ele>
        <time>2017-03-19T11:34:44Z</time>
      </trkpt>
      <trkpt lat="45.9486" lon="4.71446">
        <ele>184</ele>
        <time>2017-03-19T11:34:45Z</time>
      </trkpt>
      <trkpt lat="45.94855" lon="4.71446">
        <ele>184</ele>
        <time>2017-03-19T11:34:46Z</time>
      </trkpt>
      <trkpt lat="45.9485" lon="4.71445">
        <ele>184</ele>
        <time>2017-03-19T11:34:47Z</time>
      </trkpt>
      <trkpt lat="45.94844" lon="4.71445">
        <ele>184</ele>
        <time>2017-03-19T11:34:48Z</time>
      </trkpt>
      <trkpt lat="45.94839" lon="4.71444">
        <ele>184</ele>
        <time>2017-03-19T11:34:49Z</time>
      </trkpt>
      <trkpt lat="45.94833" lon="4.71444">
        <ele>184</ele>
        <time>2017-03-19T11:34:50Z</time>
      </trkpt>
      <trkpt lat="45.94828" lon="4.71444">
        <ele>184</ele>
        <time>2017-03-19T11:34:51Z</time>
      </trkpt>
      <trkpt lat="45.94823" lon="4.71444">
        <ele>184</ele>
        <time>2017-03-19T11:34:52Z</time>
      </trkpt>
      <trkpt lat="45.94818" lon="4.71443">
        <ele>184</ele>
        <time>2017-03-19T11:34:53Z</time>
      </trkpt>
      <trkpt lat="45.94814" lon="4.71443">
        <ele>184</ele>
        <time>2017-03-19T11:34:54Z</time>
      </trkpt>
      <trkpt lat="45.94809" lon="4.71443">
        <ele>184</ele>
        <time>2017-03-19T11:34:55Z</time>
      </trkpt>
      <trkpt lat="45.94805" lon="4.71442">
        <ele>184</ele>
        <time>2017-03-19T11:34:56Z</time>
      </trkpt>
      <trkpt lat="45.948" lon="4.71442">
        <ele>184</ele>
        <time>2017-03-19T11:34:57Z</time>
      </trkpt>
      <trkpt lat="45.94795" lon="4.71442">
        <ele>184</ele>
        <time>2017-03-19T11:34:58Z</time>
      </trkpt>
      <trkpt lat="45.94791" lon="4.71442">
        <ele>184</ele>
        <time>2017-03-19T11:34:59Z</time>
      </trkpt>
      <trkpt lat="45.94786" lon="4.71441">
        <ele>184</ele>
        <time>2017-03-19T11:35:00Z</time>
      </trkpt>
      <trkpt lat="45.94781" lon="4.71441">
        <ele>184</ele>
        <time>2017-03-19T11:35:01Z</time>
      </trkpt>
      <trkpt lat="45.94777" lon="4.7144">
        <ele>184</ele>
        <time>2017-03-19T11:35:02Z</time>
      </trkpt>
      <trkpt lat="45.94772" lon="4.7144">
        <ele>184</ele>
        <time>2017-03-19T11:35:03Z</time>
      </trkpt>
      <trkpt lat="45.94767" lon="4.7144">
        <ele>184</ele>
        <time>2017-03-19T11:35:04Z</time>
      </trkpt>
      <trkpt lat="45.94762" lon="4.71439">
        <ele>184</ele>
        <time>2017-03-19T11:35:05Z</time>
      </trkpt>
      <trkpt lat="45.94757" lon="4.71439">
        <ele>184</ele>
        <time>2017-03-19T11:35:06Z</time>
      </trkpt>
      <trkpt lat="45.94751" lon="4.71438">
        <ele>184</ele>
        <time>2017-03-19T11:35:07Z</time>
      </trkpt>
      <trkpt lat="45.94745" lon="4.71438">
        <ele>183</ele>
        <time>2017-03-19T11:35:08Z</time>
      </trkpt>
      <trkpt lat="45.94739" lon="4.71438">
        <ele>183</ele>
        <time>2017-03-19T11:35:09Z</time>
      </trkpt>
      <trkpt lat="45.94733" lon="4.71438">
        <ele>183</ele>
        <time>2017-03-19T11:35:10Z</time>
      </trkpt>
      <trkpt lat="45.94728" lon="4.71438">
        <ele>183</ele>
        <time>2017-03-19T11:35:11Z</time>
      </trkpt>
      <trkpt lat="45.94723" lon="4.71437">
        <ele>183</ele>
        <time>2017-03-19T11:35:12Z</time>
      </trkpt>
      <trkpt lat="45.94718" lon="4.71437">
        <ele>183</ele>
        <time>2017-03-19T11:35:13Z</time>
      </trkpt>
      <trkpt lat="45.94713" lon="4.71436">
        <ele>182</ele>
        <time>2017-03-19T11:35:14Z</time>
      </trkpt>
      <trkpt lat="45.94704" lon="4.71436">
        <ele>182</ele>
        <time>2017-03-19T11:35:16Z</time>
      </trkpt>
      <trkpt lat="45.94699" lon="4.71436">
        <ele>182</ele>
        <time>2017-03-19T11:35:17Z</time>
      </trkpt>
      <trkpt lat="45.94694" lon="4.71436">
        <ele>182</ele>
        <time>2017-03-19T11:35:18Z</time>
      </trkpt>
      <trkpt lat="45.94689" lon="4.71436">
        <ele>182</ele>
        <time>2017-03-19T11:35:19Z</time>
      </trkpt>
      <trkpt lat="45.94683" lon="4.71436">
        <ele>182</ele>
        <time>2017-03-19T11:35:20Z</time>
      </trkpt>
      <trkpt lat="45.94679" lon="4.71435">
        <ele>182</ele>
        <time>2017-03-19T11:35:21Z</time>
      </trkpt>
      <trkpt lat="45.94673" lon="4.71435">
        <ele>183</ele>
        <time>2017-03-19T11:35:22Z</time>
      </trkpt>
      <trkpt lat="45.94668" lon="4.71435">
        <ele>183</ele>
        <time>2017-03-19T11:35:23Z</time>
      </trkpt>
      <trkpt lat="45.94663" lon="4.71434">
        <ele>182</ele>
        <time>2017-03-19T11:35:24Z</time>
      </trkpt>
      <trkpt lat="45.94657" lon="4.71433">
        <ele>182</ele>
        <time>2017-03-19T11:35:25Z</time>
      </trkpt>
      <trkpt lat="45.94652" lon="4.71433">
        <ele>182</ele>
        <time>2017-03-19T11:35:26Z</time>
      </trkpt>
      <trkpt lat="45.94646" lon="4.71433">
        <ele>182</ele>
        <time>2017-03-19T11:35:27Z</time>
      </trkpt>
      <trkpt lat="45.94641" lon="4.71432">
        <ele>182</ele>
        <time>2017-03-19T11:35:28Z</time>
      </trkpt>
      <trkpt lat="45.94636" lon="4.71431">
        <ele>182</ele>
        <time>2017-03-19T11:35:29Z</time>
      </trkpt>
      <trkpt lat="45.94631" lon="4.71431">
        <ele>182</ele>
        <time>2017-03-19T11:35:30Z</time>
      </trkpt>
      <trkpt lat="45.94625" lon="4.7143">
        <ele>182</ele>
        <time>2017-03-19T11:35:31Z</time>
      </trkpt>
      <trkpt lat="45.94619" lon="4.7143">
        <ele>182</ele>
        <time>2017-03-19T11:35:32Z</time>
      </trkpt>
      <trkpt lat="45.94614" lon="4.7143">
        <ele>182</ele>
        <time>2017-03-19T11:35:33Z</time>
      </trkpt>
      <trkpt lat="45.94609" lon="4.7143">
        <ele>182</ele>
        <time>2017-03-19T11:35:34Z</time>
      </trkpt>
      <trkpt lat="45.94603" lon="4.71429">
        <ele>182</ele>
        <time>2017-03-19T11:35:35Z</time>
      </trkpt>
      <trkpt lat="45.94598" lon="4.71429">
        <ele>183</ele>
        <time>2017-03-19T11:35:36Z</time>
      </trkpt>
      <trkpt lat="45.94592" lon="4.71429">
        <ele>183</ele>
        <time>2017-03-19T11:35:37Z</time>
      </trkpt>
      <trkpt lat="45.94587" lon="4.71429">
        <ele>183</ele>
        <time>2017-03-19T11:35:38Z</time>
      </trkpt>
      <trkpt lat="45.94581" lon="4.7143">
        <ele>183</ele>
        <time>2017-03-19T11:35:39Z</time>
      </trkpt>
      <trkpt lat="45.94575" lon="4.7143">
        <ele>183</ele>
        <time>2017-03-19T11:35:40Z</time>
      </trkpt>
      <trkpt lat="45.94569" lon="4.71431">
        <ele>182</ele>
        <time>2017-03-19T11:35:41Z</time>
      </trkpt>
      <trkpt lat="45.94563" lon="4.71432">
        <ele>182</ele>
        <time>2017-03-19T11:35:42Z</time>
      </trkpt>
      <trkpt lat="45.94556" lon="4.71433">
        <ele>181</ele>
        <time>2017-03-19T11:35:43Z</time>
      </trkpt>
      <trkpt lat="45.9455" lon="4.71435">
        <ele>181</ele>
        <time>2017-03-19T11:35:44Z</time>
      </trkpt>
      <trkpt lat="45.94544" lon="4.71437">
        <ele>181</ele>
        <time>2017-03-19T11:35:45Z</time>
      </trkpt>
      <trkpt lat="45.94538" lon="4.71439">
        <ele>181</ele>
        <time>2017-03-19T11:35:46Z</time>
      </trkpt>
      <trkpt lat="45.94532" lon="4.71441">
        <ele>181</ele>
        <time>2017-03-19T11:35:47Z</time>
      </trkpt>
      <trkpt lat="45.94525" lon="4.71443">
        <ele>180</ele>
        <time>2017-03-19T11:35:48Z</time>
      </trkpt>
      <trkpt lat="45.94519" lon="4.71446">
        <ele>180</ele>
        <time>2017-03-19T11:35:49Z</time>
      </trkpt>
      <trkpt lat="45.94513" lon="4.71449">
        <ele>180</ele>
        <time>2017-03-19T11:35:50Z</time>
      </trkpt>
      <trkpt lat="45.94506" lon="4.71451">
        <ele>180</ele>
        <time>2017-03-19T11:35:51Z</time>
      </trkpt>
      <trkpt lat="45.94499" lon="4.71454">
        <ele>179</ele>
        <time>2017-03-19T11:35:52Z</time>
      </trkpt>
      <trkpt lat="45.94492" lon="4.71456">
        <ele>179</ele>
        <time>2017-03-19T11:35:53Z</time>
      </trkpt>
      <trkpt lat="45.94485" lon="4.71459">
        <ele>179</ele>
        <time>2017-03-19T11:35:54Z</time>
      </trkpt>
      <trkpt lat="45.94478" lon="4.71463">
        <ele>179</ele>
        <time>2017-03-19T11:35:55Z</time>
      </trkpt>
      <trkpt lat="45.94471" lon="4.71466">
        <ele>179</ele>
        <time>2017-03-19T11:35:56Z</time>
      </trkpt>
      <trkpt lat="45.94463" lon="4.71469">
        <ele>179</ele>
        <time>2017-03-19T11:35:57Z</time>
      </trkpt>
      <trkpt lat="45.94456" lon="4.71471">
        <ele>179</ele>
        <time>2017-03-19T11:35:58Z</time>
      </trkpt>
      <trkpt lat="45.94448" lon="4.71474">
        <ele>179</ele>
        <time>2017-03-19T11:35:59Z</time>
      </trkpt>
      <trkpt lat="45.94441" lon="4.71477">
        <ele>179</ele>
        <time>2017-03-19T11:36:00Z</time>
      </trkpt>
      <trkpt lat="45.94434" lon="4.7148">
        <ele>179</ele>
        <time>2017-03-19T11:36:01Z</time>
      </trkpt>
      <trkpt lat="45.94427" lon="4.71483">
        <ele>178</ele>
        <time>2017-03-19T11:36:02Z</time>
      </trkpt>
      <trkpt lat="45.9442" lon="4.71486">
        <ele>178</ele>
        <time>2017-03-19T11:36:03Z</time>
      </trkpt>
      <trkpt lat="45.94413" lon="4.71488">
        <ele>178</ele>
        <time>2017-03-19T11:36:04Z</time>
      </trkpt>
      <trkpt lat="45.94406" lon="4.71491">
        <ele>178</ele>
        <time>2017-03-19T11:36:05Z</time>
      </trkpt>
      <trkpt lat="45.944" lon="4.71493">
        <ele>178</ele>
        <time>2017-03-19T11:36:06Z</time>
      </trkpt>
      <trkpt lat="45.94392" lon="4.71496">
        <ele>177</ele>
        <time>2017-03-19T11:36:07Z</time>
      </trkpt>
      <trkpt lat="45.94385" lon="4.71499">
        <ele>177</ele>
        <time>2017-03-19T11:36:08Z</time>
      </trkpt>
      <trkpt lat="45.94377" lon="4.71502">
        <ele>177</ele>
        <time>2017-03-19T11:36:09Z</time>
      </trkpt>
      <trkpt lat="45.94369" lon="4.71505">
        <ele>176</ele>
        <time>2017-03-19T11:36:10Z</time>
      </trkpt>
      <trkpt lat="45.94362" lon="4.71508">
        <ele>176</ele>
        <time>2017-03-19T11:36:11Z</time>
      </trkpt>
      <trkpt lat="45.94355" lon="4.71511">
        <ele>176</ele>
        <time>2017-03-19T11:36:12Z</time>
      </trkpt>
      <trkpt lat="45.94348" lon="4.71514">
        <ele>176</ele>
        <time>2017-03-19T11:36:13Z</time>
      </trkpt>
      <trkpt lat="45.94341" lon="4.71516">
        <ele>176</ele>
        <time>2017-03-19T11:36:14Z</time>
      </trkpt>
      <trkpt lat="45.94334" lon="4.71519">
        <ele>176</ele>
        <time>2017-03-19T11:36:15Z</time>
      </trkpt>
      <trkpt lat="45.94327" lon="4.71522">
        <ele>176</ele>
        <time>2017-03-19T11:36:16Z</time>
      </trkpt>
      <trkpt lat="45.9432" lon="4.71525">
        <ele>176</ele>
        <time>2017-03-19T11:36:17Z</time>
      </trkpt>
      <trkpt lat="45.94313" lon="4.71529">
        <ele>175</ele>
        <time>2017-03-19T11:36:18Z</time>
      </trkpt>
      <trkpt lat="45.94306" lon="4.7153">
        <ele>175</ele>
        <time>2017-03-19T11:36:19Z</time>
      </trkpt>
      <trkpt lat="45.94299" lon="4.71532">
        <ele>175</ele>
        <time>2017-03-19T11:36:20Z</time>
      </trkpt>
      <trkpt lat="45.94292" lon="4.71535">
        <ele>175</ele>
        <time>2017-03-19T11:36:21Z</time>
      </trkpt>
      <trkpt lat="45.94285" lon="4.71538">
        <ele>175</ele>
        <time>2017-03-19T11:36:22Z</time>
      </trkpt>
      <trkpt lat="45.94279" lon="4.7154">
        <ele>175</ele>
        <time>2017-03-19T11:36:23Z</time>
      </trkpt>
      <trkpt lat="45.94272" lon="4.71543">
        <ele>175</ele>
        <time>2017-03-19T11:36:24Z</time>
      </trkpt>
      <trkpt lat="45.94265" lon="4.71545">
        <ele>175</ele>
        <time>2017-03-19T11:36:25Z</time>
      </trkpt>
      <trkpt lat="45.94259" lon="4.71548">
        <ele>175</ele>
        <time>2017-03-19T11:36:26Z</time>
      </trkpt>
      <trkpt lat="45.94252" lon="4.71551">
        <ele>175</ele>
        <time>2017-03-19T11:36:27Z</time>
      </trkpt>
      <trkpt lat="45.94246" lon="4.71553">
        <ele>174</ele>
        <time>2017-03-19T11:36:28Z</time>
      </trkpt>
      <trkpt lat="45.9424" lon="4.71556">
        <ele>174</ele>
        <time>2017-03-19T11:36:29Z</time>
      </trkpt>
      <trkpt lat="45.94233" lon="4.71558">
        <ele>174</ele>
        <time>2017-03-19T11:36:30Z</time>
      </trkpt>
      <trkpt lat="45.94227" lon="4.71561">
        <ele>174</ele>
        <time>2017-03-19T11:36:31Z</time>
      </trkpt>
      <trkpt lat="45.94221" lon="4.71563">
        <ele>174</ele>
        <time>2017-03-19T11:36:32Z</time>
      </trkpt>
      <trkpt lat="45.94215" lon="4.71565">
        <ele>174</ele>
        <time>2017-03-19T11:36:33Z</time>
      </trkpt>
      <trkpt lat="45.94209" lon="4.71568">
        <ele>174</ele>
        <time>2017-03-19T11:36:34Z</time>
      </trkpt>
      <trkpt lat="45.94203" lon="4.7157">
        <ele>174</ele>
        <time>2017-03-19T11:36:35Z</time>
      </trkpt>
      <trkpt lat="45.94197" lon="4.71572">
        <ele>174</ele>
        <time>2017-03-19T11:36:36Z</time>
      </trkpt>
      <trkpt lat="45.9419" lon="4.71575">
        <ele>174</ele>
        <time>2017-03-19T11:36:37Z</time>
      </trkpt>
      <trkpt lat="45.94184" lon="4.71578">
        <ele>174</ele>
        <time>2017-03-19T11:36:38Z</time>
      </trkpt>
      <trkpt lat="45.94177" lon="4.7158">
        <ele>174</ele>
        <time>2017-03-19T11:36:39Z</time>
      </trkpt>
      <trkpt lat="45.9417" lon="4.71582">
        <ele>174</ele>
        <time>2017-03-19T11:36:40Z</time>
      </trkpt>
      <trkpt lat="45.94163" lon="4.71586">
        <ele>174</ele>
        <time>2017-03-19T11:36:41Z</time>
      </trkpt>
      <trkpt lat="45.94157" lon="4.71588">
        <ele>174</ele>
        <time>2017-03-19T11:36:42Z</time>
      </trkpt>
      <trkpt lat="45.9415" lon="4.7159">
        <ele>173</ele>
        <time>2017-03-19T11:36:43Z</time>
      </trkpt>
      <trkpt lat="45.94144" lon="4.71592">
        <ele>173</ele>
        <time>2017-03-19T11:36:44Z</time>
      </trkpt>
      <trkpt lat="45.94138" lon="4.71594">
        <ele>173</ele>
        <time>2017-03-19T11:36:45Z</time>
      </trkpt>
      <trkpt lat="45.94133" lon="4.71596">
        <ele>173</ele>
        <time>2017-03-19T11:36:46Z</time>
      </trkpt>
      <trkpt lat="45.94127" lon="4.71599">
        <ele>173</ele>
        <time>2017-03-19T11:36:47Z</time>
      </trkpt>
      <trkpt lat="45.94122" lon="4.71601">
        <ele>173</ele>
        <time>2017-03-19T11:36:48Z</time>
      </trkpt>
      <trkpt lat="45.94116" lon="4.71603">
        <ele>173</ele>
        <time>2017-03-19T11:36:49Z</time>
      </trkpt>
      <trkpt lat="45.94111" lon="4.71604">
        <ele>173</ele>
        <time>2017-03-19T11:36:50Z</time>
      </trkpt>
      <trkpt lat="45.94105" lon="4.71606">
        <ele>173</ele>
        <time>2017-03-19T11:36:51Z</time>
      </trkpt>
      <trkpt lat="45.941" lon="4.71608">
        <ele>173</ele>
        <time>2017-03-19T11:36:52Z</time>
      </trkpt>
      <trkpt lat="45.94095" lon="4.71611">
        <ele>173</ele>
        <time>2017-03-19T11:36:53Z</time>
      </trkpt>
      <trkpt lat="45.94089" lon="4.71613">
        <ele>173</ele>
        <time>2017-03-19T11:36:54Z</time>
      </trkpt>
      <trkpt lat="45.94084" lon="4.71616">
        <ele>173</ele>
        <time>2017-03-19T11:36:55Z</time>
      </trkpt>
      <trkpt lat="45.94078" lon="4.71619">
        <ele>174</ele>
        <time>2017-03-19T11:36:56Z</time>
      </trkpt>
      <trkpt lat="45.94072" lon="4.71621">
        <ele>174</ele>
        <time>2017-03-19T11:36:57Z</time>
      </trkpt>
      <trkpt lat="45.94065" lon="4.71624">
        <ele>174</ele>
        <time>2017-03-19T11:36:58Z</time>
      </trkpt>
      <trkpt lat="45.94059" lon="4.71626">
        <ele>174</ele>
        <time>2017-03-19T11:36:59Z</time>
      </trkpt>
      <trkpt lat="45.94053" lon="4.71628">
        <ele>175</ele>
        <time>2017-03-19T11:37:00Z</time>
      </trkpt>
      <trkpt lat="45.94047" lon="4.71631">
        <ele>175</ele>
        <time>2017-03-19T11:37:01Z</time>
      </trkpt>
      <trkpt lat="45.94041" lon="4.71633">
        <ele>175</ele>
        <time>2017-03-19T11:37:02Z</time>
      </trkpt>
      <trkpt lat="45.94036" lon="4.71636">
        <ele>175</ele>
        <time>2017-03-19T11:37:03Z</time>
      </trkpt>
      <trkpt lat="45.9403" lon="4.71639">
        <ele>175</ele>
        <time>2017-03-19T11:37:04Z</time>
      </trkpt>
      <trkpt lat="45.94025" lon="4.71641">
        <ele>175</ele>
        <time>2017-03-19T11:37:05Z</time>
      </trkpt>
      <trkpt lat="45.94019" lon="4.71643">
        <ele>175</ele>
        <time>2017-03-19T11:37:06Z</time>
      </trkpt>
      <trkpt lat="45.94014" lon="4.71647">
        <ele>176</ele>
        <time>2017-03-19T11:37:07Z</time>
      </trkpt>
      <trkpt lat="45.94008" lon="4.7165">
        <ele>176</ele>
        <time>2017-03-19T11:37:08Z</time>
      </trkpt>
      <trkpt lat="45.94003" lon="4.71652">
        <ele>176</ele>
        <time>2017-03-19T11:37:09Z</time>
      </trkpt>
      <trkpt lat="45.93996" lon="4.71654">
        <ele>177</ele>
        <time>2017-03-19T11:37:10Z</time>
      </trkpt>
      <trkpt lat="45.9399" lon="4.71656">
        <ele>177</ele>
        <time>2017-03-19T11:37:11Z</time>
      </trkpt>
      <trkpt lat="45.93985" lon="4.71658">
        <ele>177</ele>
        <time>2017-03-19T11:37:12Z</time>
      </trkpt>
      <trkpt lat="45.93979" lon="4.7166">
        <ele>177</ele>
        <time>2017-03-19T11:37:13Z</time>
      </trkpt>
      <trkpt lat="45.93973" lon="4.71663">
        <ele>177</ele>
        <time>2017-03-19T11:37:14Z</time>
      </trkpt>
      <trkpt lat="45.93967" lon="4.71665">
        <ele>177</ele>
        <time>2017-03-19T11:37:15Z</time>
      </trkpt>
      <trkpt lat="45.93962" lon="4.71666">
        <ele>177</ele>
        <time>2017-03-19T11:37:16Z</time>
      </trkpt>
      <trkpt lat="45.93956" lon="4.71668">
        <ele>175</ele>
        <time>2017-03-19T11:37:17Z</time>
      </trkpt>
      <trkpt lat="45.93951" lon="4.71669">
        <ele>175</ele>
        <time>2017-03-19T11:37:18Z</time>
      </trkpt>
      <trkpt lat="45.93944" lon="4.71671">
        <ele>175</ele>
        <time>2017-03-19T11:37:19Z</time>
      </trkpt>
      <trkpt lat="45.93938" lon="4.71673">
        <ele>175</ele>
        <time>2017-03-19T11:37:20Z</time>
      </trkpt>
      <trkpt lat="45.93932" lon="4.71675">
        <ele>175</ele>
        <time>2017-03-19T11:37:21Z</time>
      </trkpt>
      <trkpt lat="45.93926" lon="4.71677">
        <ele>175</ele>
        <time>2017-03-19T11:37:22Z</time>
      </trkpt>
      <trkpt lat="45.93921" lon="4.71679">
        <ele>175</ele>
        <time>2017-03-19T11:37:23Z</time>
      </trkpt>
      <trkpt lat="45.93915" lon="4.71681">
        <ele>175</ele>
        <time>2017-03-19T11:37:24Z</time>
      </trkpt>
      <trkpt lat="45.9391" lon="4.71683">
        <ele>175</ele>
        <time>2017-03-19T11:37:25Z</time>
      </trkpt>
      <trkpt lat="45.93905" lon="4.71685">
        <ele>174</ele>
        <time>2017-03-19T11:37:26Z</time>
      </trkpt>
      <trkpt lat="45.93899" lon="4.71687">
        <ele>174</ele>
        <time>2017-03-19T11:37:27Z</time>
      </trkpt>
      <trkpt lat="45.93893" lon="4.7169">
        <ele>174</ele>
        <time>2017-03-19T11:37:28Z</time>
      </trkpt>
      <trkpt lat="45.93888" lon="4.71691">
        <ele>174</ele>
        <time>2017-03-19T11:37:29Z</time>
      </trkpt>
      <trkpt lat="45.93882" lon="4.71693">
        <ele>174</ele>
        <time>2017-03-19T11:37:30Z</time>
      </trkpt>
      <trkpt lat="45.93877" lon="4.71695">
        <ele>174</ele>
        <time>2017-03-19T11:37:31Z</time>
      </trkpt>
      <trkpt lat="45.93872" lon="4.71697">
        <ele>174</ele>
        <time>2017-03-19T11:37:32Z</time>
      </trkpt>
      <trkpt lat="45.93867" lon="4.71699">
        <ele>174</ele>
        <time>2017-03-19T11:37:33Z</time>
      </trkpt>
      <trkpt lat="45.93862" lon="4.71701">
        <ele>174</ele>
        <time>2017-03-19T11:37:34Z</time>
      </trkpt>
      <trkpt lat="45.93857" lon="4.71703">
        <ele>174</ele>
        <time>2017-03-19T11:37:35Z</time>
      </trkpt>
      <trkpt lat="45.93853" lon="4.71706">
        <ele>174</ele>
        <time>2017-03-19T11:37:36Z</time>
      </trkpt>
      <trkpt lat="45.93848" lon="4.71707">
        <ele>174</ele>
        <time>2017-03-19T11:37:37Z</time>
      </trkpt>
      <trkpt lat="45.9384" lon="4.7171">
        <ele>175</ele>
        <time>2017-03-19T11:37:39Z</time>
      </trkpt>
      <trkpt lat="45.93836" lon="4.71712">
        <ele>175</ele>
        <time>2017-03-19T11:37:40Z</time>
      </trkpt>
      <trkpt lat="45.93832" lon="4.71714">
        <ele>175</ele>
        <time>2017-03-19T11:37:41Z</time>
      </trkpt>
      <trkpt lat="45.93825" lon="4.71717">
        <ele>175</ele>
        <time>2017-03-19T11:37:42Z</time>
      </trkpt>
      <trkpt lat="45.93819" lon="4.7172">
        <ele>175</ele>
        <time>2017-03-19T11:37:43Z</time>
      </trkpt>
      <trkpt lat="45.93814" lon="4.71723">
        <ele>175</ele>
        <time>2017-03-19T11:37:44Z</time>
      </trkpt>
      <trkpt lat="45.93807" lon="4.71725">
        <ele>175</ele>
        <time>2017-03-19T11:37:45Z</time>
      </trkpt>
      <trkpt lat="45.93801" lon="4.71728">
        <ele>175</ele>
        <time>2017-03-19T11:37:46Z</time>
      </trkpt>
      <trkpt lat="45.93795" lon="4.71731">
        <ele>175</ele>
        <time>2017-03-19T11:37:47Z</time>
      </trkpt>
      <trkpt lat="45.9379" lon="4.71734">
        <ele>175</ele>
        <time>2017-03-19T11:37:48Z</time>
      </trkpt>
      <trkpt lat="45.93785" lon="4.71736">
        <ele>175</ele>
        <time>2017-03-19T11:37:49Z</time>
      </trkpt>
      <trkpt lat="45.93781" lon="4.71738">
        <ele>175</ele>
        <time>2017-03-19T11:37:50Z</time>
      </trkpt>
      <trkpt lat="45.93776" lon="4.71739">
        <ele>175</ele>
        <time>2017-03-19T11:37:51Z</time>
      </trkpt>
      <trkpt lat="45.93769" lon="4.71741">
        <ele>175</ele>
        <time>2017-03-19T11:37:52Z</time>
      </trkpt>
      <trkpt lat="45.93764" lon="4.71743">
        <ele>175</ele>
        <time>2017-03-19T11:37:53Z</time>
      </trkpt>
      <trkpt lat="45.93759" lon="4.71745">
        <ele>175</ele>
        <time>2017-03-19T11:37:54Z</time>
      </trkpt>
      <trkpt lat="45.93753" lon="4.71746">
        <ele>175</ele>
        <time>2017-03-19T11:37:55Z</time>
      </trkpt>
      <trkpt lat="45.93749" lon="4.71748">
        <ele>175</ele>
        <time>2017-03-19T11:37:56Z</time>
      </trkpt>
      <trkpt lat="45.93744" lon="4.71749">
        <ele>175</ele>
        <time>2017-03-19T11:37:57Z</time>
      </trkpt>
      <trkpt lat="45.93739" lon="4.71751">
        <ele>175</ele>
        <time>2017-03-19T11:37:58Z</time>
      </trkpt>
      <trkpt lat="45.93732" lon="4.71755">
        <ele>176</ele>
        <time>2017-03-19T11:38:00Z</time>
      </trkpt>
      <trkpt lat="45.93728" lon="4.71758">
        <ele>176</ele>
        <time>2017-03-19T11:38:01Z</time>
      </trkpt>
      <trkpt lat="45.93722" lon="4.71764">
        <ele>176</ele>
        <time>2017-03-19T11:38:03Z</time>
      </trkpt>
      <trkpt lat="45.93719" lon="4.71768">
        <ele>176</ele>
        <time>2017-03-19T11:38:04Z</time>
      </trkpt>
      <trkpt lat="45.93716" lon="4.71774">
        <ele>176</ele>
        <time>2017-03-19T11:38:05Z</time>
      </trkpt>
      <trkpt lat="45.93714" lon="4.7178">
        <ele>176</ele>
        <time>2017-03-19T11:38:06Z</time>
      </trkpt>
      <trkpt lat="45.93712" lon="4.71787">
        <ele>176</ele>
        <time>2017-03-19T11:38:07Z</time>
      </trkpt>
      <trkpt lat="45.9371" lon="4.71795">
        <ele>176</ele>
        <time>2017-03-19T11:38:08Z</time>
      </trkpt>
      <trkpt lat="45.93708" lon="4.71803">
        <ele>176</ele>
        <time>2017-03-19T11:38:09Z</time>
      </trkpt>
      <trkpt lat="45.93706" lon="4.71811">
        <ele>176</ele>
        <time>2017-03-19T11:38:10Z</time>
      </trkpt>
      <trkpt lat="45.93704" lon="4.71818">
        <ele>176</ele>
        <time>2017-03-19T11:38:11Z</time>
      </trkpt>
      <trkpt lat="45.93701" lon="4.71826">
        <ele>176</ele>
        <time>2017-03-19T11:38:12Z</time>
      </trkpt>
      <trkpt lat="45.93698" lon="4.71833">
        <ele>176</ele>
        <time>2017-03-19T11:38:13Z</time>
      </trkpt>
      <trkpt lat="45.93695" lon="4.71841">
        <ele>175</ele>
        <time>2017-03-19T11:38:14Z</time>
      </trkpt>
      <trkpt lat="45.93692" lon="4.71848">
        <ele>175</ele>
        <time>2017-03-19T11:38:15Z</time>
      </trkpt>
      <trkpt lat="45.93689" lon="4.71856">
        <ele>175</ele>
        <time>2017-03-19T11:38:16Z</time>
      </trkpt>
      <trkpt lat="45.93686" lon="4.71862">
        <ele>175</ele>
        <time>2017-03-19T11:38:17Z</time>
      </trkpt>
      <trkpt lat="45.93683" lon="4.71869">
        <ele>175</ele>
        <time>2017-03-19T11:38:18Z</time>
      </trkpt>
      <trkpt lat="45.9368" lon="4.71875">
        <ele>175</ele>
        <time>2017-03-19T11:38:19Z</time>
      </trkpt>
      <trkpt lat="45.93677" lon="4.71883">
        <ele>175</ele>
        <time>2017-03-19T11:38:20Z</time>
      </trkpt>
      <trkpt lat="45.93674" lon="4.7189">
        <ele>175</ele>
        <time>2017-03-19T11:38:21Z</time>
      </trkpt>
      <trkpt lat="45.93671" lon="4.71898">
        <ele>175</ele>
        <time>2017-03-19T11:38:22Z</time>
      </trkpt>
      <trkpt lat="45.93668" lon="4.71906">
        <ele>175</ele>
        <time>2017-03-19T11:38:23Z</time>
      </trkpt>
      <trkpt lat="45.93666" lon="4.71914">
        <ele>175</ele>
        <time>2017-03-19T11:38:24Z</time>
      </trkpt>
      <trkpt lat="45.93664" lon="4.71922">
        <ele>175</ele>
        <time>2017-03-19T11:38:25Z</time>
      </trkpt>
      <trkpt lat="45.93662" lon="4.71929">
        <ele>175</ele>
        <time>2017-03-19T11:38:26Z</time>
      </trkpt>
      <trkpt lat="45.9366" lon="4.71937">
        <ele>175</ele>
        <time>2017-03-19T11:38:27Z</time>
      </trkpt>
      <trkpt lat="45.93657" lon="4.71944">
        <ele>175</ele>
        <time>2017-03-19T11:38:28Z</time>
      </trkpt>
      <trkpt lat="45.93655" lon="4.71951">
        <ele>175</ele>
        <time>2017-03-19T11:38:29Z</time>
      </trkpt>
      <trkpt lat="45.93652" lon="4.71958">
        <ele>175</ele>
        <time>2017-03-19T11:38:30Z</time>
      </trkpt>
      <trkpt lat="45.9365" lon="4.71965">
        <ele>175</ele>
        <time>2017-03-19T11:38:31Z</time>
      </trkpt>
      <trkpt lat="45.93647" lon="4.71972">
        <ele>175</ele>
        <time>2017-03-19T11:38:32Z</time>
      </trkpt>
      <trkpt lat="45.93644" lon="4.71979">
        <ele>175</ele>
        <time>2017-03-19T11:38:33Z</time>
      </trkpt>
      <trkpt lat="45.93642" lon="4.71986">
        <ele>175</ele>
        <time>2017-03-19T11:38:34Z</time>
      </trkpt>
      <trkpt lat="45.93639" lon="4.71992">
        <ele>175</ele>
        <time>2017-03-19T11:38:35Z</time>
      </trkpt>
      <trkpt lat="45.93637" lon="4.71998">
        <ele>175</ele>
        <time>2017-03-19T11:38:36Z</time>
      </trkpt>
      <trkpt lat="45.93634" lon="4.72004">
        <ele>174</ele>
        <time>2017-03-19T11:38:37Z</time>
      </trkpt>
      <trkpt lat="45.93632" lon="4.72011">
        <ele>174</ele>
        <time>2017-03-19T11:38:38Z</time>
      </trkpt>
      <trkpt lat="45.9363" lon="4.72017">
        <ele>174</ele>
        <time>2017-03-19T11:38:39Z</time>
      </trkpt>
      <trkpt lat="45.93627" lon="4.72025">
        <ele>175</ele>
        <time>2017-03-19T11:38:40Z</time>
      </trkpt>
      <trkpt lat="45.93625" lon="4.72032">
        <ele>175</ele>
        <time>2017-03-19T11:38:41Z</time>
      </trkpt>
      <trkpt lat="45.93622" lon="4.7204">
        <ele>175</ele>
        <time>2017-03-19T11:38:42Z</time>
      </trkpt>
      <trkpt lat="45.93619" lon="4.72049">
        <ele>175</ele>
        <time>2017-03-19T11:38:43Z</time>
      </trkpt>
      <trkpt lat="45.93616" lon="4.72056">
        <ele>175</ele>
        <time>2017-03-19T11:38:44Z</time>
      </trkpt>
      <trkpt lat="45.93613" lon="4.72064">
        <ele>175</ele>
        <time>2017-03-19T11:38:45Z</time>
      </trkpt>
      <trkpt lat="45.9361" lon="4.72071">
        <ele>175</ele>
        <time>2017-03-19T11:38:46Z</time>
      </trkpt>
      <trkpt lat="45.93607" lon="4.72079">
        <ele>175</ele>
        <time>2017-03-19T11:38:47Z</time>
      </trkpt>
      <trkpt lat="45.93605" lon="4.72087">
        <ele>174</ele>
        <time>2017-03-19T11:38:48Z</time>
      </trkpt>
      <trkpt lat="45.93602" lon="4.72094">
        <ele>174</ele>
        <time>2017-03-19T11:38:49Z</time>
      </trkpt>
      <trkpt lat="45.936" lon="4.72101">
        <ele>174</ele>
        <time>2017-03-19T11:38:50Z</time>
      </trkpt>
      <trkpt lat="45.93597" lon="4.72107">
        <ele>174</ele>
        <time>2017-03-19T11:38:51Z</time>
      </trkpt>
      <trkpt lat="45.93594" lon="4.72114">
        <ele>174</ele>
        <time>2017-03-19T11:38:52Z</time>
      </trkpt>
      <trkpt lat="45.93592" lon="4.72119">
        <ele>174</ele>
        <time>2017-03-19T11:38:53Z</time>
      </trkpt>
      <trkpt lat="45.93589" lon="4.72125">
        <ele>174</ele>
        <time>2017-03-19T11:38:54Z</time>
      </trkpt>
      <trkpt lat="45.93586" lon="4.72131">
        <ele>174</ele>
        <time>2017-03-19T11:38:55Z</time>
      </trkpt>
      <trkpt lat="45.93584" lon="4.72137">
        <ele>173</ele>
        <time>2017-03-19T11:38:56Z</time>
      </trkpt>
      <trkpt lat="45.93582" lon="4.72144">
        <ele>174</ele>
        <time>2017-03-19T11:38:57Z</time>
      </trkpt>
      <trkpt lat="45.93579" lon="4.72151">
        <ele>174</ele>
        <time>2017-03-19T11:38:58Z</time>
      </trkpt>
      <trkpt lat="45.93576" lon="4.72159">
        <ele>174</ele>
        <time>2017-03-19T11:38:59Z</time>
      </trkpt>
      <trkpt lat="45.93573" lon="4.72166">
        <ele>173</ele>
        <time>2017-03-19T11:39:00Z</time>
      </trkpt>
      <trkpt lat="45.93569" lon="4.72172">
        <ele>173</ele>
        <time>2017-03-19T11:39:01Z</time>
      </trkpt>
      <trkpt lat="45.93566" lon="4.72179">
        <ele>173</ele>
        <time>2017-03-19T11:39:02Z</time>
      </trkpt>
      <trkpt lat="45.93564" lon="4.72186">
        <ele>173</ele>
        <time>2017-03-19T11:39:03Z</time>
      </trkpt>
      <trkpt lat="45.93561" lon="4.72192">
        <ele>173</ele>
        <time>2017-03-19T11:39:04Z</time>
      </trkpt>
      <trkpt lat="45.93557" lon="4.72199">
        <ele>173</ele>
        <time>2017-03-19T11:39:05Z</time>
      </trkpt>
      <trkpt lat="45.93554" lon="4.72207">
        <ele>173</ele>
        <time>2017-03-19T11:39:06Z</time>
      </trkpt>
      <trkpt lat="45.93551" lon="4.72214">
        <ele>173</ele>
        <time>2017-03-19T11:39:07Z</time>
      </trkpt>
      <trkpt lat="45.93548" lon="4.72221">
        <ele>172</ele>
        <time>2017-03-19T11:39:08Z</time>
      </trkpt>
      <trkpt lat="45.93545" lon="4.72228">
        <ele>172</ele>
        <time>2017-03-19T11:39:09Z</time>
      </trkpt>
      <trkpt lat="45.93542" lon="4.72235">
        <ele>172</ele>
        <time>2017-03-19T11:39:10Z</time>
      </trkpt>
      <trkpt lat="45.93539" lon="4.72241">
        <ele>172</ele>
        <time>2017-03-19T11:39:11Z</time>
      </trkpt>
      <trkpt lat="45.93536" lon="4.72247">
        <ele>172</ele>
        <time>2017-03-19T11:39:12Z</time>
      </trkpt>
      <trkpt lat="45.93534" lon="4.72253">
        <ele>172</ele>
        <time>2017-03-19T11:39:13Z</time>
      </trkpt>
      <trkpt lat="45.93531" lon="4.72258">
        <ele>172</ele>
        <time>2017-03-19T11:39:14Z</time>
      </trkpt>
      <trkpt lat="45.93529" lon="4.72264">
        <ele>172</ele>
        <time>2017-03-19T11:39:15Z</time>
      </trkpt>
      <trkpt lat="45.93526" lon="4.72271">
        <ele>172</ele>
        <time>2017-03-19T11:39:16Z</time>
      </trkpt>
      <trkpt lat="45.93523" lon="4.72278">
        <ele>172</ele>
        <time>2017-03-19T11:39:17Z</time>
      </trkpt>
      <trkpt lat="45.93521" lon="4.72283">
        <ele>172</ele>
        <time>2017-03-19T11:39:18Z</time>
      </trkpt>
      <trkpt lat="45.93518" lon="4.72289">
        <ele>172</ele>
        <time>2017-03-19T11:39:19Z</time>
      </trkpt>
      <trkpt lat="45.93515" lon="4.72295">
        <ele>172</ele>
        <time>2017-03-19T11:39:20Z</time>
      </trkpt>
      <trkpt lat="45.93512" lon="4.723">
        <ele>172</ele>
        <time>2017-03-19T11:39:21Z</time>
      </trkpt>
      <trkpt lat="45.93508" lon="4.72305">
        <ele>173</ele>
        <time>2017-03-19T11:39:22Z</time>
      </trkpt>
      <trkpt lat="45.93504" lon="4.72311">
        <ele>173</ele>
        <time>2017-03-19T11:39:23Z</time>
      </trkpt>
      <trkpt lat="45.935" lon="4.72317">
        <ele>173</ele>
        <time>2017-03-19T11:39:24Z</time>
      </trkpt>
      <trkpt lat="45.93496" lon="4.72322">
        <ele>173</ele>
        <time>2017-03-19T11:39:25Z</time>
      </trkpt>
      <trkpt lat="45.93492" lon="4.72328">
        <ele>173</ele>
        <time>2017-03-19T11:39:26Z</time>
      </trkpt>
      <trkpt lat="45.93489" lon="4.72333">
        <ele>173</ele>
        <time>2017-03-19T11:39:27Z</time>
      </trkpt>
      <trkpt lat="45.93485" lon="4.72339">
        <ele>173</ele>
        <time>2017-03-19T11:39:28Z</time>
      </trkpt>
      <trkpt lat="45.93481" lon="4.72345">
        <ele>173</ele>
        <time>2017-03-19T11:39:29Z</time>
      </trkpt>
      <trkpt lat="45.93477" lon="4.72351">
        <ele>173</ele>
        <time>2017-03-19T11:39:30Z</time>
      </trkpt>
      <trkpt lat="45.93473" lon="4.72357">
        <ele>173</ele>
        <time>2017-03-19T11:39:31Z</time>
      </trkpt>
      <trkpt lat="45.93468" lon="4.72364">
        <ele>173</ele>
        <time>2017-03-19T11:39:32Z</time>
      </trkpt>
      <trkpt lat="45.93464" lon="4.7237">
        <ele>173</ele>
        <time>2017-03-19T11:39:33Z</time>
      </trkpt>
      <trkpt lat="45.9346" lon="4.72375">
        <ele>173</ele>
        <time>2017-03-19T11:39:34Z</time>
      </trkpt>
      <trkpt lat="45.93455" lon="4.7238">
        <ele>173</ele>
        <time>2017-03-19T11:39:35Z</time>
      </trkpt>
      <trkpt lat="45.9345" lon="4.72385">
        <ele>173</ele>
        <time>2017-03-19T11:39:36Z</time>
      </trkpt>
      <trkpt lat="45.93445" lon="4.72389">
        <ele>173</ele>
        <time>2017-03-19T11:39:37Z</time>
      </trkpt>
      <trkpt lat="45.93439" lon="4.72392">
        <ele>173</ele>
        <time>2017-03-19T11:39:38Z</time>
      </trkpt>
      <trkpt lat="45.93434" lon="4.72394">
        <ele>173</ele>
        <time>2017-03-19T11:39:39Z</time>
      </trkpt>
      <trkpt lat="45.93429" lon="4.72397">
        <ele>174</ele>
        <time>2017-03-19T11:39:40Z</time>
      </trkpt>
      <trkpt lat="45.93424" lon="4.72398">
        <ele>174</ele>
        <time>2017-03-19T11:39:41Z</time>
      </trkpt>
      <trkpt lat="45.93419" lon="4.72401">
        <ele>174</ele>
        <time>2017-03-19T11:39:42Z</time>
      </trkpt>
      <trkpt lat="45.93413" lon="4.72403">
        <ele>174</ele>
        <time>2017-03-19T11:39:43Z</time>
      </trkpt>
      <trkpt lat="45.93408" lon="4.72403">
        <ele>174</ele>
        <time>2017-03-19T11:39:44Z</time>
      </trkpt>
      <trkpt lat="45.93403" lon="4.72403">
        <ele>174</ele>
        <time>2017-03-19T11:39:45Z</time>
      </trkpt>
      <trkpt lat="45.93398" lon="4.72402">
        <ele>174</ele>
        <time>2017-03-19T11:39:46Z</time>
      </trkpt>
      <trkpt lat="45.93392" lon="4.72402">
        <ele>174</ele>
        <time>2017-03-19T11:39:47Z</time>
      </trkpt>
      <trkpt lat="45.93388" lon="4.72405">
        <ele>174</ele>
        <time>2017-03-19T11:39:48Z</time>
      </trkpt>
      <trkpt lat="45.93384" lon="4.72411">
        <ele>174</ele>
        <time>2017-03-19T11:39:49Z</time>
      </trkpt>
      <trkpt lat="45.93383" lon="4.72419">
        <ele>173</ele>
        <time>2017-03-19T11:39:50Z</time>
      </trkpt>
      <trkpt lat="45.93385" lon="4.72426">
        <ele>173</ele>
        <time>2017-03-19T11:39:51Z</time>
      </trkpt>
      <trkpt lat="45.93387" lon="4.72434">
        <ele>173</ele>
        <time>2017-03-19T11:39:52Z</time>
      </trkpt>
      <trkpt lat="45.9339" lon="4.72442">
        <ele>173</ele>
        <time>2017-03-19T11:39:53Z</time>
      </trkpt>
      <trkpt lat="45.93391" lon="4.7245">
        <ele>173</ele>
        <time>2017-03-19T11:39:54Z</time>
      </trkpt>
      <trkpt lat="45.9339" lon="4.72458">
        <ele>173</ele>
        <time>2017-03-19T11:39:55Z</time>
      </trkpt>
      <trkpt lat="45.93386" lon="4.72464">
        <ele>173</ele>
        <time>2017-03-19T11:39:56Z</time>
      </trkpt>
      <trkpt lat="45.93382" lon="4.72469">
        <ele>173</ele>
        <time>2017-03-19T11:39:57Z</time>
      </trkpt>
      <trkpt lat="45.93377" lon="4.72474">
        <ele>173</ele>
        <time>2017-03-19T11:39:58Z</time>
      </trkpt>
      <trkpt lat="45.93372" lon="4.72479">
        <ele>173</ele>
        <time>2017-03-19T11:39:59Z</time>
      </trkpt>
      <trkpt lat="45.93368" lon="4.72485">
        <ele>173</ele>
        <time>2017-03-19T11:40:00Z</time>
      </trkpt>
      <trkpt lat="45.93364" lon="4.7249">
        <ele>173</ele>
        <time>2017-03-19T11:40:01Z</time>
      </trkpt>
      <trkpt lat="45.9336" lon="4.72496">
        <ele>173</ele>
        <time>2017-03-19T11:40:02Z</time>
      </trkpt>
      <trkpt lat="45.93356" lon="4.72501">
        <ele>172</ele>
        <time>2017-03-19T11:40:03Z</time>
      </trkpt>
      <trkpt lat="45.93351" lon="4.72506">
        <ele>172</ele>
        <time>2017-03-19T11:40:04Z</time>
      </trkpt>
      <trkpt lat="45.93347" lon="4.72511">
        <ele>172</ele>
        <time>2017-03-19T11:40:05Z</time>
      </trkpt>
      <trkpt lat="45.93342" lon="4.72516">
        <ele>172</ele>
        <time>2017-03-19T11:40:06Z</time>
      </trkpt>
      <trkpt lat="45.93338" lon="4.72521">
        <ele>172</ele>
        <time>2017-03-19T11:40:07Z</time>
      </trkpt>
      <trkpt lat="45.93334" lon="4.72526">
        <ele>172</ele>
        <time>2017-03-19T11:40:08Z</time>
      </trkpt>
      <trkpt lat="45.93329" lon="4.72531">
        <ele>172</ele>
        <time>2017-03-19T11:40:09Z</time>
      </trkpt>
      <trkpt lat="45.93324" lon="4.72536">
        <ele>172</ele>
        <time>2017-03-19T11:40:10Z</time>
      </trkpt>
      <trkpt lat="45.9332" lon="4.72541">
        <ele>172</ele>
        <time>2017-03-19T11:40:11Z</time>
      </trkpt>
      <trkpt lat="45.93315" lon="4.72546">
        <ele>172</ele>
        <time>2017-03-19T11:40:12Z</time>
      </trkpt>
      <trkpt lat="45.93311" lon="4.72552">
        <ele>172</ele>
        <time>2017-03-19T11:40:13Z</time>
      </trkpt>
      <trkpt lat="45.93306" lon="4.72557">
        <ele>172</ele>
        <time>2017-03-19T11:40:14Z</time>
      </trkpt>
      <trkpt lat="45.93301" lon="4.72563">
        <ele>172</ele>
        <time>2017-03-19T11:40:15Z</time>
      </trkpt>
      <trkpt lat="45.93296" lon="4.72569">
        <ele>172</ele>
        <time>2017-03-19T11:40:16Z</time>
      </trkpt>
      <trkpt lat="45.93291" lon="4.72574">
        <ele>172</ele>
        <time>2017-03-19T11:40:17Z</time>
      </trkpt>
      <trkpt lat="45.93285" lon="4.72582">
        <ele>171</ele>
        <time>2017-03-19T11:40:18Z</time>
      </trkpt>
      <trkpt lat="45.9328" lon="4.72588">
        <ele>170</ele>
        <time>2017-03-19T11:40:19Z</time>
      </trkpt>
      <trkpt lat="45.93276" lon="4.72594">
        <ele>170</ele>
        <time>2017-03-19T11:40:20Z</time>
      </trkpt>
      <trkpt lat="45.93271" lon="4.72599">
        <ele>170</ele>
        <time>2017-03-19T11:40:21Z</time>
      </trkpt>
      <trkpt lat="45.93267" lon="4.72604">
        <ele>170</ele>
        <time>2017-03-19T11:40:22Z</time>
      </trkpt>
      <trkpt lat="45.93263" lon="4.72608">
        <ele>170</ele>
        <time>2017-03-19T11:40:23Z</time>
      </trkpt>
      <trkpt lat="45.93259" lon="4.72613">
        <ele>170</ele>
        <time>2017-03-19T11:40:24Z</time>
      </trkpt>
      <trkpt lat="45.93255" lon="4.72618">
        <ele>170</ele>
        <time>2017-03-19T11:40:25Z</time>
      </trkpt>
      <trkpt lat="45.9325" lon="4.72622">
        <ele>170</ele>
        <time>2017-03-19T11:40:26Z</time>
      </trkpt>
      <trkpt lat="45.93246" lon="4.72627">
        <ele>170</ele>
        <time>2017-03-19T11:40:27Z</time>
      </trkpt>
      <trkpt lat="45.93241" lon="4.72632">
        <ele>170</ele>
        <time>2017-03-19T11:40:28Z</time>
      </trkpt>
      <trkpt lat="45.93237" lon="4.72636">
        <ele>170</ele>
        <time>2017-03-19T11:40:29Z</time>
      </trkpt>
      <trkpt lat="45.93233" lon="4.72641">
        <ele>170</ele>
        <time>2017-03-19T11:40:30Z</time>
      </trkpt>
      <trkpt lat="45.93228" lon="4.72647">
        <ele>170</ele>
        <time>2017-03-19T11:40:31Z</time>
      </trkpt>
      <trkpt lat="45.93224" lon="4.72652">
        <ele>170</ele>
        <time>2017-03-19T11:40:32Z</time>
      </trkpt>
      <trkpt lat="45.9322" lon="4.72658">
        <ele>170</ele>
        <time>2017-03-19T11:40:33Z</time>
      </trkpt>
      <trkpt lat="45.93215" lon="4.72663">
        <ele>170</ele>
        <time>2017-03-19T11:40:34Z</time>
      </trkpt>
      <trkpt lat="45.93211" lon="4.72668">
        <ele>169</ele>
        <time>2017-03-19T11:40:35Z</time>
      </trkpt>
      <trkpt lat="45.93207" lon="4.72673">
        <ele>169</ele>
        <time>2017-03-19T11:40:36Z</time>
      </trkpt>
      <trkpt lat="45.93203" lon="4.72678">
        <ele>169</ele>
        <time>2017-03-19T11:40:37Z</time>
      </trkpt>
      <trkpt lat="45.93198" lon="4.72683">
        <ele>169</ele>
        <time>2017-03-19T11:40:38Z</time>
      </trkpt>
      <trkpt lat="45.93194" lon="4.72688">
        <ele>169</ele>
        <time>2017-03-19T11:40:39Z</time>
      </trkpt>
      <trkpt lat="45.9319" lon="4.72694">
        <ele>169</ele>
        <time>2017-03-19T11:40:40Z</time>
      </trkpt>
      <trkpt lat="45.93186" lon="4.72699">
        <ele>169</ele>
        <time>2017-03-19T11:40:41Z</time>
      </trkpt>
      <trkpt lat="45.93181" lon="4.72704">
        <ele>169</ele>
        <time>2017-03-19T11:40:42Z</time>
      </trkpt>
      <trkpt lat="45.93177" lon="4.72709">
        <ele>169</ele>
        <time>2017-03-19T11:40:43Z</time>
      </trkpt>
      <trkpt lat="45.93173" lon="4.72715">
        <ele>170</ele>
        <time>2017-03-19T11:40:44Z</time>
      </trkpt>
      <trkpt lat="45.93168" lon="4.7272">
        <ele>170</ele>
        <time>2017-03-19T11:40:45Z</time>
      </trkpt>
      <trkpt lat="45.93164" lon="4.72725">
        <ele>170</ele>
        <time>2017-03-19T11:40:46Z</time>
      </trkpt>
      <trkpt lat="45.93159" lon="4.72729">
        <ele>170</ele>
        <time>2017-03-19T11:40:47Z</time>
      </trkpt>
      <trkpt lat="45.93155" lon="4.72734">
        <ele>170</ele>
        <time>2017-03-19T11:40:48Z</time>
      </trkpt>
      <trkpt lat="45.93151" lon="4.72739">
        <ele>170</ele>
        <time>2017-03-19T11:40:49Z</time>
      </trkpt>
      <trkpt lat="45.93147" lon="4.72745">
        <ele>170</ele>
        <time>2017-03-19T11:40:50Z</time>
      </trkpt>
      <trkpt lat="45.93143" lon="4.7275">
        <ele>170</ele>
        <time>2017-03-19T11:40:51Z</time>
      </trkpt>
      <trkpt lat="45.93138" lon="4.72755">
        <ele>171</ele>
        <time>2017-03-19T11:40:52Z</time>
      </trkpt>
      <trkpt lat="45.93134" lon="4.72761">
        <ele>171</ele>
        <time>2017-03-19T11:40:53Z</time>
      </trkpt>
      <trkpt lat="45.93129" lon="4.72766">
        <ele>171</ele>
        <time>2017-03-19T11:40:54Z</time>
      </trkpt>
      <trkpt lat="45.93124" lon="4.72772">
        <ele>171</ele>
        <time>2017-03-19T11:40:55Z</time>
      </trkpt>
      <trkpt lat="45.9312" lon="4.72777">
        <ele>171</ele>
        <time>2017-03-19T11:40:56Z</time>
      </trkpt>
      <trkpt lat="45.93115" lon="4.72783">
        <ele>171</ele>
        <time>2017-03-19T11:40:57Z</time>
      </trkpt>
      <trkpt lat="45.93111" lon="4.72788">
        <ele>171</ele>
        <time>2017-03-19T11:40:58Z</time>
      </trkpt>
      <trkpt lat="45.93107" lon="4.72793">
        <ele>171</ele>
        <time>2017-03-19T11:40:59Z</time>
      </trkpt>
      <trkpt lat="45.93103" lon="4.72798">
        <ele>171</ele>
        <time>2017-03-19T11:41:00Z</time>
      </trkpt>
      <trkpt lat="45.93099" lon="4.72803">
        <ele>171</ele>
        <time>2017-03-19T11:41:01Z</time>
      </trkpt>
      <trkpt lat="45.93095" lon="4.72808">
        <ele>172</ele>
        <time>2017-03-19T11:41:02Z</time>
      </trkpt>
      <trkpt lat="45.9309" lon="4.72812">
        <ele>172</ele>
        <time>2017-03-19T11:41:03Z</time>
      </trkpt>
      <trkpt lat="45.93086" lon="4.72817">
        <ele>172</ele>
        <time>2017-03-19T11:41:04Z</time>
      </trkpt>
      <trkpt lat="45.93082" lon="4.72821">
        <ele>173</ele>
        <time>2017-03-19T11:41:05Z</time>
      </trkpt>
      <trkpt lat="45.93078" lon="4.72825">
        <ele>173</ele>
        <time>2017-03-19T11:41:06Z</time>
      </trkpt>
      <trkpt lat="45.93074" lon="4.7283">
        <ele>173</ele>
        <time>2017-03-19T11:41:07Z</time>
      </trkpt>
      <trkpt lat="45.9307" lon="4.72834">
        <ele>173</ele>
        <time>2017-03-19T11:41:08Z</time>
      </trkpt>
      <trkpt lat="45.93066" lon="4.72836">
        <ele>173</ele>
        <time>2017-03-19T11:41:09Z</time>
      </trkpt>
      <trkpt lat="45.93062" lon="4.72844">
        <ele>172</ele>
        <time>2017-03-19T11:41:10Z</time>
      </trkpt>
      <trkpt lat="45.93058" lon="4.7285">
        <ele>172</ele>
        <time>2017-03-19T11:41:11Z</time>
      </trkpt>
      <trkpt lat="45.93052" lon="4.72853">
        <ele>172</ele>
        <time>2017-03-19T11:41:12Z</time>
      </trkpt>
      <trkpt lat="45.93048" lon="4.72858">
        <ele>172</ele>
        <time>2017-03-19T11:41:13Z</time>
      </trkpt>
      <trkpt lat="45.93044" lon="4.72862">
        <ele>172</ele>
        <time>2017-03-19T11:41:14Z</time>
      </trkpt>
      <trkpt lat="45.93039" lon="4.72867">
        <ele>172</ele>
        <time>2017-03-19T11:41:15Z</time>
      </trkpt>
      <trkpt lat="45.93034" lon="4.72873">
        <ele>172</ele>
        <time>2017-03-19T11:41:16Z</time>
      </trkpt>
      <trkpt lat="45.93029" lon="4.72879">
        <ele>172</ele>
        <time>2017-03-19T11:41:17Z</time>
      </trkpt>
      <trkpt lat="45.93025" lon="4.72885">
        <ele>172</ele>
        <time>2017-03-19T11:41:18Z</time>
      </trkpt>
      <trkpt lat="45.93021" lon="4.7289">
        <ele>172</ele>
        <time>2017-03-19T11:41:19Z</time>
      </trkpt>
      <trkpt lat="45.93016" lon="4.72895">
        <ele>172</ele>
        <time>2017-03-19T11:41:20Z</time>
      </trkpt>
      <trkpt lat="45.93011" lon="4.729">
        <ele>172</ele>
        <time>2017-03-19T11:41:21Z</time>
      </trkpt>
      <trkpt lat="45.93007" lon="4.72905">
        <ele>171</ele>
        <time>2017-03-19T11:41:22Z</time>
      </trkpt>
      <trkpt lat="45.93004" lon="4.7291">
        <ele>171</ele>
        <time>2017-03-19T11:41:23Z</time>
      </trkpt>
      <trkpt lat="45.93001" lon="4.72915">
        <ele>171</ele>
        <time>2017-03-19T11:41:24Z</time>
      </trkpt>
      <trkpt lat="45.92997" lon="4.72919">
        <ele>171</ele>
        <time>2017-03-19T11:41:25Z</time>
      </trkpt>
      <trkpt lat="45.92994" lon="4.72924">
        <ele>171</ele>
        <time>2017-03-19T11:41:26Z</time>
      </trkpt>
      <trkpt lat="45.9299" lon="4.72928">
        <ele>171</ele>
        <time>2017-03-19T11:41:27Z</time>
      </trkpt>
      <trkpt lat="45.92986" lon="4.72932">
        <ele>171</ele>
        <time>2017-03-19T11:41:28Z</time>
      </trkpt>
      <trkpt lat="45.9298" lon="4.7294">
        <ele>171</ele>
        <time>2017-03-19T11:41:30Z</time>
      </trkpt>
      <trkpt lat="45.92977" lon="4.72944">
        <ele>171</ele>
        <time>2017-03-19T11:41:31Z</time>
      </trkpt>
      <trkpt lat="45.92973" lon="4.72948">
        <ele>171</ele>
        <time>2017-03-19T11:41:32Z</time>
      </trkpt>
      <trkpt lat="45.9297" lon="4.72952">
        <ele>171</ele>
        <time>2017-03-19T11:41:33Z</time>
      </trkpt>
      <trkpt lat="45.92966" lon="4.72957">
        <ele>171</ele>
        <time>2017-03-19T11:41:34Z</time>
      </trkpt>
      <trkpt lat="45.92962" lon="4.72961">
        <ele>171</ele>
        <time>2017-03-19T11:41:35Z</time>
      </trkpt>
      <trkpt lat="45.92958" lon="4.72966">
        <ele>171</ele>
        <time>2017-03-19T11:41:36Z</time>
      </trkpt>
      <trkpt lat="45.92955" lon="4.72971">
        <ele>171</ele>
        <time>2017-03-19T11:41:37Z</time>
      </trkpt>
      <trkpt lat="45.9295" lon="4.72975">
        <ele>171</ele>
        <time>2017-03-19T11:41:38Z</time>
      </trkpt>
      <trkpt lat="45.92946" lon="4.7298">
        <ele>171</ele>
        <time>2017-03-19T11:41:39Z</time>
      </trkpt>
      <trkpt lat="45.92942" lon="4.72985">
        <ele>171</ele>
        <time>2017-03-19T11:41:40Z</time>
      </trkpt>
      <trkpt lat="45.92938" lon="4.72991">
        <ele>171</ele>
        <time>2017-03-19T11:41:41Z</time>
      </trkpt>
      <trkpt lat="45.92934" lon="4.72996">
        <ele>172</ele>
        <time>2017-03-19T11:41:42Z</time>
      </trkpt>
      <trkpt lat="45.9293" lon="4.73001">
        <ele>172</ele>
        <time>2017-03-19T11:41:43Z</time>
      </trkpt>
      <trkpt lat="45.92926" lon="4.73006">
        <ele>172</ele>
        <time>2017-03-19T11:41:44Z</time>
      </trkpt>
      <trkpt lat="45.92922" lon="4.73011">
        <ele>172</ele>
        <time>2017-03-19T11:41:45Z</time>
      </trkpt>
      <trkpt lat="45.92918" lon="4.73016">
        <ele>172</ele>
        <time>2017-03-19T11:41:46Z</time>
      </trkpt>
      <trkpt lat="45.92914" lon="4.73021">
        <ele>172</ele>
        <time>2017-03-19T11:41:47Z</time>
      </trkpt>
      <trkpt lat="45.9291" lon="4.73025">
        <ele>172</ele>
        <time>2017-03-19T11:41:48Z</time>
      </trkpt>
      <trkpt lat="45.92907" lon="4.7303">
        <ele>172</ele>
        <time>2017-03-19T11:41:49Z</time>
      </trkpt>
      <trkpt lat="45.92903" lon="4.73034">
        <ele>172</ele>
        <time>2017-03-19T11:41:50Z</time>
      </trkpt>
      <trkpt lat="45.929" lon="4.73039">
        <ele>172</ele>
        <time>2017-03-19T11:41:51Z</time>
      </trkpt>
      <trkpt lat="45.92893" lon="4.73047">
        <ele>172</ele>
        <time>2017-03-19T11:41:53Z</time>
      </trkpt>
      <trkpt lat="45.92891" lon="4.73052">
        <ele>172</ele>
        <time>2017-03-19T11:41:54Z</time>
      </trkpt>
      <trkpt lat="45.92887" lon="4.73058">
        <ele>172</ele>
        <time>2017-03-19T11:41:55Z</time>
      </trkpt>
      <trkpt lat="45.92885" lon="4.73064">
        <ele>172</ele>
        <time>2017-03-19T11:41:56Z</time>
      </trkpt>
      <trkpt lat="45.92882" lon="4.7307">
        <ele>172</ele>
        <time>2017-03-19T11:41:57Z</time>
      </trkpt>
      <trkpt lat="45.92878" lon="4.73077">
        <ele>172</ele>
        <time>2017-03-19T11:41:58Z</time>
      </trkpt>
      <trkpt lat="45.92876" lon="4.73083">
        <ele>172</ele>
        <time>2017-03-19T11:41:59Z</time>
      </trkpt>
      <trkpt lat="45.92873" lon="4.73091">
        <ele>172</ele>
        <time>2017-03-19T11:42:00Z</time>
      </trkpt>
      <trkpt lat="45.92871" lon="4.73099">
        <ele>172</ele>
        <time>2017-03-19T11:42:01Z</time>
      </trkpt>
      <trkpt lat="45.92869" lon="4.73107">
        <ele>172</ele>
        <time>2017-03-19T11:42:02Z</time>
      </trkpt>
      <trkpt lat="45.92867" lon="4.73115">
        <ele>171</ele>
        <time>2017-03-19T11:42:03Z</time>
      </trkpt>
      <trkpt lat="45.92865" lon="4.73123">
        <ele>171</ele>
        <time>2017-03-19T11:42:04Z</time>
      </trkpt>
      <trkpt lat="45.92864" lon="4.73131">
        <ele>171</ele>
        <time>2017-03-19T11:42:05Z</time>
      </trkpt>
      <trkpt lat="45.92863" lon="4.7314">
        <ele>171</ele>
        <time>2017-03-19T11:42:06Z</time>
      </trkpt>
      <trkpt lat="45.92862" lon="4.73148">
        <ele>171</ele>
        <time>2017-03-19T11:42:07Z</time>
      </trkpt>
      <trkpt lat="45.92861" lon="4.73156">
        <ele>171</ele>
        <time>2017-03-19T11:42:08Z</time>
      </trkpt>
      <trkpt lat="45.9286" lon="4.73165">
        <ele>171</ele>
        <time>2017-03-19T11:42:09Z</time>
      </trkpt>
      <trkpt lat="45.92859" lon="4.73173">
        <ele>171</ele>
        <time>2017-03-19T11:42:10Z</time>
      </trkpt>
      <trkpt lat="45.92858" lon="4.73182">
        <ele>171</ele>
        <time>2017-03-19T11:42:11Z</time>
      </trkpt>
      <trkpt lat="45.92857" lon="4.7319">
        <ele>171</ele>
        <time>2017-03-19T11:42:12Z</time>
      </trkpt>
      <trkpt lat="45.92856" lon="4.73199">
        <ele>171</ele>
        <time>2017-03-19T11:42:13Z</time>
      </trkpt>
      <trkpt lat="45.92855" lon="4.73208">
        <ele>171</ele>
        <time>2017-03-19T11:42:14Z</time>
      </trkpt>
      <trkpt lat="45.92855" lon="4.73216">
        <ele>171</ele>
        <time>2017-03-19T11:42:15Z</time>
      </trkpt>
      <trkpt lat="45.92854" lon="4.73224">
        <ele>171</ele>
        <time>2017-03-19T11:42:16Z</time>
      </trkpt>
      <trkpt lat="45.92853" lon="4.73233">
        <ele>171</ele>
        <time>2017-03-19T11:42:17Z</time>
      </trkpt>
      <trkpt lat="45.92852" lon="4.73241">
        <ele>171</ele>
        <time>2017-03-19T11:42:18Z</time>
      </trkpt>
      <trkpt lat="45.92851" lon="4.73249">
        <ele>171</ele>
        <time>2017-03-19T11:42:19Z</time>
      </trkpt>
      <trkpt lat="45.9285" lon="4.73257">
        <ele>171</ele>
        <time>2017-03-19T11:42:20Z</time>
      </trkpt>
      <trkpt lat="45.92849" lon="4.73265">
        <ele>171</ele>
        <time>2017-03-19T11:42:21Z</time>
      </trkpt>
      <trkpt lat="45.92848" lon="4.73274">
        <ele>171</ele>
        <time>2017-03-19T11:42:22Z</time>
      </trkpt>
      <trkpt lat="45.92847" lon="4.73282">
        <ele>171</ele>
        <time>2017-03-19T11:42:23Z</time>
      </trkpt>
      <trkpt lat="45.92846" lon="4.73291">
        <ele>171</ele>
        <time>2017-03-19T11:42:24Z</time>
      </trkpt>
      <trkpt lat="45.92845" lon="4.733">
        <ele>171</ele>
        <time>2017-03-19T11:42:25Z</time>
      </trkpt>
      <trkpt lat="45.92844" lon="4.73308">
        <ele>171</ele>
        <time>2017-03-19T11:42:26Z</time>
      </trkpt>
      <trkpt lat="45.92843" lon="4.73317">
        <ele>171</ele>
        <time>2017-03-19T11:42:27Z</time>
      </trkpt>
      <trkpt lat="45.92842" lon="4.73326">
        <ele>171</ele>
        <time>2017-03-19T11:42:28Z</time>
      </trkpt>
      <trkpt lat="45.92841" lon="4.73335">
        <ele>171</ele>
        <time>2017-03-19T11:42:29Z</time>
      </trkpt>
      <trkpt lat="45.9284" lon="4.73343">
        <ele>171</ele>
        <time>2017-03-19T11:42:30Z</time>
      </trkpt>
      <trkpt lat="45.92839" lon="4.73351">
        <ele>171</ele>
        <time>2017-03-19T11:42:31Z</time>
      </trkpt>
      <trkpt lat="45.92838" lon="4.73359">
        <ele>171</ele>
        <time>2017-03-19T11:42:32Z</time>
      </trkpt>
      <trkpt lat="45.92837" lon="4.73366">
        <ele>171</ele>
        <time>2017-03-19T11:42:33Z</time>
      </trkpt>
      <trkpt lat="45.92836" lon="4.73373">
        <ele>171</ele>
        <time>2017-03-19T11:42:34Z</time>
      </trkpt>
      <trkpt lat="45.92836" lon="4.7338">
        <ele>172</ele>
        <time>2017-03-19T11:42:35Z</time>
      </trkpt>
      <trkpt lat="45.92835" lon="4.73387">
        <ele>172</ele>
        <time>2017-03-19T11:42:36Z</time>
      </trkpt>
      <trkpt lat="45.92834" lon="4.73394">
        <ele>172</ele>
        <time>2017-03-19T11:42:37Z</time>
      </trkpt>
      <trkpt lat="45.92833" lon="4.73402">
        <ele>172</ele>
        <time>2017-03-19T11:42:38Z</time>
      </trkpt>
      <trkpt lat="45.92833" lon="4.73409">
        <ele>172</ele>
        <time>2017-03-19T11:42:39Z</time>
      </trkpt>
      <trkpt lat="45.92832" lon="4.73417">
        <ele>172</ele>
        <time>2017-03-19T11:42:40Z</time>
      </trkpt>
      <trkpt lat="45.92831" lon="4.73425">
        <ele>172</ele>
        <time>2017-03-19T11:42:41Z</time>
      </trkpt>
      <trkpt lat="45.92831" lon="4.73433">
        <ele>172</ele>
        <time>2017-03-19T11:42:42Z</time>
      </trkpt>
      <trkpt lat="45.92831" lon="4.73441">
        <ele>172</ele>
        <time>2017-03-19T11:42:43Z</time>
      </trkpt>
      <trkpt lat="45.9283" lon="4.73448">
        <ele>172</ele>
        <time>2017-03-19T11:42:44Z</time>
      </trkpt>
      <trkpt lat="45.92829" lon="4.73455">
        <ele>172</ele>
        <time>2017-03-19T11:42:45Z</time>
      </trkpt>
      <trkpt lat="45.92828" lon="4.73462">
        <ele>172</ele>
        <time>2017-03-19T11:42:46Z</time>
      </trkpt>
      <trkpt lat="45.92827" lon="4.73468">
        <ele>172</ele>
        <time>2017-03-19T11:42:47Z</time>
      </trkpt>
      <trkpt lat="45.92825" lon="4.73475">
        <ele>172</ele>
        <time>2017-03-19T11:42:48Z</time>
      </trkpt>
      <trkpt lat="45.92825" lon="4.73483">
        <ele>172</ele>
        <time>2017-03-19T11:42:49Z</time>
      </trkpt>
      <trkpt lat="45.92824" lon="4.7349">
        <ele>172</ele>
        <time>2017-03-19T11:42:50Z</time>
      </trkpt>
      <trkpt lat="45.92823" lon="4.73498">
        <ele>172</ele>
        <time>2017-03-19T11:42:51Z</time>
      </trkpt>
      <trkpt lat="45.92822" lon="4.73505">
        <ele>172</ele>
        <time>2017-03-19T11:42:52Z</time>
      </trkpt>
      <trkpt lat="45.9282" lon="4.73513">
        <ele>172</ele>
        <time>2017-03-19T11:42:53Z</time>
      </trkpt>
      <trkpt lat="45.92819" lon="4.7352">
        <ele>172</ele>
        <time>2017-03-19T11:42:54Z</time>
      </trkpt>
      <trkpt lat="45.92818" lon="4.73527">
        <ele>172</ele>
        <time>2017-03-19T11:42:55Z</time>
      </trkpt>
      <trkpt lat="45.92818" lon="4.73534">
        <ele>172</ele>
        <time>2017-03-19T11:42:56Z</time>
      </trkpt>
      <trkpt lat="45.92818" lon="4.7354">
        <ele>172</ele>
        <time>2017-03-19T11:42:57Z</time>
      </trkpt>
      <trkpt lat="45.92817" lon="4.73547">
        <ele>171</ele>
        <time>2017-03-19T11:42:58Z</time>
      </trkpt>
      <trkpt lat="45.92817" lon="4.73554">
        <ele>171</ele>
        <time>2017-03-19T11:42:59Z</time>
      </trkpt>
      <trkpt lat="45.92816" lon="4.73561">
        <ele>171</ele>
        <time>2017-03-19T11:43:00Z</time>
      </trkpt>
      <trkpt lat="45.92816" lon="4.73568">
        <ele>171</ele>
        <time>2017-03-19T11:43:01Z</time>
      </trkpt>
      <trkpt lat="45.92815" lon="4.73575">
        <ele>171</ele>
        <time>2017-03-19T11:43:02Z</time>
      </trkpt>
      <trkpt lat="45.92815" lon="4.73583">
        <ele>171</ele>
        <time>2017-03-19T11:43:03Z</time>
      </trkpt>
      <trkpt lat="45.92815" lon="4.7359">
        <ele>171</ele>
        <time>2017-03-19T11:43:04Z</time>
      </trkpt>
      <trkpt lat="45.92815" lon="4.73598">
        <ele>171</ele>
        <time>2017-03-19T11:43:05Z</time>
      </trkpt>
      <trkpt lat="45.92816" lon="4.73606">
        <ele>172</ele>
        <time>2017-03-19T11:43:06Z</time>
      </trkpt>
      <trkpt lat="45.92815" lon="4.73613">
        <ele>172</ele>
        <time>2017-03-19T11:43:07Z</time>
      </trkpt>
      <trkpt lat="45.92814" lon="4.7362">
        <ele>172</ele>
        <time>2017-03-19T11:43:08Z</time>
      </trkpt>
      <trkpt lat="45.92812" lon="4.73626">
        <ele>172</ele>
        <time>2017-03-19T11:43:09Z</time>
      </trkpt>
      <trkpt lat="45.92808" lon="4.7363">
        <ele>172</ele>
        <time>2017-03-19T11:43:10Z</time>
      </trkpt>
      <trkpt lat="45.92805" lon="4.73635">
        <ele>172</ele>
        <time>2017-03-19T11:43:11Z</time>
      </trkpt>
      <trkpt lat="45.92801" lon="4.7364">
        <ele>172</ele>
        <time>2017-03-19T11:43:12Z</time>
      </trkpt>
      <trkpt lat="45.92799" lon="4.73647">
        <ele>172</ele>
        <time>2017-03-19T11:43:13Z</time>
      </trkpt>
      <trkpt lat="45.92797" lon="4.73654">
        <ele>172</ele>
        <time>2017-03-19T11:43:14Z</time>
      </trkpt>
      <trkpt lat="45.92796" lon="4.73661">
        <ele>172</ele>
        <time>2017-03-19T11:43:15Z</time>
      </trkpt>
      <trkpt lat="45.92795" lon="4.73668">
        <ele>172</ele>
        <time>2017-03-19T11:43:16Z</time>
      </trkpt>
      <trkpt lat="45.92794" lon="4.73676">
        <ele>172</ele>
        <time>2017-03-19T11:43:17Z</time>
      </trkpt>
      <trkpt lat="45.92792" lon="4.73682">
        <ele>172</ele>
        <time>2017-03-19T11:43:18Z</time>
      </trkpt>
      <trkpt lat="45.92791" lon="4.73689">
        <ele>172</ele>
        <time>2017-03-19T11:43:19Z</time>
      </trkpt>
      <trkpt lat="45.9279" lon="4.73695">
        <ele>172</ele>
        <time>2017-03-19T11:43:20Z</time>
      </trkpt>
      <trkpt lat="45.92789" lon="4.73702">
        <ele>172</ele>
        <time>2017-03-19T11:43:21Z</time>
      </trkpt>
      <trkpt lat="45.92787" lon="4.73708">
        <ele>172</ele>
        <time>2017-03-19T11:43:22Z</time>
      </trkpt>
      <trkpt lat="45.92786" lon="4.73714">
        <ele>172</ele>
        <time>2017-03-19T11:43:23Z</time>
      </trkpt>
      <trkpt lat="45.92784" lon="4.7372">
        <ele>172</ele>
        <time>2017-03-19T11:43:24Z</time>
      </trkpt>
      <trkpt lat="45.92779" lon="4.73728">
        <ele>172</ele>
        <time>2017-03-19T11:43:26Z</time>
      </trkpt>
      <trkpt lat="45.92775" lon="4.7373">
        <ele>172</ele>
        <time>2017-03-19T11:43:27Z</time>
      </trkpt>
      <trkpt lat="45.92767" lon="4.7373">
        <ele>172</ele>
        <time>2017-03-19T11:43:29Z</time>
      </trkpt>
      <trkpt lat="45.92763" lon="4.73728">
        <ele>172</ele>
        <time>2017-03-19T11:43:30Z</time>
      </trkpt>
      <trkpt lat="45.92758" lon="4.73726">
        <ele>172</ele>
        <time>2017-03-19T11:43:31Z</time>
      </trkpt>
      <trkpt lat="45.92753" lon="4.73724">
        <ele>172</ele>
        <time>2017-03-19T11:43:32Z</time>
      </trkpt>
      <trkpt lat="45.92748" lon="4.73722">
        <ele>173</ele>
        <time>2017-03-19T11:43:33Z</time>
      </trkpt>
      <trkpt lat="45.92743" lon="4.7372">
        <ele>173</ele>
        <time>2017-03-19T11:43:34Z</time>
      </trkpt>
      <trkpt lat="45.92738" lon="4.73718">
        <ele>173</ele>
        <time>2017-03-19T11:43:35Z</time>
      </trkpt>
      <trkpt lat="45.92733" lon="4.73716">
        <ele>173</ele>
        <time>2017-03-19T11:43:36Z</time>
      </trkpt>
      <trkpt lat="45.92727" lon="4.73715">
        <ele>173</ele>
        <time>2017-03-19T11:43:37Z</time>
      </trkpt>
      <trkpt lat="45.92722" lon="4.73713">
        <ele>173</ele>
        <time>2017-03-19T11:43:38Z</time>
      </trkpt>
      <trkpt lat="45.92717" lon="4.73712">
        <ele>173</ele>
        <time>2017-03-19T11:43:39Z</time>
      </trkpt>
      <trkpt lat="45.92712" lon="4.7371">
        <ele>173</ele>
        <time>2017-03-19T11:43:40Z</time>
      </trkpt>
      <trkpt lat="45.92707" lon="4.73709">
        <ele>173</ele>
        <time>2017-03-19T11:43:41Z</time>
      </trkpt>
      <trkpt lat="45.92703" lon="4.73709">
        <ele>173</ele>
        <time>2017-03-19T11:43:42Z</time>
      </trkpt>
      <trkpt lat="45.92698" lon="4.73708">
        <ele>173</ele>
        <time>2017-03-19T11:43:43Z</time>
      </trkpt>
      <trkpt lat="45.92693" lon="4.73707">
        <ele>173</ele>
        <time>2017-03-19T11:43:44Z</time>
      </trkpt>
      <trkpt lat="45.92687" lon="4.73706">
        <ele>173</ele>
        <time>2017-03-19T11:43:45Z</time>
      </trkpt>
      <trkpt lat="45.92682" lon="4.73704">
        <ele>173</ele>
        <time>2017-03-19T11:43:46Z</time>
      </trkpt>
      <trkpt lat="45.92676" lon="4.73702">
        <ele>173</ele>
        <time>2017-03-19T11:43:47Z</time>
      </trkpt>
      <trkpt lat="45.92671" lon="4.737">
        <ele>174</ele>
        <time>2017-03-19T11:43:48Z</time>
      </trkpt>
      <trkpt lat="45.92666" lon="4.73697">
        <ele>173</ele>
        <time>2017-03-19T11:43:49Z</time>
      </trkpt>
      <trkpt lat="45.92661" lon="4.73694">
        <ele>173</ele>
        <time>2017-03-19T11:43:50Z</time>
      </trkpt>
      <trkpt lat="45.92657" lon="4.7369">
        <ele>173</ele>
        <time>2017-03-19T11:43:51Z</time>
      </trkpt>
      <trkpt lat="45.92653" lon="4.73686">
        <ele>173</ele>
        <time>2017-03-19T11:43:52Z</time>
      </trkpt>
      <trkpt lat="45.92649" lon="4.73682">
        <ele>173</ele>
        <time>2017-03-19T11:43:53Z</time>
      </trkpt>
      <trkpt lat="45.92645" lon="4.73678">
        <ele>173</ele>
        <time>2017-03-19T11:43:54Z</time>
      </trkpt>
      <trkpt lat="45.92639" lon="4.73668">
        <ele>173</ele>
        <time>2017-03-19T11:43:56Z</time>
      </trkpt>
      <trkpt lat="45.92638" lon="4.73663">
        <ele>173</ele>
        <time>2017-03-19T11:43:57Z</time>
      </trkpt>
      <trkpt lat="45.92634" lon="4.73652">
        <ele>173</ele>
        <time>2017-03-19T11:43:59Z</time>
      </trkpt>
      <trkpt lat="45.92633" lon="4.73647">
        <ele>173</ele>
        <time>2017-03-19T11:44:00Z</time>
      </trkpt>
      <trkpt lat="45.9263" lon="4.73636">
        <ele>173</ele>
        <time>2017-03-19T11:44:02Z</time>
      </trkpt>
      <trkpt lat="45.92627" lon="4.73631">
        <ele>173</ele>
        <time>2017-03-19T11:44:03Z</time>
      </trkpt>
      <trkpt lat="45.92623" lon="4.73627">
        <ele>173</ele>
        <time>2017-03-19T11:44:04Z</time>
      </trkpt>
      <trkpt lat="45.92619" lon="4.73624">
        <ele>173</ele>
        <time>2017-03-19T11:44:05Z</time>
      </trkpt>
      <trkpt lat="45.92614" lon="4.73621">
        <ele>173</ele>
        <time>2017-03-19T11:44:06Z</time>
      </trkpt>
      <trkpt lat="45.92609" lon="4.73619">
        <ele>173</ele>
        <time>2017-03-19T11:44:07Z</time>
      </trkpt>
      <trkpt lat="45.92604" lon="4.73618">
        <ele>173</ele>
        <time>2017-03-19T11:44:08Z</time>
      </trkpt>
      <trkpt lat="45.92599" lon="4.73617">
        <ele>173</ele>
        <time>2017-03-19T11:44:09Z</time>
      </trkpt>
      <trkpt lat="45.92594" lon="4.73617">
        <ele>173</ele>
        <time>2017-03-19T11:44:10Z</time>
      </trkpt>
      <trkpt lat="45.92588" lon="4.73618">
        <ele>173</ele>
        <time>2017-03-19T11:44:11Z</time>
      </trkpt>
      <trkpt lat="45.92583" lon="4.73619">
        <ele>173</ele>
        <time>2017-03-19T11:44:12Z</time>
      </trkpt>
      <trkpt lat="45.92578" lon="4.73621">
        <ele>173</ele>
        <time>2017-03-19T11:44:13Z</time>
      </trkpt>
      <trkpt lat="45.92573" lon="4.73622">
        <ele>173</ele>
        <time>2017-03-19T11:44:14Z</time>
      </trkpt>
      <trkpt lat="45.92568" lon="4.73624">
        <ele>173</ele>
        <time>2017-03-19T11:44:15Z</time>
      </trkpt>
      <trkpt lat="45.92562" lon="4.73626">
        <ele>173</ele>
        <time>2017-03-19T11:44:16Z</time>
      </trkpt>
      <trkpt lat="45.92557" lon="4.73628">
        <ele>173</ele>
        <time>2017-03-19T11:44:17Z</time>
      </trkpt>
      <trkpt lat="45.92551" lon="4.73629">
        <ele>173</ele>
        <time>2017-03-19T11:44:18Z</time>
      </trkpt>
      <trkpt lat="45.92545" lon="4.7363">
        <ele>173</ele>
        <time>2017-03-19T11:44:19Z</time>
      </trkpt>
      <trkpt lat="45.9254" lon="4.7363">
        <ele>173</ele>
        <time>2017-03-19T11:44:20Z</time>
      </trkpt>
      <trkpt lat="45.92534" lon="4.73631">
        <ele>173</ele>
        <time>2017-03-19T11:44:21Z</time>
      </trkpt>
      <trkpt lat="45.92529" lon="4.73632">
        <ele>173</ele>
        <time>2017-03-19T11:44:22Z</time>
      </trkpt>
      <trkpt lat="45.92524" lon="4.73633">
        <ele>173</ele>
        <time>2017-03-19T11:44:23Z</time>
      </trkpt>
      <trkpt lat="45.92519" lon="4.73634">
        <ele>173</ele>
        <time>2017-03-19T11:44:24Z</time>
      </trkpt>
      <trkpt lat="45.92515" lon="4.73635">
        <ele>173</ele>
        <time>2017-03-19T11:44:25Z</time>
      </trkpt>
      <trkpt lat="45.9251" lon="4.73636">
        <ele>173</ele>
        <time>2017-03-19T11:44:26Z</time>
      </trkpt>
      <trkpt lat="45.92506" lon="4.73636">
        <ele>174</ele>
        <time>2017-03-19T11:44:27Z</time>
      </trkpt>
      <trkpt lat="45.92498" lon="4.73636">
        <ele>174</ele>
        <time>2017-03-19T11:44:29Z</time>
      </trkpt>
      <trkpt lat="45.92494" lon="4.73636">
        <ele>174</ele>
        <time>2017-03-19T11:44:30Z</time>
      </trkpt>
      <trkpt lat="45.92486" lon="4.73636">
        <ele>174</ele>
        <time>2017-03-19T11:44:32Z</time>
      </trkpt>
      <trkpt lat="45.92482" lon="4.73637">
        <ele>174</ele>
        <time>2017-03-19T11:44:33Z</time>
      </trkpt>
      <trkpt lat="45.92474" lon="4.73642">
        <ele>174</ele>
        <time>2017-03-19T11:44:35Z</time>
      </trkpt>
      <trkpt lat="45.92472" lon="4.73647">
        <ele>174</ele>
        <time>2017-03-19T11:44:36Z</time>
      </trkpt>
      <trkpt lat="45.9247" lon="4.73658">
        <ele>174</ele>
        <time>2017-03-19T11:44:38Z</time>
      </trkpt>
      <trkpt lat="45.92469" lon="4.73663">
        <ele>174</ele>
        <time>2017-03-19T11:44:39Z</time>
      </trkpt>
      <trkpt lat="45.92468" lon="4.73675">
        <ele>174</ele>
        <time>2017-03-19T11:44:41Z</time>
      </trkpt>
      <trkpt lat="45.92467" lon="4.7368">
        <ele>174</ele>
        <time>2017-03-19T11:44:42Z</time>
      </trkpt>
      <trkpt lat="45.92465" lon="4.7369">
        <ele>174</ele>
        <time>2017-03-19T11:44:44Z</time>
      </trkpt>
      <trkpt lat="45.92465" lon="4.73695">
        <ele>174</ele>
        <time>2017-03-19T11:44:45Z</time>
      </trkpt>
      <trkpt lat="45.92465" lon="4.73708">
        <ele>174</ele>
        <time>2017-03-19T11:44:57Z</time>
      </trkpt>
      <trkpt lat="45.92465" lon="4.73708">
        <ele>174</ele>
        <time>2017-03-19T11:44:58Z</time>
      </trkpt>
      <trkpt lat="45.92465" lon="4.73708">
        <ele>174</ele>
        <time>2017-03-19T11:44:59Z</time>
      </trkpt>
      <trkpt lat="45.92464" lon="4.73708">
        <ele>174</ele>
        <time>2017-03-19T11:45:00Z</time>
      </trkpt>
      <trkpt lat="45.92463" lon="4.73708">
        <ele>174</ele>
        <time>2017-03-19T11:45:26.042Z</time>
      </trkpt>
    </trkseg>
  </trk>
</gpx>